<?xml version="1.0" encoding="UTF-8" standalone="no" ?>
<gpx xmlns="http://www.topografix.com/GPX/1/1" xmlns:xsi="http://www.w3.org/2001/XMLSchema-instance" xsi:schemaLocation="http://www.topografix.com/GPX/1/1 http://www.topografix.com/GPX/1/1/gpx.xsd" version="1.1" creator="VisuGPX - https://www.visugpx.com">
  <metadata>
    <name>Col St Jean - St Colombe</name>
    <desc><![CDATA[Départ col St Jean - suivre la crête direction St Colombe]]></desc>
  </metadata>
  <trk>
    <name><![CDATA[St Colombe le col St Jean]]></name>
    <trkseg>
      <trkpt lat="44.26222" lon="5.62187">
        <ele>1160</ele>
        <time>2018-07-17T05:24:57Z</time>
      </trkpt>
      <trkpt lat="44.26243" lon="5.62211">
        <ele>1162</ele>
        <time>2018-07-17T05:25:41Z</time>
      </trkpt>
      <trkpt lat="44.26242" lon="5.62213">
        <ele>1162</ele>
        <time>2018-07-17T05:25:43Z</time>
      </trkpt>
      <trkpt lat="44.26242" lon="5.62215">
        <ele>1162</ele>
        <time>2018-07-17T05:25:45Z</time>
      </trkpt>
      <trkpt lat="44.26242" lon="5.62217">
        <ele>1162</ele>
        <time>2018-07-17T05:25:47Z</time>
      </trkpt>
      <trkpt lat="44.26242" lon="5.62219">
        <ele>1162</ele>
        <time>2018-07-17T05:25:48Z</time>
      </trkpt>
      <trkpt lat="44.26242" lon="5.62221">
        <ele>1162</ele>
        <time>2018-07-17T05:25:50Z</time>
      </trkpt>
      <trkpt lat="44.26242" lon="5.62224">
        <ele>1162</ele>
        <time>2018-07-17T05:25:52Z</time>
      </trkpt>
      <trkpt lat="44.26242" lon="5.62225">
        <ele>1162</ele>
        <time>2018-07-17T05:25:54Z</time>
      </trkpt>
      <trkpt lat="44.26242" lon="5.62227">
        <ele>1162</ele>
        <time>2018-07-17T05:25:56Z</time>
      </trkpt>
      <trkpt lat="44.26241" lon="5.62229">
        <ele>1162</ele>
        <time>2018-07-17T05:25:58Z</time>
      </trkpt>
      <trkpt lat="44.26242" lon="5.62231">
        <ele>1162</ele>
        <time>2018-07-17T05:26:00Z</time>
      </trkpt>
      <trkpt lat="44.26242" lon="5.62233">
        <ele>1162</ele>
        <time>2018-07-17T05:26:02Z</time>
      </trkpt>
      <trkpt lat="44.26242" lon="5.62234">
        <ele>1162</ele>
        <time>2018-07-17T05:26:04Z</time>
      </trkpt>
      <trkpt lat="44.26242" lon="5.62237">
        <ele>1162</ele>
        <time>2018-07-17T05:26:06Z</time>
      </trkpt>
      <trkpt lat="44.26242" lon="5.62239">
        <ele>1162</ele>
        <time>2018-07-17T05:26:08Z</time>
      </trkpt>
      <trkpt lat="44.26242" lon="5.62241">
        <ele>1162</ele>
        <time>2018-07-17T05:26:09Z</time>
      </trkpt>
      <trkpt lat="44.26242" lon="5.62243">
        <ele>1162</ele>
        <time>2018-07-17T05:26:11Z</time>
      </trkpt>
      <trkpt lat="44.26242" lon="5.62244">
        <ele>1162</ele>
        <time>2018-07-17T05:26:12Z</time>
      </trkpt>
      <trkpt lat="44.26242" lon="5.62246">
        <ele>1162</ele>
        <time>2018-07-17T05:26:13Z</time>
      </trkpt>
      <trkpt lat="44.26242" lon="5.62248">
        <ele>1162</ele>
        <time>2018-07-17T05:26:14Z</time>
      </trkpt>
      <trkpt lat="44.26243" lon="5.6225">
        <ele>1162</ele>
        <time>2018-07-17T05:26:15Z</time>
      </trkpt>
      <trkpt lat="44.26243" lon="5.62251">
        <ele>1162</ele>
        <time>2018-07-17T05:26:16Z</time>
      </trkpt>
      <trkpt lat="44.26244" lon="5.62253">
        <ele>1162</ele>
        <time>2018-07-17T05:26:18Z</time>
      </trkpt>
      <trkpt lat="44.26245" lon="5.62255">
        <ele>1162</ele>
        <time>2018-07-17T05:26:19Z</time>
      </trkpt>
      <trkpt lat="44.26245" lon="5.62256">
        <ele>1162</ele>
        <time>2018-07-17T05:26:20Z</time>
      </trkpt>
      <trkpt lat="44.26245" lon="5.62258">
        <ele>1162</ele>
        <time>2018-07-17T05:26:22Z</time>
      </trkpt>
      <trkpt lat="44.26246" lon="5.6226">
        <ele>1162</ele>
        <time>2018-07-17T05:26:24Z</time>
      </trkpt>
      <trkpt lat="44.26246" lon="5.62262">
        <ele>1162</ele>
        <time>2018-07-17T05:26:25Z</time>
      </trkpt>
      <trkpt lat="44.26247" lon="5.62264">
        <ele>1162</ele>
        <time>2018-07-17T05:26:26Z</time>
      </trkpt>
      <trkpt lat="44.26247" lon="5.62266">
        <ele>1162</ele>
        <time>2018-07-17T05:26:27Z</time>
      </trkpt>
      <trkpt lat="44.26247" lon="5.62268">
        <ele>1162</ele>
        <time>2018-07-17T05:26:28Z</time>
      </trkpt>
      <trkpt lat="44.26247" lon="5.62269">
        <ele>1162</ele>
        <time>2018-07-17T05:26:29Z</time>
      </trkpt>
      <trkpt lat="44.26247" lon="5.62271">
        <ele>1162</ele>
        <time>2018-07-17T05:26:30Z</time>
      </trkpt>
      <trkpt lat="44.26247" lon="5.62273">
        <ele>1162</ele>
        <time>2018-07-17T05:26:31Z</time>
      </trkpt>
      <trkpt lat="44.26247" lon="5.62275">
        <ele>1162</ele>
        <time>2018-07-17T05:26:32Z</time>
      </trkpt>
      <trkpt lat="44.26247" lon="5.62277">
        <ele>1162</ele>
        <time>2018-07-17T05:26:33Z</time>
      </trkpt>
      <trkpt lat="44.26247" lon="5.62279">
        <ele>1162</ele>
        <time>2018-07-17T05:26:35Z</time>
      </trkpt>
      <trkpt lat="44.26247" lon="5.62276">
        <ele>1162</ele>
        <time>2018-07-17T05:26:40Z</time>
      </trkpt>
      <trkpt lat="44.26248" lon="5.62278">
        <ele>1162</ele>
        <time>2018-07-17T05:26:42Z</time>
      </trkpt>
      <trkpt lat="44.26248" lon="5.6228">
        <ele>1162</ele>
        <time>2018-07-17T05:26:44Z</time>
      </trkpt>
      <trkpt lat="44.26249" lon="5.62283">
        <ele>1162</ele>
        <time>2018-07-17T05:26:46Z</time>
      </trkpt>
      <trkpt lat="44.26249" lon="5.62285">
        <ele>1162</ele>
        <time>2018-07-17T05:26:48Z</time>
      </trkpt>
      <trkpt lat="44.26249" lon="5.62288">
        <ele>1162</ele>
        <time>2018-07-17T05:26:50Z</time>
      </trkpt>
      <trkpt lat="44.26249" lon="5.62289">
        <ele>1162</ele>
        <time>2018-07-17T05:26:52Z</time>
      </trkpt>
      <trkpt lat="44.26249" lon="5.62292">
        <ele>1162</ele>
        <time>2018-07-17T05:26:54Z</time>
      </trkpt>
      <trkpt lat="44.2625" lon="5.62295">
        <ele>1162</ele>
        <time>2018-07-17T05:26:56Z</time>
      </trkpt>
      <trkpt lat="44.2625" lon="5.62296">
        <ele>1162</ele>
        <time>2018-07-17T05:26:57Z</time>
      </trkpt>
      <trkpt lat="44.26249" lon="5.62298">
        <ele>1162</ele>
        <time>2018-07-17T05:26:58Z</time>
      </trkpt>
      <trkpt lat="44.2625" lon="5.62301">
        <ele>1162</ele>
        <time>2018-07-17T05:27:00Z</time>
      </trkpt>
      <trkpt lat="44.2625" lon="5.62302">
        <ele>1162</ele>
        <time>2018-07-17T05:27:01Z</time>
      </trkpt>
      <trkpt lat="44.2625" lon="5.62305">
        <ele>1162</ele>
        <time>2018-07-17T05:27:03Z</time>
      </trkpt>
      <trkpt lat="44.2625" lon="5.62306">
        <ele>1162</ele>
        <time>2018-07-17T05:27:04Z</time>
      </trkpt>
      <trkpt lat="44.26251" lon="5.62308">
        <ele>1162</ele>
        <time>2018-07-17T05:27:05Z</time>
      </trkpt>
      <trkpt lat="44.26252" lon="5.6231">
        <ele>1162</ele>
        <time>2018-07-17T05:27:07Z</time>
      </trkpt>
      <trkpt lat="44.26252" lon="5.62312">
        <ele>1162</ele>
        <time>2018-07-17T05:27:09Z</time>
      </trkpt>
      <trkpt lat="44.26252" lon="5.62314">
        <ele>1162</ele>
        <time>2018-07-17T05:27:10Z</time>
      </trkpt>
      <trkpt lat="44.26253" lon="5.62316">
        <ele>1162</ele>
        <time>2018-07-17T05:27:12Z</time>
      </trkpt>
      <trkpt lat="44.26253" lon="5.62318">
        <ele>1162</ele>
        <time>2018-07-17T05:27:13Z</time>
      </trkpt>
      <trkpt lat="44.26253" lon="5.6232">
        <ele>1162</ele>
        <time>2018-07-17T05:27:15Z</time>
      </trkpt>
      <trkpt lat="44.26253" lon="5.62322">
        <ele>1162</ele>
        <time>2018-07-17T05:27:17Z</time>
      </trkpt>
      <trkpt lat="44.26254" lon="5.62324">
        <ele>1162</ele>
        <time>2018-07-17T05:27:19Z</time>
      </trkpt>
      <trkpt lat="44.26254" lon="5.62327">
        <ele>1162</ele>
        <time>2018-07-17T05:27:21Z</time>
      </trkpt>
      <trkpt lat="44.26253" lon="5.62328">
        <ele>1162</ele>
        <time>2018-07-17T05:27:22Z</time>
      </trkpt>
      <trkpt lat="44.26253" lon="5.6233">
        <ele>1162</ele>
        <time>2018-07-17T05:27:23Z</time>
      </trkpt>
      <trkpt lat="44.26253" lon="5.62331">
        <ele>1162</ele>
        <time>2018-07-17T05:27:24Z</time>
      </trkpt>
      <trkpt lat="44.26253" lon="5.62333">
        <ele>1162</ele>
        <time>2018-07-17T05:27:25Z</time>
      </trkpt>
      <trkpt lat="44.26254" lon="5.62336">
        <ele>1162</ele>
        <time>2018-07-17T05:27:27Z</time>
      </trkpt>
      <trkpt lat="44.26255" lon="5.62338">
        <ele>1162</ele>
        <time>2018-07-17T05:27:29Z</time>
      </trkpt>
      <trkpt lat="44.26255" lon="5.62341">
        <ele>1162</ele>
        <time>2018-07-17T05:27:31Z</time>
      </trkpt>
      <trkpt lat="44.26255" lon="5.62343">
        <ele>1162</ele>
        <time>2018-07-17T05:27:32Z</time>
      </trkpt>
      <trkpt lat="44.26256" lon="5.62345">
        <ele>1162</ele>
        <time>2018-07-17T05:27:34Z</time>
      </trkpt>
      <trkpt lat="44.26257" lon="5.62347">
        <ele>1162</ele>
        <time>2018-07-17T05:27:36Z</time>
      </trkpt>
      <trkpt lat="44.26257" lon="5.62349">
        <ele>1162</ele>
        <time>2018-07-17T05:27:38Z</time>
      </trkpt>
      <trkpt lat="44.26257" lon="5.62351">
        <ele>1162</ele>
        <time>2018-07-17T05:27:39Z</time>
      </trkpt>
      <trkpt lat="44.26257" lon="5.62353">
        <ele>1162</ele>
        <time>2018-07-17T05:27:41Z</time>
      </trkpt>
      <trkpt lat="44.26259" lon="5.62353">
        <ele>1162</ele>
        <time>2018-07-17T05:27:42Z</time>
      </trkpt>
      <trkpt lat="44.26259" lon="5.62356">
        <ele>1161</ele>
        <time>2018-07-17T05:27:44Z</time>
      </trkpt>
      <trkpt lat="44.26259" lon="5.62358">
        <ele>1161</ele>
        <time>2018-07-17T05:27:45Z</time>
      </trkpt>
      <trkpt lat="44.26258" lon="5.62361">
        <ele>1161</ele>
        <time>2018-07-17T05:27:47Z</time>
      </trkpt>
      <trkpt lat="44.26258" lon="5.62362">
        <ele>1161</ele>
        <time>2018-07-17T05:27:48Z</time>
      </trkpt>
      <trkpt lat="44.26258" lon="5.62364">
        <ele>1161</ele>
        <time>2018-07-17T05:27:49Z</time>
      </trkpt>
      <trkpt lat="44.26258" lon="5.62365">
        <ele>1161</ele>
        <time>2018-07-17T05:27:50Z</time>
      </trkpt>
      <trkpt lat="44.26259" lon="5.62367">
        <ele>1161</ele>
        <time>2018-07-17T05:27:51Z</time>
      </trkpt>
      <trkpt lat="44.2626" lon="5.62369">
        <ele>1161</ele>
        <time>2018-07-17T05:27:52Z</time>
      </trkpt>
      <trkpt lat="44.26261" lon="5.6237">
        <ele>1161</ele>
        <time>2018-07-17T05:27:53Z</time>
      </trkpt>
      <trkpt lat="44.26262" lon="5.62372">
        <ele>1161</ele>
        <time>2018-07-17T05:27:55Z</time>
      </trkpt>
      <trkpt lat="44.26262" lon="5.62375">
        <ele>1161</ele>
        <time>2018-07-17T05:27:57Z</time>
      </trkpt>
      <trkpt lat="44.26263" lon="5.62376">
        <ele>1161</ele>
        <time>2018-07-17T05:27:58Z</time>
      </trkpt>
      <trkpt lat="44.26263" lon="5.62378">
        <ele>1161</ele>
        <time>2018-07-17T05:27:59Z</time>
      </trkpt>
      <trkpt lat="44.26263" lon="5.62381">
        <ele>1161</ele>
        <time>2018-07-17T05:28:00Z</time>
      </trkpt>
      <trkpt lat="44.26263" lon="5.62384">
        <ele>1161</ele>
        <time>2018-07-17T05:28:02Z</time>
      </trkpt>
      <trkpt lat="44.26263" lon="5.62386">
        <ele>1161</ele>
        <time>2018-07-17T05:28:04Z</time>
      </trkpt>
      <trkpt lat="44.26263" lon="5.62388">
        <ele>1161</ele>
        <time>2018-07-17T05:28:05Z</time>
      </trkpt>
      <trkpt lat="44.26263" lon="5.62389">
        <ele>1161</ele>
        <time>2018-07-17T05:28:06Z</time>
      </trkpt>
      <trkpt lat="44.26264" lon="5.62392">
        <ele>1161</ele>
        <time>2018-07-17T05:28:08Z</time>
      </trkpt>
      <trkpt lat="44.26265" lon="5.62394">
        <ele>1161</ele>
        <time>2018-07-17T05:28:10Z</time>
      </trkpt>
      <trkpt lat="44.26267" lon="5.62397">
        <ele>1161</ele>
        <time>2018-07-17T05:28:12Z</time>
      </trkpt>
      <trkpt lat="44.26267" lon="5.62399">
        <ele>1161</ele>
        <time>2018-07-17T05:28:13Z</time>
      </trkpt>
      <trkpt lat="44.26267" lon="5.62401">
        <ele>1161</ele>
        <time>2018-07-17T05:28:15Z</time>
      </trkpt>
      <trkpt lat="44.26268" lon="5.62403">
        <ele>1161</ele>
        <time>2018-07-17T05:28:17Z</time>
      </trkpt>
      <trkpt lat="44.26269" lon="5.62405">
        <ele>1161</ele>
        <time>2018-07-17T05:28:18Z</time>
      </trkpt>
      <trkpt lat="44.26268" lon="5.62406">
        <ele>1161</ele>
        <time>2018-07-17T05:28:19Z</time>
      </trkpt>
      <trkpt lat="44.26269" lon="5.62408">
        <ele>1161</ele>
        <time>2018-07-17T05:28:20Z</time>
      </trkpt>
      <trkpt lat="44.26269" lon="5.6241">
        <ele>1161</ele>
        <time>2018-07-17T05:28:22Z</time>
      </trkpt>
      <trkpt lat="44.26269" lon="5.62413">
        <ele>1161</ele>
        <time>2018-07-17T05:28:24Z</time>
      </trkpt>
      <trkpt lat="44.26269" lon="5.62415">
        <ele>1161</ele>
        <time>2018-07-17T05:28:25Z</time>
      </trkpt>
      <trkpt lat="44.2627" lon="5.62418">
        <ele>1161</ele>
        <time>2018-07-17T05:28:27Z</time>
      </trkpt>
      <trkpt lat="44.2627" lon="5.6242">
        <ele>1161</ele>
        <time>2018-07-17T05:28:28Z</time>
      </trkpt>
      <trkpt lat="44.2627" lon="5.62422">
        <ele>1161</ele>
        <time>2018-07-17T05:28:29Z</time>
      </trkpt>
      <trkpt lat="44.26269" lon="5.62423">
        <ele>1161</ele>
        <time>2018-07-17T05:28:30Z</time>
      </trkpt>
      <trkpt lat="44.2627" lon="5.62426">
        <ele>1161</ele>
        <time>2018-07-17T05:28:32Z</time>
      </trkpt>
      <trkpt lat="44.2627" lon="5.62429">
        <ele>1161</ele>
        <time>2018-07-17T05:28:34Z</time>
      </trkpt>
      <trkpt lat="44.26272" lon="5.62431">
        <ele>1161</ele>
        <time>2018-07-17T05:28:36Z</time>
      </trkpt>
      <trkpt lat="44.26273" lon="5.62433">
        <ele>1161</ele>
        <time>2018-07-17T05:28:37Z</time>
      </trkpt>
      <trkpt lat="44.26272" lon="5.62434">
        <ele>1161</ele>
        <time>2018-07-17T05:28:38Z</time>
      </trkpt>
      <trkpt lat="44.26272" lon="5.62436">
        <ele>1161</ele>
        <time>2018-07-17T05:28:39Z</time>
      </trkpt>
      <trkpt lat="44.26272" lon="5.62438">
        <ele>1161</ele>
        <time>2018-07-17T05:28:40Z</time>
      </trkpt>
      <trkpt lat="44.2627" lon="5.6244">
        <ele>1161</ele>
        <time>2018-07-17T05:28:41Z</time>
      </trkpt>
      <trkpt lat="44.26271" lon="5.62442">
        <ele>1161</ele>
        <time>2018-07-17T05:28:43Z</time>
      </trkpt>
      <trkpt lat="44.26271" lon="5.62444">
        <ele>1161</ele>
        <time>2018-07-17T05:28:44Z</time>
      </trkpt>
      <trkpt lat="44.26272" lon="5.62445">
        <ele>1161</ele>
        <time>2018-07-17T05:28:45Z</time>
      </trkpt>
      <trkpt lat="44.26274" lon="5.62447">
        <ele>1161</ele>
        <time>2018-07-17T05:28:46Z</time>
      </trkpt>
      <trkpt lat="44.26274" lon="5.6245">
        <ele>1161</ele>
        <time>2018-07-17T05:28:48Z</time>
      </trkpt>
      <trkpt lat="44.26274" lon="5.62451">
        <ele>1161</ele>
        <time>2018-07-17T05:28:49Z</time>
      </trkpt>
      <trkpt lat="44.26273" lon="5.62453">
        <ele>1161</ele>
        <time>2018-07-17T05:28:50Z</time>
      </trkpt>
      <trkpt lat="44.26273" lon="5.62454">
        <ele>1161</ele>
        <time>2018-07-17T05:28:51Z</time>
      </trkpt>
      <trkpt lat="44.26272" lon="5.62456">
        <ele>1161</ele>
        <time>2018-07-17T05:28:53Z</time>
      </trkpt>
      <trkpt lat="44.26271" lon="5.62459">
        <ele>1161</ele>
        <time>2018-07-17T05:28:55Z</time>
      </trkpt>
      <trkpt lat="44.26271" lon="5.6246">
        <ele>1161</ele>
        <time>2018-07-17T05:28:56Z</time>
      </trkpt>
      <trkpt lat="44.26271" lon="5.62462">
        <ele>1161</ele>
        <time>2018-07-17T05:28:57Z</time>
      </trkpt>
      <trkpt lat="44.26271" lon="5.62465">
        <ele>1159</ele>
        <time>2018-07-17T05:28:59Z</time>
      </trkpt>
      <trkpt lat="44.26271" lon="5.62466">
        <ele>1158</ele>
        <time>2018-07-17T05:29:01Z</time>
      </trkpt>
      <trkpt lat="44.26271" lon="5.62469">
        <ele>1157</ele>
        <time>2018-07-17T05:29:03Z</time>
      </trkpt>
      <trkpt lat="44.26271" lon="5.62471">
        <ele>1157</ele>
        <time>2018-07-17T05:29:04Z</time>
      </trkpt>
      <trkpt lat="44.26272" lon="5.62473">
        <ele>1157</ele>
        <time>2018-07-17T05:29:06Z</time>
      </trkpt>
      <trkpt lat="44.26272" lon="5.62475">
        <ele>1157</ele>
        <time>2018-07-17T05:29:08Z</time>
      </trkpt>
      <trkpt lat="44.26273" lon="5.62477">
        <ele>1157</ele>
        <time>2018-07-17T05:29:10Z</time>
      </trkpt>
      <trkpt lat="44.26274" lon="5.62478">
        <ele>1157</ele>
        <time>2018-07-17T05:29:11Z</time>
      </trkpt>
      <trkpt lat="44.26274" lon="5.6248">
        <ele>1157</ele>
        <time>2018-07-17T05:29:12Z</time>
      </trkpt>
      <trkpt lat="44.26275" lon="5.62482">
        <ele>1157</ele>
        <time>2018-07-17T05:29:13Z</time>
      </trkpt>
      <trkpt lat="44.26277" lon="5.62484">
        <ele>1157</ele>
        <time>2018-07-17T05:29:15Z</time>
      </trkpt>
      <trkpt lat="44.26278" lon="5.62487">
        <ele>1157</ele>
        <time>2018-07-17T05:29:17Z</time>
      </trkpt>
      <trkpt lat="44.2628" lon="5.6249">
        <ele>1157</ele>
        <time>2018-07-17T05:29:19Z</time>
      </trkpt>
      <trkpt lat="44.26282" lon="5.62492">
        <ele>1157</ele>
        <time>2018-07-17T05:29:21Z</time>
      </trkpt>
      <trkpt lat="44.26283" lon="5.62494">
        <ele>1157</ele>
        <time>2018-07-17T05:29:22Z</time>
      </trkpt>
      <trkpt lat="44.26285" lon="5.62495">
        <ele>1157</ele>
        <time>2018-07-17T05:29:23Z</time>
      </trkpt>
      <trkpt lat="44.26286" lon="5.62496">
        <ele>1158</ele>
        <time>2018-07-17T05:29:24Z</time>
      </trkpt>
      <trkpt lat="44.26287" lon="5.62498">
        <ele>1159</ele>
        <time>2018-07-17T05:29:25Z</time>
      </trkpt>
      <trkpt lat="44.26287" lon="5.62499">
        <ele>1160</ele>
        <time>2018-07-17T05:29:26Z</time>
      </trkpt>
      <trkpt lat="44.26287" lon="5.62501">
        <ele>1160</ele>
        <time>2018-07-17T05:29:27Z</time>
      </trkpt>
      <trkpt lat="44.26287" lon="5.62502">
        <ele>1161</ele>
        <time>2018-07-17T05:29:28Z</time>
      </trkpt>
      <trkpt lat="44.26286" lon="5.62504">
        <ele>1161</ele>
        <time>2018-07-17T05:29:29Z</time>
      </trkpt>
      <trkpt lat="44.26286" lon="5.62506">
        <ele>1161</ele>
        <time>2018-07-17T05:29:31Z</time>
      </trkpt>
      <trkpt lat="44.26284" lon="5.62509">
        <ele>1161</ele>
        <time>2018-07-17T05:29:33Z</time>
      </trkpt>
      <trkpt lat="44.26283" lon="5.62511">
        <ele>1161</ele>
        <time>2018-07-17T05:29:34Z</time>
      </trkpt>
      <trkpt lat="44.26283" lon="5.62512">
        <ele>1161</ele>
        <time>2018-07-17T05:29:35Z</time>
      </trkpt>
      <trkpt lat="44.26284" lon="5.62514">
        <ele>1161</ele>
        <time>2018-07-17T05:29:36Z</time>
      </trkpt>
      <trkpt lat="44.26283" lon="5.62516">
        <ele>1161</ele>
        <time>2018-07-17T05:29:37Z</time>
      </trkpt>
      <trkpt lat="44.26282" lon="5.62518">
        <ele>1161</ele>
        <time>2018-07-17T05:29:39Z</time>
      </trkpt>
      <trkpt lat="44.26281" lon="5.6252">
        <ele>1161</ele>
        <time>2018-07-17T05:29:40Z</time>
      </trkpt>
      <trkpt lat="44.2628" lon="5.62522">
        <ele>1161</ele>
        <time>2018-07-17T05:29:42Z</time>
      </trkpt>
      <trkpt lat="44.26279" lon="5.62524">
        <ele>1159</ele>
        <time>2018-07-17T05:29:44Z</time>
      </trkpt>
      <trkpt lat="44.2628" lon="5.62527">
        <ele>1159</ele>
        <time>2018-07-17T05:29:46Z</time>
      </trkpt>
      <trkpt lat="44.2628" lon="5.62529">
        <ele>1158</ele>
        <time>2018-07-17T05:29:47Z</time>
      </trkpt>
      <trkpt lat="44.26279" lon="5.6253">
        <ele>1158</ele>
        <time>2018-07-17T05:29:48Z</time>
      </trkpt>
      <trkpt lat="44.26278" lon="5.62532">
        <ele>1158</ele>
        <time>2018-07-17T05:29:49Z</time>
      </trkpt>
      <trkpt lat="44.26276" lon="5.62535">
        <ele>1158</ele>
        <time>2018-07-17T05:29:51Z</time>
      </trkpt>
      <trkpt lat="44.26276" lon="5.62537">
        <ele>1158</ele>
        <time>2018-07-17T05:29:53Z</time>
      </trkpt>
      <trkpt lat="44.26276" lon="5.62539">
        <ele>1157</ele>
        <time>2018-07-17T05:29:55Z</time>
      </trkpt>
      <trkpt lat="44.26278" lon="5.62541">
        <ele>1157</ele>
        <time>2018-07-17T05:29:56Z</time>
      </trkpt>
      <trkpt lat="44.26278" lon="5.62542">
        <ele>1157</ele>
        <time>2018-07-17T05:29:57Z</time>
      </trkpt>
      <trkpt lat="44.26277" lon="5.62544">
        <ele>1157</ele>
        <time>2018-07-17T05:29:58Z</time>
      </trkpt>
      <trkpt lat="44.26276" lon="5.62545">
        <ele>1157</ele>
        <time>2018-07-17T05:29:59Z</time>
      </trkpt>
      <trkpt lat="44.26279" lon="5.62547">
        <ele>1157</ele>
        <time>2018-07-17T05:30:00Z</time>
      </trkpt>
      <trkpt lat="44.26278" lon="5.62548">
        <ele>1157</ele>
        <time>2018-07-17T05:30:01Z</time>
      </trkpt>
      <trkpt lat="44.26278" lon="5.6255">
        <ele>1157</ele>
        <time>2018-07-17T05:30:02Z</time>
      </trkpt>
      <trkpt lat="44.2628" lon="5.62551">
        <ele>1157</ele>
        <time>2018-07-17T05:30:03Z</time>
      </trkpt>
      <trkpt lat="44.2628" lon="5.62554">
        <ele>1157</ele>
        <time>2018-07-17T05:30:05Z</time>
      </trkpt>
      <trkpt lat="44.26279" lon="5.62555">
        <ele>1157</ele>
        <time>2018-07-17T05:30:07Z</time>
      </trkpt>
      <trkpt lat="44.26279" lon="5.62557">
        <ele>1157</ele>
        <time>2018-07-17T05:30:08Z</time>
      </trkpt>
      <trkpt lat="44.26278" lon="5.62559">
        <ele>1157</ele>
        <time>2018-07-17T05:30:09Z</time>
      </trkpt>
      <trkpt lat="44.26277" lon="5.6256">
        <ele>1157</ele>
        <time>2018-07-17T05:30:10Z</time>
      </trkpt>
      <trkpt lat="44.26276" lon="5.62562">
        <ele>1157</ele>
        <time>2018-07-17T05:30:11Z</time>
      </trkpt>
      <trkpt lat="44.26275" lon="5.62564">
        <ele>1157</ele>
        <time>2018-07-17T05:30:12Z</time>
      </trkpt>
      <trkpt lat="44.26276" lon="5.62567">
        <ele>1157</ele>
        <time>2018-07-17T05:30:14Z</time>
      </trkpt>
      <trkpt lat="44.26277" lon="5.62568">
        <ele>1157</ele>
        <time>2018-07-17T05:30:15Z</time>
      </trkpt>
      <trkpt lat="44.26276" lon="5.6257">
        <ele>1157</ele>
        <time>2018-07-17T05:30:16Z</time>
      </trkpt>
      <trkpt lat="44.26277" lon="5.62571">
        <ele>1157</ele>
        <time>2018-07-17T05:30:17Z</time>
      </trkpt>
      <trkpt lat="44.26279" lon="5.62572">
        <ele>1157</ele>
        <time>2018-07-17T05:30:18Z</time>
      </trkpt>
      <trkpt lat="44.2628" lon="5.62574">
        <ele>1157</ele>
        <time>2018-07-17T05:30:19Z</time>
      </trkpt>
      <trkpt lat="44.2628" lon="5.62575">
        <ele>1157</ele>
        <time>2018-07-17T05:30:20Z</time>
      </trkpt>
      <trkpt lat="44.2628" lon="5.62577">
        <ele>1158</ele>
        <time>2018-07-17T05:30:21Z</time>
      </trkpt>
      <trkpt lat="44.2628" lon="5.62579">
        <ele>1159</ele>
        <time>2018-07-17T05:30:22Z</time>
      </trkpt>
      <trkpt lat="44.26279" lon="5.6258">
        <ele>1160</ele>
        <time>2018-07-17T05:30:23Z</time>
      </trkpt>
      <trkpt lat="44.26279" lon="5.62583">
        <ele>1160</ele>
        <time>2018-07-17T05:30:25Z</time>
      </trkpt>
      <trkpt lat="44.26279" lon="5.62584">
        <ele>1161</ele>
        <time>2018-07-17T05:30:26Z</time>
      </trkpt>
      <trkpt lat="44.26279" lon="5.62586">
        <ele>1161</ele>
        <time>2018-07-17T05:30:27Z</time>
      </trkpt>
      <trkpt lat="44.26277" lon="5.62589">
        <ele>1162</ele>
        <time>2018-07-17T05:30:29Z</time>
      </trkpt>
      <trkpt lat="44.26275" lon="5.62592">
        <ele>1162</ele>
        <time>2018-07-17T05:30:31Z</time>
      </trkpt>
      <trkpt lat="44.26274" lon="5.62593">
        <ele>1162</ele>
        <time>2018-07-17T05:30:32Z</time>
      </trkpt>
      <trkpt lat="44.26274" lon="5.62595">
        <ele>1162</ele>
        <time>2018-07-17T05:30:33Z</time>
      </trkpt>
      <trkpt lat="44.26274" lon="5.62597">
        <ele>1162</ele>
        <time>2018-07-17T05:30:35Z</time>
      </trkpt>
      <trkpt lat="44.26276" lon="5.626">
        <ele>1162</ele>
        <time>2018-07-17T05:30:38Z</time>
      </trkpt>
      <trkpt lat="44.26276" lon="5.62602">
        <ele>1162</ele>
        <time>2018-07-17T05:30:39Z</time>
      </trkpt>
      <trkpt lat="44.26274" lon="5.62603">
        <ele>1162</ele>
        <time>2018-07-17T05:30:40Z</time>
      </trkpt>
      <trkpt lat="44.26273" lon="5.62605">
        <ele>1162</ele>
        <time>2018-07-17T05:30:42Z</time>
      </trkpt>
      <trkpt lat="44.26274" lon="5.62607">
        <ele>1162</ele>
        <time>2018-07-17T05:30:44Z</time>
      </trkpt>
      <trkpt lat="44.26275" lon="5.62609">
        <ele>1162</ele>
        <time>2018-07-17T05:30:46Z</time>
      </trkpt>
      <trkpt lat="44.26276" lon="5.62611">
        <ele>1162</ele>
        <time>2018-07-17T05:30:48Z</time>
      </trkpt>
      <trkpt lat="44.26275" lon="5.62613">
        <ele>1162</ele>
        <time>2018-07-17T05:30:49Z</time>
      </trkpt>
      <trkpt lat="44.26274" lon="5.62615">
        <ele>1162</ele>
        <time>2018-07-17T05:30:51Z</time>
      </trkpt>
      <trkpt lat="44.26274" lon="5.62617">
        <ele>1161</ele>
        <time>2018-07-17T05:30:53Z</time>
      </trkpt>
      <trkpt lat="44.26275" lon="5.6262">
        <ele>1160</ele>
        <time>2018-07-17T05:30:55Z</time>
      </trkpt>
      <trkpt lat="44.26275" lon="5.62622">
        <ele>1160</ele>
        <time>2018-07-17T05:30:57Z</time>
      </trkpt>
      <trkpt lat="44.26275" lon="5.62624">
        <ele>1160</ele>
        <time>2018-07-17T05:30:59Z</time>
      </trkpt>
      <trkpt lat="44.26276" lon="5.62626">
        <ele>1160</ele>
        <time>2018-07-17T05:31:01Z</time>
      </trkpt>
      <trkpt lat="44.26276" lon="5.62628">
        <ele>1159</ele>
        <time>2018-07-17T05:31:03Z</time>
      </trkpt>
      <trkpt lat="44.26276" lon="5.6263">
        <ele>1159</ele>
        <time>2018-07-17T05:31:05Z</time>
      </trkpt>
      <trkpt lat="44.26276" lon="5.62633">
        <ele>1159</ele>
        <time>2018-07-17T05:31:07Z</time>
      </trkpt>
      <trkpt lat="44.26279" lon="5.62634">
        <ele>1158</ele>
        <time>2018-07-17T05:31:09Z</time>
      </trkpt>
      <trkpt lat="44.2628" lon="5.62637">
        <ele>1158</ele>
        <time>2018-07-17T05:31:11Z</time>
      </trkpt>
      <trkpt lat="44.26281" lon="5.62637">
        <ele>1158</ele>
        <time>2018-07-17T05:31:12Z</time>
      </trkpt>
      <trkpt lat="44.26281" lon="5.62639">
        <ele>1158</ele>
        <time>2018-07-17T05:31:14Z</time>
      </trkpt>
      <trkpt lat="44.26281" lon="5.62642">
        <ele>1158</ele>
        <time>2018-07-17T05:31:16Z</time>
      </trkpt>
      <trkpt lat="44.26281" lon="5.62644">
        <ele>1158</ele>
        <time>2018-07-17T05:31:18Z</time>
      </trkpt>
      <trkpt lat="44.26281" lon="5.62646">
        <ele>1158</ele>
        <time>2018-07-17T05:31:19Z</time>
      </trkpt>
      <trkpt lat="44.26281" lon="5.62647">
        <ele>1158</ele>
        <time>2018-07-17T05:31:20Z</time>
      </trkpt>
      <trkpt lat="44.26282" lon="5.62649">
        <ele>1158</ele>
        <time>2018-07-17T05:31:22Z</time>
      </trkpt>
      <trkpt lat="44.26282" lon="5.62651">
        <ele>1158</ele>
        <time>2018-07-17T05:31:24Z</time>
      </trkpt>
      <trkpt lat="44.26282" lon="5.62654">
        <ele>1158</ele>
        <time>2018-07-17T05:31:26Z</time>
      </trkpt>
      <trkpt lat="44.26282" lon="5.62656">
        <ele>1158</ele>
        <time>2018-07-17T05:31:27Z</time>
      </trkpt>
      <trkpt lat="44.26283" lon="5.62657">
        <ele>1158</ele>
        <time>2018-07-17T05:31:28Z</time>
      </trkpt>
      <trkpt lat="44.26284" lon="5.62659">
        <ele>1158</ele>
        <time>2018-07-17T05:31:30Z</time>
      </trkpt>
      <trkpt lat="44.26284" lon="5.62661">
        <ele>1158</ele>
        <time>2018-07-17T05:31:31Z</time>
      </trkpt>
      <trkpt lat="44.26284" lon="5.62663">
        <ele>1158</ele>
        <time>2018-07-17T05:31:32Z</time>
      </trkpt>
      <trkpt lat="44.26284" lon="5.62665">
        <ele>1158</ele>
        <time>2018-07-17T05:31:33Z</time>
      </trkpt>
      <trkpt lat="44.26285" lon="5.62667">
        <ele>1158</ele>
        <time>2018-07-17T05:31:34Z</time>
      </trkpt>
      <trkpt lat="44.26285" lon="5.62669">
        <ele>1158</ele>
        <time>2018-07-17T05:31:36Z</time>
      </trkpt>
      <trkpt lat="44.26286" lon="5.62672">
        <ele>1159</ele>
        <time>2018-07-17T05:31:38Z</time>
      </trkpt>
      <trkpt lat="44.26286" lon="5.62673">
        <ele>1159</ele>
        <time>2018-07-17T05:31:39Z</time>
      </trkpt>
      <trkpt lat="44.26286" lon="5.62676">
        <ele>1159</ele>
        <time>2018-07-17T05:31:41Z</time>
      </trkpt>
      <trkpt lat="44.26286" lon="5.62678">
        <ele>1159</ele>
        <time>2018-07-17T05:31:43Z</time>
      </trkpt>
      <trkpt lat="44.26285" lon="5.6268">
        <ele>1159</ele>
        <time>2018-07-17T05:31:45Z</time>
      </trkpt>
      <trkpt lat="44.26285" lon="5.62682">
        <ele>1159</ele>
        <time>2018-07-17T05:31:46Z</time>
      </trkpt>
      <trkpt lat="44.26285" lon="5.62683">
        <ele>1159</ele>
        <time>2018-07-17T05:31:47Z</time>
      </trkpt>
      <trkpt lat="44.26285" lon="5.62685">
        <ele>1159</ele>
        <time>2018-07-17T05:31:48Z</time>
      </trkpt>
      <trkpt lat="44.26286" lon="5.62687">
        <ele>1159</ele>
        <time>2018-07-17T05:31:49Z</time>
      </trkpt>
      <trkpt lat="44.26286" lon="5.6269">
        <ele>1159</ele>
        <time>2018-07-17T05:31:51Z</time>
      </trkpt>
      <trkpt lat="44.26286" lon="5.62692">
        <ele>1159</ele>
        <time>2018-07-17T05:31:52Z</time>
      </trkpt>
      <trkpt lat="44.26286" lon="5.62694">
        <ele>1159</ele>
        <time>2018-07-17T05:31:53Z</time>
      </trkpt>
      <trkpt lat="44.26285" lon="5.62697">
        <ele>1159</ele>
        <time>2018-07-17T05:31:55Z</time>
      </trkpt>
      <trkpt lat="44.26285" lon="5.62698">
        <ele>1159</ele>
        <time>2018-07-17T05:31:56Z</time>
      </trkpt>
      <trkpt lat="44.26285" lon="5.627">
        <ele>1159</ele>
        <time>2018-07-17T05:31:57Z</time>
      </trkpt>
      <trkpt lat="44.26284" lon="5.62701">
        <ele>1159</ele>
        <time>2018-07-17T05:31:58Z</time>
      </trkpt>
      <trkpt lat="44.26284" lon="5.62703">
        <ele>1159</ele>
        <time>2018-07-17T05:31:59Z</time>
      </trkpt>
      <trkpt lat="44.26285" lon="5.62705">
        <ele>1159</ele>
        <time>2018-07-17T05:32:01Z</time>
      </trkpt>
      <trkpt lat="44.26285" lon="5.62707">
        <ele>1159</ele>
        <time>2018-07-17T05:32:02Z</time>
      </trkpt>
      <trkpt lat="44.26285" lon="5.62709">
        <ele>1159</ele>
        <time>2018-07-17T05:32:03Z</time>
      </trkpt>
      <trkpt lat="44.26285" lon="5.6271">
        <ele>1159</ele>
        <time>2018-07-17T05:32:04Z</time>
      </trkpt>
      <trkpt lat="44.26286" lon="5.62711">
        <ele>1159</ele>
        <time>2018-07-17T05:32:05Z</time>
      </trkpt>
      <trkpt lat="44.26287" lon="5.62713">
        <ele>1159</ele>
        <time>2018-07-17T05:32:07Z</time>
      </trkpt>
      <trkpt lat="44.26288" lon="5.62716">
        <ele>1159</ele>
        <time>2018-07-17T05:32:09Z</time>
      </trkpt>
      <trkpt lat="44.26288" lon="5.62718">
        <ele>1159</ele>
        <time>2018-07-17T05:32:10Z</time>
      </trkpt>
      <trkpt lat="44.26288" lon="5.6272">
        <ele>1159</ele>
        <time>2018-07-17T05:32:12Z</time>
      </trkpt>
      <trkpt lat="44.26288" lon="5.62723">
        <ele>1159</ele>
        <time>2018-07-17T05:32:14Z</time>
      </trkpt>
      <trkpt lat="44.26288" lon="5.62725">
        <ele>1159</ele>
        <time>2018-07-17T05:32:16Z</time>
      </trkpt>
      <trkpt lat="44.26289" lon="5.62727">
        <ele>1159</ele>
        <time>2018-07-17T05:32:18Z</time>
      </trkpt>
      <trkpt lat="44.26289" lon="5.62729">
        <ele>1159</ele>
        <time>2018-07-17T05:32:19Z</time>
      </trkpt>
      <trkpt lat="44.2629" lon="5.62732">
        <ele>1159</ele>
        <time>2018-07-17T05:32:21Z</time>
      </trkpt>
      <trkpt lat="44.2629" lon="5.62734">
        <ele>1159</ele>
        <time>2018-07-17T05:32:23Z</time>
      </trkpt>
      <trkpt lat="44.2629" lon="5.62737">
        <ele>1159</ele>
        <time>2018-07-17T05:32:25Z</time>
      </trkpt>
      <trkpt lat="44.26291" lon="5.62739">
        <ele>1159</ele>
        <time>2018-07-17T05:32:27Z</time>
      </trkpt>
      <trkpt lat="44.26293" lon="5.62741">
        <ele>1159</ele>
        <time>2018-07-17T05:32:29Z</time>
      </trkpt>
      <trkpt lat="44.26294" lon="5.62744">
        <ele>1159</ele>
        <time>2018-07-17T05:32:31Z</time>
      </trkpt>
      <trkpt lat="44.26295" lon="5.62746">
        <ele>1159</ele>
        <time>2018-07-17T05:32:33Z</time>
      </trkpt>
      <trkpt lat="44.26296" lon="5.62748">
        <ele>1159</ele>
        <time>2018-07-17T05:32:35Z</time>
      </trkpt>
      <trkpt lat="44.26296" lon="5.6275">
        <ele>1159</ele>
        <time>2018-07-17T05:32:36Z</time>
      </trkpt>
      <trkpt lat="44.26297" lon="5.62752">
        <ele>1159</ele>
        <time>2018-07-17T05:32:38Z</time>
      </trkpt>
      <trkpt lat="44.26297" lon="5.62755">
        <ele>1159</ele>
        <time>2018-07-17T05:32:40Z</time>
      </trkpt>
      <trkpt lat="44.26297" lon="5.62757">
        <ele>1159</ele>
        <time>2018-07-17T05:32:42Z</time>
      </trkpt>
      <trkpt lat="44.26297" lon="5.62759">
        <ele>1159</ele>
        <time>2018-07-17T05:32:43Z</time>
      </trkpt>
      <trkpt lat="44.26297" lon="5.62761">
        <ele>1159</ele>
        <time>2018-07-17T05:32:44Z</time>
      </trkpt>
      <trkpt lat="44.26297" lon="5.62764">
        <ele>1158</ele>
        <time>2018-07-17T05:32:46Z</time>
      </trkpt>
      <trkpt lat="44.26298" lon="5.62766">
        <ele>1158</ele>
        <time>2018-07-17T05:32:48Z</time>
      </trkpt>
      <trkpt lat="44.26298" lon="5.62768">
        <ele>1158</ele>
        <time>2018-07-17T05:32:49Z</time>
      </trkpt>
      <trkpt lat="44.26298" lon="5.6277">
        <ele>1158</ele>
        <time>2018-07-17T05:32:50Z</time>
      </trkpt>
      <trkpt lat="44.26298" lon="5.62772">
        <ele>1158</ele>
        <time>2018-07-17T05:32:52Z</time>
      </trkpt>
      <trkpt lat="44.26298" lon="5.62775">
        <ele>1158</ele>
        <time>2018-07-17T05:32:54Z</time>
      </trkpt>
      <trkpt lat="44.26298" lon="5.62777">
        <ele>1158</ele>
        <time>2018-07-17T05:32:56Z</time>
      </trkpt>
      <trkpt lat="44.26298" lon="5.62779">
        <ele>1158</ele>
        <time>2018-07-17T05:33:00Z</time>
      </trkpt>
      <trkpt lat="44.26298" lon="5.62781">
        <ele>1158</ele>
        <time>2018-07-17T05:33:01Z</time>
      </trkpt>
      <trkpt lat="44.26298" lon="5.62782">
        <ele>1158</ele>
        <time>2018-07-17T05:33:02Z</time>
      </trkpt>
      <trkpt lat="44.26297" lon="5.62784">
        <ele>1158</ele>
        <time>2018-07-17T05:33:03Z</time>
      </trkpt>
      <trkpt lat="44.26297" lon="5.62786">
        <ele>1158</ele>
        <time>2018-07-17T05:33:05Z</time>
      </trkpt>
      <trkpt lat="44.26296" lon="5.62789">
        <ele>1158</ele>
        <time>2018-07-17T05:33:07Z</time>
      </trkpt>
      <trkpt lat="44.26296" lon="5.62791">
        <ele>1158</ele>
        <time>2018-07-17T05:33:08Z</time>
      </trkpt>
      <trkpt lat="44.26296" lon="5.62793">
        <ele>1158</ele>
        <time>2018-07-17T05:33:10Z</time>
      </trkpt>
      <trkpt lat="44.26297" lon="5.62796">
        <ele>1158</ele>
        <time>2018-07-17T05:33:12Z</time>
      </trkpt>
      <trkpt lat="44.26297" lon="5.62799">
        <ele>1158</ele>
        <time>2018-07-17T05:33:14Z</time>
      </trkpt>
      <trkpt lat="44.26297" lon="5.628">
        <ele>1158</ele>
        <time>2018-07-17T05:33:15Z</time>
      </trkpt>
      <trkpt lat="44.26297" lon="5.62802">
        <ele>1158</ele>
        <time>2018-07-17T05:33:16Z</time>
      </trkpt>
      <trkpt lat="44.26298" lon="5.62804">
        <ele>1158</ele>
        <time>2018-07-17T05:33:18Z</time>
      </trkpt>
      <trkpt lat="44.26298" lon="5.62806">
        <ele>1158</ele>
        <time>2018-07-17T05:33:19Z</time>
      </trkpt>
      <trkpt lat="44.26298" lon="5.62807">
        <ele>1158</ele>
        <time>2018-07-17T05:33:20Z</time>
      </trkpt>
      <trkpt lat="44.26298" lon="5.62809">
        <ele>1158</ele>
        <time>2018-07-17T05:33:21Z</time>
      </trkpt>
      <trkpt lat="44.26299" lon="5.6281">
        <ele>1158</ele>
        <time>2018-07-17T05:33:22Z</time>
      </trkpt>
      <trkpt lat="44.263" lon="5.62812">
        <ele>1158</ele>
        <time>2018-07-17T05:33:23Z</time>
      </trkpt>
      <trkpt lat="44.263" lon="5.62813">
        <ele>1158</ele>
        <time>2018-07-17T05:33:24Z</time>
      </trkpt>
      <trkpt lat="44.263" lon="5.62816">
        <ele>1158</ele>
        <time>2018-07-17T05:33:26Z</time>
      </trkpt>
      <trkpt lat="44.26299" lon="5.62817">
        <ele>1158</ele>
        <time>2018-07-17T05:33:27Z</time>
      </trkpt>
      <trkpt lat="44.26299" lon="5.62819">
        <ele>1158</ele>
        <time>2018-07-17T05:33:28Z</time>
      </trkpt>
      <trkpt lat="44.263" lon="5.62822">
        <ele>1158</ele>
        <time>2018-07-17T05:33:30Z</time>
      </trkpt>
      <trkpt lat="44.263" lon="5.62823">
        <ele>1158</ele>
        <time>2018-07-17T05:33:31Z</time>
      </trkpt>
      <trkpt lat="44.263" lon="5.62825">
        <ele>1158</ele>
        <time>2018-07-17T05:33:32Z</time>
      </trkpt>
      <trkpt lat="44.26301" lon="5.62826">
        <ele>1158</ele>
        <time>2018-07-17T05:33:33Z</time>
      </trkpt>
      <trkpt lat="44.26301" lon="5.62829">
        <ele>1158</ele>
        <time>2018-07-17T05:33:35Z</time>
      </trkpt>
      <trkpt lat="44.26301" lon="5.6283">
        <ele>1158</ele>
        <time>2018-07-17T05:33:36Z</time>
      </trkpt>
      <trkpt lat="44.26302" lon="5.62833">
        <ele>1158</ele>
        <time>2018-07-17T05:33:38Z</time>
      </trkpt>
      <trkpt lat="44.26302" lon="5.62835">
        <ele>1158</ele>
        <time>2018-07-17T05:33:40Z</time>
      </trkpt>
      <trkpt lat="44.26302" lon="5.62838">
        <ele>1158</ele>
        <time>2018-07-17T05:33:42Z</time>
      </trkpt>
      <trkpt lat="44.26303" lon="5.6284">
        <ele>1158</ele>
        <time>2018-07-17T05:33:44Z</time>
      </trkpt>
      <trkpt lat="44.26302" lon="5.62843">
        <ele>1158</ele>
        <time>2018-07-17T05:33:46Z</time>
      </trkpt>
      <trkpt lat="44.26303" lon="5.62845">
        <ele>1158</ele>
        <time>2018-07-17T05:33:48Z</time>
      </trkpt>
      <trkpt lat="44.26303" lon="5.62847">
        <ele>1158</ele>
        <time>2018-07-17T05:33:50Z</time>
      </trkpt>
      <trkpt lat="44.26304" lon="5.62849">
        <ele>1158</ele>
        <time>2018-07-17T05:33:52Z</time>
      </trkpt>
      <trkpt lat="44.26304" lon="5.62852">
        <ele>1158</ele>
        <time>2018-07-17T05:33:54Z</time>
      </trkpt>
      <trkpt lat="44.26305" lon="5.62854">
        <ele>1158</ele>
        <time>2018-07-17T05:33:56Z</time>
      </trkpt>
      <trkpt lat="44.26305" lon="5.62855">
        <ele>1158</ele>
        <time>2018-07-17T05:33:57Z</time>
      </trkpt>
      <trkpt lat="44.26306" lon="5.62857">
        <ele>1158</ele>
        <time>2018-07-17T05:33:59Z</time>
      </trkpt>
      <trkpt lat="44.26306" lon="5.6286">
        <ele>1158</ele>
        <time>2018-07-17T05:34:01Z</time>
      </trkpt>
      <trkpt lat="44.26307" lon="5.62862">
        <ele>1158</ele>
        <time>2018-07-17T05:34:03Z</time>
      </trkpt>
      <trkpt lat="44.26307" lon="5.62865">
        <ele>1158</ele>
        <time>2018-07-17T05:34:05Z</time>
      </trkpt>
      <trkpt lat="44.26308" lon="5.62867">
        <ele>1158</ele>
        <time>2018-07-17T05:34:07Z</time>
      </trkpt>
      <trkpt lat="44.26308" lon="5.62868">
        <ele>1158</ele>
        <time>2018-07-17T05:34:08Z</time>
      </trkpt>
      <trkpt lat="44.26308" lon="5.6287">
        <ele>1158</ele>
        <time>2018-07-17T05:34:10Z</time>
      </trkpt>
      <trkpt lat="44.26308" lon="5.62872">
        <ele>1158</ele>
        <time>2018-07-17T05:34:11Z</time>
      </trkpt>
      <trkpt lat="44.26308" lon="5.62874">
        <ele>1158</ele>
        <time>2018-07-17T05:34:13Z</time>
      </trkpt>
      <trkpt lat="44.26309" lon="5.62876">
        <ele>1158</ele>
        <time>2018-07-17T05:34:15Z</time>
      </trkpt>
      <trkpt lat="44.2631" lon="5.62879">
        <ele>1158</ele>
        <time>2018-07-17T05:34:17Z</time>
      </trkpt>
      <trkpt lat="44.26312" lon="5.6288">
        <ele>1158</ele>
        <time>2018-07-17T05:34:19Z</time>
      </trkpt>
      <trkpt lat="44.26312" lon="5.62881">
        <ele>1158</ele>
        <time>2018-07-17T05:34:21Z</time>
      </trkpt>
      <trkpt lat="44.26312" lon="5.62884">
        <ele>1158</ele>
        <time>2018-07-17T05:34:23Z</time>
      </trkpt>
      <trkpt lat="44.26311" lon="5.62886">
        <ele>1158</ele>
        <time>2018-07-17T05:34:25Z</time>
      </trkpt>
      <trkpt lat="44.26311" lon="5.62888">
        <ele>1158</ele>
        <time>2018-07-17T05:34:26Z</time>
      </trkpt>
      <trkpt lat="44.26311" lon="5.62889">
        <ele>1158</ele>
        <time>2018-07-17T05:34:28Z</time>
      </trkpt>
      <trkpt lat="44.26311" lon="5.62892">
        <ele>1158</ele>
        <time>2018-07-17T05:34:30Z</time>
      </trkpt>
      <trkpt lat="44.2631" lon="5.62895">
        <ele>1158</ele>
        <time>2018-07-17T05:34:32Z</time>
      </trkpt>
      <trkpt lat="44.2631" lon="5.62896">
        <ele>1158</ele>
        <time>2018-07-17T05:34:33Z</time>
      </trkpt>
      <trkpt lat="44.2631" lon="5.62898">
        <ele>1158</ele>
        <time>2018-07-17T05:34:34Z</time>
      </trkpt>
      <trkpt lat="44.2631" lon="5.62899">
        <ele>1158</ele>
        <time>2018-07-17T05:34:35Z</time>
      </trkpt>
      <trkpt lat="44.26309" lon="5.62901">
        <ele>1158</ele>
        <time>2018-07-17T05:34:36Z</time>
      </trkpt>
      <trkpt lat="44.26308" lon="5.62903">
        <ele>1158</ele>
        <time>2018-07-17T05:34:37Z</time>
      </trkpt>
      <trkpt lat="44.26308" lon="5.62904">
        <ele>1158</ele>
        <time>2018-07-17T05:34:38Z</time>
      </trkpt>
      <trkpt lat="44.26308" lon="5.62906">
        <ele>1158</ele>
        <time>2018-07-17T05:34:39Z</time>
      </trkpt>
      <trkpt lat="44.26309" lon="5.62909">
        <ele>1159</ele>
        <time>2018-07-17T05:34:41Z</time>
      </trkpt>
      <trkpt lat="44.26309" lon="5.6291">
        <ele>1159</ele>
        <time>2018-07-17T05:34:42Z</time>
      </trkpt>
      <trkpt lat="44.26308" lon="5.62913">
        <ele>1160</ele>
        <time>2018-07-17T05:34:44Z</time>
      </trkpt>
      <trkpt lat="44.26308" lon="5.62916">
        <ele>1161</ele>
        <time>2018-07-17T05:34:46Z</time>
      </trkpt>
      <trkpt lat="44.26308" lon="5.62917">
        <ele>1161</ele>
        <time>2018-07-17T05:34:47Z</time>
      </trkpt>
      <trkpt lat="44.26307" lon="5.62919">
        <ele>1162</ele>
        <time>2018-07-17T05:34:48Z</time>
      </trkpt>
      <trkpt lat="44.26307" lon="5.62921">
        <ele>1162</ele>
        <time>2018-07-17T05:34:49Z</time>
      </trkpt>
      <trkpt lat="44.26307" lon="5.62923">
        <ele>1163</ele>
        <time>2018-07-17T05:34:50Z</time>
      </trkpt>
      <trkpt lat="44.26306" lon="5.62926">
        <ele>1164</ele>
        <time>2018-07-17T05:34:52Z</time>
      </trkpt>
      <trkpt lat="44.26304" lon="5.62928">
        <ele>1165</ele>
        <time>2018-07-17T05:34:54Z</time>
      </trkpt>
      <trkpt lat="44.26302" lon="5.6293">
        <ele>1166</ele>
        <time>2018-07-17T05:34:56Z</time>
      </trkpt>
      <trkpt lat="44.26301" lon="5.62932">
        <ele>1166</ele>
        <time>2018-07-17T05:34:58Z</time>
      </trkpt>
      <trkpt lat="44.263" lon="5.62934">
        <ele>1166</ele>
        <time>2018-07-17T05:35:00Z</time>
      </trkpt>
      <trkpt lat="44.26299" lon="5.62935">
        <ele>1167</ele>
        <time>2018-07-17T05:35:02Z</time>
      </trkpt>
      <trkpt lat="44.26297" lon="5.62937">
        <ele>1167</ele>
        <time>2018-07-17T05:35:04Z</time>
      </trkpt>
      <trkpt lat="44.26295" lon="5.62938">
        <ele>1167</ele>
        <time>2018-07-17T05:35:06Z</time>
      </trkpt>
      <trkpt lat="44.26294" lon="5.62938">
        <ele>1167</ele>
        <time>2018-07-17T05:35:07Z</time>
      </trkpt>
      <trkpt lat="44.26292" lon="5.6294">
        <ele>1167</ele>
        <time>2018-07-17T05:35:09Z</time>
      </trkpt>
      <trkpt lat="44.26291" lon="5.62941">
        <ele>1167</ele>
        <time>2018-07-17T05:35:10Z</time>
      </trkpt>
      <trkpt lat="44.26289" lon="5.62942">
        <ele>1167</ele>
        <time>2018-07-17T05:35:11Z</time>
      </trkpt>
      <trkpt lat="44.26289" lon="5.62943">
        <ele>1167</ele>
        <time>2018-07-17T05:35:13Z</time>
      </trkpt>
      <trkpt lat="44.26289" lon="5.62945">
        <ele>1167</ele>
        <time>2018-07-17T05:35:15Z</time>
      </trkpt>
      <trkpt lat="44.2629" lon="5.62947">
        <ele>1167</ele>
        <time>2018-07-17T05:35:17Z</time>
      </trkpt>
      <trkpt lat="44.26291" lon="5.62948">
        <ele>1167</ele>
        <time>2018-07-17T05:35:19Z</time>
      </trkpt>
      <trkpt lat="44.26289" lon="5.62951">
        <ele>1167</ele>
        <time>2018-07-17T05:35:21Z</time>
      </trkpt>
      <trkpt lat="44.26289" lon="5.62953">
        <ele>1168</ele>
        <time>2018-07-17T05:35:23Z</time>
      </trkpt>
      <trkpt lat="44.26289" lon="5.62955">
        <ele>1168</ele>
        <time>2018-07-17T05:35:25Z</time>
      </trkpt>
      <trkpt lat="44.26288" lon="5.62957">
        <ele>1168</ele>
        <time>2018-07-17T05:35:28Z</time>
      </trkpt>
      <trkpt lat="44.26287" lon="5.62958">
        <ele>1168</ele>
        <time>2018-07-17T05:35:31Z</time>
      </trkpt>
      <trkpt lat="44.26285" lon="5.6296">
        <ele>1168</ele>
        <time>2018-07-17T05:36:02Z</time>
      </trkpt>
      <trkpt lat="44.26284" lon="5.6296">
        <ele>1168</ele>
        <time>2018-07-17T05:36:07Z</time>
      </trkpt>
      <trkpt lat="44.26282" lon="5.6296">
        <ele>1168</ele>
        <time>2018-07-17T05:36:09Z</time>
      </trkpt>
      <trkpt lat="44.26284" lon="5.6296">
        <ele>1168</ele>
        <time>2018-07-17T05:36:16Z</time>
      </trkpt>
      <trkpt lat="44.26285" lon="5.6296">
        <ele>1168</ele>
        <time>2018-07-17T05:36:18Z</time>
      </trkpt>
      <trkpt lat="44.26287" lon="5.6296">
        <ele>1170</ele>
        <time>2018-07-17T05:36:20Z</time>
      </trkpt>
      <trkpt lat="44.26286" lon="5.62962">
        <ele>1174</ele>
        <time>2018-07-17T05:36:24Z</time>
      </trkpt>
      <trkpt lat="44.26287" lon="5.62964">
        <ele>1174</ele>
        <time>2018-07-17T05:36:26Z</time>
      </trkpt>
      <trkpt lat="44.26288" lon="5.62965">
        <ele>1174</ele>
        <time>2018-07-17T05:36:27Z</time>
      </trkpt>
      <trkpt lat="44.26288" lon="5.62967">
        <ele>1175</ele>
        <time>2018-07-17T05:36:29Z</time>
      </trkpt>
      <trkpt lat="44.26287" lon="5.62969">
        <ele>1175</ele>
        <time>2018-07-17T05:36:32Z</time>
      </trkpt>
      <trkpt lat="44.26286" lon="5.62969">
        <ele>1175</ele>
        <time>2018-07-17T05:36:34Z</time>
      </trkpt>
      <trkpt lat="44.26284" lon="5.62969">
        <ele>1175</ele>
        <time>2018-07-17T05:36:36Z</time>
      </trkpt>
      <trkpt lat="44.26283" lon="5.62969">
        <ele>1175</ele>
        <time>2018-07-17T05:36:39Z</time>
      </trkpt>
      <trkpt lat="44.26281" lon="5.62968">
        <ele>1175</ele>
        <time>2018-07-17T05:36:43Z</time>
      </trkpt>
      <trkpt lat="44.26282" lon="5.62966">
        <ele>1175</ele>
        <time>2018-07-17T05:36:48Z</time>
      </trkpt>
      <trkpt lat="44.26281" lon="5.62965">
        <ele>1175</ele>
        <time>2018-07-17T05:36:55Z</time>
      </trkpt>
      <trkpt lat="44.26279" lon="5.62965">
        <ele>1175</ele>
        <time>2018-07-17T05:36:57Z</time>
      </trkpt>
      <trkpt lat="44.26281" lon="5.62966">
        <ele>1175</ele>
        <time>2018-07-17T05:37:02Z</time>
      </trkpt>
      <trkpt lat="44.26283" lon="5.62967">
        <ele>1175</ele>
        <time>2018-07-17T05:37:04Z</time>
      </trkpt>
      <trkpt lat="44.26284" lon="5.62968">
        <ele>1175</ele>
        <time>2018-07-17T05:37:06Z</time>
      </trkpt>
      <trkpt lat="44.26286" lon="5.6297">
        <ele>1175</ele>
        <time>2018-07-17T05:37:08Z</time>
      </trkpt>
      <trkpt lat="44.26288" lon="5.62972">
        <ele>1176</ele>
        <time>2018-07-17T05:37:10Z</time>
      </trkpt>
      <trkpt lat="44.26287" lon="5.62974">
        <ele>1177</ele>
        <time>2018-07-17T05:37:11Z</time>
      </trkpt>
      <trkpt lat="44.26289" lon="5.62976">
        <ele>1177</ele>
        <time>2018-07-17T05:37:13Z</time>
      </trkpt>
      <trkpt lat="44.2629" lon="5.62978">
        <ele>1178</ele>
        <time>2018-07-17T05:37:14Z</time>
      </trkpt>
      <trkpt lat="44.26292" lon="5.6298">
        <ele>1178</ele>
        <time>2018-07-17T05:37:16Z</time>
      </trkpt>
      <trkpt lat="44.26291" lon="5.62981">
        <ele>1179</ele>
        <time>2018-07-17T05:37:17Z</time>
      </trkpt>
      <trkpt lat="44.2629" lon="5.62984">
        <ele>1179</ele>
        <time>2018-07-17T05:37:19Z</time>
      </trkpt>
      <trkpt lat="44.26289" lon="5.62985">
        <ele>1179</ele>
        <time>2018-07-17T05:37:21Z</time>
      </trkpt>
      <trkpt lat="44.26288" lon="5.62986">
        <ele>1179</ele>
        <time>2018-07-17T05:37:24Z</time>
      </trkpt>
      <trkpt lat="44.26287" lon="5.62987">
        <ele>1179</ele>
        <time>2018-07-17T05:37:37Z</time>
      </trkpt>
      <trkpt lat="44.26288" lon="5.62989">
        <ele>1178</ele>
        <time>2018-07-17T05:37:41Z</time>
      </trkpt>
      <trkpt lat="44.26286" lon="5.62988">
        <ele>1178</ele>
        <time>2018-07-17T05:37:47Z</time>
      </trkpt>
      <trkpt lat="44.26285" lon="5.62986">
        <ele>1178</ele>
        <time>2018-07-17T05:37:49Z</time>
      </trkpt>
      <trkpt lat="44.26284" lon="5.62986">
        <ele>1177</ele>
        <time>2018-07-17T05:37:52Z</time>
      </trkpt>
      <trkpt lat="44.26283" lon="5.62984">
        <ele>1177</ele>
        <time>2018-07-17T05:37:57Z</time>
      </trkpt>
      <trkpt lat="44.26282" lon="5.62984">
        <ele>1177</ele>
        <time>2018-07-17T05:38:05Z</time>
      </trkpt>
      <trkpt lat="44.26281" lon="5.62985">
        <ele>1177</ele>
        <time>2018-07-17T05:38:08Z</time>
      </trkpt>
      <trkpt lat="44.26281" lon="5.62988">
        <ele>1176</ele>
        <time>2018-07-17T05:38:10Z</time>
      </trkpt>
      <trkpt lat="44.26283" lon="5.6299">
        <ele>1176</ele>
        <time>2018-07-17T05:38:12Z</time>
      </trkpt>
      <trkpt lat="44.26284" lon="5.62992">
        <ele>1176</ele>
        <time>2018-07-17T05:38:13Z</time>
      </trkpt>
      <trkpt lat="44.26284" lon="5.62993">
        <ele>1176</ele>
        <time>2018-07-17T05:38:14Z</time>
      </trkpt>
      <trkpt lat="44.26285" lon="5.62995">
        <ele>1176</ele>
        <time>2018-07-17T05:38:15Z</time>
      </trkpt>
      <trkpt lat="44.26285" lon="5.62997">
        <ele>1176</ele>
        <time>2018-07-17T05:38:17Z</time>
      </trkpt>
      <trkpt lat="44.26286" lon="5.62999">
        <ele>1176</ele>
        <time>2018-07-17T05:38:19Z</time>
      </trkpt>
      <trkpt lat="44.26286" lon="5.63001">
        <ele>1176</ele>
        <time>2018-07-17T05:38:21Z</time>
      </trkpt>
      <trkpt lat="44.26287" lon="5.63004">
        <ele>1176</ele>
        <time>2018-07-17T05:38:23Z</time>
      </trkpt>
      <trkpt lat="44.26287" lon="5.63005">
        <ele>1176</ele>
        <time>2018-07-17T05:38:24Z</time>
      </trkpt>
      <trkpt lat="44.26287" lon="5.63007">
        <ele>1176</ele>
        <time>2018-07-17T05:38:26Z</time>
      </trkpt>
      <trkpt lat="44.26288" lon="5.6301">
        <ele>1176</ele>
        <time>2018-07-17T05:38:28Z</time>
      </trkpt>
      <trkpt lat="44.26289" lon="5.63011">
        <ele>1176</ele>
        <time>2018-07-17T05:38:31Z</time>
      </trkpt>
      <trkpt lat="44.26288" lon="5.63014">
        <ele>1176</ele>
        <time>2018-07-17T05:38:39Z</time>
      </trkpt>
      <trkpt lat="44.26287" lon="5.63016">
        <ele>1176</ele>
        <time>2018-07-17T05:38:41Z</time>
      </trkpt>
      <trkpt lat="44.26286" lon="5.63017">
        <ele>1175</ele>
        <time>2018-07-17T05:38:43Z</time>
      </trkpt>
      <trkpt lat="44.26285" lon="5.6302">
        <ele>1174</ele>
        <time>2018-07-17T05:38:45Z</time>
      </trkpt>
      <trkpt lat="44.26285" lon="5.63022">
        <ele>1174</ele>
        <time>2018-07-17T05:38:47Z</time>
      </trkpt>
      <trkpt lat="44.26285" lon="5.63024">
        <ele>1173</ele>
        <time>2018-07-17T05:38:49Z</time>
      </trkpt>
      <trkpt lat="44.26286" lon="5.63027">
        <ele>1173</ele>
        <time>2018-07-17T05:38:51Z</time>
      </trkpt>
      <trkpt lat="44.26285" lon="5.63028">
        <ele>1173</ele>
        <time>2018-07-17T05:38:52Z</time>
      </trkpt>
      <trkpt lat="44.26285" lon="5.6303">
        <ele>1173</ele>
        <time>2018-07-17T05:38:53Z</time>
      </trkpt>
      <trkpt lat="44.26286" lon="5.63032">
        <ele>1172</ele>
        <time>2018-07-17T05:38:55Z</time>
      </trkpt>
      <trkpt lat="44.26286" lon="5.63034">
        <ele>1171</ele>
        <time>2018-07-17T05:38:57Z</time>
      </trkpt>
      <trkpt lat="44.26286" lon="5.63036">
        <ele>1171</ele>
        <time>2018-07-17T05:38:59Z</time>
      </trkpt>
      <trkpt lat="44.26287" lon="5.63038">
        <ele>1170</ele>
        <time>2018-07-17T05:39:01Z</time>
      </trkpt>
      <trkpt lat="44.26289" lon="5.6304">
        <ele>1170</ele>
        <time>2018-07-17T05:39:03Z</time>
      </trkpt>
      <trkpt lat="44.26289" lon="5.63042">
        <ele>1170</ele>
        <time>2018-07-17T05:39:05Z</time>
      </trkpt>
      <trkpt lat="44.2629" lon="5.63045">
        <ele>1170</ele>
        <time>2018-07-17T05:39:07Z</time>
      </trkpt>
      <trkpt lat="44.26291" lon="5.63046">
        <ele>1170</ele>
        <time>2018-07-17T05:39:09Z</time>
      </trkpt>
      <trkpt lat="44.26291" lon="5.63048">
        <ele>1169</ele>
        <time>2018-07-17T05:39:20Z</time>
      </trkpt>
      <trkpt lat="44.26292" lon="5.6305">
        <ele>1169</ele>
        <time>2018-07-17T05:39:23Z</time>
      </trkpt>
      <trkpt lat="44.26292" lon="5.63052">
        <ele>1169</ele>
        <time>2018-07-17T05:39:25Z</time>
      </trkpt>
      <trkpt lat="44.26292" lon="5.63054">
        <ele>1169</ele>
        <time>2018-07-17T05:39:27Z</time>
      </trkpt>
      <trkpt lat="44.26292" lon="5.63056">
        <ele>1169</ele>
        <time>2018-07-17T05:39:29Z</time>
      </trkpt>
      <trkpt lat="44.26292" lon="5.63058">
        <ele>1169</ele>
        <time>2018-07-17T05:39:31Z</time>
      </trkpt>
      <trkpt lat="44.26291" lon="5.6306">
        <ele>1169</ele>
        <time>2018-07-17T05:39:33Z</time>
      </trkpt>
      <trkpt lat="44.26292" lon="5.63062">
        <ele>1169</ele>
        <time>2018-07-17T05:39:36Z</time>
      </trkpt>
      <trkpt lat="44.26294" lon="5.63062">
        <ele>1169</ele>
        <time>2018-07-17T05:39:39Z</time>
      </trkpt>
      <trkpt lat="44.26296" lon="5.63063">
        <ele>1169</ele>
        <time>2018-07-17T05:39:41Z</time>
      </trkpt>
      <trkpt lat="44.26298" lon="5.63063">
        <ele>1170</ele>
        <time>2018-07-17T05:39:42Z</time>
      </trkpt>
      <trkpt lat="44.26296" lon="5.63064">
        <ele>1173</ele>
        <time>2018-07-17T05:39:45Z</time>
      </trkpt>
      <trkpt lat="44.26294" lon="5.63064">
        <ele>1173</ele>
        <time>2018-07-17T05:39:47Z</time>
      </trkpt>
      <trkpt lat="44.26295" lon="5.63067">
        <ele>1173</ele>
        <time>2018-07-17T05:39:50Z</time>
      </trkpt>
      <trkpt lat="44.26296" lon="5.63068">
        <ele>1173</ele>
        <time>2018-07-17T05:39:51Z</time>
      </trkpt>
      <trkpt lat="44.26297" lon="5.63069">
        <ele>1173</ele>
        <time>2018-07-17T05:39:53Z</time>
      </trkpt>
      <trkpt lat="44.26296" lon="5.63071">
        <ele>1173</ele>
        <time>2018-07-17T05:39:55Z</time>
      </trkpt>
      <trkpt lat="44.26296" lon="5.63072">
        <ele>1173</ele>
        <time>2018-07-17T05:39:57Z</time>
      </trkpt>
      <trkpt lat="44.26294" lon="5.63074">
        <ele>1174</ele>
        <time>2018-07-17T05:39:59Z</time>
      </trkpt>
      <trkpt lat="44.26294" lon="5.63076">
        <ele>1174</ele>
        <time>2018-07-17T05:40:01Z</time>
      </trkpt>
      <trkpt lat="44.26294" lon="5.63078">
        <ele>1175</ele>
        <time>2018-07-17T05:40:03Z</time>
      </trkpt>
      <trkpt lat="44.26292" lon="5.6308">
        <ele>1175</ele>
        <time>2018-07-17T05:40:06Z</time>
      </trkpt>
      <trkpt lat="44.26291" lon="5.63082">
        <ele>1175</ele>
        <time>2018-07-17T05:40:08Z</time>
      </trkpt>
      <trkpt lat="44.26292" lon="5.63083">
        <ele>1175</ele>
        <time>2018-07-17T05:40:11Z</time>
      </trkpt>
      <trkpt lat="44.26294" lon="5.63083">
        <ele>1175</ele>
        <time>2018-07-17T05:40:13Z</time>
      </trkpt>
      <trkpt lat="44.26295" lon="5.63083">
        <ele>1175</ele>
        <time>2018-07-17T05:40:14Z</time>
      </trkpt>
      <trkpt lat="44.26296" lon="5.63085">
        <ele>1179</ele>
        <time>2018-07-17T05:40:18Z</time>
      </trkpt>
      <trkpt lat="44.26298" lon="5.63085">
        <ele>1181</ele>
        <time>2018-07-17T05:40:21Z</time>
      </trkpt>
      <trkpt lat="44.26298" lon="5.63087">
        <ele>1182</ele>
        <time>2018-07-17T05:40:23Z</time>
      </trkpt>
      <trkpt lat="44.26297" lon="5.63089">
        <ele>1183</ele>
        <time>2018-07-17T05:40:25Z</time>
      </trkpt>
      <trkpt lat="44.26295" lon="5.6309">
        <ele>1185</ele>
        <time>2018-07-17T05:40:29Z</time>
      </trkpt>
      <trkpt lat="44.26294" lon="5.6309">
        <ele>1185</ele>
        <time>2018-07-17T05:40:30Z</time>
      </trkpt>
      <trkpt lat="44.26292" lon="5.6309">
        <ele>1185</ele>
        <time>2018-07-17T05:40:32Z</time>
      </trkpt>
      <trkpt lat="44.26291" lon="5.6309">
        <ele>1185</ele>
        <time>2018-07-17T05:40:34Z</time>
      </trkpt>
      <trkpt lat="44.26289" lon="5.6309">
        <ele>1184</ele>
        <time>2018-07-17T05:40:37Z</time>
      </trkpt>
      <trkpt lat="44.26291" lon="5.6309">
        <ele>1184</ele>
        <time>2018-07-17T05:40:39Z</time>
      </trkpt>
      <trkpt lat="44.26288" lon="5.6309">
        <ele>1183</ele>
        <time>2018-07-17T05:40:45Z</time>
      </trkpt>
      <trkpt lat="44.2629" lon="5.6309">
        <ele>1182</ele>
        <time>2018-07-17T05:40:50Z</time>
      </trkpt>
      <trkpt lat="44.26291" lon="5.6309">
        <ele>1182</ele>
        <time>2018-07-17T05:40:51Z</time>
      </trkpt>
      <trkpt lat="44.26293" lon="5.63089">
        <ele>1182</ele>
        <time>2018-07-17T05:40:53Z</time>
      </trkpt>
      <trkpt lat="44.26294" lon="5.6309">
        <ele>1182</ele>
        <time>2018-07-17T05:40:56Z</time>
      </trkpt>
      <trkpt lat="44.26295" lon="5.63089">
        <ele>1182</ele>
        <time>2018-07-17T05:40:59Z</time>
      </trkpt>
      <trkpt lat="44.26297" lon="5.63089">
        <ele>1184</ele>
        <time>2018-07-17T05:41:03Z</time>
      </trkpt>
      <trkpt lat="44.26298" lon="5.63089">
        <ele>1184</ele>
        <time>2018-07-17T05:41:05Z</time>
      </trkpt>
      <trkpt lat="44.263" lon="5.63089">
        <ele>1186</ele>
        <time>2018-07-17T05:41:09Z</time>
      </trkpt>
      <trkpt lat="44.26298" lon="5.63089">
        <ele>1186</ele>
        <time>2018-07-17T05:41:11Z</time>
      </trkpt>
      <trkpt lat="44.26297" lon="5.63089">
        <ele>1186</ele>
        <time>2018-07-17T05:41:13Z</time>
      </trkpt>
      <trkpt lat="44.26296" lon="5.63089">
        <ele>1186</ele>
        <time>2018-07-17T05:41:16Z</time>
      </trkpt>
      <trkpt lat="44.26294" lon="5.63089">
        <ele>1186</ele>
        <time>2018-07-17T05:41:18Z</time>
      </trkpt>
      <trkpt lat="44.26293" lon="5.63089">
        <ele>1185</ele>
        <time>2018-07-17T05:41:27Z</time>
      </trkpt>
      <trkpt lat="44.26292" lon="5.63088">
        <ele>1184</ele>
        <time>2018-07-17T05:41:29Z</time>
      </trkpt>
      <trkpt lat="44.2629" lon="5.63088">
        <ele>1181</ele>
        <time>2018-07-17T05:41:44Z</time>
      </trkpt>
      <trkpt lat="44.26291" lon="5.63089">
        <ele>1181</ele>
        <time>2018-07-17T05:41:48Z</time>
      </trkpt>
      <trkpt lat="44.26293" lon="5.63089">
        <ele>1181</ele>
        <time>2018-07-17T05:41:51Z</time>
      </trkpt>
      <trkpt lat="44.26294" lon="5.63089">
        <ele>1181</ele>
        <time>2018-07-17T05:41:54Z</time>
      </trkpt>
      <trkpt lat="44.26293" lon="5.63088">
        <ele>1181</ele>
        <time>2018-07-17T05:42:09Z</time>
      </trkpt>
      <trkpt lat="44.26292" lon="5.63088">
        <ele>1181</ele>
        <time>2018-07-17T05:42:11Z</time>
      </trkpt>
      <trkpt lat="44.2629" lon="5.63088">
        <ele>1181</ele>
        <time>2018-07-17T05:42:13Z</time>
      </trkpt>
      <trkpt lat="44.26289" lon="5.63088">
        <ele>1180</ele>
        <time>2018-07-17T05:42:15Z</time>
      </trkpt>
      <trkpt lat="44.26288" lon="5.63088">
        <ele>1178</ele>
        <time>2018-07-17T05:42:19Z</time>
      </trkpt>
      <trkpt lat="44.2629" lon="5.63088">
        <ele>1177</ele>
        <time>2018-07-17T05:42:22Z</time>
      </trkpt>
      <trkpt lat="44.26292" lon="5.63088">
        <ele>1177</ele>
        <time>2018-07-17T05:42:23Z</time>
      </trkpt>
      <trkpt lat="44.26293" lon="5.63088">
        <ele>1177</ele>
        <time>2018-07-17T05:42:25Z</time>
      </trkpt>
      <trkpt lat="44.26291" lon="5.63089">
        <ele>1178</ele>
        <time>2018-07-17T05:42:35Z</time>
      </trkpt>
      <trkpt lat="44.2629" lon="5.63091">
        <ele>1178</ele>
        <time>2018-07-17T05:42:37Z</time>
      </trkpt>
      <trkpt lat="44.26289" lon="5.63093">
        <ele>1178</ele>
        <time>2018-07-17T05:42:39Z</time>
      </trkpt>
      <trkpt lat="44.26289" lon="5.63095">
        <ele>1178</ele>
        <time>2018-07-17T05:42:41Z</time>
      </trkpt>
      <trkpt lat="44.26289" lon="5.63097">
        <ele>1178</ele>
        <time>2018-07-17T05:42:43Z</time>
      </trkpt>
      <trkpt lat="44.26288" lon="5.63099">
        <ele>1178</ele>
        <time>2018-07-17T05:42:45Z</time>
      </trkpt>
      <trkpt lat="44.26289" lon="5.63101">
        <ele>1178</ele>
        <time>2018-07-17T05:42:47Z</time>
      </trkpt>
      <trkpt lat="44.26288" lon="5.63102">
        <ele>1178</ele>
        <time>2018-07-17T05:42:48Z</time>
      </trkpt>
      <trkpt lat="44.26287" lon="5.63103">
        <ele>1178</ele>
        <time>2018-07-17T05:42:49Z</time>
      </trkpt>
      <trkpt lat="44.26286" lon="5.63104">
        <ele>1178</ele>
        <time>2018-07-17T05:42:50Z</time>
      </trkpt>
      <trkpt lat="44.26284" lon="5.63106">
        <ele>1178</ele>
        <time>2018-07-17T05:42:52Z</time>
      </trkpt>
      <trkpt lat="44.26282" lon="5.63107">
        <ele>1178</ele>
        <time>2018-07-17T05:42:54Z</time>
      </trkpt>
      <trkpt lat="44.26281" lon="5.63109">
        <ele>1178</ele>
        <time>2018-07-17T05:42:56Z</time>
      </trkpt>
      <trkpt lat="44.26279" lon="5.6311">
        <ele>1178</ele>
        <time>2018-07-17T05:42:57Z</time>
      </trkpt>
      <trkpt lat="44.26278" lon="5.63111">
        <ele>1178</ele>
        <time>2018-07-17T05:42:58Z</time>
      </trkpt>
      <trkpt lat="44.26276" lon="5.63113">
        <ele>1178</ele>
        <time>2018-07-17T05:43:00Z</time>
      </trkpt>
      <trkpt lat="44.26275" lon="5.63115">
        <ele>1178</ele>
        <time>2018-07-17T05:43:02Z</time>
      </trkpt>
      <trkpt lat="44.26274" lon="5.63117">
        <ele>1177</ele>
        <time>2018-07-17T05:43:04Z</time>
      </trkpt>
      <trkpt lat="44.26272" lon="5.63119">
        <ele>1177</ele>
        <time>2018-07-17T05:43:06Z</time>
      </trkpt>
      <trkpt lat="44.26271" lon="5.63121">
        <ele>1176</ele>
        <time>2018-07-17T05:43:08Z</time>
      </trkpt>
      <trkpt lat="44.26269" lon="5.63123">
        <ele>1175</ele>
        <time>2018-07-17T05:43:10Z</time>
      </trkpt>
      <trkpt lat="44.26269" lon="5.63125">
        <ele>1175</ele>
        <time>2018-07-17T05:43:12Z</time>
      </trkpt>
      <trkpt lat="44.26269" lon="5.63127">
        <ele>1175</ele>
        <time>2018-07-17T05:43:14Z</time>
      </trkpt>
      <trkpt lat="44.26268" lon="5.63129">
        <ele>1175</ele>
        <time>2018-07-17T05:43:16Z</time>
      </trkpt>
      <trkpt lat="44.26268" lon="5.63131">
        <ele>1175</ele>
        <time>2018-07-17T05:43:18Z</time>
      </trkpt>
      <trkpt lat="44.26267" lon="5.63133">
        <ele>1175</ele>
        <time>2018-07-17T05:43:20Z</time>
      </trkpt>
      <trkpt lat="44.26266" lon="5.63136">
        <ele>1175</ele>
        <time>2018-07-17T05:43:22Z</time>
      </trkpt>
      <trkpt lat="44.26265" lon="5.63137">
        <ele>1175</ele>
        <time>2018-07-17T05:43:23Z</time>
      </trkpt>
      <trkpt lat="44.26263" lon="5.6314">
        <ele>1175</ele>
        <time>2018-07-17T05:43:25Z</time>
      </trkpt>
      <trkpt lat="44.26263" lon="5.63142">
        <ele>1173</ele>
        <time>2018-07-17T05:43:27Z</time>
      </trkpt>
      <trkpt lat="44.26263" lon="5.63144">
        <ele>1173</ele>
        <time>2018-07-17T05:43:29Z</time>
      </trkpt>
      <trkpt lat="44.26264" lon="5.63146">
        <ele>1173</ele>
        <time>2018-07-17T05:43:31Z</time>
      </trkpt>
      <trkpt lat="44.26265" lon="5.63148">
        <ele>1173</ele>
        <time>2018-07-17T05:43:33Z</time>
      </trkpt>
      <trkpt lat="44.26266" lon="5.63149">
        <ele>1173</ele>
        <time>2018-07-17T05:43:35Z</time>
      </trkpt>
      <trkpt lat="44.26267" lon="5.63151">
        <ele>1173</ele>
        <time>2018-07-17T05:43:37Z</time>
      </trkpt>
      <trkpt lat="44.26268" lon="5.63153">
        <ele>1173</ele>
        <time>2018-07-17T05:43:39Z</time>
      </trkpt>
      <trkpt lat="44.26269" lon="5.63155">
        <ele>1173</ele>
        <time>2018-07-17T05:43:41Z</time>
      </trkpt>
      <trkpt lat="44.2627" lon="5.63157">
        <ele>1173</ele>
        <time>2018-07-17T05:43:43Z</time>
      </trkpt>
      <trkpt lat="44.26271" lon="5.63159">
        <ele>1173</ele>
        <time>2018-07-17T05:43:45Z</time>
      </trkpt>
      <trkpt lat="44.26271" lon="5.63161">
        <ele>1173</ele>
        <time>2018-07-17T05:43:47Z</time>
      </trkpt>
      <trkpt lat="44.26272" lon="5.63164">
        <ele>1173</ele>
        <time>2018-07-17T05:43:49Z</time>
      </trkpt>
      <trkpt lat="44.26273" lon="5.63165">
        <ele>1173</ele>
        <time>2018-07-17T05:43:51Z</time>
      </trkpt>
      <trkpt lat="44.26273" lon="5.63167">
        <ele>1173</ele>
        <time>2018-07-17T05:43:53Z</time>
      </trkpt>
      <trkpt lat="44.26274" lon="5.63169">
        <ele>1173</ele>
        <time>2018-07-17T05:43:55Z</time>
      </trkpt>
      <trkpt lat="44.26275" lon="5.63171">
        <ele>1173</ele>
        <time>2018-07-17T05:43:57Z</time>
      </trkpt>
      <trkpt lat="44.26276" lon="5.63173">
        <ele>1173</ele>
        <time>2018-07-17T05:43:59Z</time>
      </trkpt>
      <trkpt lat="44.26276" lon="5.63176">
        <ele>1173</ele>
        <time>2018-07-17T05:44:01Z</time>
      </trkpt>
      <trkpt lat="44.26277" lon="5.63178">
        <ele>1173</ele>
        <time>2018-07-17T05:44:03Z</time>
      </trkpt>
      <trkpt lat="44.26277" lon="5.6318">
        <ele>1173</ele>
        <time>2018-07-17T05:44:05Z</time>
      </trkpt>
      <trkpt lat="44.26276" lon="5.63183">
        <ele>1173</ele>
        <time>2018-07-17T05:44:07Z</time>
      </trkpt>
      <trkpt lat="44.26276" lon="5.63185">
        <ele>1173</ele>
        <time>2018-07-17T05:44:09Z</time>
      </trkpt>
      <trkpt lat="44.26276" lon="5.63187">
        <ele>1173</ele>
        <time>2018-07-17T05:44:11Z</time>
      </trkpt>
      <trkpt lat="44.26276" lon="5.63189">
        <ele>1173</ele>
        <time>2018-07-17T05:44:13Z</time>
      </trkpt>
      <trkpt lat="44.26277" lon="5.63191">
        <ele>1173</ele>
        <time>2018-07-17T05:44:15Z</time>
      </trkpt>
      <trkpt lat="44.26278" lon="5.63192">
        <ele>1173</ele>
        <time>2018-07-17T05:44:17Z</time>
      </trkpt>
      <trkpt lat="44.26279" lon="5.63194">
        <ele>1173</ele>
        <time>2018-07-17T05:44:19Z</time>
      </trkpt>
      <trkpt lat="44.26279" lon="5.63195">
        <ele>1173</ele>
        <time>2018-07-17T05:44:21Z</time>
      </trkpt>
      <trkpt lat="44.26279" lon="5.63197">
        <ele>1173</ele>
        <time>2018-07-17T05:44:23Z</time>
      </trkpt>
      <trkpt lat="44.26279" lon="5.63199">
        <ele>1173</ele>
        <time>2018-07-17T05:44:25Z</time>
      </trkpt>
      <trkpt lat="44.26279" lon="5.63201">
        <ele>1173</ele>
        <time>2018-07-17T05:44:27Z</time>
      </trkpt>
      <trkpt lat="44.2628" lon="5.63203">
        <ele>1173</ele>
        <time>2018-07-17T05:44:29Z</time>
      </trkpt>
      <trkpt lat="44.26281" lon="5.63204">
        <ele>1173</ele>
        <time>2018-07-17T05:44:31Z</time>
      </trkpt>
      <trkpt lat="44.26281" lon="5.63206">
        <ele>1173</ele>
        <time>2018-07-17T05:44:33Z</time>
      </trkpt>
      <trkpt lat="44.26281" lon="5.63208">
        <ele>1173</ele>
        <time>2018-07-17T05:44:35Z</time>
      </trkpt>
      <trkpt lat="44.26282" lon="5.6321">
        <ele>1173</ele>
        <time>2018-07-17T05:44:37Z</time>
      </trkpt>
      <trkpt lat="44.26284" lon="5.63212">
        <ele>1173</ele>
        <time>2018-07-17T05:44:39Z</time>
      </trkpt>
      <trkpt lat="44.26286" lon="5.63213">
        <ele>1174</ele>
        <time>2018-07-17T05:44:41Z</time>
      </trkpt>
      <trkpt lat="44.26286" lon="5.63215">
        <ele>1176</ele>
        <time>2018-07-17T05:44:43Z</time>
      </trkpt>
      <trkpt lat="44.26286" lon="5.63217">
        <ele>1177</ele>
        <time>2018-07-17T05:44:45Z</time>
      </trkpt>
      <trkpt lat="44.26287" lon="5.63218">
        <ele>1178</ele>
        <time>2018-07-17T05:44:47Z</time>
      </trkpt>
      <trkpt lat="44.26287" lon="5.6322">
        <ele>1178</ele>
        <time>2018-07-17T05:44:49Z</time>
      </trkpt>
      <trkpt lat="44.26287" lon="5.63222">
        <ele>1179</ele>
        <time>2018-07-17T05:44:51Z</time>
      </trkpt>
      <trkpt lat="44.26287" lon="5.63223">
        <ele>1179</ele>
        <time>2018-07-17T05:44:53Z</time>
      </trkpt>
      <trkpt lat="44.26287" lon="5.63225">
        <ele>1179</ele>
        <time>2018-07-17T05:44:55Z</time>
      </trkpt>
      <trkpt lat="44.26286" lon="5.63227">
        <ele>1179</ele>
        <time>2018-07-17T05:44:57Z</time>
      </trkpt>
      <trkpt lat="44.26286" lon="5.63229">
        <ele>1179</ele>
        <time>2018-07-17T05:44:59Z</time>
      </trkpt>
      <trkpt lat="44.26286" lon="5.6323">
        <ele>1179</ele>
        <time>2018-07-17T05:45:01Z</time>
      </trkpt>
      <trkpt lat="44.26286" lon="5.63232">
        <ele>1180</ele>
        <time>2018-07-17T05:45:04Z</time>
      </trkpt>
      <trkpt lat="44.26286" lon="5.63234">
        <ele>1180</ele>
        <time>2018-07-17T05:45:06Z</time>
      </trkpt>
      <trkpt lat="44.26286" lon="5.63236">
        <ele>1180</ele>
        <time>2018-07-17T05:45:08Z</time>
      </trkpt>
      <trkpt lat="44.26287" lon="5.63238">
        <ele>1181</ele>
        <time>2018-07-17T05:45:10Z</time>
      </trkpt>
      <trkpt lat="44.26288" lon="5.6324">
        <ele>1182</ele>
        <time>2018-07-17T05:45:12Z</time>
      </trkpt>
      <trkpt lat="44.26288" lon="5.63242">
        <ele>1183</ele>
        <time>2018-07-17T05:45:14Z</time>
      </trkpt>
      <trkpt lat="44.26287" lon="5.63244">
        <ele>1184</ele>
        <time>2018-07-17T05:45:16Z</time>
      </trkpt>
      <trkpt lat="44.26287" lon="5.63246">
        <ele>1184</ele>
        <time>2018-07-17T05:45:18Z</time>
      </trkpt>
      <trkpt lat="44.26285" lon="5.63248">
        <ele>1184</ele>
        <time>2018-07-17T05:45:20Z</time>
      </trkpt>
      <trkpt lat="44.26285" lon="5.6325">
        <ele>1184</ele>
        <time>2018-07-17T05:45:22Z</time>
      </trkpt>
      <trkpt lat="44.26286" lon="5.63252">
        <ele>1184</ele>
        <time>2018-07-17T05:45:24Z</time>
      </trkpt>
      <trkpt lat="44.26287" lon="5.63254">
        <ele>1185</ele>
        <time>2018-07-17T05:45:26Z</time>
      </trkpt>
      <trkpt lat="44.26287" lon="5.63255">
        <ele>1187</ele>
        <time>2018-07-17T05:45:29Z</time>
      </trkpt>
      <trkpt lat="44.26287" lon="5.63257">
        <ele>1188</ele>
        <time>2018-07-17T05:45:32Z</time>
      </trkpt>
      <trkpt lat="44.26287" lon="5.63259">
        <ele>1189</ele>
        <time>2018-07-17T05:45:34Z</time>
      </trkpt>
      <trkpt lat="44.26287" lon="5.63261">
        <ele>1190</ele>
        <time>2018-07-17T05:45:37Z</time>
      </trkpt>
      <trkpt lat="44.26287" lon="5.63263">
        <ele>1190</ele>
        <time>2018-07-17T05:45:39Z</time>
      </trkpt>
      <trkpt lat="44.26286" lon="5.63264">
        <ele>1191</ele>
        <time>2018-07-17T05:45:41Z</time>
      </trkpt>
      <trkpt lat="44.26285" lon="5.63266">
        <ele>1191</ele>
        <time>2018-07-17T05:45:43Z</time>
      </trkpt>
      <trkpt lat="44.26285" lon="5.63268">
        <ele>1191</ele>
        <time>2018-07-17T05:45:45Z</time>
      </trkpt>
      <trkpt lat="44.26286" lon="5.63269">
        <ele>1191</ele>
        <time>2018-07-17T05:45:47Z</time>
      </trkpt>
      <trkpt lat="44.26286" lon="5.63271">
        <ele>1191</ele>
        <time>2018-07-17T05:45:49Z</time>
      </trkpt>
      <trkpt lat="44.26284" lon="5.63272">
        <ele>1191</ele>
        <time>2018-07-17T05:45:51Z</time>
      </trkpt>
      <trkpt lat="44.26285" lon="5.63273">
        <ele>1191</ele>
        <time>2018-07-17T05:45:53Z</time>
      </trkpt>
      <trkpt lat="44.26285" lon="5.63275">
        <ele>1191</ele>
        <time>2018-07-17T05:45:56Z</time>
      </trkpt>
      <trkpt lat="44.26284" lon="5.63275">
        <ele>1191</ele>
        <time>2018-07-17T05:45:58Z</time>
      </trkpt>
      <trkpt lat="44.26282" lon="5.63275">
        <ele>1191</ele>
        <time>2018-07-17T05:46:00Z</time>
      </trkpt>
      <trkpt lat="44.26281" lon="5.63274">
        <ele>1191</ele>
        <time>2018-07-17T05:46:06Z</time>
      </trkpt>
      <trkpt lat="44.2628" lon="5.63274">
        <ele>1191</ele>
        <time>2018-07-17T05:46:10Z</time>
      </trkpt>
      <trkpt lat="44.26279" lon="5.63274">
        <ele>1191</ele>
        <time>2018-07-17T05:46:17Z</time>
      </trkpt>
      <trkpt lat="44.26277" lon="5.63274">
        <ele>1191</ele>
        <time>2018-07-17T05:46:24Z</time>
      </trkpt>
      <trkpt lat="44.26275" lon="5.63275">
        <ele>1189</ele>
        <time>2018-07-17T05:46:26Z</time>
      </trkpt>
      <trkpt lat="44.26274" lon="5.63276">
        <ele>1189</ele>
        <time>2018-07-17T05:46:27Z</time>
      </trkpt>
      <trkpt lat="44.26273" lon="5.63277">
        <ele>1188</ele>
        <time>2018-07-17T05:46:31Z</time>
      </trkpt>
      <trkpt lat="44.26273" lon="5.63279">
        <ele>1188</ele>
        <time>2018-07-17T05:46:33Z</time>
      </trkpt>
      <trkpt lat="44.26274" lon="5.6328">
        <ele>1188</ele>
        <time>2018-07-17T05:46:35Z</time>
      </trkpt>
      <trkpt lat="44.26276" lon="5.63281">
        <ele>1188</ele>
        <time>2018-07-17T05:46:38Z</time>
      </trkpt>
      <trkpt lat="44.26277" lon="5.63281">
        <ele>1188</ele>
        <time>2018-07-17T05:46:43Z</time>
      </trkpt>
      <trkpt lat="44.26278" lon="5.6328">
        <ele>1188</ele>
        <time>2018-07-17T05:46:48Z</time>
      </trkpt>
      <trkpt lat="44.26279" lon="5.63279">
        <ele>1188</ele>
        <time>2018-07-17T05:46:50Z</time>
      </trkpt>
      <trkpt lat="44.26278" lon="5.63278">
        <ele>1189</ele>
        <time>2018-07-17T05:47:17Z</time>
      </trkpt>
      <trkpt lat="44.26276" lon="5.63278">
        <ele>1189</ele>
        <time>2018-07-17T05:47:22Z</time>
      </trkpt>
      <trkpt lat="44.26276" lon="5.63279">
        <ele>1189</ele>
        <time>2018-07-17T05:48:19Z</time>
      </trkpt>
      <trkpt lat="44.26277" lon="5.6328">
        <ele>1189</ele>
        <time>2018-07-17T05:48:21Z</time>
      </trkpt>
      <trkpt lat="44.26279" lon="5.63282">
        <ele>1189</ele>
        <time>2018-07-17T05:48:24Z</time>
      </trkpt>
      <trkpt lat="44.26279" lon="5.63284">
        <ele>1189</ele>
        <time>2018-07-17T05:48:28Z</time>
      </trkpt>
      <trkpt lat="44.26281" lon="5.63285">
        <ele>1189</ele>
        <time>2018-07-17T05:48:30Z</time>
      </trkpt>
      <trkpt lat="44.26281" lon="5.63288">
        <ele>1192</ele>
        <time>2018-07-17T05:48:33Z</time>
      </trkpt>
      <trkpt lat="44.26282" lon="5.63289">
        <ele>1192</ele>
        <time>2018-07-17T05:48:35Z</time>
      </trkpt>
      <trkpt lat="44.26282" lon="5.63291">
        <ele>1194</ele>
        <time>2018-07-17T05:48:37Z</time>
      </trkpt>
      <trkpt lat="44.26282" lon="5.63293">
        <ele>1195</ele>
        <time>2018-07-17T05:48:40Z</time>
      </trkpt>
      <trkpt lat="44.26282" lon="5.63295">
        <ele>1196</ele>
        <time>2018-07-17T05:48:43Z</time>
      </trkpt>
      <trkpt lat="44.26281" lon="5.63296">
        <ele>1196</ele>
        <time>2018-07-17T05:48:45Z</time>
      </trkpt>
      <trkpt lat="44.2628" lon="5.63298">
        <ele>1196</ele>
        <time>2018-07-17T05:48:47Z</time>
      </trkpt>
      <trkpt lat="44.2628" lon="5.633">
        <ele>1196</ele>
        <time>2018-07-17T05:48:49Z</time>
      </trkpt>
      <trkpt lat="44.26281" lon="5.63302">
        <ele>1196</ele>
        <time>2018-07-17T05:48:51Z</time>
      </trkpt>
      <trkpt lat="44.26282" lon="5.63304">
        <ele>1196</ele>
        <time>2018-07-17T05:48:53Z</time>
      </trkpt>
      <trkpt lat="44.26283" lon="5.63306">
        <ele>1196</ele>
        <time>2018-07-17T05:48:55Z</time>
      </trkpt>
      <trkpt lat="44.26283" lon="5.63308">
        <ele>1196</ele>
        <time>2018-07-17T05:48:57Z</time>
      </trkpt>
      <trkpt lat="44.26282" lon="5.6331">
        <ele>1196</ele>
        <time>2018-07-17T05:48:59Z</time>
      </trkpt>
      <trkpt lat="44.26281" lon="5.63312">
        <ele>1196</ele>
        <time>2018-07-17T05:49:01Z</time>
      </trkpt>
      <trkpt lat="44.26281" lon="5.63314">
        <ele>1196</ele>
        <time>2018-07-17T05:49:03Z</time>
      </trkpt>
      <trkpt lat="44.26282" lon="5.63315">
        <ele>1196</ele>
        <time>2018-07-17T05:49:05Z</time>
      </trkpt>
      <trkpt lat="44.26282" lon="5.63317">
        <ele>1196</ele>
        <time>2018-07-17T05:49:07Z</time>
      </trkpt>
      <trkpt lat="44.26281" lon="5.63319">
        <ele>1196</ele>
        <time>2018-07-17T05:49:09Z</time>
      </trkpt>
      <trkpt lat="44.26279" lon="5.6332">
        <ele>1196</ele>
        <time>2018-07-17T05:49:12Z</time>
      </trkpt>
      <trkpt lat="44.26279" lon="5.63322">
        <ele>1196</ele>
        <time>2018-07-17T05:49:15Z</time>
      </trkpt>
      <trkpt lat="44.26279" lon="5.63324">
        <ele>1196</ele>
        <time>2018-07-17T05:49:17Z</time>
      </trkpt>
      <trkpt lat="44.2628" lon="5.63326">
        <ele>1196</ele>
        <time>2018-07-17T05:49:20Z</time>
      </trkpt>
      <trkpt lat="44.26279" lon="5.63328">
        <ele>1196</ele>
        <time>2018-07-17T05:49:22Z</time>
      </trkpt>
      <trkpt lat="44.2628" lon="5.6333">
        <ele>1196</ele>
        <time>2018-07-17T05:49:24Z</time>
      </trkpt>
      <trkpt lat="44.26281" lon="5.63332">
        <ele>1196</ele>
        <time>2018-07-17T05:49:26Z</time>
      </trkpt>
      <trkpt lat="44.26282" lon="5.63333">
        <ele>1196</ele>
        <time>2018-07-17T05:49:28Z</time>
      </trkpt>
      <trkpt lat="44.26282" lon="5.63335">
        <ele>1196</ele>
        <time>2018-07-17T05:49:30Z</time>
      </trkpt>
      <trkpt lat="44.26282" lon="5.63337">
        <ele>1196</ele>
        <time>2018-07-17T05:49:32Z</time>
      </trkpt>
      <trkpt lat="44.26283" lon="5.63337">
        <ele>1196</ele>
        <time>2018-07-17T05:49:33Z</time>
      </trkpt>
      <trkpt lat="44.26284" lon="5.63339">
        <ele>1196</ele>
        <time>2018-07-17T05:49:35Z</time>
      </trkpt>
      <trkpt lat="44.26284" lon="5.6334">
        <ele>1196</ele>
        <time>2018-07-17T05:49:37Z</time>
      </trkpt>
      <trkpt lat="44.26285" lon="5.63342">
        <ele>1196</ele>
        <time>2018-07-17T05:49:40Z</time>
      </trkpt>
      <trkpt lat="44.26287" lon="5.63341">
        <ele>1196</ele>
        <time>2018-07-17T05:49:47Z</time>
      </trkpt>
      <trkpt lat="44.26289" lon="5.63343">
        <ele>1196</ele>
        <time>2018-07-17T05:49:50Z</time>
      </trkpt>
      <trkpt lat="44.2629" lon="5.63344">
        <ele>1196</ele>
        <time>2018-07-17T05:49:52Z</time>
      </trkpt>
      <trkpt lat="44.26291" lon="5.63345">
        <ele>1196</ele>
        <time>2018-07-17T05:49:54Z</time>
      </trkpt>
      <trkpt lat="44.26292" lon="5.63347">
        <ele>1196</ele>
        <time>2018-07-17T05:49:56Z</time>
      </trkpt>
      <trkpt lat="44.26292" lon="5.63349">
        <ele>1196</ele>
        <time>2018-07-17T05:49:58Z</time>
      </trkpt>
      <trkpt lat="44.26292" lon="5.63351">
        <ele>1197</ele>
        <time>2018-07-17T05:50:00Z</time>
      </trkpt>
      <trkpt lat="44.26292" lon="5.63353">
        <ele>1197</ele>
        <time>2018-07-17T05:50:02Z</time>
      </trkpt>
      <trkpt lat="44.26292" lon="5.63356">
        <ele>1198</ele>
        <time>2018-07-17T05:50:04Z</time>
      </trkpt>
      <trkpt lat="44.26292" lon="5.63357">
        <ele>1198</ele>
        <time>2018-07-17T05:50:06Z</time>
      </trkpt>
      <trkpt lat="44.26293" lon="5.63359">
        <ele>1199</ele>
        <time>2018-07-17T05:50:09Z</time>
      </trkpt>
      <trkpt lat="44.26293" lon="5.63361">
        <ele>1199</ele>
        <time>2018-07-17T05:50:11Z</time>
      </trkpt>
      <trkpt lat="44.26294" lon="5.63363">
        <ele>1199</ele>
        <time>2018-07-17T05:50:13Z</time>
      </trkpt>
      <trkpt lat="44.26293" lon="5.63366">
        <ele>1199</ele>
        <time>2018-07-17T05:50:15Z</time>
      </trkpt>
      <trkpt lat="44.26293" lon="5.63368">
        <ele>1200</ele>
        <time>2018-07-17T05:50:17Z</time>
      </trkpt>
      <trkpt lat="44.26293" lon="5.6337">
        <ele>1200</ele>
        <time>2018-07-17T05:50:19Z</time>
      </trkpt>
      <trkpt lat="44.26292" lon="5.63372">
        <ele>1200</ele>
        <time>2018-07-17T05:50:21Z</time>
      </trkpt>
      <trkpt lat="44.26293" lon="5.63374">
        <ele>1200</ele>
        <time>2018-07-17T05:50:24Z</time>
      </trkpt>
      <trkpt lat="44.26294" lon="5.63376">
        <ele>1200</ele>
        <time>2018-07-17T05:50:26Z</time>
      </trkpt>
      <trkpt lat="44.26294" lon="5.63378">
        <ele>1200</ele>
        <time>2018-07-17T05:50:28Z</time>
      </trkpt>
      <trkpt lat="44.26294" lon="5.6338">
        <ele>1200</ele>
        <time>2018-07-17T05:50:30Z</time>
      </trkpt>
      <trkpt lat="44.26295" lon="5.63382">
        <ele>1200</ele>
        <time>2018-07-17T05:50:32Z</time>
      </trkpt>
      <trkpt lat="44.26296" lon="5.63384">
        <ele>1200</ele>
        <time>2018-07-17T05:50:34Z</time>
      </trkpt>
      <trkpt lat="44.26296" lon="5.63386">
        <ele>1201</ele>
        <time>2018-07-17T05:50:36Z</time>
      </trkpt>
      <trkpt lat="44.26297" lon="5.63388">
        <ele>1201</ele>
        <time>2018-07-17T05:50:38Z</time>
      </trkpt>
      <trkpt lat="44.26298" lon="5.63389">
        <ele>1202</ele>
        <time>2018-07-17T05:50:41Z</time>
      </trkpt>
      <trkpt lat="44.26299" lon="5.63391">
        <ele>1203</ele>
        <time>2018-07-17T05:50:48Z</time>
      </trkpt>
      <trkpt lat="44.263" lon="5.63393">
        <ele>1203</ele>
        <time>2018-07-17T05:50:50Z</time>
      </trkpt>
      <trkpt lat="44.263" lon="5.63395">
        <ele>1203</ele>
        <time>2018-07-17T05:50:52Z</time>
      </trkpt>
      <trkpt lat="44.26299" lon="5.63397">
        <ele>1203</ele>
        <time>2018-07-17T05:50:54Z</time>
      </trkpt>
      <trkpt lat="44.26299" lon="5.63399">
        <ele>1203</ele>
        <time>2018-07-17T05:50:56Z</time>
      </trkpt>
      <trkpt lat="44.263" lon="5.634">
        <ele>1203</ele>
        <time>2018-07-17T05:50:58Z</time>
      </trkpt>
      <trkpt lat="44.263" lon="5.63402">
        <ele>1203</ele>
        <time>2018-07-17T05:51:00Z</time>
      </trkpt>
      <trkpt lat="44.263" lon="5.63404">
        <ele>1203</ele>
        <time>2018-07-17T05:51:02Z</time>
      </trkpt>
      <trkpt lat="44.26301" lon="5.63406">
        <ele>1203</ele>
        <time>2018-07-17T05:51:04Z</time>
      </trkpt>
      <trkpt lat="44.26301" lon="5.63407">
        <ele>1203</ele>
        <time>2018-07-17T05:51:06Z</time>
      </trkpt>
      <trkpt lat="44.26302" lon="5.63409">
        <ele>1203</ele>
        <time>2018-07-17T05:51:08Z</time>
      </trkpt>
      <trkpt lat="44.26303" lon="5.63411">
        <ele>1204</ele>
        <time>2018-07-17T05:51:10Z</time>
      </trkpt>
      <trkpt lat="44.26303" lon="5.63413">
        <ele>1204</ele>
        <time>2018-07-17T05:51:12Z</time>
      </trkpt>
      <trkpt lat="44.26304" lon="5.63414">
        <ele>1204</ele>
        <time>2018-07-17T05:51:14Z</time>
      </trkpt>
      <trkpt lat="44.26305" lon="5.63416">
        <ele>1205</ele>
        <time>2018-07-17T05:51:16Z</time>
      </trkpt>
      <trkpt lat="44.26305" lon="5.63418">
        <ele>1205</ele>
        <time>2018-07-17T05:51:19Z</time>
      </trkpt>
      <trkpt lat="44.26305" lon="5.6342">
        <ele>1205</ele>
        <time>2018-07-17T05:51:21Z</time>
      </trkpt>
      <trkpt lat="44.26306" lon="5.63421">
        <ele>1205</ele>
        <time>2018-07-17T05:51:23Z</time>
      </trkpt>
      <trkpt lat="44.26306" lon="5.63423">
        <ele>1205</ele>
        <time>2018-07-17T05:51:25Z</time>
      </trkpt>
      <trkpt lat="44.26306" lon="5.63425">
        <ele>1205</ele>
        <time>2018-07-17T05:51:27Z</time>
      </trkpt>
      <trkpt lat="44.26307" lon="5.63427">
        <ele>1206</ele>
        <time>2018-07-17T05:51:29Z</time>
      </trkpt>
      <trkpt lat="44.26307" lon="5.63429">
        <ele>1206</ele>
        <time>2018-07-17T05:51:31Z</time>
      </trkpt>
      <trkpt lat="44.26308" lon="5.6343">
        <ele>1206</ele>
        <time>2018-07-17T05:51:33Z</time>
      </trkpt>
      <trkpt lat="44.26308" lon="5.63432">
        <ele>1207</ele>
        <time>2018-07-17T05:51:35Z</time>
      </trkpt>
      <trkpt lat="44.26309" lon="5.63433">
        <ele>1207</ele>
        <time>2018-07-17T05:51:37Z</time>
      </trkpt>
      <trkpt lat="44.2631" lon="5.63435">
        <ele>1207</ele>
        <time>2018-07-17T05:51:39Z</time>
      </trkpt>
      <trkpt lat="44.2631" lon="5.63437">
        <ele>1207</ele>
        <time>2018-07-17T05:51:41Z</time>
      </trkpt>
      <trkpt lat="44.2631" lon="5.63438">
        <ele>1207</ele>
        <time>2018-07-17T05:51:43Z</time>
      </trkpt>
      <trkpt lat="44.26311" lon="5.6344">
        <ele>1208</ele>
        <time>2018-07-17T05:51:51Z</time>
      </trkpt>
      <trkpt lat="44.26313" lon="5.63442">
        <ele>1208</ele>
        <time>2018-07-17T05:51:54Z</time>
      </trkpt>
      <trkpt lat="44.26313" lon="5.63443">
        <ele>1208</ele>
        <time>2018-07-17T05:51:56Z</time>
      </trkpt>
      <trkpt lat="44.26313" lon="5.63445">
        <ele>1208</ele>
        <time>2018-07-17T05:51:59Z</time>
      </trkpt>
      <trkpt lat="44.26314" lon="5.63447">
        <ele>1208</ele>
        <time>2018-07-17T05:52:01Z</time>
      </trkpt>
      <trkpt lat="44.26315" lon="5.63449">
        <ele>1208</ele>
        <time>2018-07-17T05:52:03Z</time>
      </trkpt>
      <trkpt lat="44.26315" lon="5.6345">
        <ele>1209</ele>
        <time>2018-07-17T05:52:05Z</time>
      </trkpt>
      <trkpt lat="44.26316" lon="5.63452">
        <ele>1209</ele>
        <time>2018-07-17T05:52:07Z</time>
      </trkpt>
      <trkpt lat="44.26317" lon="5.63454">
        <ele>1209</ele>
        <time>2018-07-17T05:52:10Z</time>
      </trkpt>
      <trkpt lat="44.26319" lon="5.63456">
        <ele>1210</ele>
        <time>2018-07-17T05:52:12Z</time>
      </trkpt>
      <trkpt lat="44.2632" lon="5.63457">
        <ele>1210</ele>
        <time>2018-07-17T05:52:14Z</time>
      </trkpt>
      <trkpt lat="44.26321" lon="5.63459">
        <ele>1210</ele>
        <time>2018-07-17T05:52:16Z</time>
      </trkpt>
      <trkpt lat="44.26321" lon="5.63461">
        <ele>1210</ele>
        <time>2018-07-17T05:52:18Z</time>
      </trkpt>
      <trkpt lat="44.26321" lon="5.63463">
        <ele>1210</ele>
        <time>2018-07-17T05:52:20Z</time>
      </trkpt>
      <trkpt lat="44.26322" lon="5.63465">
        <ele>1211</ele>
        <time>2018-07-17T05:52:22Z</time>
      </trkpt>
      <trkpt lat="44.26323" lon="5.63467">
        <ele>1211</ele>
        <time>2018-07-17T05:52:25Z</time>
      </trkpt>
      <trkpt lat="44.26324" lon="5.63468">
        <ele>1211</ele>
        <time>2018-07-17T05:52:27Z</time>
      </trkpt>
      <trkpt lat="44.26326" lon="5.63469">
        <ele>1211</ele>
        <time>2018-07-17T05:52:29Z</time>
      </trkpt>
      <trkpt lat="44.26327" lon="5.63471">
        <ele>1212</ele>
        <time>2018-07-17T05:52:32Z</time>
      </trkpt>
      <trkpt lat="44.26328" lon="5.63472">
        <ele>1213</ele>
        <time>2018-07-17T05:52:34Z</time>
      </trkpt>
      <trkpt lat="44.26327" lon="5.63474">
        <ele>1213</ele>
        <time>2018-07-17T05:52:35Z</time>
      </trkpt>
      <trkpt lat="44.26328" lon="5.63476">
        <ele>1213</ele>
        <time>2018-07-17T05:52:37Z</time>
      </trkpt>
      <trkpt lat="44.26328" lon="5.63478">
        <ele>1213</ele>
        <time>2018-07-17T05:52:39Z</time>
      </trkpt>
      <trkpt lat="44.26329" lon="5.63479">
        <ele>1213</ele>
        <time>2018-07-17T05:52:41Z</time>
      </trkpt>
      <trkpt lat="44.2633" lon="5.63481">
        <ele>1213</ele>
        <time>2018-07-17T05:52:43Z</time>
      </trkpt>
      <trkpt lat="44.26331" lon="5.63483">
        <ele>1213</ele>
        <time>2018-07-17T05:52:45Z</time>
      </trkpt>
      <trkpt lat="44.26332" lon="5.63485">
        <ele>1214</ele>
        <time>2018-07-17T05:52:48Z</time>
      </trkpt>
      <trkpt lat="44.26333" lon="5.63486">
        <ele>1214</ele>
        <time>2018-07-17T05:52:50Z</time>
      </trkpt>
      <trkpt lat="44.26334" lon="5.63488">
        <ele>1214</ele>
        <time>2018-07-17T05:52:52Z</time>
      </trkpt>
      <trkpt lat="44.26335" lon="5.6349">
        <ele>1214</ele>
        <time>2018-07-17T05:52:54Z</time>
      </trkpt>
      <trkpt lat="44.26336" lon="5.63491">
        <ele>1214</ele>
        <time>2018-07-17T05:52:56Z</time>
      </trkpt>
      <trkpt lat="44.26337" lon="5.63493">
        <ele>1215</ele>
        <time>2018-07-17T05:52:58Z</time>
      </trkpt>
      <trkpt lat="44.26338" lon="5.63495">
        <ele>1215</ele>
        <time>2018-07-17T05:53:00Z</time>
      </trkpt>
      <trkpt lat="44.26339" lon="5.63496">
        <ele>1215</ele>
        <time>2018-07-17T05:53:02Z</time>
      </trkpt>
      <trkpt lat="44.2634" lon="5.63498">
        <ele>1215</ele>
        <time>2018-07-17T05:53:04Z</time>
      </trkpt>
      <trkpt lat="44.2634" lon="5.63499">
        <ele>1216</ele>
        <time>2018-07-17T05:53:06Z</time>
      </trkpt>
      <trkpt lat="44.26342" lon="5.63501">
        <ele>1216</ele>
        <time>2018-07-17T05:53:08Z</time>
      </trkpt>
      <trkpt lat="44.26342" lon="5.63503">
        <ele>1216</ele>
        <time>2018-07-17T05:53:10Z</time>
      </trkpt>
      <trkpt lat="44.26344" lon="5.63505">
        <ele>1216</ele>
        <time>2018-07-17T05:53:13Z</time>
      </trkpt>
      <trkpt lat="44.26345" lon="5.63506">
        <ele>1216</ele>
        <time>2018-07-17T05:53:15Z</time>
      </trkpt>
      <trkpt lat="44.26345" lon="5.63508">
        <ele>1216</ele>
        <time>2018-07-17T05:53:17Z</time>
      </trkpt>
      <trkpt lat="44.26346" lon="5.63509">
        <ele>1217</ele>
        <time>2018-07-17T05:53:19Z</time>
      </trkpt>
      <trkpt lat="44.26347" lon="5.63511">
        <ele>1217</ele>
        <time>2018-07-17T05:53:22Z</time>
      </trkpt>
      <trkpt lat="44.26348" lon="5.63513">
        <ele>1217</ele>
        <time>2018-07-17T05:53:24Z</time>
      </trkpt>
      <trkpt lat="44.26349" lon="5.63515">
        <ele>1218</ele>
        <time>2018-07-17T05:53:26Z</time>
      </trkpt>
      <trkpt lat="44.2635" lon="5.63516">
        <ele>1218</ele>
        <time>2018-07-17T05:53:28Z</time>
      </trkpt>
      <trkpt lat="44.2635" lon="5.63518">
        <ele>1218</ele>
        <time>2018-07-17T05:53:30Z</time>
      </trkpt>
      <trkpt lat="44.26351" lon="5.6352">
        <ele>1218</ele>
        <time>2018-07-17T05:53:32Z</time>
      </trkpt>
      <trkpt lat="44.26353" lon="5.63521">
        <ele>1218</ele>
        <time>2018-07-17T05:53:34Z</time>
      </trkpt>
      <trkpt lat="44.26354" lon="5.63523">
        <ele>1218</ele>
        <time>2018-07-17T05:53:36Z</time>
      </trkpt>
      <trkpt lat="44.26355" lon="5.63524">
        <ele>1219</ele>
        <time>2018-07-17T05:53:38Z</time>
      </trkpt>
      <trkpt lat="44.26356" lon="5.63525">
        <ele>1219</ele>
        <time>2018-07-17T05:53:40Z</time>
      </trkpt>
      <trkpt lat="44.26357" lon="5.63526">
        <ele>1220</ele>
        <time>2018-07-17T05:53:42Z</time>
      </trkpt>
      <trkpt lat="44.26358" lon="5.63528">
        <ele>1220</ele>
        <time>2018-07-17T05:53:45Z</time>
      </trkpt>
      <trkpt lat="44.26359" lon="5.6353">
        <ele>1220</ele>
        <time>2018-07-17T05:53:47Z</time>
      </trkpt>
      <trkpt lat="44.2636" lon="5.63532">
        <ele>1220</ele>
        <time>2018-07-17T05:53:49Z</time>
      </trkpt>
      <trkpt lat="44.26361" lon="5.63534">
        <ele>1220</ele>
        <time>2018-07-17T05:53:52Z</time>
      </trkpt>
      <trkpt lat="44.26363" lon="5.63535">
        <ele>1220</ele>
        <time>2018-07-17T05:53:54Z</time>
      </trkpt>
      <trkpt lat="44.26364" lon="5.63537">
        <ele>1220</ele>
        <time>2018-07-17T05:53:56Z</time>
      </trkpt>
      <trkpt lat="44.26365" lon="5.63538">
        <ele>1220</ele>
        <time>2018-07-17T05:53:58Z</time>
      </trkpt>
      <trkpt lat="44.26366" lon="5.6354">
        <ele>1220</ele>
        <time>2018-07-17T05:54:00Z</time>
      </trkpt>
      <trkpt lat="44.26367" lon="5.63541">
        <ele>1220</ele>
        <time>2018-07-17T05:54:02Z</time>
      </trkpt>
      <trkpt lat="44.26368" lon="5.63543">
        <ele>1220</ele>
        <time>2018-07-17T05:54:04Z</time>
      </trkpt>
      <trkpt lat="44.26369" lon="5.63544">
        <ele>1221</ele>
        <time>2018-07-17T05:54:06Z</time>
      </trkpt>
      <trkpt lat="44.2637" lon="5.63546">
        <ele>1221</ele>
        <time>2018-07-17T05:54:08Z</time>
      </trkpt>
      <trkpt lat="44.26371" lon="5.63547">
        <ele>1221</ele>
        <time>2018-07-17T05:54:10Z</time>
      </trkpt>
      <trkpt lat="44.26372" lon="5.63549">
        <ele>1221</ele>
        <time>2018-07-17T05:54:12Z</time>
      </trkpt>
      <trkpt lat="44.26372" lon="5.63551">
        <ele>1221</ele>
        <time>2018-07-17T05:54:14Z</time>
      </trkpt>
      <trkpt lat="44.26373" lon="5.63552">
        <ele>1221</ele>
        <time>2018-07-17T05:54:16Z</time>
      </trkpt>
      <trkpt lat="44.26374" lon="5.63553">
        <ele>1221</ele>
        <time>2018-07-17T05:54:18Z</time>
      </trkpt>
      <trkpt lat="44.26376" lon="5.63555">
        <ele>1221</ele>
        <time>2018-07-17T05:54:20Z</time>
      </trkpt>
      <trkpt lat="44.26377" lon="5.63556">
        <ele>1221</ele>
        <time>2018-07-17T05:54:22Z</time>
      </trkpt>
      <trkpt lat="44.26378" lon="5.63557">
        <ele>1221</ele>
        <time>2018-07-17T05:54:24Z</time>
      </trkpt>
      <trkpt lat="44.26379" lon="5.63559">
        <ele>1221</ele>
        <time>2018-07-17T05:54:26Z</time>
      </trkpt>
      <trkpt lat="44.2638" lon="5.63561">
        <ele>1221</ele>
        <time>2018-07-17T05:54:28Z</time>
      </trkpt>
      <trkpt lat="44.26381" lon="5.63562">
        <ele>1222</ele>
        <time>2018-07-17T05:54:30Z</time>
      </trkpt>
      <trkpt lat="44.26382" lon="5.63563">
        <ele>1222</ele>
        <time>2018-07-17T05:54:32Z</time>
      </trkpt>
      <trkpt lat="44.26384" lon="5.63564">
        <ele>1222</ele>
        <time>2018-07-17T05:54:35Z</time>
      </trkpt>
      <trkpt lat="44.26385" lon="5.63566">
        <ele>1222</ele>
        <time>2018-07-17T05:54:38Z</time>
      </trkpt>
      <trkpt lat="44.26387" lon="5.63568">
        <ele>1223</ele>
        <time>2018-07-17T05:54:41Z</time>
      </trkpt>
      <trkpt lat="44.26388" lon="5.63569">
        <ele>1223</ele>
        <time>2018-07-17T05:54:45Z</time>
      </trkpt>
      <trkpt lat="44.26389" lon="5.6357">
        <ele>1224</ele>
        <time>2018-07-17T05:54:50Z</time>
      </trkpt>
      <trkpt lat="44.2639" lon="5.63571">
        <ele>1225</ele>
        <time>2018-07-17T05:54:52Z</time>
      </trkpt>
      <trkpt lat="44.26392" lon="5.63569">
        <ele>1225</ele>
        <time>2018-07-17T05:54:56Z</time>
      </trkpt>
      <trkpt lat="44.26391" lon="5.63567">
        <ele>1227</ele>
        <time>2018-07-17T05:55:00Z</time>
      </trkpt>
      <trkpt lat="44.26392" lon="5.63566">
        <ele>1228</ele>
        <time>2018-07-17T05:55:01Z</time>
      </trkpt>
      <trkpt lat="44.26393" lon="5.63564">
        <ele>1229</ele>
        <time>2018-07-17T05:55:03Z</time>
      </trkpt>
      <trkpt lat="44.26393" lon="5.63565">
        <ele>1232</ele>
        <time>2018-07-17T05:55:13Z</time>
      </trkpt>
      <trkpt lat="44.26393" lon="5.63567">
        <ele>1232</ele>
        <time>2018-07-17T05:55:17Z</time>
      </trkpt>
      <trkpt lat="44.26392" lon="5.63568">
        <ele>1232</ele>
        <time>2018-07-17T05:55:24Z</time>
      </trkpt>
      <trkpt lat="44.26392" lon="5.63566">
        <ele>1232</ele>
        <time>2018-07-17T05:55:35Z</time>
      </trkpt>
      <trkpt lat="44.2639" lon="5.63567">
        <ele>1235</ele>
        <time>2018-07-17T05:55:45Z</time>
      </trkpt>
      <trkpt lat="44.26389" lon="5.63568">
        <ele>1235</ele>
        <time>2018-07-17T05:55:48Z</time>
      </trkpt>
      <trkpt lat="44.2639" lon="5.6357">
        <ele>1235</ele>
        <time>2018-07-17T05:56:21Z</time>
      </trkpt>
      <trkpt lat="44.26391" lon="5.6357">
        <ele>1235</ele>
        <time>2018-07-17T05:57:06Z</time>
      </trkpt>
      <trkpt lat="44.26391" lon="5.63567">
        <ele>1235</ele>
        <time>2018-07-17T05:57:12Z</time>
      </trkpt>
      <trkpt lat="44.26391" lon="5.63565">
        <ele>1235</ele>
        <time>2018-07-17T05:57:14Z</time>
      </trkpt>
      <trkpt lat="44.26392" lon="5.63565">
        <ele>1237</ele>
        <time>2018-07-17T05:57:27Z</time>
      </trkpt>
      <trkpt lat="44.26393" lon="5.63565">
        <ele>1237</ele>
        <time>2018-07-17T05:57:29Z</time>
      </trkpt>
      <trkpt lat="44.26394" lon="5.63563">
        <ele>1237</ele>
        <time>2018-07-17T05:57:32Z</time>
      </trkpt>
      <trkpt lat="44.26394" lon="5.63564">
        <ele>1238</ele>
        <time>2018-07-17T05:57:39Z</time>
      </trkpt>
      <trkpt lat="44.26395" lon="5.63563">
        <ele>1238</ele>
        <time>2018-07-17T05:57:40Z</time>
      </trkpt>
      <trkpt lat="44.26394" lon="5.63565">
        <ele>1238</ele>
        <time>2018-07-17T05:57:52Z</time>
      </trkpt>
      <trkpt lat="44.26393" lon="5.63567">
        <ele>1238</ele>
        <time>2018-07-17T05:57:58Z</time>
      </trkpt>
      <trkpt lat="44.26392" lon="5.63565">
        <ele>1237</ele>
        <time>2018-07-17T05:58:08Z</time>
      </trkpt>
      <trkpt lat="44.26391" lon="5.63566">
        <ele>1237</ele>
        <time>2018-07-17T05:58:16Z</time>
      </trkpt>
      <trkpt lat="44.26389" lon="5.63568">
        <ele>1237</ele>
        <time>2018-07-17T05:58:34Z</time>
      </trkpt>
      <trkpt lat="44.26388" lon="5.63569">
        <ele>1237</ele>
        <time>2018-07-17T05:58:41Z</time>
      </trkpt>
      <trkpt lat="44.26387" lon="5.6357">
        <ele>1236</ele>
        <time>2018-07-17T05:58:47Z</time>
      </trkpt>
      <trkpt lat="44.26389" lon="5.6357">
        <ele>1235</ele>
        <time>2018-07-17T05:58:51Z</time>
      </trkpt>
      <trkpt lat="44.26388" lon="5.63572">
        <ele>1235</ele>
        <time>2018-07-17T05:58:55Z</time>
      </trkpt>
      <trkpt lat="44.26389" lon="5.63574">
        <ele>1234</ele>
        <time>2018-07-17T05:59:01Z</time>
      </trkpt>
      <trkpt lat="44.26389" lon="5.63572">
        <ele>1233</ele>
        <time>2018-07-17T05:59:08Z</time>
      </trkpt>
      <trkpt lat="44.26391" lon="5.63571">
        <ele>1233</ele>
        <time>2018-07-17T05:59:15Z</time>
      </trkpt>
      <trkpt lat="44.2639" lon="5.63572">
        <ele>1233</ele>
        <time>2018-07-17T05:59:20Z</time>
      </trkpt>
      <trkpt lat="44.2639" lon="5.63569">
        <ele>1233</ele>
        <time>2018-07-17T05:59:21Z</time>
      </trkpt>
      <trkpt lat="44.26391" lon="5.63567">
        <ele>1233</ele>
        <time>2018-07-17T05:59:24Z</time>
      </trkpt>
      <trkpt lat="44.26392" lon="5.63566">
        <ele>1234</ele>
        <time>2018-07-17T05:59:35Z</time>
      </trkpt>
      <trkpt lat="44.26394" lon="5.63565">
        <ele>1235</ele>
        <time>2018-07-17T05:59:40Z</time>
      </trkpt>
      <trkpt lat="44.26395" lon="5.63565">
        <ele>1236</ele>
        <time>2018-07-17T05:59:46Z</time>
      </trkpt>
      <trkpt lat="44.26394" lon="5.63566">
        <ele>1236</ele>
        <time>2018-07-17T06:00:05Z</time>
      </trkpt>
      <trkpt lat="44.26393" lon="5.63568">
        <ele>1236</ele>
        <time>2018-07-17T06:00:10Z</time>
      </trkpt>
      <trkpt lat="44.26392" lon="5.6357">
        <ele>1236</ele>
        <time>2018-07-17T06:00:11Z</time>
      </trkpt>
      <trkpt lat="44.26392" lon="5.63568">
        <ele>1236</ele>
        <time>2018-07-17T06:00:13Z</time>
      </trkpt>
      <trkpt lat="44.26392" lon="5.63571">
        <ele>1236</ele>
        <time>2018-07-17T06:00:18Z</time>
      </trkpt>
      <trkpt lat="44.2639" lon="5.63573">
        <ele>1236</ele>
        <time>2018-07-17T06:00:19Z</time>
      </trkpt>
      <trkpt lat="44.26392" lon="5.63571">
        <ele>1234</ele>
        <time>2018-07-17T06:00:25Z</time>
      </trkpt>
      <trkpt lat="44.2639" lon="5.63572">
        <ele>1234</ele>
        <time>2018-07-17T06:00:27Z</time>
      </trkpt>
      <trkpt lat="44.2639" lon="5.6357">
        <ele>1234</ele>
        <time>2018-07-17T06:00:32Z</time>
      </trkpt>
      <trkpt lat="44.26389" lon="5.63571">
        <ele>1234</ele>
        <time>2018-07-17T06:00:34Z</time>
      </trkpt>
      <trkpt lat="44.26389" lon="5.63569">
        <ele>1235</ele>
        <time>2018-07-17T06:00:40Z</time>
      </trkpt>
      <trkpt lat="44.2639" lon="5.63568">
        <ele>1238</ele>
        <time>2018-07-17T06:00:47Z</time>
      </trkpt>
      <trkpt lat="44.26391" lon="5.63569">
        <ele>1238</ele>
        <time>2018-07-17T06:00:50Z</time>
      </trkpt>
      <trkpt lat="44.2639" lon="5.6357">
        <ele>1238</ele>
        <time>2018-07-17T06:00:56Z</time>
      </trkpt>
      <trkpt lat="44.26389" lon="5.63572">
        <ele>1238</ele>
        <time>2018-07-17T06:00:58Z</time>
      </trkpt>
      <trkpt lat="44.2639" lon="5.63572">
        <ele>1238</ele>
        <time>2018-07-17T06:01:03Z</time>
      </trkpt>
      <trkpt lat="44.26391" lon="5.63571">
        <ele>1238</ele>
        <time>2018-07-17T06:01:13Z</time>
      </trkpt>
      <trkpt lat="44.26392" lon="5.63572">
        <ele>1238</ele>
        <time>2018-07-17T06:01:20Z</time>
      </trkpt>
      <trkpt lat="44.26393" lon="5.63574">
        <ele>1238</ele>
        <time>2018-07-17T06:01:22Z</time>
      </trkpt>
      <trkpt lat="44.26395" lon="5.63573">
        <ele>1237</ele>
        <time>2018-07-17T06:01:24Z</time>
      </trkpt>
      <trkpt lat="44.26396" lon="5.63573">
        <ele>1237</ele>
        <time>2018-07-17T06:01:25Z</time>
      </trkpt>
      <trkpt lat="44.26395" lon="5.63571">
        <ele>1237</ele>
        <time>2018-07-17T06:01:30Z</time>
      </trkpt>
      <trkpt lat="44.26393" lon="5.6357">
        <ele>1237</ele>
        <time>2018-07-17T06:01:31Z</time>
      </trkpt>
      <trkpt lat="44.26392" lon="5.6357">
        <ele>1237</ele>
        <time>2018-07-17T06:01:35Z</time>
      </trkpt>
      <trkpt lat="44.2639" lon="5.63569">
        <ele>1237</ele>
        <time>2018-07-17T06:01:42Z</time>
      </trkpt>
      <trkpt lat="44.26392" lon="5.63569">
        <ele>1237</ele>
        <time>2018-07-17T06:01:49Z</time>
      </trkpt>
      <trkpt lat="44.26393" lon="5.63571">
        <ele>1237</ele>
        <time>2018-07-17T06:02:02Z</time>
      </trkpt>
      <trkpt lat="44.26395" lon="5.63572">
        <ele>1237</ele>
        <time>2018-07-17T06:02:03Z</time>
      </trkpt>
      <trkpt lat="44.26396" lon="5.63573">
        <ele>1237</ele>
        <time>2018-07-17T06:02:07Z</time>
      </trkpt>
      <trkpt lat="44.26397" lon="5.63574">
        <ele>1237</ele>
        <time>2018-07-17T06:02:09Z</time>
      </trkpt>
      <trkpt lat="44.26398" lon="5.63576">
        <ele>1237</ele>
        <time>2018-07-17T06:02:11Z</time>
      </trkpt>
      <trkpt lat="44.26398" lon="5.63578">
        <ele>1237</ele>
        <time>2018-07-17T06:02:13Z</time>
      </trkpt>
      <trkpt lat="44.26398" lon="5.63579">
        <ele>1237</ele>
        <time>2018-07-17T06:02:13Z</time>
      </trkpt>
      <trkpt lat="44.26399" lon="5.63581">
        <ele>1237</ele>
        <time>2018-07-17T06:02:15Z</time>
      </trkpt>
      <trkpt lat="44.264" lon="5.63583">
        <ele>1237</ele>
        <time>2018-07-17T06:02:18Z</time>
      </trkpt>
      <trkpt lat="44.264" lon="5.63585">
        <ele>1237</ele>
        <time>2018-07-17T06:02:20Z</time>
      </trkpt>
      <trkpt lat="44.26402" lon="5.63586">
        <ele>1237</ele>
        <time>2018-07-17T06:02:23Z</time>
      </trkpt>
      <trkpt lat="44.26403" lon="5.63587">
        <ele>1237</ele>
        <time>2018-07-17T06:02:24Z</time>
      </trkpt>
      <trkpt lat="44.26405" lon="5.63588">
        <ele>1237</ele>
        <time>2018-07-17T06:02:26Z</time>
      </trkpt>
      <trkpt lat="44.26406" lon="5.63588">
        <ele>1237</ele>
        <time>2018-07-17T06:02:28Z</time>
      </trkpt>
      <trkpt lat="44.26408" lon="5.6359">
        <ele>1237</ele>
        <time>2018-07-17T06:02:30Z</time>
      </trkpt>
      <trkpt lat="44.26407" lon="5.63592">
        <ele>1237</ele>
        <time>2018-07-17T06:02:31Z</time>
      </trkpt>
      <trkpt lat="44.26408" lon="5.63593">
        <ele>1237</ele>
        <time>2018-07-17T06:02:34Z</time>
      </trkpt>
      <trkpt lat="44.26408" lon="5.63595">
        <ele>1237</ele>
        <time>2018-07-17T06:02:36Z</time>
      </trkpt>
      <trkpt lat="44.2641" lon="5.63596">
        <ele>1237</ele>
        <time>2018-07-17T06:02:38Z</time>
      </trkpt>
      <trkpt lat="44.26411" lon="5.63597">
        <ele>1237</ele>
        <time>2018-07-17T06:02:40Z</time>
      </trkpt>
      <trkpt lat="44.26412" lon="5.63598">
        <ele>1237</ele>
        <time>2018-07-17T06:02:42Z</time>
      </trkpt>
      <trkpt lat="44.26413" lon="5.636">
        <ele>1237</ele>
        <time>2018-07-17T06:02:45Z</time>
      </trkpt>
      <trkpt lat="44.26415" lon="5.63601">
        <ele>1237</ele>
        <time>2018-07-17T06:02:46Z</time>
      </trkpt>
      <trkpt lat="44.26417" lon="5.63602">
        <ele>1237</ele>
        <time>2018-07-17T06:02:48Z</time>
      </trkpt>
      <trkpt lat="44.26418" lon="5.63603">
        <ele>1237</ele>
        <time>2018-07-17T06:02:50Z</time>
      </trkpt>
      <trkpt lat="44.2642" lon="5.63604">
        <ele>1237</ele>
        <time>2018-07-17T06:02:51Z</time>
      </trkpt>
      <trkpt lat="44.26421" lon="5.63605">
        <ele>1237</ele>
        <time>2018-07-17T06:02:53Z</time>
      </trkpt>
      <trkpt lat="44.26422" lon="5.63606">
        <ele>1237</ele>
        <time>2018-07-17T06:02:55Z</time>
      </trkpt>
      <trkpt lat="44.26424" lon="5.63608">
        <ele>1237</ele>
        <time>2018-07-17T06:02:57Z</time>
      </trkpt>
      <trkpt lat="44.26424" lon="5.63609">
        <ele>1237</ele>
        <time>2018-07-17T06:02:59Z</time>
      </trkpt>
      <trkpt lat="44.26425" lon="5.63611">
        <ele>1237</ele>
        <time>2018-07-17T06:03:02Z</time>
      </trkpt>
      <trkpt lat="44.26425" lon="5.63612">
        <ele>1237</ele>
        <time>2018-07-17T06:03:03Z</time>
      </trkpt>
      <trkpt lat="44.26426" lon="5.63614">
        <ele>1237</ele>
        <time>2018-07-17T06:03:05Z</time>
      </trkpt>
      <trkpt lat="44.26426" lon="5.63616">
        <ele>1237</ele>
        <time>2018-07-17T06:03:09Z</time>
      </trkpt>
      <trkpt lat="44.26427" lon="5.63618">
        <ele>1237</ele>
        <time>2018-07-17T06:03:11Z</time>
      </trkpt>
      <trkpt lat="44.26428" lon="5.63619">
        <ele>1237</ele>
        <time>2018-07-17T06:03:13Z</time>
      </trkpt>
      <trkpt lat="44.26429" lon="5.6362">
        <ele>1237</ele>
        <time>2018-07-17T06:03:16Z</time>
      </trkpt>
      <trkpt lat="44.26431" lon="5.63621">
        <ele>1237</ele>
        <time>2018-07-17T06:03:19Z</time>
      </trkpt>
      <trkpt lat="44.26432" lon="5.63622">
        <ele>1237</ele>
        <time>2018-07-17T06:03:19Z</time>
      </trkpt>
      <trkpt lat="44.26433" lon="5.63624">
        <ele>1238</ele>
        <time>2018-07-17T06:03:22Z</time>
      </trkpt>
      <trkpt lat="44.26434" lon="5.63624">
        <ele>1239</ele>
        <time>2018-07-17T06:03:25Z</time>
      </trkpt>
      <trkpt lat="44.26436" lon="5.63625">
        <ele>1239</ele>
        <time>2018-07-17T06:03:26Z</time>
      </trkpt>
      <trkpt lat="44.26437" lon="5.63624">
        <ele>1239</ele>
        <time>2018-07-17T06:03:28Z</time>
      </trkpt>
      <trkpt lat="44.26439" lon="5.63625">
        <ele>1240</ele>
        <time>2018-07-17T06:03:31Z</time>
      </trkpt>
      <trkpt lat="44.2644" lon="5.63625">
        <ele>1240</ele>
        <time>2018-07-17T06:03:32Z</time>
      </trkpt>
      <trkpt lat="44.26442" lon="5.63624">
        <ele>1240</ele>
        <time>2018-07-17T06:03:34Z</time>
      </trkpt>
      <trkpt lat="44.26444" lon="5.63624">
        <ele>1241</ele>
        <time>2018-07-17T06:03:37Z</time>
      </trkpt>
      <trkpt lat="44.26445" lon="5.63624">
        <ele>1241</ele>
        <time>2018-07-17T06:03:39Z</time>
      </trkpt>
      <trkpt lat="44.26447" lon="5.63626">
        <ele>1242</ele>
        <time>2018-07-17T06:03:43Z</time>
      </trkpt>
      <trkpt lat="44.26447" lon="5.63628">
        <ele>1242</ele>
        <time>2018-07-17T06:03:45Z</time>
      </trkpt>
      <trkpt lat="44.26447" lon="5.63629">
        <ele>1242</ele>
        <time>2018-07-17T06:03:47Z</time>
      </trkpt>
      <trkpt lat="44.26446" lon="5.63631">
        <ele>1242</ele>
        <time>2018-07-17T06:03:50Z</time>
      </trkpt>
      <trkpt lat="44.26445" lon="5.63633">
        <ele>1242</ele>
        <time>2018-07-17T06:03:53Z</time>
      </trkpt>
      <trkpt lat="44.26445" lon="5.63634">
        <ele>1242</ele>
        <time>2018-07-17T06:03:54Z</time>
      </trkpt>
      <trkpt lat="44.26444" lon="5.63636">
        <ele>1242</ele>
        <time>2018-07-17T06:03:56Z</time>
      </trkpt>
      <trkpt lat="44.26442" lon="5.63637">
        <ele>1242</ele>
        <time>2018-07-17T06:03:58Z</time>
      </trkpt>
      <trkpt lat="44.2644" lon="5.63637">
        <ele>1242</ele>
        <time>2018-07-17T06:04:00Z</time>
      </trkpt>
      <trkpt lat="44.26439" lon="5.63639">
        <ele>1243</ele>
        <time>2018-07-17T06:04:02Z</time>
      </trkpt>
      <trkpt lat="44.26439" lon="5.6364">
        <ele>1243</ele>
        <time>2018-07-17T06:04:05Z</time>
      </trkpt>
      <trkpt lat="44.26437" lon="5.63641">
        <ele>1243</ele>
        <time>2018-07-17T06:04:07Z</time>
      </trkpt>
      <trkpt lat="44.26437" lon="5.63639">
        <ele>1248</ele>
        <time>2018-07-17T06:04:12Z</time>
      </trkpt>
      <trkpt lat="44.26436" lon="5.6364">
        <ele>1251</ele>
        <time>2018-07-17T06:04:15Z</time>
      </trkpt>
      <trkpt lat="44.26434" lon="5.63641">
        <ele>1252</ele>
        <time>2018-07-17T06:04:17Z</time>
      </trkpt>
      <trkpt lat="44.26433" lon="5.63642">
        <ele>1252</ele>
        <time>2018-07-17T06:04:19Z</time>
      </trkpt>
      <trkpt lat="44.26432" lon="5.63643">
        <ele>1252</ele>
        <time>2018-07-17T06:04:21Z</time>
      </trkpt>
      <trkpt lat="44.26431" lon="5.63645">
        <ele>1252</ele>
        <time>2018-07-17T06:04:24Z</time>
      </trkpt>
      <trkpt lat="44.2643" lon="5.63644">
        <ele>1253</ele>
        <time>2018-07-17T06:04:26Z</time>
      </trkpt>
      <trkpt lat="44.26429" lon="5.63644">
        <ele>1256</ele>
        <time>2018-07-17T06:04:31Z</time>
      </trkpt>
      <trkpt lat="44.26427" lon="5.63644">
        <ele>1257</ele>
        <time>2018-07-17T06:04:32Z</time>
      </trkpt>
      <trkpt lat="44.26425" lon="5.63645">
        <ele>1257</ele>
        <time>2018-07-17T06:04:33Z</time>
      </trkpt>
      <trkpt lat="44.26424" lon="5.63646">
        <ele>1257</ele>
        <time>2018-07-17T06:04:34Z</time>
      </trkpt>
      <trkpt lat="44.26422" lon="5.63647">
        <ele>1257</ele>
        <time>2018-07-17T06:04:38Z</time>
      </trkpt>
      <trkpt lat="44.26421" lon="5.63647">
        <ele>1257</ele>
        <time>2018-07-17T06:04:39Z</time>
      </trkpt>
      <trkpt lat="44.26419" lon="5.63647">
        <ele>1257</ele>
        <time>2018-07-17T06:04:41Z</time>
      </trkpt>
      <trkpt lat="44.26418" lon="5.63647">
        <ele>1257</ele>
        <time>2018-07-17T06:04:43Z</time>
      </trkpt>
      <trkpt lat="44.26417" lon="5.63647">
        <ele>1257</ele>
        <time>2018-07-17T06:04:46Z</time>
      </trkpt>
      <trkpt lat="44.26416" lon="5.63648">
        <ele>1257</ele>
        <time>2018-07-17T06:04:49Z</time>
      </trkpt>
      <trkpt lat="44.26416" lon="5.6365">
        <ele>1257</ele>
        <time>2018-07-17T06:04:50Z</time>
      </trkpt>
      <trkpt lat="44.26416" lon="5.63652">
        <ele>1257</ele>
        <time>2018-07-17T06:04:54Z</time>
      </trkpt>
      <trkpt lat="44.26417" lon="5.63652">
        <ele>1257</ele>
        <time>2018-07-17T06:04:54Z</time>
      </trkpt>
      <trkpt lat="44.26418" lon="5.63653">
        <ele>1257</ele>
        <time>2018-07-17T06:04:56Z</time>
      </trkpt>
      <trkpt lat="44.2642" lon="5.63654">
        <ele>1257</ele>
        <time>2018-07-17T06:04:58Z</time>
      </trkpt>
      <trkpt lat="44.26421" lon="5.63655">
        <ele>1257</ele>
        <time>2018-07-17T06:05:00Z</time>
      </trkpt>
      <trkpt lat="44.26422" lon="5.63656">
        <ele>1257</ele>
        <time>2018-07-17T06:05:02Z</time>
      </trkpt>
      <trkpt lat="44.26423" lon="5.63657">
        <ele>1257</ele>
        <time>2018-07-17T06:05:05Z</time>
      </trkpt>
      <trkpt lat="44.26424" lon="5.63658">
        <ele>1257</ele>
        <time>2018-07-17T06:05:07Z</time>
      </trkpt>
      <trkpt lat="44.26426" lon="5.6366">
        <ele>1257</ele>
        <time>2018-07-17T06:05:11Z</time>
      </trkpt>
      <trkpt lat="44.26428" lon="5.6366">
        <ele>1257</ele>
        <time>2018-07-17T06:05:13Z</time>
      </trkpt>
      <trkpt lat="44.26429" lon="5.63662">
        <ele>1257</ele>
        <time>2018-07-17T06:05:17Z</time>
      </trkpt>
      <trkpt lat="44.26431" lon="5.63663">
        <ele>1257</ele>
        <time>2018-07-17T06:05:19Z</time>
      </trkpt>
      <trkpt lat="44.26432" lon="5.63664">
        <ele>1257</ele>
        <time>2018-07-17T06:05:23Z</time>
      </trkpt>
      <trkpt lat="44.26433" lon="5.63664">
        <ele>1257</ele>
        <time>2018-07-17T06:05:25Z</time>
      </trkpt>
      <trkpt lat="44.26435" lon="5.63665">
        <ele>1257</ele>
        <time>2018-07-17T06:05:29Z</time>
      </trkpt>
      <trkpt lat="44.26436" lon="5.63666">
        <ele>1257</ele>
        <time>2018-07-17T06:05:30Z</time>
      </trkpt>
      <trkpt lat="44.26438" lon="5.63667">
        <ele>1257</ele>
        <time>2018-07-17T06:05:32Z</time>
      </trkpt>
      <trkpt lat="44.26439" lon="5.63668">
        <ele>1257</ele>
        <time>2018-07-17T06:05:34Z</time>
      </trkpt>
      <trkpt lat="44.2644" lon="5.6367">
        <ele>1257</ele>
        <time>2018-07-17T06:05:36Z</time>
      </trkpt>
      <trkpt lat="44.26441" lon="5.6367">
        <ele>1257</ele>
        <time>2018-07-17T06:05:38Z</time>
      </trkpt>
      <trkpt lat="44.26443" lon="5.6367">
        <ele>1257</ele>
        <time>2018-07-17T06:05:41Z</time>
      </trkpt>
      <trkpt lat="44.26444" lon="5.63671">
        <ele>1257</ele>
        <time>2018-07-17T06:05:43Z</time>
      </trkpt>
      <trkpt lat="44.26445" lon="5.63673">
        <ele>1257</ele>
        <time>2018-07-17T06:05:46Z</time>
      </trkpt>
      <trkpt lat="44.26447" lon="5.63673">
        <ele>1257</ele>
        <time>2018-07-17T06:05:47Z</time>
      </trkpt>
      <trkpt lat="44.26449" lon="5.63675">
        <ele>1257</ele>
        <time>2018-07-17T06:05:49Z</time>
      </trkpt>
      <trkpt lat="44.26451" lon="5.63675">
        <ele>1257</ele>
        <time>2018-07-17T06:05:51Z</time>
      </trkpt>
      <trkpt lat="44.26452" lon="5.63676">
        <ele>1257</ele>
        <time>2018-07-17T06:05:53Z</time>
      </trkpt>
      <trkpt lat="44.26454" lon="5.63677">
        <ele>1258</ele>
        <time>2018-07-17T06:05:57Z</time>
      </trkpt>
      <trkpt lat="44.26455" lon="5.63678">
        <ele>1258</ele>
        <time>2018-07-17T06:05:59Z</time>
      </trkpt>
      <trkpt lat="44.26456" lon="5.63679">
        <ele>1258</ele>
        <time>2018-07-17T06:06:02Z</time>
      </trkpt>
      <trkpt lat="44.26457" lon="5.63681">
        <ele>1258</ele>
        <time>2018-07-17T06:06:04Z</time>
      </trkpt>
      <trkpt lat="44.26457" lon="5.63683">
        <ele>1258</ele>
        <time>2018-07-17T06:06:08Z</time>
      </trkpt>
      <trkpt lat="44.26457" lon="5.63685">
        <ele>1258</ele>
        <time>2018-07-17T06:06:09Z</time>
      </trkpt>
      <trkpt lat="44.26458" lon="5.63686">
        <ele>1258</ele>
        <time>2018-07-17T06:06:11Z</time>
      </trkpt>
      <trkpt lat="44.26459" lon="5.63688">
        <ele>1258</ele>
        <time>2018-07-17T06:06:13Z</time>
      </trkpt>
      <trkpt lat="44.26461" lon="5.6369">
        <ele>1258</ele>
        <time>2018-07-17T06:06:16Z</time>
      </trkpt>
      <trkpt lat="44.26461" lon="5.63692">
        <ele>1258</ele>
        <time>2018-07-17T06:06:18Z</time>
      </trkpt>
      <trkpt lat="44.26462" lon="5.63693">
        <ele>1258</ele>
        <time>2018-07-17T06:06:20Z</time>
      </trkpt>
      <trkpt lat="44.26462" lon="5.63695">
        <ele>1258</ele>
        <time>2018-07-17T06:06:24Z</time>
      </trkpt>
      <trkpt lat="44.26464" lon="5.63695">
        <ele>1259</ele>
        <time>2018-07-17T06:06:25Z</time>
      </trkpt>
      <trkpt lat="44.26465" lon="5.63697">
        <ele>1259</ele>
        <time>2018-07-17T06:06:27Z</time>
      </trkpt>
      <trkpt lat="44.26466" lon="5.63698">
        <ele>1260</ele>
        <time>2018-07-17T06:06:30Z</time>
      </trkpt>
      <trkpt lat="44.26465" lon="5.63701">
        <ele>1260</ele>
        <time>2018-07-17T06:06:32Z</time>
      </trkpt>
      <trkpt lat="44.26465" lon="5.63702">
        <ele>1261</ele>
        <time>2018-07-17T06:06:35Z</time>
      </trkpt>
      <trkpt lat="44.26466" lon="5.63704">
        <ele>1261</ele>
        <time>2018-07-17T06:06:37Z</time>
      </trkpt>
      <trkpt lat="44.26467" lon="5.63705">
        <ele>1262</ele>
        <time>2018-07-17T06:06:39Z</time>
      </trkpt>
      <trkpt lat="44.26468" lon="5.63707">
        <ele>1262</ele>
        <time>2018-07-17T06:06:41Z</time>
      </trkpt>
      <trkpt lat="44.26469" lon="5.63709">
        <ele>1263</ele>
        <time>2018-07-17T06:06:43Z</time>
      </trkpt>
      <trkpt lat="44.26469" lon="5.63711">
        <ele>1263</ele>
        <time>2018-07-17T06:06:45Z</time>
      </trkpt>
      <trkpt lat="44.26469" lon="5.63713">
        <ele>1263</ele>
        <time>2018-07-17T06:06:47Z</time>
      </trkpt>
      <trkpt lat="44.26469" lon="5.63715">
        <ele>1263</ele>
        <time>2018-07-17T06:06:49Z</time>
      </trkpt>
      <trkpt lat="44.2647" lon="5.63717">
        <ele>1263</ele>
        <time>2018-07-17T06:06:51Z</time>
      </trkpt>
      <trkpt lat="44.26469" lon="5.63718">
        <ele>1263</ele>
        <time>2018-07-17T06:06:52Z</time>
      </trkpt>
      <trkpt lat="44.2647" lon="5.6372">
        <ele>1263</ele>
        <time>2018-07-17T06:06:54Z</time>
      </trkpt>
      <trkpt lat="44.2647" lon="5.63722">
        <ele>1263</ele>
        <time>2018-07-17T06:06:56Z</time>
      </trkpt>
      <trkpt lat="44.2647" lon="5.63723">
        <ele>1263</ele>
        <time>2018-07-17T06:06:59Z</time>
      </trkpt>
      <trkpt lat="44.26469" lon="5.63726">
        <ele>1263</ele>
        <time>2018-07-17T06:07:00Z</time>
      </trkpt>
      <trkpt lat="44.2647" lon="5.63728">
        <ele>1263</ele>
        <time>2018-07-17T06:07:01Z</time>
      </trkpt>
      <trkpt lat="44.2647" lon="5.63731">
        <ele>1263</ele>
        <time>2018-07-17T06:07:04Z</time>
      </trkpt>
      <trkpt lat="44.2647" lon="5.63733">
        <ele>1263</ele>
        <time>2018-07-17T06:07:05Z</time>
      </trkpt>
      <trkpt lat="44.26469" lon="5.63734">
        <ele>1263</ele>
        <time>2018-07-17T06:07:07Z</time>
      </trkpt>
      <trkpt lat="44.26469" lon="5.63736">
        <ele>1263</ele>
        <time>2018-07-17T06:07:10Z</time>
      </trkpt>
      <trkpt lat="44.26468" lon="5.63738">
        <ele>1263</ele>
        <time>2018-07-17T06:07:11Z</time>
      </trkpt>
      <trkpt lat="44.26468" lon="5.6374">
        <ele>1263</ele>
        <time>2018-07-17T06:07:13Z</time>
      </trkpt>
      <trkpt lat="44.26469" lon="5.63741">
        <ele>1263</ele>
        <time>2018-07-17T06:07:14Z</time>
      </trkpt>
      <trkpt lat="44.26471" lon="5.63742">
        <ele>1264</ele>
        <time>2018-07-17T06:07:16Z</time>
      </trkpt>
      <trkpt lat="44.26472" lon="5.63744">
        <ele>1265</ele>
        <time>2018-07-17T06:07:18Z</time>
      </trkpt>
      <trkpt lat="44.26472" lon="5.63746">
        <ele>1266</ele>
        <time>2018-07-17T06:07:21Z</time>
      </trkpt>
      <trkpt lat="44.26472" lon="5.63748">
        <ele>1267</ele>
        <time>2018-07-17T06:07:23Z</time>
      </trkpt>
      <trkpt lat="44.26473" lon="5.6375">
        <ele>1268</ele>
        <time>2018-07-17T06:07:25Z</time>
      </trkpt>
      <trkpt lat="44.26473" lon="5.63752">
        <ele>1268</ele>
        <time>2018-07-17T06:07:27Z</time>
      </trkpt>
      <trkpt lat="44.26474" lon="5.63754">
        <ele>1269</ele>
        <time>2018-07-17T06:07:28Z</time>
      </trkpt>
      <trkpt lat="44.26475" lon="5.63756">
        <ele>1269</ele>
        <time>2018-07-17T06:07:30Z</time>
      </trkpt>
      <trkpt lat="44.26476" lon="5.63758">
        <ele>1270</ele>
        <time>2018-07-17T06:07:33Z</time>
      </trkpt>
      <trkpt lat="44.26478" lon="5.6376">
        <ele>1270</ele>
        <time>2018-07-17T06:07:35Z</time>
      </trkpt>
      <trkpt lat="44.26479" lon="5.63762">
        <ele>1271</ele>
        <time>2018-07-17T06:07:37Z</time>
      </trkpt>
      <trkpt lat="44.2648" lon="5.63763">
        <ele>1271</ele>
        <time>2018-07-17T06:07:39Z</time>
      </trkpt>
      <trkpt lat="44.2648" lon="5.63765">
        <ele>1271</ele>
        <time>2018-07-17T06:07:41Z</time>
      </trkpt>
      <trkpt lat="44.2648" lon="5.63766">
        <ele>1271</ele>
        <time>2018-07-17T06:07:43Z</time>
      </trkpt>
      <trkpt lat="44.26481" lon="5.63769">
        <ele>1271</ele>
        <time>2018-07-17T06:07:47Z</time>
      </trkpt>
      <trkpt lat="44.26482" lon="5.6377">
        <ele>1271</ele>
        <time>2018-07-17T06:07:49Z</time>
      </trkpt>
      <trkpt lat="44.26482" lon="5.63772">
        <ele>1271</ele>
        <time>2018-07-17T06:07:51Z</time>
      </trkpt>
      <trkpt lat="44.26483" lon="5.63773">
        <ele>1271</ele>
        <time>2018-07-17T06:07:53Z</time>
      </trkpt>
      <trkpt lat="44.26483" lon="5.63775">
        <ele>1271</ele>
        <time>2018-07-17T06:07:55Z</time>
      </trkpt>
      <trkpt lat="44.26483" lon="5.63778">
        <ele>1271</ele>
        <time>2018-07-17T06:07:58Z</time>
      </trkpt>
      <trkpt lat="44.26483" lon="5.63779">
        <ele>1271</ele>
        <time>2018-07-17T06:08:00Z</time>
      </trkpt>
      <trkpt lat="44.26483" lon="5.63781">
        <ele>1271</ele>
        <time>2018-07-17T06:08:02Z</time>
      </trkpt>
      <trkpt lat="44.26484" lon="5.63784">
        <ele>1271</ele>
        <time>2018-07-17T06:08:05Z</time>
      </trkpt>
      <trkpt lat="44.26485" lon="5.63786">
        <ele>1271</ele>
        <time>2018-07-17T06:08:07Z</time>
      </trkpt>
      <trkpt lat="44.26486" lon="5.63787">
        <ele>1272</ele>
        <time>2018-07-17T06:08:09Z</time>
      </trkpt>
      <trkpt lat="44.26487" lon="5.63789">
        <ele>1272</ele>
        <time>2018-07-17T06:08:11Z</time>
      </trkpt>
      <trkpt lat="44.26487" lon="5.63791">
        <ele>1272</ele>
        <time>2018-07-17T06:08:13Z</time>
      </trkpt>
      <trkpt lat="44.26488" lon="5.63792">
        <ele>1272</ele>
        <time>2018-07-17T06:08:15Z</time>
      </trkpt>
      <trkpt lat="44.26489" lon="5.63794">
        <ele>1272</ele>
        <time>2018-07-17T06:08:17Z</time>
      </trkpt>
      <trkpt lat="44.26489" lon="5.63795">
        <ele>1272</ele>
        <time>2018-07-17T06:08:20Z</time>
      </trkpt>
      <trkpt lat="44.26489" lon="5.63797">
        <ele>1272</ele>
        <time>2018-07-17T06:08:22Z</time>
      </trkpt>
      <trkpt lat="44.2649" lon="5.63799">
        <ele>1272</ele>
        <time>2018-07-17T06:08:24Z</time>
      </trkpt>
      <trkpt lat="44.2649" lon="5.63801">
        <ele>1272</ele>
        <time>2018-07-17T06:08:26Z</time>
      </trkpt>
      <trkpt lat="44.26491" lon="5.63802">
        <ele>1272</ele>
        <time>2018-07-17T06:08:28Z</time>
      </trkpt>
      <trkpt lat="44.26491" lon="5.63804">
        <ele>1272</ele>
        <time>2018-07-17T06:08:28Z</time>
      </trkpt>
      <trkpt lat="44.26492" lon="5.63806">
        <ele>1272</ele>
        <time>2018-07-17T06:08:30Z</time>
      </trkpt>
      <trkpt lat="44.26492" lon="5.63808">
        <ele>1272</ele>
        <time>2018-07-17T06:08:31Z</time>
      </trkpt>
      <trkpt lat="44.26492" lon="5.63809">
        <ele>1272</ele>
        <time>2018-07-17T06:08:32Z</time>
      </trkpt>
      <trkpt lat="44.26493" lon="5.63812">
        <ele>1272</ele>
        <time>2018-07-17T06:08:34Z</time>
      </trkpt>
      <trkpt lat="44.26493" lon="5.63814">
        <ele>1272</ele>
        <time>2018-07-17T06:08:37Z</time>
      </trkpt>
      <trkpt lat="44.26494" lon="5.63816">
        <ele>1272</ele>
        <time>2018-07-17T06:08:37Z</time>
      </trkpt>
      <trkpt lat="44.26493" lon="5.63818">
        <ele>1272</ele>
        <time>2018-07-17T06:08:39Z</time>
      </trkpt>
      <trkpt lat="44.26493" lon="5.6382">
        <ele>1272</ele>
        <time>2018-07-17T06:08:40Z</time>
      </trkpt>
      <trkpt lat="44.26495" lon="5.63822">
        <ele>1272</ele>
        <time>2018-07-17T06:08:42Z</time>
      </trkpt>
      <trkpt lat="44.26496" lon="5.63824">
        <ele>1272</ele>
        <time>2018-07-17T06:08:44Z</time>
      </trkpt>
      <trkpt lat="44.26497" lon="5.63827">
        <ele>1272</ele>
        <time>2018-07-17T06:08:46Z</time>
      </trkpt>
      <trkpt lat="44.26497" lon="5.63829">
        <ele>1272</ele>
        <time>2018-07-17T06:08:48Z</time>
      </trkpt>
      <trkpt lat="44.26497" lon="5.63832">
        <ele>1272</ele>
        <time>2018-07-17T06:08:50Z</time>
      </trkpt>
      <trkpt lat="44.26497" lon="5.63833">
        <ele>1272</ele>
        <time>2018-07-17T06:08:51Z</time>
      </trkpt>
      <trkpt lat="44.26497" lon="5.63835">
        <ele>1272</ele>
        <time>2018-07-17T06:08:53Z</time>
      </trkpt>
      <trkpt lat="44.26497" lon="5.63837">
        <ele>1272</ele>
        <time>2018-07-17T06:08:55Z</time>
      </trkpt>
      <trkpt lat="44.26498" lon="5.63839">
        <ele>1272</ele>
        <time>2018-07-17T06:08:57Z</time>
      </trkpt>
      <trkpt lat="44.26498" lon="5.63841">
        <ele>1272</ele>
        <time>2018-07-17T06:08:59Z</time>
      </trkpt>
      <trkpt lat="44.26498" lon="5.63843">
        <ele>1272</ele>
        <time>2018-07-17T06:09:01Z</time>
      </trkpt>
      <trkpt lat="44.26499" lon="5.63845">
        <ele>1272</ele>
        <time>2018-07-17T06:09:03Z</time>
      </trkpt>
      <trkpt lat="44.26499" lon="5.63847">
        <ele>1272</ele>
        <time>2018-07-17T06:09:05Z</time>
      </trkpt>
      <trkpt lat="44.26499" lon="5.63849">
        <ele>1272</ele>
        <time>2018-07-17T06:09:07Z</time>
      </trkpt>
      <trkpt lat="44.26498" lon="5.63851">
        <ele>1272</ele>
        <time>2018-07-17T06:09:09Z</time>
      </trkpt>
      <trkpt lat="44.26499" lon="5.63853">
        <ele>1272</ele>
        <time>2018-07-17T06:09:11Z</time>
      </trkpt>
      <trkpt lat="44.26499" lon="5.63855">
        <ele>1272</ele>
        <time>2018-07-17T06:09:13Z</time>
      </trkpt>
      <trkpt lat="44.265" lon="5.63857">
        <ele>1272</ele>
        <time>2018-07-17T06:09:15Z</time>
      </trkpt>
      <trkpt lat="44.265" lon="5.63859">
        <ele>1272</ele>
        <time>2018-07-17T06:09:17Z</time>
      </trkpt>
      <trkpt lat="44.265" lon="5.63861">
        <ele>1272</ele>
        <time>2018-07-17T06:09:20Z</time>
      </trkpt>
      <trkpt lat="44.265" lon="5.63862">
        <ele>1272</ele>
        <time>2018-07-17T06:09:22Z</time>
      </trkpt>
      <trkpt lat="44.265" lon="5.63864">
        <ele>1273</ele>
        <time>2018-07-17T06:09:25Z</time>
      </trkpt>
      <trkpt lat="44.26501" lon="5.63866">
        <ele>1274</ele>
        <time>2018-07-17T06:09:27Z</time>
      </trkpt>
      <trkpt lat="44.26502" lon="5.63868">
        <ele>1274</ele>
        <time>2018-07-17T06:09:30Z</time>
      </trkpt>
      <trkpt lat="44.26503" lon="5.63871">
        <ele>1275</ele>
        <time>2018-07-17T06:09:32Z</time>
      </trkpt>
      <trkpt lat="44.26503" lon="5.63872">
        <ele>1276</ele>
        <time>2018-07-17T06:09:34Z</time>
      </trkpt>
      <trkpt lat="44.26503" lon="5.63874">
        <ele>1276</ele>
        <time>2018-07-17T06:09:37Z</time>
      </trkpt>
      <trkpt lat="44.26503" lon="5.63871">
        <ele>1277</ele>
        <time>2018-07-17T06:09:40Z</time>
      </trkpt>
      <trkpt lat="44.26502" lon="5.63871">
        <ele>1277</ele>
        <time>2018-07-17T06:09:42Z</time>
      </trkpt>
      <trkpt lat="44.26501" lon="5.63871">
        <ele>1277</ele>
        <time>2018-07-17T06:09:46Z</time>
      </trkpt>
      <trkpt lat="44.26499" lon="5.63869">
        <ele>1278</ele>
        <time>2018-07-17T06:09:49Z</time>
      </trkpt>
      <trkpt lat="44.26499" lon="5.63871">
        <ele>1280</ele>
        <time>2018-07-17T06:09:52Z</time>
      </trkpt>
      <trkpt lat="44.26499" lon="5.63872">
        <ele>1281</ele>
        <time>2018-07-17T06:09:55Z</time>
      </trkpt>
      <trkpt lat="44.26498" lon="5.6387">
        <ele>1285</ele>
        <time>2018-07-17T06:10:01Z</time>
      </trkpt>
      <trkpt lat="44.26499" lon="5.63872">
        <ele>1285</ele>
        <time>2018-07-17T06:10:05Z</time>
      </trkpt>
      <trkpt lat="44.265" lon="5.63873">
        <ele>1285</ele>
        <time>2018-07-17T06:10:09Z</time>
      </trkpt>
      <trkpt lat="44.26502" lon="5.63874">
        <ele>1285</ele>
        <time>2018-07-17T06:10:12Z</time>
      </trkpt>
      <trkpt lat="44.265" lon="5.63876">
        <ele>1285</ele>
        <time>2018-07-17T06:10:15Z</time>
      </trkpt>
      <trkpt lat="44.26501" lon="5.63878">
        <ele>1285</ele>
        <time>2018-07-17T06:10:17Z</time>
      </trkpt>
      <trkpt lat="44.265" lon="5.63878">
        <ele>1285</ele>
        <time>2018-07-17T06:10:23Z</time>
      </trkpt>
      <trkpt lat="44.26499" lon="5.63879">
        <ele>1285</ele>
        <time>2018-07-17T06:10:28Z</time>
      </trkpt>
      <trkpt lat="44.265" lon="5.63882">
        <ele>1286</ele>
        <time>2018-07-17T06:10:35Z</time>
      </trkpt>
      <trkpt lat="44.265" lon="5.63883">
        <ele>1287</ele>
        <time>2018-07-17T06:10:37Z</time>
      </trkpt>
      <trkpt lat="44.26502" lon="5.63885">
        <ele>1287</ele>
        <time>2018-07-17T06:10:42Z</time>
      </trkpt>
      <trkpt lat="44.26501" lon="5.63883">
        <ele>1289</ele>
        <time>2018-07-17T06:10:51Z</time>
      </trkpt>
      <trkpt lat="44.265" lon="5.63881">
        <ele>1289</ele>
        <time>2018-07-17T06:10:55Z</time>
      </trkpt>
      <trkpt lat="44.26498" lon="5.63881">
        <ele>1289</ele>
        <time>2018-07-17T06:11:07Z</time>
      </trkpt>
      <trkpt lat="44.26497" lon="5.63882">
        <ele>1289</ele>
        <time>2018-07-17T06:11:11Z</time>
      </trkpt>
      <trkpt lat="44.26498" lon="5.63881">
        <ele>1289</ele>
        <time>2018-07-17T06:11:21Z</time>
      </trkpt>
      <trkpt lat="44.26498" lon="5.6388">
        <ele>1288</ele>
        <time>2018-07-17T06:11:23Z</time>
      </trkpt>
      <trkpt lat="44.26497" lon="5.63878">
        <ele>1288</ele>
        <time>2018-07-17T06:11:26Z</time>
      </trkpt>
      <trkpt lat="44.26497" lon="5.63876">
        <ele>1288</ele>
        <time>2018-07-17T06:11:31Z</time>
      </trkpt>
      <trkpt lat="44.26495" lon="5.63877">
        <ele>1288</ele>
        <time>2018-07-17T06:11:42Z</time>
      </trkpt>
      <trkpt lat="44.26494" lon="5.63877">
        <ele>1288</ele>
        <time>2018-07-17T06:11:44Z</time>
      </trkpt>
      <trkpt lat="44.26495" lon="5.63879">
        <ele>1288</ele>
        <time>2018-07-17T06:11:47Z</time>
      </trkpt>
      <trkpt lat="44.26496" lon="5.63881">
        <ele>1288</ele>
        <time>2018-07-17T06:11:52Z</time>
      </trkpt>
      <trkpt lat="44.26497" lon="5.63882">
        <ele>1285</ele>
        <time>2018-07-17T06:12:01Z</time>
      </trkpt>
      <trkpt lat="44.26496" lon="5.6388">
        <ele>1284</ele>
        <time>2018-07-17T06:12:03Z</time>
      </trkpt>
      <trkpt lat="44.26495" lon="5.63879">
        <ele>1284</ele>
        <time>2018-07-17T06:12:05Z</time>
      </trkpt>
      <trkpt lat="44.26497" lon="5.6388">
        <ele>1284</ele>
        <time>2018-07-17T06:12:09Z</time>
      </trkpt>
      <trkpt lat="44.26498" lon="5.63881">
        <ele>1284</ele>
        <time>2018-07-17T06:12:11Z</time>
      </trkpt>
      <trkpt lat="44.26499" lon="5.63883">
        <ele>1284</ele>
        <time>2018-07-17T06:12:13Z</time>
      </trkpt>
      <trkpt lat="44.265" lon="5.63885">
        <ele>1284</ele>
        <time>2018-07-17T06:12:21Z</time>
      </trkpt>
      <trkpt lat="44.265" lon="5.63886">
        <ele>1284</ele>
        <time>2018-07-17T06:12:24Z</time>
      </trkpt>
      <trkpt lat="44.26501" lon="5.63888">
        <ele>1284</ele>
        <time>2018-07-17T06:12:27Z</time>
      </trkpt>
      <trkpt lat="44.26503" lon="5.63889">
        <ele>1284</ele>
        <time>2018-07-17T06:12:30Z</time>
      </trkpt>
      <trkpt lat="44.26505" lon="5.63889">
        <ele>1284</ele>
        <time>2018-07-17T06:12:32Z</time>
      </trkpt>
      <trkpt lat="44.26506" lon="5.63891">
        <ele>1284</ele>
        <time>2018-07-17T06:12:34Z</time>
      </trkpt>
      <trkpt lat="44.26506" lon="5.63892">
        <ele>1284</ele>
        <time>2018-07-17T06:12:36Z</time>
      </trkpt>
      <trkpt lat="44.26507" lon="5.63894">
        <ele>1284</ele>
        <time>2018-07-17T06:12:38Z</time>
      </trkpt>
      <trkpt lat="44.26508" lon="5.63896">
        <ele>1284</ele>
        <time>2018-07-17T06:12:40Z</time>
      </trkpt>
      <trkpt lat="44.26508" lon="5.63898">
        <ele>1284</ele>
        <time>2018-07-17T06:12:42Z</time>
      </trkpt>
      <trkpt lat="44.2651" lon="5.639">
        <ele>1284</ele>
        <time>2018-07-17T06:12:44Z</time>
      </trkpt>
      <trkpt lat="44.26509" lon="5.63902">
        <ele>1284</ele>
        <time>2018-07-17T06:12:46Z</time>
      </trkpt>
      <trkpt lat="44.26508" lon="5.63902">
        <ele>1284</ele>
        <time>2018-07-17T06:12:48Z</time>
      </trkpt>
      <trkpt lat="44.26506" lon="5.63902">
        <ele>1284</ele>
        <time>2018-07-17T06:12:50Z</time>
      </trkpt>
      <trkpt lat="44.26506" lon="5.63904">
        <ele>1284</ele>
        <time>2018-07-17T06:12:55Z</time>
      </trkpt>
      <trkpt lat="44.26506" lon="5.63906">
        <ele>1284</ele>
        <time>2018-07-17T06:12:59Z</time>
      </trkpt>
      <trkpt lat="44.26508" lon="5.63908">
        <ele>1284</ele>
        <time>2018-07-17T06:13:02Z</time>
      </trkpt>
      <trkpt lat="44.26509" lon="5.6391">
        <ele>1284</ele>
        <time>2018-07-17T06:13:05Z</time>
      </trkpt>
      <trkpt lat="44.2651" lon="5.63911">
        <ele>1284</ele>
        <time>2018-07-17T06:13:07Z</time>
      </trkpt>
      <trkpt lat="44.26511" lon="5.63912">
        <ele>1284</ele>
        <time>2018-07-17T06:13:09Z</time>
      </trkpt>
      <trkpt lat="44.26512" lon="5.63914">
        <ele>1284</ele>
        <time>2018-07-17T06:13:11Z</time>
      </trkpt>
      <trkpt lat="44.26513" lon="5.63916">
        <ele>1284</ele>
        <time>2018-07-17T06:13:13Z</time>
      </trkpt>
      <trkpt lat="44.26514" lon="5.63917">
        <ele>1284</ele>
        <time>2018-07-17T06:13:15Z</time>
      </trkpt>
      <trkpt lat="44.26516" lon="5.63918">
        <ele>1284</ele>
        <time>2018-07-17T06:13:17Z</time>
      </trkpt>
      <trkpt lat="44.26517" lon="5.63919">
        <ele>1284</ele>
        <time>2018-07-17T06:13:19Z</time>
      </trkpt>
      <trkpt lat="44.26519" lon="5.63921">
        <ele>1284</ele>
        <time>2018-07-17T06:13:21Z</time>
      </trkpt>
      <trkpt lat="44.2652" lon="5.63923">
        <ele>1284</ele>
        <time>2018-07-17T06:13:23Z</time>
      </trkpt>
      <trkpt lat="44.26521" lon="5.63925">
        <ele>1284</ele>
        <time>2018-07-17T06:13:25Z</time>
      </trkpt>
      <trkpt lat="44.26522" lon="5.63927">
        <ele>1284</ele>
        <time>2018-07-17T06:13:27Z</time>
      </trkpt>
      <trkpt lat="44.26523" lon="5.63929">
        <ele>1284</ele>
        <time>2018-07-17T06:13:30Z</time>
      </trkpt>
      <trkpt lat="44.26524" lon="5.63931">
        <ele>1284</ele>
        <time>2018-07-17T06:13:32Z</time>
      </trkpt>
      <trkpt lat="44.26525" lon="5.63933">
        <ele>1284</ele>
        <time>2018-07-17T06:13:34Z</time>
      </trkpt>
      <trkpt lat="44.26525" lon="5.63934">
        <ele>1284</ele>
        <time>2018-07-17T06:13:37Z</time>
      </trkpt>
      <trkpt lat="44.26527" lon="5.63935">
        <ele>1285</ele>
        <time>2018-07-17T06:13:38Z</time>
      </trkpt>
      <trkpt lat="44.26528" lon="5.63936">
        <ele>1286</ele>
        <time>2018-07-17T06:13:40Z</time>
      </trkpt>
      <trkpt lat="44.26529" lon="5.63937">
        <ele>1286</ele>
        <time>2018-07-17T06:13:42Z</time>
      </trkpt>
      <trkpt lat="44.26531" lon="5.63937">
        <ele>1287</ele>
        <time>2018-07-17T06:13:44Z</time>
      </trkpt>
      <trkpt lat="44.26532" lon="5.63938">
        <ele>1287</ele>
        <time>2018-07-17T06:13:46Z</time>
      </trkpt>
      <trkpt lat="44.26533" lon="5.6394">
        <ele>1287</ele>
        <time>2018-07-17T06:13:48Z</time>
      </trkpt>
      <trkpt lat="44.26534" lon="5.63942">
        <ele>1288</ele>
        <time>2018-07-17T06:13:53Z</time>
      </trkpt>
      <trkpt lat="44.26535" lon="5.63944">
        <ele>1289</ele>
        <time>2018-07-17T06:13:55Z</time>
      </trkpt>
      <trkpt lat="44.26536" lon="5.63945">
        <ele>1289</ele>
        <time>2018-07-17T06:13:57Z</time>
      </trkpt>
      <trkpt lat="44.26536" lon="5.63947">
        <ele>1290</ele>
        <time>2018-07-17T06:14:03Z</time>
      </trkpt>
      <trkpt lat="44.26537" lon="5.63949">
        <ele>1291</ele>
        <time>2018-07-17T06:14:05Z</time>
      </trkpt>
      <trkpt lat="44.26538" lon="5.63951">
        <ele>1291</ele>
        <time>2018-07-17T06:14:08Z</time>
      </trkpt>
      <trkpt lat="44.2654" lon="5.63953">
        <ele>1291</ele>
        <time>2018-07-17T06:14:11Z</time>
      </trkpt>
      <trkpt lat="44.2654" lon="5.63955">
        <ele>1292</ele>
        <time>2018-07-17T06:14:16Z</time>
      </trkpt>
      <trkpt lat="44.2654" lon="5.63957">
        <ele>1292</ele>
        <time>2018-07-17T06:14:18Z</time>
      </trkpt>
      <trkpt lat="44.26542" lon="5.63958">
        <ele>1293</ele>
        <time>2018-07-17T06:14:20Z</time>
      </trkpt>
      <trkpt lat="44.26543" lon="5.6396">
        <ele>1293</ele>
        <time>2018-07-17T06:14:22Z</time>
      </trkpt>
      <trkpt lat="44.26545" lon="5.63961">
        <ele>1293</ele>
        <time>2018-07-17T06:14:24Z</time>
      </trkpt>
      <trkpt lat="44.26546" lon="5.63964">
        <ele>1293</ele>
        <time>2018-07-17T06:14:26Z</time>
      </trkpt>
      <trkpt lat="44.26547" lon="5.63964">
        <ele>1293</ele>
        <time>2018-07-17T06:14:27Z</time>
      </trkpt>
      <trkpt lat="44.26548" lon="5.63966">
        <ele>1293</ele>
        <time>2018-07-17T06:14:29Z</time>
      </trkpt>
      <trkpt lat="44.2655" lon="5.63967">
        <ele>1292</ele>
        <time>2018-07-17T06:14:32Z</time>
      </trkpt>
      <trkpt lat="44.26551" lon="5.63968">
        <ele>1292</ele>
        <time>2018-07-17T06:14:40Z</time>
      </trkpt>
      <trkpt lat="44.26552" lon="5.63968">
        <ele>1292</ele>
        <time>2018-07-17T06:14:41Z</time>
      </trkpt>
      <trkpt lat="44.26554" lon="5.63968">
        <ele>1293</ele>
        <time>2018-07-17T06:14:47Z</time>
      </trkpt>
      <trkpt lat="44.26555" lon="5.6397">
        <ele>1294</ele>
        <time>2018-07-17T06:14:49Z</time>
      </trkpt>
      <trkpt lat="44.26556" lon="5.63971">
        <ele>1294</ele>
        <time>2018-07-17T06:14:51Z</time>
      </trkpt>
      <trkpt lat="44.26558" lon="5.63971">
        <ele>1295</ele>
        <time>2018-07-17T06:14:54Z</time>
      </trkpt>
      <trkpt lat="44.2656" lon="5.63973">
        <ele>1295</ele>
        <time>2018-07-17T06:14:56Z</time>
      </trkpt>
      <trkpt lat="44.26561" lon="5.63973">
        <ele>1295</ele>
        <time>2018-07-17T06:14:57Z</time>
      </trkpt>
      <trkpt lat="44.26562" lon="5.63975">
        <ele>1295</ele>
        <time>2018-07-17T06:15:00Z</time>
      </trkpt>
      <trkpt lat="44.26564" lon="5.63976">
        <ele>1295</ele>
        <time>2018-07-17T06:15:03Z</time>
      </trkpt>
      <trkpt lat="44.26566" lon="5.63977">
        <ele>1297</ele>
        <time>2018-07-17T06:15:10Z</time>
      </trkpt>
      <trkpt lat="44.26567" lon="5.63976">
        <ele>1298</ele>
        <time>2018-07-17T06:15:11Z</time>
      </trkpt>
      <trkpt lat="44.26568" lon="5.63977">
        <ele>1300</ele>
        <time>2018-07-17T06:15:13Z</time>
      </trkpt>
      <trkpt lat="44.2657" lon="5.63978">
        <ele>1301</ele>
        <time>2018-07-17T06:15:15Z</time>
      </trkpt>
      <trkpt lat="44.26572" lon="5.63979">
        <ele>1301</ele>
        <time>2018-07-17T06:15:17Z</time>
      </trkpt>
      <trkpt lat="44.26574" lon="5.63981">
        <ele>1301</ele>
        <time>2018-07-17T06:15:18Z</time>
      </trkpt>
      <trkpt lat="44.26575" lon="5.63982">
        <ele>1301</ele>
        <time>2018-07-17T06:15:20Z</time>
      </trkpt>
      <trkpt lat="44.26576" lon="5.63982">
        <ele>1301</ele>
        <time>2018-07-17T06:15:21Z</time>
      </trkpt>
      <trkpt lat="44.26578" lon="5.63981">
        <ele>1301</ele>
        <time>2018-07-17T06:15:26Z</time>
      </trkpt>
      <trkpt lat="44.2658" lon="5.63981">
        <ele>1301</ele>
        <time>2018-07-17T06:15:28Z</time>
      </trkpt>
      <trkpt lat="44.26581" lon="5.6398">
        <ele>1301</ele>
        <time>2018-07-17T06:15:29Z</time>
      </trkpt>
      <trkpt lat="44.26582" lon="5.6398">
        <ele>1301</ele>
        <time>2018-07-17T06:15:30Z</time>
      </trkpt>
      <trkpt lat="44.26584" lon="5.63979">
        <ele>1301</ele>
        <time>2018-07-17T06:15:31Z</time>
      </trkpt>
      <trkpt lat="44.26585" lon="5.63978">
        <ele>1301</ele>
        <time>2018-07-17T06:15:33Z</time>
      </trkpt>
      <trkpt lat="44.26587" lon="5.63977">
        <ele>1302</ele>
        <time>2018-07-17T06:15:35Z</time>
      </trkpt>
      <trkpt lat="44.26588" lon="5.63977">
        <ele>1302</ele>
        <time>2018-07-17T06:15:38Z</time>
      </trkpt>
      <trkpt lat="44.2659" lon="5.63977">
        <ele>1302</ele>
        <time>2018-07-17T06:15:39Z</time>
      </trkpt>
      <trkpt lat="44.26591" lon="5.63977">
        <ele>1302</ele>
        <time>2018-07-17T06:15:41Z</time>
      </trkpt>
      <trkpt lat="44.26592" lon="5.63977">
        <ele>1302</ele>
        <time>2018-07-17T06:15:43Z</time>
      </trkpt>
      <trkpt lat="44.26593" lon="5.63978">
        <ele>1302</ele>
        <time>2018-07-17T06:15:45Z</time>
      </trkpt>
      <trkpt lat="44.26595" lon="5.63978">
        <ele>1302</ele>
        <time>2018-07-17T06:15:46Z</time>
      </trkpt>
      <trkpt lat="44.26596" lon="5.63977">
        <ele>1302</ele>
        <time>2018-07-17T06:15:48Z</time>
      </trkpt>
      <trkpt lat="44.26598" lon="5.63975">
        <ele>1302</ele>
        <time>2018-07-17T06:15:52Z</time>
      </trkpt>
      <trkpt lat="44.26599" lon="5.63974">
        <ele>1302</ele>
        <time>2018-07-17T06:15:55Z</time>
      </trkpt>
      <trkpt lat="44.266" lon="5.63972">
        <ele>1302</ele>
        <time>2018-07-17T06:15:58Z</time>
      </trkpt>
      <trkpt lat="44.26601" lon="5.63971">
        <ele>1302</ele>
        <time>2018-07-17T06:16:00Z</time>
      </trkpt>
      <trkpt lat="44.26603" lon="5.63969">
        <ele>1302</ele>
        <time>2018-07-17T06:16:03Z</time>
      </trkpt>
      <trkpt lat="44.26603" lon="5.63967">
        <ele>1302</ele>
        <time>2018-07-17T06:16:05Z</time>
      </trkpt>
      <trkpt lat="44.26605" lon="5.63966">
        <ele>1302</ele>
        <time>2018-07-17T06:16:07Z</time>
      </trkpt>
      <trkpt lat="44.26606" lon="5.63964">
        <ele>1302</ele>
        <time>2018-07-17T06:16:10Z</time>
      </trkpt>
      <trkpt lat="44.26608" lon="5.63963">
        <ele>1302</ele>
        <time>2018-07-17T06:16:12Z</time>
      </trkpt>
      <trkpt lat="44.26609" lon="5.63961">
        <ele>1302</ele>
        <time>2018-07-17T06:16:14Z</time>
      </trkpt>
      <trkpt lat="44.2661" lon="5.63961">
        <ele>1302</ele>
        <time>2018-07-17T06:16:16Z</time>
      </trkpt>
      <trkpt lat="44.26612" lon="5.6396">
        <ele>1302</ele>
        <time>2018-07-17T06:16:18Z</time>
      </trkpt>
      <trkpt lat="44.26614" lon="5.63959">
        <ele>1302</ele>
        <time>2018-07-17T06:16:21Z</time>
      </trkpt>
      <trkpt lat="44.26615" lon="5.63959">
        <ele>1302</ele>
        <time>2018-07-17T06:16:23Z</time>
      </trkpt>
      <trkpt lat="44.26616" lon="5.6396">
        <ele>1302</ele>
        <time>2018-07-17T06:16:25Z</time>
      </trkpt>
      <trkpt lat="44.26618" lon="5.63961">
        <ele>1302</ele>
        <time>2018-07-17T06:16:27Z</time>
      </trkpt>
      <trkpt lat="44.26619" lon="5.63961">
        <ele>1302</ele>
        <time>2018-07-17T06:16:30Z</time>
      </trkpt>
      <trkpt lat="44.26621" lon="5.63962">
        <ele>1302</ele>
        <time>2018-07-17T06:16:32Z</time>
      </trkpt>
      <trkpt lat="44.26622" lon="5.63962">
        <ele>1302</ele>
        <time>2018-07-17T06:16:34Z</time>
      </trkpt>
      <trkpt lat="44.26623" lon="5.63962">
        <ele>1302</ele>
        <time>2018-07-17T06:16:35Z</time>
      </trkpt>
      <trkpt lat="44.26625" lon="5.63962">
        <ele>1302</ele>
        <time>2018-07-17T06:16:37Z</time>
      </trkpt>
      <trkpt lat="44.26627" lon="5.63963">
        <ele>1302</ele>
        <time>2018-07-17T06:16:39Z</time>
      </trkpt>
      <trkpt lat="44.26628" lon="5.63963">
        <ele>1302</ele>
        <time>2018-07-17T06:16:41Z</time>
      </trkpt>
      <trkpt lat="44.26629" lon="5.63965">
        <ele>1302</ele>
        <time>2018-07-17T06:16:44Z</time>
      </trkpt>
      <trkpt lat="44.2663" lon="5.63966">
        <ele>1302</ele>
        <time>2018-07-17T06:16:46Z</time>
      </trkpt>
      <trkpt lat="44.26632" lon="5.63967">
        <ele>1302</ele>
        <time>2018-07-17T06:16:49Z</time>
      </trkpt>
      <trkpt lat="44.26632" lon="5.63969">
        <ele>1302</ele>
        <time>2018-07-17T06:16:53Z</time>
      </trkpt>
      <trkpt lat="44.26633" lon="5.6397">
        <ele>1302</ele>
        <time>2018-07-17T06:16:57Z</time>
      </trkpt>
      <trkpt lat="44.26634" lon="5.63972">
        <ele>1302</ele>
        <time>2018-07-17T06:17:00Z</time>
      </trkpt>
      <trkpt lat="44.26635" lon="5.63974">
        <ele>1302</ele>
        <time>2018-07-17T06:17:02Z</time>
      </trkpt>
      <trkpt lat="44.26636" lon="5.63975">
        <ele>1302</ele>
        <time>2018-07-17T06:17:05Z</time>
      </trkpt>
      <trkpt lat="44.26637" lon="5.63975">
        <ele>1302</ele>
        <time>2018-07-17T06:17:08Z</time>
      </trkpt>
      <trkpt lat="44.26638" lon="5.63974">
        <ele>1302</ele>
        <time>2018-07-17T06:17:17Z</time>
      </trkpt>
      <trkpt lat="44.26639" lon="5.63972">
        <ele>1302</ele>
        <time>2018-07-17T06:17:20Z</time>
      </trkpt>
      <trkpt lat="44.2664" lon="5.63971">
        <ele>1302</ele>
        <time>2018-07-17T06:17:22Z</time>
      </trkpt>
      <trkpt lat="44.26642" lon="5.6397">
        <ele>1302</ele>
        <time>2018-07-17T06:17:25Z</time>
      </trkpt>
      <trkpt lat="44.26642" lon="5.63972">
        <ele>1302</ele>
        <time>2018-07-17T06:17:30Z</time>
      </trkpt>
      <trkpt lat="44.26643" lon="5.63973">
        <ele>1302</ele>
        <time>2018-07-17T06:17:35Z</time>
      </trkpt>
      <trkpt lat="44.26644" lon="5.63974">
        <ele>1304</ele>
        <time>2018-07-17T06:17:42Z</time>
      </trkpt>
      <trkpt lat="44.26645" lon="5.63972">
        <ele>1304</ele>
        <time>2018-07-17T06:17:48Z</time>
      </trkpt>
      <trkpt lat="44.26645" lon="5.6397">
        <ele>1304</ele>
        <time>2018-07-17T06:17:53Z</time>
      </trkpt>
      <trkpt lat="44.26644" lon="5.63968">
        <ele>1305</ele>
        <time>2018-07-17T06:17:55Z</time>
      </trkpt>
      <trkpt lat="44.26645" lon="5.63967">
        <ele>1307</ele>
        <time>2018-07-17T06:18:04Z</time>
      </trkpt>
      <trkpt lat="44.26645" lon="5.63965">
        <ele>1307</ele>
        <time>2018-07-17T06:18:07Z</time>
      </trkpt>
      <trkpt lat="44.26645" lon="5.63963">
        <ele>1307</ele>
        <time>2018-07-17T06:18:09Z</time>
      </trkpt>
      <trkpt lat="44.26644" lon="5.63962">
        <ele>1308</ele>
        <time>2018-07-17T06:18:12Z</time>
      </trkpt>
      <trkpt lat="44.26645" lon="5.6396">
        <ele>1309</ele>
        <time>2018-07-17T06:18:15Z</time>
      </trkpt>
      <trkpt lat="44.26645" lon="5.63959">
        <ele>1311</ele>
        <time>2018-07-17T06:18:21Z</time>
      </trkpt>
      <trkpt lat="44.26646" lon="5.63958">
        <ele>1311</ele>
        <time>2018-07-17T06:18:25Z</time>
      </trkpt>
      <trkpt lat="44.26647" lon="5.63956">
        <ele>1312</ele>
        <time>2018-07-17T06:18:29Z</time>
      </trkpt>
      <trkpt lat="44.26648" lon="5.63958">
        <ele>1313</ele>
        <time>2018-07-17T06:18:44Z</time>
      </trkpt>
      <trkpt lat="44.26648" lon="5.6396">
        <ele>1313</ele>
        <time>2018-07-17T06:18:48Z</time>
      </trkpt>
      <trkpt lat="44.26648" lon="5.63962">
        <ele>1313</ele>
        <time>2018-07-17T06:18:50Z</time>
      </trkpt>
      <trkpt lat="44.26649" lon="5.6396">
        <ele>1315</ele>
        <time>2018-07-17T06:18:58Z</time>
      </trkpt>
      <trkpt lat="44.26649" lon="5.63958">
        <ele>1315</ele>
        <time>2018-07-17T06:19:01Z</time>
      </trkpt>
      <trkpt lat="44.2665" lon="5.63956">
        <ele>1315</ele>
        <time>2018-07-17T06:19:04Z</time>
      </trkpt>
      <trkpt lat="44.26651" lon="5.63954">
        <ele>1315</ele>
        <time>2018-07-17T06:19:07Z</time>
      </trkpt>
      <trkpt lat="44.26651" lon="5.63952">
        <ele>1315</ele>
        <time>2018-07-17T06:19:14Z</time>
      </trkpt>
      <trkpt lat="44.26652" lon="5.63952">
        <ele>1315</ele>
        <time>2018-07-17T06:19:52Z</time>
      </trkpt>
      <trkpt lat="44.26651" lon="5.63951">
        <ele>1315</ele>
        <time>2018-07-17T06:20:08Z</time>
      </trkpt>
      <trkpt lat="44.2665" lon="5.63951">
        <ele>1315</ele>
        <time>2018-07-17T06:20:11Z</time>
      </trkpt>
      <trkpt lat="44.26649" lon="5.63952">
        <ele>1315</ele>
        <time>2018-07-17T06:20:15Z</time>
      </trkpt>
      <trkpt lat="44.26651" lon="5.63952">
        <ele>1316</ele>
        <time>2018-07-17T06:20:24Z</time>
      </trkpt>
      <trkpt lat="44.2665" lon="5.63954">
        <ele>1317</ele>
        <time>2018-07-17T06:20:29Z</time>
      </trkpt>
      <trkpt lat="44.26649" lon="5.63955">
        <ele>1318</ele>
        <time>2018-07-17T06:20:33Z</time>
      </trkpt>
      <trkpt lat="44.26649" lon="5.63957">
        <ele>1320</ele>
        <time>2018-07-17T06:20:51Z</time>
      </trkpt>
      <trkpt lat="44.26649" lon="5.63955">
        <ele>1321</ele>
        <time>2018-07-17T06:21:07Z</time>
      </trkpt>
      <trkpt lat="44.26649" lon="5.63953">
        <ele>1321</ele>
        <time>2018-07-17T06:21:10Z</time>
      </trkpt>
      <trkpt lat="44.26651" lon="5.63952">
        <ele>1321</ele>
        <time>2018-07-17T06:21:14Z</time>
      </trkpt>
      <trkpt lat="44.26652" lon="5.63952">
        <ele>1321</ele>
        <time>2018-07-17T06:21:17Z</time>
      </trkpt>
      <trkpt lat="44.26653" lon="5.63953">
        <ele>1321</ele>
        <time>2018-07-17T06:21:20Z</time>
      </trkpt>
      <trkpt lat="44.26653" lon="5.63951">
        <ele>1320</ele>
        <time>2018-07-17T06:22:04Z</time>
      </trkpt>
      <trkpt lat="44.26654" lon="5.63952">
        <ele>1319</ele>
        <time>2018-07-17T06:22:45Z</time>
      </trkpt>
      <trkpt lat="44.26653" lon="5.6395">
        <ele>1319</ele>
        <time>2018-07-17T06:23:22Z</time>
      </trkpt>
      <trkpt lat="44.26653" lon="5.63948">
        <ele>1319</ele>
        <time>2018-07-17T06:23:26Z</time>
      </trkpt>
      <trkpt lat="44.26654" lon="5.63948">
        <ele>1319</ele>
        <time>2018-07-17T06:23:50Z</time>
      </trkpt>
      <trkpt lat="44.26656" lon="5.63948">
        <ele>1319</ele>
        <time>2018-07-17T06:24:02Z</time>
      </trkpt>
      <trkpt lat="44.26655" lon="5.6395">
        <ele>1318</ele>
        <time>2018-07-17T06:24:16Z</time>
      </trkpt>
      <trkpt lat="44.26654" lon="5.63951">
        <ele>1318</ele>
        <time>2018-07-17T06:24:20Z</time>
      </trkpt>
      <trkpt lat="44.26654" lon="5.63953">
        <ele>1318</ele>
        <time>2018-07-17T06:24:23Z</time>
      </trkpt>
      <trkpt lat="44.26653" lon="5.63955">
        <ele>1318</ele>
        <time>2018-07-17T06:24:27Z</time>
      </trkpt>
      <trkpt lat="44.26652" lon="5.63956">
        <ele>1318</ele>
        <time>2018-07-17T06:24:31Z</time>
      </trkpt>
      <trkpt lat="44.26651" lon="5.63956">
        <ele>1318</ele>
        <time>2018-07-17T06:24:33Z</time>
      </trkpt>
      <trkpt lat="44.26649" lon="5.63958">
        <ele>1317</ele>
        <time>2018-07-17T06:24:36Z</time>
      </trkpt>
      <trkpt lat="44.26648" lon="5.63959">
        <ele>1316</ele>
        <time>2018-07-17T06:24:42Z</time>
      </trkpt>
      <trkpt lat="44.26648" lon="5.63961">
        <ele>1316</ele>
        <time>2018-07-17T06:24:46Z</time>
      </trkpt>
      <trkpt lat="44.26647" lon="5.63963">
        <ele>1316</ele>
        <time>2018-07-17T06:24:48Z</time>
      </trkpt>
      <trkpt lat="44.26647" lon="5.63965">
        <ele>1315</ele>
        <time>2018-07-17T06:24:51Z</time>
      </trkpt>
      <trkpt lat="44.26647" lon="5.63967">
        <ele>1314</ele>
        <time>2018-07-17T06:24:53Z</time>
      </trkpt>
      <trkpt lat="44.26647" lon="5.63969">
        <ele>1314</ele>
        <time>2018-07-17T06:24:57Z</time>
      </trkpt>
      <trkpt lat="44.26648" lon="5.6397">
        <ele>1313</ele>
        <time>2018-07-17T06:24:59Z</time>
      </trkpt>
      <trkpt lat="44.26647" lon="5.63972">
        <ele>1313</ele>
        <time>2018-07-17T06:25:03Z</time>
      </trkpt>
      <trkpt lat="44.26647" lon="5.63973">
        <ele>1313</ele>
        <time>2018-07-17T06:25:12Z</time>
      </trkpt>
      <trkpt lat="44.26647" lon="5.63975">
        <ele>1313</ele>
        <time>2018-07-17T06:25:17Z</time>
      </trkpt>
      <trkpt lat="44.26646" lon="5.63975">
        <ele>1313</ele>
        <time>2018-07-17T06:25:24Z</time>
      </trkpt>
      <trkpt lat="44.26644" lon="5.63974">
        <ele>1312</ele>
        <time>2018-07-17T06:25:29Z</time>
      </trkpt>
      <trkpt lat="44.26643" lon="5.63974">
        <ele>1311</ele>
        <time>2018-07-17T06:25:33Z</time>
      </trkpt>
      <trkpt lat="44.26642" lon="5.63975">
        <ele>1311</ele>
        <time>2018-07-17T06:25:34Z</time>
      </trkpt>
      <trkpt lat="44.2664" lon="5.63977">
        <ele>1310</ele>
        <time>2018-07-17T06:25:36Z</time>
      </trkpt>
      <trkpt lat="44.26639" lon="5.63978">
        <ele>1310</ele>
        <time>2018-07-17T06:25:39Z</time>
      </trkpt>
      <trkpt lat="44.2664" lon="5.63977">
        <ele>1308</ele>
        <time>2018-07-17T06:25:50Z</time>
      </trkpt>
      <trkpt lat="44.26638" lon="5.63976">
        <ele>1306</ele>
        <time>2018-07-17T06:26:01Z</time>
      </trkpt>
      <trkpt lat="44.26639" lon="5.63978">
        <ele>1306</ele>
        <time>2018-07-17T06:26:26Z</time>
      </trkpt>
      <trkpt lat="44.26639" lon="5.6398">
        <ele>1306</ele>
        <time>2018-07-17T06:26:31Z</time>
      </trkpt>
      <trkpt lat="44.26638" lon="5.63979">
        <ele>1306</ele>
        <time>2018-07-17T06:26:35Z</time>
      </trkpt>
      <trkpt lat="44.26638" lon="5.63978">
        <ele>1306</ele>
        <time>2018-07-17T06:26:41Z</time>
      </trkpt>
      <trkpt lat="44.26638" lon="5.63979">
        <ele>1306</ele>
        <time>2018-07-17T06:26:51Z</time>
      </trkpt>
      <trkpt lat="44.26638" lon="5.63981">
        <ele>1307</ele>
        <time>2018-07-17T06:27:27Z</time>
      </trkpt>
      <trkpt lat="44.26639" lon="5.63981">
        <ele>1307</ele>
        <time>2018-07-17T06:27:35Z</time>
      </trkpt>
      <trkpt lat="44.2664" lon="5.6398">
        <ele>1307</ele>
        <time>2018-07-17T06:27:46Z</time>
      </trkpt>
      <trkpt lat="44.26638" lon="5.6398">
        <ele>1306</ele>
        <time>2018-07-17T06:28:06Z</time>
      </trkpt>
      <trkpt lat="44.26637" lon="5.63982">
        <ele>1306</ele>
        <time>2018-07-17T06:28:23Z</time>
      </trkpt>
      <trkpt lat="44.26638" lon="5.63983">
        <ele>1306</ele>
        <time>2018-07-17T06:28:34Z</time>
      </trkpt>
      <trkpt lat="44.26638" lon="5.63981">
        <ele>1306</ele>
        <time>2018-07-17T06:28:58Z</time>
      </trkpt>
      <trkpt lat="44.26638" lon="5.63983">
        <ele>1306</ele>
        <time>2018-07-17T06:29:14Z</time>
      </trkpt>
      <trkpt lat="44.26638" lon="5.63985">
        <ele>1304</ele>
        <time>2018-07-17T06:29:19Z</time>
      </trkpt>
      <trkpt lat="44.26638" lon="5.63986">
        <ele>1304</ele>
        <time>2018-07-17T06:29:21Z</time>
      </trkpt>
      <trkpt lat="44.26638" lon="5.63988">
        <ele>1304</ele>
        <time>2018-07-17T06:29:23Z</time>
      </trkpt>
      <trkpt lat="44.26638" lon="5.63989">
        <ele>1303</ele>
        <time>2018-07-17T06:29:26Z</time>
      </trkpt>
      <trkpt lat="44.26638" lon="5.63991">
        <ele>1302</ele>
        <time>2018-07-17T06:29:28Z</time>
      </trkpt>
      <trkpt lat="44.26638" lon="5.63993">
        <ele>1302</ele>
        <time>2018-07-17T06:29:30Z</time>
      </trkpt>
      <trkpt lat="44.26638" lon="5.63994">
        <ele>1301</ele>
        <time>2018-07-17T06:29:32Z</time>
      </trkpt>
      <trkpt lat="44.26638" lon="5.63996">
        <ele>1301</ele>
        <time>2018-07-17T06:29:34Z</time>
      </trkpt>
      <trkpt lat="44.26638" lon="5.63998">
        <ele>1300</ele>
        <time>2018-07-17T06:29:36Z</time>
      </trkpt>
      <trkpt lat="44.26638" lon="5.63999">
        <ele>1300</ele>
        <time>2018-07-17T06:29:38Z</time>
      </trkpt>
      <trkpt lat="44.26639" lon="5.64001">
        <ele>1299</ele>
        <time>2018-07-17T06:29:40Z</time>
      </trkpt>
      <trkpt lat="44.26639" lon="5.64003">
        <ele>1299</ele>
        <time>2018-07-17T06:29:42Z</time>
      </trkpt>
      <trkpt lat="44.26639" lon="5.64006">
        <ele>1299</ele>
        <time>2018-07-17T06:29:44Z</time>
      </trkpt>
      <trkpt lat="44.26639" lon="5.64008">
        <ele>1299</ele>
        <time>2018-07-17T06:29:46Z</time>
      </trkpt>
      <trkpt lat="44.2664" lon="5.6401">
        <ele>1298</ele>
        <time>2018-07-17T06:29:48Z</time>
      </trkpt>
      <trkpt lat="44.2664" lon="5.64012">
        <ele>1298</ele>
        <time>2018-07-17T06:29:51Z</time>
      </trkpt>
      <trkpt lat="44.26641" lon="5.64013">
        <ele>1298</ele>
        <time>2018-07-17T06:29:55Z</time>
      </trkpt>
      <trkpt lat="44.26642" lon="5.64014">
        <ele>1298</ele>
        <time>2018-07-17T06:29:57Z</time>
      </trkpt>
      <trkpt lat="44.26643" lon="5.64016">
        <ele>1298</ele>
        <time>2018-07-17T06:30:00Z</time>
      </trkpt>
      <trkpt lat="44.26643" lon="5.64018">
        <ele>1298</ele>
        <time>2018-07-17T06:30:02Z</time>
      </trkpt>
      <trkpt lat="44.26643" lon="5.64019">
        <ele>1298</ele>
        <time>2018-07-17T06:30:04Z</time>
      </trkpt>
      <trkpt lat="44.26642" lon="5.64021">
        <ele>1298</ele>
        <time>2018-07-17T06:30:06Z</time>
      </trkpt>
      <trkpt lat="44.26643" lon="5.64023">
        <ele>1298</ele>
        <time>2018-07-17T06:30:08Z</time>
      </trkpt>
      <trkpt lat="44.26644" lon="5.64024">
        <ele>1298</ele>
        <time>2018-07-17T06:30:09Z</time>
      </trkpt>
      <trkpt lat="44.26646" lon="5.64026">
        <ele>1298</ele>
        <time>2018-07-17T06:30:11Z</time>
      </trkpt>
      <trkpt lat="44.26646" lon="5.64028">
        <ele>1298</ele>
        <time>2018-07-17T06:30:13Z</time>
      </trkpt>
      <trkpt lat="44.26648" lon="5.6403">
        <ele>1298</ele>
        <time>2018-07-17T06:30:17Z</time>
      </trkpt>
      <trkpt lat="44.26649" lon="5.64031">
        <ele>1298</ele>
        <time>2018-07-17T06:30:19Z</time>
      </trkpt>
      <trkpt lat="44.2665" lon="5.64031">
        <ele>1298</ele>
        <time>2018-07-17T06:30:26Z</time>
      </trkpt>
      <trkpt lat="44.26649" lon="5.64029">
        <ele>1304</ele>
        <time>2018-07-17T06:30:43Z</time>
      </trkpt>
      <trkpt lat="44.26651" lon="5.6403">
        <ele>1305</ele>
        <time>2018-07-17T06:30:47Z</time>
      </trkpt>
      <trkpt lat="44.26652" lon="5.6403">
        <ele>1306</ele>
        <time>2018-07-17T06:30:50Z</time>
      </trkpt>
      <trkpt lat="44.26651" lon="5.64032">
        <ele>1306</ele>
        <time>2018-07-17T06:30:55Z</time>
      </trkpt>
      <trkpt lat="44.26652" lon="5.64034">
        <ele>1306</ele>
        <time>2018-07-17T06:30:58Z</time>
      </trkpt>
      <trkpt lat="44.26652" lon="5.64036">
        <ele>1306</ele>
        <time>2018-07-17T06:31:00Z</time>
      </trkpt>
      <trkpt lat="44.26654" lon="5.64037">
        <ele>1306</ele>
        <time>2018-07-17T06:31:02Z</time>
      </trkpt>
      <trkpt lat="44.26655" lon="5.64039">
        <ele>1306</ele>
        <time>2018-07-17T06:31:04Z</time>
      </trkpt>
      <trkpt lat="44.26656" lon="5.6404">
        <ele>1306</ele>
        <time>2018-07-17T06:31:06Z</time>
      </trkpt>
      <trkpt lat="44.26657" lon="5.64042">
        <ele>1306</ele>
        <time>2018-07-17T06:31:08Z</time>
      </trkpt>
      <trkpt lat="44.26659" lon="5.64043">
        <ele>1305</ele>
        <time>2018-07-17T06:31:10Z</time>
      </trkpt>
      <trkpt lat="44.26659" lon="5.64045">
        <ele>1304</ele>
        <time>2018-07-17T06:31:12Z</time>
      </trkpt>
      <trkpt lat="44.26659" lon="5.64047">
        <ele>1304</ele>
        <time>2018-07-17T06:31:14Z</time>
      </trkpt>
      <trkpt lat="44.26661" lon="5.64048">
        <ele>1304</ele>
        <time>2018-07-17T06:31:18Z</time>
      </trkpt>
      <trkpt lat="44.26663" lon="5.6405">
        <ele>1304</ele>
        <time>2018-07-17T06:31:20Z</time>
      </trkpt>
      <trkpt lat="44.26664" lon="5.6405">
        <ele>1304</ele>
        <time>2018-07-17T06:31:21Z</time>
      </trkpt>
      <trkpt lat="44.26665" lon="5.6405">
        <ele>1304</ele>
        <time>2018-07-17T06:31:22Z</time>
      </trkpt>
      <trkpt lat="44.26667" lon="5.64051">
        <ele>1304</ele>
        <time>2018-07-17T06:31:24Z</time>
      </trkpt>
      <trkpt lat="44.26669" lon="5.64052">
        <ele>1304</ele>
        <time>2018-07-17T06:31:26Z</time>
      </trkpt>
      <trkpt lat="44.2667" lon="5.64054">
        <ele>1304</ele>
        <time>2018-07-17T06:31:28Z</time>
      </trkpt>
      <trkpt lat="44.26672" lon="5.64055">
        <ele>1304</ele>
        <time>2018-07-17T06:31:30Z</time>
      </trkpt>
      <trkpt lat="44.26674" lon="5.64056">
        <ele>1304</ele>
        <time>2018-07-17T06:31:32Z</time>
      </trkpt>
      <trkpt lat="44.26675" lon="5.64057">
        <ele>1304</ele>
        <time>2018-07-17T06:31:34Z</time>
      </trkpt>
      <trkpt lat="44.26677" lon="5.64059">
        <ele>1304</ele>
        <time>2018-07-17T06:31:36Z</time>
      </trkpt>
      <trkpt lat="44.26678" lon="5.6406">
        <ele>1304</ele>
        <time>2018-07-17T06:31:38Z</time>
      </trkpt>
      <trkpt lat="44.2668" lon="5.64061">
        <ele>1304</ele>
        <time>2018-07-17T06:31:40Z</time>
      </trkpt>
      <trkpt lat="44.26682" lon="5.64063">
        <ele>1304</ele>
        <time>2018-07-17T06:31:43Z</time>
      </trkpt>
      <trkpt lat="44.26683" lon="5.64063">
        <ele>1304</ele>
        <time>2018-07-17T06:31:45Z</time>
      </trkpt>
      <trkpt lat="44.26685" lon="5.64064">
        <ele>1304</ele>
        <time>2018-07-17T06:31:46Z</time>
      </trkpt>
      <trkpt lat="44.26687" lon="5.64066">
        <ele>1304</ele>
        <time>2018-07-17T06:31:49Z</time>
      </trkpt>
      <trkpt lat="44.26689" lon="5.64067">
        <ele>1304</ele>
        <time>2018-07-17T06:31:51Z</time>
      </trkpt>
      <trkpt lat="44.2669" lon="5.64067">
        <ele>1304</ele>
        <time>2018-07-17T06:31:52Z</time>
      </trkpt>
      <trkpt lat="44.26691" lon="5.64067">
        <ele>1304</ele>
        <time>2018-07-17T06:31:54Z</time>
      </trkpt>
      <trkpt lat="44.26693" lon="5.64068">
        <ele>1304</ele>
        <time>2018-07-17T06:31:56Z</time>
      </trkpt>
      <trkpt lat="44.26694" lon="5.64069">
        <ele>1304</ele>
        <time>2018-07-17T06:31:58Z</time>
      </trkpt>
      <trkpt lat="44.26696" lon="5.6407">
        <ele>1304</ele>
        <time>2018-07-17T06:32:00Z</time>
      </trkpt>
      <trkpt lat="44.26697" lon="5.64071">
        <ele>1304</ele>
        <time>2018-07-17T06:32:02Z</time>
      </trkpt>
      <trkpt lat="44.26699" lon="5.64071">
        <ele>1304</ele>
        <time>2018-07-17T06:32:03Z</time>
      </trkpt>
      <trkpt lat="44.26701" lon="5.64071">
        <ele>1304</ele>
        <time>2018-07-17T06:32:05Z</time>
      </trkpt>
      <trkpt lat="44.26702" lon="5.64072">
        <ele>1305</ele>
        <time>2018-07-17T06:32:07Z</time>
      </trkpt>
      <trkpt lat="44.26704" lon="5.64073">
        <ele>1305</ele>
        <time>2018-07-17T06:32:09Z</time>
      </trkpt>
      <trkpt lat="44.26704" lon="5.64074">
        <ele>1305</ele>
        <time>2018-07-17T06:32:11Z</time>
      </trkpt>
      <trkpt lat="44.26704" lon="5.64077">
        <ele>1305</ele>
        <time>2018-07-17T06:32:13Z</time>
      </trkpt>
      <trkpt lat="44.26706" lon="5.64079">
        <ele>1305</ele>
        <time>2018-07-17T06:32:15Z</time>
      </trkpt>
      <trkpt lat="44.26706" lon="5.6408">
        <ele>1305</ele>
        <time>2018-07-17T06:32:17Z</time>
      </trkpt>
      <trkpt lat="44.26707" lon="5.64081">
        <ele>1305</ele>
        <time>2018-07-17T06:32:19Z</time>
      </trkpt>
      <trkpt lat="44.26708" lon="5.64083">
        <ele>1305</ele>
        <time>2018-07-17T06:32:21Z</time>
      </trkpt>
      <trkpt lat="44.26708" lon="5.64085">
        <ele>1305</ele>
        <time>2018-07-17T06:32:23Z</time>
      </trkpt>
      <trkpt lat="44.26709" lon="5.64087">
        <ele>1305</ele>
        <time>2018-07-17T06:32:25Z</time>
      </trkpt>
      <trkpt lat="44.26711" lon="5.64088">
        <ele>1305</ele>
        <time>2018-07-17T06:32:27Z</time>
      </trkpt>
      <trkpt lat="44.26712" lon="5.6409">
        <ele>1305</ele>
        <time>2018-07-17T06:32:29Z</time>
      </trkpt>
      <trkpt lat="44.26713" lon="5.64092">
        <ele>1304</ele>
        <time>2018-07-17T06:32:31Z</time>
      </trkpt>
      <trkpt lat="44.26714" lon="5.64094">
        <ele>1304</ele>
        <time>2018-07-17T06:32:33Z</time>
      </trkpt>
      <trkpt lat="44.26714" lon="5.64096">
        <ele>1304</ele>
        <time>2018-07-17T06:32:35Z</time>
      </trkpt>
      <trkpt lat="44.26714" lon="5.64098">
        <ele>1304</ele>
        <time>2018-07-17T06:32:37Z</time>
      </trkpt>
      <trkpt lat="44.26714" lon="5.641">
        <ele>1304</ele>
        <time>2018-07-17T06:32:38Z</time>
      </trkpt>
      <trkpt lat="44.26714" lon="5.64101">
        <ele>1304</ele>
        <time>2018-07-17T06:32:40Z</time>
      </trkpt>
      <trkpt lat="44.26714" lon="5.64104">
        <ele>1304</ele>
        <time>2018-07-17T06:32:42Z</time>
      </trkpt>
      <trkpt lat="44.26714" lon="5.64105">
        <ele>1304</ele>
        <time>2018-07-17T06:32:44Z</time>
      </trkpt>
      <trkpt lat="44.26714" lon="5.64108">
        <ele>1304</ele>
        <time>2018-07-17T06:32:46Z</time>
      </trkpt>
      <trkpt lat="44.26715" lon="5.6411">
        <ele>1304</ele>
        <time>2018-07-17T06:32:48Z</time>
      </trkpt>
      <trkpt lat="44.26716" lon="5.64112">
        <ele>1304</ele>
        <time>2018-07-17T06:32:50Z</time>
      </trkpt>
      <trkpt lat="44.26717" lon="5.64114">
        <ele>1304</ele>
        <time>2018-07-17T06:32:53Z</time>
      </trkpt>
      <trkpt lat="44.26717" lon="5.64116">
        <ele>1304</ele>
        <time>2018-07-17T06:32:55Z</time>
      </trkpt>
      <trkpt lat="44.26718" lon="5.64118">
        <ele>1304</ele>
        <time>2018-07-17T06:32:57Z</time>
      </trkpt>
      <trkpt lat="44.26719" lon="5.6412">
        <ele>1304</ele>
        <time>2018-07-17T06:32:58Z</time>
      </trkpt>
      <trkpt lat="44.26719" lon="5.64122">
        <ele>1304</ele>
        <time>2018-07-17T06:33:00Z</time>
      </trkpt>
      <trkpt lat="44.2672" lon="5.64124">
        <ele>1304</ele>
        <time>2018-07-17T06:33:02Z</time>
      </trkpt>
      <trkpt lat="44.2672" lon="5.64125">
        <ele>1304</ele>
        <time>2018-07-17T06:33:04Z</time>
      </trkpt>
      <trkpt lat="44.2672" lon="5.64127">
        <ele>1303</ele>
        <time>2018-07-17T06:33:06Z</time>
      </trkpt>
      <trkpt lat="44.2672" lon="5.64129">
        <ele>1303</ele>
        <time>2018-07-17T06:33:08Z</time>
      </trkpt>
      <trkpt lat="44.26721" lon="5.64131">
        <ele>1302</ele>
        <time>2018-07-17T06:33:10Z</time>
      </trkpt>
      <trkpt lat="44.26722" lon="5.64133">
        <ele>1302</ele>
        <time>2018-07-17T06:33:12Z</time>
      </trkpt>
      <trkpt lat="44.26723" lon="5.64135">
        <ele>1302</ele>
        <time>2018-07-17T06:33:14Z</time>
      </trkpt>
      <trkpt lat="44.26724" lon="5.64136">
        <ele>1301</ele>
        <time>2018-07-17T06:33:16Z</time>
      </trkpt>
      <trkpt lat="44.26725" lon="5.64138">
        <ele>1301</ele>
        <time>2018-07-17T06:33:18Z</time>
      </trkpt>
      <trkpt lat="44.26727" lon="5.64139">
        <ele>1300</ele>
        <time>2018-07-17T06:33:20Z</time>
      </trkpt>
      <trkpt lat="44.26728" lon="5.64141">
        <ele>1300</ele>
        <time>2018-07-17T06:33:23Z</time>
      </trkpt>
      <trkpt lat="44.26728" lon="5.64142">
        <ele>1299</ele>
        <time>2018-07-17T06:33:25Z</time>
      </trkpt>
      <trkpt lat="44.26729" lon="5.64144">
        <ele>1299</ele>
        <time>2018-07-17T06:33:28Z</time>
      </trkpt>
      <trkpt lat="44.2673" lon="5.64146">
        <ele>1299</ele>
        <time>2018-07-17T06:33:30Z</time>
      </trkpt>
      <trkpt lat="44.26731" lon="5.64148">
        <ele>1298</ele>
        <time>2018-07-17T06:33:32Z</time>
      </trkpt>
      <trkpt lat="44.26732" lon="5.64149">
        <ele>1298</ele>
        <time>2018-07-17T06:33:34Z</time>
      </trkpt>
      <trkpt lat="44.26734" lon="5.64151">
        <ele>1298</ele>
        <time>2018-07-17T06:33:36Z</time>
      </trkpt>
      <trkpt lat="44.26735" lon="5.64152">
        <ele>1298</ele>
        <time>2018-07-17T06:33:38Z</time>
      </trkpt>
      <trkpt lat="44.26736" lon="5.64152">
        <ele>1298</ele>
        <time>2018-07-17T06:33:42Z</time>
      </trkpt>
      <trkpt lat="44.26737" lon="5.64153">
        <ele>1298</ele>
        <time>2018-07-17T06:33:46Z</time>
      </trkpt>
      <trkpt lat="44.26738" lon="5.64153">
        <ele>1298</ele>
        <time>2018-07-17T06:34:00Z</time>
      </trkpt>
      <trkpt lat="44.2674" lon="5.64153">
        <ele>1300</ele>
        <time>2018-07-17T06:34:02Z</time>
      </trkpt>
      <trkpt lat="44.26738" lon="5.64153">
        <ele>1303</ele>
        <time>2018-07-17T06:34:15Z</time>
      </trkpt>
      <trkpt lat="44.26737" lon="5.64153">
        <ele>1303</ele>
        <time>2018-07-17T06:34:23Z</time>
      </trkpt>
      <trkpt lat="44.26737" lon="5.64154">
        <ele>1303</ele>
        <time>2018-07-17T06:34:32Z</time>
      </trkpt>
      <trkpt lat="44.26738" lon="5.64157">
        <ele>1303</ele>
        <time>2018-07-17T06:34:34Z</time>
      </trkpt>
      <trkpt lat="44.26738" lon="5.64159">
        <ele>1303</ele>
        <time>2018-07-17T06:34:36Z</time>
      </trkpt>
      <trkpt lat="44.26738" lon="5.6416">
        <ele>1303</ele>
        <time>2018-07-17T06:34:38Z</time>
      </trkpt>
      <trkpt lat="44.26738" lon="5.64162">
        <ele>1303</ele>
        <time>2018-07-17T06:34:40Z</time>
      </trkpt>
      <trkpt lat="44.26738" lon="5.64164">
        <ele>1303</ele>
        <time>2018-07-17T06:34:42Z</time>
      </trkpt>
      <trkpt lat="44.26738" lon="5.64166">
        <ele>1301</ele>
        <time>2018-07-17T06:34:49Z</time>
      </trkpt>
      <trkpt lat="44.26739" lon="5.64166">
        <ele>1300</ele>
        <time>2018-07-17T06:34:51Z</time>
      </trkpt>
      <trkpt lat="44.26741" lon="5.64166">
        <ele>1299</ele>
        <time>2018-07-17T06:34:59Z</time>
      </trkpt>
      <trkpt lat="44.2674" lon="5.64168">
        <ele>1299</ele>
        <time>2018-07-17T06:35:09Z</time>
      </trkpt>
      <trkpt lat="44.26738" lon="5.64168">
        <ele>1299</ele>
        <time>2018-07-17T06:35:11Z</time>
      </trkpt>
      <trkpt lat="44.26738" lon="5.64166">
        <ele>1299</ele>
        <time>2018-07-17T06:35:20Z</time>
      </trkpt>
      <trkpt lat="44.26739" lon="5.64165">
        <ele>1299</ele>
        <time>2018-07-17T06:35:33Z</time>
      </trkpt>
      <trkpt lat="44.2674" lon="5.64165">
        <ele>1299</ele>
        <time>2018-07-17T06:35:36Z</time>
      </trkpt>
      <trkpt lat="44.26739" lon="5.64165">
        <ele>1299</ele>
        <time>2018-07-17T06:35:48Z</time>
      </trkpt>
      <trkpt lat="44.26738" lon="5.64165">
        <ele>1299</ele>
        <time>2018-07-17T06:35:50Z</time>
      </trkpt>
      <trkpt lat="44.26736" lon="5.64165">
        <ele>1301</ele>
        <time>2018-07-17T06:35:58Z</time>
      </trkpt>
      <trkpt lat="44.26738" lon="5.64166">
        <ele>1301</ele>
        <time>2018-07-17T06:36:04Z</time>
      </trkpt>
      <trkpt lat="44.26739" lon="5.64167">
        <ele>1301</ele>
        <time>2018-07-17T06:36:08Z</time>
      </trkpt>
      <trkpt lat="44.2674" lon="5.64168">
        <ele>1301</ele>
        <time>2018-07-17T06:36:18Z</time>
      </trkpt>
      <trkpt lat="44.26739" lon="5.6417">
        <ele>1301</ele>
        <time>2018-07-17T06:36:38Z</time>
      </trkpt>
      <trkpt lat="44.26738" lon="5.6417">
        <ele>1301</ele>
        <time>2018-07-17T06:36:43Z</time>
      </trkpt>
      <trkpt lat="44.26737" lon="5.64171">
        <ele>1301</ele>
        <time>2018-07-17T06:36:48Z</time>
      </trkpt>
      <trkpt lat="44.26738" lon="5.64172">
        <ele>1301</ele>
        <time>2018-07-17T06:36:52Z</time>
      </trkpt>
      <trkpt lat="44.26739" lon="5.64173">
        <ele>1301</ele>
        <time>2018-07-17T06:36:54Z</time>
      </trkpt>
      <trkpt lat="44.26741" lon="5.64173">
        <ele>1301</ele>
        <time>2018-07-17T06:36:57Z</time>
      </trkpt>
      <trkpt lat="44.26742" lon="5.64174">
        <ele>1301</ele>
        <time>2018-07-17T06:37:00Z</time>
      </trkpt>
      <trkpt lat="44.26743" lon="5.64175">
        <ele>1301</ele>
        <time>2018-07-17T06:37:03Z</time>
      </trkpt>
      <trkpt lat="44.26745" lon="5.64177">
        <ele>1301</ele>
        <time>2018-07-17T06:37:05Z</time>
      </trkpt>
      <trkpt lat="44.26745" lon="5.64178">
        <ele>1301</ele>
        <time>2018-07-17T06:37:07Z</time>
      </trkpt>
      <trkpt lat="44.26745" lon="5.6418">
        <ele>1300</ele>
        <time>2018-07-17T06:37:09Z</time>
      </trkpt>
      <trkpt lat="44.26746" lon="5.64182">
        <ele>1300</ele>
        <time>2018-07-17T06:37:11Z</time>
      </trkpt>
      <trkpt lat="44.26746" lon="5.64184">
        <ele>1299</ele>
        <time>2018-07-17T06:37:13Z</time>
      </trkpt>
      <trkpt lat="44.26747" lon="5.64186">
        <ele>1298</ele>
        <time>2018-07-17T06:37:15Z</time>
      </trkpt>
      <trkpt lat="44.26748" lon="5.64187">
        <ele>1297</ele>
        <time>2018-07-17T06:37:18Z</time>
      </trkpt>
      <trkpt lat="44.26749" lon="5.64189">
        <ele>1297</ele>
        <time>2018-07-17T06:37:20Z</time>
      </trkpt>
      <trkpt lat="44.26749" lon="5.6419">
        <ele>1297</ele>
        <time>2018-07-17T06:37:22Z</time>
      </trkpt>
      <trkpt lat="44.26749" lon="5.64192">
        <ele>1296</ele>
        <time>2018-07-17T06:37:24Z</time>
      </trkpt>
      <trkpt lat="44.2675" lon="5.64194">
        <ele>1296</ele>
        <time>2018-07-17T06:37:26Z</time>
      </trkpt>
      <trkpt lat="44.26749" lon="5.64195">
        <ele>1295</ele>
        <time>2018-07-17T06:37:28Z</time>
      </trkpt>
      <trkpt lat="44.26749" lon="5.64197">
        <ele>1294</ele>
        <time>2018-07-17T06:37:30Z</time>
      </trkpt>
      <trkpt lat="44.2675" lon="5.64199">
        <ele>1293</ele>
        <time>2018-07-17T06:37:32Z</time>
      </trkpt>
      <trkpt lat="44.2675" lon="5.64201">
        <ele>1293</ele>
        <time>2018-07-17T06:37:34Z</time>
      </trkpt>
      <trkpt lat="44.2675" lon="5.64203">
        <ele>1293</ele>
        <time>2018-07-17T06:37:36Z</time>
      </trkpt>
      <trkpt lat="44.2675" lon="5.64206">
        <ele>1293</ele>
        <time>2018-07-17T06:37:38Z</time>
      </trkpt>
      <trkpt lat="44.26749" lon="5.64207">
        <ele>1293</ele>
        <time>2018-07-17T06:37:40Z</time>
      </trkpt>
      <trkpt lat="44.26749" lon="5.64209">
        <ele>1293</ele>
        <time>2018-07-17T06:37:42Z</time>
      </trkpt>
      <trkpt lat="44.26748" lon="5.64211">
        <ele>1293</ele>
        <time>2018-07-17T06:37:44Z</time>
      </trkpt>
      <trkpt lat="44.26747" lon="5.64213">
        <ele>1293</ele>
        <time>2018-07-17T06:37:46Z</time>
      </trkpt>
      <trkpt lat="44.26747" lon="5.64216">
        <ele>1293</ele>
        <time>2018-07-17T06:37:48Z</time>
      </trkpt>
      <trkpt lat="44.26747" lon="5.64218">
        <ele>1293</ele>
        <time>2018-07-17T06:37:50Z</time>
      </trkpt>
      <trkpt lat="44.26748" lon="5.64219">
        <ele>1293</ele>
        <time>2018-07-17T06:37:53Z</time>
      </trkpt>
      <trkpt lat="44.26748" lon="5.64222">
        <ele>1293</ele>
        <time>2018-07-17T06:37:56Z</time>
      </trkpt>
      <trkpt lat="44.26748" lon="5.64224">
        <ele>1293</ele>
        <time>2018-07-17T06:37:58Z</time>
      </trkpt>
      <trkpt lat="44.26749" lon="5.64225">
        <ele>1293</ele>
        <time>2018-07-17T06:38:00Z</time>
      </trkpt>
      <trkpt lat="44.26749" lon="5.64227">
        <ele>1293</ele>
        <time>2018-07-17T06:38:02Z</time>
      </trkpt>
      <trkpt lat="44.26748" lon="5.64229">
        <ele>1292</ele>
        <time>2018-07-17T06:38:04Z</time>
      </trkpt>
      <trkpt lat="44.26748" lon="5.64231">
        <ele>1292</ele>
        <time>2018-07-17T06:38:06Z</time>
      </trkpt>
      <trkpt lat="44.26748" lon="5.64233">
        <ele>1291</ele>
        <time>2018-07-17T06:38:08Z</time>
      </trkpt>
      <trkpt lat="44.26748" lon="5.64235">
        <ele>1291</ele>
        <time>2018-07-17T06:38:09Z</time>
      </trkpt>
      <trkpt lat="44.26748" lon="5.64237">
        <ele>1291</ele>
        <time>2018-07-17T06:38:10Z</time>
      </trkpt>
      <trkpt lat="44.26748" lon="5.64239">
        <ele>1291</ele>
        <time>2018-07-17T06:38:11Z</time>
      </trkpt>
      <trkpt lat="44.26746" lon="5.64241">
        <ele>1291</ele>
        <time>2018-07-17T06:38:13Z</time>
      </trkpt>
      <trkpt lat="44.26745" lon="5.64244">
        <ele>1291</ele>
        <time>2018-07-17T06:38:15Z</time>
      </trkpt>
      <trkpt lat="44.26745" lon="5.64246">
        <ele>1291</ele>
        <time>2018-07-17T06:38:17Z</time>
      </trkpt>
      <trkpt lat="44.26745" lon="5.64249">
        <ele>1291</ele>
        <time>2018-07-17T06:38:19Z</time>
      </trkpt>
      <trkpt lat="44.26746" lon="5.6425">
        <ele>1291</ele>
        <time>2018-07-17T06:38:21Z</time>
      </trkpt>
      <trkpt lat="44.26745" lon="5.64252">
        <ele>1291</ele>
        <time>2018-07-17T06:38:23Z</time>
      </trkpt>
      <trkpt lat="44.26746" lon="5.64253">
        <ele>1291</ele>
        <time>2018-07-17T06:38:24Z</time>
      </trkpt>
      <trkpt lat="44.26746" lon="5.64256">
        <ele>1291</ele>
        <time>2018-07-17T06:38:26Z</time>
      </trkpt>
      <trkpt lat="44.26745" lon="5.64258">
        <ele>1291</ele>
        <time>2018-07-17T06:38:28Z</time>
      </trkpt>
      <trkpt lat="44.26744" lon="5.6426">
        <ele>1291</ele>
        <time>2018-07-17T06:38:30Z</time>
      </trkpt>
      <trkpt lat="44.26741" lon="5.64261">
        <ele>1291</ele>
        <time>2018-07-17T06:38:32Z</time>
      </trkpt>
      <trkpt lat="44.26743" lon="5.64262">
        <ele>1291</ele>
        <time>2018-07-17T06:38:34Z</time>
      </trkpt>
      <trkpt lat="44.26743" lon="5.64263">
        <ele>1291</ele>
        <time>2018-07-17T06:38:36Z</time>
      </trkpt>
      <trkpt lat="44.26744" lon="5.64265">
        <ele>1291</ele>
        <time>2018-07-17T06:38:38Z</time>
      </trkpt>
      <trkpt lat="44.26744" lon="5.64267">
        <ele>1291</ele>
        <time>2018-07-17T06:38:40Z</time>
      </trkpt>
      <trkpt lat="44.26744" lon="5.64268">
        <ele>1291</ele>
        <time>2018-07-17T06:38:42Z</time>
      </trkpt>
      <trkpt lat="44.26746" lon="5.64269">
        <ele>1291</ele>
        <time>2018-07-17T06:38:48Z</time>
      </trkpt>
      <trkpt lat="44.26748" lon="5.64269">
        <ele>1291</ele>
        <time>2018-07-17T06:38:50Z</time>
      </trkpt>
      <trkpt lat="44.26749" lon="5.64269">
        <ele>1291</ele>
        <time>2018-07-17T06:38:51Z</time>
      </trkpt>
      <trkpt lat="44.26751" lon="5.64271">
        <ele>1291</ele>
        <time>2018-07-17T06:38:53Z</time>
      </trkpt>
      <trkpt lat="44.26752" lon="5.64271">
        <ele>1291</ele>
        <time>2018-07-17T06:38:55Z</time>
      </trkpt>
      <trkpt lat="44.26753" lon="5.6427">
        <ele>1292</ele>
        <time>2018-07-17T06:38:58Z</time>
      </trkpt>
      <trkpt lat="44.26751" lon="5.64271">
        <ele>1293</ele>
        <time>2018-07-17T06:39:02Z</time>
      </trkpt>
      <trkpt lat="44.2675" lon="5.64271">
        <ele>1293</ele>
        <time>2018-07-17T06:39:04Z</time>
      </trkpt>
      <trkpt lat="44.26747" lon="5.64272">
        <ele>1293</ele>
        <time>2018-07-17T06:39:06Z</time>
      </trkpt>
      <trkpt lat="44.26745" lon="5.64272">
        <ele>1293</ele>
        <time>2018-07-17T06:39:09Z</time>
      </trkpt>
      <trkpt lat="44.26746" lon="5.64271">
        <ele>1293</ele>
        <time>2018-07-17T06:39:20Z</time>
      </trkpt>
      <trkpt lat="44.26747" lon="5.64271">
        <ele>1293</ele>
        <time>2018-07-17T06:39:22Z</time>
      </trkpt>
      <trkpt lat="44.26748" lon="5.64271">
        <ele>1294</ele>
        <time>2018-07-17T06:39:23Z</time>
      </trkpt>
      <trkpt lat="44.26749" lon="5.64273">
        <ele>1295</ele>
        <time>2018-07-17T06:39:25Z</time>
      </trkpt>
      <trkpt lat="44.26751" lon="5.64275">
        <ele>1296</ele>
        <time>2018-07-17T06:39:28Z</time>
      </trkpt>
      <trkpt lat="44.26752" lon="5.64277">
        <ele>1296</ele>
        <time>2018-07-17T06:39:30Z</time>
      </trkpt>
      <trkpt lat="44.26753" lon="5.64278">
        <ele>1296</ele>
        <time>2018-07-17T06:39:32Z</time>
      </trkpt>
      <trkpt lat="44.26754" lon="5.6428">
        <ele>1296</ele>
        <time>2018-07-17T06:39:34Z</time>
      </trkpt>
      <trkpt lat="44.26755" lon="5.64281">
        <ele>1296</ele>
        <time>2018-07-17T06:39:36Z</time>
      </trkpt>
      <trkpt lat="44.26754" lon="5.64283">
        <ele>1296</ele>
        <time>2018-07-17T06:39:39Z</time>
      </trkpt>
      <trkpt lat="44.26756" lon="5.64284">
        <ele>1296</ele>
        <time>2018-07-17T06:39:48Z</time>
      </trkpt>
      <trkpt lat="44.26757" lon="5.64284">
        <ele>1296</ele>
        <time>2018-07-17T06:39:49Z</time>
      </trkpt>
      <trkpt lat="44.26757" lon="5.64286">
        <ele>1296</ele>
        <time>2018-07-17T06:39:51Z</time>
      </trkpt>
      <trkpt lat="44.26757" lon="5.64288">
        <ele>1296</ele>
        <time>2018-07-17T06:39:53Z</time>
      </trkpt>
      <trkpt lat="44.26757" lon="5.6429">
        <ele>1296</ele>
        <time>2018-07-17T06:39:55Z</time>
      </trkpt>
      <trkpt lat="44.26758" lon="5.64291">
        <ele>1296</ele>
        <time>2018-07-17T06:39:57Z</time>
      </trkpt>
      <trkpt lat="44.26759" lon="5.64292">
        <ele>1296</ele>
        <time>2018-07-17T06:39:58Z</time>
      </trkpt>
      <trkpt lat="44.2676" lon="5.64294">
        <ele>1296</ele>
        <time>2018-07-17T06:40:00Z</time>
      </trkpt>
      <trkpt lat="44.2676" lon="5.64295">
        <ele>1296</ele>
        <time>2018-07-17T06:40:02Z</time>
      </trkpt>
      <trkpt lat="44.26761" lon="5.64297">
        <ele>1296</ele>
        <time>2018-07-17T06:40:04Z</time>
      </trkpt>
      <trkpt lat="44.26762" lon="5.64298">
        <ele>1296</ele>
        <time>2018-07-17T06:40:06Z</time>
      </trkpt>
      <trkpt lat="44.26764" lon="5.64298">
        <ele>1296</ele>
        <time>2018-07-17T06:40:08Z</time>
      </trkpt>
      <trkpt lat="44.26764" lon="5.64299">
        <ele>1296</ele>
        <time>2018-07-17T06:40:12Z</time>
      </trkpt>
      <trkpt lat="44.26766" lon="5.643">
        <ele>1296</ele>
        <time>2018-07-17T06:40:14Z</time>
      </trkpt>
      <trkpt lat="44.26767" lon="5.64302">
        <ele>1296</ele>
        <time>2018-07-17T06:40:16Z</time>
      </trkpt>
      <trkpt lat="44.26768" lon="5.64304">
        <ele>1296</ele>
        <time>2018-07-17T06:40:18Z</time>
      </trkpt>
      <trkpt lat="44.26769" lon="5.64305">
        <ele>1296</ele>
        <time>2018-07-17T06:40:20Z</time>
      </trkpt>
      <trkpt lat="44.26769" lon="5.64307">
        <ele>1296</ele>
        <time>2018-07-17T06:40:22Z</time>
      </trkpt>
      <trkpt lat="44.26769" lon="5.64309">
        <ele>1296</ele>
        <time>2018-07-17T06:40:25Z</time>
      </trkpt>
      <trkpt lat="44.2677" lon="5.64311">
        <ele>1296</ele>
        <time>2018-07-17T06:40:28Z</time>
      </trkpt>
      <trkpt lat="44.26769" lon="5.64313">
        <ele>1296</ele>
        <time>2018-07-17T06:40:31Z</time>
      </trkpt>
      <trkpt lat="44.2677" lon="5.64315">
        <ele>1296</ele>
        <time>2018-07-17T06:40:33Z</time>
      </trkpt>
      <trkpt lat="44.2677" lon="5.64316">
        <ele>1296</ele>
        <time>2018-07-17T06:40:35Z</time>
      </trkpt>
      <trkpt lat="44.2677" lon="5.64318">
        <ele>1296</ele>
        <time>2018-07-17T06:40:37Z</time>
      </trkpt>
      <trkpt lat="44.2677" lon="5.6432">
        <ele>1296</ele>
        <time>2018-07-17T06:40:39Z</time>
      </trkpt>
      <trkpt lat="44.2677" lon="5.64322">
        <ele>1296</ele>
        <time>2018-07-17T06:40:41Z</time>
      </trkpt>
      <trkpt lat="44.26771" lon="5.64324">
        <ele>1296</ele>
        <time>2018-07-17T06:40:43Z</time>
      </trkpt>
      <trkpt lat="44.26771" lon="5.64326">
        <ele>1296</ele>
        <time>2018-07-17T06:40:45Z</time>
      </trkpt>
      <trkpt lat="44.26771" lon="5.64327">
        <ele>1296</ele>
        <time>2018-07-17T06:40:47Z</time>
      </trkpt>
      <trkpt lat="44.26772" lon="5.64329">
        <ele>1296</ele>
        <time>2018-07-17T06:40:49Z</time>
      </trkpt>
      <trkpt lat="44.26772" lon="5.64331">
        <ele>1296</ele>
        <time>2018-07-17T06:40:51Z</time>
      </trkpt>
      <trkpt lat="44.26774" lon="5.64332">
        <ele>1296</ele>
        <time>2018-07-17T06:40:54Z</time>
      </trkpt>
      <trkpt lat="44.26775" lon="5.64333">
        <ele>1296</ele>
        <time>2018-07-17T06:40:57Z</time>
      </trkpt>
      <trkpt lat="44.26776" lon="5.64334">
        <ele>1296</ele>
        <time>2018-07-17T06:40:59Z</time>
      </trkpt>
      <trkpt lat="44.26778" lon="5.64336">
        <ele>1296</ele>
        <time>2018-07-17T06:41:03Z</time>
      </trkpt>
      <trkpt lat="44.26779" lon="5.64338">
        <ele>1296</ele>
        <time>2018-07-17T06:41:05Z</time>
      </trkpt>
      <trkpt lat="44.26782" lon="5.6434">
        <ele>1296</ele>
        <time>2018-07-17T06:41:07Z</time>
      </trkpt>
      <trkpt lat="44.26781" lon="5.64342">
        <ele>1296</ele>
        <time>2018-07-17T06:41:09Z</time>
      </trkpt>
      <trkpt lat="44.26783" lon="5.64343">
        <ele>1296</ele>
        <time>2018-07-17T06:41:12Z</time>
      </trkpt>
      <trkpt lat="44.26783" lon="5.64345">
        <ele>1296</ele>
        <time>2018-07-17T06:41:14Z</time>
      </trkpt>
      <trkpt lat="44.26784" lon="5.64346">
        <ele>1296</ele>
        <time>2018-07-17T06:41:16Z</time>
      </trkpt>
      <trkpt lat="44.26785" lon="5.64348">
        <ele>1296</ele>
        <time>2018-07-17T06:41:18Z</time>
      </trkpt>
      <trkpt lat="44.26785" lon="5.64349">
        <ele>1296</ele>
        <time>2018-07-17T06:41:20Z</time>
      </trkpt>
      <trkpt lat="44.26785" lon="5.64351">
        <ele>1296</ele>
        <time>2018-07-17T06:41:22Z</time>
      </trkpt>
      <trkpt lat="44.26786" lon="5.64352">
        <ele>1296</ele>
        <time>2018-07-17T06:41:24Z</time>
      </trkpt>
      <trkpt lat="44.26786" lon="5.64354">
        <ele>1296</ele>
        <time>2018-07-17T06:41:26Z</time>
      </trkpt>
      <trkpt lat="44.26786" lon="5.64356">
        <ele>1296</ele>
        <time>2018-07-17T06:41:29Z</time>
      </trkpt>
      <trkpt lat="44.26788" lon="5.64357">
        <ele>1296</ele>
        <time>2018-07-17T06:41:31Z</time>
      </trkpt>
      <trkpt lat="44.2679" lon="5.64359">
        <ele>1296</ele>
        <time>2018-07-17T06:41:33Z</time>
      </trkpt>
      <trkpt lat="44.26791" lon="5.64361">
        <ele>1296</ele>
        <time>2018-07-17T06:41:35Z</time>
      </trkpt>
      <trkpt lat="44.2679" lon="5.64362">
        <ele>1296</ele>
        <time>2018-07-17T06:41:37Z</time>
      </trkpt>
      <trkpt lat="44.26791" lon="5.64364">
        <ele>1296</ele>
        <time>2018-07-17T06:41:40Z</time>
      </trkpt>
      <trkpt lat="44.26791" lon="5.64365">
        <ele>1296</ele>
        <time>2018-07-17T06:41:42Z</time>
      </trkpt>
      <trkpt lat="44.26792" lon="5.64366">
        <ele>1296</ele>
        <time>2018-07-17T06:41:43Z</time>
      </trkpt>
      <trkpt lat="44.26793" lon="5.64368">
        <ele>1296</ele>
        <time>2018-07-17T06:41:46Z</time>
      </trkpt>
      <trkpt lat="44.26793" lon="5.64369">
        <ele>1296</ele>
        <time>2018-07-17T06:41:48Z</time>
      </trkpt>
      <trkpt lat="44.26794" lon="5.64372">
        <ele>1296</ele>
        <time>2018-07-17T06:41:51Z</time>
      </trkpt>
      <trkpt lat="44.26795" lon="5.64373">
        <ele>1296</ele>
        <time>2018-07-17T06:41:54Z</time>
      </trkpt>
      <trkpt lat="44.26796" lon="5.64375">
        <ele>1296</ele>
        <time>2018-07-17T06:41:57Z</time>
      </trkpt>
      <trkpt lat="44.26797" lon="5.64377">
        <ele>1296</ele>
        <time>2018-07-17T06:42:00Z</time>
      </trkpt>
      <trkpt lat="44.26798" lon="5.64378">
        <ele>1296</ele>
        <time>2018-07-17T06:42:03Z</time>
      </trkpt>
      <trkpt lat="44.26799" lon="5.6438">
        <ele>1297</ele>
        <time>2018-07-17T06:42:06Z</time>
      </trkpt>
      <trkpt lat="44.268" lon="5.64381">
        <ele>1297</ele>
        <time>2018-07-17T06:42:07Z</time>
      </trkpt>
      <trkpt lat="44.268" lon="5.64382">
        <ele>1297</ele>
        <time>2018-07-17T06:42:09Z</time>
      </trkpt>
      <trkpt lat="44.26801" lon="5.64384">
        <ele>1297</ele>
        <time>2018-07-17T06:42:12Z</time>
      </trkpt>
      <trkpt lat="44.26801" lon="5.64386">
        <ele>1297</ele>
        <time>2018-07-17T06:42:14Z</time>
      </trkpt>
      <trkpt lat="44.26801" lon="5.64388">
        <ele>1297</ele>
        <time>2018-07-17T06:42:16Z</time>
      </trkpt>
      <trkpt lat="44.26801" lon="5.64389">
        <ele>1297</ele>
        <time>2018-07-17T06:42:18Z</time>
      </trkpt>
      <trkpt lat="44.26801" lon="5.64391">
        <ele>1297</ele>
        <time>2018-07-17T06:42:20Z</time>
      </trkpt>
      <trkpt lat="44.26802" lon="5.64393">
        <ele>1297</ele>
        <time>2018-07-17T06:42:22Z</time>
      </trkpt>
      <trkpt lat="44.26804" lon="5.64395">
        <ele>1297</ele>
        <time>2018-07-17T06:42:24Z</time>
      </trkpt>
      <trkpt lat="44.26804" lon="5.64397">
        <ele>1298</ele>
        <time>2018-07-17T06:42:27Z</time>
      </trkpt>
      <trkpt lat="44.26805" lon="5.64399">
        <ele>1298</ele>
        <time>2018-07-17T06:42:29Z</time>
      </trkpt>
      <trkpt lat="44.26806" lon="5.64401">
        <ele>1299</ele>
        <time>2018-07-17T06:42:31Z</time>
      </trkpt>
      <trkpt lat="44.26806" lon="5.64402">
        <ele>1299</ele>
        <time>2018-07-17T06:42:33Z</time>
      </trkpt>
      <trkpt lat="44.26806" lon="5.64404">
        <ele>1299</ele>
        <time>2018-07-17T06:42:35Z</time>
      </trkpt>
      <trkpt lat="44.26806" lon="5.64406">
        <ele>1299</ele>
        <time>2018-07-17T06:42:37Z</time>
      </trkpt>
      <trkpt lat="44.26807" lon="5.64408">
        <ele>1299</ele>
        <time>2018-07-17T06:42:39Z</time>
      </trkpt>
      <trkpt lat="44.26807" lon="5.6441">
        <ele>1299</ele>
        <time>2018-07-17T06:42:41Z</time>
      </trkpt>
      <trkpt lat="44.26808" lon="5.64411">
        <ele>1299</ele>
        <time>2018-07-17T06:42:43Z</time>
      </trkpt>
      <trkpt lat="44.26808" lon="5.64413">
        <ele>1299</ele>
        <time>2018-07-17T06:42:45Z</time>
      </trkpt>
      <trkpt lat="44.26809" lon="5.64415">
        <ele>1299</ele>
        <time>2018-07-17T06:42:47Z</time>
      </trkpt>
      <trkpt lat="44.26809" lon="5.64416">
        <ele>1300</ele>
        <time>2018-07-17T06:42:49Z</time>
      </trkpt>
      <trkpt lat="44.2681" lon="5.64418">
        <ele>1300</ele>
        <time>2018-07-17T06:42:51Z</time>
      </trkpt>
      <trkpt lat="44.2681" lon="5.6442">
        <ele>1300</ele>
        <time>2018-07-17T06:42:53Z</time>
      </trkpt>
      <trkpt lat="44.2681" lon="5.64422">
        <ele>1300</ele>
        <time>2018-07-17T06:42:56Z</time>
      </trkpt>
      <trkpt lat="44.26811" lon="5.64423">
        <ele>1300</ele>
        <time>2018-07-17T06:42:58Z</time>
      </trkpt>
      <trkpt lat="44.26812" lon="5.64425">
        <ele>1300</ele>
        <time>2018-07-17T06:43:00Z</time>
      </trkpt>
      <trkpt lat="44.26812" lon="5.64427">
        <ele>1300</ele>
        <time>2018-07-17T06:43:02Z</time>
      </trkpt>
      <trkpt lat="44.26812" lon="5.64429">
        <ele>1300</ele>
        <time>2018-07-17T06:43:04Z</time>
      </trkpt>
      <trkpt lat="44.26813" lon="5.6443">
        <ele>1300</ele>
        <time>2018-07-17T06:43:06Z</time>
      </trkpt>
      <trkpt lat="44.26814" lon="5.64432">
        <ele>1300</ele>
        <time>2018-07-17T06:43:08Z</time>
      </trkpt>
      <trkpt lat="44.26814" lon="5.64433">
        <ele>1300</ele>
        <time>2018-07-17T06:43:10Z</time>
      </trkpt>
      <trkpt lat="44.26815" lon="5.64435">
        <ele>1300</ele>
        <time>2018-07-17T06:43:12Z</time>
      </trkpt>
      <trkpt lat="44.26815" lon="5.64436">
        <ele>1300</ele>
        <time>2018-07-17T06:43:14Z</time>
      </trkpt>
      <trkpt lat="44.26816" lon="5.64438">
        <ele>1300</ele>
        <time>2018-07-17T06:43:16Z</time>
      </trkpt>
      <trkpt lat="44.26817" lon="5.6444">
        <ele>1300</ele>
        <time>2018-07-17T06:43:18Z</time>
      </trkpt>
      <trkpt lat="44.26818" lon="5.64442">
        <ele>1300</ele>
        <time>2018-07-17T06:43:21Z</time>
      </trkpt>
      <trkpt lat="44.26819" lon="5.64443">
        <ele>1300</ele>
        <time>2018-07-17T06:43:23Z</time>
      </trkpt>
      <trkpt lat="44.2682" lon="5.64445">
        <ele>1301</ele>
        <time>2018-07-17T06:43:26Z</time>
      </trkpt>
      <trkpt lat="44.26821" lon="5.64446">
        <ele>1301</ele>
        <time>2018-07-17T06:43:28Z</time>
      </trkpt>
      <trkpt lat="44.26822" lon="5.64448">
        <ele>1301</ele>
        <time>2018-07-17T06:43:30Z</time>
      </trkpt>
      <trkpt lat="44.26822" lon="5.6445">
        <ele>1301</ele>
        <time>2018-07-17T06:43:33Z</time>
      </trkpt>
      <trkpt lat="44.26823" lon="5.64451">
        <ele>1301</ele>
        <time>2018-07-17T06:43:36Z</time>
      </trkpt>
      <trkpt lat="44.26825" lon="5.64452">
        <ele>1301</ele>
        <time>2018-07-17T06:43:38Z</time>
      </trkpt>
      <trkpt lat="44.26826" lon="5.64453">
        <ele>1301</ele>
        <time>2018-07-17T06:43:40Z</time>
      </trkpt>
      <trkpt lat="44.26828" lon="5.64454">
        <ele>1301</ele>
        <time>2018-07-17T06:43:42Z</time>
      </trkpt>
      <trkpt lat="44.26829" lon="5.64455">
        <ele>1301</ele>
        <time>2018-07-17T06:43:44Z</time>
      </trkpt>
      <trkpt lat="44.26831" lon="5.64456">
        <ele>1301</ele>
        <time>2018-07-17T06:43:46Z</time>
      </trkpt>
      <trkpt lat="44.26833" lon="5.64457">
        <ele>1301</ele>
        <time>2018-07-17T06:43:47Z</time>
      </trkpt>
      <trkpt lat="44.26834" lon="5.64457">
        <ele>1301</ele>
        <time>2018-07-17T06:43:48Z</time>
      </trkpt>
      <trkpt lat="44.26836" lon="5.64457">
        <ele>1301</ele>
        <time>2018-07-17T06:43:50Z</time>
      </trkpt>
      <trkpt lat="44.26837" lon="5.64455">
        <ele>1301</ele>
        <time>2018-07-17T06:43:53Z</time>
      </trkpt>
      <trkpt lat="44.26838" lon="5.64455">
        <ele>1303</ele>
        <time>2018-07-17T06:44:06Z</time>
      </trkpt>
      <trkpt lat="44.26839" lon="5.64454">
        <ele>1303</ele>
        <time>2018-07-17T06:44:09Z</time>
      </trkpt>
      <trkpt lat="44.2684" lon="5.64452">
        <ele>1303</ele>
        <time>2018-07-17T06:44:12Z</time>
      </trkpt>
      <trkpt lat="44.26841" lon="5.64452">
        <ele>1303</ele>
        <time>2018-07-17T06:44:16Z</time>
      </trkpt>
      <trkpt lat="44.26841" lon="5.64453">
        <ele>1303</ele>
        <time>2018-07-17T06:44:39Z</time>
      </trkpt>
      <trkpt lat="44.2684" lon="5.64454">
        <ele>1303</ele>
        <time>2018-07-17T06:44:53Z</time>
      </trkpt>
      <trkpt lat="44.26841" lon="5.64452">
        <ele>1303</ele>
        <time>2018-07-17T06:45:19Z</time>
      </trkpt>
      <trkpt lat="44.26841" lon="5.64454">
        <ele>1303</ele>
        <time>2018-07-17T06:45:47Z</time>
      </trkpt>
      <trkpt lat="44.26841" lon="5.64455">
        <ele>1303</ele>
        <time>2018-07-17T06:46:17Z</time>
      </trkpt>
      <trkpt lat="44.26839" lon="5.64455">
        <ele>1303</ele>
        <time>2018-07-17T06:46:31Z</time>
      </trkpt>
      <trkpt lat="44.2684" lon="5.64454">
        <ele>1303</ele>
        <time>2018-07-17T06:46:57Z</time>
      </trkpt>
      <trkpt lat="44.2684" lon="5.64456">
        <ele>1303</ele>
        <time>2018-07-17T06:47:05Z</time>
      </trkpt>
      <trkpt lat="44.26839" lon="5.64457">
        <ele>1303</ele>
        <time>2018-07-17T06:47:08Z</time>
      </trkpt>
      <trkpt lat="44.26838" lon="5.64459">
        <ele>1303</ele>
        <time>2018-07-17T06:47:11Z</time>
      </trkpt>
      <trkpt lat="44.26837" lon="5.6446">
        <ele>1303</ele>
        <time>2018-07-17T06:47:17Z</time>
      </trkpt>
      <trkpt lat="44.26836" lon="5.6446">
        <ele>1304</ele>
        <time>2018-07-17T06:47:28Z</time>
      </trkpt>
      <trkpt lat="44.26835" lon="5.64461">
        <ele>1305</ele>
        <time>2018-07-17T06:48:09Z</time>
      </trkpt>
      <trkpt lat="44.26834" lon="5.64462">
        <ele>1306</ele>
        <time>2018-07-17T06:48:43Z</time>
      </trkpt>
      <trkpt lat="44.26833" lon="5.64461">
        <ele>1306</ele>
        <time>2018-07-17T06:49:18Z</time>
      </trkpt>
      <trkpt lat="44.26833" lon="5.6446">
        <ele>1306</ele>
        <time>2018-07-17T06:49:33Z</time>
      </trkpt>
      <trkpt lat="44.26831" lon="5.64459">
        <ele>1306</ele>
        <time>2018-07-17T06:49:47Z</time>
      </trkpt>
      <trkpt lat="44.26833" lon="5.64459">
        <ele>1306</ele>
        <time>2018-07-17T06:49:58Z</time>
      </trkpt>
      <trkpt lat="44.26833" lon="5.6446">
        <ele>1306</ele>
        <time>2018-07-17T06:50:15Z</time>
      </trkpt>
      <trkpt lat="44.26832" lon="5.6446">
        <ele>1306</ele>
        <time>2018-07-17T06:50:36Z</time>
      </trkpt>
      <trkpt lat="44.26831" lon="5.64462">
        <ele>1306</ele>
        <time>2018-07-17T06:50:56Z</time>
      </trkpt>
      <trkpt lat="44.26833" lon="5.64462">
        <ele>1305</ele>
        <time>2018-07-17T06:51:36Z</time>
      </trkpt>
      <trkpt lat="44.26834" lon="5.64461">
        <ele>1305</ele>
        <time>2018-07-17T06:51:55Z</time>
      </trkpt>
      <trkpt lat="44.26834" lon="5.64463">
        <ele>1308</ele>
        <time>2018-07-17T06:53:17Z</time>
      </trkpt>
      <trkpt lat="44.26836" lon="5.64463">
        <ele>1308</ele>
        <time>2018-07-17T06:53:36Z</time>
      </trkpt>
      <trkpt lat="44.26836" lon="5.64462">
        <ele>1308</ele>
        <time>2018-07-17T06:53:49Z</time>
      </trkpt>
      <trkpt lat="44.26836" lon="5.64463">
        <ele>1308</ele>
        <time>2018-07-17T06:54:12Z</time>
      </trkpt>
      <trkpt lat="44.26836" lon="5.64465">
        <ele>1308</ele>
        <time>2018-07-17T06:54:14Z</time>
      </trkpt>
      <trkpt lat="44.26836" lon="5.64467">
        <ele>1308</ele>
        <time>2018-07-17T06:54:16Z</time>
      </trkpt>
      <trkpt lat="44.26836" lon="5.64469">
        <ele>1308</ele>
        <time>2018-07-17T06:54:18Z</time>
      </trkpt>
      <trkpt lat="44.26836" lon="5.64471">
        <ele>1308</ele>
        <time>2018-07-17T06:54:20Z</time>
      </trkpt>
      <trkpt lat="44.26836" lon="5.64473">
        <ele>1308</ele>
        <time>2018-07-17T06:54:22Z</time>
      </trkpt>
      <trkpt lat="44.26836" lon="5.64474">
        <ele>1308</ele>
        <time>2018-07-17T06:54:23Z</time>
      </trkpt>
      <trkpt lat="44.26836" lon="5.64476">
        <ele>1308</ele>
        <time>2018-07-17T06:54:25Z</time>
      </trkpt>
      <trkpt lat="44.26836" lon="5.64478">
        <ele>1308</ele>
        <time>2018-07-17T06:54:27Z</time>
      </trkpt>
      <trkpt lat="44.26836" lon="5.6448">
        <ele>1308</ele>
        <time>2018-07-17T06:54:29Z</time>
      </trkpt>
      <trkpt lat="44.26835" lon="5.64482">
        <ele>1308</ele>
        <time>2018-07-17T06:54:30Z</time>
      </trkpt>
      <trkpt lat="44.26835" lon="5.64484">
        <ele>1308</ele>
        <time>2018-07-17T06:54:32Z</time>
      </trkpt>
      <trkpt lat="44.26834" lon="5.64486">
        <ele>1307</ele>
        <time>2018-07-17T06:54:34Z</time>
      </trkpt>
      <trkpt lat="44.26833" lon="5.64488">
        <ele>1307</ele>
        <time>2018-07-17T06:54:36Z</time>
      </trkpt>
      <trkpt lat="44.26833" lon="5.6449">
        <ele>1307</ele>
        <time>2018-07-17T06:54:38Z</time>
      </trkpt>
      <trkpt lat="44.26832" lon="5.64491">
        <ele>1307</ele>
        <time>2018-07-17T06:54:40Z</time>
      </trkpt>
      <trkpt lat="44.26832" lon="5.64493">
        <ele>1307</ele>
        <time>2018-07-17T06:54:42Z</time>
      </trkpt>
      <trkpt lat="44.26832" lon="5.64496">
        <ele>1307</ele>
        <time>2018-07-17T06:54:44Z</time>
      </trkpt>
      <trkpt lat="44.26833" lon="5.64497">
        <ele>1307</ele>
        <time>2018-07-17T06:54:46Z</time>
      </trkpt>
      <trkpt lat="44.26833" lon="5.64499">
        <ele>1307</ele>
        <time>2018-07-17T06:54:47Z</time>
      </trkpt>
      <trkpt lat="44.26834" lon="5.64501">
        <ele>1307</ele>
        <time>2018-07-17T06:54:51Z</time>
      </trkpt>
      <trkpt lat="44.26833" lon="5.64502">
        <ele>1307</ele>
        <time>2018-07-17T06:55:01Z</time>
      </trkpt>
      <trkpt lat="44.26831" lon="5.64502">
        <ele>1311</ele>
        <time>2018-07-17T06:55:20Z</time>
      </trkpt>
      <trkpt lat="44.26831" lon="5.64504">
        <ele>1312</ele>
        <time>2018-07-17T06:55:33Z</time>
      </trkpt>
      <trkpt lat="44.2683" lon="5.64506">
        <ele>1312</ele>
        <time>2018-07-17T06:55:36Z</time>
      </trkpt>
      <trkpt lat="44.2683" lon="5.64508">
        <ele>1312</ele>
        <time>2018-07-17T06:55:38Z</time>
      </trkpt>
      <trkpt lat="44.2683" lon="5.6451">
        <ele>1312</ele>
        <time>2018-07-17T06:55:40Z</time>
      </trkpt>
      <trkpt lat="44.2683" lon="5.64512">
        <ele>1312</ele>
        <time>2018-07-17T06:55:42Z</time>
      </trkpt>
      <trkpt lat="44.2683" lon="5.64514">
        <ele>1312</ele>
        <time>2018-07-17T06:55:44Z</time>
      </trkpt>
      <trkpt lat="44.2683" lon="5.64516">
        <ele>1312</ele>
        <time>2018-07-17T06:55:51Z</time>
      </trkpt>
      <trkpt lat="44.2683" lon="5.64518">
        <ele>1312</ele>
        <time>2018-07-17T06:55:55Z</time>
      </trkpt>
      <trkpt lat="44.26828" lon="5.64519">
        <ele>1312</ele>
        <time>2018-07-17T06:56:01Z</time>
      </trkpt>
      <trkpt lat="44.26828" lon="5.64521">
        <ele>1312</ele>
        <time>2018-07-17T06:56:03Z</time>
      </trkpt>
      <trkpt lat="44.26827" lon="5.64523">
        <ele>1312</ele>
        <time>2018-07-17T06:56:05Z</time>
      </trkpt>
      <trkpt lat="44.26826" lon="5.64525">
        <ele>1312</ele>
        <time>2018-07-17T06:56:07Z</time>
      </trkpt>
      <trkpt lat="44.26825" lon="5.64528">
        <ele>1312</ele>
        <time>2018-07-17T06:56:09Z</time>
      </trkpt>
      <trkpt lat="44.26824" lon="5.6453">
        <ele>1312</ele>
        <time>2018-07-17T06:56:11Z</time>
      </trkpt>
      <trkpt lat="44.26824" lon="5.64532">
        <ele>1312</ele>
        <time>2018-07-17T06:56:13Z</time>
      </trkpt>
      <trkpt lat="44.26823" lon="5.64534">
        <ele>1311</ele>
        <time>2018-07-17T06:56:15Z</time>
      </trkpt>
      <trkpt lat="44.26821" lon="5.64536">
        <ele>1310</ele>
        <time>2018-07-17T06:56:17Z</time>
      </trkpt>
      <trkpt lat="44.2682" lon="5.64537">
        <ele>1309</ele>
        <time>2018-07-17T06:56:19Z</time>
      </trkpt>
      <trkpt lat="44.26819" lon="5.64539">
        <ele>1307</ele>
        <time>2018-07-17T06:56:21Z</time>
      </trkpt>
      <trkpt lat="44.26818" lon="5.64541">
        <ele>1306</ele>
        <time>2018-07-17T06:56:23Z</time>
      </trkpt>
      <trkpt lat="44.26817" lon="5.64542">
        <ele>1304</ele>
        <time>2018-07-17T06:56:25Z</time>
      </trkpt>
      <trkpt lat="44.26816" lon="5.64543">
        <ele>1304</ele>
        <time>2018-07-17T06:56:26Z</time>
      </trkpt>
      <trkpt lat="44.26815" lon="5.64544">
        <ele>1302</ele>
        <time>2018-07-17T06:56:28Z</time>
      </trkpt>
      <trkpt lat="44.26813" lon="5.64545">
        <ele>1301</ele>
        <time>2018-07-17T06:56:30Z</time>
      </trkpt>
      <trkpt lat="44.26812" lon="5.64547">
        <ele>1301</ele>
        <time>2018-07-17T06:56:32Z</time>
      </trkpt>
      <trkpt lat="44.2681" lon="5.64548">
        <ele>1301</ele>
        <time>2018-07-17T06:56:34Z</time>
      </trkpt>
      <trkpt lat="44.2681" lon="5.6455">
        <ele>1301</ele>
        <time>2018-07-17T06:56:36Z</time>
      </trkpt>
      <trkpt lat="44.26809" lon="5.64552">
        <ele>1301</ele>
        <time>2018-07-17T06:56:38Z</time>
      </trkpt>
      <trkpt lat="44.26809" lon="5.64555">
        <ele>1301</ele>
        <time>2018-07-17T06:56:40Z</time>
      </trkpt>
      <trkpt lat="44.26808" lon="5.64556">
        <ele>1301</ele>
        <time>2018-07-17T06:56:47Z</time>
      </trkpt>
      <trkpt lat="44.26808" lon="5.64557">
        <ele>1301</ele>
        <time>2018-07-17T06:56:50Z</time>
      </trkpt>
      <trkpt lat="44.26808" lon="5.64559">
        <ele>1301</ele>
        <time>2018-07-17T06:56:51Z</time>
      </trkpt>
      <trkpt lat="44.26808" lon="5.6456">
        <ele>1302</ele>
        <time>2018-07-17T06:56:54Z</time>
      </trkpt>
      <trkpt lat="44.26807" lon="5.64562">
        <ele>1303</ele>
        <time>2018-07-17T06:56:56Z</time>
      </trkpt>
      <trkpt lat="44.26807" lon="5.64564">
        <ele>1303</ele>
        <time>2018-07-17T06:56:58Z</time>
      </trkpt>
      <trkpt lat="44.26806" lon="5.64566">
        <ele>1303</ele>
        <time>2018-07-17T06:57:00Z</time>
      </trkpt>
      <trkpt lat="44.26807" lon="5.64568">
        <ele>1304</ele>
        <time>2018-07-17T06:57:01Z</time>
      </trkpt>
      <trkpt lat="44.26806" lon="5.6457">
        <ele>1306</ele>
        <time>2018-07-17T06:57:03Z</time>
      </trkpt>
      <trkpt lat="44.26806" lon="5.64572">
        <ele>1307</ele>
        <time>2018-07-17T06:57:05Z</time>
      </trkpt>
      <trkpt lat="44.26806" lon="5.64574">
        <ele>1308</ele>
        <time>2018-07-17T06:57:07Z</time>
      </trkpt>
      <trkpt lat="44.26806" lon="5.64576">
        <ele>1309</ele>
        <time>2018-07-17T06:57:10Z</time>
      </trkpt>
      <trkpt lat="44.26805" lon="5.64578">
        <ele>1309</ele>
        <time>2018-07-17T06:57:12Z</time>
      </trkpt>
      <trkpt lat="44.26806" lon="5.6458">
        <ele>1309</ele>
        <time>2018-07-17T06:57:15Z</time>
      </trkpt>
      <trkpt lat="44.26806" lon="5.64582">
        <ele>1310</ele>
        <time>2018-07-17T06:57:17Z</time>
      </trkpt>
      <trkpt lat="44.26807" lon="5.64583">
        <ele>1312</ele>
        <time>2018-07-17T06:57:20Z</time>
      </trkpt>
      <trkpt lat="44.26808" lon="5.64583">
        <ele>1313</ele>
        <time>2018-07-17T06:57:23Z</time>
      </trkpt>
      <trkpt lat="44.26809" lon="5.64582">
        <ele>1314</ele>
        <time>2018-07-17T06:57:24Z</time>
      </trkpt>
      <trkpt lat="44.26812" lon="5.6458">
        <ele>1316</ele>
        <time>2018-07-17T06:57:27Z</time>
      </trkpt>
      <trkpt lat="44.26811" lon="5.6458">
        <ele>1316</ele>
        <time>2018-07-17T06:57:32Z</time>
      </trkpt>
      <trkpt lat="44.2681" lon="5.64582">
        <ele>1316</ele>
        <time>2018-07-17T06:57:35Z</time>
      </trkpt>
      <trkpt lat="44.26811" lon="5.64585">
        <ele>1316</ele>
        <time>2018-07-17T06:57:37Z</time>
      </trkpt>
      <trkpt lat="44.26811" lon="5.64587">
        <ele>1316</ele>
        <time>2018-07-17T06:57:39Z</time>
      </trkpt>
      <trkpt lat="44.26811" lon="5.64589">
        <ele>1316</ele>
        <time>2018-07-17T06:57:42Z</time>
      </trkpt>
      <trkpt lat="44.26811" lon="5.64591">
        <ele>1316</ele>
        <time>2018-07-17T06:57:44Z</time>
      </trkpt>
      <trkpt lat="44.26812" lon="5.64593">
        <ele>1316</ele>
        <time>2018-07-17T06:57:47Z</time>
      </trkpt>
      <trkpt lat="44.26811" lon="5.64595">
        <ele>1316</ele>
        <time>2018-07-17T06:57:49Z</time>
      </trkpt>
      <trkpt lat="44.2681" lon="5.64596">
        <ele>1316</ele>
        <time>2018-07-17T06:57:50Z</time>
      </trkpt>
      <trkpt lat="44.26809" lon="5.64598">
        <ele>1316</ele>
        <time>2018-07-17T06:57:51Z</time>
      </trkpt>
      <trkpt lat="44.26809" lon="5.64599">
        <ele>1316</ele>
        <time>2018-07-17T06:57:53Z</time>
      </trkpt>
      <trkpt lat="44.26809" lon="5.64601">
        <ele>1316</ele>
        <time>2018-07-17T06:57:55Z</time>
      </trkpt>
      <trkpt lat="44.26811" lon="5.64601">
        <ele>1316</ele>
        <time>2018-07-17T06:57:59Z</time>
      </trkpt>
      <trkpt lat="44.26812" lon="5.64604">
        <ele>1316</ele>
        <time>2018-07-17T06:58:02Z</time>
      </trkpt>
      <trkpt lat="44.26811" lon="5.64606">
        <ele>1316</ele>
        <time>2018-07-17T06:58:04Z</time>
      </trkpt>
      <trkpt lat="44.2681" lon="5.64607">
        <ele>1316</ele>
        <time>2018-07-17T06:58:12Z</time>
      </trkpt>
      <trkpt lat="44.26812" lon="5.64609">
        <ele>1316</ele>
        <time>2018-07-17T06:58:14Z</time>
      </trkpt>
      <trkpt lat="44.26813" lon="5.6461">
        <ele>1316</ele>
        <time>2018-07-17T06:58:16Z</time>
      </trkpt>
      <trkpt lat="44.26814" lon="5.64612">
        <ele>1316</ele>
        <time>2018-07-17T06:58:18Z</time>
      </trkpt>
      <trkpt lat="44.26815" lon="5.64613">
        <ele>1316</ele>
        <time>2018-07-17T06:58:20Z</time>
      </trkpt>
      <trkpt lat="44.26815" lon="5.64615">
        <ele>1315</ele>
        <time>2018-07-17T06:58:22Z</time>
      </trkpt>
      <trkpt lat="44.26816" lon="5.64617">
        <ele>1315</ele>
        <time>2018-07-17T06:58:24Z</time>
      </trkpt>
      <trkpt lat="44.26817" lon="5.64619">
        <ele>1314</ele>
        <time>2018-07-17T06:58:26Z</time>
      </trkpt>
      <trkpt lat="44.26817" lon="5.64621">
        <ele>1314</ele>
        <time>2018-07-17T06:58:27Z</time>
      </trkpt>
      <trkpt lat="44.26817" lon="5.64623">
        <ele>1313</ele>
        <time>2018-07-17T06:58:29Z</time>
      </trkpt>
      <trkpt lat="44.26817" lon="5.64625">
        <ele>1312</ele>
        <time>2018-07-17T06:58:31Z</time>
      </trkpt>
      <trkpt lat="44.26818" lon="5.64626">
        <ele>1311</ele>
        <time>2018-07-17T06:58:33Z</time>
      </trkpt>
      <trkpt lat="44.26818" lon="5.64628">
        <ele>1311</ele>
        <time>2018-07-17T06:58:35Z</time>
      </trkpt>
      <trkpt lat="44.26819" lon="5.6463">
        <ele>1311</ele>
        <time>2018-07-17T06:58:37Z</time>
      </trkpt>
      <trkpt lat="44.2682" lon="5.64632">
        <ele>1311</ele>
        <time>2018-07-17T06:58:39Z</time>
      </trkpt>
      <trkpt lat="44.2682" lon="5.64634">
        <ele>1311</ele>
        <time>2018-07-17T06:58:42Z</time>
      </trkpt>
      <trkpt lat="44.2682" lon="5.64635">
        <ele>1311</ele>
        <time>2018-07-17T06:58:44Z</time>
      </trkpt>
      <trkpt lat="44.26821" lon="5.64637">
        <ele>1311</ele>
        <time>2018-07-17T06:58:46Z</time>
      </trkpt>
      <trkpt lat="44.26822" lon="5.64639">
        <ele>1311</ele>
        <time>2018-07-17T06:58:49Z</time>
      </trkpt>
      <trkpt lat="44.26823" lon="5.64641">
        <ele>1311</ele>
        <time>2018-07-17T06:58:51Z</time>
      </trkpt>
      <trkpt lat="44.26823" lon="5.64643">
        <ele>1311</ele>
        <time>2018-07-17T06:58:53Z</time>
      </trkpt>
      <trkpt lat="44.26823" lon="5.64645">
        <ele>1311</ele>
        <time>2018-07-17T06:58:55Z</time>
      </trkpt>
      <trkpt lat="44.26823" lon="5.64647">
        <ele>1311</ele>
        <time>2018-07-17T06:58:57Z</time>
      </trkpt>
      <trkpt lat="44.26823" lon="5.64648">
        <ele>1311</ele>
        <time>2018-07-17T06:58:59Z</time>
      </trkpt>
      <trkpt lat="44.26823" lon="5.64651">
        <ele>1311</ele>
        <time>2018-07-17T06:59:01Z</time>
      </trkpt>
      <trkpt lat="44.26823" lon="5.64652">
        <ele>1311</ele>
        <time>2018-07-17T06:59:03Z</time>
      </trkpt>
      <trkpt lat="44.26822" lon="5.64654">
        <ele>1311</ele>
        <time>2018-07-17T06:59:05Z</time>
      </trkpt>
      <trkpt lat="44.26821" lon="5.64656">
        <ele>1311</ele>
        <time>2018-07-17T06:59:07Z</time>
      </trkpt>
      <trkpt lat="44.2682" lon="5.64658">
        <ele>1310</ele>
        <time>2018-07-17T06:59:09Z</time>
      </trkpt>
      <trkpt lat="44.2682" lon="5.6466">
        <ele>1309</ele>
        <time>2018-07-17T06:59:11Z</time>
      </trkpt>
      <trkpt lat="44.2682" lon="5.64662">
        <ele>1308</ele>
        <time>2018-07-17T06:59:13Z</time>
      </trkpt>
      <trkpt lat="44.2682" lon="5.64664">
        <ele>1307</ele>
        <time>2018-07-17T06:59:15Z</time>
      </trkpt>
      <trkpt lat="44.2682" lon="5.64666">
        <ele>1307</ele>
        <time>2018-07-17T06:59:16Z</time>
      </trkpt>
      <trkpt lat="44.2682" lon="5.64667">
        <ele>1307</ele>
        <time>2018-07-17T06:59:17Z</time>
      </trkpt>
      <trkpt lat="44.26819" lon="5.64669">
        <ele>1306</ele>
        <time>2018-07-17T06:59:19Z</time>
      </trkpt>
      <trkpt lat="44.26819" lon="5.64671">
        <ele>1306</ele>
        <time>2018-07-17T06:59:21Z</time>
      </trkpt>
      <trkpt lat="44.26819" lon="5.64673">
        <ele>1306</ele>
        <time>2018-07-17T06:59:23Z</time>
      </trkpt>
      <trkpt lat="44.26819" lon="5.64675">
        <ele>1306</ele>
        <time>2018-07-17T06:59:24Z</time>
      </trkpt>
      <trkpt lat="44.26819" lon="5.64677">
        <ele>1306</ele>
        <time>2018-07-17T06:59:27Z</time>
      </trkpt>
      <trkpt lat="44.26818" lon="5.64678">
        <ele>1306</ele>
        <time>2018-07-17T06:59:29Z</time>
      </trkpt>
      <trkpt lat="44.26818" lon="5.6468">
        <ele>1306</ele>
        <time>2018-07-17T06:59:31Z</time>
      </trkpt>
      <trkpt lat="44.26817" lon="5.64682">
        <ele>1306</ele>
        <time>2018-07-17T06:59:33Z</time>
      </trkpt>
      <trkpt lat="44.26817" lon="5.64684">
        <ele>1306</ele>
        <time>2018-07-17T06:59:35Z</time>
      </trkpt>
      <trkpt lat="44.26817" lon="5.64685">
        <ele>1306</ele>
        <time>2018-07-17T06:59:37Z</time>
      </trkpt>
      <trkpt lat="44.26817" lon="5.64687">
        <ele>1306</ele>
        <time>2018-07-17T06:59:39Z</time>
      </trkpt>
      <trkpt lat="44.26817" lon="5.64688">
        <ele>1306</ele>
        <time>2018-07-17T06:59:40Z</time>
      </trkpt>
      <trkpt lat="44.26817" lon="5.64691">
        <ele>1306</ele>
        <time>2018-07-17T06:59:42Z</time>
      </trkpt>
      <trkpt lat="44.26818" lon="5.64692">
        <ele>1306</ele>
        <time>2018-07-17T06:59:44Z</time>
      </trkpt>
      <trkpt lat="44.26817" lon="5.64694">
        <ele>1306</ele>
        <time>2018-07-17T06:59:46Z</time>
      </trkpt>
      <trkpt lat="44.26817" lon="5.64696">
        <ele>1306</ele>
        <time>2018-07-17T06:59:49Z</time>
      </trkpt>
      <trkpt lat="44.26817" lon="5.64698">
        <ele>1306</ele>
        <time>2018-07-17T06:59:52Z</time>
      </trkpt>
      <trkpt lat="44.26817" lon="5.647">
        <ele>1306</ele>
        <time>2018-07-17T06:59:55Z</time>
      </trkpt>
      <trkpt lat="44.26815" lon="5.64702">
        <ele>1306</ele>
        <time>2018-07-17T06:59:59Z</time>
      </trkpt>
      <trkpt lat="44.26815" lon="5.64703">
        <ele>1306</ele>
        <time>2018-07-17T07:00:02Z</time>
      </trkpt>
      <trkpt lat="44.26815" lon="5.64705">
        <ele>1306</ele>
        <time>2018-07-17T07:00:04Z</time>
      </trkpt>
      <trkpt lat="44.26815" lon="5.64707">
        <ele>1306</ele>
        <time>2018-07-17T07:00:06Z</time>
      </trkpt>
      <trkpt lat="44.26815" lon="5.64709">
        <ele>1306</ele>
        <time>2018-07-17T07:00:08Z</time>
      </trkpt>
      <trkpt lat="44.26815" lon="5.6471">
        <ele>1306</ele>
        <time>2018-07-17T07:00:11Z</time>
      </trkpt>
      <trkpt lat="44.26816" lon="5.64712">
        <ele>1306</ele>
        <time>2018-07-17T07:00:14Z</time>
      </trkpt>
      <trkpt lat="44.26817" lon="5.64713">
        <ele>1306</ele>
        <time>2018-07-17T07:00:21Z</time>
      </trkpt>
      <trkpt lat="44.26817" lon="5.64715">
        <ele>1306</ele>
        <time>2018-07-17T07:00:28Z</time>
      </trkpt>
      <trkpt lat="44.26818" lon="5.64715">
        <ele>1306</ele>
        <time>2018-07-17T07:00:35Z</time>
      </trkpt>
      <trkpt lat="44.26819" lon="5.64717">
        <ele>1306</ele>
        <time>2018-07-17T07:00:39Z</time>
      </trkpt>
      <trkpt lat="44.2682" lon="5.64718">
        <ele>1306</ele>
        <time>2018-07-17T07:00:43Z</time>
      </trkpt>
      <trkpt lat="44.26821" lon="5.64719">
        <ele>1306</ele>
        <time>2018-07-17T07:00:48Z</time>
      </trkpt>
      <trkpt lat="44.26822" lon="5.64721">
        <ele>1305</ele>
        <time>2018-07-17T07:00:53Z</time>
      </trkpt>
      <trkpt lat="44.26823" lon="5.64722">
        <ele>1305</ele>
        <time>2018-07-17T07:00:57Z</time>
      </trkpt>
      <trkpt lat="44.26825" lon="5.64723">
        <ele>1304</ele>
        <time>2018-07-17T07:01:01Z</time>
      </trkpt>
      <trkpt lat="44.26826" lon="5.64724">
        <ele>1302</ele>
        <time>2018-07-17T07:01:06Z</time>
      </trkpt>
      <trkpt lat="44.26826" lon="5.64726">
        <ele>1302</ele>
        <time>2018-07-17T07:01:09Z</time>
      </trkpt>
      <trkpt lat="44.26828" lon="5.64726">
        <ele>1302</ele>
        <time>2018-07-17T07:01:12Z</time>
      </trkpt>
      <trkpt lat="44.26832" lon="5.64726">
        <ele>1302</ele>
        <time>2018-07-17T07:01:14Z</time>
      </trkpt>
      <trkpt lat="44.26833" lon="5.64726">
        <ele>1302</ele>
        <time>2018-07-17T07:01:15Z</time>
      </trkpt>
      <trkpt lat="44.26835" lon="5.64726">
        <ele>1302</ele>
        <time>2018-07-17T07:01:16Z</time>
      </trkpt>
      <trkpt lat="44.26836" lon="5.64725">
        <ele>1302</ele>
        <time>2018-07-17T07:01:18Z</time>
      </trkpt>
      <trkpt lat="44.26838" lon="5.64725">
        <ele>1302</ele>
        <time>2018-07-17T07:01:20Z</time>
      </trkpt>
      <trkpt lat="44.26839" lon="5.64725">
        <ele>1302</ele>
        <time>2018-07-17T07:01:21Z</time>
      </trkpt>
      <trkpt lat="44.2684" lon="5.64727">
        <ele>1302</ele>
        <time>2018-07-17T07:01:26Z</time>
      </trkpt>
      <trkpt lat="44.26841" lon="5.64728">
        <ele>1302</ele>
        <time>2018-07-17T07:01:29Z</time>
      </trkpt>
      <trkpt lat="44.26843" lon="5.64729">
        <ele>1302</ele>
        <time>2018-07-17T07:01:31Z</time>
      </trkpt>
      <trkpt lat="44.26844" lon="5.64731">
        <ele>1302</ele>
        <time>2018-07-17T07:01:33Z</time>
      </trkpt>
      <trkpt lat="44.26845" lon="5.64733">
        <ele>1302</ele>
        <time>2018-07-17T07:01:35Z</time>
      </trkpt>
      <trkpt lat="44.26846" lon="5.64735">
        <ele>1302</ele>
        <time>2018-07-17T07:01:37Z</time>
      </trkpt>
      <trkpt lat="44.26848" lon="5.64737">
        <ele>1302</ele>
        <time>2018-07-17T07:01:39Z</time>
      </trkpt>
      <trkpt lat="44.26849" lon="5.64739">
        <ele>1302</ele>
        <time>2018-07-17T07:01:41Z</time>
      </trkpt>
      <trkpt lat="44.2685" lon="5.64741">
        <ele>1302</ele>
        <time>2018-07-17T07:01:43Z</time>
      </trkpt>
      <trkpt lat="44.26851" lon="5.64742">
        <ele>1302</ele>
        <time>2018-07-17T07:01:45Z</time>
      </trkpt>
      <trkpt lat="44.26851" lon="5.64744">
        <ele>1302</ele>
        <time>2018-07-17T07:01:47Z</time>
      </trkpt>
      <trkpt lat="44.26852" lon="5.64746">
        <ele>1302</ele>
        <time>2018-07-17T07:01:49Z</time>
      </trkpt>
      <trkpt lat="44.26852" lon="5.64748">
        <ele>1302</ele>
        <time>2018-07-17T07:01:51Z</time>
      </trkpt>
      <trkpt lat="44.26852" lon="5.64749">
        <ele>1301</ele>
        <time>2018-07-17T07:01:53Z</time>
      </trkpt>
      <trkpt lat="44.26853" lon="5.6475">
        <ele>1301</ele>
        <time>2018-07-17T07:01:57Z</time>
      </trkpt>
      <trkpt lat="44.26854" lon="5.64752">
        <ele>1301</ele>
        <time>2018-07-17T07:02:02Z</time>
      </trkpt>
      <trkpt lat="44.26854" lon="5.64754">
        <ele>1301</ele>
        <time>2018-07-17T07:02:05Z</time>
      </trkpt>
      <trkpt lat="44.26855" lon="5.64755">
        <ele>1301</ele>
        <time>2018-07-17T07:02:09Z</time>
      </trkpt>
      <trkpt lat="44.26857" lon="5.64755">
        <ele>1301</ele>
        <time>2018-07-17T07:02:15Z</time>
      </trkpt>
      <trkpt lat="44.26858" lon="5.64754">
        <ele>1301</ele>
        <time>2018-07-17T07:02:18Z</time>
      </trkpt>
      <trkpt lat="44.26857" lon="5.64755">
        <ele>1301</ele>
        <time>2018-07-17T07:02:55Z</time>
      </trkpt>
      <trkpt lat="44.26858" lon="5.64755">
        <ele>1301</ele>
        <time>2018-07-17T07:03:29Z</time>
      </trkpt>
      <trkpt lat="44.26856" lon="5.64756">
        <ele>1301</ele>
        <time>2018-07-17T07:03:54Z</time>
      </trkpt>
      <trkpt lat="44.26855" lon="5.64755">
        <ele>1301</ele>
        <time>2018-07-17T07:04:00Z</time>
      </trkpt>
      <trkpt lat="44.26854" lon="5.64756">
        <ele>1301</ele>
        <time>2018-07-17T07:04:14Z</time>
      </trkpt>
      <trkpt lat="44.26855" lon="5.64755">
        <ele>1301</ele>
        <time>2018-07-17T07:04:21Z</time>
      </trkpt>
      <trkpt lat="44.26856" lon="5.64757">
        <ele>1302</ele>
        <time>2018-07-17T07:04:31Z</time>
      </trkpt>
      <trkpt lat="44.26857" lon="5.64758">
        <ele>1303</ele>
        <time>2018-07-17T07:04:34Z</time>
      </trkpt>
      <trkpt lat="44.26858" lon="5.64757">
        <ele>1304</ele>
        <time>2018-07-17T07:04:37Z</time>
      </trkpt>
      <trkpt lat="44.26859" lon="5.64759">
        <ele>1306</ele>
        <time>2018-07-17T07:04:48Z</time>
      </trkpt>
      <trkpt lat="44.26859" lon="5.6476">
        <ele>1306</ele>
        <time>2018-07-17T07:04:51Z</time>
      </trkpt>
      <trkpt lat="44.26857" lon="5.64762">
        <ele>1306</ele>
        <time>2018-07-17T07:04:56Z</time>
      </trkpt>
      <trkpt lat="44.26857" lon="5.64763">
        <ele>1306</ele>
        <time>2018-07-17T07:04:59Z</time>
      </trkpt>
      <trkpt lat="44.26858" lon="5.64765">
        <ele>1305</ele>
        <time>2018-07-17T07:05:04Z</time>
      </trkpt>
      <trkpt lat="44.26858" lon="5.64766">
        <ele>1304</ele>
        <time>2018-07-17T07:05:07Z</time>
      </trkpt>
      <trkpt lat="44.26858" lon="5.64768">
        <ele>1303</ele>
        <time>2018-07-17T07:05:11Z</time>
      </trkpt>
      <trkpt lat="44.26857" lon="5.6477">
        <ele>1302</ele>
        <time>2018-07-17T07:05:14Z</time>
      </trkpt>
      <trkpt lat="44.26856" lon="5.64772">
        <ele>1301</ele>
        <time>2018-07-17T07:05:16Z</time>
      </trkpt>
      <trkpt lat="44.26856" lon="5.64773">
        <ele>1300</ele>
        <time>2018-07-17T07:05:18Z</time>
      </trkpt>
      <trkpt lat="44.26855" lon="5.64775">
        <ele>1299</ele>
        <time>2018-07-17T07:05:20Z</time>
      </trkpt>
      <trkpt lat="44.26855" lon="5.64777">
        <ele>1298</ele>
        <time>2018-07-17T07:05:23Z</time>
      </trkpt>
      <trkpt lat="44.26855" lon="5.64779">
        <ele>1298</ele>
        <time>2018-07-17T07:05:25Z</time>
      </trkpt>
      <trkpt lat="44.26855" lon="5.64781">
        <ele>1298</ele>
        <time>2018-07-17T07:05:27Z</time>
      </trkpt>
      <trkpt lat="44.26855" lon="5.64783">
        <ele>1298</ele>
        <time>2018-07-17T07:05:29Z</time>
      </trkpt>
      <trkpt lat="44.26855" lon="5.64785">
        <ele>1298</ele>
        <time>2018-07-17T07:05:32Z</time>
      </trkpt>
      <trkpt lat="44.26856" lon="5.64787">
        <ele>1298</ele>
        <time>2018-07-17T07:05:34Z</time>
      </trkpt>
      <trkpt lat="44.26855" lon="5.64789">
        <ele>1298</ele>
        <time>2018-07-17T07:05:36Z</time>
      </trkpt>
      <trkpt lat="44.26855" lon="5.6479">
        <ele>1298</ele>
        <time>2018-07-17T07:05:38Z</time>
      </trkpt>
      <trkpt lat="44.26855" lon="5.64792">
        <ele>1298</ele>
        <time>2018-07-17T07:05:41Z</time>
      </trkpt>
      <trkpt lat="44.26856" lon="5.64793">
        <ele>1298</ele>
        <time>2018-07-17T07:05:43Z</time>
      </trkpt>
      <trkpt lat="44.26856" lon="5.64795">
        <ele>1298</ele>
        <time>2018-07-17T07:05:45Z</time>
      </trkpt>
      <trkpt lat="44.26856" lon="5.64797">
        <ele>1298</ele>
        <time>2018-07-17T07:05:47Z</time>
      </trkpt>
      <trkpt lat="44.26856" lon="5.64799">
        <ele>1298</ele>
        <time>2018-07-17T07:05:49Z</time>
      </trkpt>
      <trkpt lat="44.26856" lon="5.64801">
        <ele>1298</ele>
        <time>2018-07-17T07:05:51Z</time>
      </trkpt>
      <trkpt lat="44.26855" lon="5.64802">
        <ele>1298</ele>
        <time>2018-07-17T07:05:53Z</time>
      </trkpt>
      <trkpt lat="44.26854" lon="5.64803">
        <ele>1298</ele>
        <time>2018-07-17T07:05:55Z</time>
      </trkpt>
      <trkpt lat="44.26852" lon="5.64804">
        <ele>1298</ele>
        <time>2018-07-17T07:05:57Z</time>
      </trkpt>
      <trkpt lat="44.26852" lon="5.64806">
        <ele>1297</ele>
        <time>2018-07-17T07:05:59Z</time>
      </trkpt>
      <trkpt lat="44.26851" lon="5.64807">
        <ele>1296</ele>
        <time>2018-07-17T07:06:01Z</time>
      </trkpt>
      <trkpt lat="44.26852" lon="5.64809">
        <ele>1295</ele>
        <time>2018-07-17T07:06:04Z</time>
      </trkpt>
      <trkpt lat="44.26851" lon="5.64812">
        <ele>1294</ele>
        <time>2018-07-17T07:06:06Z</time>
      </trkpt>
      <trkpt lat="44.2685" lon="5.64813">
        <ele>1294</ele>
        <time>2018-07-17T07:06:07Z</time>
      </trkpt>
      <trkpt lat="44.2685" lon="5.64815">
        <ele>1294</ele>
        <time>2018-07-17T07:06:08Z</time>
      </trkpt>
      <trkpt lat="44.26849" lon="5.64816">
        <ele>1294</ele>
        <time>2018-07-17T07:06:10Z</time>
      </trkpt>
      <trkpt lat="44.26848" lon="5.64818">
        <ele>1294</ele>
        <time>2018-07-17T07:06:13Z</time>
      </trkpt>
      <trkpt lat="44.26847" lon="5.64819">
        <ele>1294</ele>
        <time>2018-07-17T07:06:16Z</time>
      </trkpt>
      <trkpt lat="44.26847" lon="5.64821">
        <ele>1294</ele>
        <time>2018-07-17T07:06:19Z</time>
      </trkpt>
      <trkpt lat="44.26846" lon="5.64823">
        <ele>1294</ele>
        <time>2018-07-17T07:06:21Z</time>
      </trkpt>
      <trkpt lat="44.26845" lon="5.64825">
        <ele>1294</ele>
        <time>2018-07-17T07:06:23Z</time>
      </trkpt>
      <trkpt lat="44.26844" lon="5.64827">
        <ele>1294</ele>
        <time>2018-07-17T07:06:25Z</time>
      </trkpt>
      <trkpt lat="44.26844" lon="5.6483">
        <ele>1294</ele>
        <time>2018-07-17T07:06:27Z</time>
      </trkpt>
      <trkpt lat="44.26844" lon="5.64832">
        <ele>1294</ele>
        <time>2018-07-17T07:06:29Z</time>
      </trkpt>
      <trkpt lat="44.26843" lon="5.64834">
        <ele>1294</ele>
        <time>2018-07-17T07:06:32Z</time>
      </trkpt>
      <trkpt lat="44.26844" lon="5.64835">
        <ele>1294</ele>
        <time>2018-07-17T07:06:34Z</time>
      </trkpt>
      <trkpt lat="44.26844" lon="5.64837">
        <ele>1294</ele>
        <time>2018-07-17T07:06:36Z</time>
      </trkpt>
      <trkpt lat="44.26844" lon="5.64839">
        <ele>1294</ele>
        <time>2018-07-17T07:06:37Z</time>
      </trkpt>
      <trkpt lat="44.26844" lon="5.64841">
        <ele>1294</ele>
        <time>2018-07-17T07:06:38Z</time>
      </trkpt>
      <trkpt lat="44.26844" lon="5.64842">
        <ele>1294</ele>
        <time>2018-07-17T07:06:39Z</time>
      </trkpt>
      <trkpt lat="44.26845" lon="5.64844">
        <ele>1294</ele>
        <time>2018-07-17T07:06:40Z</time>
      </trkpt>
      <trkpt lat="44.26846" lon="5.64846">
        <ele>1295</ele>
        <time>2018-07-17T07:06:41Z</time>
      </trkpt>
      <trkpt lat="44.26849" lon="5.64848">
        <ele>1297</ele>
        <time>2018-07-17T07:06:43Z</time>
      </trkpt>
      <trkpt lat="44.2685" lon="5.64849">
        <ele>1298</ele>
        <time>2018-07-17T07:06:44Z</time>
      </trkpt>
      <trkpt lat="44.2685" lon="5.64852">
        <ele>1299</ele>
        <time>2018-07-17T07:06:46Z</time>
      </trkpt>
      <trkpt lat="44.26851" lon="5.64854">
        <ele>1299</ele>
        <time>2018-07-17T07:06:48Z</time>
      </trkpt>
      <trkpt lat="44.26851" lon="5.64856">
        <ele>1299</ele>
        <time>2018-07-17T07:06:50Z</time>
      </trkpt>
      <trkpt lat="44.26851" lon="5.64857">
        <ele>1299</ele>
        <time>2018-07-17T07:06:51Z</time>
      </trkpt>
      <trkpt lat="44.2685" lon="5.64859">
        <ele>1299</ele>
        <time>2018-07-17T07:06:53Z</time>
      </trkpt>
      <trkpt lat="44.26851" lon="5.64861">
        <ele>1299</ele>
        <time>2018-07-17T07:06:55Z</time>
      </trkpt>
      <trkpt lat="44.26851" lon="5.64863">
        <ele>1299</ele>
        <time>2018-07-17T07:06:57Z</time>
      </trkpt>
      <trkpt lat="44.26849" lon="5.64865">
        <ele>1299</ele>
        <time>2018-07-17T07:06:59Z</time>
      </trkpt>
      <trkpt lat="44.26847" lon="5.64867">
        <ele>1299</ele>
        <time>2018-07-17T07:07:01Z</time>
      </trkpt>
      <trkpt lat="44.26846" lon="5.64869">
        <ele>1299</ele>
        <time>2018-07-17T07:07:03Z</time>
      </trkpt>
      <trkpt lat="44.26846" lon="5.6487">
        <ele>1299</ele>
        <time>2018-07-17T07:07:05Z</time>
      </trkpt>
      <trkpt lat="44.26845" lon="5.64872">
        <ele>1299</ele>
        <time>2018-07-17T07:07:08Z</time>
      </trkpt>
      <trkpt lat="44.26845" lon="5.64874">
        <ele>1299</ele>
        <time>2018-07-17T07:07:10Z</time>
      </trkpt>
      <trkpt lat="44.26844" lon="5.64877">
        <ele>1299</ele>
        <time>2018-07-17T07:07:12Z</time>
      </trkpt>
      <trkpt lat="44.26844" lon="5.64879">
        <ele>1299</ele>
        <time>2018-07-17T07:07:14Z</time>
      </trkpt>
      <trkpt lat="44.26845" lon="5.64881">
        <ele>1299</ele>
        <time>2018-07-17T07:07:16Z</time>
      </trkpt>
      <trkpt lat="44.26845" lon="5.64882">
        <ele>1299</ele>
        <time>2018-07-17T07:07:18Z</time>
      </trkpt>
      <trkpt lat="44.26846" lon="5.64884">
        <ele>1299</ele>
        <time>2018-07-17T07:07:20Z</time>
      </trkpt>
      <trkpt lat="44.26847" lon="5.64887">
        <ele>1299</ele>
        <time>2018-07-17T07:07:22Z</time>
      </trkpt>
      <trkpt lat="44.26846" lon="5.64888">
        <ele>1299</ele>
        <time>2018-07-17T07:07:24Z</time>
      </trkpt>
      <trkpt lat="44.26847" lon="5.6489">
        <ele>1299</ele>
        <time>2018-07-17T07:07:26Z</time>
      </trkpt>
      <trkpt lat="44.26847" lon="5.64892">
        <ele>1299</ele>
        <time>2018-07-17T07:07:28Z</time>
      </trkpt>
      <trkpt lat="44.26847" lon="5.64893">
        <ele>1299</ele>
        <time>2018-07-17T07:07:30Z</time>
      </trkpt>
      <trkpt lat="44.26848" lon="5.64895">
        <ele>1299</ele>
        <time>2018-07-17T07:07:32Z</time>
      </trkpt>
      <trkpt lat="44.26848" lon="5.64897">
        <ele>1299</ele>
        <time>2018-07-17T07:07:34Z</time>
      </trkpt>
      <trkpt lat="44.26848" lon="5.64898">
        <ele>1299</ele>
        <time>2018-07-17T07:07:36Z</time>
      </trkpt>
      <trkpt lat="44.26847" lon="5.649">
        <ele>1300</ele>
        <time>2018-07-17T07:07:38Z</time>
      </trkpt>
      <trkpt lat="44.26847" lon="5.64902">
        <ele>1300</ele>
        <time>2018-07-17T07:07:40Z</time>
      </trkpt>
      <trkpt lat="44.26846" lon="5.64903">
        <ele>1300</ele>
        <time>2018-07-17T07:07:42Z</time>
      </trkpt>
      <trkpt lat="44.26847" lon="5.64905">
        <ele>1300</ele>
        <time>2018-07-17T07:07:44Z</time>
      </trkpt>
      <trkpt lat="44.26847" lon="5.64907">
        <ele>1300</ele>
        <time>2018-07-17T07:07:46Z</time>
      </trkpt>
      <trkpt lat="44.26847" lon="5.64909">
        <ele>1300</ele>
        <time>2018-07-17T07:07:48Z</time>
      </trkpt>
      <trkpt lat="44.26847" lon="5.64911">
        <ele>1300</ele>
        <time>2018-07-17T07:07:50Z</time>
      </trkpt>
      <trkpt lat="44.26847" lon="5.64914">
        <ele>1300</ele>
        <time>2018-07-17T07:07:52Z</time>
      </trkpt>
      <trkpt lat="44.26847" lon="5.64916">
        <ele>1300</ele>
        <time>2018-07-17T07:07:54Z</time>
      </trkpt>
      <trkpt lat="44.26847" lon="5.64917">
        <ele>1300</ele>
        <time>2018-07-17T07:07:56Z</time>
      </trkpt>
      <trkpt lat="44.26847" lon="5.6492">
        <ele>1300</ele>
        <time>2018-07-17T07:07:58Z</time>
      </trkpt>
      <trkpt lat="44.26847" lon="5.64921">
        <ele>1300</ele>
        <time>2018-07-17T07:08:00Z</time>
      </trkpt>
      <trkpt lat="44.26846" lon="5.64923">
        <ele>1300</ele>
        <time>2018-07-17T07:08:02Z</time>
      </trkpt>
      <trkpt lat="44.26846" lon="5.64925">
        <ele>1300</ele>
        <time>2018-07-17T07:08:04Z</time>
      </trkpt>
      <trkpt lat="44.26845" lon="5.64927">
        <ele>1300</ele>
        <time>2018-07-17T07:08:06Z</time>
      </trkpt>
      <trkpt lat="44.26845" lon="5.64928">
        <ele>1300</ele>
        <time>2018-07-17T07:08:08Z</time>
      </trkpt>
      <trkpt lat="44.26844" lon="5.6493">
        <ele>1300</ele>
        <time>2018-07-17T07:08:10Z</time>
      </trkpt>
      <trkpt lat="44.26844" lon="5.64932">
        <ele>1300</ele>
        <time>2018-07-17T07:08:12Z</time>
      </trkpt>
      <trkpt lat="44.26844" lon="5.64934">
        <ele>1300</ele>
        <time>2018-07-17T07:08:14Z</time>
      </trkpt>
      <trkpt lat="44.26844" lon="5.64936">
        <ele>1300</ele>
        <time>2018-07-17T07:08:16Z</time>
      </trkpt>
      <trkpt lat="44.26843" lon="5.64938">
        <ele>1300</ele>
        <time>2018-07-17T07:08:18Z</time>
      </trkpt>
      <trkpt lat="44.26842" lon="5.6494">
        <ele>1300</ele>
        <time>2018-07-17T07:08:21Z</time>
      </trkpt>
      <trkpt lat="44.26841" lon="5.64942">
        <ele>1300</ele>
        <time>2018-07-17T07:08:23Z</time>
      </trkpt>
      <trkpt lat="44.2684" lon="5.64942">
        <ele>1300</ele>
        <time>2018-07-17T07:08:25Z</time>
      </trkpt>
      <trkpt lat="44.26839" lon="5.64943">
        <ele>1300</ele>
        <time>2018-07-17T07:08:29Z</time>
      </trkpt>
      <trkpt lat="44.2684" lon="5.64944">
        <ele>1300</ele>
        <time>2018-07-17T07:08:35Z</time>
      </trkpt>
      <trkpt lat="44.26841" lon="5.64945">
        <ele>1300</ele>
        <time>2018-07-17T07:08:37Z</time>
      </trkpt>
      <trkpt lat="44.26842" lon="5.64946">
        <ele>1300</ele>
        <time>2018-07-17T07:08:39Z</time>
      </trkpt>
      <trkpt lat="44.26843" lon="5.64948">
        <ele>1300</ele>
        <time>2018-07-17T07:08:42Z</time>
      </trkpt>
      <trkpt lat="44.26843" lon="5.6495">
        <ele>1300</ele>
        <time>2018-07-17T07:08:47Z</time>
      </trkpt>
      <trkpt lat="44.26842" lon="5.64952">
        <ele>1300</ele>
        <time>2018-07-17T07:08:49Z</time>
      </trkpt>
      <trkpt lat="44.26841" lon="5.64954">
        <ele>1300</ele>
        <time>2018-07-17T07:08:51Z</time>
      </trkpt>
      <trkpt lat="44.26841" lon="5.64956">
        <ele>1300</ele>
        <time>2018-07-17T07:08:53Z</time>
      </trkpt>
      <trkpt lat="44.2684" lon="5.64958">
        <ele>1300</ele>
        <time>2018-07-17T07:08:55Z</time>
      </trkpt>
      <trkpt lat="44.2684" lon="5.64959">
        <ele>1300</ele>
        <time>2018-07-17T07:08:58Z</time>
      </trkpt>
      <trkpt lat="44.2684" lon="5.64961">
        <ele>1300</ele>
        <time>2018-07-17T07:09:00Z</time>
      </trkpt>
      <trkpt lat="44.26839" lon="5.64963">
        <ele>1300</ele>
        <time>2018-07-17T07:09:03Z</time>
      </trkpt>
      <trkpt lat="44.26839" lon="5.64964">
        <ele>1300</ele>
        <time>2018-07-17T07:09:05Z</time>
      </trkpt>
      <trkpt lat="44.26838" lon="5.64966">
        <ele>1300</ele>
        <time>2018-07-17T07:09:08Z</time>
      </trkpt>
      <trkpt lat="44.26839" lon="5.64968">
        <ele>1300</ele>
        <time>2018-07-17T07:09:11Z</time>
      </trkpt>
      <trkpt lat="44.26839" lon="5.6497">
        <ele>1300</ele>
        <time>2018-07-17T07:09:14Z</time>
      </trkpt>
      <trkpt lat="44.26838" lon="5.64972">
        <ele>1300</ele>
        <time>2018-07-17T07:09:16Z</time>
      </trkpt>
      <trkpt lat="44.26838" lon="5.64974">
        <ele>1300</ele>
        <time>2018-07-17T07:09:17Z</time>
      </trkpt>
      <trkpt lat="44.26839" lon="5.64976">
        <ele>1300</ele>
        <time>2018-07-17T07:09:18Z</time>
      </trkpt>
      <trkpt lat="44.26839" lon="5.64979">
        <ele>1300</ele>
        <time>2018-07-17T07:09:20Z</time>
      </trkpt>
      <trkpt lat="44.2684" lon="5.64981">
        <ele>1300</ele>
        <time>2018-07-17T07:09:21Z</time>
      </trkpt>
      <trkpt lat="44.2684" lon="5.64982">
        <ele>1300</ele>
        <time>2018-07-17T07:09:22Z</time>
      </trkpt>
      <trkpt lat="44.2684" lon="5.64985">
        <ele>1300</ele>
        <time>2018-07-17T07:09:24Z</time>
      </trkpt>
      <trkpt lat="44.2684" lon="5.64986">
        <ele>1300</ele>
        <time>2018-07-17T07:09:27Z</time>
      </trkpt>
      <trkpt lat="44.26841" lon="5.64988">
        <ele>1301</ele>
        <time>2018-07-17T07:09:31Z</time>
      </trkpt>
      <trkpt lat="44.26841" lon="5.64989">
        <ele>1302</ele>
        <time>2018-07-17T07:09:35Z</time>
      </trkpt>
      <trkpt lat="44.26841" lon="5.64991">
        <ele>1303</ele>
        <time>2018-07-17T07:09:38Z</time>
      </trkpt>
      <trkpt lat="44.26841" lon="5.64993">
        <ele>1304</ele>
        <time>2018-07-17T07:09:41Z</time>
      </trkpt>
      <trkpt lat="44.26842" lon="5.64995">
        <ele>1304</ele>
        <time>2018-07-17T07:09:43Z</time>
      </trkpt>
      <trkpt lat="44.26842" lon="5.64997">
        <ele>1304</ele>
        <time>2018-07-17T07:09:45Z</time>
      </trkpt>
      <trkpt lat="44.26841" lon="5.64998">
        <ele>1304</ele>
        <time>2018-07-17T07:09:49Z</time>
      </trkpt>
      <trkpt lat="44.2684" lon="5.64999">
        <ele>1304</ele>
        <time>2018-07-17T07:09:52Z</time>
      </trkpt>
      <trkpt lat="44.2684" lon="5.65002">
        <ele>1304</ele>
        <time>2018-07-17T07:09:57Z</time>
      </trkpt>
      <trkpt lat="44.26841" lon="5.65003">
        <ele>1305</ele>
        <time>2018-07-17T07:10:00Z</time>
      </trkpt>
      <trkpt lat="44.26842" lon="5.65004">
        <ele>1306</ele>
        <time>2018-07-17T07:10:03Z</time>
      </trkpt>
      <trkpt lat="44.26842" lon="5.65006">
        <ele>1306</ele>
        <time>2018-07-17T07:10:06Z</time>
      </trkpt>
      <trkpt lat="44.26843" lon="5.65008">
        <ele>1306</ele>
        <time>2018-07-17T07:10:08Z</time>
      </trkpt>
      <trkpt lat="44.26842" lon="5.65009">
        <ele>1306</ele>
        <time>2018-07-17T07:10:10Z</time>
      </trkpt>
      <trkpt lat="44.26841" lon="5.65011">
        <ele>1306</ele>
        <time>2018-07-17T07:10:19Z</time>
      </trkpt>
      <trkpt lat="44.2684" lon="5.65013">
        <ele>1306</ele>
        <time>2018-07-17T07:10:21Z</time>
      </trkpt>
      <trkpt lat="44.26839" lon="5.65013">
        <ele>1306</ele>
        <time>2018-07-17T07:10:23Z</time>
      </trkpt>
      <trkpt lat="44.26838" lon="5.65015">
        <ele>1306</ele>
        <time>2018-07-17T07:10:26Z</time>
      </trkpt>
      <trkpt lat="44.26837" lon="5.65016">
        <ele>1306</ele>
        <time>2018-07-17T07:10:28Z</time>
      </trkpt>
      <trkpt lat="44.26836" lon="5.65018">
        <ele>1306</ele>
        <time>2018-07-17T07:10:31Z</time>
      </trkpt>
      <trkpt lat="44.26835" lon="5.65019">
        <ele>1306</ele>
        <time>2018-07-17T07:10:33Z</time>
      </trkpt>
      <trkpt lat="44.26834" lon="5.6502">
        <ele>1306</ele>
        <time>2018-07-17T07:10:35Z</time>
      </trkpt>
      <trkpt lat="44.26832" lon="5.65021">
        <ele>1306</ele>
        <time>2018-07-17T07:10:37Z</time>
      </trkpt>
      <trkpt lat="44.26831" lon="5.65021">
        <ele>1306</ele>
        <time>2018-07-17T07:10:39Z</time>
      </trkpt>
      <trkpt lat="44.26831" lon="5.65023">
        <ele>1306</ele>
        <time>2018-07-17T07:10:43Z</time>
      </trkpt>
      <trkpt lat="44.26831" lon="5.65025">
        <ele>1306</ele>
        <time>2018-07-17T07:10:46Z</time>
      </trkpt>
      <trkpt lat="44.26831" lon="5.65026">
        <ele>1306</ele>
        <time>2018-07-17T07:10:49Z</time>
      </trkpt>
      <trkpt lat="44.26831" lon="5.65028">
        <ele>1306</ele>
        <time>2018-07-17T07:10:52Z</time>
      </trkpt>
      <trkpt lat="44.26832" lon="5.65029">
        <ele>1306</ele>
        <time>2018-07-17T07:10:56Z</time>
      </trkpt>
      <trkpt lat="44.26832" lon="5.65031">
        <ele>1306</ele>
        <time>2018-07-17T07:11:03Z</time>
      </trkpt>
      <trkpt lat="44.26833" lon="5.65032">
        <ele>1306</ele>
        <time>2018-07-17T07:11:09Z</time>
      </trkpt>
      <trkpt lat="44.26834" lon="5.65033">
        <ele>1306</ele>
        <time>2018-07-17T07:11:10Z</time>
      </trkpt>
      <trkpt lat="44.26836" lon="5.65033">
        <ele>1306</ele>
        <time>2018-07-17T07:11:11Z</time>
      </trkpt>
      <trkpt lat="44.26837" lon="5.65034">
        <ele>1306</ele>
        <time>2018-07-17T07:11:15Z</time>
      </trkpt>
      <trkpt lat="44.26838" lon="5.65036">
        <ele>1306</ele>
        <time>2018-07-17T07:11:18Z</time>
      </trkpt>
      <trkpt lat="44.26839" lon="5.65036">
        <ele>1306</ele>
        <time>2018-07-17T07:11:20Z</time>
      </trkpt>
      <trkpt lat="44.2684" lon="5.65038">
        <ele>1306</ele>
        <time>2018-07-17T07:11:23Z</time>
      </trkpt>
      <trkpt lat="44.26841" lon="5.65039">
        <ele>1306</ele>
        <time>2018-07-17T07:11:25Z</time>
      </trkpt>
      <trkpt lat="44.26841" lon="5.65041">
        <ele>1306</ele>
        <time>2018-07-17T07:11:28Z</time>
      </trkpt>
      <trkpt lat="44.2684" lon="5.65042">
        <ele>1305</ele>
        <time>2018-07-17T07:11:30Z</time>
      </trkpt>
      <trkpt lat="44.26839" lon="5.65045">
        <ele>1305</ele>
        <time>2018-07-17T07:11:32Z</time>
      </trkpt>
      <trkpt lat="44.26839" lon="5.65047">
        <ele>1304</ele>
        <time>2018-07-17T07:11:34Z</time>
      </trkpt>
      <trkpt lat="44.26839" lon="5.65049">
        <ele>1304</ele>
        <time>2018-07-17T07:11:36Z</time>
      </trkpt>
      <trkpt lat="44.26839" lon="5.6505">
        <ele>1304</ele>
        <time>2018-07-17T07:11:38Z</time>
      </trkpt>
      <trkpt lat="44.26839" lon="5.65052">
        <ele>1304</ele>
        <time>2018-07-17T07:11:40Z</time>
      </trkpt>
      <trkpt lat="44.2684" lon="5.65055">
        <ele>1304</ele>
        <time>2018-07-17T07:11:42Z</time>
      </trkpt>
      <trkpt lat="44.26842" lon="5.65056">
        <ele>1304</ele>
        <time>2018-07-17T07:11:45Z</time>
      </trkpt>
      <trkpt lat="44.26842" lon="5.65058">
        <ele>1304</ele>
        <time>2018-07-17T07:11:47Z</time>
      </trkpt>
      <trkpt lat="44.26842" lon="5.6506">
        <ele>1304</ele>
        <time>2018-07-17T07:11:49Z</time>
      </trkpt>
      <trkpt lat="44.26842" lon="5.65062">
        <ele>1304</ele>
        <time>2018-07-17T07:11:51Z</time>
      </trkpt>
      <trkpt lat="44.26844" lon="5.65063">
        <ele>1304</ele>
        <time>2018-07-17T07:11:54Z</time>
      </trkpt>
      <trkpt lat="44.26845" lon="5.65064">
        <ele>1304</ele>
        <time>2018-07-17T07:11:56Z</time>
      </trkpt>
      <trkpt lat="44.26846" lon="5.65065">
        <ele>1304</ele>
        <time>2018-07-17T07:11:58Z</time>
      </trkpt>
      <trkpt lat="44.26847" lon="5.65064">
        <ele>1303</ele>
        <time>2018-07-17T07:12:02Z</time>
      </trkpt>
      <trkpt lat="44.26849" lon="5.65065">
        <ele>1302</ele>
        <time>2018-07-17T07:12:04Z</time>
      </trkpt>
      <trkpt lat="44.26851" lon="5.65066">
        <ele>1301</ele>
        <time>2018-07-17T07:12:06Z</time>
      </trkpt>
      <trkpt lat="44.26852" lon="5.65067">
        <ele>1301</ele>
        <time>2018-07-17T07:12:08Z</time>
      </trkpt>
      <trkpt lat="44.26854" lon="5.65069">
        <ele>1301</ele>
        <time>2018-07-17T07:12:10Z</time>
      </trkpt>
      <trkpt lat="44.26855" lon="5.6507">
        <ele>1301</ele>
        <time>2018-07-17T07:12:12Z</time>
      </trkpt>
      <trkpt lat="44.26856" lon="5.6507">
        <ele>1301</ele>
        <time>2018-07-17T07:12:17Z</time>
      </trkpt>
      <trkpt lat="44.26857" lon="5.65071">
        <ele>1300</ele>
        <time>2018-07-17T07:12:23Z</time>
      </trkpt>
      <trkpt lat="44.26859" lon="5.65072">
        <ele>1300</ele>
        <time>2018-07-17T07:12:28Z</time>
      </trkpt>
      <trkpt lat="44.2686" lon="5.65074">
        <ele>1300</ele>
        <time>2018-07-17T07:12:32Z</time>
      </trkpt>
      <trkpt lat="44.26861" lon="5.65076">
        <ele>1300</ele>
        <time>2018-07-17T07:12:35Z</time>
      </trkpt>
      <trkpt lat="44.26862" lon="5.65077">
        <ele>1300</ele>
        <time>2018-07-17T07:12:37Z</time>
      </trkpt>
      <trkpt lat="44.26864" lon="5.65079">
        <ele>1300</ele>
        <time>2018-07-17T07:12:40Z</time>
      </trkpt>
      <trkpt lat="44.26865" lon="5.6508">
        <ele>1300</ele>
        <time>2018-07-17T07:12:42Z</time>
      </trkpt>
      <trkpt lat="44.26865" lon="5.65082">
        <ele>1300</ele>
        <time>2018-07-17T07:12:44Z</time>
      </trkpt>
      <trkpt lat="44.26866" lon="5.65083">
        <ele>1300</ele>
        <time>2018-07-17T07:12:46Z</time>
      </trkpt>
      <trkpt lat="44.26867" lon="5.65084">
        <ele>1300</ele>
        <time>2018-07-17T07:12:49Z</time>
      </trkpt>
      <trkpt lat="44.26868" lon="5.65086">
        <ele>1300</ele>
        <time>2018-07-17T07:12:52Z</time>
      </trkpt>
      <trkpt lat="44.26869" lon="5.65086">
        <ele>1300</ele>
        <time>2018-07-17T07:12:53Z</time>
      </trkpt>
      <trkpt lat="44.26871" lon="5.65086">
        <ele>1300</ele>
        <time>2018-07-17T07:12:55Z</time>
      </trkpt>
      <trkpt lat="44.26871" lon="5.65088">
        <ele>1300</ele>
        <time>2018-07-17T07:12:56Z</time>
      </trkpt>
      <trkpt lat="44.26872" lon="5.65089">
        <ele>1300</ele>
        <time>2018-07-17T07:12:57Z</time>
      </trkpt>
      <trkpt lat="44.26873" lon="5.65092">
        <ele>1300</ele>
        <time>2018-07-17T07:12:59Z</time>
      </trkpt>
      <trkpt lat="44.26873" lon="5.65095">
        <ele>1300</ele>
        <time>2018-07-17T07:13:01Z</time>
      </trkpt>
      <trkpt lat="44.26872" lon="5.65097">
        <ele>1300</ele>
        <time>2018-07-17T07:13:03Z</time>
      </trkpt>
      <trkpt lat="44.26872" lon="5.65099">
        <ele>1300</ele>
        <time>2018-07-17T07:13:05Z</time>
      </trkpt>
      <trkpt lat="44.26873" lon="5.651">
        <ele>1300</ele>
        <time>2018-07-17T07:13:08Z</time>
      </trkpt>
      <trkpt lat="44.26874" lon="5.65102">
        <ele>1300</ele>
        <time>2018-07-17T07:13:10Z</time>
      </trkpt>
      <trkpt lat="44.26876" lon="5.65103">
        <ele>1300</ele>
        <time>2018-07-17T07:13:12Z</time>
      </trkpt>
      <trkpt lat="44.26877" lon="5.65105">
        <ele>1299</ele>
        <time>2018-07-17T07:13:14Z</time>
      </trkpt>
      <trkpt lat="44.26877" lon="5.65107">
        <ele>1299</ele>
        <time>2018-07-17T07:13:15Z</time>
      </trkpt>
      <trkpt lat="44.26878" lon="5.65109">
        <ele>1299</ele>
        <time>2018-07-17T07:13:17Z</time>
      </trkpt>
      <trkpt lat="44.26879" lon="5.6511">
        <ele>1299</ele>
        <time>2018-07-17T07:13:19Z</time>
      </trkpt>
      <trkpt lat="44.26881" lon="5.65111">
        <ele>1299</ele>
        <time>2018-07-17T07:13:20Z</time>
      </trkpt>
      <trkpt lat="44.26881" lon="5.65113">
        <ele>1299</ele>
        <time>2018-07-17T07:13:23Z</time>
      </trkpt>
      <trkpt lat="44.26881" lon="5.65114">
        <ele>1299</ele>
        <time>2018-07-17T07:13:25Z</time>
      </trkpt>
      <trkpt lat="44.26883" lon="5.65115">
        <ele>1299</ele>
        <time>2018-07-17T07:13:27Z</time>
      </trkpt>
      <trkpt lat="44.26882" lon="5.65117">
        <ele>1299</ele>
        <time>2018-07-17T07:13:31Z</time>
      </trkpt>
      <trkpt lat="44.26884" lon="5.65118">
        <ele>1298</ele>
        <time>2018-07-17T07:13:34Z</time>
      </trkpt>
      <trkpt lat="44.26885" lon="5.65118">
        <ele>1298</ele>
        <time>2018-07-17T07:13:36Z</time>
      </trkpt>
      <trkpt lat="44.26886" lon="5.65118">
        <ele>1298</ele>
        <time>2018-07-17T07:13:37Z</time>
      </trkpt>
      <trkpt lat="44.26888" lon="5.65118">
        <ele>1296</ele>
        <time>2018-07-17T07:13:40Z</time>
      </trkpt>
      <trkpt lat="44.26889" lon="5.65118">
        <ele>1296</ele>
        <time>2018-07-17T07:13:43Z</time>
      </trkpt>
      <trkpt lat="44.26891" lon="5.65118">
        <ele>1295</ele>
        <time>2018-07-17T07:13:46Z</time>
      </trkpt>
      <trkpt lat="44.26892" lon="5.65119">
        <ele>1294</ele>
        <time>2018-07-17T07:13:48Z</time>
      </trkpt>
      <trkpt lat="44.26894" lon="5.65118">
        <ele>1294</ele>
        <time>2018-07-17T07:13:50Z</time>
      </trkpt>
      <trkpt lat="44.26895" lon="5.65118">
        <ele>1294</ele>
        <time>2018-07-17T07:13:52Z</time>
      </trkpt>
      <trkpt lat="44.26897" lon="5.65119">
        <ele>1294</ele>
        <time>2018-07-17T07:13:55Z</time>
      </trkpt>
      <trkpt lat="44.26898" lon="5.65118">
        <ele>1293</ele>
        <time>2018-07-17T07:13:59Z</time>
      </trkpt>
      <trkpt lat="44.26899" lon="5.65116">
        <ele>1292</ele>
        <time>2018-07-17T07:14:03Z</time>
      </trkpt>
      <trkpt lat="44.269" lon="5.65115">
        <ele>1291</ele>
        <time>2018-07-17T07:14:08Z</time>
      </trkpt>
      <trkpt lat="44.26902" lon="5.65115">
        <ele>1290</ele>
        <time>2018-07-17T07:14:13Z</time>
      </trkpt>
      <trkpt lat="44.26903" lon="5.65115">
        <ele>1290</ele>
        <time>2018-07-17T07:14:16Z</time>
      </trkpt>
      <trkpt lat="44.26904" lon="5.65118">
        <ele>1289</ele>
        <time>2018-07-17T07:14:19Z</time>
      </trkpt>
      <trkpt lat="44.26905" lon="5.65118">
        <ele>1289</ele>
        <time>2018-07-17T07:14:20Z</time>
      </trkpt>
      <trkpt lat="44.26907" lon="5.65119">
        <ele>1289</ele>
        <time>2018-07-17T07:14:22Z</time>
      </trkpt>
      <trkpt lat="44.26907" lon="5.65121">
        <ele>1288</ele>
        <time>2018-07-17T07:14:24Z</time>
      </trkpt>
      <trkpt lat="44.26907" lon="5.65122">
        <ele>1288</ele>
        <time>2018-07-17T07:14:26Z</time>
      </trkpt>
      <trkpt lat="44.26907" lon="5.65124">
        <ele>1287</ele>
        <time>2018-07-17T07:14:28Z</time>
      </trkpt>
      <trkpt lat="44.26908" lon="5.65125">
        <ele>1287</ele>
        <time>2018-07-17T07:14:31Z</time>
      </trkpt>
      <trkpt lat="44.2691" lon="5.65126">
        <ele>1286</ele>
        <time>2018-07-17T07:14:33Z</time>
      </trkpt>
      <trkpt lat="44.26911" lon="5.65126">
        <ele>1286</ele>
        <time>2018-07-17T07:14:34Z</time>
      </trkpt>
      <trkpt lat="44.26913" lon="5.65127">
        <ele>1286</ele>
        <time>2018-07-17T07:14:35Z</time>
      </trkpt>
      <trkpt lat="44.26915" lon="5.65128">
        <ele>1286</ele>
        <time>2018-07-17T07:14:37Z</time>
      </trkpt>
      <trkpt lat="44.26915" lon="5.6513">
        <ele>1286</ele>
        <time>2018-07-17T07:14:38Z</time>
      </trkpt>
      <trkpt lat="44.26915" lon="5.65132">
        <ele>1286</ele>
        <time>2018-07-17T07:14:40Z</time>
      </trkpt>
      <trkpt lat="44.26915" lon="5.65134">
        <ele>1286</ele>
        <time>2018-07-17T07:14:42Z</time>
      </trkpt>
      <trkpt lat="44.26917" lon="5.65135">
        <ele>1286</ele>
        <time>2018-07-17T07:14:44Z</time>
      </trkpt>
      <trkpt lat="44.26917" lon="5.65137">
        <ele>1286</ele>
        <time>2018-07-17T07:14:46Z</time>
      </trkpt>
      <trkpt lat="44.26918" lon="5.65139">
        <ele>1286</ele>
        <time>2018-07-17T07:14:48Z</time>
      </trkpt>
      <trkpt lat="44.2692" lon="5.65139">
        <ele>1286</ele>
        <time>2018-07-17T07:14:49Z</time>
      </trkpt>
      <trkpt lat="44.2692" lon="5.65141">
        <ele>1286</ele>
        <time>2018-07-17T07:14:51Z</time>
      </trkpt>
      <trkpt lat="44.26921" lon="5.65143">
        <ele>1286</ele>
        <time>2018-07-17T07:14:53Z</time>
      </trkpt>
      <trkpt lat="44.26922" lon="5.65144">
        <ele>1286</ele>
        <time>2018-07-17T07:14:55Z</time>
      </trkpt>
      <trkpt lat="44.26924" lon="5.65146">
        <ele>1286</ele>
        <time>2018-07-17T07:14:57Z</time>
      </trkpt>
      <trkpt lat="44.26924" lon="5.65148">
        <ele>1286</ele>
        <time>2018-07-17T07:14:59Z</time>
      </trkpt>
      <trkpt lat="44.26925" lon="5.6515">
        <ele>1286</ele>
        <time>2018-07-17T07:15:01Z</time>
      </trkpt>
      <trkpt lat="44.26925" lon="5.65152">
        <ele>1286</ele>
        <time>2018-07-17T07:15:03Z</time>
      </trkpt>
      <trkpt lat="44.26926" lon="5.65154">
        <ele>1286</ele>
        <time>2018-07-17T07:15:05Z</time>
      </trkpt>
      <trkpt lat="44.26927" lon="5.65155">
        <ele>1286</ele>
        <time>2018-07-17T07:15:10Z</time>
      </trkpt>
      <trkpt lat="44.26929" lon="5.65155">
        <ele>1286</ele>
        <time>2018-07-17T07:15:12Z</time>
      </trkpt>
      <trkpt lat="44.2693" lon="5.65157">
        <ele>1286</ele>
        <time>2018-07-17T07:15:17Z</time>
      </trkpt>
      <trkpt lat="44.2693" lon="5.65158">
        <ele>1286</ele>
        <time>2018-07-17T07:15:20Z</time>
      </trkpt>
      <trkpt lat="44.26931" lon="5.6516">
        <ele>1286</ele>
        <time>2018-07-17T07:15:28Z</time>
      </trkpt>
      <trkpt lat="44.26932" lon="5.65162">
        <ele>1286</ele>
        <time>2018-07-17T07:15:30Z</time>
      </trkpt>
      <trkpt lat="44.26932" lon="5.65164">
        <ele>1286</ele>
        <time>2018-07-17T07:15:32Z</time>
      </trkpt>
      <trkpt lat="44.26933" lon="5.65165">
        <ele>1286</ele>
        <time>2018-07-17T07:15:33Z</time>
      </trkpt>
      <trkpt lat="44.26933" lon="5.65167">
        <ele>1286</ele>
        <time>2018-07-17T07:15:34Z</time>
      </trkpt>
      <trkpt lat="44.26933" lon="5.65169">
        <ele>1286</ele>
        <time>2018-07-17T07:15:36Z</time>
      </trkpt>
      <trkpt lat="44.26934" lon="5.6517">
        <ele>1286</ele>
        <time>2018-07-17T07:15:38Z</time>
      </trkpt>
      <trkpt lat="44.26934" lon="5.65172">
        <ele>1286</ele>
        <time>2018-07-17T07:15:40Z</time>
      </trkpt>
      <trkpt lat="44.26934" lon="5.65175">
        <ele>1285</ele>
        <time>2018-07-17T07:15:42Z</time>
      </trkpt>
      <trkpt lat="44.26934" lon="5.65177">
        <ele>1283</ele>
        <time>2018-07-17T07:15:44Z</time>
      </trkpt>
      <trkpt lat="44.26935" lon="5.65178">
        <ele>1282</ele>
        <time>2018-07-17T07:15:46Z</time>
      </trkpt>
      <trkpt lat="44.26936" lon="5.6518">
        <ele>1282</ele>
        <time>2018-07-17T07:15:48Z</time>
      </trkpt>
      <trkpt lat="44.26937" lon="5.65182">
        <ele>1281</ele>
        <time>2018-07-17T07:15:51Z</time>
      </trkpt>
      <trkpt lat="44.26937" lon="5.65184">
        <ele>1281</ele>
        <time>2018-07-17T07:15:53Z</time>
      </trkpt>
      <trkpt lat="44.26938" lon="5.65187">
        <ele>1280</ele>
        <time>2018-07-17T07:15:55Z</time>
      </trkpt>
      <trkpt lat="44.26938" lon="5.65189">
        <ele>1280</ele>
        <time>2018-07-17T07:15:57Z</time>
      </trkpt>
      <trkpt lat="44.26939" lon="5.65191">
        <ele>1280</ele>
        <time>2018-07-17T07:15:58Z</time>
      </trkpt>
      <trkpt lat="44.26938" lon="5.65193">
        <ele>1280</ele>
        <time>2018-07-17T07:16:00Z</time>
      </trkpt>
      <trkpt lat="44.2694" lon="5.65195">
        <ele>1280</ele>
        <time>2018-07-17T07:16:01Z</time>
      </trkpt>
      <trkpt lat="44.26941" lon="5.65196">
        <ele>1280</ele>
        <time>2018-07-17T07:16:02Z</time>
      </trkpt>
      <trkpt lat="44.26941" lon="5.65199">
        <ele>1280</ele>
        <time>2018-07-17T07:16:04Z</time>
      </trkpt>
      <trkpt lat="44.26941" lon="5.652">
        <ele>1280</ele>
        <time>2018-07-17T07:16:05Z</time>
      </trkpt>
      <trkpt lat="44.26942" lon="5.65202">
        <ele>1280</ele>
        <time>2018-07-17T07:16:07Z</time>
      </trkpt>
      <trkpt lat="44.26943" lon="5.65204">
        <ele>1280</ele>
        <time>2018-07-17T07:16:09Z</time>
      </trkpt>
      <trkpt lat="44.26944" lon="5.65205">
        <ele>1280</ele>
        <time>2018-07-17T07:16:10Z</time>
      </trkpt>
      <trkpt lat="44.26945" lon="5.65207">
        <ele>1280</ele>
        <time>2018-07-17T07:16:12Z</time>
      </trkpt>
      <trkpt lat="44.26947" lon="5.6521">
        <ele>1280</ele>
        <time>2018-07-17T07:16:14Z</time>
      </trkpt>
      <trkpt lat="44.26947" lon="5.65212">
        <ele>1280</ele>
        <time>2018-07-17T07:16:16Z</time>
      </trkpt>
      <trkpt lat="44.26948" lon="5.65215">
        <ele>1280</ele>
        <time>2018-07-17T07:16:18Z</time>
      </trkpt>
      <trkpt lat="44.26948" lon="5.65216">
        <ele>1280</ele>
        <time>2018-07-17T07:16:19Z</time>
      </trkpt>
      <trkpt lat="44.26949" lon="5.65219">
        <ele>1280</ele>
        <time>2018-07-17T07:16:21Z</time>
      </trkpt>
      <trkpt lat="44.26949" lon="5.65221">
        <ele>1280</ele>
        <time>2018-07-17T07:16:22Z</time>
      </trkpt>
      <trkpt lat="44.2695" lon="5.65222">
        <ele>1280</ele>
        <time>2018-07-17T07:16:23Z</time>
      </trkpt>
      <trkpt lat="44.26951" lon="5.65225">
        <ele>1280</ele>
        <time>2018-07-17T07:16:25Z</time>
      </trkpt>
      <trkpt lat="44.26952" lon="5.65227">
        <ele>1280</ele>
        <time>2018-07-17T07:16:27Z</time>
      </trkpt>
      <trkpt lat="44.26953" lon="5.65229">
        <ele>1280</ele>
        <time>2018-07-17T07:16:29Z</time>
      </trkpt>
      <trkpt lat="44.26953" lon="5.65231">
        <ele>1280</ele>
        <time>2018-07-17T07:16:31Z</time>
      </trkpt>
      <trkpt lat="44.26953" lon="5.65234">
        <ele>1280</ele>
        <time>2018-07-17T07:16:33Z</time>
      </trkpt>
      <trkpt lat="44.26954" lon="5.65235">
        <ele>1280</ele>
        <time>2018-07-17T07:16:35Z</time>
      </trkpt>
      <trkpt lat="44.26955" lon="5.65237">
        <ele>1280</ele>
        <time>2018-07-17T07:16:37Z</time>
      </trkpt>
      <trkpt lat="44.26955" lon="5.65239">
        <ele>1280</ele>
        <time>2018-07-17T07:16:39Z</time>
      </trkpt>
      <trkpt lat="44.26956" lon="5.65241">
        <ele>1280</ele>
        <time>2018-07-17T07:16:41Z</time>
      </trkpt>
      <trkpt lat="44.26956" lon="5.65244">
        <ele>1279</ele>
        <time>2018-07-17T07:16:43Z</time>
      </trkpt>
      <trkpt lat="44.26956" lon="5.65247">
        <ele>1278</ele>
        <time>2018-07-17T07:16:45Z</time>
      </trkpt>
      <trkpt lat="44.26957" lon="5.65248">
        <ele>1278</ele>
        <time>2018-07-17T07:16:47Z</time>
      </trkpt>
      <trkpt lat="44.26958" lon="5.65251">
        <ele>1278</ele>
        <time>2018-07-17T07:16:49Z</time>
      </trkpt>
      <trkpt lat="44.26959" lon="5.65253">
        <ele>1278</ele>
        <time>2018-07-17T07:16:51Z</time>
      </trkpt>
      <trkpt lat="44.2696" lon="5.65254">
        <ele>1278</ele>
        <time>2018-07-17T07:16:53Z</time>
      </trkpt>
      <trkpt lat="44.26962" lon="5.65256">
        <ele>1278</ele>
        <time>2018-07-17T07:16:55Z</time>
      </trkpt>
      <trkpt lat="44.26963" lon="5.65257">
        <ele>1278</ele>
        <time>2018-07-17T07:16:57Z</time>
      </trkpt>
      <trkpt lat="44.26964" lon="5.65259">
        <ele>1277</ele>
        <time>2018-07-17T07:16:59Z</time>
      </trkpt>
      <trkpt lat="44.26966" lon="5.65261">
        <ele>1276</ele>
        <time>2018-07-17T07:17:02Z</time>
      </trkpt>
      <trkpt lat="44.26966" lon="5.65262">
        <ele>1276</ele>
        <time>2018-07-17T07:17:04Z</time>
      </trkpt>
      <trkpt lat="44.26967" lon="5.65263">
        <ele>1275</ele>
        <time>2018-07-17T07:17:05Z</time>
      </trkpt>
      <trkpt lat="44.26968" lon="5.65265">
        <ele>1275</ele>
        <time>2018-07-17T07:17:07Z</time>
      </trkpt>
      <trkpt lat="44.2697" lon="5.65267">
        <ele>1275</ele>
        <time>2018-07-17T07:17:10Z</time>
      </trkpt>
      <trkpt lat="44.26971" lon="5.65268">
        <ele>1275</ele>
        <time>2018-07-17T07:17:12Z</time>
      </trkpt>
      <trkpt lat="44.26972" lon="5.6527">
        <ele>1274</ele>
        <time>2018-07-17T07:17:15Z</time>
      </trkpt>
      <trkpt lat="44.26973" lon="5.65272">
        <ele>1274</ele>
        <time>2018-07-17T07:17:17Z</time>
      </trkpt>
      <trkpt lat="44.26974" lon="5.65273">
        <ele>1274</ele>
        <time>2018-07-17T07:17:19Z</time>
      </trkpt>
      <trkpt lat="44.26975" lon="5.65275">
        <ele>1274</ele>
        <time>2018-07-17T07:17:21Z</time>
      </trkpt>
      <trkpt lat="44.26976" lon="5.65276">
        <ele>1274</ele>
        <time>2018-07-17T07:17:24Z</time>
      </trkpt>
      <trkpt lat="44.26977" lon="5.65278">
        <ele>1274</ele>
        <time>2018-07-17T07:17:27Z</time>
      </trkpt>
      <trkpt lat="44.26978" lon="5.65279">
        <ele>1274</ele>
        <time>2018-07-17T07:17:30Z</time>
      </trkpt>
      <trkpt lat="44.26978" lon="5.65281">
        <ele>1274</ele>
        <time>2018-07-17T07:17:35Z</time>
      </trkpt>
      <trkpt lat="44.26979" lon="5.65282">
        <ele>1274</ele>
        <time>2018-07-17T07:17:43Z</time>
      </trkpt>
      <trkpt lat="44.2698" lon="5.65283">
        <ele>1274</ele>
        <time>2018-07-17T07:17:59Z</time>
      </trkpt>
      <trkpt lat="44.2698" lon="5.65281">
        <ele>1274</ele>
        <time>2018-07-17T07:18:10Z</time>
      </trkpt>
      <trkpt lat="44.26981" lon="5.6528">
        <ele>1274</ele>
        <time>2018-07-17T07:18:13Z</time>
      </trkpt>
      <trkpt lat="44.26982" lon="5.65279">
        <ele>1274</ele>
        <time>2018-07-17T07:18:16Z</time>
      </trkpt>
      <trkpt lat="44.26983" lon="5.65279">
        <ele>1274</ele>
        <time>2018-07-17T07:18:22Z</time>
      </trkpt>
      <trkpt lat="44.26982" lon="5.6528">
        <ele>1274</ele>
        <time>2018-07-17T07:18:31Z</time>
      </trkpt>
      <trkpt lat="44.26981" lon="5.6528">
        <ele>1274</ele>
        <time>2018-07-17T07:18:41Z</time>
      </trkpt>
      <trkpt lat="44.26979" lon="5.6528">
        <ele>1274</ele>
        <time>2018-07-17T07:18:54Z</time>
      </trkpt>
      <trkpt lat="44.26979" lon="5.65282">
        <ele>1274</ele>
        <time>2018-07-17T07:19:06Z</time>
      </trkpt>
      <trkpt lat="44.2698" lon="5.65282">
        <ele>1274</ele>
        <time>2018-07-17T07:19:12Z</time>
      </trkpt>
      <trkpt lat="44.26981" lon="5.65281">
        <ele>1274</ele>
        <time>2018-07-17T07:19:14Z</time>
      </trkpt>
      <trkpt lat="44.26983" lon="5.65281">
        <ele>1274</ele>
        <time>2018-07-17T07:19:17Z</time>
      </trkpt>
      <trkpt lat="44.26984" lon="5.65283">
        <ele>1274</ele>
        <time>2018-07-17T07:19:22Z</time>
      </trkpt>
      <trkpt lat="44.26985" lon="5.65285">
        <ele>1274</ele>
        <time>2018-07-17T07:19:25Z</time>
      </trkpt>
      <trkpt lat="44.26985" lon="5.65286">
        <ele>1274</ele>
        <time>2018-07-17T07:19:27Z</time>
      </trkpt>
      <trkpt lat="44.26985" lon="5.65288">
        <ele>1274</ele>
        <time>2018-07-17T07:19:29Z</time>
      </trkpt>
      <trkpt lat="44.26985" lon="5.6529">
        <ele>1274</ele>
        <time>2018-07-17T07:19:31Z</time>
      </trkpt>
      <trkpt lat="44.26985" lon="5.65292">
        <ele>1273</ele>
        <time>2018-07-17T07:19:33Z</time>
      </trkpt>
      <trkpt lat="44.26985" lon="5.65294">
        <ele>1273</ele>
        <time>2018-07-17T07:19:35Z</time>
      </trkpt>
      <trkpt lat="44.26984" lon="5.65296">
        <ele>1273</ele>
        <time>2018-07-17T07:19:37Z</time>
      </trkpt>
      <trkpt lat="44.26984" lon="5.65298">
        <ele>1273</ele>
        <time>2018-07-17T07:19:39Z</time>
      </trkpt>
      <trkpt lat="44.26985" lon="5.653">
        <ele>1273</ele>
        <time>2018-07-17T07:19:41Z</time>
      </trkpt>
      <trkpt lat="44.26986" lon="5.65302">
        <ele>1273</ele>
        <time>2018-07-17T07:19:43Z</time>
      </trkpt>
      <trkpt lat="44.26986" lon="5.65304">
        <ele>1273</ele>
        <time>2018-07-17T07:19:45Z</time>
      </trkpt>
      <trkpt lat="44.26987" lon="5.65306">
        <ele>1273</ele>
        <time>2018-07-17T07:19:47Z</time>
      </trkpt>
      <trkpt lat="44.26987" lon="5.65308">
        <ele>1273</ele>
        <time>2018-07-17T07:19:48Z</time>
      </trkpt>
      <trkpt lat="44.26988" lon="5.6531">
        <ele>1273</ele>
        <time>2018-07-17T07:19:50Z</time>
      </trkpt>
      <trkpt lat="44.2699" lon="5.65312">
        <ele>1273</ele>
        <time>2018-07-17T07:19:52Z</time>
      </trkpt>
      <trkpt lat="44.26991" lon="5.65314">
        <ele>1272</ele>
        <time>2018-07-17T07:19:54Z</time>
      </trkpt>
      <trkpt lat="44.26991" lon="5.65316">
        <ele>1272</ele>
        <time>2018-07-17T07:19:56Z</time>
      </trkpt>
      <trkpt lat="44.26992" lon="5.65318">
        <ele>1271</ele>
        <time>2018-07-17T07:19:58Z</time>
      </trkpt>
      <trkpt lat="44.26992" lon="5.6532">
        <ele>1270</ele>
        <time>2018-07-17T07:20:00Z</time>
      </trkpt>
      <trkpt lat="44.26992" lon="5.65322">
        <ele>1270</ele>
        <time>2018-07-17T07:20:02Z</time>
      </trkpt>
      <trkpt lat="44.26992" lon="5.65324">
        <ele>1269</ele>
        <time>2018-07-17T07:20:03Z</time>
      </trkpt>
      <trkpt lat="44.26992" lon="5.65325">
        <ele>1268</ele>
        <time>2018-07-17T07:20:05Z</time>
      </trkpt>
      <trkpt lat="44.26993" lon="5.65327">
        <ele>1268</ele>
        <time>2018-07-17T07:20:07Z</time>
      </trkpt>
      <trkpt lat="44.26994" lon="5.65329">
        <ele>1268</ele>
        <time>2018-07-17T07:20:10Z</time>
      </trkpt>
      <trkpt lat="44.26996" lon="5.65329">
        <ele>1268</ele>
        <time>2018-07-17T07:20:11Z</time>
      </trkpt>
      <trkpt lat="44.26997" lon="5.6533">
        <ele>1267</ele>
        <time>2018-07-17T07:20:14Z</time>
      </trkpt>
      <trkpt lat="44.26998" lon="5.65332">
        <ele>1267</ele>
        <time>2018-07-17T07:20:19Z</time>
      </trkpt>
      <trkpt lat="44.26999" lon="5.65334">
        <ele>1267</ele>
        <time>2018-07-17T07:20:22Z</time>
      </trkpt>
      <trkpt lat="44.27" lon="5.65334">
        <ele>1267</ele>
        <time>2018-07-17T07:20:24Z</time>
      </trkpt>
      <trkpt lat="44.27001" lon="5.65334">
        <ele>1267</ele>
        <time>2018-07-17T07:20:29Z</time>
      </trkpt>
      <trkpt lat="44.27002" lon="5.65336">
        <ele>1267</ele>
        <time>2018-07-17T07:20:32Z</time>
      </trkpt>
      <trkpt lat="44.27003" lon="5.65338">
        <ele>1267</ele>
        <time>2018-07-17T07:20:35Z</time>
      </trkpt>
      <trkpt lat="44.27003" lon="5.65341">
        <ele>1267</ele>
        <time>2018-07-17T07:20:37Z</time>
      </trkpt>
      <trkpt lat="44.27004" lon="5.65343">
        <ele>1267</ele>
        <time>2018-07-17T07:20:39Z</time>
      </trkpt>
      <trkpt lat="44.27005" lon="5.65345">
        <ele>1267</ele>
        <time>2018-07-17T07:20:42Z</time>
      </trkpt>
      <trkpt lat="44.27006" lon="5.65346">
        <ele>1267</ele>
        <time>2018-07-17T07:20:46Z</time>
      </trkpt>
      <trkpt lat="44.27006" lon="5.65348">
        <ele>1267</ele>
        <time>2018-07-17T07:20:49Z</time>
      </trkpt>
      <trkpt lat="44.27004" lon="5.65349">
        <ele>1267</ele>
        <time>2018-07-17T07:20:51Z</time>
      </trkpt>
      <trkpt lat="44.27006" lon="5.65349">
        <ele>1267</ele>
        <time>2018-07-17T07:20:59Z</time>
      </trkpt>
      <trkpt lat="44.27007" lon="5.6535">
        <ele>1267</ele>
        <time>2018-07-17T07:21:00Z</time>
      </trkpt>
      <trkpt lat="44.27008" lon="5.6535">
        <ele>1267</ele>
        <time>2018-07-17T07:21:04Z</time>
      </trkpt>
      <trkpt lat="44.2701" lon="5.65352">
        <ele>1267</ele>
        <time>2018-07-17T07:21:08Z</time>
      </trkpt>
      <trkpt lat="44.27011" lon="5.65352">
        <ele>1267</ele>
        <time>2018-07-17T07:21:09Z</time>
      </trkpt>
      <trkpt lat="44.27012" lon="5.65353">
        <ele>1267</ele>
        <time>2018-07-17T07:21:10Z</time>
      </trkpt>
      <trkpt lat="44.27012" lon="5.65355">
        <ele>1267</ele>
        <time>2018-07-17T07:21:12Z</time>
      </trkpt>
      <trkpt lat="44.27013" lon="5.65357">
        <ele>1267</ele>
        <time>2018-07-17T07:21:14Z</time>
      </trkpt>
      <trkpt lat="44.27013" lon="5.65358">
        <ele>1267</ele>
        <time>2018-07-17T07:21:16Z</time>
      </trkpt>
      <trkpt lat="44.27014" lon="5.6536">
        <ele>1267</ele>
        <time>2018-07-17T07:21:18Z</time>
      </trkpt>
      <trkpt lat="44.27014" lon="5.65362">
        <ele>1267</ele>
        <time>2018-07-17T07:21:20Z</time>
      </trkpt>
      <trkpt lat="44.27014" lon="5.65364">
        <ele>1267</ele>
        <time>2018-07-17T07:21:22Z</time>
      </trkpt>
      <trkpt lat="44.27015" lon="5.65365">
        <ele>1267</ele>
        <time>2018-07-17T07:21:24Z</time>
      </trkpt>
      <trkpt lat="44.27015" lon="5.65367">
        <ele>1267</ele>
        <time>2018-07-17T07:21:26Z</time>
      </trkpt>
      <trkpt lat="44.27018" lon="5.65369">
        <ele>1267</ele>
        <time>2018-07-17T07:21:35Z</time>
      </trkpt>
      <trkpt lat="44.27018" lon="5.6537">
        <ele>1267</ele>
        <time>2018-07-17T07:21:37Z</time>
      </trkpt>
      <trkpt lat="44.27019" lon="5.65372">
        <ele>1267</ele>
        <time>2018-07-17T07:21:39Z</time>
      </trkpt>
      <trkpt lat="44.2702" lon="5.65374">
        <ele>1267</ele>
        <time>2018-07-17T07:21:41Z</time>
      </trkpt>
      <trkpt lat="44.27018" lon="5.65374">
        <ele>1267</ele>
        <time>2018-07-17T07:21:52Z</time>
      </trkpt>
      <trkpt lat="44.27017" lon="5.65374">
        <ele>1267</ele>
        <time>2018-07-17T07:21:55Z</time>
      </trkpt>
      <trkpt lat="44.27016" lon="5.65373">
        <ele>1267</ele>
        <time>2018-07-17T07:21:58Z</time>
      </trkpt>
      <trkpt lat="44.27015" lon="5.65374">
        <ele>1266</ele>
        <time>2018-07-17T07:22:09Z</time>
      </trkpt>
      <trkpt lat="44.27016" lon="5.65375">
        <ele>1266</ele>
        <time>2018-07-17T07:22:34Z</time>
      </trkpt>
      <trkpt lat="44.27017" lon="5.65374">
        <ele>1266</ele>
        <time>2018-07-17T07:22:36Z</time>
      </trkpt>
      <trkpt lat="44.27017" lon="5.65372">
        <ele>1266</ele>
        <time>2018-07-17T07:22:40Z</time>
      </trkpt>
      <trkpt lat="44.27016" lon="5.65371">
        <ele>1266</ele>
        <time>2018-07-17T07:22:41Z</time>
      </trkpt>
      <trkpt lat="44.27015" lon="5.65369">
        <ele>1266</ele>
        <time>2018-07-17T07:23:35Z</time>
      </trkpt>
      <trkpt lat="44.27015" lon="5.65371">
        <ele>1266</ele>
        <time>2018-07-17T07:23:44Z</time>
      </trkpt>
      <trkpt lat="44.27014" lon="5.65369">
        <ele>1266</ele>
        <time>2018-07-17T07:23:54Z</time>
      </trkpt>
      <trkpt lat="44.27014" lon="5.65368">
        <ele>1266</ele>
        <time>2018-07-17T07:24:00Z</time>
      </trkpt>
      <trkpt lat="44.27013" lon="5.65366">
        <ele>1266</ele>
        <time>2018-07-17T07:24:04Z</time>
      </trkpt>
      <trkpt lat="44.27013" lon="5.65365">
        <ele>1267</ele>
        <time>2018-07-17T07:24:09Z</time>
      </trkpt>
      <trkpt lat="44.27013" lon="5.65363">
        <ele>1267</ele>
        <time>2018-07-17T07:24:11Z</time>
      </trkpt>
      <trkpt lat="44.27013" lon="5.65361">
        <ele>1269</ele>
        <time>2018-07-17T07:24:15Z</time>
      </trkpt>
      <trkpt lat="44.27013" lon="5.65363">
        <ele>1269</ele>
        <time>2018-07-17T07:24:21Z</time>
      </trkpt>
      <trkpt lat="44.27013" lon="5.65361">
        <ele>1269</ele>
        <time>2018-07-17T07:24:30Z</time>
      </trkpt>
      <trkpt lat="44.27013" lon="5.6536">
        <ele>1269</ele>
        <time>2018-07-17T07:24:40Z</time>
      </trkpt>
      <trkpt lat="44.27013" lon="5.65361">
        <ele>1269</ele>
        <time>2018-07-17T07:24:48Z</time>
      </trkpt>
      <trkpt lat="44.27013" lon="5.65363">
        <ele>1269</ele>
        <time>2018-07-17T07:24:55Z</time>
      </trkpt>
      <trkpt lat="44.27013" lon="5.65364">
        <ele>1269</ele>
        <time>2018-07-17T07:25:03Z</time>
      </trkpt>
      <trkpt lat="44.27014" lon="5.65366">
        <ele>1270</ele>
        <time>2018-07-17T07:25:17Z</time>
      </trkpt>
      <trkpt lat="44.27014" lon="5.65368">
        <ele>1270</ele>
        <time>2018-07-17T07:25:21Z</time>
      </trkpt>
      <trkpt lat="44.27014" lon="5.6537">
        <ele>1270</ele>
        <time>2018-07-17T07:25:24Z</time>
      </trkpt>
      <trkpt lat="44.27015" lon="5.65371">
        <ele>1270</ele>
        <time>2018-07-17T07:25:28Z</time>
      </trkpt>
      <trkpt lat="44.27016" lon="5.6537">
        <ele>1270</ele>
        <time>2018-07-17T07:25:39Z</time>
      </trkpt>
      <trkpt lat="44.27018" lon="5.6537">
        <ele>1270</ele>
        <time>2018-07-17T07:26:04Z</time>
      </trkpt>
      <trkpt lat="44.27019" lon="5.65368">
        <ele>1270</ele>
        <time>2018-07-17T07:26:14Z</time>
      </trkpt>
      <trkpt lat="44.27019" lon="5.6537">
        <ele>1269</ele>
        <time>2018-07-17T07:26:34Z</time>
      </trkpt>
      <trkpt lat="44.27019" lon="5.65371">
        <ele>1269</ele>
        <time>2018-07-17T07:26:44Z</time>
      </trkpt>
      <trkpt lat="44.27019" lon="5.65373">
        <ele>1269</ele>
        <time>2018-07-17T07:26:55Z</time>
      </trkpt>
      <trkpt lat="44.27018" lon="5.65374">
        <ele>1269</ele>
        <time>2018-07-17T07:27:08Z</time>
      </trkpt>
      <trkpt lat="44.27018" lon="5.65373">
        <ele>1269</ele>
        <time>2018-07-17T07:27:15Z</time>
      </trkpt>
      <trkpt lat="44.27017" lon="5.65372">
        <ele>1269</ele>
        <time>2018-07-17T07:27:43Z</time>
      </trkpt>
      <trkpt lat="44.27017" lon="5.65371">
        <ele>1269</ele>
        <time>2018-07-17T07:27:46Z</time>
      </trkpt>
      <trkpt lat="44.27018" lon="5.65369">
        <ele>1269</ele>
        <time>2018-07-17T07:27:52Z</time>
      </trkpt>
      <trkpt lat="44.27019" lon="5.65369">
        <ele>1271</ele>
        <time>2018-07-17T07:27:58Z</time>
      </trkpt>
      <trkpt lat="44.27019" lon="5.65371">
        <ele>1271</ele>
        <time>2018-07-17T07:28:06Z</time>
      </trkpt>
      <trkpt lat="44.27019" lon="5.65372">
        <ele>1271</ele>
        <time>2018-07-17T07:28:20Z</time>
      </trkpt>
      <trkpt lat="44.27019" lon="5.65374">
        <ele>1271</ele>
        <time>2018-07-17T07:28:23Z</time>
      </trkpt>
      <trkpt lat="44.2702" lon="5.65376">
        <ele>1271</ele>
        <time>2018-07-17T07:28:25Z</time>
      </trkpt>
      <trkpt lat="44.2702" lon="5.65378">
        <ele>1271</ele>
        <time>2018-07-17T07:28:27Z</time>
      </trkpt>
      <trkpt lat="44.2702" lon="5.65381">
        <ele>1271</ele>
        <time>2018-07-17T07:28:29Z</time>
      </trkpt>
      <trkpt lat="44.27021" lon="5.65383">
        <ele>1271</ele>
        <time>2018-07-17T07:28:31Z</time>
      </trkpt>
      <trkpt lat="44.27021" lon="5.65384">
        <ele>1271</ele>
        <time>2018-07-17T07:28:33Z</time>
      </trkpt>
      <trkpt lat="44.27021" lon="5.65387">
        <ele>1271</ele>
        <time>2018-07-17T07:28:35Z</time>
      </trkpt>
      <trkpt lat="44.27022" lon="5.65387">
        <ele>1271</ele>
        <time>2018-07-17T07:28:38Z</time>
      </trkpt>
      <trkpt lat="44.27022" lon="5.6539">
        <ele>1271</ele>
        <time>2018-07-17T07:28:41Z</time>
      </trkpt>
      <trkpt lat="44.27022" lon="5.65392">
        <ele>1271</ele>
        <time>2018-07-17T07:28:43Z</time>
      </trkpt>
      <trkpt lat="44.27022" lon="5.65394">
        <ele>1271</ele>
        <time>2018-07-17T07:28:45Z</time>
      </trkpt>
      <trkpt lat="44.27022" lon="5.65395">
        <ele>1271</ele>
        <time>2018-07-17T07:28:47Z</time>
      </trkpt>
      <trkpt lat="44.27023" lon="5.65397">
        <ele>1271</ele>
        <time>2018-07-17T07:28:49Z</time>
      </trkpt>
      <trkpt lat="44.27023" lon="5.65399">
        <ele>1271</ele>
        <time>2018-07-17T07:28:51Z</time>
      </trkpt>
      <trkpt lat="44.27023" lon="5.65401">
        <ele>1271</ele>
        <time>2018-07-17T07:28:53Z</time>
      </trkpt>
      <trkpt lat="44.27023" lon="5.65403">
        <ele>1271</ele>
        <time>2018-07-17T07:28:55Z</time>
      </trkpt>
      <trkpt lat="44.27022" lon="5.65405">
        <ele>1271</ele>
        <time>2018-07-17T07:28:57Z</time>
      </trkpt>
      <trkpt lat="44.27023" lon="5.65406">
        <ele>1271</ele>
        <time>2018-07-17T07:28:59Z</time>
      </trkpt>
      <trkpt lat="44.27024" lon="5.65408">
        <ele>1271</ele>
        <time>2018-07-17T07:29:02Z</time>
      </trkpt>
      <trkpt lat="44.27025" lon="5.65409">
        <ele>1271</ele>
        <time>2018-07-17T07:29:04Z</time>
      </trkpt>
      <trkpt lat="44.27027" lon="5.65411">
        <ele>1271</ele>
        <time>2018-07-17T07:29:08Z</time>
      </trkpt>
      <trkpt lat="44.27028" lon="5.65412">
        <ele>1271</ele>
        <time>2018-07-17T07:29:10Z</time>
      </trkpt>
      <trkpt lat="44.27028" lon="5.65413">
        <ele>1271</ele>
        <time>2018-07-17T07:29:13Z</time>
      </trkpt>
      <trkpt lat="44.27028" lon="5.65416">
        <ele>1271</ele>
        <time>2018-07-17T07:29:15Z</time>
      </trkpt>
      <trkpt lat="44.27028" lon="5.65417">
        <ele>1271</ele>
        <time>2018-07-17T07:29:19Z</time>
      </trkpt>
      <trkpt lat="44.27028" lon="5.65419">
        <ele>1271</ele>
        <time>2018-07-17T07:29:23Z</time>
      </trkpt>
      <trkpt lat="44.27028" lon="5.65421">
        <ele>1271</ele>
        <time>2018-07-17T07:29:25Z</time>
      </trkpt>
      <trkpt lat="44.27029" lon="5.65423">
        <ele>1271</ele>
        <time>2018-07-17T07:29:27Z</time>
      </trkpt>
      <trkpt lat="44.27029" lon="5.65424">
        <ele>1271</ele>
        <time>2018-07-17T07:29:29Z</time>
      </trkpt>
      <trkpt lat="44.2703" lon="5.65426">
        <ele>1271</ele>
        <time>2018-07-17T07:29:31Z</time>
      </trkpt>
      <trkpt lat="44.2703" lon="5.65428">
        <ele>1271</ele>
        <time>2018-07-17T07:29:34Z</time>
      </trkpt>
      <trkpt lat="44.2703" lon="5.65429">
        <ele>1271</ele>
        <time>2018-07-17T07:29:36Z</time>
      </trkpt>
      <trkpt lat="44.27031" lon="5.65431">
        <ele>1271</ele>
        <time>2018-07-17T07:29:38Z</time>
      </trkpt>
      <trkpt lat="44.27031" lon="5.65433">
        <ele>1271</ele>
        <time>2018-07-17T07:29:40Z</time>
      </trkpt>
      <trkpt lat="44.27031" lon="5.65434">
        <ele>1271</ele>
        <time>2018-07-17T07:29:42Z</time>
      </trkpt>
      <trkpt lat="44.27032" lon="5.65436">
        <ele>1271</ele>
        <time>2018-07-17T07:29:45Z</time>
      </trkpt>
      <trkpt lat="44.27032" lon="5.65438">
        <ele>1271</ele>
        <time>2018-07-17T07:29:47Z</time>
      </trkpt>
      <trkpt lat="44.27034" lon="5.6544">
        <ele>1271</ele>
        <time>2018-07-17T07:29:50Z</time>
      </trkpt>
      <trkpt lat="44.27036" lon="5.65442">
        <ele>1271</ele>
        <time>2018-07-17T07:29:52Z</time>
      </trkpt>
      <trkpt lat="44.27036" lon="5.65443">
        <ele>1271</ele>
        <time>2018-07-17T07:29:56Z</time>
      </trkpt>
      <trkpt lat="44.27036" lon="5.65445">
        <ele>1271</ele>
        <time>2018-07-17T07:29:59Z</time>
      </trkpt>
      <trkpt lat="44.27035" lon="5.65447">
        <ele>1271</ele>
        <time>2018-07-17T07:30:03Z</time>
      </trkpt>
      <trkpt lat="44.27033" lon="5.65448">
        <ele>1271</ele>
        <time>2018-07-17T07:30:06Z</time>
      </trkpt>
      <trkpt lat="44.27032" lon="5.6545">
        <ele>1271</ele>
        <time>2018-07-17T07:30:09Z</time>
      </trkpt>
      <trkpt lat="44.27032" lon="5.65451">
        <ele>1271</ele>
        <time>2018-07-17T07:30:11Z</time>
      </trkpt>
      <trkpt lat="44.27032" lon="5.65453">
        <ele>1271</ele>
        <time>2018-07-17T07:30:14Z</time>
      </trkpt>
      <trkpt lat="44.27033" lon="5.65454">
        <ele>1271</ele>
        <time>2018-07-17T07:30:17Z</time>
      </trkpt>
      <trkpt lat="44.27034" lon="5.65456">
        <ele>1271</ele>
        <time>2018-07-17T07:30:20Z</time>
      </trkpt>
      <trkpt lat="44.27034" lon="5.65457">
        <ele>1271</ele>
        <time>2018-07-17T07:30:22Z</time>
      </trkpt>
      <trkpt lat="44.27035" lon="5.65459">
        <ele>1272</ele>
        <time>2018-07-17T07:30:26Z</time>
      </trkpt>
      <trkpt lat="44.27036" lon="5.65461">
        <ele>1272</ele>
        <time>2018-07-17T07:30:28Z</time>
      </trkpt>
      <trkpt lat="44.27036" lon="5.65462">
        <ele>1272</ele>
        <time>2018-07-17T07:30:30Z</time>
      </trkpt>
      <trkpt lat="44.27037" lon="5.65464">
        <ele>1272</ele>
        <time>2018-07-17T07:30:37Z</time>
      </trkpt>
      <trkpt lat="44.27037" lon="5.65465">
        <ele>1272</ele>
        <time>2018-07-17T07:30:40Z</time>
      </trkpt>
      <trkpt lat="44.27036" lon="5.65468">
        <ele>1272</ele>
        <time>2018-07-17T07:30:43Z</time>
      </trkpt>
      <trkpt lat="44.27036" lon="5.65469">
        <ele>1273</ele>
        <time>2018-07-17T07:30:47Z</time>
      </trkpt>
      <trkpt lat="44.27036" lon="5.65471">
        <ele>1273</ele>
        <time>2018-07-17T07:30:49Z</time>
      </trkpt>
      <trkpt lat="44.27036" lon="5.65473">
        <ele>1273</ele>
        <time>2018-07-17T07:30:51Z</time>
      </trkpt>
      <trkpt lat="44.27036" lon="5.65474">
        <ele>1273</ele>
        <time>2018-07-17T07:30:53Z</time>
      </trkpt>
      <trkpt lat="44.27036" lon="5.65476">
        <ele>1273</ele>
        <time>2018-07-17T07:30:56Z</time>
      </trkpt>
      <trkpt lat="44.27036" lon="5.65478">
        <ele>1273</ele>
        <time>2018-07-17T07:30:58Z</time>
      </trkpt>
      <trkpt lat="44.27037" lon="5.65479">
        <ele>1273</ele>
        <time>2018-07-17T07:31:00Z</time>
      </trkpt>
      <trkpt lat="44.27037" lon="5.65481">
        <ele>1273</ele>
        <time>2018-07-17T07:31:02Z</time>
      </trkpt>
      <trkpt lat="44.27038" lon="5.65483">
        <ele>1273</ele>
        <time>2018-07-17T07:31:04Z</time>
      </trkpt>
      <trkpt lat="44.27038" lon="5.65485">
        <ele>1273</ele>
        <time>2018-07-17T07:31:06Z</time>
      </trkpt>
      <trkpt lat="44.27039" lon="5.65486">
        <ele>1273</ele>
        <time>2018-07-17T07:31:10Z</time>
      </trkpt>
      <trkpt lat="44.2704" lon="5.65488">
        <ele>1273</ele>
        <time>2018-07-17T07:31:12Z</time>
      </trkpt>
      <trkpt lat="44.27041" lon="5.6549">
        <ele>1273</ele>
        <time>2018-07-17T07:31:14Z</time>
      </trkpt>
      <trkpt lat="44.27041" lon="5.65493">
        <ele>1273</ele>
        <time>2018-07-17T07:31:16Z</time>
      </trkpt>
      <trkpt lat="44.27041" lon="5.65494">
        <ele>1273</ele>
        <time>2018-07-17T07:31:19Z</time>
      </trkpt>
      <trkpt lat="44.27042" lon="5.65496">
        <ele>1273</ele>
        <time>2018-07-17T07:31:25Z</time>
      </trkpt>
      <trkpt lat="44.27043" lon="5.65498">
        <ele>1273</ele>
        <time>2018-07-17T07:31:27Z</time>
      </trkpt>
      <trkpt lat="44.27044" lon="5.65499">
        <ele>1273</ele>
        <time>2018-07-17T07:31:29Z</time>
      </trkpt>
      <trkpt lat="44.27045" lon="5.65501">
        <ele>1273</ele>
        <time>2018-07-17T07:31:31Z</time>
      </trkpt>
      <trkpt lat="44.27046" lon="5.65503">
        <ele>1273</ele>
        <time>2018-07-17T07:31:33Z</time>
      </trkpt>
      <trkpt lat="44.27047" lon="5.65504">
        <ele>1273</ele>
        <time>2018-07-17T07:31:35Z</time>
      </trkpt>
      <trkpt lat="44.27049" lon="5.65505">
        <ele>1273</ele>
        <time>2018-07-17T07:31:37Z</time>
      </trkpt>
      <trkpt lat="44.2705" lon="5.65506">
        <ele>1273</ele>
        <time>2018-07-17T07:31:39Z</time>
      </trkpt>
      <trkpt lat="44.27052" lon="5.65507">
        <ele>1273</ele>
        <time>2018-07-17T07:31:41Z</time>
      </trkpt>
      <trkpt lat="44.27054" lon="5.65507">
        <ele>1273</ele>
        <time>2018-07-17T07:31:43Z</time>
      </trkpt>
      <trkpt lat="44.27055" lon="5.65507">
        <ele>1273</ele>
        <time>2018-07-17T07:31:45Z</time>
      </trkpt>
      <trkpt lat="44.27057" lon="5.65507">
        <ele>1273</ele>
        <time>2018-07-17T07:31:47Z</time>
      </trkpt>
      <trkpt lat="44.27058" lon="5.65508">
        <ele>1273</ele>
        <time>2018-07-17T07:31:49Z</time>
      </trkpt>
      <trkpt lat="44.2706" lon="5.65508">
        <ele>1273</ele>
        <time>2018-07-17T07:31:51Z</time>
      </trkpt>
      <trkpt lat="44.27062" lon="5.65509">
        <ele>1273</ele>
        <time>2018-07-17T07:31:53Z</time>
      </trkpt>
      <trkpt lat="44.27064" lon="5.6551">
        <ele>1273</ele>
        <time>2018-07-17T07:31:55Z</time>
      </trkpt>
      <trkpt lat="44.27065" lon="5.65511">
        <ele>1273</ele>
        <time>2018-07-17T07:31:57Z</time>
      </trkpt>
      <trkpt lat="44.27066" lon="5.65512">
        <ele>1273</ele>
        <time>2018-07-17T07:31:59Z</time>
      </trkpt>
      <trkpt lat="44.27068" lon="5.65514">
        <ele>1273</ele>
        <time>2018-07-17T07:32:02Z</time>
      </trkpt>
      <trkpt lat="44.2707" lon="5.65516">
        <ele>1273</ele>
        <time>2018-07-17T07:32:04Z</time>
      </trkpt>
      <trkpt lat="44.27071" lon="5.65517">
        <ele>1273</ele>
        <time>2018-07-17T07:32:06Z</time>
      </trkpt>
      <trkpt lat="44.27073" lon="5.65518">
        <ele>1273</ele>
        <time>2018-07-17T07:32:08Z</time>
      </trkpt>
      <trkpt lat="44.27075" lon="5.6552">
        <ele>1273</ele>
        <time>2018-07-17T07:32:11Z</time>
      </trkpt>
      <trkpt lat="44.27076" lon="5.65521">
        <ele>1273</ele>
        <time>2018-07-17T07:32:13Z</time>
      </trkpt>
      <trkpt lat="44.27077" lon="5.65522">
        <ele>1273</ele>
        <time>2018-07-17T07:32:15Z</time>
      </trkpt>
      <trkpt lat="44.27079" lon="5.65524">
        <ele>1273</ele>
        <time>2018-07-17T07:32:17Z</time>
      </trkpt>
      <trkpt lat="44.27081" lon="5.65526">
        <ele>1273</ele>
        <time>2018-07-17T07:32:19Z</time>
      </trkpt>
      <trkpt lat="44.27082" lon="5.65527">
        <ele>1273</ele>
        <time>2018-07-17T07:32:21Z</time>
      </trkpt>
      <trkpt lat="44.27084" lon="5.65528">
        <ele>1273</ele>
        <time>2018-07-17T07:32:23Z</time>
      </trkpt>
      <trkpt lat="44.27085" lon="5.65529">
        <ele>1273</ele>
        <time>2018-07-17T07:32:25Z</time>
      </trkpt>
      <trkpt lat="44.27087" lon="5.6553">
        <ele>1273</ele>
        <time>2018-07-17T07:32:28Z</time>
      </trkpt>
      <trkpt lat="44.27088" lon="5.65532">
        <ele>1273</ele>
        <time>2018-07-17T07:32:29Z</time>
      </trkpt>
      <trkpt lat="44.27089" lon="5.65533">
        <ele>1273</ele>
        <time>2018-07-17T07:32:31Z</time>
      </trkpt>
      <trkpt lat="44.27091" lon="5.65535">
        <ele>1273</ele>
        <time>2018-07-17T07:32:33Z</time>
      </trkpt>
      <trkpt lat="44.27092" lon="5.65536">
        <ele>1273</ele>
        <time>2018-07-17T07:32:35Z</time>
      </trkpt>
      <trkpt lat="44.27094" lon="5.65538">
        <ele>1273</ele>
        <time>2018-07-17T07:32:37Z</time>
      </trkpt>
      <trkpt lat="44.27095" lon="5.65539">
        <ele>1273</ele>
        <time>2018-07-17T07:32:38Z</time>
      </trkpt>
      <trkpt lat="44.27096" lon="5.6554">
        <ele>1273</ele>
        <time>2018-07-17T07:32:39Z</time>
      </trkpt>
      <trkpt lat="44.27097" lon="5.65541">
        <ele>1273</ele>
        <time>2018-07-17T07:32:41Z</time>
      </trkpt>
      <trkpt lat="44.27099" lon="5.65541">
        <ele>1273</ele>
        <time>2018-07-17T07:32:43Z</time>
      </trkpt>
      <trkpt lat="44.27101" lon="5.65541">
        <ele>1273</ele>
        <time>2018-07-17T07:32:45Z</time>
      </trkpt>
      <trkpt lat="44.27102" lon="5.65542">
        <ele>1273</ele>
        <time>2018-07-17T07:32:47Z</time>
      </trkpt>
      <trkpt lat="44.27105" lon="5.65543">
        <ele>1273</ele>
        <time>2018-07-17T07:32:49Z</time>
      </trkpt>
      <trkpt lat="44.27106" lon="5.65544">
        <ele>1273</ele>
        <time>2018-07-17T07:32:51Z</time>
      </trkpt>
      <trkpt lat="44.27107" lon="5.65545">
        <ele>1273</ele>
        <time>2018-07-17T07:32:53Z</time>
      </trkpt>
      <trkpt lat="44.27108" lon="5.65547">
        <ele>1273</ele>
        <time>2018-07-17T07:32:55Z</time>
      </trkpt>
      <trkpt lat="44.2711" lon="5.65548">
        <ele>1273</ele>
        <time>2018-07-17T07:32:57Z</time>
      </trkpt>
      <trkpt lat="44.27111" lon="5.6555">
        <ele>1273</ele>
        <time>2018-07-17T07:32:59Z</time>
      </trkpt>
      <trkpt lat="44.27112" lon="5.65552">
        <ele>1273</ele>
        <time>2018-07-17T07:33:01Z</time>
      </trkpt>
      <trkpt lat="44.27113" lon="5.65554">
        <ele>1273</ele>
        <time>2018-07-17T07:33:03Z</time>
      </trkpt>
      <trkpt lat="44.27114" lon="5.65556">
        <ele>1273</ele>
        <time>2018-07-17T07:33:05Z</time>
      </trkpt>
      <trkpt lat="44.27115" lon="5.65557">
        <ele>1273</ele>
        <time>2018-07-17T07:33:07Z</time>
      </trkpt>
      <trkpt lat="44.27116" lon="5.65559">
        <ele>1273</ele>
        <time>2018-07-17T07:33:09Z</time>
      </trkpt>
      <trkpt lat="44.27118" lon="5.6556">
        <ele>1273</ele>
        <time>2018-07-17T07:33:11Z</time>
      </trkpt>
      <trkpt lat="44.27119" lon="5.65562">
        <ele>1273</ele>
        <time>2018-07-17T07:33:13Z</time>
      </trkpt>
      <trkpt lat="44.27121" lon="5.65563">
        <ele>1273</ele>
        <time>2018-07-17T07:33:15Z</time>
      </trkpt>
      <trkpt lat="44.27122" lon="5.65565">
        <ele>1273</ele>
        <time>2018-07-17T07:33:17Z</time>
      </trkpt>
      <trkpt lat="44.27124" lon="5.65566">
        <ele>1273</ele>
        <time>2018-07-17T07:33:19Z</time>
      </trkpt>
      <trkpt lat="44.27125" lon="5.65568">
        <ele>1273</ele>
        <time>2018-07-17T07:33:21Z</time>
      </trkpt>
      <trkpt lat="44.27126" lon="5.65569">
        <ele>1273</ele>
        <time>2018-07-17T07:33:23Z</time>
      </trkpt>
      <trkpt lat="44.27127" lon="5.65571">
        <ele>1273</ele>
        <time>2018-07-17T07:33:25Z</time>
      </trkpt>
      <trkpt lat="44.27129" lon="5.65572">
        <ele>1273</ele>
        <time>2018-07-17T07:33:27Z</time>
      </trkpt>
      <trkpt lat="44.27131" lon="5.65573">
        <ele>1273</ele>
        <time>2018-07-17T07:33:29Z</time>
      </trkpt>
      <trkpt lat="44.27133" lon="5.65574">
        <ele>1273</ele>
        <time>2018-07-17T07:33:31Z</time>
      </trkpt>
      <trkpt lat="44.27134" lon="5.65575">
        <ele>1273</ele>
        <time>2018-07-17T07:33:36Z</time>
      </trkpt>
      <trkpt lat="44.27135" lon="5.65574">
        <ele>1273</ele>
        <time>2018-07-17T07:33:41Z</time>
      </trkpt>
      <trkpt lat="44.27136" lon="5.65576">
        <ele>1273</ele>
        <time>2018-07-17T07:33:46Z</time>
      </trkpt>
      <trkpt lat="44.27137" lon="5.65577">
        <ele>1273</ele>
        <time>2018-07-17T07:33:51Z</time>
      </trkpt>
      <trkpt lat="44.27137" lon="5.65579">
        <ele>1273</ele>
        <time>2018-07-17T07:33:57Z</time>
      </trkpt>
      <trkpt lat="44.27136" lon="5.65577">
        <ele>1274</ele>
        <time>2018-07-17T07:34:09Z</time>
      </trkpt>
      <trkpt lat="44.27136" lon="5.65579">
        <ele>1279</ele>
        <time>2018-07-17T07:34:33Z</time>
      </trkpt>
      <trkpt lat="44.27136" lon="5.6558">
        <ele>1279</ele>
        <time>2018-07-17T07:34:37Z</time>
      </trkpt>
      <trkpt lat="44.27136" lon="5.65582">
        <ele>1279</ele>
        <time>2018-07-17T07:34:41Z</time>
      </trkpt>
      <trkpt lat="44.27136" lon="5.6558">
        <ele>1279</ele>
        <time>2018-07-17T07:34:51Z</time>
      </trkpt>
      <trkpt lat="44.27137" lon="5.65582">
        <ele>1279</ele>
        <time>2018-07-17T07:35:02Z</time>
      </trkpt>
      <trkpt lat="44.27136" lon="5.65583">
        <ele>1279</ele>
        <time>2018-07-17T07:35:05Z</time>
      </trkpt>
      <trkpt lat="44.27138" lon="5.65585">
        <ele>1279</ele>
        <time>2018-07-17T07:35:24Z</time>
      </trkpt>
      <trkpt lat="44.27136" lon="5.65586">
        <ele>1279</ele>
        <time>2018-07-17T07:35:37Z</time>
      </trkpt>
      <trkpt lat="44.27135" lon="5.65587">
        <ele>1279</ele>
        <time>2018-07-17T07:35:49Z</time>
      </trkpt>
      <trkpt lat="44.27136" lon="5.65589">
        <ele>1279</ele>
        <time>2018-07-17T07:36:02Z</time>
      </trkpt>
      <trkpt lat="44.27137" lon="5.6559">
        <ele>1279</ele>
        <time>2018-07-17T07:36:04Z</time>
      </trkpt>
      <trkpt lat="44.27138" lon="5.6559">
        <ele>1279</ele>
        <time>2018-07-17T07:36:06Z</time>
      </trkpt>
      <trkpt lat="44.27139" lon="5.65591">
        <ele>1279</ele>
        <time>2018-07-17T07:36:08Z</time>
      </trkpt>
      <trkpt lat="44.27141" lon="5.65592">
        <ele>1279</ele>
        <time>2018-07-17T07:36:10Z</time>
      </trkpt>
      <trkpt lat="44.27142" lon="5.65593">
        <ele>1279</ele>
        <time>2018-07-17T07:36:12Z</time>
      </trkpt>
      <trkpt lat="44.27144" lon="5.65593">
        <ele>1279</ele>
        <time>2018-07-17T07:36:14Z</time>
      </trkpt>
      <trkpt lat="44.27145" lon="5.65594">
        <ele>1279</ele>
        <time>2018-07-17T07:36:17Z</time>
      </trkpt>
      <trkpt lat="44.27146" lon="5.65596">
        <ele>1279</ele>
        <time>2018-07-17T07:36:19Z</time>
      </trkpt>
      <trkpt lat="44.27148" lon="5.65597">
        <ele>1279</ele>
        <time>2018-07-17T07:36:21Z</time>
      </trkpt>
      <trkpt lat="44.27149" lon="5.65598">
        <ele>1279</ele>
        <time>2018-07-17T07:36:23Z</time>
      </trkpt>
      <trkpt lat="44.2715" lon="5.656">
        <ele>1279</ele>
        <time>2018-07-17T07:36:25Z</time>
      </trkpt>
      <trkpt lat="44.2715" lon="5.65602">
        <ele>1279</ele>
        <time>2018-07-17T07:36:27Z</time>
      </trkpt>
      <trkpt lat="44.27151" lon="5.65604">
        <ele>1279</ele>
        <time>2018-07-17T07:36:29Z</time>
      </trkpt>
      <trkpt lat="44.27151" lon="5.65606">
        <ele>1279</ele>
        <time>2018-07-17T07:36:31Z</time>
      </trkpt>
      <trkpt lat="44.27152" lon="5.65608">
        <ele>1279</ele>
        <time>2018-07-17T07:36:34Z</time>
      </trkpt>
      <trkpt lat="44.27153" lon="5.6561">
        <ele>1279</ele>
        <time>2018-07-17T07:36:36Z</time>
      </trkpt>
      <trkpt lat="44.27153" lon="5.65612">
        <ele>1279</ele>
        <time>2018-07-17T07:36:39Z</time>
      </trkpt>
      <trkpt lat="44.27155" lon="5.65613">
        <ele>1279</ele>
        <time>2018-07-17T07:36:42Z</time>
      </trkpt>
      <trkpt lat="44.27156" lon="5.65615">
        <ele>1279</ele>
        <time>2018-07-17T07:36:45Z</time>
      </trkpt>
      <trkpt lat="44.27157" lon="5.65617">
        <ele>1279</ele>
        <time>2018-07-17T07:36:49Z</time>
      </trkpt>
      <trkpt lat="44.27158" lon="5.65618">
        <ele>1279</ele>
        <time>2018-07-17T07:36:52Z</time>
      </trkpt>
      <trkpt lat="44.2716" lon="5.65619">
        <ele>1279</ele>
        <time>2018-07-17T07:36:55Z</time>
      </trkpt>
      <trkpt lat="44.27161" lon="5.6562">
        <ele>1279</ele>
        <time>2018-07-17T07:36:57Z</time>
      </trkpt>
      <trkpt lat="44.27162" lon="5.65621">
        <ele>1279</ele>
        <time>2018-07-17T07:37:00Z</time>
      </trkpt>
      <trkpt lat="44.27163" lon="5.65623">
        <ele>1279</ele>
        <time>2018-07-17T07:37:03Z</time>
      </trkpt>
      <trkpt lat="44.27163" lon="5.65624">
        <ele>1279</ele>
        <time>2018-07-17T07:37:05Z</time>
      </trkpt>
      <trkpt lat="44.27164" lon="5.65626">
        <ele>1279</ele>
        <time>2018-07-17T07:37:07Z</time>
      </trkpt>
      <trkpt lat="44.27165" lon="5.65627">
        <ele>1280</ele>
        <time>2018-07-17T07:37:10Z</time>
      </trkpt>
      <trkpt lat="44.27166" lon="5.65629">
        <ele>1281</ele>
        <time>2018-07-17T07:37:12Z</time>
      </trkpt>
      <trkpt lat="44.27166" lon="5.65631">
        <ele>1282</ele>
        <time>2018-07-17T07:37:15Z</time>
      </trkpt>
      <trkpt lat="44.27167" lon="5.65632">
        <ele>1283</ele>
        <time>2018-07-17T07:37:17Z</time>
      </trkpt>
      <trkpt lat="44.27168" lon="5.65634">
        <ele>1283</ele>
        <time>2018-07-17T07:37:19Z</time>
      </trkpt>
      <trkpt lat="44.27169" lon="5.65636">
        <ele>1284</ele>
        <time>2018-07-17T07:37:21Z</time>
      </trkpt>
      <trkpt lat="44.2717" lon="5.65637">
        <ele>1284</ele>
        <time>2018-07-17T07:37:23Z</time>
      </trkpt>
      <trkpt lat="44.27172" lon="5.65638">
        <ele>1284</ele>
        <time>2018-07-17T07:37:26Z</time>
      </trkpt>
      <trkpt lat="44.27173" lon="5.65639">
        <ele>1284</ele>
        <time>2018-07-17T07:37:28Z</time>
      </trkpt>
      <trkpt lat="44.27175" lon="5.6564">
        <ele>1284</ele>
        <time>2018-07-17T07:37:30Z</time>
      </trkpt>
      <trkpt lat="44.27176" lon="5.65642">
        <ele>1284</ele>
        <time>2018-07-17T07:37:33Z</time>
      </trkpt>
      <trkpt lat="44.27177" lon="5.65644">
        <ele>1284</ele>
        <time>2018-07-17T07:37:35Z</time>
      </trkpt>
      <trkpt lat="44.27177" lon="5.65645">
        <ele>1284</ele>
        <time>2018-07-17T07:37:37Z</time>
      </trkpt>
      <trkpt lat="44.27179" lon="5.65647">
        <ele>1284</ele>
        <time>2018-07-17T07:37:39Z</time>
      </trkpt>
      <trkpt lat="44.27179" lon="5.65649">
        <ele>1284</ele>
        <time>2018-07-17T07:37:41Z</time>
      </trkpt>
      <trkpt lat="44.2718" lon="5.6565">
        <ele>1284</ele>
        <time>2018-07-17T07:37:44Z</time>
      </trkpt>
      <trkpt lat="44.27182" lon="5.65652">
        <ele>1284</ele>
        <time>2018-07-17T07:37:47Z</time>
      </trkpt>
      <trkpt lat="44.27183" lon="5.65652">
        <ele>1285</ele>
        <time>2018-07-17T07:37:49Z</time>
      </trkpt>
      <trkpt lat="44.27184" lon="5.65653">
        <ele>1286</ele>
        <time>2018-07-17T07:37:52Z</time>
      </trkpt>
      <trkpt lat="44.27185" lon="5.65654">
        <ele>1286</ele>
        <time>2018-07-17T07:37:54Z</time>
      </trkpt>
      <trkpt lat="44.27187" lon="5.65655">
        <ele>1286</ele>
        <time>2018-07-17T07:37:56Z</time>
      </trkpt>
      <trkpt lat="44.27187" lon="5.65657">
        <ele>1287</ele>
        <time>2018-07-17T07:37:58Z</time>
      </trkpt>
      <trkpt lat="44.27188" lon="5.65659">
        <ele>1287</ele>
        <time>2018-07-17T07:38:00Z</time>
      </trkpt>
      <trkpt lat="44.27189" lon="5.65661">
        <ele>1287</ele>
        <time>2018-07-17T07:38:02Z</time>
      </trkpt>
      <trkpt lat="44.2719" lon="5.65662">
        <ele>1287</ele>
        <time>2018-07-17T07:38:04Z</time>
      </trkpt>
      <trkpt lat="44.27191" lon="5.65664">
        <ele>1287</ele>
        <time>2018-07-17T07:38:06Z</time>
      </trkpt>
      <trkpt lat="44.27192" lon="5.65665">
        <ele>1287</ele>
        <time>2018-07-17T07:38:09Z</time>
      </trkpt>
      <trkpt lat="44.27193" lon="5.65667">
        <ele>1287</ele>
        <time>2018-07-17T07:38:11Z</time>
      </trkpt>
      <trkpt lat="44.27194" lon="5.65668">
        <ele>1288</ele>
        <time>2018-07-17T07:38:13Z</time>
      </trkpt>
      <trkpt lat="44.27196" lon="5.65669">
        <ele>1288</ele>
        <time>2018-07-17T07:38:15Z</time>
      </trkpt>
      <trkpt lat="44.27197" lon="5.65671">
        <ele>1288</ele>
        <time>2018-07-17T07:38:17Z</time>
      </trkpt>
      <trkpt lat="44.27198" lon="5.65672">
        <ele>1288</ele>
        <time>2018-07-17T07:38:19Z</time>
      </trkpt>
      <trkpt lat="44.272" lon="5.65674">
        <ele>1289</ele>
        <time>2018-07-17T07:38:22Z</time>
      </trkpt>
      <trkpt lat="44.27201" lon="5.65675">
        <ele>1289</ele>
        <time>2018-07-17T07:38:24Z</time>
      </trkpt>
      <trkpt lat="44.27202" lon="5.65676">
        <ele>1289</ele>
        <time>2018-07-17T07:38:26Z</time>
      </trkpt>
      <trkpt lat="44.27204" lon="5.65678">
        <ele>1289</ele>
        <time>2018-07-17T07:38:28Z</time>
      </trkpt>
      <trkpt lat="44.27205" lon="5.6568">
        <ele>1289</ele>
        <time>2018-07-17T07:38:30Z</time>
      </trkpt>
      <trkpt lat="44.27205" lon="5.65682">
        <ele>1289</ele>
        <time>2018-07-17T07:38:32Z</time>
      </trkpt>
      <trkpt lat="44.27205" lon="5.65684">
        <ele>1289</ele>
        <time>2018-07-17T07:38:35Z</time>
      </trkpt>
      <trkpt lat="44.27205" lon="5.65686">
        <ele>1289</ele>
        <time>2018-07-17T07:38:37Z</time>
      </trkpt>
      <trkpt lat="44.27206" lon="5.65687">
        <ele>1289</ele>
        <time>2018-07-17T07:38:40Z</time>
      </trkpt>
      <trkpt lat="44.27207" lon="5.65689">
        <ele>1289</ele>
        <time>2018-07-17T07:38:42Z</time>
      </trkpt>
      <trkpt lat="44.27208" lon="5.65691">
        <ele>1289</ele>
        <time>2018-07-17T07:38:46Z</time>
      </trkpt>
      <trkpt lat="44.27208" lon="5.65692">
        <ele>1290</ele>
        <time>2018-07-17T07:38:49Z</time>
      </trkpt>
      <trkpt lat="44.27209" lon="5.65693">
        <ele>1290</ele>
        <time>2018-07-17T07:38:51Z</time>
      </trkpt>
      <trkpt lat="44.27211" lon="5.65694">
        <ele>1290</ele>
        <time>2018-07-17T07:38:54Z</time>
      </trkpt>
      <trkpt lat="44.27212" lon="5.65695">
        <ele>1290</ele>
        <time>2018-07-17T07:38:58Z</time>
      </trkpt>
      <trkpt lat="44.27213" lon="5.65697">
        <ele>1290</ele>
        <time>2018-07-17T07:39:00Z</time>
      </trkpt>
      <trkpt lat="44.27213" lon="5.65699">
        <ele>1290</ele>
        <time>2018-07-17T07:39:02Z</time>
      </trkpt>
      <trkpt lat="44.27213" lon="5.657">
        <ele>1290</ele>
        <time>2018-07-17T07:39:04Z</time>
      </trkpt>
      <trkpt lat="44.27214" lon="5.65702">
        <ele>1291</ele>
        <time>2018-07-17T07:39:07Z</time>
      </trkpt>
      <trkpt lat="44.27216" lon="5.65703">
        <ele>1291</ele>
        <time>2018-07-17T07:39:09Z</time>
      </trkpt>
      <trkpt lat="44.27217" lon="5.65703">
        <ele>1291</ele>
        <time>2018-07-17T07:39:11Z</time>
      </trkpt>
      <trkpt lat="44.27218" lon="5.65704">
        <ele>1291</ele>
        <time>2018-07-17T07:39:14Z</time>
      </trkpt>
      <trkpt lat="44.27219" lon="5.65706">
        <ele>1292</ele>
        <time>2018-07-17T07:39:17Z</time>
      </trkpt>
      <trkpt lat="44.27221" lon="5.65707">
        <ele>1292</ele>
        <time>2018-07-17T07:39:20Z</time>
      </trkpt>
      <trkpt lat="44.27222" lon="5.65709">
        <ele>1292</ele>
        <time>2018-07-17T07:39:23Z</time>
      </trkpt>
      <trkpt lat="44.27223" lon="5.65709">
        <ele>1293</ele>
        <time>2018-07-17T07:39:25Z</time>
      </trkpt>
      <trkpt lat="44.27224" lon="5.6571">
        <ele>1293</ele>
        <time>2018-07-17T07:39:28Z</time>
      </trkpt>
      <trkpt lat="44.27226" lon="5.65711">
        <ele>1293</ele>
        <time>2018-07-17T07:39:31Z</time>
      </trkpt>
      <trkpt lat="44.27227" lon="5.65712">
        <ele>1293</ele>
        <time>2018-07-17T07:39:34Z</time>
      </trkpt>
      <trkpt lat="44.27228" lon="5.65714">
        <ele>1294</ele>
        <time>2018-07-17T07:39:36Z</time>
      </trkpt>
      <trkpt lat="44.27229" lon="5.65715">
        <ele>1294</ele>
        <time>2018-07-17T07:39:38Z</time>
      </trkpt>
      <trkpt lat="44.27231" lon="5.65716">
        <ele>1294</ele>
        <time>2018-07-17T07:39:41Z</time>
      </trkpt>
      <trkpt lat="44.27232" lon="5.65717">
        <ele>1295</ele>
        <time>2018-07-17T07:39:43Z</time>
      </trkpt>
      <trkpt lat="44.27233" lon="5.65718">
        <ele>1295</ele>
        <time>2018-07-17T07:39:45Z</time>
      </trkpt>
      <trkpt lat="44.27235" lon="5.65719">
        <ele>1296</ele>
        <time>2018-07-17T07:39:48Z</time>
      </trkpt>
      <trkpt lat="44.27235" lon="5.65721">
        <ele>1296</ele>
        <time>2018-07-17T07:39:50Z</time>
      </trkpt>
      <trkpt lat="44.27236" lon="5.65723">
        <ele>1296</ele>
        <time>2018-07-17T07:39:53Z</time>
      </trkpt>
      <trkpt lat="44.27237" lon="5.65725">
        <ele>1297</ele>
        <time>2018-07-17T07:39:56Z</time>
      </trkpt>
      <trkpt lat="44.27239" lon="5.65727">
        <ele>1297</ele>
        <time>2018-07-17T07:39:59Z</time>
      </trkpt>
      <trkpt lat="44.2724" lon="5.65728">
        <ele>1297</ele>
        <time>2018-07-17T07:40:01Z</time>
      </trkpt>
      <trkpt lat="44.27241" lon="5.6573">
        <ele>1298</ele>
        <time>2018-07-17T07:40:03Z</time>
      </trkpt>
      <trkpt lat="44.27242" lon="5.6573">
        <ele>1298</ele>
        <time>2018-07-17T07:40:06Z</time>
      </trkpt>
      <trkpt lat="44.27243" lon="5.65731">
        <ele>1299</ele>
        <time>2018-07-17T07:40:09Z</time>
      </trkpt>
      <trkpt lat="44.27244" lon="5.65733">
        <ele>1299</ele>
        <time>2018-07-17T07:40:11Z</time>
      </trkpt>
      <trkpt lat="44.27245" lon="5.65735">
        <ele>1299</ele>
        <time>2018-07-17T07:40:13Z</time>
      </trkpt>
      <trkpt lat="44.27246" lon="5.65736">
        <ele>1300</ele>
        <time>2018-07-17T07:40:15Z</time>
      </trkpt>
      <trkpt lat="44.27246" lon="5.65738">
        <ele>1300</ele>
        <time>2018-07-17T07:40:17Z</time>
      </trkpt>
      <trkpt lat="44.27247" lon="5.6574">
        <ele>1300</ele>
        <time>2018-07-17T07:40:19Z</time>
      </trkpt>
      <trkpt lat="44.27247" lon="5.65742">
        <ele>1301</ele>
        <time>2018-07-17T07:40:21Z</time>
      </trkpt>
      <trkpt lat="44.27248" lon="5.65744">
        <ele>1301</ele>
        <time>2018-07-17T07:40:23Z</time>
      </trkpt>
      <trkpt lat="44.27248" lon="5.65746">
        <ele>1301</ele>
        <time>2018-07-17T07:40:25Z</time>
      </trkpt>
      <trkpt lat="44.27248" lon="5.65748">
        <ele>1301</ele>
        <time>2018-07-17T07:40:27Z</time>
      </trkpt>
      <trkpt lat="44.27248" lon="5.65749">
        <ele>1301</ele>
        <time>2018-07-17T07:40:30Z</time>
      </trkpt>
      <trkpt lat="44.27248" lon="5.65751">
        <ele>1301</ele>
        <time>2018-07-17T07:40:45Z</time>
      </trkpt>
      <trkpt lat="44.27248" lon="5.65753">
        <ele>1301</ele>
        <time>2018-07-17T07:40:47Z</time>
      </trkpt>
      <trkpt lat="44.27248" lon="5.65755">
        <ele>1301</ele>
        <time>2018-07-17T07:40:49Z</time>
      </trkpt>
      <trkpt lat="44.27248" lon="5.65758">
        <ele>1301</ele>
        <time>2018-07-17T07:40:51Z</time>
      </trkpt>
      <trkpt lat="44.27248" lon="5.65759">
        <ele>1301</ele>
        <time>2018-07-17T07:40:53Z</time>
      </trkpt>
      <trkpt lat="44.27247" lon="5.6576">
        <ele>1302</ele>
        <time>2018-07-17T07:41:43Z</time>
      </trkpt>
      <trkpt lat="44.27246" lon="5.65761">
        <ele>1304</ele>
        <time>2018-07-17T07:42:14Z</time>
      </trkpt>
      <trkpt lat="44.27244" lon="5.65762">
        <ele>1304</ele>
        <time>2018-07-17T07:42:16Z</time>
      </trkpt>
      <trkpt lat="44.27246" lon="5.65761">
        <ele>1304</ele>
        <time>2018-07-17T07:42:37Z</time>
      </trkpt>
      <trkpt lat="44.27247" lon="5.6576">
        <ele>1304</ele>
        <time>2018-07-17T07:42:40Z</time>
      </trkpt>
      <trkpt lat="44.27246" lon="5.65758">
        <ele>1304</ele>
        <time>2018-07-17T07:42:50Z</time>
      </trkpt>
      <trkpt lat="44.27246" lon="5.65756">
        <ele>1304</ele>
        <time>2018-07-17T07:43:06Z</time>
      </trkpt>
      <trkpt lat="44.27246" lon="5.65755">
        <ele>1304</ele>
        <time>2018-07-17T07:43:09Z</time>
      </trkpt>
      <trkpt lat="44.27246" lon="5.65753">
        <ele>1304</ele>
        <time>2018-07-17T07:43:51Z</time>
      </trkpt>
      <trkpt lat="44.27246" lon="5.65751">
        <ele>1304</ele>
        <time>2018-07-17T07:44:01Z</time>
      </trkpt>
      <trkpt lat="44.27246" lon="5.6575">
        <ele>1304</ele>
        <time>2018-07-17T07:44:03Z</time>
      </trkpt>
      <trkpt lat="44.27248" lon="5.65749">
        <ele>1304</ele>
        <time>2018-07-17T07:44:22Z</time>
      </trkpt>
      <trkpt lat="44.27249" lon="5.6575">
        <ele>1304</ele>
        <time>2018-07-17T07:44:43Z</time>
      </trkpt>
      <trkpt lat="44.2725" lon="5.6575">
        <ele>1304</ele>
        <time>2018-07-17T07:45:22Z</time>
      </trkpt>
      <trkpt lat="44.27251" lon="5.65751">
        <ele>1304</ele>
        <time>2018-07-17T07:45:58Z</time>
      </trkpt>
      <trkpt lat="44.27251" lon="5.6575">
        <ele>1304</ele>
        <time>2018-07-17T07:46:20Z</time>
      </trkpt>
      <trkpt lat="44.2725" lon="5.6575">
        <ele>1304</ele>
        <time>2018-07-17T07:46:47Z</time>
      </trkpt>
      <trkpt lat="44.27249" lon="5.65749">
        <ele>1304</ele>
        <time>2018-07-17T07:47:07Z</time>
      </trkpt>
      <trkpt lat="44.2725" lon="5.65749">
        <ele>1304</ele>
        <time>2018-07-17T07:48:00Z</time>
      </trkpt>
      <trkpt lat="44.27249" lon="5.65748">
        <ele>1304</ele>
        <time>2018-07-17T07:49:50Z</time>
      </trkpt>
      <trkpt lat="44.2725" lon="5.65749">
        <ele>1304</ele>
        <time>2018-07-17T07:52:15Z</time>
      </trkpt>
      <trkpt lat="44.27248" lon="5.6575">
        <ele>1304</ele>
        <time>2018-07-17T07:52:45Z</time>
      </trkpt>
      <trkpt lat="44.2725" lon="5.6575">
        <ele>1304</ele>
        <time>2018-07-17T07:53:42Z</time>
      </trkpt>
      <trkpt lat="44.27251" lon="5.65749">
        <ele>1304</ele>
        <time>2018-07-17T07:54:00Z</time>
      </trkpt>
      <trkpt lat="44.27252" lon="5.65749">
        <ele>1304</ele>
        <time>2018-07-17T07:54:45Z</time>
      </trkpt>
      <trkpt lat="44.27251" lon="5.65749">
        <ele>1304</ele>
        <time>2018-07-17T07:55:23Z</time>
      </trkpt>
      <trkpt lat="44.2725" lon="5.65747">
        <ele>1304</ele>
        <time>2018-07-17T07:55:47Z</time>
      </trkpt>
      <trkpt lat="44.27249" lon="5.65746">
        <ele>1304</ele>
        <time>2018-07-17T07:55:50Z</time>
      </trkpt>
      <trkpt lat="44.27249" lon="5.65744">
        <ele>1304</ele>
        <time>2018-07-17T07:55:52Z</time>
      </trkpt>
      <trkpt lat="44.27249" lon="5.65742">
        <ele>1304</ele>
        <time>2018-07-17T07:55:54Z</time>
      </trkpt>
      <trkpt lat="44.27248" lon="5.65741">
        <ele>1304</ele>
        <time>2018-07-17T07:56:01Z</time>
      </trkpt>
      <trkpt lat="44.27248" lon="5.65739">
        <ele>1304</ele>
        <time>2018-07-17T07:56:03Z</time>
      </trkpt>
      <trkpt lat="44.27247" lon="5.65737">
        <ele>1304</ele>
        <time>2018-07-17T07:56:05Z</time>
      </trkpt>
      <trkpt lat="44.27246" lon="5.65735">
        <ele>1304</ele>
        <time>2018-07-17T07:56:07Z</time>
      </trkpt>
      <trkpt lat="44.27245" lon="5.65734">
        <ele>1304</ele>
        <time>2018-07-17T07:56:09Z</time>
      </trkpt>
      <trkpt lat="44.27244" lon="5.65732">
        <ele>1304</ele>
        <time>2018-07-17T07:56:12Z</time>
      </trkpt>
      <trkpt lat="44.27244" lon="5.6573">
        <ele>1304</ele>
        <time>2018-07-17T07:56:20Z</time>
      </trkpt>
      <trkpt lat="44.27243" lon="5.6573">
        <ele>1304</ele>
        <time>2018-07-17T07:56:33Z</time>
      </trkpt>
      <trkpt lat="44.27242" lon="5.65729">
        <ele>1304</ele>
        <time>2018-07-17T07:56:35Z</time>
      </trkpt>
      <trkpt lat="44.2724" lon="5.65727">
        <ele>1304</ele>
        <time>2018-07-17T07:56:38Z</time>
      </trkpt>
      <trkpt lat="44.27239" lon="5.65725">
        <ele>1304</ele>
        <time>2018-07-17T07:56:41Z</time>
      </trkpt>
      <trkpt lat="44.27238" lon="5.65724">
        <ele>1304</ele>
        <time>2018-07-17T07:56:43Z</time>
      </trkpt>
      <trkpt lat="44.27237" lon="5.65722">
        <ele>1304</ele>
        <time>2018-07-17T07:56:45Z</time>
      </trkpt>
      <trkpt lat="44.27236" lon="5.65721">
        <ele>1304</ele>
        <time>2018-07-17T07:56:47Z</time>
      </trkpt>
      <trkpt lat="44.27235" lon="5.65721">
        <ele>1304</ele>
        <time>2018-07-17T07:56:49Z</time>
      </trkpt>
      <trkpt lat="44.27233" lon="5.6572">
        <ele>1303</ele>
        <time>2018-07-17T07:56:51Z</time>
      </trkpt>
      <trkpt lat="44.27232" lon="5.65719">
        <ele>1303</ele>
        <time>2018-07-17T07:56:53Z</time>
      </trkpt>
      <trkpt lat="44.27232" lon="5.65717">
        <ele>1302</ele>
        <time>2018-07-17T07:56:55Z</time>
      </trkpt>
      <trkpt lat="44.2723" lon="5.65717">
        <ele>1302</ele>
        <time>2018-07-17T07:56:57Z</time>
      </trkpt>
      <trkpt lat="44.27229" lon="5.65716">
        <ele>1301</ele>
        <time>2018-07-17T07:57:00Z</time>
      </trkpt>
      <trkpt lat="44.27228" lon="5.65715">
        <ele>1301</ele>
        <time>2018-07-17T07:57:03Z</time>
      </trkpt>
      <trkpt lat="44.27227" lon="5.65714">
        <ele>1300</ele>
        <time>2018-07-17T07:57:05Z</time>
      </trkpt>
      <trkpt lat="44.27225" lon="5.65714">
        <ele>1299</ele>
        <time>2018-07-17T07:57:08Z</time>
      </trkpt>
      <trkpt lat="44.27225" lon="5.65712">
        <ele>1299</ele>
        <time>2018-07-17T07:57:10Z</time>
      </trkpt>
      <trkpt lat="44.27224" lon="5.6571">
        <ele>1299</ele>
        <time>2018-07-17T07:57:12Z</time>
      </trkpt>
      <trkpt lat="44.27222" lon="5.65708">
        <ele>1298</ele>
        <time>2018-07-17T07:57:15Z</time>
      </trkpt>
      <trkpt lat="44.27221" lon="5.65707">
        <ele>1298</ele>
        <time>2018-07-17T07:57:17Z</time>
      </trkpt>
      <trkpt lat="44.2722" lon="5.65706">
        <ele>1297</ele>
        <time>2018-07-17T07:57:19Z</time>
      </trkpt>
      <trkpt lat="44.27218" lon="5.65705">
        <ele>1297</ele>
        <time>2018-07-17T07:57:21Z</time>
      </trkpt>
      <trkpt lat="44.27217" lon="5.65705">
        <ele>1296</ele>
        <time>2018-07-17T07:57:24Z</time>
      </trkpt>
      <trkpt lat="44.27216" lon="5.65703">
        <ele>1296</ele>
        <time>2018-07-17T07:57:26Z</time>
      </trkpt>
      <trkpt lat="44.27215" lon="5.65702">
        <ele>1295</ele>
        <time>2018-07-17T07:57:28Z</time>
      </trkpt>
      <trkpt lat="44.27215" lon="5.657">
        <ele>1295</ele>
        <time>2018-07-17T07:57:30Z</time>
      </trkpt>
      <trkpt lat="44.27213" lon="5.65699">
        <ele>1295</ele>
        <time>2018-07-17T07:57:33Z</time>
      </trkpt>
      <trkpt lat="44.27212" lon="5.65698">
        <ele>1295</ele>
        <time>2018-07-17T07:57:35Z</time>
      </trkpt>
      <trkpt lat="44.2721" lon="5.65698">
        <ele>1295</ele>
        <time>2018-07-17T07:57:37Z</time>
      </trkpt>
      <trkpt lat="44.27209" lon="5.65696">
        <ele>1295</ele>
        <time>2018-07-17T07:57:40Z</time>
      </trkpt>
      <trkpt lat="44.27208" lon="5.65694">
        <ele>1295</ele>
        <time>2018-07-17T07:57:42Z</time>
      </trkpt>
      <trkpt lat="44.27207" lon="5.65694">
        <ele>1295</ele>
        <time>2018-07-17T07:57:44Z</time>
      </trkpt>
      <trkpt lat="44.27206" lon="5.65692">
        <ele>1295</ele>
        <time>2018-07-17T07:57:46Z</time>
      </trkpt>
      <trkpt lat="44.27205" lon="5.6569">
        <ele>1294</ele>
        <time>2018-07-17T07:57:49Z</time>
      </trkpt>
      <trkpt lat="44.27204" lon="5.65688">
        <ele>1294</ele>
        <time>2018-07-17T07:57:50Z</time>
      </trkpt>
      <trkpt lat="44.27204" lon="5.65686">
        <ele>1293</ele>
        <time>2018-07-17T07:57:51Z</time>
      </trkpt>
      <trkpt lat="44.27205" lon="5.65684">
        <ele>1293</ele>
        <time>2018-07-17T07:57:53Z</time>
      </trkpt>
      <trkpt lat="44.27204" lon="5.65682">
        <ele>1293</ele>
        <time>2018-07-17T07:57:56Z</time>
      </trkpt>
      <trkpt lat="44.27203" lon="5.6568">
        <ele>1292</ele>
        <time>2018-07-17T07:57:58Z</time>
      </trkpt>
      <trkpt lat="44.27201" lon="5.65679">
        <ele>1292</ele>
        <time>2018-07-17T07:58:00Z</time>
      </trkpt>
      <trkpt lat="44.272" lon="5.65678">
        <ele>1292</ele>
        <time>2018-07-17T07:58:02Z</time>
      </trkpt>
      <trkpt lat="44.27198" lon="5.65677">
        <ele>1292</ele>
        <time>2018-07-17T07:58:05Z</time>
      </trkpt>
      <trkpt lat="44.27197" lon="5.65675">
        <ele>1292</ele>
        <time>2018-07-17T07:58:07Z</time>
      </trkpt>
      <trkpt lat="44.27195" lon="5.65673">
        <ele>1292</ele>
        <time>2018-07-17T07:58:10Z</time>
      </trkpt>
      <trkpt lat="44.27194" lon="5.65671">
        <ele>1292</ele>
        <time>2018-07-17T07:58:12Z</time>
      </trkpt>
      <trkpt lat="44.27193" lon="5.65669">
        <ele>1292</ele>
        <time>2018-07-17T07:58:14Z</time>
      </trkpt>
      <trkpt lat="44.27193" lon="5.65667">
        <ele>1292</ele>
        <time>2018-07-17T07:58:16Z</time>
      </trkpt>
      <trkpt lat="44.27193" lon="5.65666">
        <ele>1291</ele>
        <time>2018-07-17T07:58:18Z</time>
      </trkpt>
      <trkpt lat="44.27192" lon="5.65664">
        <ele>1291</ele>
        <time>2018-07-17T07:58:20Z</time>
      </trkpt>
      <trkpt lat="44.2719" lon="5.65662">
        <ele>1290</ele>
        <time>2018-07-17T07:58:22Z</time>
      </trkpt>
      <trkpt lat="44.27189" lon="5.65661">
        <ele>1290</ele>
        <time>2018-07-17T07:58:24Z</time>
      </trkpt>
      <trkpt lat="44.27187" lon="5.6566">
        <ele>1290</ele>
        <time>2018-07-17T07:58:26Z</time>
      </trkpt>
      <trkpt lat="44.27186" lon="5.65658">
        <ele>1290</ele>
        <time>2018-07-17T07:58:27Z</time>
      </trkpt>
      <trkpt lat="44.27184" lon="5.65656">
        <ele>1290</ele>
        <time>2018-07-17T07:58:29Z</time>
      </trkpt>
      <trkpt lat="44.27183" lon="5.65655">
        <ele>1290</ele>
        <time>2018-07-17T07:58:31Z</time>
      </trkpt>
      <trkpt lat="44.27182" lon="5.65653">
        <ele>1290</ele>
        <time>2018-07-17T07:58:34Z</time>
      </trkpt>
      <trkpt lat="44.2718" lon="5.65651">
        <ele>1290</ele>
        <time>2018-07-17T07:58:36Z</time>
      </trkpt>
      <trkpt lat="44.27179" lon="5.6565">
        <ele>1289</ele>
        <time>2018-07-17T07:58:38Z</time>
      </trkpt>
      <trkpt lat="44.27178" lon="5.65648">
        <ele>1289</ele>
        <time>2018-07-17T07:58:40Z</time>
      </trkpt>
      <trkpt lat="44.27177" lon="5.65646">
        <ele>1289</ele>
        <time>2018-07-17T07:58:43Z</time>
      </trkpt>
      <trkpt lat="44.27176" lon="5.65645">
        <ele>1289</ele>
        <time>2018-07-17T07:58:46Z</time>
      </trkpt>
      <trkpt lat="44.27174" lon="5.65643">
        <ele>1289</ele>
        <time>2018-07-17T07:58:49Z</time>
      </trkpt>
      <trkpt lat="44.27172" lon="5.65641">
        <ele>1288</ele>
        <time>2018-07-17T07:58:52Z</time>
      </trkpt>
      <trkpt lat="44.27171" lon="5.65639">
        <ele>1288</ele>
        <time>2018-07-17T07:58:55Z</time>
      </trkpt>
      <trkpt lat="44.2717" lon="5.65637">
        <ele>1287</ele>
        <time>2018-07-17T07:58:58Z</time>
      </trkpt>
      <trkpt lat="44.27169" lon="5.65635">
        <ele>1287</ele>
        <time>2018-07-17T07:59:01Z</time>
      </trkpt>
      <trkpt lat="44.27168" lon="5.65633">
        <ele>1286</ele>
        <time>2018-07-17T07:59:03Z</time>
      </trkpt>
      <trkpt lat="44.27167" lon="5.65632">
        <ele>1285</ele>
        <time>2018-07-17T07:59:06Z</time>
      </trkpt>
      <trkpt lat="44.27166" lon="5.6563">
        <ele>1284</ele>
        <time>2018-07-17T07:59:09Z</time>
      </trkpt>
      <trkpt lat="44.27165" lon="5.65628">
        <ele>1283</ele>
        <time>2018-07-17T07:59:11Z</time>
      </trkpt>
      <trkpt lat="44.27164" lon="5.65626">
        <ele>1283</ele>
        <time>2018-07-17T07:59:13Z</time>
      </trkpt>
      <trkpt lat="44.27163" lon="5.65625">
        <ele>1282</ele>
        <time>2018-07-17T07:59:15Z</time>
      </trkpt>
      <trkpt lat="44.27161" lon="5.65623">
        <ele>1282</ele>
        <time>2018-07-17T07:59:18Z</time>
      </trkpt>
      <trkpt lat="44.2716" lon="5.65621">
        <ele>1282</ele>
        <time>2018-07-17T07:59:20Z</time>
      </trkpt>
      <trkpt lat="44.27159" lon="5.65619">
        <ele>1282</ele>
        <time>2018-07-17T07:59:23Z</time>
      </trkpt>
      <trkpt lat="44.27158" lon="5.65618">
        <ele>1282</ele>
        <time>2018-07-17T07:59:25Z</time>
      </trkpt>
      <trkpt lat="44.27158" lon="5.65616">
        <ele>1281</ele>
        <time>2018-07-17T07:59:27Z</time>
      </trkpt>
      <trkpt lat="44.27157" lon="5.65615">
        <ele>1281</ele>
        <time>2018-07-17T07:59:29Z</time>
      </trkpt>
      <trkpt lat="44.27156" lon="5.65613">
        <ele>1280</ele>
        <time>2018-07-17T07:59:31Z</time>
      </trkpt>
      <trkpt lat="44.27155" lon="5.65612">
        <ele>1280</ele>
        <time>2018-07-17T07:59:33Z</time>
      </trkpt>
      <trkpt lat="44.27154" lon="5.6561">
        <ele>1279</ele>
        <time>2018-07-17T07:59:35Z</time>
      </trkpt>
      <trkpt lat="44.27153" lon="5.65608">
        <ele>1279</ele>
        <time>2018-07-17T07:59:37Z</time>
      </trkpt>
      <trkpt lat="44.27152" lon="5.65606">
        <ele>1279</ele>
        <time>2018-07-17T07:59:39Z</time>
      </trkpt>
      <trkpt lat="44.27151" lon="5.65604">
        <ele>1278</ele>
        <time>2018-07-17T07:59:41Z</time>
      </trkpt>
      <trkpt lat="44.27152" lon="5.65603">
        <ele>1278</ele>
        <time>2018-07-17T07:59:43Z</time>
      </trkpt>
      <trkpt lat="44.27151" lon="5.656">
        <ele>1278</ele>
        <time>2018-07-17T07:59:45Z</time>
      </trkpt>
      <trkpt lat="44.2715" lon="5.65599">
        <ele>1278</ele>
        <time>2018-07-17T07:59:47Z</time>
      </trkpt>
      <trkpt lat="44.27148" lon="5.65597">
        <ele>1278</ele>
        <time>2018-07-17T07:59:49Z</time>
      </trkpt>
      <trkpt lat="44.27147" lon="5.65596">
        <ele>1277</ele>
        <time>2018-07-17T07:59:51Z</time>
      </trkpt>
      <trkpt lat="44.27145" lon="5.65596">
        <ele>1277</ele>
        <time>2018-07-17T07:59:53Z</time>
      </trkpt>
      <trkpt lat="44.27144" lon="5.65594">
        <ele>1277</ele>
        <time>2018-07-17T07:59:55Z</time>
      </trkpt>
      <trkpt lat="44.27142" lon="5.65592">
        <ele>1277</ele>
        <time>2018-07-17T07:59:57Z</time>
      </trkpt>
      <trkpt lat="44.2714" lon="5.65591">
        <ele>1277</ele>
        <time>2018-07-17T07:59:59Z</time>
      </trkpt>
      <trkpt lat="44.27139" lon="5.6559">
        <ele>1277</ele>
        <time>2018-07-17T08:00:01Z</time>
      </trkpt>
      <trkpt lat="44.27138" lon="5.65589">
        <ele>1277</ele>
        <time>2018-07-17T08:00:04Z</time>
      </trkpt>
      <trkpt lat="44.27137" lon="5.65587">
        <ele>1277</ele>
        <time>2018-07-17T08:00:10Z</time>
      </trkpt>
      <trkpt lat="44.27135" lon="5.65586">
        <ele>1276</ele>
        <time>2018-07-17T08:00:12Z</time>
      </trkpt>
      <trkpt lat="44.27134" lon="5.65586">
        <ele>1276</ele>
        <time>2018-07-17T08:00:14Z</time>
      </trkpt>
      <trkpt lat="44.27133" lon="5.65586">
        <ele>1276</ele>
        <time>2018-07-17T08:00:16Z</time>
      </trkpt>
      <trkpt lat="44.27134" lon="5.65587">
        <ele>1276</ele>
        <time>2018-07-17T08:00:34Z</time>
      </trkpt>
      <trkpt lat="44.27135" lon="5.65586">
        <ele>1275</ele>
        <time>2018-07-17T08:00:46Z</time>
      </trkpt>
      <trkpt lat="44.27137" lon="5.65585">
        <ele>1275</ele>
        <time>2018-07-17T08:00:49Z</time>
      </trkpt>
      <trkpt lat="44.27137" lon="5.65583">
        <ele>1275</ele>
        <time>2018-07-17T08:00:52Z</time>
      </trkpt>
      <trkpt lat="44.27138" lon="5.65581">
        <ele>1275</ele>
        <time>2018-07-17T08:00:55Z</time>
      </trkpt>
      <trkpt lat="44.27137" lon="5.65579">
        <ele>1275</ele>
        <time>2018-07-17T08:01:02Z</time>
      </trkpt>
      <trkpt lat="44.27138" lon="5.65577">
        <ele>1275</ele>
        <time>2018-07-17T08:01:04Z</time>
      </trkpt>
      <trkpt lat="44.27139" lon="5.65575">
        <ele>1275</ele>
        <time>2018-07-17T08:01:06Z</time>
      </trkpt>
      <trkpt lat="44.2714" lon="5.65574">
        <ele>1275</ele>
        <time>2018-07-17T08:01:08Z</time>
      </trkpt>
      <trkpt lat="44.27142" lon="5.65573">
        <ele>1275</ele>
        <time>2018-07-17T08:01:10Z</time>
      </trkpt>
      <trkpt lat="44.27143" lon="5.65573">
        <ele>1275</ele>
        <time>2018-07-17T08:01:12Z</time>
      </trkpt>
      <trkpt lat="44.27145" lon="5.65573">
        <ele>1275</ele>
        <time>2018-07-17T08:01:14Z</time>
      </trkpt>
      <trkpt lat="44.27146" lon="5.65573">
        <ele>1275</ele>
        <time>2018-07-17T08:01:18Z</time>
      </trkpt>
      <trkpt lat="44.27148" lon="5.65573">
        <ele>1275</ele>
        <time>2018-07-17T08:01:20Z</time>
      </trkpt>
      <trkpt lat="44.27149" lon="5.65574">
        <ele>1275</ele>
        <time>2018-07-17T08:01:23Z</time>
      </trkpt>
      <trkpt lat="44.2715" lon="5.65574">
        <ele>1276</ele>
        <time>2018-07-17T08:01:48Z</time>
      </trkpt>
      <trkpt lat="44.27151" lon="5.65574">
        <ele>1276</ele>
        <time>2018-07-17T08:01:50Z</time>
      </trkpt>
      <trkpt lat="44.27153" lon="5.65574">
        <ele>1276</ele>
        <time>2018-07-17T08:01:52Z</time>
      </trkpt>
      <trkpt lat="44.27154" lon="5.65575">
        <ele>1276</ele>
        <time>2018-07-17T08:01:54Z</time>
      </trkpt>
      <trkpt lat="44.27156" lon="5.65575">
        <ele>1276</ele>
        <time>2018-07-17T08:01:56Z</time>
      </trkpt>
      <trkpt lat="44.27158" lon="5.65575">
        <ele>1276</ele>
        <time>2018-07-17T08:01:58Z</time>
      </trkpt>
      <trkpt lat="44.27159" lon="5.65574">
        <ele>1276</ele>
        <time>2018-07-17T08:02:00Z</time>
      </trkpt>
      <trkpt lat="44.2716" lon="5.65575">
        <ele>1276</ele>
        <time>2018-07-17T08:02:02Z</time>
      </trkpt>
      <trkpt lat="44.27162" lon="5.65575">
        <ele>1276</ele>
        <time>2018-07-17T08:02:04Z</time>
      </trkpt>
      <trkpt lat="44.27163" lon="5.65576">
        <ele>1276</ele>
        <time>2018-07-17T08:02:06Z</time>
      </trkpt>
      <trkpt lat="44.27164" lon="5.65577">
        <ele>1276</ele>
        <time>2018-07-17T08:02:08Z</time>
      </trkpt>
      <trkpt lat="44.27166" lon="5.65578">
        <ele>1276</ele>
        <time>2018-07-17T08:02:10Z</time>
      </trkpt>
      <trkpt lat="44.27168" lon="5.65579">
        <ele>1276</ele>
        <time>2018-07-17T08:02:12Z</time>
      </trkpt>
      <trkpt lat="44.27169" lon="5.65579">
        <ele>1276</ele>
        <time>2018-07-17T08:02:14Z</time>
      </trkpt>
      <trkpt lat="44.27171" lon="5.65581">
        <ele>1276</ele>
        <time>2018-07-17T08:02:16Z</time>
      </trkpt>
      <trkpt lat="44.27172" lon="5.65582">
        <ele>1276</ele>
        <time>2018-07-17T08:02:18Z</time>
      </trkpt>
      <trkpt lat="44.27174" lon="5.65583">
        <ele>1276</ele>
        <time>2018-07-17T08:02:20Z</time>
      </trkpt>
      <trkpt lat="44.27175" lon="5.65583">
        <ele>1276</ele>
        <time>2018-07-17T08:02:22Z</time>
      </trkpt>
      <trkpt lat="44.27177" lon="5.65585">
        <ele>1276</ele>
        <time>2018-07-17T08:02:24Z</time>
      </trkpt>
      <trkpt lat="44.27178" lon="5.65584">
        <ele>1276</ele>
        <time>2018-07-17T08:02:26Z</time>
      </trkpt>
      <trkpt lat="44.27179" lon="5.65585">
        <ele>1276</ele>
        <time>2018-07-17T08:02:29Z</time>
      </trkpt>
      <trkpt lat="44.27181" lon="5.65584">
        <ele>1276</ele>
        <time>2018-07-17T08:02:31Z</time>
      </trkpt>
      <trkpt lat="44.27182" lon="5.65584">
        <ele>1276</ele>
        <time>2018-07-17T08:02:33Z</time>
      </trkpt>
      <trkpt lat="44.27184" lon="5.65583">
        <ele>1276</ele>
        <time>2018-07-17T08:02:35Z</time>
      </trkpt>
      <trkpt lat="44.27186" lon="5.65583">
        <ele>1276</ele>
        <time>2018-07-17T08:02:37Z</time>
      </trkpt>
      <trkpt lat="44.27187" lon="5.65582">
        <ele>1276</ele>
        <time>2018-07-17T08:02:39Z</time>
      </trkpt>
      <trkpt lat="44.27188" lon="5.65582">
        <ele>1277</ele>
        <time>2018-07-17T08:02:41Z</time>
      </trkpt>
      <trkpt lat="44.2719" lon="5.65582">
        <ele>1277</ele>
        <time>2018-07-17T08:02:43Z</time>
      </trkpt>
      <trkpt lat="44.27191" lon="5.65583">
        <ele>1277</ele>
        <time>2018-07-17T08:02:45Z</time>
      </trkpt>
      <trkpt lat="44.27193" lon="5.65583">
        <ele>1277</ele>
        <time>2018-07-17T08:02:47Z</time>
      </trkpt>
      <trkpt lat="44.27195" lon="5.65584">
        <ele>1277</ele>
        <time>2018-07-17T08:02:49Z</time>
      </trkpt>
      <trkpt lat="44.27196" lon="5.65585">
        <ele>1277</ele>
        <time>2018-07-17T08:02:51Z</time>
      </trkpt>
      <trkpt lat="44.27198" lon="5.65587">
        <ele>1277</ele>
        <time>2018-07-17T08:02:53Z</time>
      </trkpt>
      <trkpt lat="44.272" lon="5.65587">
        <ele>1277</ele>
        <time>2018-07-17T08:02:55Z</time>
      </trkpt>
      <trkpt lat="44.27201" lon="5.65588">
        <ele>1277</ele>
        <time>2018-07-17T08:02:57Z</time>
      </trkpt>
      <trkpt lat="44.27203" lon="5.65589">
        <ele>1276</ele>
        <time>2018-07-17T08:02:59Z</time>
      </trkpt>
      <trkpt lat="44.27205" lon="5.65589">
        <ele>1276</ele>
        <time>2018-07-17T08:03:01Z</time>
      </trkpt>
      <trkpt lat="44.27206" lon="5.6559">
        <ele>1276</ele>
        <time>2018-07-17T08:03:03Z</time>
      </trkpt>
      <trkpt lat="44.27208" lon="5.65591">
        <ele>1276</ele>
        <time>2018-07-17T08:03:05Z</time>
      </trkpt>
      <trkpt lat="44.27209" lon="5.65592">
        <ele>1276</ele>
        <time>2018-07-17T08:03:07Z</time>
      </trkpt>
      <trkpt lat="44.27211" lon="5.65593">
        <ele>1276</ele>
        <time>2018-07-17T08:03:09Z</time>
      </trkpt>
      <trkpt lat="44.27212" lon="5.65595">
        <ele>1276</ele>
        <time>2018-07-17T08:03:11Z</time>
      </trkpt>
      <trkpt lat="44.27214" lon="5.65597">
        <ele>1275</ele>
        <time>2018-07-17T08:03:14Z</time>
      </trkpt>
      <trkpt lat="44.27215" lon="5.65598">
        <ele>1274</ele>
        <time>2018-07-17T08:03:16Z</time>
      </trkpt>
      <trkpt lat="44.27216" lon="5.65601">
        <ele>1274</ele>
        <time>2018-07-17T08:03:18Z</time>
      </trkpt>
      <trkpt lat="44.27217" lon="5.65602">
        <ele>1274</ele>
        <time>2018-07-17T08:03:20Z</time>
      </trkpt>
      <trkpt lat="44.27219" lon="5.65603">
        <ele>1274</ele>
        <time>2018-07-17T08:03:23Z</time>
      </trkpt>
      <trkpt lat="44.2722" lon="5.65605">
        <ele>1273</ele>
        <time>2018-07-17T08:03:26Z</time>
      </trkpt>
      <trkpt lat="44.27221" lon="5.65607">
        <ele>1273</ele>
        <time>2018-07-17T08:03:29Z</time>
      </trkpt>
      <trkpt lat="44.27223" lon="5.65608">
        <ele>1273</ele>
        <time>2018-07-17T08:03:31Z</time>
      </trkpt>
      <trkpt lat="44.27224" lon="5.65609">
        <ele>1273</ele>
        <time>2018-07-17T08:03:33Z</time>
      </trkpt>
      <trkpt lat="44.27225" lon="5.6561">
        <ele>1273</ele>
        <time>2018-07-17T08:03:35Z</time>
      </trkpt>
      <trkpt lat="44.27227" lon="5.65611">
        <ele>1273</ele>
        <time>2018-07-17T08:03:37Z</time>
      </trkpt>
      <trkpt lat="44.27228" lon="5.65613">
        <ele>1273</ele>
        <time>2018-07-17T08:03:39Z</time>
      </trkpt>
      <trkpt lat="44.2723" lon="5.65614">
        <ele>1273</ele>
        <time>2018-07-17T08:03:41Z</time>
      </trkpt>
      <trkpt lat="44.2723" lon="5.65615">
        <ele>1273</ele>
        <time>2018-07-17T08:03:43Z</time>
      </trkpt>
      <trkpt lat="44.27232" lon="5.65617">
        <ele>1273</ele>
        <time>2018-07-17T08:03:45Z</time>
      </trkpt>
      <trkpt lat="44.27233" lon="5.65618">
        <ele>1273</ele>
        <time>2018-07-17T08:03:48Z</time>
      </trkpt>
      <trkpt lat="44.27235" lon="5.65618">
        <ele>1273</ele>
        <time>2018-07-17T08:03:50Z</time>
      </trkpt>
      <trkpt lat="44.27237" lon="5.65619">
        <ele>1273</ele>
        <time>2018-07-17T08:03:52Z</time>
      </trkpt>
      <trkpt lat="44.27238" lon="5.6562">
        <ele>1273</ele>
        <time>2018-07-17T08:03:54Z</time>
      </trkpt>
      <trkpt lat="44.2724" lon="5.65621">
        <ele>1272</ele>
        <time>2018-07-17T08:03:56Z</time>
      </trkpt>
      <trkpt lat="44.27241" lon="5.65621">
        <ele>1271</ele>
        <time>2018-07-17T08:03:59Z</time>
      </trkpt>
      <trkpt lat="44.27242" lon="5.65623">
        <ele>1270</ele>
        <time>2018-07-17T08:04:01Z</time>
      </trkpt>
      <trkpt lat="44.27243" lon="5.65624">
        <ele>1270</ele>
        <time>2018-07-17T08:04:03Z</time>
      </trkpt>
      <trkpt lat="44.27245" lon="5.65625">
        <ele>1269</ele>
        <time>2018-07-17T08:04:05Z</time>
      </trkpt>
      <trkpt lat="44.27246" lon="5.65627">
        <ele>1267</ele>
        <time>2018-07-17T08:04:08Z</time>
      </trkpt>
      <trkpt lat="44.27248" lon="5.65628">
        <ele>1266</ele>
        <time>2018-07-17T08:04:10Z</time>
      </trkpt>
      <trkpt lat="44.2725" lon="5.65629">
        <ele>1266</ele>
        <time>2018-07-17T08:04:12Z</time>
      </trkpt>
      <trkpt lat="44.27251" lon="5.65629">
        <ele>1266</ele>
        <time>2018-07-17T08:04:13Z</time>
      </trkpt>
      <trkpt lat="44.27253" lon="5.65631">
        <ele>1266</ele>
        <time>2018-07-17T08:04:15Z</time>
      </trkpt>
      <trkpt lat="44.27254" lon="5.65631">
        <ele>1266</ele>
        <time>2018-07-17T08:04:17Z</time>
      </trkpt>
      <trkpt lat="44.27255" lon="5.65633">
        <ele>1265</ele>
        <time>2018-07-17T08:04:19Z</time>
      </trkpt>
      <trkpt lat="44.27256" lon="5.65634">
        <ele>1265</ele>
        <time>2018-07-17T08:04:21Z</time>
      </trkpt>
      <trkpt lat="44.27258" lon="5.65634">
        <ele>1264</ele>
        <time>2018-07-17T08:04:23Z</time>
      </trkpt>
      <trkpt lat="44.2726" lon="5.65634">
        <ele>1264</ele>
        <time>2018-07-17T08:04:26Z</time>
      </trkpt>
      <trkpt lat="44.27261" lon="5.65635">
        <ele>1264</ele>
        <time>2018-07-17T08:04:28Z</time>
      </trkpt>
      <trkpt lat="44.27263" lon="5.65636">
        <ele>1263</ele>
        <time>2018-07-17T08:04:30Z</time>
      </trkpt>
      <trkpt lat="44.27264" lon="5.65638">
        <ele>1263</ele>
        <time>2018-07-17T08:04:32Z</time>
      </trkpt>
      <trkpt lat="44.27266" lon="5.65639">
        <ele>1262</ele>
        <time>2018-07-17T08:04:35Z</time>
      </trkpt>
      <trkpt lat="44.27267" lon="5.65641">
        <ele>1261</ele>
        <time>2018-07-17T08:04:37Z</time>
      </trkpt>
      <trkpt lat="44.27268" lon="5.65642">
        <ele>1260</ele>
        <time>2018-07-17T08:04:39Z</time>
      </trkpt>
      <trkpt lat="44.27268" lon="5.65645">
        <ele>1259</ele>
        <time>2018-07-17T08:04:41Z</time>
      </trkpt>
      <trkpt lat="44.27269" lon="5.65646">
        <ele>1258</ele>
        <time>2018-07-17T08:04:43Z</time>
      </trkpt>
      <trkpt lat="44.27269" lon="5.65649">
        <ele>1257</ele>
        <time>2018-07-17T08:04:45Z</time>
      </trkpt>
      <trkpt lat="44.2727" lon="5.65651">
        <ele>1256</ele>
        <time>2018-07-17T08:04:47Z</time>
      </trkpt>
      <trkpt lat="44.27272" lon="5.65651">
        <ele>1256</ele>
        <time>2018-07-17T08:04:51Z</time>
      </trkpt>
      <trkpt lat="44.27273" lon="5.65651">
        <ele>1256</ele>
        <time>2018-07-17T08:04:56Z</time>
      </trkpt>
      <trkpt lat="44.27273" lon="5.65653">
        <ele>1256</ele>
        <time>2018-07-17T08:04:59Z</time>
      </trkpt>
      <trkpt lat="44.27274" lon="5.65655">
        <ele>1256</ele>
        <time>2018-07-17T08:05:02Z</time>
      </trkpt>
      <trkpt lat="44.27275" lon="5.65656">
        <ele>1256</ele>
        <time>2018-07-17T08:05:04Z</time>
      </trkpt>
      <trkpt lat="44.27276" lon="5.65658">
        <ele>1256</ele>
        <time>2018-07-17T08:05:06Z</time>
      </trkpt>
      <trkpt lat="44.27277" lon="5.65658">
        <ele>1256</ele>
        <time>2018-07-17T08:05:08Z</time>
      </trkpt>
      <trkpt lat="44.27279" lon="5.65658">
        <ele>1256</ele>
        <time>2018-07-17T08:05:10Z</time>
      </trkpt>
      <trkpt lat="44.27281" lon="5.65657">
        <ele>1257</ele>
        <time>2018-07-17T08:05:12Z</time>
      </trkpt>
      <trkpt lat="44.27282" lon="5.65658">
        <ele>1258</ele>
        <time>2018-07-17T08:05:13Z</time>
      </trkpt>
      <trkpt lat="44.27284" lon="5.65659">
        <ele>1259</ele>
        <time>2018-07-17T08:05:15Z</time>
      </trkpt>
      <trkpt lat="44.27286" lon="5.6566">
        <ele>1260</ele>
        <time>2018-07-17T08:05:17Z</time>
      </trkpt>
      <trkpt lat="44.27288" lon="5.65661">
        <ele>1260</ele>
        <time>2018-07-17T08:05:19Z</time>
      </trkpt>
      <trkpt lat="44.2729" lon="5.65661">
        <ele>1261</ele>
        <time>2018-07-17T08:05:21Z</time>
      </trkpt>
      <trkpt lat="44.27291" lon="5.65662">
        <ele>1261</ele>
        <time>2018-07-17T08:05:23Z</time>
      </trkpt>
      <trkpt lat="44.27292" lon="5.65664">
        <ele>1262</ele>
        <time>2018-07-17T08:05:25Z</time>
      </trkpt>
      <trkpt lat="44.27294" lon="5.65666">
        <ele>1262</ele>
        <time>2018-07-17T08:05:27Z</time>
      </trkpt>
      <trkpt lat="44.27296" lon="5.65667">
        <ele>1262</ele>
        <time>2018-07-17T08:05:29Z</time>
      </trkpt>
      <trkpt lat="44.27298" lon="5.65666">
        <ele>1262</ele>
        <time>2018-07-17T08:05:31Z</time>
      </trkpt>
      <trkpt lat="44.27299" lon="5.65666">
        <ele>1263</ele>
        <time>2018-07-17T08:05:32Z</time>
      </trkpt>
      <trkpt lat="44.27301" lon="5.65666">
        <ele>1264</ele>
        <time>2018-07-17T08:05:33Z</time>
      </trkpt>
      <trkpt lat="44.27303" lon="5.65667">
        <ele>1266</ele>
        <time>2018-07-17T08:05:35Z</time>
      </trkpt>
      <trkpt lat="44.27305" lon="5.65666">
        <ele>1266</ele>
        <time>2018-07-17T08:05:37Z</time>
      </trkpt>
      <trkpt lat="44.27307" lon="5.65667">
        <ele>1267</ele>
        <time>2018-07-17T08:05:39Z</time>
      </trkpt>
      <trkpt lat="44.27309" lon="5.65667">
        <ele>1268</ele>
        <time>2018-07-17T08:05:41Z</time>
      </trkpt>
      <trkpt lat="44.2731" lon="5.65668">
        <ele>1268</ele>
        <time>2018-07-17T08:05:43Z</time>
      </trkpt>
      <trkpt lat="44.27311" lon="5.65668">
        <ele>1268</ele>
        <time>2018-07-17T08:05:45Z</time>
      </trkpt>
      <trkpt lat="44.27312" lon="5.65669">
        <ele>1268</ele>
        <time>2018-07-17T08:05:47Z</time>
      </trkpt>
      <trkpt lat="44.27313" lon="5.65671">
        <ele>1268</ele>
        <time>2018-07-17T08:05:49Z</time>
      </trkpt>
      <trkpt lat="44.27315" lon="5.65672">
        <ele>1268</ele>
        <time>2018-07-17T08:05:52Z</time>
      </trkpt>
      <trkpt lat="44.27316" lon="5.65673">
        <ele>1268</ele>
        <time>2018-07-17T08:05:54Z</time>
      </trkpt>
      <trkpt lat="44.27317" lon="5.65673">
        <ele>1268</ele>
        <time>2018-07-17T08:05:56Z</time>
      </trkpt>
      <trkpt lat="44.27319" lon="5.65673">
        <ele>1268</ele>
        <time>2018-07-17T08:05:58Z</time>
      </trkpt>
      <trkpt lat="44.2732" lon="5.65674">
        <ele>1268</ele>
        <time>2018-07-17T08:06:00Z</time>
      </trkpt>
      <trkpt lat="44.27322" lon="5.65673">
        <ele>1268</ele>
        <time>2018-07-17T08:06:02Z</time>
      </trkpt>
      <trkpt lat="44.27323" lon="5.65674">
        <ele>1268</ele>
        <time>2018-07-17T08:06:05Z</time>
      </trkpt>
      <trkpt lat="44.27325" lon="5.65675">
        <ele>1268</ele>
        <time>2018-07-17T08:06:08Z</time>
      </trkpt>
      <trkpt lat="44.27326" lon="5.65676">
        <ele>1268</ele>
        <time>2018-07-17T08:06:11Z</time>
      </trkpt>
      <trkpt lat="44.27327" lon="5.65678">
        <ele>1267</ele>
        <time>2018-07-17T08:06:14Z</time>
      </trkpt>
      <trkpt lat="44.27329" lon="5.65678">
        <ele>1265</ele>
        <time>2018-07-17T08:06:16Z</time>
      </trkpt>
      <trkpt lat="44.27331" lon="5.65679">
        <ele>1264</ele>
        <time>2018-07-17T08:06:18Z</time>
      </trkpt>
      <trkpt lat="44.27332" lon="5.65679">
        <ele>1263</ele>
        <time>2018-07-17T08:06:20Z</time>
      </trkpt>
      <trkpt lat="44.27334" lon="5.65679">
        <ele>1262</ele>
        <time>2018-07-17T08:06:22Z</time>
      </trkpt>
      <trkpt lat="44.27335" lon="5.6568">
        <ele>1261</ele>
        <time>2018-07-17T08:06:24Z</time>
      </trkpt>
      <trkpt lat="44.27336" lon="5.65681">
        <ele>1260</ele>
        <time>2018-07-17T08:06:26Z</time>
      </trkpt>
      <trkpt lat="44.27338" lon="5.65683">
        <ele>1259</ele>
        <time>2018-07-17T08:06:28Z</time>
      </trkpt>
      <trkpt lat="44.27338" lon="5.65685">
        <ele>1257</ele>
        <time>2018-07-17T08:06:30Z</time>
      </trkpt>
      <trkpt lat="44.2734" lon="5.65685">
        <ele>1256</ele>
        <time>2018-07-17T08:06:32Z</time>
      </trkpt>
      <trkpt lat="44.27342" lon="5.65687">
        <ele>1254</ele>
        <time>2018-07-17T08:06:34Z</time>
      </trkpt>
      <trkpt lat="44.27343" lon="5.65687">
        <ele>1253</ele>
        <time>2018-07-17T08:06:36Z</time>
      </trkpt>
      <trkpt lat="44.27345" lon="5.65688">
        <ele>1253</ele>
        <time>2018-07-17T08:06:39Z</time>
      </trkpt>
      <trkpt lat="44.27346" lon="5.65689">
        <ele>1252</ele>
        <time>2018-07-17T08:06:41Z</time>
      </trkpt>
      <trkpt lat="44.27348" lon="5.65689">
        <ele>1252</ele>
        <time>2018-07-17T08:06:43Z</time>
      </trkpt>
      <trkpt lat="44.2735" lon="5.6569">
        <ele>1252</ele>
        <time>2018-07-17T08:06:45Z</time>
      </trkpt>
      <trkpt lat="44.27351" lon="5.65691">
        <ele>1252</ele>
        <time>2018-07-17T08:06:47Z</time>
      </trkpt>
      <trkpt lat="44.27354" lon="5.65691">
        <ele>1252</ele>
        <time>2018-07-17T08:06:49Z</time>
      </trkpt>
      <trkpt lat="44.27355" lon="5.65692">
        <ele>1252</ele>
        <time>2018-07-17T08:06:50Z</time>
      </trkpt>
      <trkpt lat="44.27356" lon="5.65692">
        <ele>1252</ele>
        <time>2018-07-17T08:06:51Z</time>
      </trkpt>
      <trkpt lat="44.27358" lon="5.65693">
        <ele>1252</ele>
        <time>2018-07-17T08:06:53Z</time>
      </trkpt>
      <trkpt lat="44.2736" lon="5.65694">
        <ele>1252</ele>
        <time>2018-07-17T08:06:55Z</time>
      </trkpt>
      <trkpt lat="44.27361" lon="5.65693">
        <ele>1252</ele>
        <time>2018-07-17T08:06:56Z</time>
      </trkpt>
      <trkpt lat="44.27362" lon="5.65693">
        <ele>1252</ele>
        <time>2018-07-17T08:06:57Z</time>
      </trkpt>
      <trkpt lat="44.27364" lon="5.65694">
        <ele>1252</ele>
        <time>2018-07-17T08:06:59Z</time>
      </trkpt>
      <trkpt lat="44.27366" lon="5.65695">
        <ele>1252</ele>
        <time>2018-07-17T08:07:00Z</time>
      </trkpt>
      <trkpt lat="44.27367" lon="5.65695">
        <ele>1252</ele>
        <time>2018-07-17T08:07:01Z</time>
      </trkpt>
      <trkpt lat="44.27368" lon="5.65696">
        <ele>1252</ele>
        <time>2018-07-17T08:07:02Z</time>
      </trkpt>
      <trkpt lat="44.27369" lon="5.65697">
        <ele>1252</ele>
        <time>2018-07-17T08:07:03Z</time>
      </trkpt>
      <trkpt lat="44.27371" lon="5.65698">
        <ele>1251</ele>
        <time>2018-07-17T08:07:05Z</time>
      </trkpt>
      <trkpt lat="44.27372" lon="5.65699">
        <ele>1250</ele>
        <time>2018-07-17T08:07:07Z</time>
      </trkpt>
      <trkpt lat="44.27374" lon="5.657">
        <ele>1250</ele>
        <time>2018-07-17T08:07:09Z</time>
      </trkpt>
      <trkpt lat="44.27376" lon="5.65701">
        <ele>1250</ele>
        <time>2018-07-17T08:07:11Z</time>
      </trkpt>
      <trkpt lat="44.27378" lon="5.65702">
        <ele>1249</ele>
        <time>2018-07-17T08:07:13Z</time>
      </trkpt>
      <trkpt lat="44.27379" lon="5.65703">
        <ele>1249</ele>
        <time>2018-07-17T08:07:15Z</time>
      </trkpt>
      <trkpt lat="44.2738" lon="5.65704">
        <ele>1248</ele>
        <time>2018-07-17T08:07:17Z</time>
      </trkpt>
      <trkpt lat="44.27383" lon="5.65706">
        <ele>1248</ele>
        <time>2018-07-17T08:07:19Z</time>
      </trkpt>
      <trkpt lat="44.27384" lon="5.65706">
        <ele>1247</ele>
        <time>2018-07-17T08:07:20Z</time>
      </trkpt>
      <trkpt lat="44.27385" lon="5.65707">
        <ele>1247</ele>
        <time>2018-07-17T08:07:21Z</time>
      </trkpt>
      <trkpt lat="44.27386" lon="5.65708">
        <ele>1247</ele>
        <time>2018-07-17T08:07:22Z</time>
      </trkpt>
      <trkpt lat="44.27388" lon="5.65708">
        <ele>1247</ele>
        <time>2018-07-17T08:07:24Z</time>
      </trkpt>
      <trkpt lat="44.2739" lon="5.65707">
        <ele>1247</ele>
        <time>2018-07-17T08:07:28Z</time>
      </trkpt>
      <trkpt lat="44.2739" lon="5.65705">
        <ele>1247</ele>
        <time>2018-07-17T08:07:49Z</time>
      </trkpt>
      <trkpt lat="44.2739" lon="5.65707">
        <ele>1247</ele>
        <time>2018-07-17T08:08:05Z</time>
      </trkpt>
      <trkpt lat="44.27389" lon="5.65705">
        <ele>1247</ele>
        <time>2018-07-17T08:08:09Z</time>
      </trkpt>
      <trkpt lat="44.27389" lon="5.65703">
        <ele>1247</ele>
        <time>2018-07-17T08:08:11Z</time>
      </trkpt>
      <trkpt lat="44.27389" lon="5.65704">
        <ele>1247</ele>
        <time>2018-07-17T08:08:16Z</time>
      </trkpt>
      <trkpt lat="44.27388" lon="5.65706">
        <ele>1248</ele>
        <time>2018-07-17T08:08:21Z</time>
      </trkpt>
      <trkpt lat="44.27387" lon="5.65707">
        <ele>1248</ele>
        <time>2018-07-17T08:08:26Z</time>
      </trkpt>
      <trkpt lat="44.27385" lon="5.65707">
        <ele>1248</ele>
        <time>2018-07-17T08:08:28Z</time>
      </trkpt>
      <trkpt lat="44.27384" lon="5.65707">
        <ele>1248</ele>
        <time>2018-07-17T08:08:29Z</time>
      </trkpt>
      <trkpt lat="44.27383" lon="5.65707">
        <ele>1248</ele>
        <time>2018-07-17T08:08:30Z</time>
      </trkpt>
      <trkpt lat="44.27381" lon="5.65708">
        <ele>1248</ele>
        <time>2018-07-17T08:08:31Z</time>
      </trkpt>
      <trkpt lat="44.2738" lon="5.65708">
        <ele>1248</ele>
        <time>2018-07-17T08:08:32Z</time>
      </trkpt>
      <trkpt lat="44.27379" lon="5.65709">
        <ele>1248</ele>
        <time>2018-07-17T08:08:33Z</time>
      </trkpt>
      <trkpt lat="44.27378" lon="5.6571">
        <ele>1248</ele>
        <time>2018-07-17T08:08:39Z</time>
      </trkpt>
      <trkpt lat="44.2738" lon="5.6571">
        <ele>1248</ele>
        <time>2018-07-17T08:08:44Z</time>
      </trkpt>
      <trkpt lat="44.27382" lon="5.6571">
        <ele>1248</ele>
        <time>2018-07-17T08:08:49Z</time>
      </trkpt>
      <trkpt lat="44.27383" lon="5.65712">
        <ele>1248</ele>
        <time>2018-07-17T08:08:52Z</time>
      </trkpt>
      <trkpt lat="44.27384" lon="5.65714">
        <ele>1247</ele>
        <time>2018-07-17T08:08:55Z</time>
      </trkpt>
      <trkpt lat="44.27385" lon="5.65716">
        <ele>1246</ele>
        <time>2018-07-17T08:08:57Z</time>
      </trkpt>
      <trkpt lat="44.27385" lon="5.65718">
        <ele>1246</ele>
        <time>2018-07-17T08:08:59Z</time>
      </trkpt>
      <trkpt lat="44.27386" lon="5.6572">
        <ele>1245</ele>
        <time>2018-07-17T08:09:01Z</time>
      </trkpt>
      <trkpt lat="44.27386" lon="5.65721">
        <ele>1244</ele>
        <time>2018-07-17T08:09:03Z</time>
      </trkpt>
      <trkpt lat="44.27387" lon="5.65723">
        <ele>1243</ele>
        <time>2018-07-17T08:09:05Z</time>
      </trkpt>
      <trkpt lat="44.27388" lon="5.65725">
        <ele>1242</ele>
        <time>2018-07-17T08:09:08Z</time>
      </trkpt>
      <trkpt lat="44.27387" lon="5.65725">
        <ele>1241</ele>
        <time>2018-07-17T08:09:13Z</time>
      </trkpt>
      <trkpt lat="44.27388" lon="5.65727">
        <ele>1241</ele>
        <time>2018-07-17T08:09:18Z</time>
      </trkpt>
      <trkpt lat="44.27389" lon="5.65728">
        <ele>1241</ele>
        <time>2018-07-17T08:09:19Z</time>
      </trkpt>
      <trkpt lat="44.27391" lon="5.65729">
        <ele>1240</ele>
        <time>2018-07-17T08:09:21Z</time>
      </trkpt>
      <trkpt lat="44.27393" lon="5.6573">
        <ele>1239</ele>
        <time>2018-07-17T08:09:23Z</time>
      </trkpt>
      <trkpt lat="44.27394" lon="5.6573">
        <ele>1239</ele>
        <time>2018-07-17T08:09:24Z</time>
      </trkpt>
      <trkpt lat="44.27396" lon="5.6573">
        <ele>1238</ele>
        <time>2018-07-17T08:09:26Z</time>
      </trkpt>
      <trkpt lat="44.27398" lon="5.65731">
        <ele>1238</ele>
        <time>2018-07-17T08:09:28Z</time>
      </trkpt>
      <trkpt lat="44.27399" lon="5.65731">
        <ele>1238</ele>
        <time>2018-07-17T08:09:30Z</time>
      </trkpt>
      <trkpt lat="44.27401" lon="5.65732">
        <ele>1238</ele>
        <time>2018-07-17T08:09:32Z</time>
      </trkpt>
      <trkpt lat="44.27402" lon="5.65734">
        <ele>1238</ele>
        <time>2018-07-17T08:09:39Z</time>
      </trkpt>
      <trkpt lat="44.27401" lon="5.65733">
        <ele>1238</ele>
        <time>2018-07-17T08:09:48Z</time>
      </trkpt>
      <trkpt lat="44.27399" lon="5.65733">
        <ele>1238</ele>
        <time>2018-07-17T08:09:51Z</time>
      </trkpt>
      <trkpt lat="44.27398" lon="5.65733">
        <ele>1238</ele>
        <time>2018-07-17T08:09:54Z</time>
      </trkpt>
      <trkpt lat="44.27399" lon="5.65733">
        <ele>1238</ele>
        <time>2018-07-17T08:09:58Z</time>
      </trkpt>
      <trkpt lat="44.27401" lon="5.65734">
        <ele>1238</ele>
        <time>2018-07-17T08:10:00Z</time>
      </trkpt>
      <trkpt lat="44.27403" lon="5.65735">
        <ele>1238</ele>
        <time>2018-07-17T08:10:02Z</time>
      </trkpt>
      <trkpt lat="44.27405" lon="5.65736">
        <ele>1238</ele>
        <time>2018-07-17T08:10:04Z</time>
      </trkpt>
      <trkpt lat="44.27406" lon="5.65737">
        <ele>1238</ele>
        <time>2018-07-17T08:10:06Z</time>
      </trkpt>
      <trkpt lat="44.27408" lon="5.65739">
        <ele>1238</ele>
        <time>2018-07-17T08:10:08Z</time>
      </trkpt>
      <trkpt lat="44.27409" lon="5.6574">
        <ele>1238</ele>
        <time>2018-07-17T08:10:10Z</time>
      </trkpt>
      <trkpt lat="44.2741" lon="5.65742">
        <ele>1238</ele>
        <time>2018-07-17T08:10:12Z</time>
      </trkpt>
      <trkpt lat="44.27411" lon="5.65744">
        <ele>1238</ele>
        <time>2018-07-17T08:10:14Z</time>
      </trkpt>
      <trkpt lat="44.27412" lon="5.65745">
        <ele>1237</ele>
        <time>2018-07-17T08:10:16Z</time>
      </trkpt>
      <trkpt lat="44.27414" lon="5.65747">
        <ele>1236</ele>
        <time>2018-07-17T08:10:18Z</time>
      </trkpt>
      <trkpt lat="44.27415" lon="5.65749">
        <ele>1234</ele>
        <time>2018-07-17T08:10:21Z</time>
      </trkpt>
      <trkpt lat="44.27416" lon="5.6575">
        <ele>1233</ele>
        <time>2018-07-17T08:10:23Z</time>
      </trkpt>
      <trkpt lat="44.27417" lon="5.65752">
        <ele>1233</ele>
        <time>2018-07-17T08:10:25Z</time>
      </trkpt>
      <trkpt lat="44.27418" lon="5.65753">
        <ele>1232</ele>
        <time>2018-07-17T08:10:27Z</time>
      </trkpt>
      <trkpt lat="44.2742" lon="5.65754">
        <ele>1232</ele>
        <time>2018-07-17T08:10:29Z</time>
      </trkpt>
      <trkpt lat="44.27421" lon="5.65754">
        <ele>1231</ele>
        <time>2018-07-17T08:10:30Z</time>
      </trkpt>
      <trkpt lat="44.27423" lon="5.65755">
        <ele>1231</ele>
        <time>2018-07-17T08:10:32Z</time>
      </trkpt>
      <trkpt lat="44.27425" lon="5.65756">
        <ele>1231</ele>
        <time>2018-07-17T08:10:34Z</time>
      </trkpt>
      <trkpt lat="44.27426" lon="5.65757">
        <ele>1231</ele>
        <time>2018-07-17T08:10:36Z</time>
      </trkpt>
      <trkpt lat="44.27428" lon="5.65758">
        <ele>1231</ele>
        <time>2018-07-17T08:10:38Z</time>
      </trkpt>
      <trkpt lat="44.27429" lon="5.65759">
        <ele>1230</ele>
        <time>2018-07-17T08:10:41Z</time>
      </trkpt>
      <trkpt lat="44.27431" lon="5.6576">
        <ele>1230</ele>
        <time>2018-07-17T08:10:43Z</time>
      </trkpt>
      <trkpt lat="44.27433" lon="5.6576">
        <ele>1230</ele>
        <time>2018-07-17T08:10:45Z</time>
      </trkpt>
      <trkpt lat="44.27434" lon="5.6576">
        <ele>1230</ele>
        <time>2018-07-17T08:10:46Z</time>
      </trkpt>
      <trkpt lat="44.27436" lon="5.65761">
        <ele>1230</ele>
        <time>2018-07-17T08:10:48Z</time>
      </trkpt>
      <trkpt lat="44.27438" lon="5.65759">
        <ele>1230</ele>
        <time>2018-07-17T08:10:50Z</time>
      </trkpt>
      <trkpt lat="44.2744" lon="5.65758">
        <ele>1230</ele>
        <time>2018-07-17T08:10:52Z</time>
      </trkpt>
      <trkpt lat="44.27441" lon="5.65756">
        <ele>1230</ele>
        <time>2018-07-17T08:10:54Z</time>
      </trkpt>
      <trkpt lat="44.27442" lon="5.65754">
        <ele>1230</ele>
        <time>2018-07-17T08:10:56Z</time>
      </trkpt>
      <trkpt lat="44.27443" lon="5.65754">
        <ele>1230</ele>
        <time>2018-07-17T08:11:00Z</time>
      </trkpt>
      <trkpt lat="44.27445" lon="5.65753">
        <ele>1230</ele>
        <time>2018-07-17T08:11:04Z</time>
      </trkpt>
      <trkpt lat="44.27446" lon="5.65752">
        <ele>1230</ele>
        <time>2018-07-17T08:11:16Z</time>
      </trkpt>
      <trkpt lat="44.27447" lon="5.65751">
        <ele>1231</ele>
        <time>2018-07-17T08:11:23Z</time>
      </trkpt>
      <trkpt lat="44.27449" lon="5.65751">
        <ele>1231</ele>
        <time>2018-07-17T08:11:30Z</time>
      </trkpt>
      <trkpt lat="44.2745" lon="5.65751">
        <ele>1231</ele>
        <time>2018-07-17T08:11:38Z</time>
      </trkpt>
      <trkpt lat="44.27449" lon="5.6575">
        <ele>1231</ele>
        <time>2018-07-17T08:12:13Z</time>
      </trkpt>
      <trkpt lat="44.27447" lon="5.6575">
        <ele>1231</ele>
        <time>2018-07-17T08:12:17Z</time>
      </trkpt>
      <trkpt lat="44.27448" lon="5.65749">
        <ele>1229</ele>
        <time>2018-07-17T08:12:27Z</time>
      </trkpt>
      <trkpt lat="44.27449" lon="5.65747">
        <ele>1228</ele>
        <time>2018-07-17T08:12:30Z</time>
      </trkpt>
      <trkpt lat="44.27451" lon="5.65745">
        <ele>1227</ele>
        <time>2018-07-17T08:12:33Z</time>
      </trkpt>
      <trkpt lat="44.27451" lon="5.65744">
        <ele>1227</ele>
        <time>2018-07-17T08:12:35Z</time>
      </trkpt>
      <trkpt lat="44.27452" lon="5.65742">
        <ele>1226</ele>
        <time>2018-07-17T08:12:37Z</time>
      </trkpt>
      <trkpt lat="44.27454" lon="5.65741">
        <ele>1226</ele>
        <time>2018-07-17T08:12:40Z</time>
      </trkpt>
      <trkpt lat="44.27452" lon="5.65741">
        <ele>1223</ele>
        <time>2018-07-17T08:12:51Z</time>
      </trkpt>
      <trkpt lat="44.27452" lon="5.65739">
        <ele>1223</ele>
        <time>2018-07-17T08:12:54Z</time>
      </trkpt>
      <trkpt lat="44.27454" lon="5.65738">
        <ele>1223</ele>
        <time>2018-07-17T08:12:57Z</time>
      </trkpt>
      <trkpt lat="44.27452" lon="5.65739">
        <ele>1225</ele>
        <time>2018-07-17T08:13:14Z</time>
      </trkpt>
      <trkpt lat="44.27454" lon="5.65738">
        <ele>1225</ele>
        <time>2018-07-17T08:13:18Z</time>
      </trkpt>
      <trkpt lat="44.27455" lon="5.65737">
        <ele>1225</ele>
        <time>2018-07-17T08:13:20Z</time>
      </trkpt>
      <trkpt lat="44.27456" lon="5.65735">
        <ele>1225</ele>
        <time>2018-07-17T08:13:22Z</time>
      </trkpt>
      <trkpt lat="44.27457" lon="5.65733">
        <ele>1227</ele>
        <time>2018-07-17T08:13:24Z</time>
      </trkpt>
      <trkpt lat="44.27457" lon="5.65731">
        <ele>1229</ele>
        <time>2018-07-17T08:13:26Z</time>
      </trkpt>
      <trkpt lat="44.27459" lon="5.65731">
        <ele>1232</ele>
        <time>2018-07-17T08:13:29Z</time>
      </trkpt>
      <trkpt lat="44.2746" lon="5.65732">
        <ele>1237</ele>
        <time>2018-07-17T08:13:33Z</time>
      </trkpt>
      <trkpt lat="44.27459" lon="5.65734">
        <ele>1242</ele>
        <time>2018-07-17T08:13:43Z</time>
      </trkpt>
      <trkpt lat="44.27459" lon="5.65735">
        <ele>1240</ele>
        <time>2018-07-17T08:13:47Z</time>
      </trkpt>
      <trkpt lat="44.2746" lon="5.65735">
        <ele>1236</ele>
        <time>2018-07-17T08:13:56Z</time>
      </trkpt>
      <trkpt lat="44.27461" lon="5.65733">
        <ele>1235</ele>
        <time>2018-07-17T08:13:58Z</time>
      </trkpt>
      <trkpt lat="44.27461" lon="5.65732">
        <ele>1234</ele>
        <time>2018-07-17T08:14:00Z</time>
      </trkpt>
      <trkpt lat="44.27462" lon="5.65731">
        <ele>1232</ele>
        <time>2018-07-17T08:14:02Z</time>
      </trkpt>
      <trkpt lat="44.27464" lon="5.65729">
        <ele>1232</ele>
        <time>2018-07-17T08:14:04Z</time>
      </trkpt>
      <trkpt lat="44.27465" lon="5.65728">
        <ele>1232</ele>
        <time>2018-07-17T08:14:06Z</time>
      </trkpt>
      <trkpt lat="44.27466" lon="5.65726">
        <ele>1232</ele>
        <time>2018-07-17T08:14:10Z</time>
      </trkpt>
      <trkpt lat="44.27465" lon="5.65724">
        <ele>1232</ele>
        <time>2018-07-17T08:14:19Z</time>
      </trkpt>
      <trkpt lat="44.27467" lon="5.65722">
        <ele>1232</ele>
        <time>2018-07-17T08:14:21Z</time>
      </trkpt>
      <trkpt lat="44.27468" lon="5.6572">
        <ele>1232</ele>
        <time>2018-07-17T08:14:23Z</time>
      </trkpt>
      <trkpt lat="44.27469" lon="5.65719">
        <ele>1232</ele>
        <time>2018-07-17T08:14:25Z</time>
      </trkpt>
      <trkpt lat="44.27471" lon="5.65718">
        <ele>1232</ele>
        <time>2018-07-17T08:14:27Z</time>
      </trkpt>
      <trkpt lat="44.27472" lon="5.65717">
        <ele>1232</ele>
        <time>2018-07-17T08:14:29Z</time>
      </trkpt>
      <trkpt lat="44.27474" lon="5.65715">
        <ele>1232</ele>
        <time>2018-07-17T08:14:32Z</time>
      </trkpt>
      <trkpt lat="44.27475" lon="5.65714">
        <ele>1231</ele>
        <time>2018-07-17T08:14:34Z</time>
      </trkpt>
      <trkpt lat="44.27476" lon="5.65713">
        <ele>1230</ele>
        <time>2018-07-17T08:14:36Z</time>
      </trkpt>
      <trkpt lat="44.27478" lon="5.65713">
        <ele>1229</ele>
        <time>2018-07-17T08:14:39Z</time>
      </trkpt>
      <trkpt lat="44.27479" lon="5.65712">
        <ele>1229</ele>
        <time>2018-07-17T08:14:41Z</time>
      </trkpt>
      <trkpt lat="44.2748" lon="5.65711">
        <ele>1229</ele>
        <time>2018-07-17T08:14:43Z</time>
      </trkpt>
      <trkpt lat="44.27481" lon="5.65709">
        <ele>1229</ele>
        <time>2018-07-17T08:14:46Z</time>
      </trkpt>
      <trkpt lat="44.27482" lon="5.65708">
        <ele>1228</ele>
        <time>2018-07-17T08:14:47Z</time>
      </trkpt>
      <trkpt lat="44.27483" lon="5.65707">
        <ele>1228</ele>
        <time>2018-07-17T08:14:48Z</time>
      </trkpt>
      <trkpt lat="44.27485" lon="5.65706">
        <ele>1227</ele>
        <time>2018-07-17T08:14:50Z</time>
      </trkpt>
      <trkpt lat="44.27487" lon="5.65703">
        <ele>1226</ele>
        <time>2018-07-17T08:14:53Z</time>
      </trkpt>
      <trkpt lat="44.27488" lon="5.65702">
        <ele>1226</ele>
        <time>2018-07-17T08:14:54Z</time>
      </trkpt>
      <trkpt lat="44.27489" lon="5.65701">
        <ele>1226</ele>
        <time>2018-07-17T08:14:55Z</time>
      </trkpt>
      <trkpt lat="44.27491" lon="5.657">
        <ele>1225</ele>
        <time>2018-07-17T08:14:57Z</time>
      </trkpt>
      <trkpt lat="44.27493" lon="5.65701">
        <ele>1225</ele>
        <time>2018-07-17T08:14:59Z</time>
      </trkpt>
      <trkpt lat="44.27495" lon="5.65701">
        <ele>1225</ele>
        <time>2018-07-17T08:15:01Z</time>
      </trkpt>
      <trkpt lat="44.27496" lon="5.657">
        <ele>1225</ele>
        <time>2018-07-17T08:15:02Z</time>
      </trkpt>
      <trkpt lat="44.27498" lon="5.65699">
        <ele>1225</ele>
        <time>2018-07-17T08:15:04Z</time>
      </trkpt>
      <trkpt lat="44.275" lon="5.65698">
        <ele>1225</ele>
        <time>2018-07-17T08:15:07Z</time>
      </trkpt>
      <trkpt lat="44.27502" lon="5.65697">
        <ele>1225</ele>
        <time>2018-07-17T08:15:10Z</time>
      </trkpt>
      <trkpt lat="44.27504" lon="5.65697">
        <ele>1225</ele>
        <time>2018-07-17T08:15:12Z</time>
      </trkpt>
      <trkpt lat="44.27505" lon="5.65699">
        <ele>1225</ele>
        <time>2018-07-17T08:15:14Z</time>
      </trkpt>
      <trkpt lat="44.27507" lon="5.65699">
        <ele>1225</ele>
        <time>2018-07-17T08:15:16Z</time>
      </trkpt>
      <trkpt lat="44.27508" lon="5.65699">
        <ele>1225</ele>
        <time>2018-07-17T08:15:17Z</time>
      </trkpt>
      <trkpt lat="44.2751" lon="5.65699">
        <ele>1225</ele>
        <time>2018-07-17T08:15:19Z</time>
      </trkpt>
      <trkpt lat="44.27511" lon="5.657">
        <ele>1224</ele>
        <time>2018-07-17T08:15:23Z</time>
      </trkpt>
      <trkpt lat="44.27513" lon="5.657">
        <ele>1223</ele>
        <time>2018-07-17T08:15:25Z</time>
      </trkpt>
      <trkpt lat="44.27514" lon="5.657">
        <ele>1222</ele>
        <time>2018-07-17T08:15:27Z</time>
      </trkpt>
      <trkpt lat="44.27515" lon="5.657">
        <ele>1221</ele>
        <time>2018-07-17T08:15:29Z</time>
      </trkpt>
      <trkpt lat="44.27517" lon="5.65699">
        <ele>1220</ele>
        <time>2018-07-17T08:15:33Z</time>
      </trkpt>
      <trkpt lat="44.27518" lon="5.65699">
        <ele>1220</ele>
        <time>2018-07-17T08:15:35Z</time>
      </trkpt>
      <trkpt lat="44.2752" lon="5.65698">
        <ele>1219</ele>
        <time>2018-07-17T08:15:38Z</time>
      </trkpt>
      <trkpt lat="44.27521" lon="5.65699">
        <ele>1219</ele>
        <time>2018-07-17T08:15:39Z</time>
      </trkpt>
      <trkpt lat="44.27523" lon="5.65698">
        <ele>1219</ele>
        <time>2018-07-17T08:15:41Z</time>
      </trkpt>
      <trkpt lat="44.27524" lon="5.657">
        <ele>1218</ele>
        <time>2018-07-17T08:15:44Z</time>
      </trkpt>
      <trkpt lat="44.27526" lon="5.65701">
        <ele>1218</ele>
        <time>2018-07-17T08:15:49Z</time>
      </trkpt>
      <trkpt lat="44.27527" lon="5.65702">
        <ele>1218</ele>
        <time>2018-07-17T08:15:56Z</time>
      </trkpt>
      <trkpt lat="44.27528" lon="5.65702">
        <ele>1218</ele>
        <time>2018-07-17T08:15:57Z</time>
      </trkpt>
      <trkpt lat="44.2753" lon="5.65701">
        <ele>1218</ele>
        <time>2018-07-17T08:16:02Z</time>
      </trkpt>
      <trkpt lat="44.27531" lon="5.65699">
        <ele>1218</ele>
        <time>2018-07-17T08:16:05Z</time>
      </trkpt>
      <trkpt lat="44.2753" lon="5.65697">
        <ele>1218</ele>
        <time>2018-07-17T08:16:10Z</time>
      </trkpt>
      <trkpt lat="44.27529" lon="5.65699">
        <ele>1219</ele>
        <time>2018-07-17T08:16:15Z</time>
      </trkpt>
      <trkpt lat="44.27528" lon="5.65701">
        <ele>1219</ele>
        <time>2018-07-17T08:16:18Z</time>
      </trkpt>
      <trkpt lat="44.27528" lon="5.65702">
        <ele>1220</ele>
        <time>2018-07-17T08:16:22Z</time>
      </trkpt>
      <trkpt lat="44.27529" lon="5.65702">
        <ele>1220</ele>
        <time>2018-07-17T08:16:30Z</time>
      </trkpt>
      <trkpt lat="44.27528" lon="5.65701">
        <ele>1220</ele>
        <time>2018-07-17T08:16:58Z</time>
      </trkpt>
      <trkpt lat="44.27527" lon="5.65699">
        <ele>1218</ele>
        <time>2018-07-17T08:17:05Z</time>
      </trkpt>
      <trkpt lat="44.27526" lon="5.65698">
        <ele>1217</ele>
        <time>2018-07-17T08:17:09Z</time>
      </trkpt>
      <trkpt lat="44.27526" lon="5.657">
        <ele>1217</ele>
        <time>2018-07-17T08:17:22Z</time>
      </trkpt>
      <trkpt lat="44.27526" lon="5.65702">
        <ele>1217</ele>
        <time>2018-07-17T08:17:24Z</time>
      </trkpt>
      <trkpt lat="44.27527" lon="5.65701">
        <ele>1217</ele>
        <time>2018-07-17T08:17:40Z</time>
      </trkpt>
      <trkpt lat="44.27526" lon="5.657">
        <ele>1217</ele>
        <time>2018-07-17T08:18:03Z</time>
      </trkpt>
      <trkpt lat="44.27526" lon="5.65701">
        <ele>1217</ele>
        <time>2018-07-17T08:18:07Z</time>
      </trkpt>
      <trkpt lat="44.27527" lon="5.65702">
        <ele>1217</ele>
        <time>2018-07-17T08:18:12Z</time>
      </trkpt>
      <trkpt lat="44.27528" lon="5.65701">
        <ele>1217</ele>
        <time>2018-07-17T08:18:23Z</time>
      </trkpt>
      <trkpt lat="44.27527" lon="5.657">
        <ele>1218</ele>
        <time>2018-07-17T08:18:29Z</time>
      </trkpt>
      <trkpt lat="44.27528" lon="5.657">
        <ele>1219</ele>
        <time>2018-07-17T08:18:35Z</time>
      </trkpt>
      <trkpt lat="44.27527" lon="5.657">
        <ele>1219</ele>
        <time>2018-07-17T08:18:41Z</time>
      </trkpt>
      <trkpt lat="44.27525" lon="5.657">
        <ele>1219</ele>
        <time>2018-07-17T08:18:44Z</time>
      </trkpt>
      <trkpt lat="44.27524" lon="5.657">
        <ele>1219</ele>
        <time>2018-07-17T08:18:48Z</time>
      </trkpt>
      <trkpt lat="44.27526" lon="5.657">
        <ele>1219</ele>
        <time>2018-07-17T08:18:58Z</time>
      </trkpt>
      <trkpt lat="44.27527" lon="5.657">
        <ele>1219</ele>
        <time>2018-07-17T08:19:01Z</time>
      </trkpt>
      <trkpt lat="44.27528" lon="5.657">
        <ele>1221</ele>
        <time>2018-07-17T08:19:03Z</time>
      </trkpt>
      <trkpt lat="44.2753" lon="5.65699">
        <ele>1225</ele>
        <time>2018-07-17T08:19:07Z</time>
      </trkpt>
      <trkpt lat="44.27531" lon="5.65701">
        <ele>1227</ele>
        <time>2018-07-17T08:19:09Z</time>
      </trkpt>
      <trkpt lat="44.27532" lon="5.65701">
        <ele>1229</ele>
        <time>2018-07-17T08:19:17Z</time>
      </trkpt>
      <trkpt lat="44.27531" lon="5.65703">
        <ele>1229</ele>
        <time>2018-07-17T08:19:23Z</time>
      </trkpt>
      <trkpt lat="44.27529" lon="5.65704">
        <ele>1227</ele>
        <time>2018-07-17T08:19:33Z</time>
      </trkpt>
      <trkpt lat="44.27528" lon="5.65702">
        <ele>1223</ele>
        <time>2018-07-17T08:19:46Z</time>
      </trkpt>
      <trkpt lat="44.2753" lon="5.65704">
        <ele>1220</ele>
        <time>2018-07-17T08:19:52Z</time>
      </trkpt>
      <trkpt lat="44.27528" lon="5.65704">
        <ele>1219</ele>
        <time>2018-07-17T08:19:56Z</time>
      </trkpt>
      <trkpt lat="44.27527" lon="5.65703">
        <ele>1217</ele>
        <time>2018-07-17T08:20:00Z</time>
      </trkpt>
      <trkpt lat="44.27526" lon="5.65703">
        <ele>1214</ele>
        <time>2018-07-17T08:20:07Z</time>
      </trkpt>
      <trkpt lat="44.27525" lon="5.65701">
        <ele>1212</ele>
        <time>2018-07-17T08:20:11Z</time>
      </trkpt>
      <trkpt lat="44.27526" lon="5.65702">
        <ele>1211</ele>
        <time>2018-07-17T08:20:14Z</time>
      </trkpt>
      <trkpt lat="44.27529" lon="5.65701">
        <ele>1211</ele>
        <time>2018-07-17T08:20:17Z</time>
      </trkpt>
      <trkpt lat="44.27528" lon="5.65701">
        <ele>1216</ele>
        <time>2018-07-17T08:20:26Z</time>
      </trkpt>
      <trkpt lat="44.27526" lon="5.657">
        <ele>1220</ele>
        <time>2018-07-17T08:20:30Z</time>
      </trkpt>
      <trkpt lat="44.27525" lon="5.65701">
        <ele>1222</ele>
        <time>2018-07-17T08:20:34Z</time>
      </trkpt>
      <trkpt lat="44.27526" lon="5.65702">
        <ele>1222</ele>
        <time>2018-07-17T08:20:40Z</time>
      </trkpt>
      <trkpt lat="44.27528" lon="5.65702">
        <ele>1222</ele>
        <time>2018-07-17T08:20:46Z</time>
      </trkpt>
      <trkpt lat="44.27529" lon="5.65703">
        <ele>1223</ele>
        <time>2018-07-17T08:20:50Z</time>
      </trkpt>
      <trkpt lat="44.27527" lon="5.65704">
        <ele>1224</ele>
        <time>2018-07-17T08:21:07Z</time>
      </trkpt>
      <trkpt lat="44.27528" lon="5.65702">
        <ele>1224</ele>
        <time>2018-07-17T08:21:12Z</time>
      </trkpt>
      <trkpt lat="44.27529" lon="5.65701">
        <ele>1224</ele>
        <time>2018-07-17T08:21:14Z</time>
      </trkpt>
      <trkpt lat="44.27529" lon="5.65699">
        <ele>1224</ele>
        <time>2018-07-17T08:21:17Z</time>
      </trkpt>
      <trkpt lat="44.27528" lon="5.65699">
        <ele>1224</ele>
        <time>2018-07-17T08:21:25Z</time>
      </trkpt>
      <trkpt lat="44.27526" lon="5.657">
        <ele>1224</ele>
        <time>2018-07-17T08:21:27Z</time>
      </trkpt>
      <trkpt lat="44.27526" lon="5.65701">
        <ele>1224</ele>
        <time>2018-07-17T08:21:29Z</time>
      </trkpt>
      <trkpt lat="44.27525" lon="5.65702">
        <ele>1223</ele>
        <time>2018-07-17T08:21:31Z</time>
      </trkpt>
      <trkpt lat="44.27524" lon="5.65701">
        <ele>1222</ele>
        <time>2018-07-17T08:21:33Z</time>
      </trkpt>
      <trkpt lat="44.27525" lon="5.65703">
        <ele>1222</ele>
        <time>2018-07-17T08:21:40Z</time>
      </trkpt>
      <trkpt lat="44.27526" lon="5.65701">
        <ele>1222</ele>
        <time>2018-07-17T08:21:43Z</time>
      </trkpt>
      <trkpt lat="44.27527" lon="5.657">
        <ele>1222</ele>
        <time>2018-07-17T08:21:46Z</time>
      </trkpt>
      <trkpt lat="44.27528" lon="5.657">
        <ele>1222</ele>
        <time>2018-07-17T08:21:48Z</time>
      </trkpt>
      <trkpt lat="44.2753" lon="5.657">
        <ele>1222</ele>
        <time>2018-07-17T08:21:53Z</time>
      </trkpt>
      <trkpt lat="44.27528" lon="5.65701">
        <ele>1222</ele>
        <time>2018-07-17T08:22:05Z</time>
      </trkpt>
      <trkpt lat="44.27525" lon="5.65702">
        <ele>1222</ele>
        <time>2018-07-17T08:22:07Z</time>
      </trkpt>
      <trkpt lat="44.27527" lon="5.65702">
        <ele>1221</ele>
        <time>2018-07-17T08:22:11Z</time>
      </trkpt>
      <trkpt lat="44.27528" lon="5.65703">
        <ele>1221</ele>
        <time>2018-07-17T08:22:16Z</time>
      </trkpt>
      <trkpt lat="44.2753" lon="5.65705">
        <ele>1221</ele>
        <time>2018-07-17T08:22:19Z</time>
      </trkpt>
      <trkpt lat="44.27528" lon="5.65706">
        <ele>1221</ele>
        <time>2018-07-17T08:22:23Z</time>
      </trkpt>
      <trkpt lat="44.27526" lon="5.65706">
        <ele>1221</ele>
        <time>2018-07-17T08:22:24Z</time>
      </trkpt>
      <trkpt lat="44.27525" lon="5.65706">
        <ele>1223</ele>
        <time>2018-07-17T08:22:26Z</time>
      </trkpt>
      <trkpt lat="44.27524" lon="5.65707">
        <ele>1225</ele>
        <time>2018-07-17T08:22:29Z</time>
      </trkpt>
      <trkpt lat="44.27525" lon="5.65706">
        <ele>1226</ele>
        <time>2018-07-17T08:22:31Z</time>
      </trkpt>
      <trkpt lat="44.27526" lon="5.65706">
        <ele>1228</ele>
        <time>2018-07-17T08:22:38Z</time>
      </trkpt>
      <trkpt lat="44.27528" lon="5.65707">
        <ele>1228</ele>
        <time>2018-07-17T08:22:39Z</time>
      </trkpt>
      <trkpt lat="44.2753" lon="5.65707">
        <ele>1229</ele>
        <time>2018-07-17T08:22:41Z</time>
      </trkpt>
      <trkpt lat="44.27531" lon="5.65707">
        <ele>1229</ele>
        <time>2018-07-17T08:22:42Z</time>
      </trkpt>
      <trkpt lat="44.27533" lon="5.65706">
        <ele>1229</ele>
        <time>2018-07-17T08:22:49Z</time>
      </trkpt>
      <trkpt lat="44.27534" lon="5.65708">
        <ele>1227</ele>
        <time>2018-07-17T08:22:57Z</time>
      </trkpt>
      <trkpt lat="44.27534" lon="5.6571">
        <ele>1224</ele>
        <time>2018-07-17T08:23:02Z</time>
      </trkpt>
      <trkpt lat="44.27532" lon="5.65713">
        <ele>1224</ele>
        <time>2018-07-17T08:23:05Z</time>
      </trkpt>
      <trkpt lat="44.27531" lon="5.65715">
        <ele>1224</ele>
        <time>2018-07-17T08:23:07Z</time>
      </trkpt>
      <trkpt lat="44.27529" lon="5.65717">
        <ele>1223</ele>
        <time>2018-07-17T08:23:09Z</time>
      </trkpt>
      <trkpt lat="44.27527" lon="5.65717">
        <ele>1223</ele>
        <time>2018-07-17T08:23:11Z</time>
      </trkpt>
      <trkpt lat="44.27525" lon="5.65719">
        <ele>1222</ele>
        <time>2018-07-17T08:23:13Z</time>
      </trkpt>
      <trkpt lat="44.27524" lon="5.65719">
        <ele>1222</ele>
        <time>2018-07-17T08:23:15Z</time>
      </trkpt>
      <trkpt lat="44.27523" lon="5.65719">
        <ele>1222</ele>
        <time>2018-07-17T08:23:16Z</time>
      </trkpt>
      <trkpt lat="44.27522" lon="5.6572">
        <ele>1222</ele>
        <time>2018-07-17T08:23:18Z</time>
      </trkpt>
      <trkpt lat="44.2752" lon="5.65719">
        <ele>1222</ele>
        <time>2018-07-17T08:23:19Z</time>
      </trkpt>
      <trkpt lat="44.27518" lon="5.65719">
        <ele>1222</ele>
        <time>2018-07-17T08:23:21Z</time>
      </trkpt>
      <trkpt lat="44.27517" lon="5.65719">
        <ele>1222</ele>
        <time>2018-07-17T08:23:22Z</time>
      </trkpt>
      <trkpt lat="44.27515" lon="5.65719">
        <ele>1222</ele>
        <time>2018-07-17T08:23:23Z</time>
      </trkpt>
      <trkpt lat="44.27513" lon="5.6572">
        <ele>1222</ele>
        <time>2018-07-17T08:23:25Z</time>
      </trkpt>
      <trkpt lat="44.27512" lon="5.6572">
        <ele>1222</ele>
        <time>2018-07-17T08:23:27Z</time>
      </trkpt>
      <trkpt lat="44.2751" lon="5.65721">
        <ele>1222</ele>
        <time>2018-07-17T08:23:29Z</time>
      </trkpt>
      <trkpt lat="44.27508" lon="5.65723">
        <ele>1222</ele>
        <time>2018-07-17T08:23:31Z</time>
      </trkpt>
      <trkpt lat="44.27507" lon="5.65724">
        <ele>1222</ele>
        <time>2018-07-17T08:23:33Z</time>
      </trkpt>
      <trkpt lat="44.27505" lon="5.65726">
        <ele>1222</ele>
        <time>2018-07-17T08:23:35Z</time>
      </trkpt>
      <trkpt lat="44.27504" lon="5.65728">
        <ele>1222</ele>
        <time>2018-07-17T08:23:37Z</time>
      </trkpt>
      <trkpt lat="44.27503" lon="5.65729">
        <ele>1222</ele>
        <time>2018-07-17T08:23:39Z</time>
      </trkpt>
      <trkpt lat="44.27502" lon="5.6573">
        <ele>1222</ele>
        <time>2018-07-17T08:23:41Z</time>
      </trkpt>
      <trkpt lat="44.275" lon="5.65733">
        <ele>1222</ele>
        <time>2018-07-17T08:23:43Z</time>
      </trkpt>
      <trkpt lat="44.27499" lon="5.65735">
        <ele>1222</ele>
        <time>2018-07-17T08:23:45Z</time>
      </trkpt>
      <trkpt lat="44.27499" lon="5.65737">
        <ele>1222</ele>
        <time>2018-07-17T08:23:46Z</time>
      </trkpt>
      <trkpt lat="44.27499" lon="5.65739">
        <ele>1222</ele>
        <time>2018-07-17T08:23:48Z</time>
      </trkpt>
      <trkpt lat="44.27499" lon="5.65741">
        <ele>1222</ele>
        <time>2018-07-17T08:23:50Z</time>
      </trkpt>
      <trkpt lat="44.27499" lon="5.65744">
        <ele>1222</ele>
        <time>2018-07-17T08:23:52Z</time>
      </trkpt>
      <trkpt lat="44.27499" lon="5.65745">
        <ele>1222</ele>
        <time>2018-07-17T08:23:53Z</time>
      </trkpt>
      <trkpt lat="44.27499" lon="5.65747">
        <ele>1222</ele>
        <time>2018-07-17T08:23:54Z</time>
      </trkpt>
      <trkpt lat="44.27499" lon="5.65749">
        <ele>1222</ele>
        <time>2018-07-17T08:23:56Z</time>
      </trkpt>
      <trkpt lat="44.27498" lon="5.65751">
        <ele>1222</ele>
        <time>2018-07-17T08:23:57Z</time>
      </trkpt>
      <trkpt lat="44.27498" lon="5.65753">
        <ele>1222</ele>
        <time>2018-07-17T08:23:59Z</time>
      </trkpt>
      <trkpt lat="44.27497" lon="5.65755">
        <ele>1222</ele>
        <time>2018-07-17T08:24:01Z</time>
      </trkpt>
      <trkpt lat="44.27496" lon="5.65757">
        <ele>1222</ele>
        <time>2018-07-17T08:24:03Z</time>
      </trkpt>
      <trkpt lat="44.27494" lon="5.65758">
        <ele>1222</ele>
        <time>2018-07-17T08:24:05Z</time>
      </trkpt>
      <trkpt lat="44.27493" lon="5.6576">
        <ele>1222</ele>
        <time>2018-07-17T08:24:07Z</time>
      </trkpt>
      <trkpt lat="44.27491" lon="5.65762">
        <ele>1222</ele>
        <time>2018-07-17T08:24:10Z</time>
      </trkpt>
      <trkpt lat="44.27493" lon="5.65761">
        <ele>1222</ele>
        <time>2018-07-17T08:24:13Z</time>
      </trkpt>
      <trkpt lat="44.27494" lon="5.65762">
        <ele>1222</ele>
        <time>2018-07-17T08:24:16Z</time>
      </trkpt>
      <trkpt lat="44.27494" lon="5.65764">
        <ele>1222</ele>
        <time>2018-07-17T08:24:18Z</time>
      </trkpt>
      <trkpt lat="44.27494" lon="5.65765">
        <ele>1222</ele>
        <time>2018-07-17T08:24:20Z</time>
      </trkpt>
      <trkpt lat="44.27493" lon="5.65765">
        <ele>1223</ele>
        <time>2018-07-17T08:24:23Z</time>
      </trkpt>
      <trkpt lat="44.27492" lon="5.65767">
        <ele>1223</ele>
        <time>2018-07-17T08:24:28Z</time>
      </trkpt>
      <trkpt lat="44.27491" lon="5.65769">
        <ele>1223</ele>
        <time>2018-07-17T08:24:30Z</time>
      </trkpt>
      <trkpt lat="44.27489" lon="5.65771">
        <ele>1223</ele>
        <time>2018-07-17T08:24:32Z</time>
      </trkpt>
      <trkpt lat="44.27489" lon="5.65773">
        <ele>1223</ele>
        <time>2018-07-17T08:24:33Z</time>
      </trkpt>
      <trkpt lat="44.27487" lon="5.65774">
        <ele>1223</ele>
        <time>2018-07-17T08:24:35Z</time>
      </trkpt>
      <trkpt lat="44.27486" lon="5.65776">
        <ele>1223</ele>
        <time>2018-07-17T08:24:37Z</time>
      </trkpt>
      <trkpt lat="44.27486" lon="5.65777">
        <ele>1223</ele>
        <time>2018-07-17T08:24:38Z</time>
      </trkpt>
      <trkpt lat="44.27485" lon="5.65779">
        <ele>1223</ele>
        <time>2018-07-17T08:24:40Z</time>
      </trkpt>
      <trkpt lat="44.27485" lon="5.65781">
        <ele>1223</ele>
        <time>2018-07-17T08:24:41Z</time>
      </trkpt>
      <trkpt lat="44.27484" lon="5.65782">
        <ele>1223</ele>
        <time>2018-07-17T08:24:42Z</time>
      </trkpt>
      <trkpt lat="44.27483" lon="5.65784">
        <ele>1221</ele>
        <time>2018-07-17T08:24:44Z</time>
      </trkpt>
      <trkpt lat="44.27483" lon="5.65786">
        <ele>1221</ele>
        <time>2018-07-17T08:24:45Z</time>
      </trkpt>
      <trkpt lat="44.27483" lon="5.65788">
        <ele>1220</ele>
        <time>2018-07-17T08:24:47Z</time>
      </trkpt>
      <trkpt lat="44.27483" lon="5.65791">
        <ele>1219</ele>
        <time>2018-07-17T08:24:49Z</time>
      </trkpt>
      <trkpt lat="44.27483" lon="5.65793">
        <ele>1218</ele>
        <time>2018-07-17T08:24:51Z</time>
      </trkpt>
      <trkpt lat="44.27483" lon="5.65795">
        <ele>1218</ele>
        <time>2018-07-17T08:24:52Z</time>
      </trkpt>
      <trkpt lat="44.27483" lon="5.65796">
        <ele>1218</ele>
        <time>2018-07-17T08:24:53Z</time>
      </trkpt>
      <trkpt lat="44.27483" lon="5.65799">
        <ele>1218</ele>
        <time>2018-07-17T08:24:55Z</time>
      </trkpt>
      <trkpt lat="44.27484" lon="5.65801">
        <ele>1218</ele>
        <time>2018-07-17T08:24:57Z</time>
      </trkpt>
      <trkpt lat="44.27484" lon="5.65803">
        <ele>1217</ele>
        <time>2018-07-17T08:24:59Z</time>
      </trkpt>
      <trkpt lat="44.27485" lon="5.65806">
        <ele>1216</ele>
        <time>2018-07-17T08:25:01Z</time>
      </trkpt>
      <trkpt lat="44.27485" lon="5.65808">
        <ele>1216</ele>
        <time>2018-07-17T08:25:03Z</time>
      </trkpt>
      <trkpt lat="44.27485" lon="5.65809">
        <ele>1215</ele>
        <time>2018-07-17T08:25:04Z</time>
      </trkpt>
      <trkpt lat="44.27485" lon="5.65811">
        <ele>1215</ele>
        <time>2018-07-17T08:25:06Z</time>
      </trkpt>
      <trkpt lat="44.27485" lon="5.65814">
        <ele>1214</ele>
        <time>2018-07-17T08:25:08Z</time>
      </trkpt>
      <trkpt lat="44.27485" lon="5.65816">
        <ele>1213</ele>
        <time>2018-07-17T08:25:10Z</time>
      </trkpt>
      <trkpt lat="44.27485" lon="5.65819">
        <ele>1212</ele>
        <time>2018-07-17T08:25:12Z</time>
      </trkpt>
      <trkpt lat="44.27485" lon="5.65821">
        <ele>1211</ele>
        <time>2018-07-17T08:25:14Z</time>
      </trkpt>
      <trkpt lat="44.27484" lon="5.65823">
        <ele>1211</ele>
        <time>2018-07-17T08:25:15Z</time>
      </trkpt>
      <trkpt lat="44.27484" lon="5.65825">
        <ele>1210</ele>
        <time>2018-07-17T08:25:17Z</time>
      </trkpt>
      <trkpt lat="44.27483" lon="5.65827">
        <ele>1209</ele>
        <time>2018-07-17T08:25:19Z</time>
      </trkpt>
      <trkpt lat="44.27483" lon="5.65829">
        <ele>1209</ele>
        <time>2018-07-17T08:25:21Z</time>
      </trkpt>
      <trkpt lat="44.27482" lon="5.65831">
        <ele>1208</ele>
        <time>2018-07-17T08:25:23Z</time>
      </trkpt>
      <trkpt lat="44.27482" lon="5.65833">
        <ele>1207</ele>
        <time>2018-07-17T08:25:24Z</time>
      </trkpt>
      <trkpt lat="44.27481" lon="5.65835">
        <ele>1207</ele>
        <time>2018-07-17T08:25:26Z</time>
      </trkpt>
      <trkpt lat="44.2748" lon="5.65837">
        <ele>1207</ele>
        <time>2018-07-17T08:25:28Z</time>
      </trkpt>
      <trkpt lat="44.27481" lon="5.65839">
        <ele>1207</ele>
        <time>2018-07-17T08:25:30Z</time>
      </trkpt>
      <trkpt lat="44.2748" lon="5.65841">
        <ele>1207</ele>
        <time>2018-07-17T08:25:32Z</time>
      </trkpt>
      <trkpt lat="44.27479" lon="5.65842">
        <ele>1207</ele>
        <time>2018-07-17T08:25:34Z</time>
      </trkpt>
      <trkpt lat="44.27478" lon="5.65844">
        <ele>1207</ele>
        <time>2018-07-17T08:25:37Z</time>
      </trkpt>
      <trkpt lat="44.27477" lon="5.65844">
        <ele>1207</ele>
        <time>2018-07-17T08:25:39Z</time>
      </trkpt>
      <trkpt lat="44.27475" lon="5.65844">
        <ele>1207</ele>
        <time>2018-07-17T08:25:41Z</time>
      </trkpt>
      <trkpt lat="44.27474" lon="5.65845">
        <ele>1207</ele>
        <time>2018-07-17T08:25:43Z</time>
      </trkpt>
      <trkpt lat="44.27472" lon="5.65845">
        <ele>1207</ele>
        <time>2018-07-17T08:25:45Z</time>
      </trkpt>
      <trkpt lat="44.27471" lon="5.65845">
        <ele>1207</ele>
        <time>2018-07-17T08:25:46Z</time>
      </trkpt>
      <trkpt lat="44.2747" lon="5.65845">
        <ele>1207</ele>
        <time>2018-07-17T08:25:47Z</time>
      </trkpt>
      <trkpt lat="44.27468" lon="5.65846">
        <ele>1206</ele>
        <time>2018-07-17T08:25:48Z</time>
      </trkpt>
      <trkpt lat="44.27467" lon="5.65846">
        <ele>1206</ele>
        <time>2018-07-17T08:25:49Z</time>
      </trkpt>
      <trkpt lat="44.27465" lon="5.65848">
        <ele>1206</ele>
        <time>2018-07-17T08:25:51Z</time>
      </trkpt>
      <trkpt lat="44.27464" lon="5.65848">
        <ele>1206</ele>
        <time>2018-07-17T08:25:53Z</time>
      </trkpt>
      <trkpt lat="44.27462" lon="5.65849">
        <ele>1206</ele>
        <time>2018-07-17T08:25:54Z</time>
      </trkpt>
      <trkpt lat="44.27461" lon="5.65849">
        <ele>1206</ele>
        <time>2018-07-17T08:25:56Z</time>
      </trkpt>
      <trkpt lat="44.27459" lon="5.65851">
        <ele>1206</ele>
        <time>2018-07-17T08:25:58Z</time>
      </trkpt>
      <trkpt lat="44.27458" lon="5.65853">
        <ele>1206</ele>
        <time>2018-07-17T08:26:00Z</time>
      </trkpt>
      <trkpt lat="44.27456" lon="5.65854">
        <ele>1206</ele>
        <time>2018-07-17T08:26:04Z</time>
      </trkpt>
      <trkpt lat="44.27454" lon="5.65856">
        <ele>1206</ele>
        <time>2018-07-17T08:26:06Z</time>
      </trkpt>
      <trkpt lat="44.27452" lon="5.65858">
        <ele>1206</ele>
        <time>2018-07-17T08:26:09Z</time>
      </trkpt>
      <trkpt lat="44.27451" lon="5.6586">
        <ele>1206</ele>
        <time>2018-07-17T08:26:13Z</time>
      </trkpt>
      <trkpt lat="44.27449" lon="5.65862">
        <ele>1206</ele>
        <time>2018-07-17T08:26:15Z</time>
      </trkpt>
      <trkpt lat="44.27448" lon="5.65864">
        <ele>1206</ele>
        <time>2018-07-17T08:26:17Z</time>
      </trkpt>
      <trkpt lat="44.27446" lon="5.65865">
        <ele>1206</ele>
        <time>2018-07-17T08:26:19Z</time>
      </trkpt>
      <trkpt lat="44.27445" lon="5.65867">
        <ele>1206</ele>
        <time>2018-07-17T08:26:21Z</time>
      </trkpt>
      <trkpt lat="44.27443" lon="5.65868">
        <ele>1206</ele>
        <time>2018-07-17T08:26:23Z</time>
      </trkpt>
      <trkpt lat="44.27441" lon="5.65868">
        <ele>1206</ele>
        <time>2018-07-17T08:26:25Z</time>
      </trkpt>
      <trkpt lat="44.2744" lon="5.65869">
        <ele>1206</ele>
        <time>2018-07-17T08:26:28Z</time>
      </trkpt>
      <trkpt lat="44.27439" lon="5.6587">
        <ele>1206</ele>
        <time>2018-07-17T08:26:30Z</time>
      </trkpt>
      <trkpt lat="44.27438" lon="5.65872">
        <ele>1205</ele>
        <time>2018-07-17T08:26:33Z</time>
      </trkpt>
      <trkpt lat="44.27437" lon="5.65874">
        <ele>1205</ele>
        <time>2018-07-17T08:26:35Z</time>
      </trkpt>
      <trkpt lat="44.27436" lon="5.65876">
        <ele>1205</ele>
        <time>2018-07-17T08:26:37Z</time>
      </trkpt>
      <trkpt lat="44.27435" lon="5.65878">
        <ele>1205</ele>
        <time>2018-07-17T08:26:39Z</time>
      </trkpt>
      <trkpt lat="44.27433" lon="5.6588">
        <ele>1205</ele>
        <time>2018-07-17T08:26:41Z</time>
      </trkpt>
      <trkpt lat="44.27433" lon="5.65882">
        <ele>1204</ele>
        <time>2018-07-17T08:26:43Z</time>
      </trkpt>
      <trkpt lat="44.27432" lon="5.65885">
        <ele>1204</ele>
        <time>2018-07-17T08:26:45Z</time>
      </trkpt>
      <trkpt lat="44.27432" lon="5.65886">
        <ele>1204</ele>
        <time>2018-07-17T08:26:46Z</time>
      </trkpt>
      <trkpt lat="44.27432" lon="5.65888">
        <ele>1204</ele>
        <time>2018-07-17T08:26:47Z</time>
      </trkpt>
      <trkpt lat="44.27431" lon="5.65891">
        <ele>1204</ele>
        <time>2018-07-17T08:26:49Z</time>
      </trkpt>
      <trkpt lat="44.27431" lon="5.65892">
        <ele>1204</ele>
        <time>2018-07-17T08:26:50Z</time>
      </trkpt>
      <trkpt lat="44.27432" lon="5.65894">
        <ele>1204</ele>
        <time>2018-07-17T08:26:52Z</time>
      </trkpt>
      <trkpt lat="44.27433" lon="5.65896">
        <ele>1204</ele>
        <time>2018-07-17T08:26:54Z</time>
      </trkpt>
      <trkpt lat="44.27433" lon="5.65898">
        <ele>1204</ele>
        <time>2018-07-17T08:26:56Z</time>
      </trkpt>
      <trkpt lat="44.27433" lon="5.659">
        <ele>1204</ele>
        <time>2018-07-17T08:26:58Z</time>
      </trkpt>
      <trkpt lat="44.27433" lon="5.65903">
        <ele>1204</ele>
        <time>2018-07-17T08:27:00Z</time>
      </trkpt>
      <trkpt lat="44.27433" lon="5.65904">
        <ele>1204</ele>
        <time>2018-07-17T08:27:02Z</time>
      </trkpt>
      <trkpt lat="44.27433" lon="5.65906">
        <ele>1204</ele>
        <time>2018-07-17T08:27:04Z</time>
      </trkpt>
      <trkpt lat="44.27432" lon="5.65907">
        <ele>1204</ele>
        <time>2018-07-17T08:27:06Z</time>
      </trkpt>
      <trkpt lat="44.27433" lon="5.65909">
        <ele>1204</ele>
        <time>2018-07-17T08:27:08Z</time>
      </trkpt>
      <trkpt lat="44.27432" lon="5.65911">
        <ele>1204</ele>
        <time>2018-07-17T08:27:10Z</time>
      </trkpt>
      <trkpt lat="44.27431" lon="5.65913">
        <ele>1204</ele>
        <time>2018-07-17T08:27:12Z</time>
      </trkpt>
      <trkpt lat="44.2743" lon="5.65915">
        <ele>1204</ele>
        <time>2018-07-17T08:27:14Z</time>
      </trkpt>
      <trkpt lat="44.2743" lon="5.65917">
        <ele>1204</ele>
        <time>2018-07-17T08:27:16Z</time>
      </trkpt>
      <trkpt lat="44.27429" lon="5.6592">
        <ele>1204</ele>
        <time>2018-07-17T08:27:18Z</time>
      </trkpt>
      <trkpt lat="44.27428" lon="5.65921">
        <ele>1204</ele>
        <time>2018-07-17T08:27:20Z</time>
      </trkpt>
      <trkpt lat="44.27428" lon="5.65924">
        <ele>1204</ele>
        <time>2018-07-17T08:27:22Z</time>
      </trkpt>
      <trkpt lat="44.27426" lon="5.65926">
        <ele>1204</ele>
        <time>2018-07-17T08:27:24Z</time>
      </trkpt>
      <trkpt lat="44.27425" lon="5.65928">
        <ele>1204</ele>
        <time>2018-07-17T08:27:27Z</time>
      </trkpt>
      <trkpt lat="44.27423" lon="5.65929">
        <ele>1203</ele>
        <time>2018-07-17T08:27:29Z</time>
      </trkpt>
      <trkpt lat="44.27422" lon="5.65931">
        <ele>1203</ele>
        <time>2018-07-17T08:27:31Z</time>
      </trkpt>
      <trkpt lat="44.27422" lon="5.65933">
        <ele>1203</ele>
        <time>2018-07-17T08:27:33Z</time>
      </trkpt>
      <trkpt lat="44.27421" lon="5.65934">
        <ele>1203</ele>
        <time>2018-07-17T08:27:35Z</time>
      </trkpt>
      <trkpt lat="44.2742" lon="5.65936">
        <ele>1203</ele>
        <time>2018-07-17T08:27:38Z</time>
      </trkpt>
      <trkpt lat="44.27419" lon="5.65938">
        <ele>1203</ele>
        <time>2018-07-17T08:27:40Z</time>
      </trkpt>
      <trkpt lat="44.27418" lon="5.6594">
        <ele>1203</ele>
        <time>2018-07-17T08:27:42Z</time>
      </trkpt>
      <trkpt lat="44.27417" lon="5.65941">
        <ele>1203</ele>
        <time>2018-07-17T08:27:44Z</time>
      </trkpt>
      <trkpt lat="44.27416" lon="5.65944">
        <ele>1203</ele>
        <time>2018-07-17T08:27:46Z</time>
      </trkpt>
      <trkpt lat="44.27415" lon="5.65945">
        <ele>1203</ele>
        <time>2018-07-17T08:27:48Z</time>
      </trkpt>
      <trkpt lat="44.27413" lon="5.65947">
        <ele>1203</ele>
        <time>2018-07-17T08:27:51Z</time>
      </trkpt>
      <trkpt lat="44.27412" lon="5.65949">
        <ele>1203</ele>
        <time>2018-07-17T08:27:53Z</time>
      </trkpt>
      <trkpt lat="44.27412" lon="5.65951">
        <ele>1203</ele>
        <time>2018-07-17T08:27:55Z</time>
      </trkpt>
      <trkpt lat="44.27412" lon="5.65952">
        <ele>1203</ele>
        <time>2018-07-17T08:27:58Z</time>
      </trkpt>
      <trkpt lat="44.27413" lon="5.65953">
        <ele>1203</ele>
        <time>2018-07-17T08:28:00Z</time>
      </trkpt>
      <trkpt lat="44.27411" lon="5.65954">
        <ele>1203</ele>
        <time>2018-07-17T08:28:04Z</time>
      </trkpt>
      <trkpt lat="44.2741" lon="5.65956">
        <ele>1203</ele>
        <time>2018-07-17T08:28:07Z</time>
      </trkpt>
      <trkpt lat="44.2741" lon="5.65959">
        <ele>1203</ele>
        <time>2018-07-17T08:28:10Z</time>
      </trkpt>
      <trkpt lat="44.27409" lon="5.65961">
        <ele>1203</ele>
        <time>2018-07-17T08:28:12Z</time>
      </trkpt>
      <trkpt lat="44.27408" lon="5.65963">
        <ele>1203</ele>
        <time>2018-07-17T08:28:14Z</time>
      </trkpt>
      <trkpt lat="44.27406" lon="5.65964">
        <ele>1203</ele>
        <time>2018-07-17T08:28:17Z</time>
      </trkpt>
      <trkpt lat="44.27405" lon="5.65966">
        <ele>1202</ele>
        <time>2018-07-17T08:28:19Z</time>
      </trkpt>
      <trkpt lat="44.27406" lon="5.65967">
        <ele>1201</ele>
        <time>2018-07-17T08:28:21Z</time>
      </trkpt>
      <trkpt lat="44.27404" lon="5.65969">
        <ele>1200</ele>
        <time>2018-07-17T08:28:23Z</time>
      </trkpt>
      <trkpt lat="44.27403" lon="5.6597">
        <ele>1198</ele>
        <time>2018-07-17T08:28:25Z</time>
      </trkpt>
      <trkpt lat="44.27402" lon="5.65972">
        <ele>1197</ele>
        <time>2018-07-17T08:28:27Z</time>
      </trkpt>
      <trkpt lat="44.27401" lon="5.65973">
        <ele>1196</ele>
        <time>2018-07-17T08:28:29Z</time>
      </trkpt>
      <trkpt lat="44.274" lon="5.65975">
        <ele>1194</ele>
        <time>2018-07-17T08:28:32Z</time>
      </trkpt>
      <trkpt lat="44.27399" lon="5.65977">
        <ele>1193</ele>
        <time>2018-07-17T08:28:34Z</time>
      </trkpt>
      <trkpt lat="44.27398" lon="5.65979">
        <ele>1192</ele>
        <time>2018-07-17T08:28:36Z</time>
      </trkpt>
      <trkpt lat="44.27398" lon="5.65981">
        <ele>1192</ele>
        <time>2018-07-17T08:28:38Z</time>
      </trkpt>
      <trkpt lat="44.27398" lon="5.65983">
        <ele>1192</ele>
        <time>2018-07-17T08:28:40Z</time>
      </trkpt>
      <trkpt lat="44.27398" lon="5.65985">
        <ele>1192</ele>
        <time>2018-07-17T08:28:42Z</time>
      </trkpt>
      <trkpt lat="44.27399" lon="5.65987">
        <ele>1192</ele>
        <time>2018-07-17T08:28:44Z</time>
      </trkpt>
      <trkpt lat="44.27399" lon="5.65989">
        <ele>1192</ele>
        <time>2018-07-17T08:28:46Z</time>
      </trkpt>
      <trkpt lat="44.27401" lon="5.65991">
        <ele>1192</ele>
        <time>2018-07-17T08:28:48Z</time>
      </trkpt>
      <trkpt lat="44.27402" lon="5.65992">
        <ele>1192</ele>
        <time>2018-07-17T08:28:49Z</time>
      </trkpt>
      <trkpt lat="44.27403" lon="5.65994">
        <ele>1192</ele>
        <time>2018-07-17T08:28:51Z</time>
      </trkpt>
      <trkpt lat="44.27405" lon="5.65995">
        <ele>1192</ele>
        <time>2018-07-17T08:28:53Z</time>
      </trkpt>
      <trkpt lat="44.27406" lon="5.65997">
        <ele>1193</ele>
        <time>2018-07-17T08:28:55Z</time>
      </trkpt>
      <trkpt lat="44.27407" lon="5.65999">
        <ele>1194</ele>
        <time>2018-07-17T08:28:57Z</time>
      </trkpt>
      <trkpt lat="44.27409" lon="5.66">
        <ele>1195</ele>
        <time>2018-07-17T08:28:58Z</time>
      </trkpt>
      <trkpt lat="44.27411" lon="5.66002">
        <ele>1197</ele>
        <time>2018-07-17T08:29:00Z</time>
      </trkpt>
      <trkpt lat="44.27412" lon="5.66003">
        <ele>1198</ele>
        <time>2018-07-17T08:29:01Z</time>
      </trkpt>
      <trkpt lat="44.27414" lon="5.66003">
        <ele>1199</ele>
        <time>2018-07-17T08:29:02Z</time>
      </trkpt>
      <trkpt lat="44.27415" lon="5.66004">
        <ele>1201</ele>
        <time>2018-07-17T08:29:04Z</time>
      </trkpt>
      <trkpt lat="44.27417" lon="5.66004">
        <ele>1203</ele>
        <time>2018-07-17T08:29:06Z</time>
      </trkpt>
      <trkpt lat="44.27415" lon="5.66005">
        <ele>1205</ele>
        <time>2018-07-17T08:29:10Z</time>
      </trkpt>
      <trkpt lat="44.27417" lon="5.66004">
        <ele>1205</ele>
        <time>2018-07-17T08:29:16Z</time>
      </trkpt>
      <trkpt lat="44.27417" lon="5.66005">
        <ele>1205</ele>
        <time>2018-07-17T08:29:20Z</time>
      </trkpt>
      <trkpt lat="44.27416" lon="5.66007">
        <ele>1204</ele>
        <time>2018-07-17T08:29:27Z</time>
      </trkpt>
      <trkpt lat="44.27416" lon="5.66009">
        <ele>1202</ele>
        <time>2018-07-17T08:29:30Z</time>
      </trkpt>
      <trkpt lat="44.27418" lon="5.6601">
        <ele>1198</ele>
        <time>2018-07-17T08:29:34Z</time>
      </trkpt>
      <trkpt lat="44.27419" lon="5.66012">
        <ele>1196</ele>
        <time>2018-07-17T08:29:37Z</time>
      </trkpt>
      <trkpt lat="44.27421" lon="5.66012">
        <ele>1195</ele>
        <time>2018-07-17T08:29:40Z</time>
      </trkpt>
      <trkpt lat="44.27422" lon="5.66014">
        <ele>1194</ele>
        <time>2018-07-17T08:29:43Z</time>
      </trkpt>
      <trkpt lat="44.27423" lon="5.66015">
        <ele>1193</ele>
        <time>2018-07-17T08:29:46Z</time>
      </trkpt>
      <trkpt lat="44.27423" lon="5.66017">
        <ele>1192</ele>
        <time>2018-07-17T08:29:49Z</time>
      </trkpt>
      <trkpt lat="44.27425" lon="5.66018">
        <ele>1190</ele>
        <time>2018-07-17T08:29:52Z</time>
      </trkpt>
      <trkpt lat="44.27426" lon="5.6602">
        <ele>1189</ele>
        <time>2018-07-17T08:29:55Z</time>
      </trkpt>
      <trkpt lat="44.27428" lon="5.6602">
        <ele>1189</ele>
        <time>2018-07-17T08:29:57Z</time>
      </trkpt>
      <trkpt lat="44.2743" lon="5.66021">
        <ele>1189</ele>
        <time>2018-07-17T08:29:59Z</time>
      </trkpt>
      <trkpt lat="44.27431" lon="5.66021">
        <ele>1189</ele>
        <time>2018-07-17T08:30:00Z</time>
      </trkpt>
      <trkpt lat="44.27433" lon="5.66022">
        <ele>1189</ele>
        <time>2018-07-17T08:30:02Z</time>
      </trkpt>
      <trkpt lat="44.27435" lon="5.66023">
        <ele>1189</ele>
        <time>2018-07-17T08:30:04Z</time>
      </trkpt>
      <trkpt lat="44.27437" lon="5.66024">
        <ele>1189</ele>
        <time>2018-07-17T08:30:08Z</time>
      </trkpt>
      <trkpt lat="44.27438" lon="5.66025">
        <ele>1189</ele>
        <time>2018-07-17T08:30:10Z</time>
      </trkpt>
      <trkpt lat="44.2744" lon="5.66025">
        <ele>1189</ele>
        <time>2018-07-17T08:30:12Z</time>
      </trkpt>
      <trkpt lat="44.27442" lon="5.66027">
        <ele>1189</ele>
        <time>2018-07-17T08:30:15Z</time>
      </trkpt>
      <trkpt lat="44.27443" lon="5.66028">
        <ele>1189</ele>
        <time>2018-07-17T08:30:17Z</time>
      </trkpt>
      <trkpt lat="44.27444" lon="5.6603">
        <ele>1189</ele>
        <time>2018-07-17T08:30:20Z</time>
      </trkpt>
      <trkpt lat="44.27446" lon="5.66031">
        <ele>1189</ele>
        <time>2018-07-17T08:30:22Z</time>
      </trkpt>
      <trkpt lat="44.27448" lon="5.66034">
        <ele>1189</ele>
        <time>2018-07-17T08:30:24Z</time>
      </trkpt>
      <trkpt lat="44.27448" lon="5.66035">
        <ele>1189</ele>
        <time>2018-07-17T08:30:28Z</time>
      </trkpt>
      <trkpt lat="44.27448" lon="5.66037">
        <ele>1189</ele>
        <time>2018-07-17T08:30:30Z</time>
      </trkpt>
      <trkpt lat="44.27447" lon="5.66037">
        <ele>1189</ele>
        <time>2018-07-17T08:30:35Z</time>
      </trkpt>
      <trkpt lat="44.27446" lon="5.66039">
        <ele>1189</ele>
        <time>2018-07-17T08:30:39Z</time>
      </trkpt>
      <trkpt lat="44.27447" lon="5.6604">
        <ele>1189</ele>
        <time>2018-07-17T08:30:42Z</time>
      </trkpt>
      <trkpt lat="44.27446" lon="5.6604">
        <ele>1189</ele>
        <time>2018-07-17T08:30:46Z</time>
      </trkpt>
      <trkpt lat="44.27445" lon="5.66042">
        <ele>1189</ele>
        <time>2018-07-17T08:30:49Z</time>
      </trkpt>
      <trkpt lat="44.27443" lon="5.66042">
        <ele>1187</ele>
        <time>2018-07-17T08:30:55Z</time>
      </trkpt>
      <trkpt lat="44.27443" lon="5.66043">
        <ele>1186</ele>
        <time>2018-07-17T08:30:57Z</time>
      </trkpt>
      <trkpt lat="44.27441" lon="5.66045">
        <ele>1185</ele>
        <time>2018-07-17T08:30:59Z</time>
      </trkpt>
      <trkpt lat="44.27441" lon="5.66047">
        <ele>1184</ele>
        <time>2018-07-17T08:31:02Z</time>
      </trkpt>
      <trkpt lat="44.27442" lon="5.66049">
        <ele>1184</ele>
        <time>2018-07-17T08:31:04Z</time>
      </trkpt>
      <trkpt lat="44.27442" lon="5.66051">
        <ele>1184</ele>
        <time>2018-07-17T08:31:09Z</time>
      </trkpt>
      <trkpt lat="44.27442" lon="5.66054">
        <ele>1184</ele>
        <time>2018-07-17T08:31:11Z</time>
      </trkpt>
      <trkpt lat="44.27442" lon="5.66055">
        <ele>1184</ele>
        <time>2018-07-17T08:31:13Z</time>
      </trkpt>
      <trkpt lat="44.27441" lon="5.66057">
        <ele>1184</ele>
        <time>2018-07-17T08:31:14Z</time>
      </trkpt>
      <trkpt lat="44.2744" lon="5.66058">
        <ele>1184</ele>
        <time>2018-07-17T08:31:16Z</time>
      </trkpt>
      <trkpt lat="44.27439" lon="5.66059">
        <ele>1184</ele>
        <time>2018-07-17T08:31:18Z</time>
      </trkpt>
      <trkpt lat="44.27437" lon="5.6606">
        <ele>1184</ele>
        <time>2018-07-17T08:31:20Z</time>
      </trkpt>
      <trkpt lat="44.27436" lon="5.66062">
        <ele>1184</ele>
        <time>2018-07-17T08:31:22Z</time>
      </trkpt>
      <trkpt lat="44.27436" lon="5.66064">
        <ele>1186</ele>
        <time>2018-07-17T08:31:24Z</time>
      </trkpt>
      <trkpt lat="44.27437" lon="5.66065">
        <ele>1186</ele>
        <time>2018-07-17T08:31:25Z</time>
      </trkpt>
      <trkpt lat="44.27437" lon="5.66068">
        <ele>1186</ele>
        <time>2018-07-17T08:31:28Z</time>
      </trkpt>
      <trkpt lat="44.27436" lon="5.6607">
        <ele>1186</ele>
        <time>2018-07-17T08:31:30Z</time>
      </trkpt>
      <trkpt lat="44.27436" lon="5.66072">
        <ele>1186</ele>
        <time>2018-07-17T08:31:31Z</time>
      </trkpt>
      <trkpt lat="44.27436" lon="5.66073">
        <ele>1186</ele>
        <time>2018-07-17T08:31:32Z</time>
      </trkpt>
      <trkpt lat="44.27435" lon="5.66075">
        <ele>1186</ele>
        <time>2018-07-17T08:31:34Z</time>
      </trkpt>
      <trkpt lat="44.27435" lon="5.66077">
        <ele>1187</ele>
        <time>2018-07-17T08:31:36Z</time>
      </trkpt>
      <trkpt lat="44.27435" lon="5.66079">
        <ele>1188</ele>
        <time>2018-07-17T08:31:38Z</time>
      </trkpt>
      <trkpt lat="44.27435" lon="5.66081">
        <ele>1188</ele>
        <time>2018-07-17T08:31:40Z</time>
      </trkpt>
      <trkpt lat="44.27436" lon="5.66083">
        <ele>1189</ele>
        <time>2018-07-17T08:31:42Z</time>
      </trkpt>
      <trkpt lat="44.27435" lon="5.66084">
        <ele>1189</ele>
        <time>2018-07-17T08:31:44Z</time>
      </trkpt>
      <trkpt lat="44.27433" lon="5.66086">
        <ele>1189</ele>
        <time>2018-07-17T08:31:47Z</time>
      </trkpt>
      <trkpt lat="44.27433" lon="5.66088">
        <ele>1189</ele>
        <time>2018-07-17T08:31:49Z</time>
      </trkpt>
      <trkpt lat="44.27431" lon="5.66091">
        <ele>1189</ele>
        <time>2018-07-17T08:31:51Z</time>
      </trkpt>
      <trkpt lat="44.2743" lon="5.66091">
        <ele>1189</ele>
        <time>2018-07-17T08:31:52Z</time>
      </trkpt>
      <trkpt lat="44.2743" lon="5.66093">
        <ele>1190</ele>
        <time>2018-07-17T08:31:54Z</time>
      </trkpt>
      <trkpt lat="44.27429" lon="5.66093">
        <ele>1192</ele>
        <time>2018-07-17T08:31:57Z</time>
      </trkpt>
      <trkpt lat="44.27428" lon="5.66095">
        <ele>1192</ele>
        <time>2018-07-17T08:32:03Z</time>
      </trkpt>
      <trkpt lat="44.27428" lon="5.66096">
        <ele>1192</ele>
        <time>2018-07-17T08:32:04Z</time>
      </trkpt>
      <trkpt lat="44.27427" lon="5.66098">
        <ele>1192</ele>
        <time>2018-07-17T08:32:06Z</time>
      </trkpt>
      <trkpt lat="44.27426" lon="5.66101">
        <ele>1192</ele>
        <time>2018-07-17T08:32:08Z</time>
      </trkpt>
      <trkpt lat="44.27425" lon="5.66103">
        <ele>1193</ele>
        <time>2018-07-17T08:32:10Z</time>
      </trkpt>
      <trkpt lat="44.27423" lon="5.66105">
        <ele>1193</ele>
        <time>2018-07-17T08:32:12Z</time>
      </trkpt>
      <trkpt lat="44.27423" lon="5.66108">
        <ele>1194</ele>
        <time>2018-07-17T08:32:14Z</time>
      </trkpt>
      <trkpt lat="44.27421" lon="5.6611">
        <ele>1194</ele>
        <time>2018-07-17T08:32:16Z</time>
      </trkpt>
      <trkpt lat="44.2742" lon="5.66111">
        <ele>1194</ele>
        <time>2018-07-17T08:32:18Z</time>
      </trkpt>
      <trkpt lat="44.27419" lon="5.66113">
        <ele>1194</ele>
        <time>2018-07-17T08:32:20Z</time>
      </trkpt>
      <trkpt lat="44.27417" lon="5.66114">
        <ele>1194</ele>
        <time>2018-07-17T08:32:22Z</time>
      </trkpt>
      <trkpt lat="44.27416" lon="5.66116">
        <ele>1194</ele>
        <time>2018-07-17T08:32:24Z</time>
      </trkpt>
      <trkpt lat="44.27415" lon="5.66116">
        <ele>1194</ele>
        <time>2018-07-17T08:32:30Z</time>
      </trkpt>
      <trkpt lat="44.27414" lon="5.66115">
        <ele>1194</ele>
        <time>2018-07-17T08:32:32Z</time>
      </trkpt>
      <trkpt lat="44.27412" lon="5.66113">
        <ele>1194</ele>
        <time>2018-07-17T08:32:35Z</time>
      </trkpt>
      <trkpt lat="44.27414" lon="5.66113">
        <ele>1194</ele>
        <time>2018-07-17T08:32:43Z</time>
      </trkpt>
      <trkpt lat="44.27415" lon="5.66114">
        <ele>1199</ele>
        <time>2018-07-17T08:32:51Z</time>
      </trkpt>
      <trkpt lat="44.27415" lon="5.66113">
        <ele>1199</ele>
        <time>2018-07-17T08:32:57Z</time>
      </trkpt>
      <trkpt lat="44.27415" lon="5.66111">
        <ele>1199</ele>
        <time>2018-07-17T08:33:02Z</time>
      </trkpt>
      <trkpt lat="44.27414" lon="5.66111">
        <ele>1201</ele>
        <time>2018-07-17T08:33:15Z</time>
      </trkpt>
      <trkpt lat="44.27415" lon="5.66113">
        <ele>1202</ele>
        <time>2018-07-17T08:33:21Z</time>
      </trkpt>
      <trkpt lat="44.27417" lon="5.66113">
        <ele>1205</ele>
        <time>2018-07-17T08:33:24Z</time>
      </trkpt>
      <trkpt lat="44.27418" lon="5.66114">
        <ele>1211</ele>
        <time>2018-07-17T08:33:31Z</time>
      </trkpt>
      <trkpt lat="44.27418" lon="5.66116">
        <ele>1211</ele>
        <time>2018-07-17T08:33:34Z</time>
      </trkpt>
      <trkpt lat="44.27417" lon="5.66116">
        <ele>1211</ele>
        <time>2018-07-17T08:33:39Z</time>
      </trkpt>
      <trkpt lat="44.27419" lon="5.66115">
        <ele>1210</ele>
        <time>2018-07-17T08:33:41Z</time>
      </trkpt>
      <trkpt lat="44.2742" lon="5.66114">
        <ele>1210</ele>
        <time>2018-07-17T08:33:43Z</time>
      </trkpt>
      <trkpt lat="44.27422" lon="5.66115">
        <ele>1210</ele>
        <time>2018-07-17T08:33:45Z</time>
      </trkpt>
      <trkpt lat="44.2742" lon="5.66113">
        <ele>1209</ele>
        <time>2018-07-17T08:33:51Z</time>
      </trkpt>
      <trkpt lat="44.27419" lon="5.66112">
        <ele>1208</ele>
        <time>2018-07-17T08:33:58Z</time>
      </trkpt>
      <trkpt lat="44.27417" lon="5.66112">
        <ele>1206</ele>
        <time>2018-07-17T08:34:02Z</time>
      </trkpt>
      <trkpt lat="44.27415" lon="5.6611">
        <ele>1204</ele>
        <time>2018-07-17T08:34:05Z</time>
      </trkpt>
      <trkpt lat="44.27414" lon="5.66109">
        <ele>1203</ele>
        <time>2018-07-17T08:34:06Z</time>
      </trkpt>
      <trkpt lat="44.27416" lon="5.6611">
        <ele>1202</ele>
        <time>2018-07-17T08:34:11Z</time>
      </trkpt>
      <trkpt lat="44.27417" lon="5.66109">
        <ele>1202</ele>
        <time>2018-07-17T08:34:16Z</time>
      </trkpt>
      <trkpt lat="44.27418" lon="5.66111">
        <ele>1202</ele>
        <time>2018-07-17T08:34:18Z</time>
      </trkpt>
      <trkpt lat="44.27417" lon="5.66112">
        <ele>1202</ele>
        <time>2018-07-17T08:34:22Z</time>
      </trkpt>
      <trkpt lat="44.27417" lon="5.66113">
        <ele>1202</ele>
        <time>2018-07-17T08:34:24Z</time>
      </trkpt>
      <trkpt lat="44.27417" lon="5.66116">
        <ele>1202</ele>
        <time>2018-07-17T08:34:26Z</time>
      </trkpt>
      <trkpt lat="44.27418" lon="5.66118">
        <ele>1202</ele>
        <time>2018-07-17T08:34:27Z</time>
      </trkpt>
      <trkpt lat="44.27417" lon="5.6612">
        <ele>1202</ele>
        <time>2018-07-17T08:34:28Z</time>
      </trkpt>
      <trkpt lat="44.27418" lon="5.66123">
        <ele>1201</ele>
        <time>2018-07-17T08:34:30Z</time>
      </trkpt>
      <trkpt lat="44.27417" lon="5.66125">
        <ele>1200</ele>
        <time>2018-07-17T08:34:32Z</time>
      </trkpt>
      <trkpt lat="44.27418" lon="5.66126">
        <ele>1199</ele>
        <time>2018-07-17T08:34:33Z</time>
      </trkpt>
      <trkpt lat="44.27417" lon="5.66128">
        <ele>1198</ele>
        <time>2018-07-17T08:34:34Z</time>
      </trkpt>
      <trkpt lat="44.27417" lon="5.66129">
        <ele>1198</ele>
        <time>2018-07-17T08:34:35Z</time>
      </trkpt>
      <trkpt lat="44.27417" lon="5.66132">
        <ele>1197</ele>
        <time>2018-07-17T08:34:37Z</time>
      </trkpt>
      <trkpt lat="44.27417" lon="5.66134">
        <ele>1197</ele>
        <time>2018-07-17T08:34:38Z</time>
      </trkpt>
      <trkpt lat="44.27416" lon="5.66136">
        <ele>1197</ele>
        <time>2018-07-17T08:34:40Z</time>
      </trkpt>
      <trkpt lat="44.27415" lon="5.66138">
        <ele>1197</ele>
        <time>2018-07-17T08:34:41Z</time>
      </trkpt>
      <trkpt lat="44.27415" lon="5.6614">
        <ele>1196</ele>
        <time>2018-07-17T08:34:43Z</time>
      </trkpt>
      <trkpt lat="44.27415" lon="5.66143">
        <ele>1196</ele>
        <time>2018-07-17T08:34:45Z</time>
      </trkpt>
      <trkpt lat="44.27414" lon="5.66145">
        <ele>1196</ele>
        <time>2018-07-17T08:34:47Z</time>
      </trkpt>
      <trkpt lat="44.27414" lon="5.66147">
        <ele>1196</ele>
        <time>2018-07-17T08:34:49Z</time>
      </trkpt>
      <trkpt lat="44.27414" lon="5.66149">
        <ele>1195</ele>
        <time>2018-07-17T08:34:51Z</time>
      </trkpt>
      <trkpt lat="44.27414" lon="5.6615">
        <ele>1194</ele>
        <time>2018-07-17T08:34:53Z</time>
      </trkpt>
      <trkpt lat="44.27412" lon="5.66148">
        <ele>1194</ele>
        <time>2018-07-17T08:34:56Z</time>
      </trkpt>
      <trkpt lat="44.27412" lon="5.66146">
        <ele>1194</ele>
        <time>2018-07-17T08:34:59Z</time>
      </trkpt>
      <trkpt lat="44.2741" lon="5.66145">
        <ele>1194</ele>
        <time>2018-07-17T08:35:02Z</time>
      </trkpt>
      <trkpt lat="44.2741" lon="5.66143">
        <ele>1194</ele>
        <time>2018-07-17T08:35:06Z</time>
      </trkpt>
      <trkpt lat="44.27411" lon="5.66145">
        <ele>1194</ele>
        <time>2018-07-17T08:35:08Z</time>
      </trkpt>
      <trkpt lat="44.27411" lon="5.66146">
        <ele>1194</ele>
        <time>2018-07-17T08:35:09Z</time>
      </trkpt>
      <trkpt lat="44.27411" lon="5.66148">
        <ele>1194</ele>
        <time>2018-07-17T08:35:10Z</time>
      </trkpt>
      <trkpt lat="44.27411" lon="5.6615">
        <ele>1194</ele>
        <time>2018-07-17T08:35:11Z</time>
      </trkpt>
      <trkpt lat="44.27411" lon="5.66151">
        <ele>1194</ele>
        <time>2018-07-17T08:35:12Z</time>
      </trkpt>
      <trkpt lat="44.27411" lon="5.66153">
        <ele>1194</ele>
        <time>2018-07-17T08:35:13Z</time>
      </trkpt>
      <trkpt lat="44.27411" lon="5.66155">
        <ele>1194</ele>
        <time>2018-07-17T08:35:15Z</time>
      </trkpt>
      <trkpt lat="44.27411" lon="5.66157">
        <ele>1194</ele>
        <time>2018-07-17T08:35:16Z</time>
      </trkpt>
      <trkpt lat="44.27412" lon="5.66159">
        <ele>1194</ele>
        <time>2018-07-17T08:35:18Z</time>
      </trkpt>
      <trkpt lat="44.27412" lon="5.66161">
        <ele>1194</ele>
        <time>2018-07-17T08:35:19Z</time>
      </trkpt>
      <trkpt lat="44.27412" lon="5.66162">
        <ele>1194</ele>
        <time>2018-07-17T08:35:20Z</time>
      </trkpt>
      <trkpt lat="44.27412" lon="5.66165">
        <ele>1194</ele>
        <time>2018-07-17T08:35:22Z</time>
      </trkpt>
      <trkpt lat="44.27411" lon="5.66167">
        <ele>1194</ele>
        <time>2018-07-17T08:35:24Z</time>
      </trkpt>
      <trkpt lat="44.27411" lon="5.66169">
        <ele>1194</ele>
        <time>2018-07-17T08:35:25Z</time>
      </trkpt>
      <trkpt lat="44.2741" lon="5.6617">
        <ele>1194</ele>
        <time>2018-07-17T08:35:26Z</time>
      </trkpt>
      <trkpt lat="44.2741" lon="5.66172">
        <ele>1194</ele>
        <time>2018-07-17T08:35:27Z</time>
      </trkpt>
      <trkpt lat="44.27411" lon="5.66173">
        <ele>1194</ele>
        <time>2018-07-17T08:35:28Z</time>
      </trkpt>
      <trkpt lat="44.27411" lon="5.66175">
        <ele>1194</ele>
        <time>2018-07-17T08:35:29Z</time>
      </trkpt>
      <trkpt lat="44.27411" lon="5.66176">
        <ele>1194</ele>
        <time>2018-07-17T08:35:30Z</time>
      </trkpt>
      <trkpt lat="44.27411" lon="5.66179">
        <ele>1194</ele>
        <time>2018-07-17T08:35:32Z</time>
      </trkpt>
      <trkpt lat="44.27411" lon="5.66181">
        <ele>1194</ele>
        <time>2018-07-17T08:35:34Z</time>
      </trkpt>
      <trkpt lat="44.27411" lon="5.66183">
        <ele>1194</ele>
        <time>2018-07-17T08:35:36Z</time>
      </trkpt>
      <trkpt lat="44.27411" lon="5.66185">
        <ele>1194</ele>
        <time>2018-07-17T08:35:38Z</time>
      </trkpt>
      <trkpt lat="44.2741" lon="5.66187">
        <ele>1194</ele>
        <time>2018-07-17T08:35:39Z</time>
      </trkpt>
      <trkpt lat="44.2741" lon="5.66189">
        <ele>1194</ele>
        <time>2018-07-17T08:35:41Z</time>
      </trkpt>
      <trkpt lat="44.2741" lon="5.66191">
        <ele>1194</ele>
        <time>2018-07-17T08:35:43Z</time>
      </trkpt>
      <trkpt lat="44.2741" lon="5.66194">
        <ele>1194</ele>
        <time>2018-07-17T08:35:45Z</time>
      </trkpt>
      <trkpt lat="44.27409" lon="5.66195">
        <ele>1194</ele>
        <time>2018-07-17T08:35:47Z</time>
      </trkpt>
      <trkpt lat="44.2741" lon="5.66197">
        <ele>1194</ele>
        <time>2018-07-17T08:35:49Z</time>
      </trkpt>
      <trkpt lat="44.27412" lon="5.66198">
        <ele>1194</ele>
        <time>2018-07-17T08:35:52Z</time>
      </trkpt>
      <trkpt lat="44.27413" lon="5.66199">
        <ele>1194</ele>
        <time>2018-07-17T08:35:54Z</time>
      </trkpt>
      <trkpt lat="44.27414" lon="5.66201">
        <ele>1194</ele>
        <time>2018-07-17T08:35:57Z</time>
      </trkpt>
      <trkpt lat="44.27415" lon="5.66203">
        <ele>1194</ele>
        <time>2018-07-17T08:36:00Z</time>
      </trkpt>
      <trkpt lat="44.27415" lon="5.66205">
        <ele>1194</ele>
        <time>2018-07-17T08:36:02Z</time>
      </trkpt>
      <trkpt lat="44.27414" lon="5.66207">
        <ele>1194</ele>
        <time>2018-07-17T08:36:04Z</time>
      </trkpt>
      <trkpt lat="44.27414" lon="5.66209">
        <ele>1194</ele>
        <time>2018-07-17T08:36:06Z</time>
      </trkpt>
      <trkpt lat="44.27414" lon="5.66212">
        <ele>1193</ele>
        <time>2018-07-17T08:36:08Z</time>
      </trkpt>
      <trkpt lat="44.27414" lon="5.66213">
        <ele>1193</ele>
        <time>2018-07-17T08:36:09Z</time>
      </trkpt>
      <trkpt lat="44.27414" lon="5.66216">
        <ele>1193</ele>
        <time>2018-07-17T08:36:11Z</time>
      </trkpt>
      <trkpt lat="44.27414" lon="5.66218">
        <ele>1193</ele>
        <time>2018-07-17T08:36:13Z</time>
      </trkpt>
      <trkpt lat="44.27414" lon="5.6622">
        <ele>1193</ele>
        <time>2018-07-17T08:36:15Z</time>
      </trkpt>
      <trkpt lat="44.27414" lon="5.66222">
        <ele>1193</ele>
        <time>2018-07-17T08:36:16Z</time>
      </trkpt>
      <trkpt lat="44.27414" lon="5.66224">
        <ele>1193</ele>
        <time>2018-07-17T08:36:18Z</time>
      </trkpt>
      <trkpt lat="44.27414" lon="5.66226">
        <ele>1193</ele>
        <time>2018-07-17T08:36:19Z</time>
      </trkpt>
      <trkpt lat="44.27414" lon="5.66227">
        <ele>1193</ele>
        <time>2018-07-17T08:36:20Z</time>
      </trkpt>
      <trkpt lat="44.27414" lon="5.6623">
        <ele>1193</ele>
        <time>2018-07-17T08:36:22Z</time>
      </trkpt>
      <trkpt lat="44.27414" lon="5.66232">
        <ele>1193</ele>
        <time>2018-07-17T08:36:24Z</time>
      </trkpt>
      <trkpt lat="44.27414" lon="5.66234">
        <ele>1193</ele>
        <time>2018-07-17T08:36:26Z</time>
      </trkpt>
      <trkpt lat="44.27415" lon="5.66236">
        <ele>1193</ele>
        <time>2018-07-17T08:36:28Z</time>
      </trkpt>
      <trkpt lat="44.27415" lon="5.66238">
        <ele>1193</ele>
        <time>2018-07-17T08:36:30Z</time>
      </trkpt>
      <trkpt lat="44.27415" lon="5.6624">
        <ele>1193</ele>
        <time>2018-07-17T08:36:33Z</time>
      </trkpt>
      <trkpt lat="44.27414" lon="5.66243">
        <ele>1193</ele>
        <time>2018-07-17T08:36:35Z</time>
      </trkpt>
      <trkpt lat="44.27414" lon="5.66244">
        <ele>1193</ele>
        <time>2018-07-17T08:36:37Z</time>
      </trkpt>
      <trkpt lat="44.27414" lon="5.66246">
        <ele>1193</ele>
        <time>2018-07-17T08:36:39Z</time>
      </trkpt>
      <trkpt lat="44.27413" lon="5.66248">
        <ele>1193</ele>
        <time>2018-07-17T08:36:41Z</time>
      </trkpt>
      <trkpt lat="44.27412" lon="5.66249">
        <ele>1193</ele>
        <time>2018-07-17T08:36:43Z</time>
      </trkpt>
      <trkpt lat="44.27412" lon="5.66251">
        <ele>1192</ele>
        <time>2018-07-17T08:36:45Z</time>
      </trkpt>
      <trkpt lat="44.27412" lon="5.66252">
        <ele>1192</ele>
        <time>2018-07-17T08:36:47Z</time>
      </trkpt>
      <trkpt lat="44.27411" lon="5.66254">
        <ele>1191</ele>
        <time>2018-07-17T08:36:50Z</time>
      </trkpt>
      <trkpt lat="44.27411" lon="5.66256">
        <ele>1191</ele>
        <time>2018-07-17T08:36:52Z</time>
      </trkpt>
      <trkpt lat="44.27411" lon="5.66259">
        <ele>1191</ele>
        <time>2018-07-17T08:36:54Z</time>
      </trkpt>
      <trkpt lat="44.27411" lon="5.6626">
        <ele>1191</ele>
        <time>2018-07-17T08:36:55Z</time>
      </trkpt>
      <trkpt lat="44.2741" lon="5.66262">
        <ele>1191</ele>
        <time>2018-07-17T08:36:57Z</time>
      </trkpt>
      <trkpt lat="44.2741" lon="5.66264">
        <ele>1191</ele>
        <time>2018-07-17T08:36:59Z</time>
      </trkpt>
      <trkpt lat="44.2741" lon="5.66266">
        <ele>1190</ele>
        <time>2018-07-17T08:37:01Z</time>
      </trkpt>
      <trkpt lat="44.2741" lon="5.66268">
        <ele>1190</ele>
        <time>2018-07-17T08:37:03Z</time>
      </trkpt>
      <trkpt lat="44.2741" lon="5.6627">
        <ele>1190</ele>
        <time>2018-07-17T08:37:05Z</time>
      </trkpt>
      <trkpt lat="44.27411" lon="5.66271">
        <ele>1190</ele>
        <time>2018-07-17T08:37:07Z</time>
      </trkpt>
      <trkpt lat="44.27411" lon="5.66274">
        <ele>1190</ele>
        <time>2018-07-17T08:37:09Z</time>
      </trkpt>
      <trkpt lat="44.27411" lon="5.66276">
        <ele>1190</ele>
        <time>2018-07-17T08:37:11Z</time>
      </trkpt>
      <trkpt lat="44.27412" lon="5.66279">
        <ele>1190</ele>
        <time>2018-07-17T08:37:13Z</time>
      </trkpt>
      <trkpt lat="44.27412" lon="5.66281">
        <ele>1190</ele>
        <time>2018-07-17T08:37:15Z</time>
      </trkpt>
      <trkpt lat="44.27412" lon="5.66282">
        <ele>1190</ele>
        <time>2018-07-17T08:37:16Z</time>
      </trkpt>
      <trkpt lat="44.27412" lon="5.66284">
        <ele>1190</ele>
        <time>2018-07-17T08:37:17Z</time>
      </trkpt>
      <trkpt lat="44.27414" lon="5.66286">
        <ele>1190</ele>
        <time>2018-07-17T08:37:19Z</time>
      </trkpt>
      <trkpt lat="44.27413" lon="5.66288">
        <ele>1190</ele>
        <time>2018-07-17T08:37:21Z</time>
      </trkpt>
      <trkpt lat="44.27414" lon="5.66289">
        <ele>1190</ele>
        <time>2018-07-17T08:37:23Z</time>
      </trkpt>
      <trkpt lat="44.27417" lon="5.66291">
        <ele>1190</ele>
        <time>2018-07-17T08:37:26Z</time>
      </trkpt>
      <trkpt lat="44.27418" lon="5.66293">
        <ele>1190</ele>
        <time>2018-07-17T08:37:28Z</time>
      </trkpt>
      <trkpt lat="44.27419" lon="5.66295">
        <ele>1190</ele>
        <time>2018-07-17T08:37:29Z</time>
      </trkpt>
      <trkpt lat="44.27419" lon="5.66296">
        <ele>1191</ele>
        <time>2018-07-17T08:37:30Z</time>
      </trkpt>
      <trkpt lat="44.27419" lon="5.66298">
        <ele>1191</ele>
        <time>2018-07-17T08:37:31Z</time>
      </trkpt>
      <trkpt lat="44.2742" lon="5.663">
        <ele>1192</ele>
        <time>2018-07-17T08:37:33Z</time>
      </trkpt>
      <trkpt lat="44.2742" lon="5.66302">
        <ele>1192</ele>
        <time>2018-07-17T08:37:36Z</time>
      </trkpt>
      <trkpt lat="44.2742" lon="5.66304">
        <ele>1192</ele>
        <time>2018-07-17T08:37:38Z</time>
      </trkpt>
      <trkpt lat="44.2742" lon="5.66306">
        <ele>1192</ele>
        <time>2018-07-17T08:37:40Z</time>
      </trkpt>
      <trkpt lat="44.27419" lon="5.66307">
        <ele>1192</ele>
        <time>2018-07-17T08:37:42Z</time>
      </trkpt>
      <trkpt lat="44.27419" lon="5.66309">
        <ele>1190</ele>
        <time>2018-07-17T08:37:44Z</time>
      </trkpt>
      <trkpt lat="44.27419" lon="5.66311">
        <ele>1188</ele>
        <time>2018-07-17T08:37:46Z</time>
      </trkpt>
      <trkpt lat="44.2742" lon="5.66313">
        <ele>1188</ele>
        <time>2018-07-17T08:37:48Z</time>
      </trkpt>
      <trkpt lat="44.27419" lon="5.66315">
        <ele>1187</ele>
        <time>2018-07-17T08:37:51Z</time>
      </trkpt>
      <trkpt lat="44.27418" lon="5.66316">
        <ele>1187</ele>
        <time>2018-07-17T08:37:53Z</time>
      </trkpt>
      <trkpt lat="44.27419" lon="5.66318">
        <ele>1185</ele>
        <time>2018-07-17T08:37:56Z</time>
      </trkpt>
      <trkpt lat="44.27419" lon="5.6632">
        <ele>1183</ele>
        <time>2018-07-17T08:37:59Z</time>
      </trkpt>
      <trkpt lat="44.27419" lon="5.66322">
        <ele>1182</ele>
        <time>2018-07-17T08:38:02Z</time>
      </trkpt>
      <trkpt lat="44.2742" lon="5.66323">
        <ele>1182</ele>
        <time>2018-07-17T08:38:03Z</time>
      </trkpt>
      <trkpt lat="44.2742" lon="5.66325">
        <ele>1181</ele>
        <time>2018-07-17T08:38:05Z</time>
      </trkpt>
      <trkpt lat="44.27421" lon="5.66327">
        <ele>1181</ele>
        <time>2018-07-17T08:38:07Z</time>
      </trkpt>
      <trkpt lat="44.27422" lon="5.6633">
        <ele>1181</ele>
        <time>2018-07-17T08:38:09Z</time>
      </trkpt>
      <trkpt lat="44.27422" lon="5.66332">
        <ele>1181</ele>
        <time>2018-07-17T08:38:11Z</time>
      </trkpt>
      <trkpt lat="44.27422" lon="5.66333">
        <ele>1181</ele>
        <time>2018-07-17T08:38:13Z</time>
      </trkpt>
      <trkpt lat="44.27422" lon="5.66335">
        <ele>1181</ele>
        <time>2018-07-17T08:38:15Z</time>
      </trkpt>
      <trkpt lat="44.27423" lon="5.66337">
        <ele>1179</ele>
        <time>2018-07-17T08:38:17Z</time>
      </trkpt>
      <trkpt lat="44.27424" lon="5.66339">
        <ele>1179</ele>
        <time>2018-07-17T08:38:19Z</time>
      </trkpt>
      <trkpt lat="44.27425" lon="5.66341">
        <ele>1179</ele>
        <time>2018-07-17T08:38:21Z</time>
      </trkpt>
      <trkpt lat="44.27427" lon="5.66342">
        <ele>1179</ele>
        <time>2018-07-17T08:38:23Z</time>
      </trkpt>
      <trkpt lat="44.27428" lon="5.66344">
        <ele>1179</ele>
        <time>2018-07-17T08:38:24Z</time>
      </trkpt>
      <trkpt lat="44.27429" lon="5.66347">
        <ele>1179</ele>
        <time>2018-07-17T08:38:26Z</time>
      </trkpt>
      <trkpt lat="44.27429" lon="5.66344">
        <ele>1179</ele>
        <time>2018-07-17T08:38:34Z</time>
      </trkpt>
      <trkpt lat="44.27429" lon="5.66343">
        <ele>1179</ele>
        <time>2018-07-17T08:38:37Z</time>
      </trkpt>
      <trkpt lat="44.27428" lon="5.66341">
        <ele>1179</ele>
        <time>2018-07-17T08:38:38Z</time>
      </trkpt>
      <trkpt lat="44.27428" lon="5.66339">
        <ele>1179</ele>
        <time>2018-07-17T08:38:39Z</time>
      </trkpt>
      <trkpt lat="44.27427" lon="5.66336">
        <ele>1179</ele>
        <time>2018-07-17T08:38:41Z</time>
      </trkpt>
      <trkpt lat="44.27428" lon="5.66335">
        <ele>1179</ele>
        <time>2018-07-17T08:38:42Z</time>
      </trkpt>
      <trkpt lat="44.27427" lon="5.66333">
        <ele>1179</ele>
        <time>2018-07-17T08:38:44Z</time>
      </trkpt>
      <trkpt lat="44.27426" lon="5.66331">
        <ele>1179</ele>
        <time>2018-07-17T08:38:46Z</time>
      </trkpt>
      <trkpt lat="44.27425" lon="5.66329">
        <ele>1179</ele>
        <time>2018-07-17T08:38:48Z</time>
      </trkpt>
      <trkpt lat="44.27424" lon="5.66328">
        <ele>1179</ele>
        <time>2018-07-17T08:38:52Z</time>
      </trkpt>
      <trkpt lat="44.27425" lon="5.66326">
        <ele>1179</ele>
        <time>2018-07-17T08:38:55Z</time>
      </trkpt>
      <trkpt lat="44.27424" lon="5.66324">
        <ele>1179</ele>
        <time>2018-07-17T08:38:57Z</time>
      </trkpt>
      <trkpt lat="44.27425" lon="5.66323">
        <ele>1179</ele>
        <time>2018-07-17T08:38:58Z</time>
      </trkpt>
      <trkpt lat="44.27425" lon="5.66321">
        <ele>1179</ele>
        <time>2018-07-17T08:39:00Z</time>
      </trkpt>
      <trkpt lat="44.27426" lon="5.66319">
        <ele>1179</ele>
        <time>2018-07-17T08:39:03Z</time>
      </trkpt>
      <trkpt lat="44.27427" lon="5.66317">
        <ele>1179</ele>
        <time>2018-07-17T08:39:05Z</time>
      </trkpt>
      <trkpt lat="44.27427" lon="5.66315">
        <ele>1179</ele>
        <time>2018-07-17T08:39:06Z</time>
      </trkpt>
      <trkpt lat="44.27428" lon="5.66314">
        <ele>1179</ele>
        <time>2018-07-17T08:39:08Z</time>
      </trkpt>
      <trkpt lat="44.2743" lon="5.66314">
        <ele>1178</ele>
        <time>2018-07-17T08:39:10Z</time>
      </trkpt>
      <trkpt lat="44.27431" lon="5.66314">
        <ele>1178</ele>
        <time>2018-07-17T08:39:11Z</time>
      </trkpt>
      <trkpt lat="44.27433" lon="5.66315">
        <ele>1178</ele>
        <time>2018-07-17T08:39:13Z</time>
      </trkpt>
      <trkpt lat="44.27435" lon="5.66316">
        <ele>1178</ele>
        <time>2018-07-17T08:39:14Z</time>
      </trkpt>
      <trkpt lat="44.27436" lon="5.66319">
        <ele>1178</ele>
        <time>2018-07-17T08:39:16Z</time>
      </trkpt>
      <trkpt lat="44.27436" lon="5.6632">
        <ele>1178</ele>
        <time>2018-07-17T08:39:17Z</time>
      </trkpt>
      <trkpt lat="44.27436" lon="5.66323">
        <ele>1178</ele>
        <time>2018-07-17T08:39:19Z</time>
      </trkpt>
      <trkpt lat="44.27438" lon="5.66324">
        <ele>1178</ele>
        <time>2018-07-17T08:39:21Z</time>
      </trkpt>
      <trkpt lat="44.27438" lon="5.66326">
        <ele>1177</ele>
        <time>2018-07-17T08:39:24Z</time>
      </trkpt>
      <trkpt lat="44.27438" lon="5.66328">
        <ele>1176</ele>
        <time>2018-07-17T08:39:26Z</time>
      </trkpt>
      <trkpt lat="44.27438" lon="5.6633">
        <ele>1175</ele>
        <time>2018-07-17T08:39:28Z</time>
      </trkpt>
      <trkpt lat="44.2744" lon="5.66331">
        <ele>1175</ele>
        <time>2018-07-17T08:39:30Z</time>
      </trkpt>
      <trkpt lat="44.27442" lon="5.66333">
        <ele>1175</ele>
        <time>2018-07-17T08:39:32Z</time>
      </trkpt>
      <trkpt lat="44.27443" lon="5.66334">
        <ele>1175</ele>
        <time>2018-07-17T08:39:33Z</time>
      </trkpt>
      <trkpt lat="44.27444" lon="5.66335">
        <ele>1175</ele>
        <time>2018-07-17T08:39:34Z</time>
      </trkpt>
      <trkpt lat="44.27444" lon="5.66338">
        <ele>1175</ele>
        <time>2018-07-17T08:39:36Z</time>
      </trkpt>
      <trkpt lat="44.27445" lon="5.66339">
        <ele>1175</ele>
        <time>2018-07-17T08:39:38Z</time>
      </trkpt>
      <trkpt lat="44.27446" lon="5.66341">
        <ele>1175</ele>
        <time>2018-07-17T08:39:40Z</time>
      </trkpt>
      <trkpt lat="44.27446" lon="5.66343">
        <ele>1174</ele>
        <time>2018-07-17T08:39:42Z</time>
      </trkpt>
      <trkpt lat="44.27447" lon="5.66345">
        <ele>1173</ele>
        <time>2018-07-17T08:39:44Z</time>
      </trkpt>
      <trkpt lat="44.27448" lon="5.66346">
        <ele>1173</ele>
        <time>2018-07-17T08:39:46Z</time>
      </trkpt>
      <trkpt lat="44.27448" lon="5.66348">
        <ele>1173</ele>
        <time>2018-07-17T08:39:48Z</time>
      </trkpt>
      <trkpt lat="44.27449" lon="5.6635">
        <ele>1173</ele>
        <time>2018-07-17T08:39:50Z</time>
      </trkpt>
      <trkpt lat="44.27449" lon="5.66352">
        <ele>1173</ele>
        <time>2018-07-17T08:39:52Z</time>
      </trkpt>
      <trkpt lat="44.27451" lon="5.66354">
        <ele>1173</ele>
        <time>2018-07-17T08:39:54Z</time>
      </trkpt>
      <trkpt lat="44.27451" lon="5.66356">
        <ele>1173</ele>
        <time>2018-07-17T08:39:56Z</time>
      </trkpt>
      <trkpt lat="44.27452" lon="5.66358">
        <ele>1173</ele>
        <time>2018-07-17T08:40:00Z</time>
      </trkpt>
      <trkpt lat="44.27454" lon="5.66359">
        <ele>1172</ele>
        <time>2018-07-17T08:40:02Z</time>
      </trkpt>
      <trkpt lat="44.27455" lon="5.66362">
        <ele>1172</ele>
        <time>2018-07-17T08:40:04Z</time>
      </trkpt>
      <trkpt lat="44.27456" lon="5.66363">
        <ele>1172</ele>
        <time>2018-07-17T08:40:05Z</time>
      </trkpt>
      <trkpt lat="44.27457" lon="5.66364">
        <ele>1172</ele>
        <time>2018-07-17T08:40:06Z</time>
      </trkpt>
      <trkpt lat="44.27458" lon="5.66366">
        <ele>1172</ele>
        <time>2018-07-17T08:40:08Z</time>
      </trkpt>
      <trkpt lat="44.27458" lon="5.66369">
        <ele>1172</ele>
        <time>2018-07-17T08:40:10Z</time>
      </trkpt>
      <trkpt lat="44.27459" lon="5.66372">
        <ele>1172</ele>
        <time>2018-07-17T08:40:12Z</time>
      </trkpt>
      <trkpt lat="44.27459" lon="5.66373">
        <ele>1172</ele>
        <time>2018-07-17T08:40:13Z</time>
      </trkpt>
      <trkpt lat="44.27458" lon="5.66375">
        <ele>1171</ele>
        <time>2018-07-17T08:40:15Z</time>
      </trkpt>
      <trkpt lat="44.27459" lon="5.66378">
        <ele>1170</ele>
        <time>2018-07-17T08:40:17Z</time>
      </trkpt>
      <trkpt lat="44.27459" lon="5.6638">
        <ele>1170</ele>
        <time>2018-07-17T08:40:19Z</time>
      </trkpt>
      <trkpt lat="44.27459" lon="5.66381">
        <ele>1169</ele>
        <time>2018-07-17T08:40:21Z</time>
      </trkpt>
      <trkpt lat="44.2746" lon="5.66383">
        <ele>1169</ele>
        <time>2018-07-17T08:40:23Z</time>
      </trkpt>
      <trkpt lat="44.2746" lon="5.66385">
        <ele>1169</ele>
        <time>2018-07-17T08:40:25Z</time>
      </trkpt>
      <trkpt lat="44.2746" lon="5.66387">
        <ele>1169</ele>
        <time>2018-07-17T08:40:27Z</time>
      </trkpt>
      <trkpt lat="44.27461" lon="5.66389">
        <ele>1168</ele>
        <time>2018-07-17T08:40:29Z</time>
      </trkpt>
      <trkpt lat="44.27462" lon="5.66391">
        <ele>1168</ele>
        <time>2018-07-17T08:40:31Z</time>
      </trkpt>
      <trkpt lat="44.27463" lon="5.66393">
        <ele>1167</ele>
        <time>2018-07-17T08:40:33Z</time>
      </trkpt>
      <trkpt lat="44.27464" lon="5.66396">
        <ele>1167</ele>
        <time>2018-07-17T08:40:35Z</time>
      </trkpt>
      <trkpt lat="44.27465" lon="5.66398">
        <ele>1167</ele>
        <time>2018-07-17T08:40:37Z</time>
      </trkpt>
      <trkpt lat="44.27467" lon="5.66399">
        <ele>1167</ele>
        <time>2018-07-17T08:40:38Z</time>
      </trkpt>
      <trkpt lat="44.27468" lon="5.66401">
        <ele>1167</ele>
        <time>2018-07-17T08:40:40Z</time>
      </trkpt>
      <trkpt lat="44.27468" lon="5.66403">
        <ele>1167</ele>
        <time>2018-07-17T08:40:42Z</time>
      </trkpt>
      <trkpt lat="44.27467" lon="5.66403">
        <ele>1167</ele>
        <time>2018-07-17T08:40:47Z</time>
      </trkpt>
      <trkpt lat="44.27467" lon="5.66406">
        <ele>1167</ele>
        <time>2018-07-17T08:40:50Z</time>
      </trkpt>
      <trkpt lat="44.27467" lon="5.66409">
        <ele>1167</ele>
        <time>2018-07-17T08:40:52Z</time>
      </trkpt>
      <trkpt lat="44.27468" lon="5.66411">
        <ele>1167</ele>
        <time>2018-07-17T08:40:54Z</time>
      </trkpt>
      <trkpt lat="44.27467" lon="5.66413">
        <ele>1167</ele>
        <time>2018-07-17T08:40:56Z</time>
      </trkpt>
      <trkpt lat="44.27466" lon="5.66413">
        <ele>1167</ele>
        <time>2018-07-17T08:40:57Z</time>
      </trkpt>
      <trkpt lat="44.27464" lon="5.66413">
        <ele>1167</ele>
        <time>2018-07-17T08:40:58Z</time>
      </trkpt>
      <trkpt lat="44.27464" lon="5.66415">
        <ele>1163</ele>
        <time>2018-07-17T08:41:02Z</time>
      </trkpt>
      <trkpt lat="44.27464" lon="5.66417">
        <ele>1163</ele>
        <time>2018-07-17T08:41:03Z</time>
      </trkpt>
      <trkpt lat="44.27465" lon="5.66419">
        <ele>1162</ele>
        <time>2018-07-17T08:41:04Z</time>
      </trkpt>
      <trkpt lat="44.27466" lon="5.66421">
        <ele>1162</ele>
        <time>2018-07-17T08:41:05Z</time>
      </trkpt>
      <trkpt lat="44.27467" lon="5.66423">
        <ele>1162</ele>
        <time>2018-07-17T08:41:07Z</time>
      </trkpt>
      <trkpt lat="44.27467" lon="5.66425">
        <ele>1162</ele>
        <time>2018-07-17T08:41:09Z</time>
      </trkpt>
      <trkpt lat="44.27468" lon="5.66427">
        <ele>1161</ele>
        <time>2018-07-17T08:41:10Z</time>
      </trkpt>
      <trkpt lat="44.27468" lon="5.66429">
        <ele>1161</ele>
        <time>2018-07-17T08:41:12Z</time>
      </trkpt>
      <trkpt lat="44.2747" lon="5.66431">
        <ele>1160</ele>
        <time>2018-07-17T08:41:14Z</time>
      </trkpt>
      <trkpt lat="44.27471" lon="5.66432">
        <ele>1160</ele>
        <time>2018-07-17T08:41:15Z</time>
      </trkpt>
      <trkpt lat="44.27472" lon="5.66433">
        <ele>1160</ele>
        <time>2018-07-17T08:41:16Z</time>
      </trkpt>
      <trkpt lat="44.27472" lon="5.66435">
        <ele>1160</ele>
        <time>2018-07-17T08:41:19Z</time>
      </trkpt>
      <trkpt lat="44.27472" lon="5.66437">
        <ele>1159</ele>
        <time>2018-07-17T08:41:22Z</time>
      </trkpt>
      <trkpt lat="44.27473" lon="5.66438">
        <ele>1159</ele>
        <time>2018-07-17T08:41:24Z</time>
      </trkpt>
      <trkpt lat="44.27474" lon="5.66441">
        <ele>1159</ele>
        <time>2018-07-17T08:41:27Z</time>
      </trkpt>
      <trkpt lat="44.27474" lon="5.66443">
        <ele>1159</ele>
        <time>2018-07-17T08:41:29Z</time>
      </trkpt>
      <trkpt lat="44.27476" lon="5.66443">
        <ele>1159</ele>
        <time>2018-07-17T08:41:32Z</time>
      </trkpt>
      <trkpt lat="44.27476" lon="5.66446">
        <ele>1158</ele>
        <time>2018-07-17T08:41:34Z</time>
      </trkpt>
      <trkpt lat="44.27477" lon="5.66447">
        <ele>1158</ele>
        <time>2018-07-17T08:41:36Z</time>
      </trkpt>
      <trkpt lat="44.27477" lon="5.66449">
        <ele>1158</ele>
        <time>2018-07-17T08:41:38Z</time>
      </trkpt>
      <trkpt lat="44.27477" lon="5.66451">
        <ele>1158</ele>
        <time>2018-07-17T08:41:40Z</time>
      </trkpt>
      <trkpt lat="44.27478" lon="5.66452">
        <ele>1158</ele>
        <time>2018-07-17T08:41:42Z</time>
      </trkpt>
      <trkpt lat="44.27479" lon="5.66454">
        <ele>1158</ele>
        <time>2018-07-17T08:41:44Z</time>
      </trkpt>
      <trkpt lat="44.2748" lon="5.66456">
        <ele>1158</ele>
        <time>2018-07-17T08:41:46Z</time>
      </trkpt>
      <trkpt lat="44.27481" lon="5.66457">
        <ele>1158</ele>
        <time>2018-07-17T08:41:48Z</time>
      </trkpt>
      <trkpt lat="44.27481" lon="5.66459">
        <ele>1158</ele>
        <time>2018-07-17T08:41:51Z</time>
      </trkpt>
      <trkpt lat="44.27481" lon="5.66461">
        <ele>1158</ele>
        <time>2018-07-17T08:41:54Z</time>
      </trkpt>
      <trkpt lat="44.27481" lon="5.66463">
        <ele>1158</ele>
        <time>2018-07-17T08:41:57Z</time>
      </trkpt>
      <trkpt lat="44.27482" lon="5.66465">
        <ele>1157</ele>
        <time>2018-07-17T08:42:00Z</time>
      </trkpt>
      <trkpt lat="44.27482" lon="5.66466">
        <ele>1157</ele>
        <time>2018-07-17T08:42:02Z</time>
      </trkpt>
      <trkpt lat="44.27482" lon="5.66468">
        <ele>1157</ele>
        <time>2018-07-17T08:42:05Z</time>
      </trkpt>
      <trkpt lat="44.27483" lon="5.66471">
        <ele>1157</ele>
        <time>2018-07-17T08:42:08Z</time>
      </trkpt>
      <trkpt lat="44.27484" lon="5.66473">
        <ele>1157</ele>
        <time>2018-07-17T08:42:11Z</time>
      </trkpt>
      <trkpt lat="44.27484" lon="5.66475">
        <ele>1157</ele>
        <time>2018-07-17T08:42:13Z</time>
      </trkpt>
      <trkpt lat="44.27484" lon="5.66476">
        <ele>1156</ele>
        <time>2018-07-17T08:42:15Z</time>
      </trkpt>
      <trkpt lat="44.27484" lon="5.66478">
        <ele>1156</ele>
        <time>2018-07-17T08:42:17Z</time>
      </trkpt>
      <trkpt lat="44.27483" lon="5.6648">
        <ele>1155</ele>
        <time>2018-07-17T08:42:19Z</time>
      </trkpt>
      <trkpt lat="44.27483" lon="5.66483">
        <ele>1154</ele>
        <time>2018-07-17T08:42:21Z</time>
      </trkpt>
      <trkpt lat="44.27482" lon="5.66485">
        <ele>1153</ele>
        <time>2018-07-17T08:42:23Z</time>
      </trkpt>
      <trkpt lat="44.27481" lon="5.66487">
        <ele>1152</ele>
        <time>2018-07-17T08:42:25Z</time>
      </trkpt>
      <trkpt lat="44.2748" lon="5.66489">
        <ele>1152</ele>
        <time>2018-07-17T08:42:27Z</time>
      </trkpt>
      <trkpt lat="44.27478" lon="5.66491">
        <ele>1151</ele>
        <time>2018-07-17T08:42:29Z</time>
      </trkpt>
      <trkpt lat="44.27478" lon="5.66492">
        <ele>1151</ele>
        <time>2018-07-17T08:42:31Z</time>
      </trkpt>
      <trkpt lat="44.27476" lon="5.66494">
        <ele>1151</ele>
        <time>2018-07-17T08:42:33Z</time>
      </trkpt>
      <trkpt lat="44.27475" lon="5.66496">
        <ele>1151</ele>
        <time>2018-07-17T08:42:36Z</time>
      </trkpt>
      <trkpt lat="44.27474" lon="5.66498">
        <ele>1151</ele>
        <time>2018-07-17T08:42:37Z</time>
      </trkpt>
      <trkpt lat="44.27473" lon="5.665">
        <ele>1151</ele>
        <time>2018-07-17T08:42:39Z</time>
      </trkpt>
      <trkpt lat="44.27472" lon="5.66501">
        <ele>1151</ele>
        <time>2018-07-17T08:42:40Z</time>
      </trkpt>
      <trkpt lat="44.27469" lon="5.66503">
        <ele>1151</ele>
        <time>2018-07-17T08:42:42Z</time>
      </trkpt>
      <trkpt lat="44.27467" lon="5.66504">
        <ele>1151</ele>
        <time>2018-07-17T08:42:44Z</time>
      </trkpt>
      <trkpt lat="44.27466" lon="5.66505">
        <ele>1151</ele>
        <time>2018-07-17T08:42:45Z</time>
      </trkpt>
      <trkpt lat="44.27465" lon="5.66506">
        <ele>1151</ele>
        <time>2018-07-17T08:42:46Z</time>
      </trkpt>
      <trkpt lat="44.27463" lon="5.66509">
        <ele>1151</ele>
        <time>2018-07-17T08:42:48Z</time>
      </trkpt>
      <trkpt lat="44.27462" lon="5.66511">
        <ele>1151</ele>
        <time>2018-07-17T08:42:50Z</time>
      </trkpt>
      <trkpt lat="44.27462" lon="5.66513">
        <ele>1151</ele>
        <time>2018-07-17T08:42:52Z</time>
      </trkpt>
      <trkpt lat="44.27461" lon="5.66515">
        <ele>1151</ele>
        <time>2018-07-17T08:42:54Z</time>
      </trkpt>
      <trkpt lat="44.2746" lon="5.66516">
        <ele>1151</ele>
        <time>2018-07-17T08:42:56Z</time>
      </trkpt>
      <trkpt lat="44.2746" lon="5.66518">
        <ele>1151</ele>
        <time>2018-07-17T08:42:59Z</time>
      </trkpt>
      <trkpt lat="44.2746" lon="5.6652">
        <ele>1151</ele>
        <time>2018-07-17T08:43:01Z</time>
      </trkpt>
      <trkpt lat="44.27459" lon="5.66522">
        <ele>1150</ele>
        <time>2018-07-17T08:43:03Z</time>
      </trkpt>
      <trkpt lat="44.2746" lon="5.66523">
        <ele>1150</ele>
        <time>2018-07-17T08:43:05Z</time>
      </trkpt>
      <trkpt lat="44.2746" lon="5.66525">
        <ele>1150</ele>
        <time>2018-07-17T08:43:07Z</time>
      </trkpt>
      <trkpt lat="44.27459" lon="5.66527">
        <ele>1150</ele>
        <time>2018-07-17T08:43:09Z</time>
      </trkpt>
      <trkpt lat="44.27459" lon="5.6653">
        <ele>1150</ele>
        <time>2018-07-17T08:43:11Z</time>
      </trkpt>
      <trkpt lat="44.2746" lon="5.66532">
        <ele>1150</ele>
        <time>2018-07-17T08:43:13Z</time>
      </trkpt>
      <trkpt lat="44.27459" lon="5.66534">
        <ele>1150</ele>
        <time>2018-07-17T08:43:15Z</time>
      </trkpt>
      <trkpt lat="44.27459" lon="5.66536">
        <ele>1150</ele>
        <time>2018-07-17T08:43:16Z</time>
      </trkpt>
      <trkpt lat="44.27458" lon="5.66538">
        <ele>1150</ele>
        <time>2018-07-17T08:43:18Z</time>
      </trkpt>
      <trkpt lat="44.27457" lon="5.6654">
        <ele>1152</ele>
        <time>2018-07-17T08:43:21Z</time>
      </trkpt>
      <trkpt lat="44.27455" lon="5.66541">
        <ele>1153</ele>
        <time>2018-07-17T08:43:23Z</time>
      </trkpt>
      <trkpt lat="44.27454" lon="5.66542">
        <ele>1153</ele>
        <time>2018-07-17T08:43:26Z</time>
      </trkpt>
      <trkpt lat="44.27452" lon="5.66544">
        <ele>1153</ele>
        <time>2018-07-17T08:43:28Z</time>
      </trkpt>
      <trkpt lat="44.27451" lon="5.66546">
        <ele>1153</ele>
        <time>2018-07-17T08:43:31Z</time>
      </trkpt>
      <trkpt lat="44.27449" lon="5.66546">
        <ele>1153</ele>
        <time>2018-07-17T08:43:33Z</time>
      </trkpt>
      <trkpt lat="44.27448" lon="5.66547">
        <ele>1153</ele>
        <time>2018-07-17T08:43:35Z</time>
      </trkpt>
      <trkpt lat="44.27446" lon="5.6655">
        <ele>1153</ele>
        <time>2018-07-17T08:43:38Z</time>
      </trkpt>
      <trkpt lat="44.27444" lon="5.6655">
        <ele>1153</ele>
        <time>2018-07-17T08:43:39Z</time>
      </trkpt>
      <trkpt lat="44.27442" lon="5.6655">
        <ele>1153</ele>
        <time>2018-07-17T08:43:40Z</time>
      </trkpt>
      <trkpt lat="44.27441" lon="5.6655">
        <ele>1153</ele>
        <time>2018-07-17T08:43:41Z</time>
      </trkpt>
      <trkpt lat="44.27439" lon="5.66549">
        <ele>1153</ele>
        <time>2018-07-17T08:43:43Z</time>
      </trkpt>
      <trkpt lat="44.2744" lon="5.66551">
        <ele>1153</ele>
        <time>2018-07-17T08:43:45Z</time>
      </trkpt>
      <trkpt lat="44.2744" lon="5.66553">
        <ele>1153</ele>
        <time>2018-07-17T08:43:50Z</time>
      </trkpt>
      <trkpt lat="44.27439" lon="5.66554">
        <ele>1153</ele>
        <time>2018-07-17T08:43:54Z</time>
      </trkpt>
      <trkpt lat="44.27438" lon="5.66556">
        <ele>1153</ele>
        <time>2018-07-17T08:43:57Z</time>
      </trkpt>
      <trkpt lat="44.27438" lon="5.66558">
        <ele>1153</ele>
        <time>2018-07-17T08:44:00Z</time>
      </trkpt>
      <trkpt lat="44.27437" lon="5.66559">
        <ele>1153</ele>
        <time>2018-07-17T08:44:02Z</time>
      </trkpt>
      <trkpt lat="44.27436" lon="5.66561">
        <ele>1153</ele>
        <time>2018-07-17T08:44:04Z</time>
      </trkpt>
      <trkpt lat="44.27436" lon="5.66562">
        <ele>1153</ele>
        <time>2018-07-17T08:44:06Z</time>
      </trkpt>
      <trkpt lat="44.27436" lon="5.66564">
        <ele>1153</ele>
        <time>2018-07-17T08:44:09Z</time>
      </trkpt>
      <trkpt lat="44.27436" lon="5.66566">
        <ele>1154</ele>
        <time>2018-07-17T08:44:12Z</time>
      </trkpt>
      <trkpt lat="44.27436" lon="5.66568">
        <ele>1155</ele>
        <time>2018-07-17T08:44:14Z</time>
      </trkpt>
      <trkpt lat="44.27436" lon="5.6657">
        <ele>1155</ele>
        <time>2018-07-17T08:44:16Z</time>
      </trkpt>
      <trkpt lat="44.27438" lon="5.66573">
        <ele>1156</ele>
        <time>2018-07-17T08:44:18Z</time>
      </trkpt>
      <trkpt lat="44.27438" lon="5.66574">
        <ele>1157</ele>
        <time>2018-07-17T08:44:21Z</time>
      </trkpt>
      <trkpt lat="44.27438" lon="5.66576">
        <ele>1158</ele>
        <time>2018-07-17T08:44:23Z</time>
      </trkpt>
      <trkpt lat="44.27438" lon="5.66577">
        <ele>1158</ele>
        <time>2018-07-17T08:44:25Z</time>
      </trkpt>
      <trkpt lat="44.2744" lon="5.66579">
        <ele>1158</ele>
        <time>2018-07-17T08:44:27Z</time>
      </trkpt>
      <trkpt lat="44.27441" lon="5.66582">
        <ele>1159</ele>
        <time>2018-07-17T08:44:29Z</time>
      </trkpt>
      <trkpt lat="44.27441" lon="5.66584">
        <ele>1161</ele>
        <time>2018-07-17T08:44:32Z</time>
      </trkpt>
      <trkpt lat="44.27441" lon="5.66586">
        <ele>1161</ele>
        <time>2018-07-17T08:44:34Z</time>
      </trkpt>
      <trkpt lat="44.27442" lon="5.66587">
        <ele>1162</ele>
        <time>2018-07-17T08:44:36Z</time>
      </trkpt>
      <trkpt lat="44.27443" lon="5.66589">
        <ele>1162</ele>
        <time>2018-07-17T08:44:38Z</time>
      </trkpt>
      <trkpt lat="44.27444" lon="5.66591">
        <ele>1162</ele>
        <time>2018-07-17T08:44:40Z</time>
      </trkpt>
      <trkpt lat="44.27443" lon="5.66593">
        <ele>1162</ele>
        <time>2018-07-17T08:44:42Z</time>
      </trkpt>
      <trkpt lat="44.27445" lon="5.66594">
        <ele>1162</ele>
        <time>2018-07-17T08:44:45Z</time>
      </trkpt>
      <trkpt lat="44.27445" lon="5.66596">
        <ele>1163</ele>
        <time>2018-07-17T08:44:47Z</time>
      </trkpt>
      <trkpt lat="44.27444" lon="5.66597">
        <ele>1163</ele>
        <time>2018-07-17T08:44:49Z</time>
      </trkpt>
      <trkpt lat="44.27444" lon="5.66599">
        <ele>1163</ele>
        <time>2018-07-17T08:44:51Z</time>
      </trkpt>
      <trkpt lat="44.27445" lon="5.66602">
        <ele>1163</ele>
        <time>2018-07-17T08:44:53Z</time>
      </trkpt>
      <trkpt lat="44.27446" lon="5.66603">
        <ele>1163</ele>
        <time>2018-07-17T08:44:55Z</time>
      </trkpt>
      <trkpt lat="44.27446" lon="5.66606">
        <ele>1164</ele>
        <time>2018-07-17T08:44:57Z</time>
      </trkpt>
      <trkpt lat="44.27445" lon="5.66608">
        <ele>1164</ele>
        <time>2018-07-17T08:44:59Z</time>
      </trkpt>
      <trkpt lat="44.27443" lon="5.66609">
        <ele>1164</ele>
        <time>2018-07-17T08:45:01Z</time>
      </trkpt>
      <trkpt lat="44.27442" lon="5.6661">
        <ele>1164</ele>
        <time>2018-07-17T08:45:02Z</time>
      </trkpt>
      <trkpt lat="44.27441" lon="5.66611">
        <ele>1164</ele>
        <time>2018-07-17T08:45:03Z</time>
      </trkpt>
      <trkpt lat="44.27441" lon="5.66612">
        <ele>1164</ele>
        <time>2018-07-17T08:45:05Z</time>
      </trkpt>
      <trkpt lat="44.27442" lon="5.66614">
        <ele>1164</ele>
        <time>2018-07-17T08:45:07Z</time>
      </trkpt>
      <trkpt lat="44.27442" lon="5.66616">
        <ele>1164</ele>
        <time>2018-07-17T08:45:08Z</time>
      </trkpt>
      <trkpt lat="44.27442" lon="5.66617">
        <ele>1164</ele>
        <time>2018-07-17T08:45:10Z</time>
      </trkpt>
      <trkpt lat="44.27442" lon="5.66619">
        <ele>1164</ele>
        <time>2018-07-17T08:45:12Z</time>
      </trkpt>
      <trkpt lat="44.27442" lon="5.6662">
        <ele>1164</ele>
        <time>2018-07-17T08:45:14Z</time>
      </trkpt>
      <trkpt lat="44.27443" lon="5.66622">
        <ele>1164</ele>
        <time>2018-07-17T08:45:17Z</time>
      </trkpt>
      <trkpt lat="44.27444" lon="5.66624">
        <ele>1164</ele>
        <time>2018-07-17T08:45:19Z</time>
      </trkpt>
      <trkpt lat="44.27443" lon="5.66625">
        <ele>1164</ele>
        <time>2018-07-17T08:45:22Z</time>
      </trkpt>
      <trkpt lat="44.27444" lon="5.66627">
        <ele>1164</ele>
        <time>2018-07-17T08:45:25Z</time>
      </trkpt>
      <trkpt lat="44.27446" lon="5.66629">
        <ele>1164</ele>
        <time>2018-07-17T08:45:27Z</time>
      </trkpt>
      <trkpt lat="44.27446" lon="5.6663">
        <ele>1164</ele>
        <time>2018-07-17T08:45:29Z</time>
      </trkpt>
      <trkpt lat="44.27446" lon="5.66632">
        <ele>1164</ele>
        <time>2018-07-17T08:45:31Z</time>
      </trkpt>
      <trkpt lat="44.27447" lon="5.66632">
        <ele>1164</ele>
        <time>2018-07-17T08:45:33Z</time>
      </trkpt>
      <trkpt lat="44.27449" lon="5.66633">
        <ele>1165</ele>
        <time>2018-07-17T08:45:36Z</time>
      </trkpt>
      <trkpt lat="44.2745" lon="5.66633">
        <ele>1167</ele>
        <time>2018-07-17T08:45:40Z</time>
      </trkpt>
      <trkpt lat="44.27452" lon="5.66633">
        <ele>1167</ele>
        <time>2018-07-17T08:45:44Z</time>
      </trkpt>
      <trkpt lat="44.27453" lon="5.66635">
        <ele>1167</ele>
        <time>2018-07-17T08:45:47Z</time>
      </trkpt>
      <trkpt lat="44.27453" lon="5.66636">
        <ele>1168</ele>
        <time>2018-07-17T08:45:49Z</time>
      </trkpt>
      <trkpt lat="44.27453" lon="5.66638">
        <ele>1168</ele>
        <time>2018-07-17T08:45:52Z</time>
      </trkpt>
      <trkpt lat="44.27451" lon="5.66639">
        <ele>1168</ele>
        <time>2018-07-17T08:45:56Z</time>
      </trkpt>
      <trkpt lat="44.27453" lon="5.6664">
        <ele>1168</ele>
        <time>2018-07-17T08:45:59Z</time>
      </trkpt>
      <trkpt lat="44.27454" lon="5.66641">
        <ele>1168</ele>
        <time>2018-07-17T08:46:01Z</time>
      </trkpt>
      <trkpt lat="44.27455" lon="5.66643">
        <ele>1168</ele>
        <time>2018-07-17T08:46:03Z</time>
      </trkpt>
      <trkpt lat="44.27455" lon="5.66645">
        <ele>1167</ele>
        <time>2018-07-17T08:46:05Z</time>
      </trkpt>
      <trkpt lat="44.27455" lon="5.66646">
        <ele>1167</ele>
        <time>2018-07-17T08:46:08Z</time>
      </trkpt>
      <trkpt lat="44.27457" lon="5.66648">
        <ele>1167</ele>
        <time>2018-07-17T08:46:10Z</time>
      </trkpt>
      <trkpt lat="44.27457" lon="5.6665">
        <ele>1167</ele>
        <time>2018-07-17T08:46:12Z</time>
      </trkpt>
      <trkpt lat="44.27458" lon="5.66652">
        <ele>1167</ele>
        <time>2018-07-17T08:46:15Z</time>
      </trkpt>
      <trkpt lat="44.27459" lon="5.66654">
        <ele>1167</ele>
        <time>2018-07-17T08:46:17Z</time>
      </trkpt>
      <trkpt lat="44.27459" lon="5.66655">
        <ele>1167</ele>
        <time>2018-07-17T08:46:19Z</time>
      </trkpt>
      <trkpt lat="44.27457" lon="5.66657">
        <ele>1167</ele>
        <time>2018-07-17T08:46:21Z</time>
      </trkpt>
      <trkpt lat="44.27457" lon="5.66659">
        <ele>1167</ele>
        <time>2018-07-17T08:46:23Z</time>
      </trkpt>
      <trkpt lat="44.27456" lon="5.66661">
        <ele>1167</ele>
        <time>2018-07-17T08:46:25Z</time>
      </trkpt>
      <trkpt lat="44.27457" lon="5.66663">
        <ele>1166</ele>
        <time>2018-07-17T08:46:27Z</time>
      </trkpt>
      <trkpt lat="44.27458" lon="5.66665">
        <ele>1166</ele>
        <time>2018-07-17T08:46:29Z</time>
      </trkpt>
      <trkpt lat="44.27459" lon="5.66667">
        <ele>1166</ele>
        <time>2018-07-17T08:46:31Z</time>
      </trkpt>
      <trkpt lat="44.27461" lon="5.66668">
        <ele>1166</ele>
        <time>2018-07-17T08:46:32Z</time>
      </trkpt>
      <trkpt lat="44.27461" lon="5.6667">
        <ele>1166</ele>
        <time>2018-07-17T08:46:34Z</time>
      </trkpt>
      <trkpt lat="44.27462" lon="5.66672">
        <ele>1166</ele>
        <time>2018-07-17T08:46:36Z</time>
      </trkpt>
      <trkpt lat="44.27462" lon="5.66674">
        <ele>1166</ele>
        <time>2018-07-17T08:46:37Z</time>
      </trkpt>
      <trkpt lat="44.27464" lon="5.66677">
        <ele>1166</ele>
        <time>2018-07-17T08:46:39Z</time>
      </trkpt>
      <trkpt lat="44.27465" lon="5.66679">
        <ele>1166</ele>
        <time>2018-07-17T08:46:41Z</time>
      </trkpt>
      <trkpt lat="44.27464" lon="5.6668">
        <ele>1166</ele>
        <time>2018-07-17T08:46:42Z</time>
      </trkpt>
      <trkpt lat="44.27464" lon="5.66682">
        <ele>1166</ele>
        <time>2018-07-17T08:46:43Z</time>
      </trkpt>
      <trkpt lat="44.27464" lon="5.66684">
        <ele>1166</ele>
        <time>2018-07-17T08:46:45Z</time>
      </trkpt>
      <trkpt lat="44.27463" lon="5.66687">
        <ele>1166</ele>
        <time>2018-07-17T08:46:47Z</time>
      </trkpt>
      <trkpt lat="44.27464" lon="5.66688">
        <ele>1166</ele>
        <time>2018-07-17T08:46:50Z</time>
      </trkpt>
      <trkpt lat="44.27465" lon="5.6669">
        <ele>1166</ele>
        <time>2018-07-17T08:46:54Z</time>
      </trkpt>
      <trkpt lat="44.27467" lon="5.66693">
        <ele>1166</ele>
        <time>2018-07-17T08:46:56Z</time>
      </trkpt>
      <trkpt lat="44.27469" lon="5.66694">
        <ele>1166</ele>
        <time>2018-07-17T08:46:57Z</time>
      </trkpt>
      <trkpt lat="44.2747" lon="5.66696">
        <ele>1166</ele>
        <time>2018-07-17T08:46:58Z</time>
      </trkpt>
      <trkpt lat="44.27471" lon="5.66698">
        <ele>1166</ele>
        <time>2018-07-17T08:46:59Z</time>
      </trkpt>
      <trkpt lat="44.27471" lon="5.667">
        <ele>1167</ele>
        <time>2018-07-17T08:47:01Z</time>
      </trkpt>
      <trkpt lat="44.2747" lon="5.66702">
        <ele>1167</ele>
        <time>2018-07-17T08:47:03Z</time>
      </trkpt>
      <trkpt lat="44.2747" lon="5.66703">
        <ele>1167</ele>
        <time>2018-07-17T08:47:04Z</time>
      </trkpt>
      <trkpt lat="44.2747" lon="5.66706">
        <ele>1167</ele>
        <time>2018-07-17T08:47:06Z</time>
      </trkpt>
      <trkpt lat="44.2747" lon="5.66707">
        <ele>1167</ele>
        <time>2018-07-17T08:47:07Z</time>
      </trkpt>
      <trkpt lat="44.2747" lon="5.66709">
        <ele>1167</ele>
        <time>2018-07-17T08:47:09Z</time>
      </trkpt>
      <trkpt lat="44.27472" lon="5.66711">
        <ele>1167</ele>
        <time>2018-07-17T08:47:11Z</time>
      </trkpt>
      <trkpt lat="44.27472" lon="5.66713">
        <ele>1167</ele>
        <time>2018-07-17T08:47:14Z</time>
      </trkpt>
      <trkpt lat="44.27472" lon="5.66715">
        <ele>1167</ele>
        <time>2018-07-17T08:47:16Z</time>
      </trkpt>
      <trkpt lat="44.27471" lon="5.66717">
        <ele>1167</ele>
        <time>2018-07-17T08:47:18Z</time>
      </trkpt>
      <trkpt lat="44.27471" lon="5.66719">
        <ele>1167</ele>
        <time>2018-07-17T08:47:20Z</time>
      </trkpt>
      <trkpt lat="44.27472" lon="5.66721">
        <ele>1167</ele>
        <time>2018-07-17T08:47:23Z</time>
      </trkpt>
      <trkpt lat="44.2747" lon="5.66723">
        <ele>1167</ele>
        <time>2018-07-17T08:47:25Z</time>
      </trkpt>
      <trkpt lat="44.2747" lon="5.66724">
        <ele>1167</ele>
        <time>2018-07-17T08:47:26Z</time>
      </trkpt>
      <trkpt lat="44.27469" lon="5.66726">
        <ele>1166</ele>
        <time>2018-07-17T08:47:28Z</time>
      </trkpt>
      <trkpt lat="44.27468" lon="5.66728">
        <ele>1165</ele>
        <time>2018-07-17T08:47:32Z</time>
      </trkpt>
      <trkpt lat="44.27468" lon="5.66729">
        <ele>1164</ele>
        <time>2018-07-17T08:47:34Z</time>
      </trkpt>
      <trkpt lat="44.27468" lon="5.66732">
        <ele>1164</ele>
        <time>2018-07-17T08:47:36Z</time>
      </trkpt>
      <trkpt lat="44.27468" lon="5.66734">
        <ele>1164</ele>
        <time>2018-07-17T08:47:38Z</time>
      </trkpt>
      <trkpt lat="44.27468" lon="5.66736">
        <ele>1164</ele>
        <time>2018-07-17T08:47:41Z</time>
      </trkpt>
      <trkpt lat="44.27467" lon="5.66737">
        <ele>1164</ele>
        <time>2018-07-17T08:47:43Z</time>
      </trkpt>
      <trkpt lat="44.27467" lon="5.66739">
        <ele>1164</ele>
        <time>2018-07-17T08:47:45Z</time>
      </trkpt>
      <trkpt lat="44.27467" lon="5.66741">
        <ele>1163</ele>
        <time>2018-07-17T08:47:47Z</time>
      </trkpt>
      <trkpt lat="44.27468" lon="5.66742">
        <ele>1163</ele>
        <time>2018-07-17T08:47:49Z</time>
      </trkpt>
      <trkpt lat="44.2747" lon="5.66744">
        <ele>1163</ele>
        <time>2018-07-17T08:47:51Z</time>
      </trkpt>
      <trkpt lat="44.2747" lon="5.66746">
        <ele>1163</ele>
        <time>2018-07-17T08:47:54Z</time>
      </trkpt>
      <trkpt lat="44.2747" lon="5.66747">
        <ele>1163</ele>
        <time>2018-07-17T08:47:56Z</time>
      </trkpt>
      <trkpt lat="44.27471" lon="5.66749">
        <ele>1163</ele>
        <time>2018-07-17T08:47:58Z</time>
      </trkpt>
      <trkpt lat="44.2747" lon="5.6675">
        <ele>1163</ele>
        <time>2018-07-17T08:48:01Z</time>
      </trkpt>
      <trkpt lat="44.2747" lon="5.66752">
        <ele>1163</ele>
        <time>2018-07-17T08:48:04Z</time>
      </trkpt>
      <trkpt lat="44.27471" lon="5.66754">
        <ele>1163</ele>
        <time>2018-07-17T08:48:06Z</time>
      </trkpt>
      <trkpt lat="44.27472" lon="5.66755">
        <ele>1163</ele>
        <time>2018-07-17T08:48:09Z</time>
      </trkpt>
      <trkpt lat="44.27474" lon="5.66756">
        <ele>1163</ele>
        <time>2018-07-17T08:48:11Z</time>
      </trkpt>
      <trkpt lat="44.27475" lon="5.66757">
        <ele>1163</ele>
        <time>2018-07-17T08:48:12Z</time>
      </trkpt>
      <trkpt lat="44.27476" lon="5.66759">
        <ele>1163</ele>
        <time>2018-07-17T08:48:14Z</time>
      </trkpt>
      <trkpt lat="44.27475" lon="5.6676">
        <ele>1163</ele>
        <time>2018-07-17T08:48:18Z</time>
      </trkpt>
      <trkpt lat="44.27476" lon="5.66761">
        <ele>1163</ele>
        <time>2018-07-17T08:48:21Z</time>
      </trkpt>
      <trkpt lat="44.27478" lon="5.66762">
        <ele>1163</ele>
        <time>2018-07-17T08:48:23Z</time>
      </trkpt>
      <trkpt lat="44.27479" lon="5.66762">
        <ele>1163</ele>
        <time>2018-07-17T08:48:24Z</time>
      </trkpt>
      <trkpt lat="44.2748" lon="5.66764">
        <ele>1163</ele>
        <time>2018-07-17T08:48:27Z</time>
      </trkpt>
      <trkpt lat="44.27481" lon="5.66765">
        <ele>1163</ele>
        <time>2018-07-17T08:48:29Z</time>
      </trkpt>
      <trkpt lat="44.27482" lon="5.66767">
        <ele>1163</ele>
        <time>2018-07-17T08:48:31Z</time>
      </trkpt>
      <trkpt lat="44.27483" lon="5.66769">
        <ele>1163</ele>
        <time>2018-07-17T08:48:33Z</time>
      </trkpt>
      <trkpt lat="44.27485" lon="5.6677">
        <ele>1163</ele>
        <time>2018-07-17T08:48:35Z</time>
      </trkpt>
      <trkpt lat="44.27485" lon="5.66772">
        <ele>1163</ele>
        <time>2018-07-17T08:48:37Z</time>
      </trkpt>
      <trkpt lat="44.27486" lon="5.66774">
        <ele>1163</ele>
        <time>2018-07-17T08:48:39Z</time>
      </trkpt>
      <trkpt lat="44.27486" lon="5.66776">
        <ele>1163</ele>
        <time>2018-07-17T08:48:41Z</time>
      </trkpt>
      <trkpt lat="44.27486" lon="5.66778">
        <ele>1163</ele>
        <time>2018-07-17T08:48:43Z</time>
      </trkpt>
      <trkpt lat="44.27486" lon="5.66779">
        <ele>1163</ele>
        <time>2018-07-17T08:48:45Z</time>
      </trkpt>
      <trkpt lat="44.27487" lon="5.66781">
        <ele>1163</ele>
        <time>2018-07-17T08:48:47Z</time>
      </trkpt>
      <trkpt lat="44.27489" lon="5.66783">
        <ele>1163</ele>
        <time>2018-07-17T08:48:49Z</time>
      </trkpt>
      <trkpt lat="44.27489" lon="5.66784">
        <ele>1163</ele>
        <time>2018-07-17T08:48:51Z</time>
      </trkpt>
      <trkpt lat="44.27489" lon="5.66786">
        <ele>1164</ele>
        <time>2018-07-17T08:48:53Z</time>
      </trkpt>
      <trkpt lat="44.27489" lon="5.66788">
        <ele>1164</ele>
        <time>2018-07-17T08:48:55Z</time>
      </trkpt>
      <trkpt lat="44.27488" lon="5.6679">
        <ele>1164</ele>
        <time>2018-07-17T08:48:57Z</time>
      </trkpt>
      <trkpt lat="44.27489" lon="5.66791">
        <ele>1164</ele>
        <time>2018-07-17T08:48:59Z</time>
      </trkpt>
      <trkpt lat="44.27489" lon="5.66793">
        <ele>1164</ele>
        <time>2018-07-17T08:49:01Z</time>
      </trkpt>
      <trkpt lat="44.2749" lon="5.66794">
        <ele>1164</ele>
        <time>2018-07-17T08:49:03Z</time>
      </trkpt>
      <trkpt lat="44.27491" lon="5.66796">
        <ele>1164</ele>
        <time>2018-07-17T08:49:05Z</time>
      </trkpt>
      <trkpt lat="44.27492" lon="5.66799">
        <ele>1165</ele>
        <time>2018-07-17T08:49:08Z</time>
      </trkpt>
      <trkpt lat="44.27492" lon="5.668">
        <ele>1166</ele>
        <time>2018-07-17T08:49:11Z</time>
      </trkpt>
      <trkpt lat="44.27491" lon="5.66802">
        <ele>1167</ele>
        <time>2018-07-17T08:49:14Z</time>
      </trkpt>
      <trkpt lat="44.27491" lon="5.66804">
        <ele>1168</ele>
        <time>2018-07-17T08:49:22Z</time>
      </trkpt>
      <trkpt lat="44.27492" lon="5.66805">
        <ele>1169</ele>
        <time>2018-07-17T08:49:24Z</time>
      </trkpt>
      <trkpt lat="44.27493" lon="5.66807">
        <ele>1170</ele>
        <time>2018-07-17T08:49:34Z</time>
      </trkpt>
      <trkpt lat="44.27494" lon="5.66809">
        <ele>1171</ele>
        <time>2018-07-17T08:49:37Z</time>
      </trkpt>
      <trkpt lat="44.27493" lon="5.6681">
        <ele>1171</ele>
        <time>2018-07-17T08:49:39Z</time>
      </trkpt>
      <trkpt lat="44.27494" lon="5.66811">
        <ele>1171</ele>
        <time>2018-07-17T08:49:45Z</time>
      </trkpt>
      <trkpt lat="44.27493" lon="5.6681">
        <ele>1172</ele>
        <time>2018-07-17T08:49:52Z</time>
      </trkpt>
      <trkpt lat="44.27492" lon="5.66811">
        <ele>1172</ele>
        <time>2018-07-17T08:49:53Z</time>
      </trkpt>
      <trkpt lat="44.27494" lon="5.6681">
        <ele>1168</ele>
        <time>2018-07-17T08:50:01Z</time>
      </trkpt>
      <trkpt lat="44.27495" lon="5.66809">
        <ele>1168</ele>
        <time>2018-07-17T08:50:03Z</time>
      </trkpt>
      <trkpt lat="44.27496" lon="5.66808">
        <ele>1168</ele>
        <time>2018-07-17T08:50:05Z</time>
      </trkpt>
      <trkpt lat="44.27498" lon="5.66808">
        <ele>1168</ele>
        <time>2018-07-17T08:50:07Z</time>
      </trkpt>
      <trkpt lat="44.27499" lon="5.66809">
        <ele>1168</ele>
        <time>2018-07-17T08:50:08Z</time>
      </trkpt>
      <trkpt lat="44.27501" lon="5.66808">
        <ele>1168</ele>
        <time>2018-07-17T08:50:09Z</time>
      </trkpt>
      <trkpt lat="44.27499" lon="5.66808">
        <ele>1168</ele>
        <time>2018-07-17T08:50:16Z</time>
      </trkpt>
      <trkpt lat="44.27498" lon="5.66809">
        <ele>1168</ele>
        <time>2018-07-17T08:50:19Z</time>
      </trkpt>
      <trkpt lat="44.27497" lon="5.66809">
        <ele>1168</ele>
        <time>2018-07-17T08:50:22Z</time>
      </trkpt>
      <trkpt lat="44.27498" lon="5.6681">
        <ele>1168</ele>
        <time>2018-07-17T08:50:23Z</time>
      </trkpt>
      <trkpt lat="44.27499" lon="5.66809">
        <ele>1168</ele>
        <time>2018-07-17T08:50:25Z</time>
      </trkpt>
      <trkpt lat="44.27501" lon="5.66809">
        <ele>1171</ele>
        <time>2018-07-17T08:50:28Z</time>
      </trkpt>
      <trkpt lat="44.27503" lon="5.66808">
        <ele>1174</ele>
        <time>2018-07-17T08:50:31Z</time>
      </trkpt>
      <trkpt lat="44.27501" lon="5.66808">
        <ele>1176</ele>
        <time>2018-07-17T08:50:33Z</time>
      </trkpt>
      <trkpt lat="44.27499" lon="5.66809">
        <ele>1176</ele>
        <time>2018-07-17T08:50:36Z</time>
      </trkpt>
      <trkpt lat="44.27501" lon="5.66809">
        <ele>1176</ele>
        <time>2018-07-17T08:50:38Z</time>
      </trkpt>
      <trkpt lat="44.275" lon="5.6681">
        <ele>1177</ele>
        <time>2018-07-17T08:50:40Z</time>
      </trkpt>
      <trkpt lat="44.27499" lon="5.66809">
        <ele>1177</ele>
        <time>2018-07-17T08:50:41Z</time>
      </trkpt>
      <trkpt lat="44.27497" lon="5.66809">
        <ele>1177</ele>
        <time>2018-07-17T08:50:43Z</time>
      </trkpt>
      <trkpt lat="44.27496" lon="5.66809">
        <ele>1177</ele>
        <time>2018-07-17T08:50:44Z</time>
      </trkpt>
      <trkpt lat="44.27494" lon="5.66809">
        <ele>1177</ele>
        <time>2018-07-17T08:50:45Z</time>
      </trkpt>
      <trkpt lat="44.27493" lon="5.6681">
        <ele>1177</ele>
        <time>2018-07-17T08:50:47Z</time>
      </trkpt>
      <trkpt lat="44.27492" lon="5.66809">
        <ele>1173</ele>
        <time>2018-07-17T08:51:06Z</time>
      </trkpt>
      <trkpt lat="44.2749" lon="5.66807">
        <ele>1172</ele>
        <time>2018-07-17T08:51:11Z</time>
      </trkpt>
      <trkpt lat="44.27489" lon="5.66806">
        <ele>1170</ele>
        <time>2018-07-17T08:51:15Z</time>
      </trkpt>
      <trkpt lat="44.27488" lon="5.66805">
        <ele>1168</ele>
        <time>2018-07-17T08:51:23Z</time>
      </trkpt>
      <trkpt lat="44.27486" lon="5.66806">
        <ele>1167</ele>
        <time>2018-07-17T08:51:25Z</time>
      </trkpt>
      <trkpt lat="44.27486" lon="5.66808">
        <ele>1167</ele>
        <time>2018-07-17T08:51:28Z</time>
      </trkpt>
      <trkpt lat="44.27486" lon="5.6681">
        <ele>1167</ele>
        <time>2018-07-17T08:51:31Z</time>
      </trkpt>
      <trkpt lat="44.27488" lon="5.66812">
        <ele>1167</ele>
        <time>2018-07-17T08:51:33Z</time>
      </trkpt>
      <trkpt lat="44.27489" lon="5.66813">
        <ele>1167</ele>
        <time>2018-07-17T08:51:34Z</time>
      </trkpt>
      <trkpt lat="44.27488" lon="5.66814">
        <ele>1167</ele>
        <time>2018-07-17T08:51:37Z</time>
      </trkpt>
      <trkpt lat="44.27489" lon="5.66816">
        <ele>1168</ele>
        <time>2018-07-17T08:51:41Z</time>
      </trkpt>
      <trkpt lat="44.27487" lon="5.66816">
        <ele>1170</ele>
        <time>2018-07-17T08:51:52Z</time>
      </trkpt>
      <trkpt lat="44.27488" lon="5.66816">
        <ele>1170</ele>
        <time>2018-07-17T08:51:57Z</time>
      </trkpt>
      <trkpt lat="44.27489" lon="5.66816">
        <ele>1170</ele>
        <time>2018-07-17T08:51:58Z</time>
      </trkpt>
      <trkpt lat="44.27491" lon="5.66815">
        <ele>1170</ele>
        <time>2018-07-17T08:51:59Z</time>
      </trkpt>
      <trkpt lat="44.27491" lon="5.66813">
        <ele>1171</ele>
        <time>2018-07-17T08:52:01Z</time>
      </trkpt>
      <trkpt lat="44.27491" lon="5.66815">
        <ele>1171</ele>
        <time>2018-07-17T08:52:12Z</time>
      </trkpt>
      <trkpt lat="44.2749" lon="5.66816">
        <ele>1171</ele>
        <time>2018-07-17T08:52:17Z</time>
      </trkpt>
      <trkpt lat="44.27488" lon="5.66816">
        <ele>1171</ele>
        <time>2018-07-17T08:52:23Z</time>
      </trkpt>
      <trkpt lat="44.27489" lon="5.66816">
        <ele>1171</ele>
        <time>2018-07-17T08:52:30Z</time>
      </trkpt>
      <trkpt lat="44.27491" lon="5.66817">
        <ele>1171</ele>
        <time>2018-07-17T08:52:32Z</time>
      </trkpt>
      <trkpt lat="44.27491" lon="5.66819">
        <ele>1171</ele>
        <time>2018-07-17T08:52:34Z</time>
      </trkpt>
      <trkpt lat="44.27493" lon="5.66819">
        <ele>1171</ele>
        <time>2018-07-17T08:52:35Z</time>
      </trkpt>
      <trkpt lat="44.27493" lon="5.66821">
        <ele>1171</ele>
        <time>2018-07-17T08:52:38Z</time>
      </trkpt>
      <trkpt lat="44.27494" lon="5.66822">
        <ele>1171</ele>
        <time>2018-07-17T08:52:40Z</time>
      </trkpt>
      <trkpt lat="44.27496" lon="5.66825">
        <ele>1171</ele>
        <time>2018-07-17T08:52:43Z</time>
      </trkpt>
      <trkpt lat="44.27497" lon="5.66826">
        <ele>1171</ele>
        <time>2018-07-17T08:52:44Z</time>
      </trkpt>
      <trkpt lat="44.27498" lon="5.66828">
        <ele>1171</ele>
        <time>2018-07-17T08:52:46Z</time>
      </trkpt>
      <trkpt lat="44.27499" lon="5.6683">
        <ele>1171</ele>
        <time>2018-07-17T08:52:50Z</time>
      </trkpt>
      <trkpt lat="44.275" lon="5.66832">
        <ele>1171</ele>
        <time>2018-07-17T08:52:52Z</time>
      </trkpt>
      <trkpt lat="44.27501" lon="5.66834">
        <ele>1171</ele>
        <time>2018-07-17T08:52:54Z</time>
      </trkpt>
      <trkpt lat="44.27503" lon="5.66836">
        <ele>1171</ele>
        <time>2018-07-17T08:52:56Z</time>
      </trkpt>
      <trkpt lat="44.27503" lon="5.66838">
        <ele>1171</ele>
        <time>2018-07-17T08:52:58Z</time>
      </trkpt>
      <trkpt lat="44.27504" lon="5.6684">
        <ele>1171</ele>
        <time>2018-07-17T08:53:00Z</time>
      </trkpt>
      <trkpt lat="44.27505" lon="5.66841">
        <ele>1171</ele>
        <time>2018-07-17T08:53:02Z</time>
      </trkpt>
      <trkpt lat="44.27507" lon="5.66844">
        <ele>1171</ele>
        <time>2018-07-17T08:53:04Z</time>
      </trkpt>
      <trkpt lat="44.27506" lon="5.66846">
        <ele>1171</ele>
        <time>2018-07-17T08:53:06Z</time>
      </trkpt>
      <trkpt lat="44.27506" lon="5.66848">
        <ele>1171</ele>
        <time>2018-07-17T08:53:07Z</time>
      </trkpt>
      <trkpt lat="44.27506" lon="5.6685">
        <ele>1171</ele>
        <time>2018-07-17T08:53:09Z</time>
      </trkpt>
      <trkpt lat="44.27507" lon="5.66852">
        <ele>1171</ele>
        <time>2018-07-17T08:53:11Z</time>
      </trkpt>
      <trkpt lat="44.27508" lon="5.66854">
        <ele>1171</ele>
        <time>2018-07-17T08:53:13Z</time>
      </trkpt>
      <trkpt lat="44.27508" lon="5.66856">
        <ele>1171</ele>
        <time>2018-07-17T08:53:14Z</time>
      </trkpt>
      <trkpt lat="44.27508" lon="5.66858">
        <ele>1171</ele>
        <time>2018-07-17T08:53:16Z</time>
      </trkpt>
      <trkpt lat="44.27508" lon="5.66859">
        <ele>1170</ele>
        <time>2018-07-17T08:53:17Z</time>
      </trkpt>
      <trkpt lat="44.27507" lon="5.66862">
        <ele>1170</ele>
        <time>2018-07-17T08:53:19Z</time>
      </trkpt>
      <trkpt lat="44.27507" lon="5.66863">
        <ele>1169</ele>
        <time>2018-07-17T08:53:21Z</time>
      </trkpt>
      <trkpt lat="44.27509" lon="5.66865">
        <ele>1168</ele>
        <time>2018-07-17T08:53:23Z</time>
      </trkpt>
      <trkpt lat="44.27509" lon="5.66868">
        <ele>1168</ele>
        <time>2018-07-17T08:53:25Z</time>
      </trkpt>
      <trkpt lat="44.2751" lon="5.6687">
        <ele>1168</ele>
        <time>2018-07-17T08:53:27Z</time>
      </trkpt>
      <trkpt lat="44.27511" lon="5.66872">
        <ele>1168</ele>
        <time>2018-07-17T08:53:28Z</time>
      </trkpt>
      <trkpt lat="44.27512" lon="5.66875">
        <ele>1168</ele>
        <time>2018-07-17T08:53:30Z</time>
      </trkpt>
      <trkpt lat="44.27513" lon="5.66876">
        <ele>1168</ele>
        <time>2018-07-17T08:53:31Z</time>
      </trkpt>
      <trkpt lat="44.27514" lon="5.66878">
        <ele>1168</ele>
        <time>2018-07-17T08:53:33Z</time>
      </trkpt>
      <trkpt lat="44.27514" lon="5.66881">
        <ele>1168</ele>
        <time>2018-07-17T08:53:35Z</time>
      </trkpt>
      <trkpt lat="44.27515" lon="5.66882">
        <ele>1168</ele>
        <time>2018-07-17T08:53:36Z</time>
      </trkpt>
      <trkpt lat="44.27515" lon="5.66884">
        <ele>1168</ele>
        <time>2018-07-17T08:53:38Z</time>
      </trkpt>
      <trkpt lat="44.27515" lon="5.66886">
        <ele>1168</ele>
        <time>2018-07-17T08:53:39Z</time>
      </trkpt>
      <trkpt lat="44.27515" lon="5.66887">
        <ele>1168</ele>
        <time>2018-07-17T08:53:40Z</time>
      </trkpt>
      <trkpt lat="44.27515" lon="5.66889">
        <ele>1168</ele>
        <time>2018-07-17T08:53:42Z</time>
      </trkpt>
      <trkpt lat="44.27514" lon="5.66892">
        <ele>1168</ele>
        <time>2018-07-17T08:53:44Z</time>
      </trkpt>
      <trkpt lat="44.27515" lon="5.66894">
        <ele>1168</ele>
        <time>2018-07-17T08:53:46Z</time>
      </trkpt>
      <trkpt lat="44.27516" lon="5.66897">
        <ele>1168</ele>
        <time>2018-07-17T08:53:48Z</time>
      </trkpt>
      <trkpt lat="44.27517" lon="5.66899">
        <ele>1168</ele>
        <time>2018-07-17T08:53:50Z</time>
      </trkpt>
      <trkpt lat="44.27518" lon="5.66901">
        <ele>1168</ele>
        <time>2018-07-17T08:53:51Z</time>
      </trkpt>
      <trkpt lat="44.27518" lon="5.66903">
        <ele>1168</ele>
        <time>2018-07-17T08:53:53Z</time>
      </trkpt>
      <trkpt lat="44.27517" lon="5.66905">
        <ele>1168</ele>
        <time>2018-07-17T08:53:55Z</time>
      </trkpt>
      <trkpt lat="44.27517" lon="5.66907">
        <ele>1168</ele>
        <time>2018-07-17T08:53:57Z</time>
      </trkpt>
      <trkpt lat="44.27517" lon="5.66909">
        <ele>1168</ele>
        <time>2018-07-17T08:53:58Z</time>
      </trkpt>
      <trkpt lat="44.27516" lon="5.6691">
        <ele>1168</ele>
        <time>2018-07-17T08:54:00Z</time>
      </trkpt>
      <trkpt lat="44.27516" lon="5.66912">
        <ele>1168</ele>
        <time>2018-07-17T08:54:02Z</time>
      </trkpt>
      <trkpt lat="44.27516" lon="5.66914">
        <ele>1168</ele>
        <time>2018-07-17T08:54:04Z</time>
      </trkpt>
      <trkpt lat="44.27515" lon="5.66917">
        <ele>1167</ele>
        <time>2018-07-17T08:54:07Z</time>
      </trkpt>
      <trkpt lat="44.27516" lon="5.66919">
        <ele>1166</ele>
        <time>2018-07-17T08:54:09Z</time>
      </trkpt>
      <trkpt lat="44.27517" lon="5.66919">
        <ele>1166</ele>
        <time>2018-07-17T08:54:10Z</time>
      </trkpt>
      <trkpt lat="44.27518" lon="5.66921">
        <ele>1166</ele>
        <time>2018-07-17T08:54:12Z</time>
      </trkpt>
      <trkpt lat="44.2752" lon="5.66924">
        <ele>1166</ele>
        <time>2018-07-17T08:54:14Z</time>
      </trkpt>
      <trkpt lat="44.27523" lon="5.66925">
        <ele>1166</ele>
        <time>2018-07-17T08:54:15Z</time>
      </trkpt>
      <trkpt lat="44.27524" lon="5.66926">
        <ele>1166</ele>
        <time>2018-07-17T08:54:16Z</time>
      </trkpt>
      <trkpt lat="44.27526" lon="5.66928">
        <ele>1166</ele>
        <time>2018-07-17T08:54:18Z</time>
      </trkpt>
      <trkpt lat="44.27527" lon="5.6693">
        <ele>1166</ele>
        <time>2018-07-17T08:54:19Z</time>
      </trkpt>
      <trkpt lat="44.27527" lon="5.66931">
        <ele>1166</ele>
        <time>2018-07-17T08:54:20Z</time>
      </trkpt>
      <trkpt lat="44.27527" lon="5.66933">
        <ele>1166</ele>
        <time>2018-07-17T08:54:21Z</time>
      </trkpt>
      <trkpt lat="44.27526" lon="5.66936">
        <ele>1166</ele>
        <time>2018-07-17T08:54:23Z</time>
      </trkpt>
      <trkpt lat="44.27526" lon="5.66937">
        <ele>1166</ele>
        <time>2018-07-17T08:54:24Z</time>
      </trkpt>
      <trkpt lat="44.27525" lon="5.66939">
        <ele>1166</ele>
        <time>2018-07-17T08:54:26Z</time>
      </trkpt>
      <trkpt lat="44.27525" lon="5.66941">
        <ele>1166</ele>
        <time>2018-07-17T08:54:28Z</time>
      </trkpt>
      <trkpt lat="44.27524" lon="5.66943">
        <ele>1166</ele>
        <time>2018-07-17T08:54:30Z</time>
      </trkpt>
      <trkpt lat="44.27522" lon="5.66943">
        <ele>1166</ele>
        <time>2018-07-17T08:54:32Z</time>
      </trkpt>
      <trkpt lat="44.27521" lon="5.66944">
        <ele>1166</ele>
        <time>2018-07-17T08:54:34Z</time>
      </trkpt>
      <trkpt lat="44.27519" lon="5.66945">
        <ele>1166</ele>
        <time>2018-07-17T08:54:36Z</time>
      </trkpt>
      <trkpt lat="44.27517" lon="5.66947">
        <ele>1166</ele>
        <time>2018-07-17T08:54:39Z</time>
      </trkpt>
      <trkpt lat="44.27516" lon="5.66948">
        <ele>1166</ele>
        <time>2018-07-17T08:54:40Z</time>
      </trkpt>
      <trkpt lat="44.27517" lon="5.6695">
        <ele>1166</ele>
        <time>2018-07-17T08:54:41Z</time>
      </trkpt>
      <trkpt lat="44.27517" lon="5.66951">
        <ele>1166</ele>
        <time>2018-07-17T08:54:42Z</time>
      </trkpt>
      <trkpt lat="44.27518" lon="5.66954">
        <ele>1165</ele>
        <time>2018-07-17T08:54:44Z</time>
      </trkpt>
      <trkpt lat="44.2752" lon="5.66955">
        <ele>1165</ele>
        <time>2018-07-17T08:54:46Z</time>
      </trkpt>
      <trkpt lat="44.27521" lon="5.66957">
        <ele>1165</ele>
        <time>2018-07-17T08:54:47Z</time>
      </trkpt>
      <trkpt lat="44.2752" lon="5.66959">
        <ele>1165</ele>
        <time>2018-07-17T08:54:49Z</time>
      </trkpt>
      <trkpt lat="44.27521" lon="5.66961">
        <ele>1165</ele>
        <time>2018-07-17T08:54:50Z</time>
      </trkpt>
      <trkpt lat="44.27521" lon="5.66963">
        <ele>1164</ele>
        <time>2018-07-17T08:54:53Z</time>
      </trkpt>
      <trkpt lat="44.27523" lon="5.66965">
        <ele>1164</ele>
        <time>2018-07-17T08:54:55Z</time>
      </trkpt>
      <trkpt lat="44.27524" lon="5.66966">
        <ele>1164</ele>
        <time>2018-07-17T08:54:56Z</time>
      </trkpt>
      <trkpt lat="44.27526" lon="5.66968">
        <ele>1164</ele>
        <time>2018-07-17T08:54:57Z</time>
      </trkpt>
      <trkpt lat="44.27527" lon="5.66971">
        <ele>1164</ele>
        <time>2018-07-17T08:54:59Z</time>
      </trkpt>
      <trkpt lat="44.27528" lon="5.66973">
        <ele>1164</ele>
        <time>2018-07-17T08:55:01Z</time>
      </trkpt>
      <trkpt lat="44.27529" lon="5.66975">
        <ele>1164</ele>
        <time>2018-07-17T08:55:03Z</time>
      </trkpt>
      <trkpt lat="44.2753" lon="5.66978">
        <ele>1164</ele>
        <time>2018-07-17T08:55:06Z</time>
      </trkpt>
      <trkpt lat="44.27531" lon="5.6698">
        <ele>1164</ele>
        <time>2018-07-17T08:55:08Z</time>
      </trkpt>
      <trkpt lat="44.2753" lon="5.66982">
        <ele>1164</ele>
        <time>2018-07-17T08:55:10Z</time>
      </trkpt>
      <trkpt lat="44.2753" lon="5.66985">
        <ele>1164</ele>
        <time>2018-07-17T08:55:12Z</time>
      </trkpt>
      <trkpt lat="44.27531" lon="5.66987">
        <ele>1164</ele>
        <time>2018-07-17T08:55:13Z</time>
      </trkpt>
      <trkpt lat="44.27531" lon="5.66989">
        <ele>1164</ele>
        <time>2018-07-17T08:55:15Z</time>
      </trkpt>
      <trkpt lat="44.27531" lon="5.66991">
        <ele>1164</ele>
        <time>2018-07-17T08:55:17Z</time>
      </trkpt>
      <trkpt lat="44.27532" lon="5.66993">
        <ele>1164</ele>
        <time>2018-07-17T08:55:19Z</time>
      </trkpt>
      <trkpt lat="44.27533" lon="5.66995">
        <ele>1164</ele>
        <time>2018-07-17T08:55:21Z</time>
      </trkpt>
      <trkpt lat="44.27534" lon="5.66998">
        <ele>1164</ele>
        <time>2018-07-17T08:55:23Z</time>
      </trkpt>
      <trkpt lat="44.27535" lon="5.67001">
        <ele>1164</ele>
        <time>2018-07-17T08:55:25Z</time>
      </trkpt>
      <trkpt lat="44.27536" lon="5.67003">
        <ele>1165</ele>
        <time>2018-07-17T08:55:27Z</time>
      </trkpt>
      <trkpt lat="44.27536" lon="5.67006">
        <ele>1165</ele>
        <time>2018-07-17T08:55:29Z</time>
      </trkpt>
      <trkpt lat="44.27537" lon="5.67007">
        <ele>1165</ele>
        <time>2018-07-17T08:55:31Z</time>
      </trkpt>
      <trkpt lat="44.27537" lon="5.6701">
        <ele>1165</ele>
        <time>2018-07-17T08:55:33Z</time>
      </trkpt>
      <trkpt lat="44.27539" lon="5.67012">
        <ele>1165</ele>
        <time>2018-07-17T08:55:35Z</time>
      </trkpt>
      <trkpt lat="44.27539" lon="5.67014">
        <ele>1165</ele>
        <time>2018-07-17T08:55:36Z</time>
      </trkpt>
      <trkpt lat="44.27538" lon="5.67016">
        <ele>1165</ele>
        <time>2018-07-17T08:55:38Z</time>
      </trkpt>
      <trkpt lat="44.27538" lon="5.67018">
        <ele>1165</ele>
        <time>2018-07-17T08:55:39Z</time>
      </trkpt>
      <trkpt lat="44.27538" lon="5.67019">
        <ele>1165</ele>
        <time>2018-07-17T08:55:40Z</time>
      </trkpt>
      <trkpt lat="44.27538" lon="5.67022">
        <ele>1165</ele>
        <time>2018-07-17T08:55:42Z</time>
      </trkpt>
      <trkpt lat="44.27538" lon="5.67023">
        <ele>1165</ele>
        <time>2018-07-17T08:55:43Z</time>
      </trkpt>
      <trkpt lat="44.27539" lon="5.67025">
        <ele>1165</ele>
        <time>2018-07-17T08:55:44Z</time>
      </trkpt>
      <trkpt lat="44.27539" lon="5.67027">
        <ele>1165</ele>
        <time>2018-07-17T08:55:46Z</time>
      </trkpt>
      <trkpt lat="44.27539" lon="5.6703">
        <ele>1165</ele>
        <time>2018-07-17T08:55:48Z</time>
      </trkpt>
      <trkpt lat="44.27539" lon="5.67032">
        <ele>1165</ele>
        <time>2018-07-17T08:55:50Z</time>
      </trkpt>
      <trkpt lat="44.2754" lon="5.67035">
        <ele>1165</ele>
        <time>2018-07-17T08:55:52Z</time>
      </trkpt>
      <trkpt lat="44.27541" lon="5.67036">
        <ele>1165</ele>
        <time>2018-07-17T08:55:53Z</time>
      </trkpt>
      <trkpt lat="44.27542" lon="5.67039">
        <ele>1165</ele>
        <time>2018-07-17T08:55:55Z</time>
      </trkpt>
      <trkpt lat="44.27543" lon="5.67041">
        <ele>1165</ele>
        <time>2018-07-17T08:55:57Z</time>
      </trkpt>
      <trkpt lat="44.27542" lon="5.67043">
        <ele>1165</ele>
        <time>2018-07-17T08:55:59Z</time>
      </trkpt>
      <trkpt lat="44.27541" lon="5.67046">
        <ele>1165</ele>
        <time>2018-07-17T08:56:01Z</time>
      </trkpt>
      <trkpt lat="44.27541" lon="5.67048">
        <ele>1165</ele>
        <time>2018-07-17T08:56:03Z</time>
      </trkpt>
      <trkpt lat="44.27541" lon="5.67049">
        <ele>1165</ele>
        <time>2018-07-17T08:56:05Z</time>
      </trkpt>
      <trkpt lat="44.27541" lon="5.67051">
        <ele>1165</ele>
        <time>2018-07-17T08:56:07Z</time>
      </trkpt>
      <trkpt lat="44.27541" lon="5.67054">
        <ele>1165</ele>
        <time>2018-07-17T08:56:09Z</time>
      </trkpt>
      <trkpt lat="44.27542" lon="5.67055">
        <ele>1165</ele>
        <time>2018-07-17T08:56:11Z</time>
      </trkpt>
      <trkpt lat="44.27543" lon="5.67057">
        <ele>1165</ele>
        <time>2018-07-17T08:56:12Z</time>
      </trkpt>
      <trkpt lat="44.27544" lon="5.67059">
        <ele>1165</ele>
        <time>2018-07-17T08:56:14Z</time>
      </trkpt>
      <trkpt lat="44.27544" lon="5.67061">
        <ele>1165</ele>
        <time>2018-07-17T08:56:16Z</time>
      </trkpt>
      <trkpt lat="44.27544" lon="5.67063">
        <ele>1165</ele>
        <time>2018-07-17T08:56:18Z</time>
      </trkpt>
      <trkpt lat="44.27544" lon="5.67065">
        <ele>1165</ele>
        <time>2018-07-17T08:56:20Z</time>
      </trkpt>
      <trkpt lat="44.27545" lon="5.67067">
        <ele>1165</ele>
        <time>2018-07-17T08:56:22Z</time>
      </trkpt>
      <trkpt lat="44.27546" lon="5.67069">
        <ele>1165</ele>
        <time>2018-07-17T08:56:24Z</time>
      </trkpt>
      <trkpt lat="44.27546" lon="5.67071">
        <ele>1165</ele>
        <time>2018-07-17T08:56:25Z</time>
      </trkpt>
      <trkpt lat="44.27546" lon="5.67072">
        <ele>1165</ele>
        <time>2018-07-17T08:56:26Z</time>
      </trkpt>
      <trkpt lat="44.27547" lon="5.67074">
        <ele>1165</ele>
        <time>2018-07-17T08:56:27Z</time>
      </trkpt>
      <trkpt lat="44.27547" lon="5.67076">
        <ele>1165</ele>
        <time>2018-07-17T08:56:29Z</time>
      </trkpt>
      <trkpt lat="44.27548" lon="5.67078">
        <ele>1165</ele>
        <time>2018-07-17T08:56:31Z</time>
      </trkpt>
      <trkpt lat="44.27547" lon="5.6708">
        <ele>1165</ele>
        <time>2018-07-17T08:56:33Z</time>
      </trkpt>
      <trkpt lat="44.27547" lon="5.67082">
        <ele>1165</ele>
        <time>2018-07-17T08:56:35Z</time>
      </trkpt>
      <trkpt lat="44.27547" lon="5.67084">
        <ele>1165</ele>
        <time>2018-07-17T08:56:37Z</time>
      </trkpt>
      <trkpt lat="44.27548" lon="5.67087">
        <ele>1165</ele>
        <time>2018-07-17T08:56:39Z</time>
      </trkpt>
      <trkpt lat="44.27549" lon="5.67089">
        <ele>1165</ele>
        <time>2018-07-17T08:56:41Z</time>
      </trkpt>
      <trkpt lat="44.27551" lon="5.6709">
        <ele>1165</ele>
        <time>2018-07-17T08:56:42Z</time>
      </trkpt>
      <trkpt lat="44.27552" lon="5.67092">
        <ele>1165</ele>
        <time>2018-07-17T08:56:44Z</time>
      </trkpt>
      <trkpt lat="44.27553" lon="5.67094">
        <ele>1165</ele>
        <time>2018-07-17T08:56:46Z</time>
      </trkpt>
      <trkpt lat="44.27554" lon="5.67096">
        <ele>1165</ele>
        <time>2018-07-17T08:56:48Z</time>
      </trkpt>
      <trkpt lat="44.27554" lon="5.67098">
        <ele>1165</ele>
        <time>2018-07-17T08:56:50Z</time>
      </trkpt>
      <trkpt lat="44.27554" lon="5.671">
        <ele>1165</ele>
        <time>2018-07-17T08:56:52Z</time>
      </trkpt>
      <trkpt lat="44.27555" lon="5.67101">
        <ele>1165</ele>
        <time>2018-07-17T08:56:55Z</time>
      </trkpt>
      <trkpt lat="44.27556" lon="5.67103">
        <ele>1164</ele>
        <time>2018-07-17T08:56:58Z</time>
      </trkpt>
      <trkpt lat="44.27557" lon="5.67105">
        <ele>1164</ele>
        <time>2018-07-17T08:57:00Z</time>
      </trkpt>
      <trkpt lat="44.27559" lon="5.67107">
        <ele>1164</ele>
        <time>2018-07-17T08:57:02Z</time>
      </trkpt>
      <trkpt lat="44.2756" lon="5.67109">
        <ele>1164</ele>
        <time>2018-07-17T08:57:04Z</time>
      </trkpt>
      <trkpt lat="44.27561" lon="5.67111">
        <ele>1164</ele>
        <time>2018-07-17T08:57:06Z</time>
      </trkpt>
      <trkpt lat="44.27561" lon="5.67113">
        <ele>1164</ele>
        <time>2018-07-17T08:57:08Z</time>
      </trkpt>
      <trkpt lat="44.2756" lon="5.67116">
        <ele>1164</ele>
        <time>2018-07-17T08:57:10Z</time>
      </trkpt>
      <trkpt lat="44.2756" lon="5.67118">
        <ele>1164</ele>
        <time>2018-07-17T08:57:12Z</time>
      </trkpt>
      <trkpt lat="44.2756" lon="5.6712">
        <ele>1164</ele>
        <time>2018-07-17T08:57:14Z</time>
      </trkpt>
      <trkpt lat="44.2756" lon="5.67122">
        <ele>1164</ele>
        <time>2018-07-17T08:57:16Z</time>
      </trkpt>
      <trkpt lat="44.27561" lon="5.67124">
        <ele>1162</ele>
        <time>2018-07-17T08:57:18Z</time>
      </trkpt>
      <trkpt lat="44.27562" lon="5.67126">
        <ele>1161</ele>
        <time>2018-07-17T08:57:20Z</time>
      </trkpt>
      <trkpt lat="44.27563" lon="5.67129">
        <ele>1160</ele>
        <time>2018-07-17T08:57:22Z</time>
      </trkpt>
      <trkpt lat="44.27563" lon="5.6713">
        <ele>1160</ele>
        <time>2018-07-17T08:57:24Z</time>
      </trkpt>
      <trkpt lat="44.27565" lon="5.67133">
        <ele>1160</ele>
        <time>2018-07-17T08:57:26Z</time>
      </trkpt>
      <trkpt lat="44.27566" lon="5.67135">
        <ele>1159</ele>
        <time>2018-07-17T08:57:28Z</time>
      </trkpt>
      <trkpt lat="44.27566" lon="5.67137">
        <ele>1159</ele>
        <time>2018-07-17T08:57:30Z</time>
      </trkpt>
      <trkpt lat="44.27566" lon="5.67139">
        <ele>1159</ele>
        <time>2018-07-17T08:57:31Z</time>
      </trkpt>
      <trkpt lat="44.27567" lon="5.67141">
        <ele>1158</ele>
        <time>2018-07-17T08:57:33Z</time>
      </trkpt>
      <trkpt lat="44.27568" lon="5.67142">
        <ele>1158</ele>
        <time>2018-07-17T08:57:35Z</time>
      </trkpt>
      <trkpt lat="44.27569" lon="5.67144">
        <ele>1158</ele>
        <time>2018-07-17T08:57:36Z</time>
      </trkpt>
      <trkpt lat="44.2757" lon="5.67146">
        <ele>1158</ele>
        <time>2018-07-17T08:57:38Z</time>
      </trkpt>
      <trkpt lat="44.27573" lon="5.67148">
        <ele>1158</ele>
        <time>2018-07-17T08:57:40Z</time>
      </trkpt>
      <trkpt lat="44.27573" lon="5.6715">
        <ele>1158</ele>
        <time>2018-07-17T08:57:41Z</time>
      </trkpt>
      <trkpt lat="44.27574" lon="5.67151">
        <ele>1158</ele>
        <time>2018-07-17T08:57:43Z</time>
      </trkpt>
      <trkpt lat="44.27576" lon="5.67154">
        <ele>1158</ele>
        <time>2018-07-17T08:57:45Z</time>
      </trkpt>
      <trkpt lat="44.27577" lon="5.67156">
        <ele>1158</ele>
        <time>2018-07-17T08:57:47Z</time>
      </trkpt>
      <trkpt lat="44.27577" lon="5.67158">
        <ele>1158</ele>
        <time>2018-07-17T08:57:49Z</time>
      </trkpt>
      <trkpt lat="44.27578" lon="5.6716">
        <ele>1158</ele>
        <time>2018-07-17T08:57:51Z</time>
      </trkpt>
      <trkpt lat="44.27579" lon="5.67162">
        <ele>1158</ele>
        <time>2018-07-17T08:57:53Z</time>
      </trkpt>
      <trkpt lat="44.27581" lon="5.67164">
        <ele>1158</ele>
        <time>2018-07-17T08:57:55Z</time>
      </trkpt>
      <trkpt lat="44.27581" lon="5.67167">
        <ele>1158</ele>
        <time>2018-07-17T08:57:57Z</time>
      </trkpt>
      <trkpt lat="44.27581" lon="5.67169">
        <ele>1158</ele>
        <time>2018-07-17T08:57:59Z</time>
      </trkpt>
      <trkpt lat="44.27581" lon="5.67171">
        <ele>1158</ele>
        <time>2018-07-17T08:58:00Z</time>
      </trkpt>
      <trkpt lat="44.27581" lon="5.67173">
        <ele>1158</ele>
        <time>2018-07-17T08:58:02Z</time>
      </trkpt>
      <trkpt lat="44.27581" lon="5.67175">
        <ele>1158</ele>
        <time>2018-07-17T08:58:04Z</time>
      </trkpt>
      <trkpt lat="44.27582" lon="5.67177">
        <ele>1158</ele>
        <time>2018-07-17T08:58:06Z</time>
      </trkpt>
      <trkpt lat="44.27584" lon="5.6718">
        <ele>1158</ele>
        <time>2018-07-17T08:58:08Z</time>
      </trkpt>
      <trkpt lat="44.27584" lon="5.67182">
        <ele>1158</ele>
        <time>2018-07-17T08:58:10Z</time>
      </trkpt>
      <trkpt lat="44.27584" lon="5.67184">
        <ele>1158</ele>
        <time>2018-07-17T08:58:12Z</time>
      </trkpt>
      <trkpt lat="44.27584" lon="5.67186">
        <ele>1158</ele>
        <time>2018-07-17T08:58:14Z</time>
      </trkpt>
      <trkpt lat="44.27586" lon="5.67188">
        <ele>1158</ele>
        <time>2018-07-17T08:58:17Z</time>
      </trkpt>
      <trkpt lat="44.27588" lon="5.67189">
        <ele>1158</ele>
        <time>2018-07-17T08:58:19Z</time>
      </trkpt>
      <trkpt lat="44.2759" lon="5.67191">
        <ele>1158</ele>
        <time>2018-07-17T08:58:21Z</time>
      </trkpt>
      <trkpt lat="44.27591" lon="5.67194">
        <ele>1158</ele>
        <time>2018-07-17T08:58:23Z</time>
      </trkpt>
      <trkpt lat="44.27592" lon="5.67195">
        <ele>1158</ele>
        <time>2018-07-17T08:58:24Z</time>
      </trkpt>
      <trkpt lat="44.27593" lon="5.67197">
        <ele>1158</ele>
        <time>2018-07-17T08:58:26Z</time>
      </trkpt>
      <trkpt lat="44.27594" lon="5.67199">
        <ele>1159</ele>
        <time>2018-07-17T08:58:28Z</time>
      </trkpt>
      <trkpt lat="44.27593" lon="5.672">
        <ele>1160</ele>
        <time>2018-07-17T08:58:29Z</time>
      </trkpt>
      <trkpt lat="44.27594" lon="5.67203">
        <ele>1160</ele>
        <time>2018-07-17T08:58:32Z</time>
      </trkpt>
      <trkpt lat="44.27595" lon="5.67205">
        <ele>1160</ele>
        <time>2018-07-17T08:58:34Z</time>
      </trkpt>
      <trkpt lat="44.27595" lon="5.67207">
        <ele>1160</ele>
        <time>2018-07-17T08:58:35Z</time>
      </trkpt>
      <trkpt lat="44.27594" lon="5.67209">
        <ele>1160</ele>
        <time>2018-07-17T08:58:37Z</time>
      </trkpt>
      <trkpt lat="44.27595" lon="5.67211">
        <ele>1160</ele>
        <time>2018-07-17T08:58:39Z</time>
      </trkpt>
      <trkpt lat="44.27595" lon="5.67212">
        <ele>1160</ele>
        <time>2018-07-17T08:58:41Z</time>
      </trkpt>
      <trkpt lat="44.27594" lon="5.67214">
        <ele>1160</ele>
        <time>2018-07-17T08:58:43Z</time>
      </trkpt>
      <trkpt lat="44.27594" lon="5.67216">
        <ele>1160</ele>
        <time>2018-07-17T08:58:44Z</time>
      </trkpt>
      <trkpt lat="44.27593" lon="5.67217">
        <ele>1160</ele>
        <time>2018-07-17T08:58:46Z</time>
      </trkpt>
      <trkpt lat="44.27594" lon="5.67219">
        <ele>1159</ele>
        <time>2018-07-17T08:58:48Z</time>
      </trkpt>
      <trkpt lat="44.27596" lon="5.67221">
        <ele>1158</ele>
        <time>2018-07-17T08:58:50Z</time>
      </trkpt>
      <trkpt lat="44.27598" lon="5.67223">
        <ele>1158</ele>
        <time>2018-07-17T08:58:52Z</time>
      </trkpt>
      <trkpt lat="44.27599" lon="5.67225">
        <ele>1158</ele>
        <time>2018-07-17T08:58:54Z</time>
      </trkpt>
      <trkpt lat="44.27601" lon="5.67227">
        <ele>1158</ele>
        <time>2018-07-17T08:58:56Z</time>
      </trkpt>
      <trkpt lat="44.27604" lon="5.67229">
        <ele>1158</ele>
        <time>2018-07-17T08:58:58Z</time>
      </trkpt>
      <trkpt lat="44.27606" lon="5.6723">
        <ele>1158</ele>
        <time>2018-07-17T08:58:59Z</time>
      </trkpt>
      <trkpt lat="44.27608" lon="5.67231">
        <ele>1158</ele>
        <time>2018-07-17T08:59:00Z</time>
      </trkpt>
      <trkpt lat="44.27609" lon="5.67232">
        <ele>1158</ele>
        <time>2018-07-17T08:59:01Z</time>
      </trkpt>
      <trkpt lat="44.2761" lon="5.67234">
        <ele>1158</ele>
        <time>2018-07-17T08:59:03Z</time>
      </trkpt>
      <trkpt lat="44.27612" lon="5.67236">
        <ele>1158</ele>
        <time>2018-07-17T08:59:06Z</time>
      </trkpt>
      <trkpt lat="44.27613" lon="5.67238">
        <ele>1158</ele>
        <time>2018-07-17T08:59:08Z</time>
      </trkpt>
      <trkpt lat="44.27612" lon="5.6724">
        <ele>1158</ele>
        <time>2018-07-17T08:59:10Z</time>
      </trkpt>
      <trkpt lat="44.27611" lon="5.67243">
        <ele>1158</ele>
        <time>2018-07-17T08:59:12Z</time>
      </trkpt>
      <trkpt lat="44.27612" lon="5.67245">
        <ele>1158</ele>
        <time>2018-07-17T08:59:14Z</time>
      </trkpt>
      <trkpt lat="44.27612" lon="5.67247">
        <ele>1158</ele>
        <time>2018-07-17T08:59:15Z</time>
      </trkpt>
      <trkpt lat="44.27613" lon="5.67249">
        <ele>1158</ele>
        <time>2018-07-17T08:59:17Z</time>
      </trkpt>
      <trkpt lat="44.27614" lon="5.67251">
        <ele>1158</ele>
        <time>2018-07-17T08:59:19Z</time>
      </trkpt>
      <trkpt lat="44.27613" lon="5.67252">
        <ele>1158</ele>
        <time>2018-07-17T08:59:20Z</time>
      </trkpt>
      <trkpt lat="44.27612" lon="5.67254">
        <ele>1157</ele>
        <time>2018-07-17T08:59:21Z</time>
      </trkpt>
      <trkpt lat="44.27612" lon="5.67256">
        <ele>1157</ele>
        <time>2018-07-17T08:59:23Z</time>
      </trkpt>
      <trkpt lat="44.27613" lon="5.67259">
        <ele>1157</ele>
        <time>2018-07-17T08:59:25Z</time>
      </trkpt>
      <trkpt lat="44.27613" lon="5.6726">
        <ele>1157</ele>
        <time>2018-07-17T08:59:26Z</time>
      </trkpt>
      <trkpt lat="44.27614" lon="5.67262">
        <ele>1157</ele>
        <time>2018-07-17T08:59:27Z</time>
      </trkpt>
      <trkpt lat="44.27615" lon="5.67263">
        <ele>1156</ele>
        <time>2018-07-17T08:59:28Z</time>
      </trkpt>
      <trkpt lat="44.27616" lon="5.67266">
        <ele>1156</ele>
        <time>2018-07-17T08:59:30Z</time>
      </trkpt>
      <trkpt lat="44.27618" lon="5.67268">
        <ele>1156</ele>
        <time>2018-07-17T08:59:32Z</time>
      </trkpt>
      <trkpt lat="44.27618" lon="5.6727">
        <ele>1156</ele>
        <time>2018-07-17T08:59:34Z</time>
      </trkpt>
      <trkpt lat="44.27619" lon="5.67272">
        <ele>1156</ele>
        <time>2018-07-17T08:59:37Z</time>
      </trkpt>
      <trkpt lat="44.2762" lon="5.67273">
        <ele>1156</ele>
        <time>2018-07-17T08:59:39Z</time>
      </trkpt>
      <trkpt lat="44.2762" lon="5.67275">
        <ele>1156</ele>
        <time>2018-07-17T08:59:42Z</time>
      </trkpt>
      <trkpt lat="44.27619" lon="5.67275">
        <ele>1156</ele>
        <time>2018-07-17T08:59:52Z</time>
      </trkpt>
      <trkpt lat="44.27617" lon="5.67275">
        <ele>1154</ele>
        <time>2018-07-17T08:59:55Z</time>
      </trkpt>
      <trkpt lat="44.27618" lon="5.67276">
        <ele>1153</ele>
        <time>2018-07-17T08:59:59Z</time>
      </trkpt>
      <trkpt lat="44.27618" lon="5.67278">
        <ele>1153</ele>
        <time>2018-07-17T09:00:03Z</time>
      </trkpt>
      <trkpt lat="44.27617" lon="5.67278">
        <ele>1151</ele>
        <time>2018-07-17T09:00:09Z</time>
      </trkpt>
      <trkpt lat="44.27616" lon="5.67278">
        <ele>1151</ele>
        <time>2018-07-17T09:00:11Z</time>
      </trkpt>
      <trkpt lat="44.27614" lon="5.67277">
        <ele>1150</ele>
        <time>2018-07-17T09:00:17Z</time>
      </trkpt>
      <trkpt lat="44.27613" lon="5.67275">
        <ele>1149</ele>
        <time>2018-07-17T09:00:19Z</time>
      </trkpt>
      <trkpt lat="44.27612" lon="5.67276">
        <ele>1146</ele>
        <time>2018-07-17T09:00:22Z</time>
      </trkpt>
      <trkpt lat="44.27608" lon="5.67277">
        <ele>1145</ele>
        <time>2018-07-17T09:00:25Z</time>
      </trkpt>
      <trkpt lat="44.27607" lon="5.67278">
        <ele>1144</ele>
        <time>2018-07-17T09:00:26Z</time>
      </trkpt>
      <trkpt lat="44.27605" lon="5.67277">
        <ele>1143</ele>
        <time>2018-07-17T09:00:27Z</time>
      </trkpt>
      <trkpt lat="44.27604" lon="5.67277">
        <ele>1143</ele>
        <time>2018-07-17T09:00:28Z</time>
      </trkpt>
      <trkpt lat="44.27602" lon="5.67278">
        <ele>1141</ele>
        <time>2018-07-17T09:00:30Z</time>
      </trkpt>
      <trkpt lat="44.27602" lon="5.6728">
        <ele>1139</ele>
        <time>2018-07-17T09:00:33Z</time>
      </trkpt>
      <trkpt lat="44.27601" lon="5.6728">
        <ele>1138</ele>
        <time>2018-07-17T09:00:36Z</time>
      </trkpt>
      <trkpt lat="44.276" lon="5.67282">
        <ele>1137</ele>
        <time>2018-07-17T09:00:40Z</time>
      </trkpt>
      <trkpt lat="44.276" lon="5.67284">
        <ele>1137</ele>
        <time>2018-07-17T09:00:43Z</time>
      </trkpt>
      <trkpt lat="44.27599" lon="5.67286">
        <ele>1136</ele>
        <time>2018-07-17T09:00:52Z</time>
      </trkpt>
      <trkpt lat="44.27604" lon="5.67287">
        <ele>1136</ele>
        <time>2018-07-17T09:00:53Z</time>
      </trkpt>
      <trkpt lat="44.27607" lon="5.67288">
        <ele>1136</ele>
        <time>2018-07-17T09:00:54Z</time>
      </trkpt>
      <trkpt lat="44.2761" lon="5.67289">
        <ele>1137</ele>
        <time>2018-07-17T09:00:56Z</time>
      </trkpt>
      <trkpt lat="44.27611" lon="5.67291">
        <ele>1141</ele>
        <time>2018-07-17T09:01:02Z</time>
      </trkpt>
      <trkpt lat="44.27611" lon="5.67293">
        <ele>1142</ele>
        <time>2018-07-17T09:01:04Z</time>
      </trkpt>
      <trkpt lat="44.27612" lon="5.67294">
        <ele>1143</ele>
        <time>2018-07-17T09:01:06Z</time>
      </trkpt>
      <trkpt lat="44.27613" lon="5.67295">
        <ele>1144</ele>
        <time>2018-07-17T09:01:08Z</time>
      </trkpt>
      <trkpt lat="44.27614" lon="5.67296">
        <ele>1144</ele>
        <time>2018-07-17T09:01:10Z</time>
      </trkpt>
      <trkpt lat="44.27615" lon="5.67298">
        <ele>1144</ele>
        <time>2018-07-17T09:01:12Z</time>
      </trkpt>
      <trkpt lat="44.27617" lon="5.673">
        <ele>1144</ele>
        <time>2018-07-17T09:01:14Z</time>
      </trkpt>
      <trkpt lat="44.27617" lon="5.67302">
        <ele>1144</ele>
        <time>2018-07-17T09:01:16Z</time>
      </trkpt>
      <trkpt lat="44.27618" lon="5.67304">
        <ele>1144</ele>
        <time>2018-07-17T09:01:18Z</time>
      </trkpt>
      <trkpt lat="44.27618" lon="5.67307">
        <ele>1144</ele>
        <time>2018-07-17T09:01:20Z</time>
      </trkpt>
      <trkpt lat="44.27619" lon="5.67309">
        <ele>1144</ele>
        <time>2018-07-17T09:01:22Z</time>
      </trkpt>
      <trkpt lat="44.2762" lon="5.6731">
        <ele>1144</ele>
        <time>2018-07-17T09:01:23Z</time>
      </trkpt>
      <trkpt lat="44.27621" lon="5.67312">
        <ele>1144</ele>
        <time>2018-07-17T09:01:24Z</time>
      </trkpt>
      <trkpt lat="44.2762" lon="5.67314">
        <ele>1144</ele>
        <time>2018-07-17T09:01:26Z</time>
      </trkpt>
      <trkpt lat="44.2762" lon="5.67316">
        <ele>1144</ele>
        <time>2018-07-17T09:01:28Z</time>
      </trkpt>
      <trkpt lat="44.2762" lon="5.67318">
        <ele>1144</ele>
        <time>2018-07-17T09:01:30Z</time>
      </trkpt>
      <trkpt lat="44.2762" lon="5.67321">
        <ele>1144</ele>
        <time>2018-07-17T09:01:32Z</time>
      </trkpt>
      <trkpt lat="44.2762" lon="5.67322">
        <ele>1144</ele>
        <time>2018-07-17T09:01:33Z</time>
      </trkpt>
      <trkpt lat="44.27621" lon="5.67324">
        <ele>1144</ele>
        <time>2018-07-17T09:01:34Z</time>
      </trkpt>
      <trkpt lat="44.27621" lon="5.67325">
        <ele>1144</ele>
        <time>2018-07-17T09:01:35Z</time>
      </trkpt>
      <trkpt lat="44.27622" lon="5.67328">
        <ele>1144</ele>
        <time>2018-07-17T09:01:37Z</time>
      </trkpt>
      <trkpt lat="44.27623" lon="5.6733">
        <ele>1144</ele>
        <time>2018-07-17T09:01:39Z</time>
      </trkpt>
      <trkpt lat="44.27623" lon="5.67332">
        <ele>1144</ele>
        <time>2018-07-17T09:01:41Z</time>
      </trkpt>
      <trkpt lat="44.27623" lon="5.67334">
        <ele>1144</ele>
        <time>2018-07-17T09:01:43Z</time>
      </trkpt>
      <trkpt lat="44.27623" lon="5.67336">
        <ele>1144</ele>
        <time>2018-07-17T09:01:44Z</time>
      </trkpt>
      <trkpt lat="44.27625" lon="5.67337">
        <ele>1144</ele>
        <time>2018-07-17T09:01:45Z</time>
      </trkpt>
      <trkpt lat="44.27626" lon="5.67338">
        <ele>1144</ele>
        <time>2018-07-17T09:01:46Z</time>
      </trkpt>
      <trkpt lat="44.27627" lon="5.67339">
        <ele>1144</ele>
        <time>2018-07-17T09:01:47Z</time>
      </trkpt>
      <trkpt lat="44.27628" lon="5.67341">
        <ele>1144</ele>
        <time>2018-07-17T09:01:49Z</time>
      </trkpt>
      <trkpt lat="44.27628" lon="5.67343">
        <ele>1144</ele>
        <time>2018-07-17T09:01:51Z</time>
      </trkpt>
      <trkpt lat="44.27628" lon="5.67345">
        <ele>1144</ele>
        <time>2018-07-17T09:01:53Z</time>
      </trkpt>
      <trkpt lat="44.2763" lon="5.67346">
        <ele>1144</ele>
        <time>2018-07-17T09:01:55Z</time>
      </trkpt>
      <trkpt lat="44.27632" lon="5.67347">
        <ele>1144</ele>
        <time>2018-07-17T09:01:57Z</time>
      </trkpt>
      <trkpt lat="44.27633" lon="5.67348">
        <ele>1144</ele>
        <time>2018-07-17T09:01:58Z</time>
      </trkpt>
      <trkpt lat="44.27634" lon="5.67349">
        <ele>1144</ele>
        <time>2018-07-17T09:01:59Z</time>
      </trkpt>
      <trkpt lat="44.27636" lon="5.67349">
        <ele>1144</ele>
        <time>2018-07-17T09:02:00Z</time>
      </trkpt>
      <trkpt lat="44.27637" lon="5.6735">
        <ele>1144</ele>
        <time>2018-07-17T09:02:01Z</time>
      </trkpt>
      <trkpt lat="44.27639" lon="5.67352">
        <ele>1144</ele>
        <time>2018-07-17T09:02:04Z</time>
      </trkpt>
      <trkpt lat="44.27641" lon="5.67353">
        <ele>1144</ele>
        <time>2018-07-17T09:02:05Z</time>
      </trkpt>
      <trkpt lat="44.27642" lon="5.67354">
        <ele>1144</ele>
        <time>2018-07-17T09:02:07Z</time>
      </trkpt>
      <trkpt lat="44.27644" lon="5.67356">
        <ele>1144</ele>
        <time>2018-07-17T09:02:09Z</time>
      </trkpt>
      <trkpt lat="44.27645" lon="5.67358">
        <ele>1144</ele>
        <time>2018-07-17T09:02:11Z</time>
      </trkpt>
      <trkpt lat="44.27647" lon="5.67358">
        <ele>1144</ele>
        <time>2018-07-17T09:02:12Z</time>
      </trkpt>
      <trkpt lat="44.27649" lon="5.67359">
        <ele>1144</ele>
        <time>2018-07-17T09:02:14Z</time>
      </trkpt>
      <trkpt lat="44.27651" lon="5.67361">
        <ele>1144</ele>
        <time>2018-07-17T09:02:17Z</time>
      </trkpt>
      <trkpt lat="44.27652" lon="5.67361">
        <ele>1144</ele>
        <time>2018-07-17T09:02:18Z</time>
      </trkpt>
      <trkpt lat="44.27654" lon="5.67363">
        <ele>1144</ele>
        <time>2018-07-17T09:02:20Z</time>
      </trkpt>
      <trkpt lat="44.27655" lon="5.67365">
        <ele>1144</ele>
        <time>2018-07-17T09:02:22Z</time>
      </trkpt>
      <trkpt lat="44.27655" lon="5.67366">
        <ele>1143</ele>
        <time>2018-07-17T09:02:25Z</time>
      </trkpt>
      <trkpt lat="44.27657" lon="5.67368">
        <ele>1143</ele>
        <time>2018-07-17T09:02:27Z</time>
      </trkpt>
      <trkpt lat="44.27658" lon="5.67368">
        <ele>1143</ele>
        <time>2018-07-17T09:02:28Z</time>
      </trkpt>
      <trkpt lat="44.2766" lon="5.67369">
        <ele>1143</ele>
        <time>2018-07-17T09:02:30Z</time>
      </trkpt>
      <trkpt lat="44.27661" lon="5.67371">
        <ele>1142</ele>
        <time>2018-07-17T09:02:32Z</time>
      </trkpt>
      <trkpt lat="44.27662" lon="5.67372">
        <ele>1142</ele>
        <time>2018-07-17T09:02:34Z</time>
      </trkpt>
      <trkpt lat="44.27663" lon="5.67374">
        <ele>1141</ele>
        <time>2018-07-17T09:02:36Z</time>
      </trkpt>
      <trkpt lat="44.27664" lon="5.67376">
        <ele>1140</ele>
        <time>2018-07-17T09:02:38Z</time>
      </trkpt>
      <trkpt lat="44.27665" lon="5.67378">
        <ele>1140</ele>
        <time>2018-07-17T09:02:40Z</time>
      </trkpt>
      <trkpt lat="44.27666" lon="5.6738">
        <ele>1139</ele>
        <time>2018-07-17T09:02:42Z</time>
      </trkpt>
      <trkpt lat="44.27668" lon="5.67381">
        <ele>1139</ele>
        <time>2018-07-17T09:02:44Z</time>
      </trkpt>
      <trkpt lat="44.27669" lon="5.67384">
        <ele>1139</ele>
        <time>2018-07-17T09:02:46Z</time>
      </trkpt>
      <trkpt lat="44.2767" lon="5.67384">
        <ele>1139</ele>
        <time>2018-07-17T09:02:47Z</time>
      </trkpt>
      <trkpt lat="44.27672" lon="5.67386">
        <ele>1139</ele>
        <time>2018-07-17T09:02:49Z</time>
      </trkpt>
      <trkpt lat="44.27674" lon="5.67388">
        <ele>1139</ele>
        <time>2018-07-17T09:02:51Z</time>
      </trkpt>
      <trkpt lat="44.27676" lon="5.67389">
        <ele>1139</ele>
        <time>2018-07-17T09:02:53Z</time>
      </trkpt>
      <trkpt lat="44.27677" lon="5.67389">
        <ele>1139</ele>
        <time>2018-07-17T09:02:54Z</time>
      </trkpt>
      <trkpt lat="44.27679" lon="5.6739">
        <ele>1139</ele>
        <time>2018-07-17T09:02:55Z</time>
      </trkpt>
      <trkpt lat="44.27681" lon="5.67392">
        <ele>1139</ele>
        <time>2018-07-17T09:02:57Z</time>
      </trkpt>
      <trkpt lat="44.27682" lon="5.67393">
        <ele>1139</ele>
        <time>2018-07-17T09:02:59Z</time>
      </trkpt>
      <trkpt lat="44.27684" lon="5.67394">
        <ele>1139</ele>
        <time>2018-07-17T09:03:01Z</time>
      </trkpt>
      <trkpt lat="44.27685" lon="5.67396">
        <ele>1139</ele>
        <time>2018-07-17T09:03:03Z</time>
      </trkpt>
      <trkpt lat="44.27686" lon="5.67399">
        <ele>1139</ele>
        <time>2018-07-17T09:03:05Z</time>
      </trkpt>
      <trkpt lat="44.27687" lon="5.67399">
        <ele>1139</ele>
        <time>2018-07-17T09:03:07Z</time>
      </trkpt>
      <trkpt lat="44.27686" lon="5.67401">
        <ele>1138</ele>
        <time>2018-07-17T09:03:08Z</time>
      </trkpt>
      <trkpt lat="44.27686" lon="5.67404">
        <ele>1138</ele>
        <time>2018-07-17T09:03:10Z</time>
      </trkpt>
      <trkpt lat="44.27686" lon="5.67406">
        <ele>1138</ele>
        <time>2018-07-17T09:03:12Z</time>
      </trkpt>
      <trkpt lat="44.27688" lon="5.67409">
        <ele>1138</ele>
        <time>2018-07-17T09:03:14Z</time>
      </trkpt>
      <trkpt lat="44.27687" lon="5.6741">
        <ele>1138</ele>
        <time>2018-07-17T09:03:17Z</time>
      </trkpt>
      <trkpt lat="44.27686" lon="5.67412">
        <ele>1138</ele>
        <time>2018-07-17T09:03:21Z</time>
      </trkpt>
      <trkpt lat="44.27686" lon="5.67414">
        <ele>1138</ele>
        <time>2018-07-17T09:03:23Z</time>
      </trkpt>
      <trkpt lat="44.27688" lon="5.67416">
        <ele>1138</ele>
        <time>2018-07-17T09:03:25Z</time>
      </trkpt>
      <trkpt lat="44.27689" lon="5.67416">
        <ele>1138</ele>
        <time>2018-07-17T09:03:26Z</time>
      </trkpt>
      <trkpt lat="44.27691" lon="5.67418">
        <ele>1138</ele>
        <time>2018-07-17T09:03:28Z</time>
      </trkpt>
      <trkpt lat="44.27692" lon="5.67419">
        <ele>1139</ele>
        <time>2018-07-17T09:03:29Z</time>
      </trkpt>
      <trkpt lat="44.27692" lon="5.67421">
        <ele>1141</ele>
        <time>2018-07-17T09:03:31Z</time>
      </trkpt>
      <trkpt lat="44.27692" lon="5.67422">
        <ele>1143</ele>
        <time>2018-07-17T09:03:33Z</time>
      </trkpt>
      <trkpt lat="44.27691" lon="5.67425">
        <ele>1144</ele>
        <time>2018-07-17T09:03:35Z</time>
      </trkpt>
      <trkpt lat="44.27691" lon="5.67427">
        <ele>1144</ele>
        <time>2018-07-17T09:03:37Z</time>
      </trkpt>
      <trkpt lat="44.27691" lon="5.67429">
        <ele>1144</ele>
        <time>2018-07-17T09:03:39Z</time>
      </trkpt>
      <trkpt lat="44.27691" lon="5.67432">
        <ele>1144</ele>
        <time>2018-07-17T09:03:41Z</time>
      </trkpt>
      <trkpt lat="44.27692" lon="5.67433">
        <ele>1144</ele>
        <time>2018-07-17T09:03:42Z</time>
      </trkpt>
      <trkpt lat="44.27692" lon="5.67436">
        <ele>1144</ele>
        <time>2018-07-17T09:03:44Z</time>
      </trkpt>
      <trkpt lat="44.27693" lon="5.67438">
        <ele>1144</ele>
        <time>2018-07-17T09:03:46Z</time>
      </trkpt>
      <trkpt lat="44.27694" lon="5.6744">
        <ele>1144</ele>
        <time>2018-07-17T09:03:47Z</time>
      </trkpt>
      <trkpt lat="44.27696" lon="5.67442">
        <ele>1144</ele>
        <time>2018-07-17T09:03:49Z</time>
      </trkpt>
      <trkpt lat="44.27697" lon="5.67444">
        <ele>1144</ele>
        <time>2018-07-17T09:03:50Z</time>
      </trkpt>
      <trkpt lat="44.27698" lon="5.67446">
        <ele>1144</ele>
        <time>2018-07-17T09:03:53Z</time>
      </trkpt>
      <trkpt lat="44.27699" lon="5.67447">
        <ele>1144</ele>
        <time>2018-07-17T09:03:55Z</time>
      </trkpt>
      <trkpt lat="44.27697" lon="5.67449">
        <ele>1144</ele>
        <time>2018-07-17T09:03:57Z</time>
      </trkpt>
      <trkpt lat="44.27699" lon="5.6745">
        <ele>1144</ele>
        <time>2018-07-17T09:03:59Z</time>
      </trkpt>
      <trkpt lat="44.27698" lon="5.67453">
        <ele>1144</ele>
        <time>2018-07-17T09:04:02Z</time>
      </trkpt>
      <trkpt lat="44.27699" lon="5.67454">
        <ele>1144</ele>
        <time>2018-07-17T09:04:04Z</time>
      </trkpt>
      <trkpt lat="44.27701" lon="5.67455">
        <ele>1144</ele>
        <time>2018-07-17T09:04:05Z</time>
      </trkpt>
      <trkpt lat="44.27703" lon="5.67456">
        <ele>1144</ele>
        <time>2018-07-17T09:04:07Z</time>
      </trkpt>
      <trkpt lat="44.27705" lon="5.67457">
        <ele>1144</ele>
        <time>2018-07-17T09:04:09Z</time>
      </trkpt>
      <trkpt lat="44.27706" lon="5.67458">
        <ele>1144</ele>
        <time>2018-07-17T09:04:11Z</time>
      </trkpt>
      <trkpt lat="44.27707" lon="5.67459">
        <ele>1144</ele>
        <time>2018-07-17T09:04:12Z</time>
      </trkpt>
      <trkpt lat="44.27708" lon="5.67461">
        <ele>1144</ele>
        <time>2018-07-17T09:04:14Z</time>
      </trkpt>
      <trkpt lat="44.2771" lon="5.67462">
        <ele>1144</ele>
        <time>2018-07-17T09:04:15Z</time>
      </trkpt>
      <trkpt lat="44.27711" lon="5.67463">
        <ele>1144</ele>
        <time>2018-07-17T09:04:16Z</time>
      </trkpt>
      <trkpt lat="44.27711" lon="5.67465">
        <ele>1144</ele>
        <time>2018-07-17T09:04:19Z</time>
      </trkpt>
      <trkpt lat="44.27711" lon="5.67467">
        <ele>1144</ele>
        <time>2018-07-17T09:04:21Z</time>
      </trkpt>
      <trkpt lat="44.27711" lon="5.67469">
        <ele>1144</ele>
        <time>2018-07-17T09:04:23Z</time>
      </trkpt>
      <trkpt lat="44.27713" lon="5.6747">
        <ele>1144</ele>
        <time>2018-07-17T09:04:26Z</time>
      </trkpt>
      <trkpt lat="44.27715" lon="5.67471">
        <ele>1144</ele>
        <time>2018-07-17T09:04:27Z</time>
      </trkpt>
      <trkpt lat="44.27716" lon="5.67471">
        <ele>1144</ele>
        <time>2018-07-17T09:04:28Z</time>
      </trkpt>
      <trkpt lat="44.27718" lon="5.67472">
        <ele>1144</ele>
        <time>2018-07-17T09:04:29Z</time>
      </trkpt>
      <trkpt lat="44.27719" lon="5.67472">
        <ele>1144</ele>
        <time>2018-07-17T09:04:31Z</time>
      </trkpt>
      <trkpt lat="44.27721" lon="5.67473">
        <ele>1144</ele>
        <time>2018-07-17T09:04:32Z</time>
      </trkpt>
      <trkpt lat="44.27723" lon="5.67474">
        <ele>1144</ele>
        <time>2018-07-17T09:04:33Z</time>
      </trkpt>
      <trkpt lat="44.27725" lon="5.67475">
        <ele>1144</ele>
        <time>2018-07-17T09:04:34Z</time>
      </trkpt>
      <trkpt lat="44.27728" lon="5.67475">
        <ele>1144</ele>
        <time>2018-07-17T09:04:35Z</time>
      </trkpt>
      <trkpt lat="44.27729" lon="5.67475">
        <ele>1144</ele>
        <time>2018-07-17T09:04:36Z</time>
      </trkpt>
      <trkpt lat="44.27731" lon="5.67476">
        <ele>1144</ele>
        <time>2018-07-17T09:04:38Z</time>
      </trkpt>
      <trkpt lat="44.27733" lon="5.67477">
        <ele>1144</ele>
        <time>2018-07-17T09:04:40Z</time>
      </trkpt>
      <trkpt lat="44.27734" lon="5.67478">
        <ele>1144</ele>
        <time>2018-07-17T09:04:42Z</time>
      </trkpt>
      <trkpt lat="44.27737" lon="5.67479">
        <ele>1144</ele>
        <time>2018-07-17T09:04:45Z</time>
      </trkpt>
      <trkpt lat="44.27736" lon="5.6748">
        <ele>1144</ele>
        <time>2018-07-17T09:04:47Z</time>
      </trkpt>
      <trkpt lat="44.27738" lon="5.67482">
        <ele>1143</ele>
        <time>2018-07-17T09:04:49Z</time>
      </trkpt>
      <trkpt lat="44.2774" lon="5.67483">
        <ele>1141</ele>
        <time>2018-07-17T09:04:52Z</time>
      </trkpt>
      <trkpt lat="44.27741" lon="5.67484">
        <ele>1141</ele>
        <time>2018-07-17T09:04:53Z</time>
      </trkpt>
      <trkpt lat="44.27743" lon="5.67486">
        <ele>1140</ele>
        <time>2018-07-17T09:04:55Z</time>
      </trkpt>
      <trkpt lat="44.27745" lon="5.67488">
        <ele>1139</ele>
        <time>2018-07-17T09:04:57Z</time>
      </trkpt>
      <trkpt lat="44.27745" lon="5.6749">
        <ele>1138</ele>
        <time>2018-07-17T09:04:59Z</time>
      </trkpt>
      <trkpt lat="44.27748" lon="5.6749">
        <ele>1138</ele>
        <time>2018-07-17T09:05:01Z</time>
      </trkpt>
      <trkpt lat="44.27749" lon="5.6749">
        <ele>1138</ele>
        <time>2018-07-17T09:05:02Z</time>
      </trkpt>
      <trkpt lat="44.2775" lon="5.6749">
        <ele>1138</ele>
        <time>2018-07-17T09:05:04Z</time>
      </trkpt>
      <trkpt lat="44.27752" lon="5.67491">
        <ele>1138</ele>
        <time>2018-07-17T09:05:06Z</time>
      </trkpt>
      <trkpt lat="44.27753" lon="5.67492">
        <ele>1138</ele>
        <time>2018-07-17T09:05:07Z</time>
      </trkpt>
      <trkpt lat="44.27755" lon="5.67492">
        <ele>1138</ele>
        <time>2018-07-17T09:05:08Z</time>
      </trkpt>
      <trkpt lat="44.27757" lon="5.67493">
        <ele>1138</ele>
        <time>2018-07-17T09:05:10Z</time>
      </trkpt>
      <trkpt lat="44.27758" lon="5.67494">
        <ele>1138</ele>
        <time>2018-07-17T09:05:12Z</time>
      </trkpt>
      <trkpt lat="44.2776" lon="5.67495">
        <ele>1138</ele>
        <time>2018-07-17T09:05:14Z</time>
      </trkpt>
      <trkpt lat="44.27762" lon="5.67495">
        <ele>1138</ele>
        <time>2018-07-17T09:05:16Z</time>
      </trkpt>
      <trkpt lat="44.27763" lon="5.67494">
        <ele>1138</ele>
        <time>2018-07-17T09:05:17Z</time>
      </trkpt>
      <trkpt lat="44.27765" lon="5.67494">
        <ele>1137</ele>
        <time>2018-07-17T09:05:19Z</time>
      </trkpt>
      <trkpt lat="44.27767" lon="5.67494">
        <ele>1137</ele>
        <time>2018-07-17T09:05:20Z</time>
      </trkpt>
      <trkpt lat="44.27769" lon="5.67493">
        <ele>1137</ele>
        <time>2018-07-17T09:05:21Z</time>
      </trkpt>
      <trkpt lat="44.27771" lon="5.67492">
        <ele>1136</ele>
        <time>2018-07-17T09:05:23Z</time>
      </trkpt>
      <trkpt lat="44.27772" lon="5.67493">
        <ele>1135</ele>
        <time>2018-07-17T09:05:25Z</time>
      </trkpt>
      <trkpt lat="44.27774" lon="5.67493">
        <ele>1135</ele>
        <time>2018-07-17T09:05:28Z</time>
      </trkpt>
      <trkpt lat="44.27776" lon="5.67492">
        <ele>1135</ele>
        <time>2018-07-17T09:05:33Z</time>
      </trkpt>
      <trkpt lat="44.27777" lon="5.67492">
        <ele>1135</ele>
        <time>2018-07-17T09:05:35Z</time>
      </trkpt>
      <trkpt lat="44.27778" lon="5.67492">
        <ele>1135</ele>
        <time>2018-07-17T09:05:36Z</time>
      </trkpt>
      <trkpt lat="44.2778" lon="5.67492">
        <ele>1135</ele>
        <time>2018-07-17T09:05:38Z</time>
      </trkpt>
      <trkpt lat="44.27781" lon="5.67492">
        <ele>1135</ele>
        <time>2018-07-17T09:05:39Z</time>
      </trkpt>
      <trkpt lat="44.27782" lon="5.67491">
        <ele>1135</ele>
        <time>2018-07-17T09:05:40Z</time>
      </trkpt>
      <trkpt lat="44.27785" lon="5.67491">
        <ele>1133</ele>
        <time>2018-07-17T09:05:42Z</time>
      </trkpt>
      <trkpt lat="44.27786" lon="5.67492">
        <ele>1132</ele>
        <time>2018-07-17T09:05:44Z</time>
      </trkpt>
      <trkpt lat="44.27788" lon="5.67491">
        <ele>1132</ele>
        <time>2018-07-17T09:05:46Z</time>
      </trkpt>
      <trkpt lat="44.27789" lon="5.67491">
        <ele>1131</ele>
        <time>2018-07-17T09:05:47Z</time>
      </trkpt>
      <trkpt lat="44.2779" lon="5.67493">
        <ele>1130</ele>
        <time>2018-07-17T09:05:49Z</time>
      </trkpt>
      <trkpt lat="44.27792" lon="5.67495">
        <ele>1130</ele>
        <time>2018-07-17T09:05:51Z</time>
      </trkpt>
      <trkpt lat="44.27794" lon="5.67496">
        <ele>1130</ele>
        <time>2018-07-17T09:05:53Z</time>
      </trkpt>
      <trkpt lat="44.27795" lon="5.67498">
        <ele>1130</ele>
        <time>2018-07-17T09:05:55Z</time>
      </trkpt>
      <trkpt lat="44.27797" lon="5.67498">
        <ele>1130</ele>
        <time>2018-07-17T09:05:59Z</time>
      </trkpt>
      <trkpt lat="44.27798" lon="5.67498">
        <ele>1130</ele>
        <time>2018-07-17T09:06:01Z</time>
      </trkpt>
      <trkpt lat="44.27799" lon="5.67499">
        <ele>1130</ele>
        <time>2018-07-17T09:06:04Z</time>
      </trkpt>
      <trkpt lat="44.27799" lon="5.67501">
        <ele>1130</ele>
        <time>2018-07-17T09:06:06Z</time>
      </trkpt>
      <trkpt lat="44.27798" lon="5.67502">
        <ele>1130</ele>
        <time>2018-07-17T09:06:08Z</time>
      </trkpt>
      <trkpt lat="44.27798" lon="5.67504">
        <ele>1130</ele>
        <time>2018-07-17T09:06:12Z</time>
      </trkpt>
      <trkpt lat="44.27799" lon="5.67505">
        <ele>1130</ele>
        <time>2018-07-17T09:06:14Z</time>
      </trkpt>
      <trkpt lat="44.278" lon="5.67505">
        <ele>1130</ele>
        <time>2018-07-17T09:06:16Z</time>
      </trkpt>
      <trkpt lat="44.27802" lon="5.67506">
        <ele>1131</ele>
        <time>2018-07-17T09:06:18Z</time>
      </trkpt>
      <trkpt lat="44.278" lon="5.67506">
        <ele>1132</ele>
        <time>2018-07-17T09:06:27Z</time>
      </trkpt>
      <trkpt lat="44.27799" lon="5.67506">
        <ele>1132</ele>
        <time>2018-07-17T09:06:28Z</time>
      </trkpt>
      <trkpt lat="44.27798" lon="5.67506">
        <ele>1132</ele>
        <time>2018-07-17T09:06:30Z</time>
      </trkpt>
      <trkpt lat="44.27797" lon="5.67507">
        <ele>1132</ele>
        <time>2018-07-17T09:06:33Z</time>
      </trkpt>
      <trkpt lat="44.27795" lon="5.67506">
        <ele>1132</ele>
        <time>2018-07-17T09:06:35Z</time>
      </trkpt>
      <trkpt lat="44.27794" lon="5.67506">
        <ele>1132</ele>
        <time>2018-07-17T09:06:39Z</time>
      </trkpt>
      <trkpt lat="44.27793" lon="5.67506">
        <ele>1132</ele>
        <time>2018-07-17T09:06:42Z</time>
      </trkpt>
      <trkpt lat="44.27792" lon="5.67508">
        <ele>1132</ele>
        <time>2018-07-17T09:06:46Z</time>
      </trkpt>
      <trkpt lat="44.27794" lon="5.67509">
        <ele>1132</ele>
        <time>2018-07-17T09:06:48Z</time>
      </trkpt>
      <trkpt lat="44.27795" lon="5.67511">
        <ele>1132</ele>
        <time>2018-07-17T09:06:50Z</time>
      </trkpt>
      <trkpt lat="44.27794" lon="5.67512">
        <ele>1132</ele>
        <time>2018-07-17T09:06:51Z</time>
      </trkpt>
      <trkpt lat="44.27794" lon="5.67513">
        <ele>1132</ele>
        <time>2018-07-17T09:06:56Z</time>
      </trkpt>
      <trkpt lat="44.27792" lon="5.67514">
        <ele>1134</ele>
        <time>2018-07-17T09:07:02Z</time>
      </trkpt>
      <trkpt lat="44.27791" lon="5.67514">
        <ele>1134</ele>
        <time>2018-07-17T09:07:04Z</time>
      </trkpt>
      <trkpt lat="44.2779" lon="5.67513">
        <ele>1135</ele>
        <time>2018-07-17T09:07:10Z</time>
      </trkpt>
      <trkpt lat="44.27791" lon="5.67515">
        <ele>1140</ele>
        <time>2018-07-17T09:07:17Z</time>
      </trkpt>
      <trkpt lat="44.27791" lon="5.67513">
        <ele>1143</ele>
        <time>2018-07-17T09:07:29Z</time>
      </trkpt>
      <trkpt lat="44.2779" lon="5.67512">
        <ele>1140</ele>
        <time>2018-07-17T09:07:33Z</time>
      </trkpt>
      <trkpt lat="44.27788" lon="5.67511">
        <ele>1134</ele>
        <time>2018-07-17T09:07:40Z</time>
      </trkpt>
      <trkpt lat="44.27787" lon="5.6751">
        <ele>1133</ele>
        <time>2018-07-17T09:07:44Z</time>
      </trkpt>
      <trkpt lat="44.27785" lon="5.67511">
        <ele>1133</ele>
        <time>2018-07-17T09:07:47Z</time>
      </trkpt>
      <trkpt lat="44.27784" lon="5.67511">
        <ele>1133</ele>
        <time>2018-07-17T09:07:49Z</time>
      </trkpt>
      <trkpt lat="44.27786" lon="5.67512">
        <ele>1133</ele>
        <time>2018-07-17T09:07:51Z</time>
      </trkpt>
      <trkpt lat="44.27787" lon="5.67511">
        <ele>1133</ele>
        <time>2018-07-17T09:07:53Z</time>
      </trkpt>
      <trkpt lat="44.27789" lon="5.67509">
        <ele>1133</ele>
        <time>2018-07-17T09:07:55Z</time>
      </trkpt>
      <trkpt lat="44.2779" lon="5.67508">
        <ele>1133</ele>
        <time>2018-07-17T09:07:58Z</time>
      </trkpt>
      <trkpt lat="44.27792" lon="5.67507">
        <ele>1133</ele>
        <time>2018-07-17T09:08:04Z</time>
      </trkpt>
      <trkpt lat="44.27793" lon="5.67507">
        <ele>1133</ele>
        <time>2018-07-17T09:08:06Z</time>
      </trkpt>
      <trkpt lat="44.27795" lon="5.67508">
        <ele>1133</ele>
        <time>2018-07-17T09:08:11Z</time>
      </trkpt>
      <trkpt lat="44.27797" lon="5.67509">
        <ele>1133</ele>
        <time>2018-07-17T09:08:13Z</time>
      </trkpt>
      <trkpt lat="44.27798" lon="5.67509">
        <ele>1133</ele>
        <time>2018-07-17T09:08:16Z</time>
      </trkpt>
      <trkpt lat="44.27796" lon="5.67507">
        <ele>1133</ele>
        <time>2018-07-17T09:08:19Z</time>
      </trkpt>
      <trkpt lat="44.27795" lon="5.67507">
        <ele>1133</ele>
        <time>2018-07-17T09:08:20Z</time>
      </trkpt>
      <trkpt lat="44.27796" lon="5.67507">
        <ele>1133</ele>
        <time>2018-07-17T09:08:24Z</time>
      </trkpt>
      <trkpt lat="44.27794" lon="5.67507">
        <ele>1133</ele>
        <time>2018-07-17T09:08:27Z</time>
      </trkpt>
      <trkpt lat="44.27793" lon="5.67507">
        <ele>1134</ele>
        <time>2018-07-17T09:08:29Z</time>
      </trkpt>
      <trkpt lat="44.27792" lon="5.67509">
        <ele>1134</ele>
        <time>2018-07-17T09:08:32Z</time>
      </trkpt>
      <trkpt lat="44.27793" lon="5.6751">
        <ele>1134</ele>
        <time>2018-07-17T09:08:35Z</time>
      </trkpt>
      <trkpt lat="44.27792" lon="5.67511">
        <ele>1134</ele>
        <time>2018-07-17T09:08:37Z</time>
      </trkpt>
      <trkpt lat="44.27791" lon="5.67512">
        <ele>1134</ele>
        <time>2018-07-17T09:08:39Z</time>
      </trkpt>
      <trkpt lat="44.27789" lon="5.67511">
        <ele>1134</ele>
        <time>2018-07-17T09:08:41Z</time>
      </trkpt>
      <trkpt lat="44.27788" lon="5.67511">
        <ele>1135</ele>
        <time>2018-07-17T09:08:42Z</time>
      </trkpt>
      <trkpt lat="44.2779" lon="5.67512">
        <ele>1137</ele>
        <time>2018-07-17T09:08:47Z</time>
      </trkpt>
      <trkpt lat="44.27791" lon="5.67512">
        <ele>1137</ele>
        <time>2018-07-17T09:08:48Z</time>
      </trkpt>
      <trkpt lat="44.27792" lon="5.67512">
        <ele>1137</ele>
        <time>2018-07-17T09:08:49Z</time>
      </trkpt>
      <trkpt lat="44.27793" lon="5.67513">
        <ele>1137</ele>
        <time>2018-07-17T09:08:50Z</time>
      </trkpt>
      <trkpt lat="44.27795" lon="5.67513">
        <ele>1137</ele>
        <time>2018-07-17T09:08:52Z</time>
      </trkpt>
      <trkpt lat="44.27794" lon="5.67513">
        <ele>1137</ele>
        <time>2018-07-17T09:08:56Z</time>
      </trkpt>
      <trkpt lat="44.27793" lon="5.67511">
        <ele>1137</ele>
        <time>2018-07-17T09:08:58Z</time>
      </trkpt>
      <trkpt lat="44.27793" lon="5.6751">
        <ele>1137</ele>
        <time>2018-07-17T09:09:00Z</time>
      </trkpt>
      <trkpt lat="44.27794" lon="5.67509">
        <ele>1135</ele>
        <time>2018-07-17T09:09:04Z</time>
      </trkpt>
      <trkpt lat="44.27793" lon="5.6751">
        <ele>1134</ele>
        <time>2018-07-17T09:09:07Z</time>
      </trkpt>
      <trkpt lat="44.27791" lon="5.6751">
        <ele>1133</ele>
        <time>2018-07-17T09:09:12Z</time>
      </trkpt>
      <trkpt lat="44.27789" lon="5.6751">
        <ele>1133</ele>
        <time>2018-07-17T09:09:16Z</time>
      </trkpt>
      <trkpt lat="44.27788" lon="5.67509">
        <ele>1135</ele>
        <time>2018-07-17T09:09:19Z</time>
      </trkpt>
      <trkpt lat="44.27787" lon="5.67508">
        <ele>1136</ele>
        <time>2018-07-17T09:09:22Z</time>
      </trkpt>
      <trkpt lat="44.27788" lon="5.67509">
        <ele>1136</ele>
        <time>2018-07-17T09:09:27Z</time>
      </trkpt>
      <trkpt lat="44.2779" lon="5.67509">
        <ele>1136</ele>
        <time>2018-07-17T09:09:29Z</time>
      </trkpt>
      <trkpt lat="44.27791" lon="5.67509">
        <ele>1136</ele>
        <time>2018-07-17T09:09:31Z</time>
      </trkpt>
      <trkpt lat="44.27793" lon="5.67508">
        <ele>1136</ele>
        <time>2018-07-17T09:09:33Z</time>
      </trkpt>
      <trkpt lat="44.27792" lon="5.67506">
        <ele>1136</ele>
        <time>2018-07-17T09:09:38Z</time>
      </trkpt>
      <trkpt lat="44.27791" lon="5.67505">
        <ele>1136</ele>
        <time>2018-07-17T09:09:40Z</time>
      </trkpt>
      <trkpt lat="44.2779" lon="5.67504">
        <ele>1136</ele>
        <time>2018-07-17T09:09:43Z</time>
      </trkpt>
      <trkpt lat="44.27788" lon="5.67502">
        <ele>1136</ele>
        <time>2018-07-17T09:09:45Z</time>
      </trkpt>
      <trkpt lat="44.27787" lon="5.67503">
        <ele>1136</ele>
        <time>2018-07-17T09:09:46Z</time>
      </trkpt>
      <trkpt lat="44.27786" lon="5.67503">
        <ele>1136</ele>
        <time>2018-07-17T09:09:47Z</time>
      </trkpt>
      <trkpt lat="44.27787" lon="5.67503">
        <ele>1136</ele>
        <time>2018-07-17T09:09:49Z</time>
      </trkpt>
      <trkpt lat="44.27789" lon="5.67503">
        <ele>1136</ele>
        <time>2018-07-17T09:09:50Z</time>
      </trkpt>
      <trkpt lat="44.2779" lon="5.67504">
        <ele>1136</ele>
        <time>2018-07-17T09:09:51Z</time>
      </trkpt>
      <trkpt lat="44.27792" lon="5.67504">
        <ele>1136</ele>
        <time>2018-07-17T09:09:53Z</time>
      </trkpt>
      <trkpt lat="44.27794" lon="5.67505">
        <ele>1136</ele>
        <time>2018-07-17T09:09:56Z</time>
      </trkpt>
      <trkpt lat="44.27793" lon="5.67507">
        <ele>1136</ele>
        <time>2018-07-17T09:09:58Z</time>
      </trkpt>
      <trkpt lat="44.27792" lon="5.67508">
        <ele>1136</ele>
        <time>2018-07-17T09:10:01Z</time>
      </trkpt>
      <trkpt lat="44.27792" lon="5.6751">
        <ele>1136</ele>
        <time>2018-07-17T09:10:05Z</time>
      </trkpt>
      <trkpt lat="44.27794" lon="5.6751">
        <ele>1136</ele>
        <time>2018-07-17T09:10:07Z</time>
      </trkpt>
      <trkpt lat="44.27795" lon="5.67509">
        <ele>1136</ele>
        <time>2018-07-17T09:10:10Z</time>
      </trkpt>
      <trkpt lat="44.27797" lon="5.67508">
        <ele>1136</ele>
        <time>2018-07-17T09:10:12Z</time>
      </trkpt>
      <trkpt lat="44.27798" lon="5.6751">
        <ele>1136</ele>
        <time>2018-07-17T09:10:14Z</time>
      </trkpt>
      <trkpt lat="44.27799" lon="5.6751">
        <ele>1136</ele>
        <time>2018-07-17T09:10:15Z</time>
      </trkpt>
      <trkpt lat="44.278" lon="5.67509">
        <ele>1136</ele>
        <time>2018-07-17T09:10:19Z</time>
      </trkpt>
      <trkpt lat="44.27801" lon="5.6751">
        <ele>1136</ele>
        <time>2018-07-17T09:10:20Z</time>
      </trkpt>
      <trkpt lat="44.27803" lon="5.67511">
        <ele>1136</ele>
        <time>2018-07-17T09:10:23Z</time>
      </trkpt>
      <trkpt lat="44.27803" lon="5.67513">
        <ele>1136</ele>
        <time>2018-07-17T09:10:27Z</time>
      </trkpt>
      <trkpt lat="44.27801" lon="5.67513">
        <ele>1136</ele>
        <time>2018-07-17T09:10:28Z</time>
      </trkpt>
      <trkpt lat="44.27801" lon="5.67511">
        <ele>1136</ele>
        <time>2018-07-17T09:10:30Z</time>
      </trkpt>
      <trkpt lat="44.27799" lon="5.67511">
        <ele>1136</ele>
        <time>2018-07-17T09:10:31Z</time>
      </trkpt>
      <trkpt lat="44.27797" lon="5.6751">
        <ele>1136</ele>
        <time>2018-07-17T09:10:32Z</time>
      </trkpt>
      <trkpt lat="44.27798" lon="5.67512">
        <ele>1136</ele>
        <time>2018-07-17T09:10:38Z</time>
      </trkpt>
      <trkpt lat="44.278" lon="5.67512">
        <ele>1136</ele>
        <time>2018-07-17T09:10:39Z</time>
      </trkpt>
      <trkpt lat="44.27801" lon="5.67512">
        <ele>1136</ele>
        <time>2018-07-17T09:10:41Z</time>
      </trkpt>
      <trkpt lat="44.278" lon="5.67511">
        <ele>1136</ele>
        <time>2018-07-17T09:10:45Z</time>
      </trkpt>
      <trkpt lat="44.27799" lon="5.67511">
        <ele>1136</ele>
        <time>2018-07-17T09:10:47Z</time>
      </trkpt>
      <trkpt lat="44.278" lon="5.67509">
        <ele>1136</ele>
        <time>2018-07-17T09:10:51Z</time>
      </trkpt>
      <trkpt lat="44.27802" lon="5.67508">
        <ele>1136</ele>
        <time>2018-07-17T09:10:52Z</time>
      </trkpt>
      <trkpt lat="44.278" lon="5.67507">
        <ele>1136</ele>
        <time>2018-07-17T09:10:57Z</time>
      </trkpt>
      <trkpt lat="44.27798" lon="5.67509">
        <ele>1136</ele>
        <time>2018-07-17T09:11:00Z</time>
      </trkpt>
      <trkpt lat="44.278" lon="5.67509">
        <ele>1136</ele>
        <time>2018-07-17T09:11:03Z</time>
      </trkpt>
      <trkpt lat="44.27801" lon="5.67509">
        <ele>1136</ele>
        <time>2018-07-17T09:11:05Z</time>
      </trkpt>
      <trkpt lat="44.27802" lon="5.67509">
        <ele>1136</ele>
        <time>2018-07-17T09:11:08Z</time>
      </trkpt>
      <trkpt lat="44.27803" lon="5.67507">
        <ele>1136</ele>
        <time>2018-07-17T09:11:10Z</time>
      </trkpt>
      <trkpt lat="44.27805" lon="5.67506">
        <ele>1135</ele>
        <time>2018-07-17T09:11:12Z</time>
      </trkpt>
      <trkpt lat="44.27806" lon="5.67506">
        <ele>1133</ele>
        <time>2018-07-17T09:11:14Z</time>
      </trkpt>
      <trkpt lat="44.27807" lon="5.67507">
        <ele>1132</ele>
        <time>2018-07-17T09:11:16Z</time>
      </trkpt>
      <trkpt lat="44.27808" lon="5.67509">
        <ele>1131</ele>
        <time>2018-07-17T09:11:19Z</time>
      </trkpt>
      <trkpt lat="44.27807" lon="5.6751">
        <ele>1130</ele>
        <time>2018-07-17T09:11:21Z</time>
      </trkpt>
      <trkpt lat="44.27806" lon="5.67512">
        <ele>1130</ele>
        <time>2018-07-17T09:11:23Z</time>
      </trkpt>
      <trkpt lat="44.27807" lon="5.67514">
        <ele>1130</ele>
        <time>2018-07-17T09:11:25Z</time>
      </trkpt>
      <trkpt lat="44.27806" lon="5.67515">
        <ele>1130</ele>
        <time>2018-07-17T09:11:27Z</time>
      </trkpt>
      <trkpt lat="44.27806" lon="5.67517">
        <ele>1130</ele>
        <time>2018-07-17T09:11:29Z</time>
      </trkpt>
      <trkpt lat="44.27806" lon="5.67518">
        <ele>1130</ele>
        <time>2018-07-17T09:11:31Z</time>
      </trkpt>
      <trkpt lat="44.27807" lon="5.67521">
        <ele>1130</ele>
        <time>2018-07-17T09:11:33Z</time>
      </trkpt>
      <trkpt lat="44.27807" lon="5.67522">
        <ele>1130</ele>
        <time>2018-07-17T09:11:35Z</time>
      </trkpt>
      <trkpt lat="44.27807" lon="5.67524">
        <ele>1130</ele>
        <time>2018-07-17T09:11:37Z</time>
      </trkpt>
      <trkpt lat="44.27806" lon="5.67526">
        <ele>1130</ele>
        <time>2018-07-17T09:11:39Z</time>
      </trkpt>
      <trkpt lat="44.27805" lon="5.67527">
        <ele>1130</ele>
        <time>2018-07-17T09:11:41Z</time>
      </trkpt>
      <trkpt lat="44.27804" lon="5.67529">
        <ele>1130</ele>
        <time>2018-07-17T09:11:43Z</time>
      </trkpt>
      <trkpt lat="44.27802" lon="5.67529">
        <ele>1130</ele>
        <time>2018-07-17T09:11:44Z</time>
      </trkpt>
      <trkpt lat="44.27801" lon="5.6753">
        <ele>1130</ele>
        <time>2018-07-17T09:11:46Z</time>
      </trkpt>
      <trkpt lat="44.27802" lon="5.67532">
        <ele>1130</ele>
        <time>2018-07-17T09:11:48Z</time>
      </trkpt>
      <trkpt lat="44.27803" lon="5.67534">
        <ele>1130</ele>
        <time>2018-07-17T09:11:50Z</time>
      </trkpt>
      <trkpt lat="44.27804" lon="5.67536">
        <ele>1130</ele>
        <time>2018-07-17T09:11:52Z</time>
      </trkpt>
      <trkpt lat="44.27803" lon="5.67538">
        <ele>1130</ele>
        <time>2018-07-17T09:11:56Z</time>
      </trkpt>
      <trkpt lat="44.27803" lon="5.67541">
        <ele>1130</ele>
        <time>2018-07-17T09:11:58Z</time>
      </trkpt>
      <trkpt lat="44.27803" lon="5.67543">
        <ele>1130</ele>
        <time>2018-07-17T09:12:00Z</time>
      </trkpt>
      <trkpt lat="44.27804" lon="5.67545">
        <ele>1130</ele>
        <time>2018-07-17T09:12:02Z</time>
      </trkpt>
      <trkpt lat="44.27804" lon="5.67547">
        <ele>1129</ele>
        <time>2018-07-17T09:12:04Z</time>
      </trkpt>
      <trkpt lat="44.27804" lon="5.67549">
        <ele>1129</ele>
        <time>2018-07-17T09:12:06Z</time>
      </trkpt>
      <trkpt lat="44.27806" lon="5.67551">
        <ele>1128</ele>
        <time>2018-07-17T09:12:08Z</time>
      </trkpt>
      <trkpt lat="44.27807" lon="5.67552">
        <ele>1128</ele>
        <time>2018-07-17T09:12:10Z</time>
      </trkpt>
      <trkpt lat="44.27808" lon="5.67553">
        <ele>1128</ele>
        <time>2018-07-17T09:12:19Z</time>
      </trkpt>
      <trkpt lat="44.2781" lon="5.67553">
        <ele>1128</ele>
        <time>2018-07-17T09:12:22Z</time>
      </trkpt>
      <trkpt lat="44.27811" lon="5.67553">
        <ele>1128</ele>
        <time>2018-07-17T09:12:23Z</time>
      </trkpt>
      <trkpt lat="44.27813" lon="5.67552">
        <ele>1128</ele>
        <time>2018-07-17T09:12:24Z</time>
      </trkpt>
      <trkpt lat="44.27814" lon="5.67552">
        <ele>1128</ele>
        <time>2018-07-17T09:12:25Z</time>
      </trkpt>
      <trkpt lat="44.27815" lon="5.67551">
        <ele>1128</ele>
        <time>2018-07-17T09:12:27Z</time>
      </trkpt>
      <trkpt lat="44.27816" lon="5.67551">
        <ele>1128</ele>
        <time>2018-07-17T09:12:28Z</time>
      </trkpt>
      <trkpt lat="44.27819" lon="5.67551">
        <ele>1128</ele>
        <time>2018-07-17T09:12:30Z</time>
      </trkpt>
      <trkpt lat="44.27819" lon="5.67553">
        <ele>1129</ele>
        <time>2018-07-17T09:12:32Z</time>
      </trkpt>
      <trkpt lat="44.27821" lon="5.67555">
        <ele>1129</ele>
        <time>2018-07-17T09:12:34Z</time>
      </trkpt>
      <trkpt lat="44.27822" lon="5.67556">
        <ele>1129</ele>
        <time>2018-07-17T09:12:35Z</time>
      </trkpt>
      <trkpt lat="44.27824" lon="5.67556">
        <ele>1129</ele>
        <time>2018-07-17T09:12:37Z</time>
      </trkpt>
      <trkpt lat="44.27823" lon="5.67558">
        <ele>1129</ele>
        <time>2018-07-17T09:12:41Z</time>
      </trkpt>
      <trkpt lat="44.27822" lon="5.6756">
        <ele>1129</ele>
        <time>2018-07-17T09:12:44Z</time>
      </trkpt>
      <trkpt lat="44.27821" lon="5.67561">
        <ele>1129</ele>
        <time>2018-07-17T09:12:49Z</time>
      </trkpt>
      <trkpt lat="44.27819" lon="5.67561">
        <ele>1129</ele>
        <time>2018-07-17T09:12:51Z</time>
      </trkpt>
      <trkpt lat="44.27818" lon="5.67562">
        <ele>1129</ele>
        <time>2018-07-17T09:12:53Z</time>
      </trkpt>
      <trkpt lat="44.27816" lon="5.67563">
        <ele>1129</ele>
        <time>2018-07-17T09:12:55Z</time>
      </trkpt>
      <trkpt lat="44.27814" lon="5.67563">
        <ele>1129</ele>
        <time>2018-07-17T09:12:56Z</time>
      </trkpt>
      <trkpt lat="44.27812" lon="5.67564">
        <ele>1129</ele>
        <time>2018-07-17T09:12:58Z</time>
      </trkpt>
      <trkpt lat="44.2781" lon="5.67565">
        <ele>1129</ele>
        <time>2018-07-17T09:13:05Z</time>
      </trkpt>
      <trkpt lat="44.27811" lon="5.67565">
        <ele>1129</ele>
        <time>2018-07-17T09:13:08Z</time>
      </trkpt>
      <trkpt lat="44.27813" lon="5.67564">
        <ele>1129</ele>
        <time>2018-07-17T09:13:09Z</time>
      </trkpt>
      <trkpt lat="44.27814" lon="5.67562">
        <ele>1129</ele>
        <time>2018-07-17T09:13:11Z</time>
      </trkpt>
      <trkpt lat="44.27816" lon="5.67561">
        <ele>1129</ele>
        <time>2018-07-17T09:13:12Z</time>
      </trkpt>
      <trkpt lat="44.27818" lon="5.67559">
        <ele>1129</ele>
        <time>2018-07-17T09:13:14Z</time>
      </trkpt>
      <trkpt lat="44.2782" lon="5.67559">
        <ele>1129</ele>
        <time>2018-07-17T09:13:15Z</time>
      </trkpt>
      <trkpt lat="44.27821" lon="5.67558">
        <ele>1129</ele>
        <time>2018-07-17T09:13:16Z</time>
      </trkpt>
      <trkpt lat="44.27823" lon="5.67557">
        <ele>1129</ele>
        <time>2018-07-17T09:13:17Z</time>
      </trkpt>
      <trkpt lat="44.27821" lon="5.67558">
        <ele>1130</ele>
        <time>2018-07-17T09:13:26Z</time>
      </trkpt>
      <trkpt lat="44.2782" lon="5.67558">
        <ele>1130</ele>
        <time>2018-07-17T09:13:34Z</time>
      </trkpt>
      <trkpt lat="44.27819" lon="5.67558">
        <ele>1130</ele>
        <time>2018-07-17T09:13:35Z</time>
      </trkpt>
      <trkpt lat="44.2782" lon="5.67558">
        <ele>1130</ele>
        <time>2018-07-17T09:13:39Z</time>
      </trkpt>
      <trkpt lat="44.27822" lon="5.67558">
        <ele>1130</ele>
        <time>2018-07-17T09:13:42Z</time>
      </trkpt>
      <trkpt lat="44.27823" lon="5.67558">
        <ele>1130</ele>
        <time>2018-07-17T09:13:45Z</time>
      </trkpt>
      <trkpt lat="44.27821" lon="5.67557">
        <ele>1129</ele>
        <time>2018-07-17T09:13:47Z</time>
      </trkpt>
      <trkpt lat="44.27823" lon="5.67556">
        <ele>1129</ele>
        <time>2018-07-17T09:13:51Z</time>
      </trkpt>
      <trkpt lat="44.27824" lon="5.67555">
        <ele>1129</ele>
        <time>2018-07-17T09:13:55Z</time>
      </trkpt>
      <trkpt lat="44.27826" lon="5.67555">
        <ele>1129</ele>
        <time>2018-07-17T09:13:57Z</time>
      </trkpt>
      <trkpt lat="44.27828" lon="5.67554">
        <ele>1129</ele>
        <time>2018-07-17T09:13:59Z</time>
      </trkpt>
      <trkpt lat="44.27829" lon="5.67553">
        <ele>1125</ele>
        <time>2018-07-17T09:14:06Z</time>
      </trkpt>
      <trkpt lat="44.2783" lon="5.67551">
        <ele>1123</ele>
        <time>2018-07-17T09:14:09Z</time>
      </trkpt>
      <trkpt lat="44.27831" lon="5.6755">
        <ele>1122</ele>
        <time>2018-07-17T09:14:11Z</time>
      </trkpt>
      <trkpt lat="44.27833" lon="5.67548">
        <ele>1121</ele>
        <time>2018-07-17T09:14:13Z</time>
      </trkpt>
      <trkpt lat="44.27834" lon="5.67547">
        <ele>1121</ele>
        <time>2018-07-17T09:14:15Z</time>
      </trkpt>
      <trkpt lat="44.27835" lon="5.67545">
        <ele>1121</ele>
        <time>2018-07-17T09:14:18Z</time>
      </trkpt>
      <trkpt lat="44.27836" lon="5.67542">
        <ele>1121</ele>
        <time>2018-07-17T09:14:20Z</time>
      </trkpt>
      <trkpt lat="44.27836" lon="5.6754">
        <ele>1121</ele>
        <time>2018-07-17T09:14:22Z</time>
      </trkpt>
      <trkpt lat="44.27835" lon="5.67538">
        <ele>1121</ele>
        <time>2018-07-17T09:14:24Z</time>
      </trkpt>
      <trkpt lat="44.27836" lon="5.67537">
        <ele>1121</ele>
        <time>2018-07-17T09:14:26Z</time>
      </trkpt>
      <trkpt lat="44.27836" lon="5.67537">
        <ele>1121</ele>
        <time>2018-07-17T09:14:27Z</time>
      </trkpt>
      <trkpt lat="44.27837" lon="5.67535">
        <ele>1121</ele>
        <time>2018-07-17T09:14:28Z</time>
      </trkpt>
      <trkpt lat="44.27837" lon="5.67535">
        <ele>1121</ele>
        <time>2018-07-17T09:14:29Z</time>
      </trkpt>
      <trkpt lat="44.27838" lon="5.67534">
        <ele>1121</ele>
        <time>2018-07-17T09:14:30Z</time>
      </trkpt>
      <trkpt lat="44.27838" lon="5.67534">
        <ele>1121</ele>
        <time>2018-07-17T09:14:32Z</time>
      </trkpt>
      <trkpt lat="44.27839" lon="5.67532">
        <ele>1121</ele>
        <time>2018-07-17T09:14:33Z</time>
      </trkpt>
      <trkpt lat="44.27839" lon="5.6753">
        <ele>1121</ele>
        <time>2018-07-17T09:14:35Z</time>
      </trkpt>
      <trkpt lat="44.27841" lon="5.67529">
        <ele>1121</ele>
        <time>2018-07-17T09:14:37Z</time>
      </trkpt>
      <trkpt lat="44.27841" lon="5.67527">
        <ele>1121</ele>
        <time>2018-07-17T09:14:42Z</time>
      </trkpt>
      <trkpt lat="44.27842" lon="5.67525">
        <ele>1121</ele>
        <time>2018-07-17T09:14:45Z</time>
      </trkpt>
      <trkpt lat="44.27841" lon="5.67522">
        <ele>1121</ele>
        <time>2018-07-17T09:14:47Z</time>
      </trkpt>
      <trkpt lat="44.2784" lon="5.67521">
        <ele>1121</ele>
        <time>2018-07-17T09:14:49Z</time>
      </trkpt>
      <trkpt lat="44.2784" lon="5.67519">
        <ele>1120</ele>
        <time>2018-07-17T09:14:51Z</time>
      </trkpt>
      <trkpt lat="44.27839" lon="5.67518">
        <ele>1120</ele>
        <time>2018-07-17T09:14:53Z</time>
      </trkpt>
      <trkpt lat="44.27839" lon="5.67516">
        <ele>1120</ele>
        <time>2018-07-17T09:14:55Z</time>
      </trkpt>
      <trkpt lat="44.27838" lon="5.67515">
        <ele>1120</ele>
        <time>2018-07-17T09:14:56Z</time>
      </trkpt>
      <trkpt lat="44.27836" lon="5.67515">
        <ele>1120</ele>
        <time>2018-07-17T09:14:57Z</time>
      </trkpt>
      <trkpt lat="44.27834" lon="5.67514">
        <ele>1120</ele>
        <time>2018-07-17T09:14:59Z</time>
      </trkpt>
      <trkpt lat="44.27835" lon="5.67511">
        <ele>1120</ele>
        <time>2018-07-17T09:15:01Z</time>
      </trkpt>
      <trkpt lat="44.27836" lon="5.6751">
        <ele>1120</ele>
        <time>2018-07-17T09:15:03Z</time>
      </trkpt>
      <trkpt lat="44.27836" lon="5.67507">
        <ele>1120</ele>
        <time>2018-07-17T09:15:05Z</time>
      </trkpt>
      <trkpt lat="44.27836" lon="5.67505">
        <ele>1120</ele>
        <time>2018-07-17T09:15:07Z</time>
      </trkpt>
      <trkpt lat="44.27838" lon="5.67503">
        <ele>1120</ele>
        <time>2018-07-17T09:15:10Z</time>
      </trkpt>
      <trkpt lat="44.27839" lon="5.67501">
        <ele>1120</ele>
        <time>2018-07-17T09:15:12Z</time>
      </trkpt>
      <trkpt lat="44.27839" lon="5.67499">
        <ele>1120</ele>
        <time>2018-07-17T09:15:14Z</time>
      </trkpt>
      <trkpt lat="44.27839" lon="5.67498">
        <ele>1120</ele>
        <time>2018-07-17T09:15:16Z</time>
      </trkpt>
      <trkpt lat="44.27839" lon="5.67496">
        <ele>1120</ele>
        <time>2018-07-17T09:15:19Z</time>
      </trkpt>
      <trkpt lat="44.2784" lon="5.67494">
        <ele>1120</ele>
        <time>2018-07-17T09:15:20Z</time>
      </trkpt>
      <trkpt lat="44.27842" lon="5.67492">
        <ele>1120</ele>
        <time>2018-07-17T09:15:22Z</time>
      </trkpt>
      <trkpt lat="44.27842" lon="5.67492">
        <ele>1120</ele>
        <time>2018-07-17T09:15:23Z</time>
      </trkpt>
      <trkpt lat="44.27842" lon="5.6749">
        <ele>1120</ele>
        <time>2018-07-17T09:15:24Z</time>
      </trkpt>
      <trkpt lat="44.27843" lon="5.67488">
        <ele>1120</ele>
        <time>2018-07-17T09:15:26Z</time>
      </trkpt>
      <trkpt lat="44.27843" lon="5.67486">
        <ele>1120</ele>
        <time>2018-07-17T09:15:28Z</time>
      </trkpt>
      <trkpt lat="44.27842" lon="5.67485">
        <ele>1120</ele>
        <time>2018-07-17T09:15:30Z</time>
      </trkpt>
      <trkpt lat="44.27841" lon="5.67483">
        <ele>1120</ele>
        <time>2018-07-17T09:15:33Z</time>
      </trkpt>
      <trkpt lat="44.2784" lon="5.67482">
        <ele>1118</ele>
        <time>2018-07-17T09:15:35Z</time>
      </trkpt>
      <trkpt lat="44.27841" lon="5.6748">
        <ele>1118</ele>
        <time>2018-07-17T09:15:36Z</time>
      </trkpt>
      <trkpt lat="44.27842" lon="5.67478">
        <ele>1116</ele>
        <time>2018-07-17T09:15:38Z</time>
      </trkpt>
      <trkpt lat="44.27842" lon="5.67476">
        <ele>1116</ele>
        <time>2018-07-17T09:15:40Z</time>
      </trkpt>
      <trkpt lat="44.27842" lon="5.67474">
        <ele>1115</ele>
        <time>2018-07-17T09:15:42Z</time>
      </trkpt>
      <trkpt lat="44.27842" lon="5.67472">
        <ele>1115</ele>
        <time>2018-07-17T09:15:44Z</time>
      </trkpt>
      <trkpt lat="44.27842" lon="5.67471">
        <ele>1114</ele>
        <time>2018-07-17T09:15:46Z</time>
      </trkpt>
      <trkpt lat="44.27843" lon="5.67469">
        <ele>1113</ele>
        <time>2018-07-17T09:15:48Z</time>
      </trkpt>
      <trkpt lat="44.27844" lon="5.67468">
        <ele>1112</ele>
        <time>2018-07-17T09:15:49Z</time>
      </trkpt>
      <trkpt lat="44.27845" lon="5.67467">
        <ele>1112</ele>
        <time>2018-07-17T09:15:51Z</time>
      </trkpt>
      <trkpt lat="44.27845" lon="5.67465">
        <ele>1112</ele>
        <time>2018-07-17T09:15:54Z</time>
      </trkpt>
      <trkpt lat="44.27847" lon="5.67465">
        <ele>1112</ele>
        <time>2018-07-17T09:15:57Z</time>
      </trkpt>
      <trkpt lat="44.27848" lon="5.67465">
        <ele>1112</ele>
        <time>2018-07-17T09:15:58Z</time>
      </trkpt>
      <trkpt lat="44.27849" lon="5.67466">
        <ele>1111</ele>
        <time>2018-07-17T09:16:00Z</time>
      </trkpt>
      <trkpt lat="44.27851" lon="5.67467">
        <ele>1109</ele>
        <time>2018-07-17T09:16:02Z</time>
      </trkpt>
      <trkpt lat="44.27853" lon="5.67468">
        <ele>1108</ele>
        <time>2018-07-17T09:16:03Z</time>
      </trkpt>
      <trkpt lat="44.27854" lon="5.67468">
        <ele>1106</ele>
        <time>2018-07-17T09:16:05Z</time>
      </trkpt>
      <trkpt lat="44.27856" lon="5.67469">
        <ele>1105</ele>
        <time>2018-07-17T09:16:07Z</time>
      </trkpt>
      <trkpt lat="44.27857" lon="5.67469">
        <ele>1105</ele>
        <time>2018-07-17T09:16:08Z</time>
      </trkpt>
      <trkpt lat="44.27859" lon="5.6747">
        <ele>1103</ele>
        <time>2018-07-17T09:16:10Z</time>
      </trkpt>
      <trkpt lat="44.2786" lon="5.6747">
        <ele>1102</ele>
        <time>2018-07-17T09:16:12Z</time>
      </trkpt>
      <trkpt lat="44.27862" lon="5.67471">
        <ele>1101</ele>
        <time>2018-07-17T09:16:15Z</time>
      </trkpt>
      <trkpt lat="44.27863" lon="5.67471">
        <ele>1101</ele>
        <time>2018-07-17T09:16:17Z</time>
      </trkpt>
      <trkpt lat="44.27864" lon="5.67472">
        <ele>1100</ele>
        <time>2018-07-17T09:16:20Z</time>
      </trkpt>
      <trkpt lat="44.27866" lon="5.67471">
        <ele>1099</ele>
        <time>2018-07-17T09:16:21Z</time>
      </trkpt>
      <trkpt lat="44.27868" lon="5.67471">
        <ele>1099</ele>
        <time>2018-07-17T09:16:22Z</time>
      </trkpt>
      <trkpt lat="44.27869" lon="5.6747">
        <ele>1098</ele>
        <time>2018-07-17T09:16:24Z</time>
      </trkpt>
      <trkpt lat="44.2787" lon="5.6747">
        <ele>1098</ele>
        <time>2018-07-17T09:16:26Z</time>
      </trkpt>
      <trkpt lat="44.27872" lon="5.67469">
        <ele>1098</ele>
        <time>2018-07-17T09:16:27Z</time>
      </trkpt>
      <trkpt lat="44.27873" lon="5.67469">
        <ele>1098</ele>
        <time>2018-07-17T09:16:28Z</time>
      </trkpt>
      <trkpt lat="44.27875" lon="5.6747">
        <ele>1098</ele>
        <time>2018-07-17T09:16:30Z</time>
      </trkpt>
      <trkpt lat="44.27877" lon="5.6747">
        <ele>1098</ele>
        <time>2018-07-17T09:16:32Z</time>
      </trkpt>
      <trkpt lat="44.27877" lon="5.67468">
        <ele>1098</ele>
        <time>2018-07-17T09:16:35Z</time>
      </trkpt>
      <trkpt lat="44.27878" lon="5.67467">
        <ele>1098</ele>
        <time>2018-07-17T09:16:39Z</time>
      </trkpt>
      <trkpt lat="44.27879" lon="5.67466">
        <ele>1097</ele>
        <time>2018-07-17T09:16:41Z</time>
      </trkpt>
      <trkpt lat="44.27878" lon="5.67467">
        <ele>1092</ele>
        <time>2018-07-17T09:16:50Z</time>
      </trkpt>
      <trkpt lat="44.27877" lon="5.67468">
        <ele>1090</ele>
        <time>2018-07-17T09:16:56Z</time>
      </trkpt>
      <trkpt lat="44.27878" lon="5.67466">
        <ele>1090</ele>
        <time>2018-07-17T09:16:59Z</time>
      </trkpt>
      <trkpt lat="44.27879" lon="5.67466">
        <ele>1090</ele>
        <time>2018-07-17T09:17:01Z</time>
      </trkpt>
      <trkpt lat="44.27881" lon="5.67465">
        <ele>1090</ele>
        <time>2018-07-17T09:17:04Z</time>
      </trkpt>
      <trkpt lat="44.27882" lon="5.67465">
        <ele>1090</ele>
        <time>2018-07-17T09:17:05Z</time>
      </trkpt>
      <trkpt lat="44.27884" lon="5.67464">
        <ele>1090</ele>
        <time>2018-07-17T09:17:07Z</time>
      </trkpt>
      <trkpt lat="44.27885" lon="5.67463">
        <ele>1090</ele>
        <time>2018-07-17T09:17:08Z</time>
      </trkpt>
      <trkpt lat="44.27886" lon="5.67462">
        <ele>1090</ele>
        <time>2018-07-17T09:17:09Z</time>
      </trkpt>
      <trkpt lat="44.27888" lon="5.6746">
        <ele>1090</ele>
        <time>2018-07-17T09:17:11Z</time>
      </trkpt>
      <trkpt lat="44.2789" lon="5.67459">
        <ele>1090</ele>
        <time>2018-07-17T09:17:12Z</time>
      </trkpt>
      <trkpt lat="44.27891" lon="5.67458">
        <ele>1090</ele>
        <time>2018-07-17T09:17:13Z</time>
      </trkpt>
      <trkpt lat="44.27893" lon="5.67458">
        <ele>1090</ele>
        <time>2018-07-17T09:17:15Z</time>
      </trkpt>
      <trkpt lat="44.27894" lon="5.67458">
        <ele>1090</ele>
        <time>2018-07-17T09:17:17Z</time>
      </trkpt>
      <trkpt lat="44.27896" lon="5.67458">
        <ele>1090</ele>
        <time>2018-07-17T09:17:19Z</time>
      </trkpt>
      <trkpt lat="44.27897" lon="5.67457">
        <ele>1090</ele>
        <time>2018-07-17T09:17:20Z</time>
      </trkpt>
      <trkpt lat="44.27899" lon="5.67457">
        <ele>1090</ele>
        <time>2018-07-17T09:17:23Z</time>
      </trkpt>
      <trkpt lat="44.27901" lon="5.67457">
        <ele>1090</ele>
        <time>2018-07-17T09:17:25Z</time>
      </trkpt>
      <trkpt lat="44.27903" lon="5.67456">
        <ele>1090</ele>
        <time>2018-07-17T09:17:27Z</time>
      </trkpt>
      <trkpt lat="44.27904" lon="5.67455">
        <ele>1090</ele>
        <time>2018-07-17T09:17:29Z</time>
      </trkpt>
      <trkpt lat="44.27906" lon="5.67453">
        <ele>1090</ele>
        <time>2018-07-17T09:17:31Z</time>
      </trkpt>
      <trkpt lat="44.27907" lon="5.67453">
        <ele>1090</ele>
        <time>2018-07-17T09:17:33Z</time>
      </trkpt>
      <trkpt lat="44.27908" lon="5.67451">
        <ele>1090</ele>
        <time>2018-07-17T09:17:35Z</time>
      </trkpt>
      <trkpt lat="44.27909" lon="5.6745">
        <ele>1089</ele>
        <time>2018-07-17T09:17:37Z</time>
      </trkpt>
      <trkpt lat="44.27911" lon="5.67447">
        <ele>1089</ele>
        <time>2018-07-17T09:17:39Z</time>
      </trkpt>
      <trkpt lat="44.27911" lon="5.67446">
        <ele>1089</ele>
        <time>2018-07-17T09:17:41Z</time>
      </trkpt>
      <trkpt lat="44.2791" lon="5.67444">
        <ele>1089</ele>
        <time>2018-07-17T09:17:45Z</time>
      </trkpt>
      <trkpt lat="44.27908" lon="5.67443">
        <ele>1089</ele>
        <time>2018-07-17T09:17:47Z</time>
      </trkpt>
      <trkpt lat="44.27908" lon="5.67442">
        <ele>1089</ele>
        <time>2018-07-17T09:17:49Z</time>
      </trkpt>
      <trkpt lat="44.27908" lon="5.6744">
        <ele>1089</ele>
        <time>2018-07-17T09:17:51Z</time>
      </trkpt>
      <trkpt lat="44.27907" lon="5.67438">
        <ele>1089</ele>
        <time>2018-07-17T09:17:53Z</time>
      </trkpt>
      <trkpt lat="44.27907" lon="5.67436">
        <ele>1089</ele>
        <time>2018-07-17T09:17:55Z</time>
      </trkpt>
      <trkpt lat="44.27907" lon="5.67434">
        <ele>1089</ele>
        <time>2018-07-17T09:17:57Z</time>
      </trkpt>
      <trkpt lat="44.27908" lon="5.67432">
        <ele>1089</ele>
        <time>2018-07-17T09:18:00Z</time>
      </trkpt>
      <trkpt lat="44.27909" lon="5.6743">
        <ele>1088</ele>
        <time>2018-07-17T09:18:02Z</time>
      </trkpt>
      <trkpt lat="44.27909" lon="5.67428">
        <ele>1087</ele>
        <time>2018-07-17T09:18:04Z</time>
      </trkpt>
      <trkpt lat="44.2791" lon="5.67426">
        <ele>1086</ele>
        <time>2018-07-17T09:18:07Z</time>
      </trkpt>
      <trkpt lat="44.27911" lon="5.67424">
        <ele>1086</ele>
        <time>2018-07-17T09:18:09Z</time>
      </trkpt>
      <trkpt lat="44.27912" lon="5.67423">
        <ele>1086</ele>
        <time>2018-07-17T09:18:11Z</time>
      </trkpt>
      <trkpt lat="44.27913" lon="5.67421">
        <ele>1085</ele>
        <time>2018-07-17T09:18:13Z</time>
      </trkpt>
      <trkpt lat="44.27914" lon="5.67419">
        <ele>1085</ele>
        <time>2018-07-17T09:18:15Z</time>
      </trkpt>
      <trkpt lat="44.27914" lon="5.67418">
        <ele>1085</ele>
        <time>2018-07-17T09:18:16Z</time>
      </trkpt>
      <trkpt lat="44.27915" lon="5.67416">
        <ele>1085</ele>
        <time>2018-07-17T09:18:17Z</time>
      </trkpt>
      <trkpt lat="44.27915" lon="5.67415">
        <ele>1085</ele>
        <time>2018-07-17T09:18:18Z</time>
      </trkpt>
      <trkpt lat="44.27916" lon="5.67413">
        <ele>1085</ele>
        <time>2018-07-17T09:18:19Z</time>
      </trkpt>
      <trkpt lat="44.27917" lon="5.6741">
        <ele>1085</ele>
        <time>2018-07-17T09:18:21Z</time>
      </trkpt>
      <trkpt lat="44.27918" lon="5.67409">
        <ele>1085</ele>
        <time>2018-07-17T09:18:22Z</time>
      </trkpt>
      <trkpt lat="44.27919" lon="5.67407">
        <ele>1085</ele>
        <time>2018-07-17T09:18:23Z</time>
      </trkpt>
      <trkpt lat="44.2792" lon="5.67405">
        <ele>1085</ele>
        <time>2018-07-17T09:18:24Z</time>
      </trkpt>
      <trkpt lat="44.27921" lon="5.67403">
        <ele>1084</ele>
        <time>2018-07-17T09:18:27Z</time>
      </trkpt>
      <trkpt lat="44.27921" lon="5.67401">
        <ele>1084</ele>
        <time>2018-07-17T09:18:29Z</time>
      </trkpt>
      <trkpt lat="44.27922" lon="5.674">
        <ele>1083</ele>
        <time>2018-07-17T09:18:31Z</time>
      </trkpt>
      <trkpt lat="44.27922" lon="5.67398">
        <ele>1082</ele>
        <time>2018-07-17T09:18:33Z</time>
      </trkpt>
      <trkpt lat="44.27922" lon="5.67396">
        <ele>1082</ele>
        <time>2018-07-17T09:18:35Z</time>
      </trkpt>
      <trkpt lat="44.27922" lon="5.67394">
        <ele>1081</ele>
        <time>2018-07-17T09:18:37Z</time>
      </trkpt>
      <trkpt lat="44.27922" lon="5.67392">
        <ele>1080</ele>
        <time>2018-07-17T09:18:39Z</time>
      </trkpt>
      <trkpt lat="44.27922" lon="5.6739">
        <ele>1080</ele>
        <time>2018-07-17T09:18:41Z</time>
      </trkpt>
      <trkpt lat="44.27922" lon="5.67387">
        <ele>1080</ele>
        <time>2018-07-17T09:18:43Z</time>
      </trkpt>
      <trkpt lat="44.27922" lon="5.67385">
        <ele>1080</ele>
        <time>2018-07-17T09:18:45Z</time>
      </trkpt>
      <trkpt lat="44.27921" lon="5.67383">
        <ele>1080</ele>
        <time>2018-07-17T09:18:46Z</time>
      </trkpt>
      <trkpt lat="44.27921" lon="5.67381">
        <ele>1080</ele>
        <time>2018-07-17T09:18:48Z</time>
      </trkpt>
      <trkpt lat="44.27921" lon="5.67379">
        <ele>1080</ele>
        <time>2018-07-17T09:18:49Z</time>
      </trkpt>
      <trkpt lat="44.27921" lon="5.67378">
        <ele>1080</ele>
        <time>2018-07-17T09:18:51Z</time>
      </trkpt>
      <trkpt lat="44.27921" lon="5.67376">
        <ele>1080</ele>
        <time>2018-07-17T09:18:53Z</time>
      </trkpt>
      <trkpt lat="44.27921" lon="5.67374">
        <ele>1080</ele>
        <time>2018-07-17T09:18:55Z</time>
      </trkpt>
      <trkpt lat="44.27921" lon="5.67372">
        <ele>1080</ele>
        <time>2018-07-17T09:18:57Z</time>
      </trkpt>
      <trkpt lat="44.27921" lon="5.67369">
        <ele>1080</ele>
        <time>2018-07-17T09:18:59Z</time>
      </trkpt>
      <trkpt lat="44.27922" lon="5.67368">
        <ele>1079</ele>
        <time>2018-07-17T09:19:01Z</time>
      </trkpt>
      <trkpt lat="44.27922" lon="5.67366">
        <ele>1079</ele>
        <time>2018-07-17T09:19:03Z</time>
      </trkpt>
      <trkpt lat="44.27922" lon="5.67363">
        <ele>1078</ele>
        <time>2018-07-17T09:19:05Z</time>
      </trkpt>
      <trkpt lat="44.27922" lon="5.67361">
        <ele>1078</ele>
        <time>2018-07-17T09:19:07Z</time>
      </trkpt>
      <trkpt lat="44.27922" lon="5.67358">
        <ele>1078</ele>
        <time>2018-07-17T09:19:09Z</time>
      </trkpt>
      <trkpt lat="44.27922" lon="5.67356">
        <ele>1078</ele>
        <time>2018-07-17T09:19:11Z</time>
      </trkpt>
      <trkpt lat="44.27923" lon="5.67354">
        <ele>1077</ele>
        <time>2018-07-17T09:19:13Z</time>
      </trkpt>
      <trkpt lat="44.27923" lon="5.67352">
        <ele>1076</ele>
        <time>2018-07-17T09:19:15Z</time>
      </trkpt>
      <trkpt lat="44.27923" lon="5.6735">
        <ele>1076</ele>
        <time>2018-07-17T09:19:17Z</time>
      </trkpt>
      <trkpt lat="44.27923" lon="5.67348">
        <ele>1075</ele>
        <time>2018-07-17T09:19:19Z</time>
      </trkpt>
      <trkpt lat="44.27923" lon="5.67346">
        <ele>1074</ele>
        <time>2018-07-17T09:19:21Z</time>
      </trkpt>
      <trkpt lat="44.27924" lon="5.67343">
        <ele>1073</ele>
        <time>2018-07-17T09:19:23Z</time>
      </trkpt>
      <trkpt lat="44.27924" lon="5.67342">
        <ele>1073</ele>
        <time>2018-07-17T09:19:24Z</time>
      </trkpt>
      <trkpt lat="44.27923" lon="5.6734">
        <ele>1072</ele>
        <time>2018-07-17T09:19:26Z</time>
      </trkpt>
      <trkpt lat="44.27924" lon="5.67338">
        <ele>1070</ele>
        <time>2018-07-17T09:19:30Z</time>
      </trkpt>
      <trkpt lat="44.27924" lon="5.67336">
        <ele>1069</ele>
        <time>2018-07-17T09:19:32Z</time>
      </trkpt>
      <trkpt lat="44.27924" lon="5.67334">
        <ele>1068</ele>
        <time>2018-07-17T09:19:34Z</time>
      </trkpt>
      <trkpt lat="44.27924" lon="5.67332">
        <ele>1068</ele>
        <time>2018-07-17T09:19:36Z</time>
      </trkpt>
      <trkpt lat="44.27924" lon="5.67331">
        <ele>1067</ele>
        <time>2018-07-17T09:19:38Z</time>
      </trkpt>
      <trkpt lat="44.27924" lon="5.67329">
        <ele>1066</ele>
        <time>2018-07-17T09:19:40Z</time>
      </trkpt>
      <trkpt lat="44.27924" lon="5.67327">
        <ele>1066</ele>
        <time>2018-07-17T09:19:42Z</time>
      </trkpt>
      <trkpt lat="44.27924" lon="5.67325">
        <ele>1065</ele>
        <time>2018-07-17T09:19:45Z</time>
      </trkpt>
      <trkpt lat="44.27924" lon="5.67323">
        <ele>1065</ele>
        <time>2018-07-17T09:19:47Z</time>
      </trkpt>
      <trkpt lat="44.27924" lon="5.67321">
        <ele>1065</ele>
        <time>2018-07-17T09:19:49Z</time>
      </trkpt>
      <trkpt lat="44.27924" lon="5.67319">
        <ele>1064</ele>
        <time>2018-07-17T09:19:52Z</time>
      </trkpt>
      <trkpt lat="44.27923" lon="5.67317">
        <ele>1064</ele>
        <time>2018-07-17T09:19:54Z</time>
      </trkpt>
      <trkpt lat="44.27922" lon="5.67316">
        <ele>1063</ele>
        <time>2018-07-17T09:19:57Z</time>
      </trkpt>
      <trkpt lat="44.27921" lon="5.67314">
        <ele>1062</ele>
        <time>2018-07-17T09:20:00Z</time>
      </trkpt>
      <trkpt lat="44.27922" lon="5.67312">
        <ele>1062</ele>
        <time>2018-07-17T09:20:03Z</time>
      </trkpt>
      <trkpt lat="44.27922" lon="5.6731">
        <ele>1062</ele>
        <time>2018-07-17T09:20:05Z</time>
      </trkpt>
      <trkpt lat="44.27922" lon="5.67308">
        <ele>1062</ele>
        <time>2018-07-17T09:20:08Z</time>
      </trkpt>
      <trkpt lat="44.2792" lon="5.67307">
        <ele>1062</ele>
        <time>2018-07-17T09:20:10Z</time>
      </trkpt>
      <trkpt lat="44.27919" lon="5.67306">
        <ele>1062</ele>
        <time>2018-07-17T09:20:12Z</time>
      </trkpt>
      <trkpt lat="44.27919" lon="5.67304">
        <ele>1062</ele>
        <time>2018-07-17T09:20:14Z</time>
      </trkpt>
      <trkpt lat="44.27917" lon="5.67303">
        <ele>1062</ele>
        <time>2018-07-17T09:20:17Z</time>
      </trkpt>
      <trkpt lat="44.27916" lon="5.67301">
        <ele>1062</ele>
        <time>2018-07-17T09:20:20Z</time>
      </trkpt>
      <trkpt lat="44.27916" lon="5.67299">
        <ele>1062</ele>
        <time>2018-07-17T09:20:22Z</time>
      </trkpt>
      <trkpt lat="44.27916" lon="5.67297">
        <ele>1062</ele>
        <time>2018-07-17T09:20:24Z</time>
      </trkpt>
      <trkpt lat="44.27915" lon="5.67295">
        <ele>1062</ele>
        <time>2018-07-17T09:20:27Z</time>
      </trkpt>
      <trkpt lat="44.27914" lon="5.67293">
        <ele>1062</ele>
        <time>2018-07-17T09:20:29Z</time>
      </trkpt>
      <trkpt lat="44.27912" lon="5.67291">
        <ele>1062</ele>
        <time>2018-07-17T09:20:31Z</time>
      </trkpt>
      <trkpt lat="44.27912" lon="5.6729">
        <ele>1062</ele>
        <time>2018-07-17T09:20:33Z</time>
      </trkpt>
      <trkpt lat="44.27913" lon="5.67289">
        <ele>1062</ele>
        <time>2018-07-17T09:20:37Z</time>
      </trkpt>
      <trkpt lat="44.27914" lon="5.67287">
        <ele>1061</ele>
        <time>2018-07-17T09:20:41Z</time>
      </trkpt>
      <trkpt lat="44.27915" lon="5.67288">
        <ele>1061</ele>
        <time>2018-07-17T09:20:52Z</time>
      </trkpt>
      <trkpt lat="44.27916" lon="5.6729">
        <ele>1061</ele>
        <time>2018-07-17T09:20:54Z</time>
      </trkpt>
      <trkpt lat="44.27917" lon="5.67292">
        <ele>1061</ele>
        <time>2018-07-17T09:20:56Z</time>
      </trkpt>
      <trkpt lat="44.27919" lon="5.67294">
        <ele>1061</ele>
        <time>2018-07-17T09:20:59Z</time>
      </trkpt>
      <trkpt lat="44.27919" lon="5.67296">
        <ele>1061</ele>
        <time>2018-07-17T09:21:03Z</time>
      </trkpt>
      <trkpt lat="44.27918" lon="5.67296">
        <ele>1063</ele>
        <time>2018-07-17T09:21:07Z</time>
      </trkpt>
      <trkpt lat="44.27918" lon="5.67297">
        <ele>1066</ele>
        <time>2018-07-17T09:21:11Z</time>
      </trkpt>
      <trkpt lat="44.27919" lon="5.67298">
        <ele>1068</ele>
        <time>2018-07-17T09:21:15Z</time>
      </trkpt>
      <trkpt lat="44.27918" lon="5.673">
        <ele>1069</ele>
        <time>2018-07-17T09:21:24Z</time>
      </trkpt>
      <trkpt lat="44.27918" lon="5.67298">
        <ele>1071</ele>
        <time>2018-07-17T09:21:31Z</time>
      </trkpt>
      <trkpt lat="44.27919" lon="5.67296">
        <ele>1071</ele>
        <time>2018-07-17T09:21:35Z</time>
      </trkpt>
      <trkpt lat="44.27918" lon="5.67294">
        <ele>1071</ele>
        <time>2018-07-17T09:21:36Z</time>
      </trkpt>
      <trkpt lat="44.27916" lon="5.67293">
        <ele>1069</ele>
        <time>2018-07-17T09:21:41Z</time>
      </trkpt>
      <trkpt lat="44.27917" lon="5.67295">
        <ele>1069</ele>
        <time>2018-07-17T09:21:48Z</time>
      </trkpt>
      <trkpt lat="44.27919" lon="5.67295">
        <ele>1069</ele>
        <time>2018-07-17T09:21:50Z</time>
      </trkpt>
      <trkpt lat="44.2792" lon="5.67297">
        <ele>1069</ele>
        <time>2018-07-17T09:21:52Z</time>
      </trkpt>
      <trkpt lat="44.27921" lon="5.67299">
        <ele>1069</ele>
        <time>2018-07-17T09:21:54Z</time>
      </trkpt>
      <trkpt lat="44.27922" lon="5.67301">
        <ele>1069</ele>
        <time>2018-07-17T09:21:56Z</time>
      </trkpt>
      <trkpt lat="44.27922" lon="5.67302">
        <ele>1069</ele>
        <time>2018-07-17T09:21:58Z</time>
      </trkpt>
      <trkpt lat="44.27923" lon="5.67304">
        <ele>1069</ele>
        <time>2018-07-17T09:22:01Z</time>
      </trkpt>
      <trkpt lat="44.27922" lon="5.67302">
        <ele>1069</ele>
        <time>2018-07-17T09:22:03Z</time>
      </trkpt>
      <trkpt lat="44.27921" lon="5.673">
        <ele>1069</ele>
        <time>2018-07-17T09:22:05Z</time>
      </trkpt>
      <trkpt lat="44.2792" lon="5.67297">
        <ele>1069</ele>
        <time>2018-07-17T09:22:07Z</time>
      </trkpt>
      <trkpt lat="44.2792" lon="5.67295">
        <ele>1069</ele>
        <time>2018-07-17T09:22:08Z</time>
      </trkpt>
      <trkpt lat="44.2792" lon="5.67293">
        <ele>1069</ele>
        <time>2018-07-17T09:22:09Z</time>
      </trkpt>
      <trkpt lat="44.27921" lon="5.67291">
        <ele>1068</ele>
        <time>2018-07-17T09:22:10Z</time>
      </trkpt>
      <trkpt lat="44.27921" lon="5.67289">
        <ele>1068</ele>
        <time>2018-07-17T09:22:11Z</time>
      </trkpt>
      <trkpt lat="44.27921" lon="5.67287">
        <ele>1068</ele>
        <time>2018-07-17T09:22:12Z</time>
      </trkpt>
      <trkpt lat="44.27922" lon="5.67285">
        <ele>1068</ele>
        <time>2018-07-17T09:22:13Z</time>
      </trkpt>
      <trkpt lat="44.27922" lon="5.67283">
        <ele>1067</ele>
        <time>2018-07-17T09:22:14Z</time>
      </trkpt>
      <trkpt lat="44.27922" lon="5.67281">
        <ele>1067</ele>
        <time>2018-07-17T09:22:15Z</time>
      </trkpt>
      <trkpt lat="44.27922" lon="5.6728">
        <ele>1067</ele>
        <time>2018-07-17T09:22:16Z</time>
      </trkpt>
      <trkpt lat="44.27921" lon="5.67278">
        <ele>1066</ele>
        <time>2018-07-17T09:22:17Z</time>
      </trkpt>
      <trkpt lat="44.2792" lon="5.67275">
        <ele>1065</ele>
        <time>2018-07-17T09:22:19Z</time>
      </trkpt>
      <trkpt lat="44.27921" lon="5.67273">
        <ele>1064</ele>
        <time>2018-07-17T09:22:21Z</time>
      </trkpt>
      <trkpt lat="44.2792" lon="5.6727">
        <ele>1064</ele>
        <time>2018-07-17T09:22:23Z</time>
      </trkpt>
      <trkpt lat="44.27919" lon="5.67269">
        <ele>1064</ele>
        <time>2018-07-17T09:22:24Z</time>
      </trkpt>
      <trkpt lat="44.27919" lon="5.67266">
        <ele>1063</ele>
        <time>2018-07-17T09:22:27Z</time>
      </trkpt>
      <trkpt lat="44.27921" lon="5.67264">
        <ele>1061</ele>
        <time>2018-07-17T09:22:31Z</time>
      </trkpt>
      <trkpt lat="44.27923" lon="5.67261">
        <ele>1059</ele>
        <time>2018-07-17T09:22:33Z</time>
      </trkpt>
      <trkpt lat="44.27924" lon="5.67258">
        <ele>1059</ele>
        <time>2018-07-17T09:22:34Z</time>
      </trkpt>
      <trkpt lat="44.27925" lon="5.67256">
        <ele>1059</ele>
        <time>2018-07-17T09:22:35Z</time>
      </trkpt>
      <trkpt lat="44.27925" lon="5.67255">
        <ele>1059</ele>
        <time>2018-07-17T09:22:36Z</time>
      </trkpt>
      <trkpt lat="44.27926" lon="5.67253">
        <ele>1059</ele>
        <time>2018-07-17T09:22:37Z</time>
      </trkpt>
      <trkpt lat="44.27927" lon="5.6725">
        <ele>1059</ele>
        <time>2018-07-17T09:22:39Z</time>
      </trkpt>
      <trkpt lat="44.27928" lon="5.67249">
        <ele>1059</ele>
        <time>2018-07-17T09:22:40Z</time>
      </trkpt>
      <trkpt lat="44.27928" lon="5.67247">
        <ele>1059</ele>
        <time>2018-07-17T09:22:41Z</time>
      </trkpt>
      <trkpt lat="44.27929" lon="5.67246">
        <ele>1059</ele>
        <time>2018-07-17T09:22:42Z</time>
      </trkpt>
      <trkpt lat="44.2793" lon="5.67244">
        <ele>1059</ele>
        <time>2018-07-17T09:22:45Z</time>
      </trkpt>
      <trkpt lat="44.2793" lon="5.67242">
        <ele>1058</ele>
        <time>2018-07-17T09:22:47Z</time>
      </trkpt>
      <trkpt lat="44.2793" lon="5.6724">
        <ele>1057</ele>
        <time>2018-07-17T09:22:50Z</time>
      </trkpt>
      <trkpt lat="44.2793" lon="5.67238">
        <ele>1056</ele>
        <time>2018-07-17T09:22:52Z</time>
      </trkpt>
      <trkpt lat="44.2793" lon="5.67236">
        <ele>1055</ele>
        <time>2018-07-17T09:22:53Z</time>
      </trkpt>
      <trkpt lat="44.27931" lon="5.67234">
        <ele>1054</ele>
        <time>2018-07-17T09:22:55Z</time>
      </trkpt>
      <trkpt lat="44.27931" lon="5.67232">
        <ele>1054</ele>
        <time>2018-07-17T09:22:57Z</time>
      </trkpt>
      <trkpt lat="44.2793" lon="5.6723">
        <ele>1054</ele>
        <time>2018-07-17T09:22:59Z</time>
      </trkpt>
      <trkpt lat="44.27929" lon="5.67228">
        <ele>1054</ele>
        <time>2018-07-17T09:23:01Z</time>
      </trkpt>
      <trkpt lat="44.27928" lon="5.67227">
        <ele>1054</ele>
        <time>2018-07-17T09:23:03Z</time>
      </trkpt>
      <trkpt lat="44.27928" lon="5.67225">
        <ele>1054</ele>
        <time>2018-07-17T09:23:05Z</time>
      </trkpt>
      <trkpt lat="44.27929" lon="5.67223">
        <ele>1054</ele>
        <time>2018-07-17T09:23:07Z</time>
      </trkpt>
      <trkpt lat="44.2793" lon="5.6722">
        <ele>1054</ele>
        <time>2018-07-17T09:23:09Z</time>
      </trkpt>
      <trkpt lat="44.27931" lon="5.67219">
        <ele>1054</ele>
        <time>2018-07-17T09:23:11Z</time>
      </trkpt>
      <trkpt lat="44.27932" lon="5.67217">
        <ele>1053</ele>
        <time>2018-07-17T09:23:13Z</time>
      </trkpt>
      <trkpt lat="44.27932" lon="5.67215">
        <ele>1052</ele>
        <time>2018-07-17T09:23:15Z</time>
      </trkpt>
      <trkpt lat="44.27932" lon="5.67213">
        <ele>1051</ele>
        <time>2018-07-17T09:23:17Z</time>
      </trkpt>
      <trkpt lat="44.2793" lon="5.67211">
        <ele>1051</ele>
        <time>2018-07-17T09:23:20Z</time>
      </trkpt>
      <trkpt lat="44.2793" lon="5.6721">
        <ele>1050</ele>
        <time>2018-07-17T09:23:22Z</time>
      </trkpt>
      <trkpt lat="44.27931" lon="5.67208">
        <ele>1050</ele>
        <time>2018-07-17T09:23:23Z</time>
      </trkpt>
      <trkpt lat="44.27931" lon="5.67207">
        <ele>1050</ele>
        <time>2018-07-17T09:23:24Z</time>
      </trkpt>
      <trkpt lat="44.27931" lon="5.67205">
        <ele>1050</ele>
        <time>2018-07-17T09:23:25Z</time>
      </trkpt>
      <trkpt lat="44.2793" lon="5.67203">
        <ele>1050</ele>
        <time>2018-07-17T09:23:27Z</time>
      </trkpt>
      <trkpt lat="44.2793" lon="5.67202">
        <ele>1049</ele>
        <time>2018-07-17T09:23:28Z</time>
      </trkpt>
      <trkpt lat="44.2793" lon="5.672">
        <ele>1049</ele>
        <time>2018-07-17T09:23:29Z</time>
      </trkpt>
      <trkpt lat="44.27931" lon="5.67197">
        <ele>1049</ele>
        <time>2018-07-17T09:23:31Z</time>
      </trkpt>
      <trkpt lat="44.27933" lon="5.67196">
        <ele>1049</ele>
        <time>2018-07-17T09:23:32Z</time>
      </trkpt>
      <trkpt lat="44.27933" lon="5.67194">
        <ele>1049</ele>
        <time>2018-07-17T09:23:33Z</time>
      </trkpt>
      <trkpt lat="44.27933" lon="5.67192">
        <ele>1049</ele>
        <time>2018-07-17T09:23:35Z</time>
      </trkpt>
      <trkpt lat="44.27934" lon="5.6719">
        <ele>1048</ele>
        <time>2018-07-17T09:23:37Z</time>
      </trkpt>
      <trkpt lat="44.27935" lon="5.67188">
        <ele>1047</ele>
        <time>2018-07-17T09:23:39Z</time>
      </trkpt>
      <trkpt lat="44.27936" lon="5.67186">
        <ele>1046</ele>
        <time>2018-07-17T09:23:41Z</time>
      </trkpt>
      <trkpt lat="44.27939" lon="5.67184">
        <ele>1045</ele>
        <time>2018-07-17T09:23:43Z</time>
      </trkpt>
      <trkpt lat="44.27941" lon="5.67182">
        <ele>1044</ele>
        <time>2018-07-17T09:23:45Z</time>
      </trkpt>
      <trkpt lat="44.27943" lon="5.67179">
        <ele>1044</ele>
        <time>2018-07-17T09:23:47Z</time>
      </trkpt>
      <trkpt lat="44.27944" lon="5.67179">
        <ele>1044</ele>
        <time>2018-07-17T09:23:48Z</time>
      </trkpt>
      <trkpt lat="44.27945" lon="5.67178">
        <ele>1044</ele>
        <time>2018-07-17T09:23:49Z</time>
      </trkpt>
      <trkpt lat="44.27946" lon="5.67176">
        <ele>1044</ele>
        <time>2018-07-17T09:23:51Z</time>
      </trkpt>
      <trkpt lat="44.27948" lon="5.67174">
        <ele>1044</ele>
        <time>2018-07-17T09:23:53Z</time>
      </trkpt>
      <trkpt lat="44.27949" lon="5.67174">
        <ele>1044</ele>
        <time>2018-07-17T09:23:55Z</time>
      </trkpt>
      <trkpt lat="44.27949" lon="5.67172">
        <ele>1044</ele>
        <time>2018-07-17T09:23:58Z</time>
      </trkpt>
      <trkpt lat="44.2795" lon="5.67171">
        <ele>1044</ele>
        <time>2018-07-17T09:24:00Z</time>
      </trkpt>
      <trkpt lat="44.27951" lon="5.67171">
        <ele>1044</ele>
        <time>2018-07-17T09:24:02Z</time>
      </trkpt>
      <trkpt lat="44.2795" lon="5.67173">
        <ele>1043</ele>
        <time>2018-07-17T09:24:04Z</time>
      </trkpt>
      <trkpt lat="44.27951" lon="5.67173">
        <ele>1039</ele>
        <time>2018-07-17T09:24:10Z</time>
      </trkpt>
      <trkpt lat="44.27953" lon="5.67173">
        <ele>1039</ele>
        <time>2018-07-17T09:24:11Z</time>
      </trkpt>
      <trkpt lat="44.27954" lon="5.67171">
        <ele>1039</ele>
        <time>2018-07-17T09:24:13Z</time>
      </trkpt>
      <trkpt lat="44.27956" lon="5.67169">
        <ele>1039</ele>
        <time>2018-07-17T09:24:15Z</time>
      </trkpt>
      <trkpt lat="44.27958" lon="5.67168">
        <ele>1039</ele>
        <time>2018-07-17T09:24:17Z</time>
      </trkpt>
      <trkpt lat="44.27959" lon="5.67167">
        <ele>1039</ele>
        <time>2018-07-17T09:24:19Z</time>
      </trkpt>
      <trkpt lat="44.2796" lon="5.67166">
        <ele>1039</ele>
        <time>2018-07-17T09:24:21Z</time>
      </trkpt>
      <trkpt lat="44.27961" lon="5.67164">
        <ele>1039</ele>
        <time>2018-07-17T09:24:23Z</time>
      </trkpt>
      <trkpt lat="44.27962" lon="5.67163">
        <ele>1039</ele>
        <time>2018-07-17T09:24:26Z</time>
      </trkpt>
      <trkpt lat="44.27963" lon="5.67164">
        <ele>1039</ele>
        <time>2018-07-17T09:24:28Z</time>
      </trkpt>
      <trkpt lat="44.27966" lon="5.67163">
        <ele>1039</ele>
        <time>2018-07-17T09:24:32Z</time>
      </trkpt>
      <trkpt lat="44.27967" lon="5.67163">
        <ele>1039</ele>
        <time>2018-07-17T09:24:38Z</time>
      </trkpt>
      <trkpt lat="44.27967" lon="5.67165">
        <ele>1039</ele>
        <time>2018-07-17T09:24:44Z</time>
      </trkpt>
      <trkpt lat="44.27968" lon="5.67165">
        <ele>1039</ele>
        <time>2018-07-17T09:24:46Z</time>
      </trkpt>
      <trkpt lat="44.27967" lon="5.67166">
        <ele>1039</ele>
        <time>2018-07-17T09:24:49Z</time>
      </trkpt>
      <trkpt lat="44.27968" lon="5.67166">
        <ele>1039</ele>
        <time>2018-07-17T09:24:53Z</time>
      </trkpt>
      <trkpt lat="44.27969" lon="5.67164">
        <ele>1039</ele>
        <time>2018-07-17T09:24:55Z</time>
      </trkpt>
      <trkpt lat="44.27969" lon="5.67163">
        <ele>1039</ele>
        <time>2018-07-17T09:24:57Z</time>
      </trkpt>
      <trkpt lat="44.27971" lon="5.67162">
        <ele>1041</ele>
        <time>2018-07-17T09:25:01Z</time>
      </trkpt>
      <trkpt lat="44.27972" lon="5.67161">
        <ele>1042</ele>
        <time>2018-07-17T09:25:03Z</time>
      </trkpt>
      <trkpt lat="44.27973" lon="5.67161">
        <ele>1043</ele>
        <time>2018-07-17T09:25:06Z</time>
      </trkpt>
      <trkpt lat="44.27972" lon="5.67162">
        <ele>1044</ele>
        <time>2018-07-17T09:25:12Z</time>
      </trkpt>
      <trkpt lat="44.27971" lon="5.67163">
        <ele>1044</ele>
        <time>2018-07-17T09:25:17Z</time>
      </trkpt>
      <trkpt lat="44.2797" lon="5.67163">
        <ele>1044</ele>
        <time>2018-07-17T09:25:27Z</time>
      </trkpt>
      <trkpt lat="44.27969" lon="5.67164">
        <ele>1043</ele>
        <time>2018-07-17T09:25:30Z</time>
      </trkpt>
      <trkpt lat="44.27968" lon="5.67166">
        <ele>1041</ele>
        <time>2018-07-17T09:25:33Z</time>
      </trkpt>
      <trkpt lat="44.27966" lon="5.67165">
        <ele>1039</ele>
        <time>2018-07-17T09:25:42Z</time>
      </trkpt>
      <trkpt lat="44.27967" lon="5.67163">
        <ele>1039</ele>
        <time>2018-07-17T09:25:44Z</time>
      </trkpt>
      <trkpt lat="44.27966" lon="5.67165">
        <ele>1039</ele>
        <time>2018-07-17T09:25:52Z</time>
      </trkpt>
      <trkpt lat="44.27965" lon="5.67166">
        <ele>1038</ele>
        <time>2018-07-17T09:25:55Z</time>
      </trkpt>
      <trkpt lat="44.27966" lon="5.67165">
        <ele>1037</ele>
        <time>2018-07-17T09:26:04Z</time>
      </trkpt>
      <trkpt lat="44.27966" lon="5.67166">
        <ele>1035</ele>
        <time>2018-07-17T09:26:09Z</time>
      </trkpt>
      <trkpt lat="44.27965" lon="5.67167">
        <ele>1034</ele>
        <time>2018-07-17T09:26:11Z</time>
      </trkpt>
      <trkpt lat="44.27965" lon="5.67169">
        <ele>1032</ele>
        <time>2018-07-17T09:26:13Z</time>
      </trkpt>
      <trkpt lat="44.27966" lon="5.6717">
        <ele>1030</ele>
        <time>2018-07-17T09:26:16Z</time>
      </trkpt>
      <trkpt lat="44.27967" lon="5.67172">
        <ele>1029</ele>
        <time>2018-07-17T09:26:19Z</time>
      </trkpt>
      <trkpt lat="44.27969" lon="5.67173">
        <ele>1028</ele>
        <time>2018-07-17T09:26:21Z</time>
      </trkpt>
      <trkpt lat="44.27969" lon="5.67174">
        <ele>1028</ele>
        <time>2018-07-17T09:26:23Z</time>
      </trkpt>
      <trkpt lat="44.27971" lon="5.67176">
        <ele>1027</ele>
        <time>2018-07-17T09:26:25Z</time>
      </trkpt>
      <trkpt lat="44.27972" lon="5.67178">
        <ele>1027</ele>
        <time>2018-07-17T09:26:27Z</time>
      </trkpt>
      <trkpt lat="44.27973" lon="5.67179">
        <ele>1026</ele>
        <time>2018-07-17T09:26:29Z</time>
      </trkpt>
      <trkpt lat="44.27974" lon="5.67181">
        <ele>1026</ele>
        <time>2018-07-17T09:26:31Z</time>
      </trkpt>
      <trkpt lat="44.27975" lon="5.67183">
        <ele>1025</ele>
        <time>2018-07-17T09:26:33Z</time>
      </trkpt>
      <trkpt lat="44.27977" lon="5.67184">
        <ele>1024</ele>
        <time>2018-07-17T09:26:35Z</time>
      </trkpt>
      <trkpt lat="44.27978" lon="5.67185">
        <ele>1024</ele>
        <time>2018-07-17T09:26:37Z</time>
      </trkpt>
      <trkpt lat="44.2798" lon="5.67186">
        <ele>1024</ele>
        <time>2018-07-17T09:26:39Z</time>
      </trkpt>
      <trkpt lat="44.27981" lon="5.67187">
        <ele>1024</ele>
        <time>2018-07-17T09:26:42Z</time>
      </trkpt>
      <trkpt lat="44.27984" lon="5.67188">
        <ele>1024</ele>
        <time>2018-07-17T09:26:44Z</time>
      </trkpt>
      <trkpt lat="44.27985" lon="5.67189">
        <ele>1024</ele>
        <time>2018-07-17T09:26:46Z</time>
      </trkpt>
      <trkpt lat="44.27987" lon="5.67189">
        <ele>1024</ele>
        <time>2018-07-17T09:26:48Z</time>
      </trkpt>
      <trkpt lat="44.27988" lon="5.67189">
        <ele>1023</ele>
        <time>2018-07-17T09:26:50Z</time>
      </trkpt>
      <trkpt lat="44.2799" lon="5.67189">
        <ele>1023</ele>
        <time>2018-07-17T09:26:51Z</time>
      </trkpt>
      <trkpt lat="44.27991" lon="5.6719">
        <ele>1023</ele>
        <time>2018-07-17T09:26:53Z</time>
      </trkpt>
      <trkpt lat="44.27993" lon="5.6719">
        <ele>1023</ele>
        <time>2018-07-17T09:26:55Z</time>
      </trkpt>
      <trkpt lat="44.27994" lon="5.67191">
        <ele>1023</ele>
        <time>2018-07-17T09:26:57Z</time>
      </trkpt>
      <trkpt lat="44.27996" lon="5.67192">
        <ele>1023</ele>
        <time>2018-07-17T09:26:59Z</time>
      </trkpt>
      <trkpt lat="44.27997" lon="5.67193">
        <ele>1023</ele>
        <time>2018-07-17T09:27:01Z</time>
      </trkpt>
      <trkpt lat="44.27999" lon="5.67193">
        <ele>1023</ele>
        <time>2018-07-17T09:27:03Z</time>
      </trkpt>
      <trkpt lat="44.28" lon="5.67194">
        <ele>1023</ele>
        <time>2018-07-17T09:27:05Z</time>
      </trkpt>
      <trkpt lat="44.28002" lon="5.67193">
        <ele>1023</ele>
        <time>2018-07-17T09:27:06Z</time>
      </trkpt>
      <trkpt lat="44.28003" lon="5.67193">
        <ele>1023</ele>
        <time>2018-07-17T09:27:07Z</time>
      </trkpt>
      <trkpt lat="44.28005" lon="5.67194">
        <ele>1023</ele>
        <time>2018-07-17T09:27:09Z</time>
      </trkpt>
      <trkpt lat="44.28007" lon="5.67195">
        <ele>1023</ele>
        <time>2018-07-17T09:27:11Z</time>
      </trkpt>
      <trkpt lat="44.28009" lon="5.67196">
        <ele>1023</ele>
        <time>2018-07-17T09:27:13Z</time>
      </trkpt>
      <trkpt lat="44.28009" lon="5.67197">
        <ele>1022</ele>
        <time>2018-07-17T09:27:15Z</time>
      </trkpt>
      <trkpt lat="44.28011" lon="5.67198">
        <ele>1022</ele>
        <time>2018-07-17T09:27:17Z</time>
      </trkpt>
      <trkpt lat="44.28012" lon="5.67199">
        <ele>1021</ele>
        <time>2018-07-17T09:27:19Z</time>
      </trkpt>
      <trkpt lat="44.28014" lon="5.672">
        <ele>1021</ele>
        <time>2018-07-17T09:27:21Z</time>
      </trkpt>
      <trkpt lat="44.28016" lon="5.672">
        <ele>1021</ele>
        <time>2018-07-17T09:27:23Z</time>
      </trkpt>
      <trkpt lat="44.28018" lon="5.672">
        <ele>1021</ele>
        <time>2018-07-17T09:27:25Z</time>
      </trkpt>
      <trkpt lat="44.28019" lon="5.672">
        <ele>1021</ele>
        <time>2018-07-17T09:27:27Z</time>
      </trkpt>
      <trkpt lat="44.28021" lon="5.67201">
        <ele>1021</ele>
        <time>2018-07-17T09:27:29Z</time>
      </trkpt>
      <trkpt lat="44.2802" lon="5.67203">
        <ele>1020</ele>
        <time>2018-07-17T09:27:32Z</time>
      </trkpt>
      <trkpt lat="44.28019" lon="5.67204">
        <ele>1020</ele>
        <time>2018-07-17T09:27:35Z</time>
      </trkpt>
      <trkpt lat="44.2802" lon="5.67205">
        <ele>1020</ele>
        <time>2018-07-17T09:27:45Z</time>
      </trkpt>
      <trkpt lat="44.28022" lon="5.67205">
        <ele>1020</ele>
        <time>2018-07-17T09:27:47Z</time>
      </trkpt>
      <trkpt lat="44.28023" lon="5.67204">
        <ele>1020</ele>
        <time>2018-07-17T09:27:49Z</time>
      </trkpt>
      <trkpt lat="44.28024" lon="5.67203">
        <ele>1020</ele>
        <time>2018-07-17T09:27:52Z</time>
      </trkpt>
      <trkpt lat="44.28026" lon="5.67202">
        <ele>1020</ele>
        <time>2018-07-17T09:27:55Z</time>
      </trkpt>
      <trkpt lat="44.28026" lon="5.67203">
        <ele>1020</ele>
        <time>2018-07-17T09:28:11Z</time>
      </trkpt>
      <trkpt lat="44.28027" lon="5.67203">
        <ele>1018</ele>
        <time>2018-07-17T09:28:21Z</time>
      </trkpt>
      <trkpt lat="44.28028" lon="5.67202">
        <ele>1018</ele>
        <time>2018-07-17T09:28:23Z</time>
      </trkpt>
      <trkpt lat="44.28029" lon="5.67199">
        <ele>1018</ele>
        <time>2018-07-17T09:28:25Z</time>
      </trkpt>
      <trkpt lat="44.2803" lon="5.67198">
        <ele>1018</ele>
        <time>2018-07-17T09:28:27Z</time>
      </trkpt>
      <trkpt lat="44.2803" lon="5.67196">
        <ele>1018</ele>
        <time>2018-07-17T09:28:36Z</time>
      </trkpt>
      <trkpt lat="44.28031" lon="5.67197">
        <ele>1018</ele>
        <time>2018-07-17T09:28:39Z</time>
      </trkpt>
      <trkpt lat="44.28033" lon="5.67198">
        <ele>1018</ele>
        <time>2018-07-17T09:28:41Z</time>
      </trkpt>
      <trkpt lat="44.28034" lon="5.67197">
        <ele>1018</ele>
        <time>2018-07-17T09:28:43Z</time>
      </trkpt>
      <trkpt lat="44.28035" lon="5.67196">
        <ele>1018</ele>
        <time>2018-07-17T09:28:45Z</time>
      </trkpt>
      <trkpt lat="44.28037" lon="5.67196">
        <ele>1018</ele>
        <time>2018-07-17T09:28:47Z</time>
      </trkpt>
      <trkpt lat="44.28038" lon="5.67195">
        <ele>1018</ele>
        <time>2018-07-17T09:28:49Z</time>
      </trkpt>
      <trkpt lat="44.2804" lon="5.67194">
        <ele>1018</ele>
        <time>2018-07-17T09:28:51Z</time>
      </trkpt>
      <trkpt lat="44.28042" lon="5.67193">
        <ele>1018</ele>
        <time>2018-07-17T09:28:53Z</time>
      </trkpt>
      <trkpt lat="44.28043" lon="5.67192">
        <ele>1017</ele>
        <time>2018-07-17T09:28:55Z</time>
      </trkpt>
      <trkpt lat="44.28045" lon="5.67191">
        <ele>1017</ele>
        <time>2018-07-17T09:28:57Z</time>
      </trkpt>
      <trkpt lat="44.28046" lon="5.67191">
        <ele>1017</ele>
        <time>2018-07-17T09:28:59Z</time>
      </trkpt>
      <trkpt lat="44.28048" lon="5.6719">
        <ele>1017</ele>
        <time>2018-07-17T09:29:01Z</time>
      </trkpt>
      <trkpt lat="44.28049" lon="5.6719">
        <ele>1017</ele>
        <time>2018-07-17T09:29:03Z</time>
      </trkpt>
      <trkpt lat="44.2805" lon="5.67189">
        <ele>1016</ele>
        <time>2018-07-17T09:29:05Z</time>
      </trkpt>
      <trkpt lat="44.28052" lon="5.67188">
        <ele>1016</ele>
        <time>2018-07-17T09:29:07Z</time>
      </trkpt>
      <trkpt lat="44.28053" lon="5.67188">
        <ele>1015</ele>
        <time>2018-07-17T09:29:09Z</time>
      </trkpt>
      <trkpt lat="44.28054" lon="5.67188">
        <ele>1015</ele>
        <time>2018-07-17T09:29:11Z</time>
      </trkpt>
      <trkpt lat="44.28055" lon="5.67187">
        <ele>1015</ele>
        <time>2018-07-17T09:29:13Z</time>
      </trkpt>
      <trkpt lat="44.28056" lon="5.67186">
        <ele>1015</ele>
        <time>2018-07-17T09:29:15Z</time>
      </trkpt>
      <trkpt lat="44.28058" lon="5.67184">
        <ele>1014</ele>
        <time>2018-07-17T09:29:18Z</time>
      </trkpt>
      <trkpt lat="44.28059" lon="5.67183">
        <ele>1014</ele>
        <time>2018-07-17T09:29:20Z</time>
      </trkpt>
      <trkpt lat="44.28061" lon="5.67182">
        <ele>1013</ele>
        <time>2018-07-17T09:29:23Z</time>
      </trkpt>
      <trkpt lat="44.28062" lon="5.6718">
        <ele>1013</ele>
        <time>2018-07-17T09:29:26Z</time>
      </trkpt>
      <trkpt lat="44.28064" lon="5.67178">
        <ele>1013</ele>
        <time>2018-07-17T09:29:28Z</time>
      </trkpt>
      <trkpt lat="44.28065" lon="5.67177">
        <ele>1012</ele>
        <time>2018-07-17T09:29:30Z</time>
      </trkpt>
      <trkpt lat="44.28066" lon="5.67177">
        <ele>1012</ele>
        <time>2018-07-17T09:29:32Z</time>
      </trkpt>
      <trkpt lat="44.28067" lon="5.67176">
        <ele>1011</ele>
        <time>2018-07-17T09:29:34Z</time>
      </trkpt>
      <trkpt lat="44.28069" lon="5.67175">
        <ele>1011</ele>
        <time>2018-07-17T09:29:36Z</time>
      </trkpt>
      <trkpt lat="44.2807" lon="5.67174">
        <ele>1011</ele>
        <time>2018-07-17T09:29:38Z</time>
      </trkpt>
      <trkpt lat="44.28072" lon="5.67175">
        <ele>1011</ele>
        <time>2018-07-17T09:29:40Z</time>
      </trkpt>
      <trkpt lat="44.28073" lon="5.67175">
        <ele>1010</ele>
        <time>2018-07-17T09:29:42Z</time>
      </trkpt>
      <trkpt lat="44.28074" lon="5.67176">
        <ele>1010</ele>
        <time>2018-07-17T09:29:44Z</time>
      </trkpt>
      <trkpt lat="44.28076" lon="5.67177">
        <ele>1009</ele>
        <time>2018-07-17T09:29:46Z</time>
      </trkpt>
      <trkpt lat="44.28078" lon="5.67177">
        <ele>1009</ele>
        <time>2018-07-17T09:29:48Z</time>
      </trkpt>
      <trkpt lat="44.28079" lon="5.67177">
        <ele>1008</ele>
        <time>2018-07-17T09:29:50Z</time>
      </trkpt>
      <trkpt lat="44.28081" lon="5.67178">
        <ele>1008</ele>
        <time>2018-07-17T09:29:52Z</time>
      </trkpt>
      <trkpt lat="44.28083" lon="5.67178">
        <ele>1007</ele>
        <time>2018-07-17T09:29:54Z</time>
      </trkpt>
      <trkpt lat="44.28085" lon="5.67178">
        <ele>1007</ele>
        <time>2018-07-17T09:29:56Z</time>
      </trkpt>
      <trkpt lat="44.28086" lon="5.67178">
        <ele>1007</ele>
        <time>2018-07-17T09:29:58Z</time>
      </trkpt>
      <trkpt lat="44.28088" lon="5.67178">
        <ele>1007</ele>
        <time>2018-07-17T09:30:00Z</time>
      </trkpt>
      <trkpt lat="44.2809" lon="5.67178">
        <ele>1007</ele>
        <time>2018-07-17T09:30:02Z</time>
      </trkpt>
      <trkpt lat="44.28091" lon="5.67179">
        <ele>1007</ele>
        <time>2018-07-17T09:30:03Z</time>
      </trkpt>
      <trkpt lat="44.28093" lon="5.67179">
        <ele>1007</ele>
        <time>2018-07-17T09:30:05Z</time>
      </trkpt>
      <trkpt lat="44.28094" lon="5.67179">
        <ele>1007</ele>
        <time>2018-07-17T09:30:07Z</time>
      </trkpt>
      <trkpt lat="44.28096" lon="5.6718">
        <ele>1006</ele>
        <time>2018-07-17T09:30:09Z</time>
      </trkpt>
      <trkpt lat="44.28098" lon="5.6718">
        <ele>1006</ele>
        <time>2018-07-17T09:30:11Z</time>
      </trkpt>
      <trkpt lat="44.28099" lon="5.67181">
        <ele>1005</ele>
        <time>2018-07-17T09:30:13Z</time>
      </trkpt>
      <trkpt lat="44.28101" lon="5.67181">
        <ele>1005</ele>
        <time>2018-07-17T09:30:15Z</time>
      </trkpt>
      <trkpt lat="44.28103" lon="5.67181">
        <ele>1005</ele>
        <time>2018-07-17T09:30:17Z</time>
      </trkpt>
      <trkpt lat="44.28104" lon="5.67182">
        <ele>1004</ele>
        <time>2018-07-17T09:30:19Z</time>
      </trkpt>
      <trkpt lat="44.28106" lon="5.67182">
        <ele>1004</ele>
        <time>2018-07-17T09:30:21Z</time>
      </trkpt>
      <trkpt lat="44.28107" lon="5.67183">
        <ele>1003</ele>
        <time>2018-07-17T09:30:24Z</time>
      </trkpt>
      <trkpt lat="44.28109" lon="5.67184">
        <ele>1003</ele>
        <time>2018-07-17T09:30:26Z</time>
      </trkpt>
      <trkpt lat="44.2811" lon="5.67185">
        <ele>1002</ele>
        <time>2018-07-17T09:30:29Z</time>
      </trkpt>
      <trkpt lat="44.28112" lon="5.67186">
        <ele>1001</ele>
        <time>2018-07-17T09:30:31Z</time>
      </trkpt>
      <trkpt lat="44.28114" lon="5.67186">
        <ele>1001</ele>
        <time>2018-07-17T09:30:33Z</time>
      </trkpt>
      <trkpt lat="44.28115" lon="5.67187">
        <ele>1001</ele>
        <time>2018-07-17T09:30:35Z</time>
      </trkpt>
      <trkpt lat="44.28116" lon="5.67187">
        <ele>1000</ele>
        <time>2018-07-17T09:30:37Z</time>
      </trkpt>
      <trkpt lat="44.28118" lon="5.67188">
        <ele>1000</ele>
        <time>2018-07-17T09:30:39Z</time>
      </trkpt>
      <trkpt lat="44.2812" lon="5.67189">
        <ele>1000</ele>
        <time>2018-07-17T09:30:41Z</time>
      </trkpt>
      <trkpt lat="44.28121" lon="5.6719">
        <ele>1000</ele>
        <time>2018-07-17T09:30:43Z</time>
      </trkpt>
      <trkpt lat="44.28123" lon="5.6719">
        <ele>1000</ele>
        <time>2018-07-17T09:30:45Z</time>
      </trkpt>
      <trkpt lat="44.28124" lon="5.6719">
        <ele>1000</ele>
        <time>2018-07-17T09:30:47Z</time>
      </trkpt>
      <trkpt lat="44.28126" lon="5.6719">
        <ele>1000</ele>
        <time>2018-07-17T09:30:49Z</time>
      </trkpt>
      <trkpt lat="44.28127" lon="5.6719">
        <ele>1000</ele>
        <time>2018-07-17T09:30:51Z</time>
      </trkpt>
      <trkpt lat="44.28129" lon="5.67188">
        <ele>1000</ele>
        <time>2018-07-17T09:30:55Z</time>
      </trkpt>
      <trkpt lat="44.2813" lon="5.67186">
        <ele>1000</ele>
        <time>2018-07-17T09:30:58Z</time>
      </trkpt>
      <trkpt lat="44.28131" lon="5.67185">
        <ele>1000</ele>
        <time>2018-07-17T09:31:02Z</time>
      </trkpt>
      <trkpt lat="44.28132" lon="5.67184">
        <ele>1000</ele>
        <time>2018-07-17T09:31:06Z</time>
      </trkpt>
      <trkpt lat="44.28133" lon="5.67183">
        <ele>1000</ele>
        <time>2018-07-17T09:31:08Z</time>
      </trkpt>
      <trkpt lat="44.28135" lon="5.67182">
        <ele>1000</ele>
        <time>2018-07-17T09:31:09Z</time>
      </trkpt>
      <trkpt lat="44.28136" lon="5.67182">
        <ele>1000</ele>
        <time>2018-07-17T09:31:13Z</time>
      </trkpt>
      <trkpt lat="44.28137" lon="5.67182">
        <ele>1000</ele>
        <time>2018-07-17T09:31:15Z</time>
      </trkpt>
      <trkpt lat="44.28136" lon="5.67181">
        <ele>999</ele>
        <time>2018-07-17T09:31:18Z</time>
      </trkpt>
      <trkpt lat="44.28136" lon="5.67179">
        <ele>997</ele>
        <time>2018-07-17T09:31:21Z</time>
      </trkpt>
      <trkpt lat="44.28138" lon="5.67177">
        <ele>996</ele>
        <time>2018-07-17T09:31:23Z</time>
      </trkpt>
      <trkpt lat="44.28139" lon="5.67176">
        <ele>995</ele>
        <time>2018-07-17T09:31:25Z</time>
      </trkpt>
      <trkpt lat="44.2814" lon="5.67174">
        <ele>995</ele>
        <time>2018-07-17T09:31:27Z</time>
      </trkpt>
      <trkpt lat="44.28141" lon="5.67172">
        <ele>995</ele>
        <time>2018-07-17T09:31:29Z</time>
      </trkpt>
      <trkpt lat="44.28141" lon="5.6717">
        <ele>994</ele>
        <time>2018-07-17T09:31:31Z</time>
      </trkpt>
      <trkpt lat="44.28142" lon="5.67169">
        <ele>993</ele>
        <time>2018-07-17T09:31:34Z</time>
      </trkpt>
      <trkpt lat="44.28142" lon="5.67167">
        <ele>992</ele>
        <time>2018-07-17T09:31:36Z</time>
      </trkpt>
      <trkpt lat="44.28143" lon="5.67165">
        <ele>990</ele>
        <time>2018-07-17T09:31:38Z</time>
      </trkpt>
      <trkpt lat="44.28143" lon="5.67163">
        <ele>989</ele>
        <time>2018-07-17T09:31:41Z</time>
      </trkpt>
      <trkpt lat="44.28144" lon="5.67161">
        <ele>989</ele>
        <time>2018-07-17T09:31:43Z</time>
      </trkpt>
      <trkpt lat="44.28145" lon="5.67159">
        <ele>988</ele>
        <time>2018-07-17T09:31:45Z</time>
      </trkpt>
      <trkpt lat="44.28146" lon="5.67158">
        <ele>988</ele>
        <time>2018-07-17T09:31:48Z</time>
      </trkpt>
      <trkpt lat="44.28146" lon="5.67156">
        <ele>988</ele>
        <time>2018-07-17T09:31:50Z</time>
      </trkpt>
      <trkpt lat="44.28147" lon="5.67156">
        <ele>988</ele>
        <time>2018-07-17T09:31:52Z</time>
      </trkpt>
      <trkpt lat="44.28149" lon="5.67157">
        <ele>988</ele>
        <time>2018-07-17T09:31:57Z</time>
      </trkpt>
      <trkpt lat="44.28148" lon="5.67155">
        <ele>988</ele>
        <time>2018-07-17T09:32:06Z</time>
      </trkpt>
      <trkpt lat="44.28148" lon="5.67153">
        <ele>988</ele>
        <time>2018-07-17T09:32:10Z</time>
      </trkpt>
      <trkpt lat="44.28149" lon="5.67152">
        <ele>988</ele>
        <time>2018-07-17T09:32:15Z</time>
      </trkpt>
      <trkpt lat="44.28148" lon="5.67154">
        <ele>988</ele>
        <time>2018-07-17T09:32:24Z</time>
      </trkpt>
      <trkpt lat="44.28146" lon="5.67154">
        <ele>988</ele>
        <time>2018-07-17T09:32:26Z</time>
      </trkpt>
      <trkpt lat="44.28148" lon="5.67155">
        <ele>988</ele>
        <time>2018-07-17T09:32:29Z</time>
      </trkpt>
      <trkpt lat="44.28146" lon="5.67155">
        <ele>989</ele>
        <time>2018-07-17T09:32:33Z</time>
      </trkpt>
      <trkpt lat="44.28144" lon="5.67156">
        <ele>990</ele>
        <time>2018-07-17T09:32:37Z</time>
      </trkpt>
      <trkpt lat="44.28143" lon="5.67156">
        <ele>990</ele>
        <time>2018-07-17T09:32:41Z</time>
      </trkpt>
      <trkpt lat="44.28144" lon="5.67157">
        <ele>990</ele>
        <time>2018-07-17T09:32:48Z</time>
      </trkpt>
      <trkpt lat="44.28145" lon="5.67157">
        <ele>992</ele>
        <time>2018-07-17T09:32:52Z</time>
      </trkpt>
      <trkpt lat="44.28146" lon="5.67156">
        <ele>994</ele>
        <time>2018-07-17T09:33:02Z</time>
      </trkpt>
      <trkpt lat="44.28147" lon="5.67158">
        <ele>994</ele>
        <time>2018-07-17T09:33:10Z</time>
      </trkpt>
      <trkpt lat="44.28146" lon="5.67157">
        <ele>994</ele>
        <time>2018-07-17T09:33:15Z</time>
      </trkpt>
      <trkpt lat="44.28148" lon="5.67158">
        <ele>994</ele>
        <time>2018-07-17T09:33:30Z</time>
      </trkpt>
      <trkpt lat="44.28149" lon="5.67158">
        <ele>994</ele>
        <time>2018-07-17T09:33:32Z</time>
      </trkpt>
      <trkpt lat="44.28151" lon="5.67159">
        <ele>994</ele>
        <time>2018-07-17T09:33:34Z</time>
      </trkpt>
      <trkpt lat="44.28151" lon="5.67159">
        <ele>994</ele>
        <time>2018-07-17T09:33:36Z</time>
      </trkpt>
      <trkpt lat="44.28151" lon="5.67159">
        <ele>994</ele>
        <time>2018-07-17T09:33:37Z</time>
      </trkpt>
      <trkpt lat="44.28151" lon="5.67159">
        <ele>994</ele>
        <time>2018-07-17T09:33:38Z</time>
      </trkpt>
      <trkpt lat="44.28151" lon="5.67159">
        <ele>994</ele>
        <time>2018-07-17T09:33:39Z</time>
      </trkpt>
      <trkpt lat="44.28151" lon="5.67159">
        <ele>994</ele>
        <time>2018-07-17T09:33:40Z</time>
      </trkpt>
      <trkpt lat="44.28151" lon="5.67159">
        <ele>994</ele>
        <time>2018-07-17T09:33:41Z</time>
      </trkpt>
      <trkpt lat="44.2815" lon="5.6716">
        <ele>994</ele>
        <time>2018-07-17T09:33:43Z</time>
      </trkpt>
      <trkpt lat="44.28151" lon="5.67162">
        <ele>994</ele>
        <time>2018-07-17T09:33:48Z</time>
      </trkpt>
      <trkpt lat="44.28151" lon="5.67162">
        <ele>994</ele>
        <time>2018-07-17T09:33:52Z</time>
      </trkpt>
      <trkpt lat="44.28149" lon="5.67162">
        <ele>994</ele>
        <time>2018-07-17T09:33:54Z</time>
      </trkpt>
      <trkpt lat="44.28149" lon="5.6716">
        <ele>994</ele>
        <time>2018-07-17T09:33:56Z</time>
      </trkpt>
      <trkpt lat="44.28147" lon="5.6716">
        <ele>994</ele>
        <time>2018-07-17T09:33:57Z</time>
      </trkpt>
      <trkpt lat="44.28147" lon="5.67159">
        <ele>994</ele>
        <time>2018-07-17T09:34:00Z</time>
      </trkpt>
      <trkpt lat="44.28146" lon="5.67157">
        <ele>994</ele>
        <time>2018-07-17T09:34:04Z</time>
      </trkpt>
      <trkpt lat="44.28144" lon="5.67157">
        <ele>994</ele>
        <time>2018-07-17T09:34:05Z</time>
      </trkpt>
      <trkpt lat="44.28145" lon="5.67155">
        <ele>994</ele>
        <time>2018-07-17T09:34:11Z</time>
      </trkpt>
      <trkpt lat="44.28145" lon="5.67155">
        <ele>994</ele>
        <time>2018-07-17T09:34:12Z</time>
      </trkpt>
      <trkpt lat="44.28145" lon="5.67154">
        <ele>994</ele>
        <time>2018-07-17T09:34:13Z</time>
      </trkpt>
      <trkpt lat="44.28146" lon="5.67152">
        <ele>994</ele>
        <time>2018-07-17T09:34:18Z</time>
      </trkpt>
      <trkpt lat="44.28147" lon="5.67152">
        <ele>994</ele>
        <time>2018-07-17T09:34:19Z</time>
      </trkpt>
      <trkpt lat="44.28149" lon="5.67152">
        <ele>994</ele>
        <time>2018-07-17T09:34:21Z</time>
      </trkpt>
      <trkpt lat="44.28149" lon="5.6715">
        <ele>995</ele>
        <time>2018-07-17T09:34:26Z</time>
      </trkpt>
      <trkpt lat="44.28149" lon="5.6715">
        <ele>995</ele>
        <time>2018-07-17T09:34:28Z</time>
      </trkpt>
      <trkpt lat="44.28149" lon="5.67149">
        <ele>995</ele>
        <time>2018-07-17T09:34:31Z</time>
      </trkpt>
      <trkpt lat="44.28148" lon="5.67147">
        <ele>995</ele>
        <time>2018-07-17T09:34:35Z</time>
      </trkpt>
      <trkpt lat="44.28147" lon="5.67146">
        <ele>995</ele>
        <time>2018-07-17T09:34:41Z</time>
      </trkpt>
      <trkpt lat="44.28147" lon="5.67146">
        <ele>995</ele>
        <time>2018-07-17T09:34:42Z</time>
      </trkpt>
      <trkpt lat="44.28146" lon="5.67144">
        <ele>995</ele>
        <time>2018-07-17T09:34:46Z</time>
      </trkpt>
      <trkpt lat="44.28146" lon="5.67144">
        <ele>995</ele>
        <time>2018-07-17T09:34:52Z</time>
      </trkpt>
      <trkpt lat="44.28146" lon="5.67144">
        <ele>995</ele>
        <time>2018-07-17T09:34:53Z</time>
      </trkpt>
      <trkpt lat="44.28146" lon="5.67144">
        <ele>996</ele>
        <time>2018-07-17T09:35:04Z</time>
      </trkpt>
      <trkpt lat="44.28146" lon="5.67146">
        <ele>996</ele>
        <time>2018-07-17T09:35:06Z</time>
      </trkpt>
      <trkpt lat="44.28148" lon="5.67148">
        <ele>997</ele>
        <time>2018-07-17T09:35:08Z</time>
      </trkpt>
      <trkpt lat="44.28149" lon="5.67148">
        <ele>999</ele>
        <time>2018-07-17T09:35:12Z</time>
      </trkpt>
      <trkpt lat="44.28148" lon="5.6715">
        <ele>1001</ele>
        <time>2018-07-17T09:35:24Z</time>
      </trkpt>
      <trkpt lat="44.28146" lon="5.6715">
        <ele>1001</ele>
        <time>2018-07-17T09:35:26Z</time>
      </trkpt>
      <trkpt lat="44.28146" lon="5.6715">
        <ele>1001</ele>
        <time>2018-07-17T09:35:29Z</time>
      </trkpt>
      <trkpt lat="44.28145" lon="5.6715">
        <ele>1001</ele>
        <time>2018-07-17T09:35:30Z</time>
      </trkpt>
      <trkpt lat="44.28144" lon="5.67152">
        <ele>1001</ele>
        <time>2018-07-17T09:35:38Z</time>
      </trkpt>
      <trkpt lat="44.28143" lon="5.67153">
        <ele>1001</ele>
        <time>2018-07-17T09:35:41Z</time>
      </trkpt>
      <trkpt lat="44.28143" lon="5.67154">
        <ele>1001</ele>
        <time>2018-07-17T09:35:43Z</time>
      </trkpt>
      <trkpt lat="44.28144" lon="5.67155">
        <ele>1001</ele>
        <time>2018-07-17T09:35:48Z</time>
      </trkpt>
      <trkpt lat="44.28146" lon="5.67156">
        <ele>1001</ele>
        <time>2018-07-17T09:35:59Z</time>
      </trkpt>
      <trkpt lat="44.28147" lon="5.67156">
        <ele>1001</ele>
        <time>2018-07-17T09:36:08Z</time>
      </trkpt>
      <trkpt lat="44.28146" lon="5.67154">
        <ele>1001</ele>
        <time>2018-07-17T09:36:22Z</time>
      </trkpt>
      <trkpt lat="44.28145" lon="5.67153">
        <ele>1001</ele>
        <time>2018-07-17T09:36:24Z</time>
      </trkpt>
      <trkpt lat="44.28145" lon="5.67154">
        <ele>1001</ele>
        <time>2018-07-17T09:36:28Z</time>
      </trkpt>
      <trkpt lat="44.28143" lon="5.67154">
        <ele>1002</ele>
        <time>2018-07-17T09:36:31Z</time>
      </trkpt>
      <trkpt lat="44.28143" lon="5.67156">
        <ele>1005</ele>
        <time>2018-07-17T09:36:39Z</time>
      </trkpt>
      <trkpt lat="44.28144" lon="5.67157">
        <ele>1005</ele>
        <time>2018-07-17T09:36:44Z</time>
      </trkpt>
      <trkpt lat="44.28145" lon="5.67158">
        <ele>1005</ele>
        <time>2018-07-17T09:36:47Z</time>
      </trkpt>
      <trkpt lat="44.28146" lon="5.67158">
        <ele>1005</ele>
        <time>2018-07-17T09:36:50Z</time>
      </trkpt>
      <trkpt lat="44.28148" lon="5.67158">
        <ele>1005</ele>
        <time>2018-07-17T09:36:52Z</time>
      </trkpt>
      <trkpt lat="44.28146" lon="5.67159">
        <ele>1003</ele>
        <time>2018-07-17T09:36:56Z</time>
      </trkpt>
      <trkpt lat="44.28148" lon="5.67159">
        <ele>1002</ele>
        <time>2018-07-17T09:37:01Z</time>
      </trkpt>
      <trkpt lat="44.28149" lon="5.67158">
        <ele>1002</ele>
        <time>2018-07-17T09:37:03Z</time>
      </trkpt>
      <trkpt lat="44.2815" lon="5.67158">
        <ele>1002</ele>
        <time>2018-07-17T09:37:08Z</time>
      </trkpt>
      <trkpt lat="44.28149" lon="5.67156">
        <ele>1002</ele>
        <time>2018-07-17T09:37:12Z</time>
      </trkpt>
      <trkpt lat="44.2815" lon="5.67154">
        <ele>1003</ele>
        <time>2018-07-17T09:37:15Z</time>
      </trkpt>
      <trkpt lat="44.2815" lon="5.67152">
        <ele>1005</ele>
        <time>2018-07-17T09:37:20Z</time>
      </trkpt>
      <trkpt lat="44.28152" lon="5.67151">
        <ele>1005</ele>
        <time>2018-07-17T09:37:26Z</time>
      </trkpt>
      <trkpt lat="44.28151" lon="5.67152">
        <ele>1005</ele>
        <time>2018-07-17T09:37:32Z</time>
      </trkpt>
      <trkpt lat="44.28149" lon="5.67153">
        <ele>1005</ele>
        <time>2018-07-17T09:37:35Z</time>
      </trkpt>
      <trkpt lat="44.28148" lon="5.67152">
        <ele>1005</ele>
        <time>2018-07-17T09:37:38Z</time>
      </trkpt>
      <trkpt lat="44.28147" lon="5.67152">
        <ele>1007</ele>
        <time>2018-07-17T09:37:41Z</time>
      </trkpt>
      <trkpt lat="44.28146" lon="5.67152">
        <ele>1009</ele>
        <time>2018-07-17T09:37:45Z</time>
      </trkpt>
      <trkpt lat="44.28144" lon="5.67153">
        <ele>1011</ele>
        <time>2018-07-17T09:37:50Z</time>
      </trkpt>
      <trkpt lat="44.28143" lon="5.67153">
        <ele>1014</ele>
        <time>2018-07-17T09:37:59Z</time>
      </trkpt>
      <trkpt lat="44.28142" lon="5.67155">
        <ele>1015</ele>
        <time>2018-07-17T09:38:15Z</time>
      </trkpt>
      <trkpt lat="44.28142" lon="5.67157">
        <ele>1015</ele>
        <time>2018-07-17T09:38:19Z</time>
      </trkpt>
      <trkpt lat="44.28144" lon="5.67158">
        <ele>1015</ele>
        <time>2018-07-17T09:38:23Z</time>
      </trkpt>
      <trkpt lat="44.28146" lon="5.6716">
        <ele>1016</ele>
        <time>2018-07-17T09:38:25Z</time>
      </trkpt>
      <trkpt lat="44.28148" lon="5.67161">
        <ele>1018</ele>
        <time>2018-07-17T09:38:27Z</time>
      </trkpt>
      <trkpt lat="44.28149" lon="5.67161">
        <ele>1020</ele>
        <time>2018-07-17T09:38:29Z</time>
      </trkpt>
      <trkpt lat="44.28147" lon="5.67161">
        <ele>1022</ele>
        <time>2018-07-17T09:38:52Z</time>
      </trkpt>
      <trkpt lat="44.28149" lon="5.6716">
        <ele>1010</ele>
        <time>2018-07-17T09:39:04Z</time>
      </trkpt>
      <trkpt lat="44.28149" lon="5.67159">
        <ele>1010</ele>
        <time>2018-07-17T09:39:07Z</time>
      </trkpt>
      <trkpt lat="44.28148" lon="5.67157">
        <ele>1008</ele>
        <time>2018-07-17T09:39:12Z</time>
      </trkpt>
      <trkpt lat="44.2815" lon="5.67156">
        <ele>1008</ele>
        <time>2018-07-17T09:39:17Z</time>
      </trkpt>
      <trkpt lat="44.28151" lon="5.67155">
        <ele>1008</ele>
        <time>2018-07-17T09:39:19Z</time>
      </trkpt>
      <trkpt lat="44.28151" lon="5.67153">
        <ele>1008</ele>
        <time>2018-07-17T09:39:21Z</time>
      </trkpt>
      <trkpt lat="44.28151" lon="5.67151">
        <ele>1008</ele>
        <time>2018-07-17T09:39:23Z</time>
      </trkpt>
      <trkpt lat="44.28151" lon="5.67149">
        <ele>1007</ele>
        <time>2018-07-17T09:39:26Z</time>
      </trkpt>
      <trkpt lat="44.28152" lon="5.67147">
        <ele>1004</ele>
        <time>2018-07-17T09:39:31Z</time>
      </trkpt>
      <trkpt lat="44.28153" lon="5.67146">
        <ele>1003</ele>
        <time>2018-07-17T09:39:33Z</time>
      </trkpt>
      <trkpt lat="44.28154" lon="5.67144">
        <ele>1002</ele>
        <time>2018-07-17T09:39:37Z</time>
      </trkpt>
      <trkpt lat="44.28154" lon="5.67143">
        <ele>1001</ele>
        <time>2018-07-17T09:39:39Z</time>
      </trkpt>
      <trkpt lat="44.28155" lon="5.67141">
        <ele>1000</ele>
        <time>2018-07-17T09:39:42Z</time>
      </trkpt>
      <trkpt lat="44.28156" lon="5.67139">
        <ele>999</ele>
        <time>2018-07-17T09:39:44Z</time>
      </trkpt>
      <trkpt lat="44.28157" lon="5.67138">
        <ele>999</ele>
        <time>2018-07-17T09:39:46Z</time>
      </trkpt>
      <trkpt lat="44.28158" lon="5.67136">
        <ele>998</ele>
        <time>2018-07-17T09:39:49Z</time>
      </trkpt>
      <trkpt lat="44.28158" lon="5.67135">
        <ele>996</ele>
        <time>2018-07-17T09:39:51Z</time>
      </trkpt>
      <trkpt lat="44.28158" lon="5.67135">
        <ele>995</ele>
        <time>2018-07-17T09:39:52Z</time>
      </trkpt>
      <trkpt lat="44.28159" lon="5.67133">
        <ele>994</ele>
        <time>2018-07-17T09:39:53Z</time>
      </trkpt>
      <trkpt lat="44.28161" lon="5.67131">
        <ele>993</ele>
        <time>2018-07-17T09:39:55Z</time>
      </trkpt>
      <trkpt lat="44.28161" lon="5.67129">
        <ele>992</ele>
        <time>2018-07-17T09:39:57Z</time>
      </trkpt>
      <trkpt lat="44.28161" lon="5.67129">
        <ele>992</ele>
        <time>2018-07-17T09:39:58Z</time>
      </trkpt>
      <trkpt lat="44.28162" lon="5.67127">
        <ele>992</ele>
        <time>2018-07-17T09:39:59Z</time>
      </trkpt>
      <trkpt lat="44.28163" lon="5.67125">
        <ele>992</ele>
        <time>2018-07-17T09:40:01Z</time>
      </trkpt>
      <trkpt lat="44.28164" lon="5.67123">
        <ele>992</ele>
        <time>2018-07-17T09:40:02Z</time>
      </trkpt>
      <trkpt lat="44.28164" lon="5.67123">
        <ele>992</ele>
        <time>2018-07-17T09:40:03Z</time>
      </trkpt>
      <trkpt lat="44.28165" lon="5.6712">
        <ele>992</ele>
        <time>2018-07-17T09:40:04Z</time>
      </trkpt>
      <trkpt lat="44.28166" lon="5.67118">
        <ele>992</ele>
        <time>2018-07-17T09:40:06Z</time>
      </trkpt>
      <trkpt lat="44.28167" lon="5.67116">
        <ele>992</ele>
        <time>2018-07-17T09:40:09Z</time>
      </trkpt>
      <trkpt lat="44.28168" lon="5.67114">
        <ele>992</ele>
        <time>2018-07-17T09:40:11Z</time>
      </trkpt>
      <trkpt lat="44.2817" lon="5.67113">
        <ele>992</ele>
        <time>2018-07-17T09:40:13Z</time>
      </trkpt>
      <trkpt lat="44.28172" lon="5.67113">
        <ele>992</ele>
        <time>2018-07-17T09:40:15Z</time>
      </trkpt>
      <trkpt lat="44.28173" lon="5.67112">
        <ele>992</ele>
        <time>2018-07-17T09:40:18Z</time>
      </trkpt>
      <trkpt lat="44.28173" lon="5.6711">
        <ele>993</ele>
        <time>2018-07-17T09:40:23Z</time>
      </trkpt>
      <trkpt lat="44.28175" lon="5.67108">
        <ele>993</ele>
        <time>2018-07-17T09:40:26Z</time>
      </trkpt>
      <trkpt lat="44.28176" lon="5.67106">
        <ele>993</ele>
        <time>2018-07-17T09:40:28Z</time>
      </trkpt>
      <trkpt lat="44.28177" lon="5.67104">
        <ele>993</ele>
        <time>2018-07-17T09:40:31Z</time>
      </trkpt>
      <trkpt lat="44.28178" lon="5.67103">
        <ele>993</ele>
        <time>2018-07-17T09:40:33Z</time>
      </trkpt>
      <trkpt lat="44.28178" lon="5.67101">
        <ele>993</ele>
        <time>2018-07-17T09:40:35Z</time>
      </trkpt>
      <trkpt lat="44.2818" lon="5.671">
        <ele>993</ele>
        <time>2018-07-17T09:40:36Z</time>
      </trkpt>
      <trkpt lat="44.28181" lon="5.67099">
        <ele>993</ele>
        <time>2018-07-17T09:40:38Z</time>
      </trkpt>
      <trkpt lat="44.28182" lon="5.67097">
        <ele>993</ele>
        <time>2018-07-17T09:40:40Z</time>
      </trkpt>
      <trkpt lat="44.28183" lon="5.67096">
        <ele>993</ele>
        <time>2018-07-17T09:40:42Z</time>
      </trkpt>
      <trkpt lat="44.28184" lon="5.67094">
        <ele>993</ele>
        <time>2018-07-17T09:40:44Z</time>
      </trkpt>
      <trkpt lat="44.28185" lon="5.67093">
        <ele>993</ele>
        <time>2018-07-17T09:40:46Z</time>
      </trkpt>
      <trkpt lat="44.28187" lon="5.67091">
        <ele>993</ele>
        <time>2018-07-17T09:40:49Z</time>
      </trkpt>
      <trkpt lat="44.28189" lon="5.67091">
        <ele>992</ele>
        <time>2018-07-17T09:40:54Z</time>
      </trkpt>
      <trkpt lat="44.2819" lon="5.67091">
        <ele>992</ele>
        <time>2018-07-17T09:40:55Z</time>
      </trkpt>
      <trkpt lat="44.28191" lon="5.67092">
        <ele>991</ele>
        <time>2018-07-17T09:41:05Z</time>
      </trkpt>
      <trkpt lat="44.28191" lon="5.67095">
        <ele>991</ele>
        <time>2018-07-17T09:41:07Z</time>
      </trkpt>
      <trkpt lat="44.28191" lon="5.67097">
        <ele>990</ele>
        <time>2018-07-17T09:41:08Z</time>
      </trkpt>
      <trkpt lat="44.28193" lon="5.67099">
        <ele>990</ele>
        <time>2018-07-17T09:41:10Z</time>
      </trkpt>
      <trkpt lat="44.28194" lon="5.671">
        <ele>989</ele>
        <time>2018-07-17T09:41:13Z</time>
      </trkpt>
      <trkpt lat="44.28194" lon="5.671">
        <ele>989</ele>
        <time>2018-07-17T09:41:17Z</time>
      </trkpt>
      <trkpt lat="44.28195" lon="5.67097">
        <ele>988</ele>
        <time>2018-07-17T09:41:19Z</time>
      </trkpt>
      <trkpt lat="44.28195" lon="5.67095">
        <ele>988</ele>
        <time>2018-07-17T09:41:21Z</time>
      </trkpt>
      <trkpt lat="44.28195" lon="5.67093">
        <ele>988</ele>
        <time>2018-07-17T09:41:23Z</time>
      </trkpt>
      <trkpt lat="44.28194" lon="5.67091">
        <ele>988</ele>
        <time>2018-07-17T09:41:25Z</time>
      </trkpt>
      <trkpt lat="44.28192" lon="5.67091">
        <ele>988</ele>
        <time>2018-07-17T09:41:27Z</time>
      </trkpt>
      <trkpt lat="44.28191" lon="5.67091">
        <ele>988</ele>
        <time>2018-07-17T09:41:29Z</time>
      </trkpt>
      <trkpt lat="44.28191" lon="5.67089">
        <ele>988</ele>
        <time>2018-07-17T09:41:33Z</time>
      </trkpt>
      <trkpt lat="44.28192" lon="5.67087">
        <ele>988</ele>
        <time>2018-07-17T09:41:37Z</time>
      </trkpt>
      <trkpt lat="44.28193" lon="5.67085">
        <ele>988</ele>
        <time>2018-07-17T09:41:39Z</time>
      </trkpt>
      <trkpt lat="44.28193" lon="5.67084">
        <ele>988</ele>
        <time>2018-07-17T09:41:45Z</time>
      </trkpt>
      <trkpt lat="44.28193" lon="5.67082">
        <ele>987</ele>
        <time>2018-07-17T09:41:48Z</time>
      </trkpt>
      <trkpt lat="44.28194" lon="5.67079">
        <ele>987</ele>
        <time>2018-07-17T09:41:50Z</time>
      </trkpt>
      <trkpt lat="44.28195" lon="5.67076">
        <ele>987</ele>
        <time>2018-07-17T09:41:52Z</time>
      </trkpt>
      <trkpt lat="44.28196" lon="5.67076">
        <ele>987</ele>
        <time>2018-07-17T09:41:54Z</time>
      </trkpt>
      <trkpt lat="44.28198" lon="5.67075">
        <ele>987</ele>
        <time>2018-07-17T09:41:56Z</time>
      </trkpt>
      <trkpt lat="44.28199" lon="5.67073">
        <ele>987</ele>
        <time>2018-07-17T09:41:58Z</time>
      </trkpt>
      <trkpt lat="44.28199" lon="5.67073">
        <ele>987</ele>
        <time>2018-07-17T09:42:00Z</time>
      </trkpt>
      <trkpt lat="44.28201" lon="5.67071">
        <ele>987</ele>
        <time>2018-07-17T09:42:01Z</time>
      </trkpt>
      <trkpt lat="44.28202" lon="5.6707">
        <ele>987</ele>
        <time>2018-07-17T09:42:03Z</time>
      </trkpt>
      <trkpt lat="44.28203" lon="5.67067">
        <ele>987</ele>
        <time>2018-07-17T09:42:05Z</time>
      </trkpt>
      <trkpt lat="44.28205" lon="5.67065">
        <ele>987</ele>
        <time>2018-07-17T09:42:07Z</time>
      </trkpt>
      <trkpt lat="44.28207" lon="5.67063">
        <ele>987</ele>
        <time>2018-07-17T09:42:09Z</time>
      </trkpt>
      <trkpt lat="44.28208" lon="5.67061">
        <ele>987</ele>
        <time>2018-07-17T09:42:11Z</time>
      </trkpt>
      <trkpt lat="44.2821" lon="5.6706">
        <ele>987</ele>
        <time>2018-07-17T09:42:13Z</time>
      </trkpt>
      <trkpt lat="44.28211" lon="5.67058">
        <ele>987</ele>
        <time>2018-07-17T09:42:14Z</time>
      </trkpt>
      <trkpt lat="44.28212" lon="5.67057">
        <ele>987</ele>
        <time>2018-07-17T09:42:16Z</time>
      </trkpt>
      <trkpt lat="44.28213" lon="5.67055">
        <ele>987</ele>
        <time>2018-07-17T09:42:18Z</time>
      </trkpt>
      <trkpt lat="44.28215" lon="5.67055">
        <ele>987</ele>
        <time>2018-07-17T09:42:19Z</time>
      </trkpt>
      <trkpt lat="44.28216" lon="5.67054">
        <ele>987</ele>
        <time>2018-07-17T09:42:20Z</time>
      </trkpt>
      <trkpt lat="44.28217" lon="5.67052">
        <ele>987</ele>
        <time>2018-07-17T09:42:22Z</time>
      </trkpt>
      <trkpt lat="44.28219" lon="5.67051">
        <ele>987</ele>
        <time>2018-07-17T09:42:23Z</time>
      </trkpt>
      <trkpt lat="44.2822" lon="5.67051">
        <ele>987</ele>
        <time>2018-07-17T09:42:24Z</time>
      </trkpt>
      <trkpt lat="44.2822" lon="5.67049">
        <ele>987</ele>
        <time>2018-07-17T09:42:26Z</time>
      </trkpt>
      <trkpt lat="44.28221" lon="5.67047">
        <ele>987</ele>
        <time>2018-07-17T09:42:28Z</time>
      </trkpt>
      <trkpt lat="44.2822" lon="5.67045">
        <ele>986</ele>
        <time>2018-07-17T09:42:31Z</time>
      </trkpt>
      <trkpt lat="44.2822" lon="5.67044">
        <ele>986</ele>
        <time>2018-07-17T09:42:34Z</time>
      </trkpt>
      <trkpt lat="44.2822" lon="5.67044">
        <ele>984</ele>
        <time>2018-07-17T09:42:53Z</time>
      </trkpt>
      <trkpt lat="44.28219" lon="5.67042">
        <ele>981</ele>
        <time>2018-07-17T09:43:01Z</time>
      </trkpt>
      <trkpt lat="44.2822" lon="5.67041">
        <ele>981</ele>
        <time>2018-07-17T09:43:10Z</time>
      </trkpt>
      <trkpt lat="44.2822" lon="5.67039">
        <ele>981</ele>
        <time>2018-07-17T09:43:13Z</time>
      </trkpt>
      <trkpt lat="44.28221" lon="5.67038">
        <ele>981</ele>
        <time>2018-07-17T09:43:16Z</time>
      </trkpt>
      <trkpt lat="44.28222" lon="5.67036">
        <ele>981</ele>
        <time>2018-07-17T09:43:19Z</time>
      </trkpt>
      <trkpt lat="44.28223" lon="5.67036">
        <ele>985</ele>
        <time>2018-07-17T09:43:25Z</time>
      </trkpt>
      <trkpt lat="44.28223" lon="5.67034">
        <ele>985</ele>
        <time>2018-07-17T09:43:27Z</time>
      </trkpt>
      <trkpt lat="44.28223" lon="5.67033">
        <ele>985</ele>
        <time>2018-07-17T09:43:29Z</time>
      </trkpt>
      <trkpt lat="44.28222" lon="5.67032">
        <ele>985</ele>
        <time>2018-07-17T09:43:38Z</time>
      </trkpt>
      <trkpt lat="44.28221" lon="5.67034">
        <ele>985</ele>
        <time>2018-07-17T09:43:40Z</time>
      </trkpt>
      <trkpt lat="44.28221" lon="5.67035">
        <ele>985</ele>
        <time>2018-07-17T09:43:41Z</time>
      </trkpt>
      <trkpt lat="44.28221" lon="5.67037">
        <ele>985</ele>
        <time>2018-07-17T09:43:42Z</time>
      </trkpt>
      <trkpt lat="44.28222" lon="5.67039">
        <ele>985</ele>
        <time>2018-07-17T09:43:44Z</time>
      </trkpt>
      <trkpt lat="44.28223" lon="5.6704">
        <ele>985</ele>
        <time>2018-07-17T09:43:46Z</time>
      </trkpt>
      <trkpt lat="44.28225" lon="5.6704">
        <ele>985</ele>
        <time>2018-07-17T09:43:48Z</time>
      </trkpt>
      <trkpt lat="44.28226" lon="5.67041">
        <ele>985</ele>
        <time>2018-07-17T09:43:56Z</time>
      </trkpt>
      <trkpt lat="44.28228" lon="5.67041">
        <ele>985</ele>
        <time>2018-07-17T09:43:58Z</time>
      </trkpt>
      <trkpt lat="44.28229" lon="5.67041">
        <ele>984</ele>
        <time>2018-07-17T09:44:00Z</time>
      </trkpt>
      <trkpt lat="44.28231" lon="5.67041">
        <ele>984</ele>
        <time>2018-07-17T09:44:02Z</time>
      </trkpt>
      <trkpt lat="44.28233" lon="5.6704">
        <ele>984</ele>
        <time>2018-07-17T09:44:04Z</time>
      </trkpt>
      <trkpt lat="44.28234" lon="5.67039">
        <ele>984</ele>
        <time>2018-07-17T09:44:06Z</time>
      </trkpt>
      <trkpt lat="44.28235" lon="5.67038">
        <ele>984</ele>
        <time>2018-07-17T09:44:08Z</time>
      </trkpt>
      <trkpt lat="44.28236" lon="5.67038">
        <ele>984</ele>
        <time>2018-07-17T09:44:11Z</time>
      </trkpt>
      <trkpt lat="44.28237" lon="5.67037">
        <ele>984</ele>
        <time>2018-07-17T09:44:14Z</time>
      </trkpt>
      <trkpt lat="44.28239" lon="5.67035">
        <ele>984</ele>
        <time>2018-07-17T09:44:16Z</time>
      </trkpt>
      <trkpt lat="44.2824" lon="5.67033">
        <ele>984</ele>
        <time>2018-07-17T09:44:19Z</time>
      </trkpt>
      <trkpt lat="44.28241" lon="5.67032">
        <ele>984</ele>
        <time>2018-07-17T09:44:20Z</time>
      </trkpt>
      <trkpt lat="44.28243" lon="5.67031">
        <ele>984</ele>
        <time>2018-07-17T09:44:23Z</time>
      </trkpt>
      <trkpt lat="44.28243" lon="5.6703">
        <ele>984</ele>
        <time>2018-07-17T09:44:26Z</time>
      </trkpt>
      <trkpt lat="44.28243" lon="5.67028">
        <ele>984</ele>
        <time>2018-07-17T09:44:28Z</time>
      </trkpt>
      <trkpt lat="44.28244" lon="5.67026">
        <ele>984</ele>
        <time>2018-07-17T09:44:30Z</time>
      </trkpt>
      <trkpt lat="44.28245" lon="5.67025">
        <ele>984</ele>
        <time>2018-07-17T09:44:32Z</time>
      </trkpt>
      <trkpt lat="44.28246" lon="5.67023">
        <ele>984</ele>
        <time>2018-07-17T09:44:34Z</time>
      </trkpt>
      <trkpt lat="44.28247" lon="5.67022">
        <ele>984</ele>
        <time>2018-07-17T09:44:36Z</time>
      </trkpt>
      <trkpt lat="44.28249" lon="5.6702">
        <ele>983</ele>
        <time>2018-07-17T09:44:39Z</time>
      </trkpt>
      <trkpt lat="44.2825" lon="5.67019">
        <ele>983</ele>
        <time>2018-07-17T09:44:41Z</time>
      </trkpt>
      <trkpt lat="44.28252" lon="5.67017">
        <ele>983</ele>
        <time>2018-07-17T09:44:46Z</time>
      </trkpt>
      <trkpt lat="44.28253" lon="5.67015">
        <ele>982</ele>
        <time>2018-07-17T09:44:48Z</time>
      </trkpt>
      <trkpt lat="44.28253" lon="5.67013">
        <ele>982</ele>
        <time>2018-07-17T09:44:49Z</time>
      </trkpt>
      <trkpt lat="44.28254" lon="5.67012">
        <ele>982</ele>
        <time>2018-07-17T09:44:57Z</time>
      </trkpt>
      <trkpt lat="44.28255" lon="5.6701">
        <ele>982</ele>
        <time>2018-07-17T09:44:59Z</time>
      </trkpt>
      <trkpt lat="44.28256" lon="5.67009">
        <ele>982</ele>
        <time>2018-07-17T09:45:00Z</time>
      </trkpt>
      <trkpt lat="44.28257" lon="5.67007">
        <ele>982</ele>
        <time>2018-07-17T09:45:02Z</time>
      </trkpt>
      <trkpt lat="44.28259" lon="5.67005">
        <ele>982</ele>
        <time>2018-07-17T09:45:04Z</time>
      </trkpt>
      <trkpt lat="44.2826" lon="5.67003">
        <ele>982</ele>
        <time>2018-07-17T09:45:05Z</time>
      </trkpt>
      <trkpt lat="44.28261" lon="5.67001">
        <ele>982</ele>
        <time>2018-07-17T09:45:07Z</time>
      </trkpt>
      <trkpt lat="44.28262" lon="5.67">
        <ele>982</ele>
        <time>2018-07-17T09:45:09Z</time>
      </trkpt>
      <trkpt lat="44.28264" lon="5.67">
        <ele>982</ele>
        <time>2018-07-17T09:45:11Z</time>
      </trkpt>
      <trkpt lat="44.28265" lon="5.67">
        <ele>982</ele>
        <time>2018-07-17T09:45:15Z</time>
      </trkpt>
      <trkpt lat="44.28267" lon="5.66998">
        <ele>982</ele>
        <time>2018-07-17T09:45:19Z</time>
      </trkpt>
      <trkpt lat="44.28268" lon="5.66996">
        <ele>982</ele>
        <time>2018-07-17T09:45:21Z</time>
      </trkpt>
      <trkpt lat="44.28268" lon="5.66994">
        <ele>982</ele>
        <time>2018-07-17T09:45:23Z</time>
      </trkpt>
      <trkpt lat="44.28269" lon="5.66993">
        <ele>981</ele>
        <time>2018-07-17T09:45:25Z</time>
      </trkpt>
      <trkpt lat="44.2827" lon="5.66991">
        <ele>980</ele>
        <time>2018-07-17T09:45:27Z</time>
      </trkpt>
      <trkpt lat="44.28272" lon="5.6699">
        <ele>978</ele>
        <time>2018-07-17T09:45:29Z</time>
      </trkpt>
      <trkpt lat="44.28273" lon="5.66988">
        <ele>977</ele>
        <time>2018-07-17T09:45:31Z</time>
      </trkpt>
      <trkpt lat="44.28275" lon="5.66987">
        <ele>976</ele>
        <time>2018-07-17T09:45:33Z</time>
      </trkpt>
      <trkpt lat="44.28277" lon="5.66985">
        <ele>975</ele>
        <time>2018-07-17T09:45:35Z</time>
      </trkpt>
      <trkpt lat="44.28278" lon="5.66984">
        <ele>974</ele>
        <time>2018-07-17T09:45:37Z</time>
      </trkpt>
      <trkpt lat="44.28279" lon="5.66982">
        <ele>973</ele>
        <time>2018-07-17T09:45:39Z</time>
      </trkpt>
      <trkpt lat="44.28281" lon="5.6698">
        <ele>973</ele>
        <time>2018-07-17T09:45:41Z</time>
      </trkpt>
      <trkpt lat="44.28282" lon="5.66979">
        <ele>973</ele>
        <time>2018-07-17T09:45:42Z</time>
      </trkpt>
      <trkpt lat="44.28283" lon="5.66977">
        <ele>973</ele>
        <time>2018-07-17T09:45:43Z</time>
      </trkpt>
      <trkpt lat="44.28283" lon="5.66975">
        <ele>973</ele>
        <time>2018-07-17T09:45:44Z</time>
      </trkpt>
      <trkpt lat="44.28284" lon="5.66974">
        <ele>973</ele>
        <time>2018-07-17T09:45:45Z</time>
      </trkpt>
      <trkpt lat="44.28285" lon="5.66972">
        <ele>973</ele>
        <time>2018-07-17T09:45:47Z</time>
      </trkpt>
      <trkpt lat="44.28285" lon="5.66969">
        <ele>973</ele>
        <time>2018-07-17T09:45:49Z</time>
      </trkpt>
      <trkpt lat="44.28286" lon="5.66967">
        <ele>972</ele>
        <time>2018-07-17T09:45:51Z</time>
      </trkpt>
      <trkpt lat="44.28286" lon="5.66965">
        <ele>972</ele>
        <time>2018-07-17T09:45:53Z</time>
      </trkpt>
      <trkpt lat="44.28286" lon="5.66962">
        <ele>971</ele>
        <time>2018-07-17T09:45:55Z</time>
      </trkpt>
      <trkpt lat="44.28286" lon="5.6696">
        <ele>970</ele>
        <time>2018-07-17T09:45:57Z</time>
      </trkpt>
      <trkpt lat="44.28285" lon="5.66958">
        <ele>969</ele>
        <time>2018-07-17T09:45:59Z</time>
      </trkpt>
      <trkpt lat="44.28285" lon="5.66956">
        <ele>968</ele>
        <time>2018-07-17T09:46:01Z</time>
      </trkpt>
      <trkpt lat="44.28285" lon="5.66954">
        <ele>966</ele>
        <time>2018-07-17T09:46:05Z</time>
      </trkpt>
      <trkpt lat="44.28285" lon="5.66952">
        <ele>966</ele>
        <time>2018-07-17T09:46:06Z</time>
      </trkpt>
      <trkpt lat="44.28284" lon="5.66951">
        <ele>966</ele>
        <time>2018-07-17T09:46:07Z</time>
      </trkpt>
      <trkpt lat="44.28283" lon="5.66949">
        <ele>966</ele>
        <time>2018-07-17T09:46:08Z</time>
      </trkpt>
      <trkpt lat="44.28283" lon="5.66947">
        <ele>966</ele>
        <time>2018-07-17T09:46:10Z</time>
      </trkpt>
      <trkpt lat="44.28282" lon="5.66945">
        <ele>966</ele>
        <time>2018-07-17T09:46:12Z</time>
      </trkpt>
      <trkpt lat="44.28281" lon="5.66943">
        <ele>966</ele>
        <time>2018-07-17T09:46:14Z</time>
      </trkpt>
      <trkpt lat="44.28281" lon="5.66941">
        <ele>966</ele>
        <time>2018-07-17T09:46:16Z</time>
      </trkpt>
      <trkpt lat="44.2828" lon="5.6694">
        <ele>966</ele>
        <time>2018-07-17T09:46:18Z</time>
      </trkpt>
      <trkpt lat="44.28279" lon="5.66938">
        <ele>966</ele>
        <time>2018-07-17T09:46:21Z</time>
      </trkpt>
      <trkpt lat="44.28278" lon="5.66937">
        <ele>966</ele>
        <time>2018-07-17T09:46:24Z</time>
      </trkpt>
      <trkpt lat="44.28277" lon="5.66936">
        <ele>966</ele>
        <time>2018-07-17T09:46:26Z</time>
      </trkpt>
      <trkpt lat="44.28277" lon="5.66934">
        <ele>966</ele>
        <time>2018-07-17T09:46:28Z</time>
      </trkpt>
      <trkpt lat="44.28276" lon="5.66932">
        <ele>966</ele>
        <time>2018-07-17T09:46:30Z</time>
      </trkpt>
      <trkpt lat="44.28275" lon="5.6693">
        <ele>966</ele>
        <time>2018-07-17T09:46:32Z</time>
      </trkpt>
      <trkpt lat="44.28275" lon="5.66927">
        <ele>966</ele>
        <time>2018-07-17T09:46:34Z</time>
      </trkpt>
      <trkpt lat="44.28274" lon="5.66926">
        <ele>966</ele>
        <time>2018-07-17T09:46:35Z</time>
      </trkpt>
      <trkpt lat="44.28274" lon="5.66924">
        <ele>966</ele>
        <time>2018-07-17T09:46:36Z</time>
      </trkpt>
      <trkpt lat="44.28273" lon="5.66923">
        <ele>966</ele>
        <time>2018-07-17T09:46:37Z</time>
      </trkpt>
      <trkpt lat="44.28273" lon="5.66921">
        <ele>966</ele>
        <time>2018-07-17T09:46:39Z</time>
      </trkpt>
      <trkpt lat="44.28272" lon="5.66919">
        <ele>966</ele>
        <time>2018-07-17T09:46:40Z</time>
      </trkpt>
      <trkpt lat="44.28271" lon="5.66917">
        <ele>966</ele>
        <time>2018-07-17T09:46:42Z</time>
      </trkpt>
      <trkpt lat="44.2827" lon="5.66915">
        <ele>965</ele>
        <time>2018-07-17T09:46:44Z</time>
      </trkpt>
      <trkpt lat="44.2827" lon="5.66912">
        <ele>965</ele>
        <time>2018-07-17T09:46:46Z</time>
      </trkpt>
      <trkpt lat="44.2827" lon="5.66909">
        <ele>965</ele>
        <time>2018-07-17T09:46:48Z</time>
      </trkpt>
      <trkpt lat="44.28269" lon="5.66906">
        <ele>964</ele>
        <time>2018-07-17T09:46:50Z</time>
      </trkpt>
      <trkpt lat="44.28269" lon="5.66904">
        <ele>964</ele>
        <time>2018-07-17T09:46:51Z</time>
      </trkpt>
      <trkpt lat="44.28269" lon="5.66902">
        <ele>963</ele>
        <time>2018-07-17T09:46:52Z</time>
      </trkpt>
      <trkpt lat="44.28269" lon="5.669">
        <ele>962</ele>
        <time>2018-07-17T09:46:54Z</time>
      </trkpt>
      <trkpt lat="44.28269" lon="5.66897">
        <ele>961</ele>
        <time>2018-07-17T09:46:56Z</time>
      </trkpt>
      <trkpt lat="44.2827" lon="5.66895">
        <ele>960</ele>
        <time>2018-07-17T09:46:58Z</time>
      </trkpt>
      <trkpt lat="44.28271" lon="5.66893">
        <ele>959</ele>
        <time>2018-07-17T09:47:00Z</time>
      </trkpt>
      <trkpt lat="44.28273" lon="5.66892">
        <ele>959</ele>
        <time>2018-07-17T09:47:02Z</time>
      </trkpt>
      <trkpt lat="44.28275" lon="5.6689">
        <ele>959</ele>
        <time>2018-07-17T09:47:04Z</time>
      </trkpt>
      <trkpt lat="44.28276" lon="5.66889">
        <ele>959</ele>
        <time>2018-07-17T09:47:06Z</time>
      </trkpt>
      <trkpt lat="44.28278" lon="5.66888">
        <ele>959</ele>
        <time>2018-07-17T09:47:08Z</time>
      </trkpt>
      <trkpt lat="44.2828" lon="5.66889">
        <ele>959</ele>
        <time>2018-07-17T09:47:10Z</time>
      </trkpt>
      <trkpt lat="44.28282" lon="5.66889">
        <ele>959</ele>
        <time>2018-07-17T09:47:12Z</time>
      </trkpt>
      <trkpt lat="44.28283" lon="5.6689">
        <ele>959</ele>
        <time>2018-07-17T09:47:14Z</time>
      </trkpt>
      <trkpt lat="44.28285" lon="5.66891">
        <ele>959</ele>
        <time>2018-07-17T09:47:16Z</time>
      </trkpt>
      <trkpt lat="44.28287" lon="5.66893">
        <ele>959</ele>
        <time>2018-07-17T09:47:18Z</time>
      </trkpt>
      <trkpt lat="44.28288" lon="5.66894">
        <ele>959</ele>
        <time>2018-07-17T09:47:19Z</time>
      </trkpt>
      <trkpt lat="44.2829" lon="5.66895">
        <ele>959</ele>
        <time>2018-07-17T09:47:21Z</time>
      </trkpt>
      <trkpt lat="44.28292" lon="5.66897">
        <ele>959</ele>
        <time>2018-07-17T09:47:23Z</time>
      </trkpt>
      <trkpt lat="44.28293" lon="5.66898">
        <ele>959</ele>
        <time>2018-07-17T09:47:24Z</time>
      </trkpt>
      <trkpt lat="44.28294" lon="5.66901">
        <ele>959</ele>
        <time>2018-07-17T09:47:26Z</time>
      </trkpt>
      <trkpt lat="44.28296" lon="5.66902">
        <ele>959</ele>
        <time>2018-07-17T09:47:28Z</time>
      </trkpt>
      <trkpt lat="44.28298" lon="5.66904">
        <ele>959</ele>
        <time>2018-07-17T09:47:30Z</time>
      </trkpt>
      <trkpt lat="44.283" lon="5.66905">
        <ele>959</ele>
        <time>2018-07-17T09:47:31Z</time>
      </trkpt>
      <trkpt lat="44.28301" lon="5.66907">
        <ele>959</ele>
        <time>2018-07-17T09:47:33Z</time>
      </trkpt>
      <trkpt lat="44.28302" lon="5.66909">
        <ele>959</ele>
        <time>2018-07-17T09:47:35Z</time>
      </trkpt>
      <trkpt lat="44.28304" lon="5.6691">
        <ele>959</ele>
        <time>2018-07-17T09:47:36Z</time>
      </trkpt>
      <trkpt lat="44.28305" lon="5.66911">
        <ele>959</ele>
        <time>2018-07-17T09:47:37Z</time>
      </trkpt>
      <trkpt lat="44.28307" lon="5.66912">
        <ele>959</ele>
        <time>2018-07-17T09:47:38Z</time>
      </trkpt>
      <trkpt lat="44.28309" lon="5.66914">
        <ele>959</ele>
        <time>2018-07-17T09:47:40Z</time>
      </trkpt>
      <trkpt lat="44.2831" lon="5.66915">
        <ele>959</ele>
        <time>2018-07-17T09:47:42Z</time>
      </trkpt>
      <trkpt lat="44.28311" lon="5.66917">
        <ele>959</ele>
        <time>2018-07-17T09:47:44Z</time>
      </trkpt>
      <trkpt lat="44.28312" lon="5.66919">
        <ele>958</ele>
        <time>2018-07-17T09:47:46Z</time>
      </trkpt>
      <trkpt lat="44.28314" lon="5.66921">
        <ele>958</ele>
        <time>2018-07-17T09:47:48Z</time>
      </trkpt>
      <trkpt lat="44.28315" lon="5.66923">
        <ele>957</ele>
        <time>2018-07-17T09:47:50Z</time>
      </trkpt>
      <trkpt lat="44.28317" lon="5.66925">
        <ele>956</ele>
        <time>2018-07-17T09:47:53Z</time>
      </trkpt>
      <trkpt lat="44.28318" lon="5.66927">
        <ele>956</ele>
        <time>2018-07-17T09:47:55Z</time>
      </trkpt>
      <trkpt lat="44.2832" lon="5.66929">
        <ele>956</ele>
        <time>2018-07-17T09:47:57Z</time>
      </trkpt>
      <trkpt lat="44.28322" lon="5.66931">
        <ele>956</ele>
        <time>2018-07-17T09:48:00Z</time>
      </trkpt>
      <trkpt lat="44.28323" lon="5.66932">
        <ele>956</ele>
        <time>2018-07-17T09:48:01Z</time>
      </trkpt>
      <trkpt lat="44.28324" lon="5.66934">
        <ele>956</ele>
        <time>2018-07-17T09:48:03Z</time>
      </trkpt>
      <trkpt lat="44.28326" lon="5.66936">
        <ele>956</ele>
        <time>2018-07-17T09:48:05Z</time>
      </trkpt>
      <trkpt lat="44.28327" lon="5.66937">
        <ele>956</ele>
        <time>2018-07-17T09:48:07Z</time>
      </trkpt>
      <trkpt lat="44.28328" lon="5.66938">
        <ele>956</ele>
        <time>2018-07-17T09:48:08Z</time>
      </trkpt>
      <trkpt lat="44.2833" lon="5.66939">
        <ele>956</ele>
        <time>2018-07-17T09:48:10Z</time>
      </trkpt>
      <trkpt lat="44.28331" lon="5.66941">
        <ele>956</ele>
        <time>2018-07-17T09:48:12Z</time>
      </trkpt>
      <trkpt lat="44.28332" lon="5.66943">
        <ele>955</ele>
        <time>2018-07-17T09:48:14Z</time>
      </trkpt>
      <trkpt lat="44.28333" lon="5.66945">
        <ele>955</ele>
        <time>2018-07-17T09:48:16Z</time>
      </trkpt>
      <trkpt lat="44.28334" lon="5.66947">
        <ele>954</ele>
        <time>2018-07-17T09:48:18Z</time>
      </trkpt>
      <trkpt lat="44.28336" lon="5.66948">
        <ele>954</ele>
        <time>2018-07-17T09:48:20Z</time>
      </trkpt>
      <trkpt lat="44.28337" lon="5.6695">
        <ele>953</ele>
        <time>2018-07-17T09:48:23Z</time>
      </trkpt>
      <trkpt lat="44.28339" lon="5.66951">
        <ele>953</ele>
        <time>2018-07-17T09:48:25Z</time>
      </trkpt>
      <trkpt lat="44.28341" lon="5.66952">
        <ele>953</ele>
        <time>2018-07-17T09:48:27Z</time>
      </trkpt>
      <trkpt lat="44.28343" lon="5.66951">
        <ele>953</ele>
        <time>2018-07-17T09:48:30Z</time>
      </trkpt>
      <trkpt lat="44.28344" lon="5.66952">
        <ele>953</ele>
        <time>2018-07-17T09:48:32Z</time>
      </trkpt>
      <trkpt lat="44.28345" lon="5.66953">
        <ele>952</ele>
        <time>2018-07-17T09:48:34Z</time>
      </trkpt>
      <trkpt lat="44.28347" lon="5.66953">
        <ele>952</ele>
        <time>2018-07-17T09:48:37Z</time>
      </trkpt>
      <trkpt lat="44.28349" lon="5.66952">
        <ele>952</ele>
        <time>2018-07-17T09:48:39Z</time>
      </trkpt>
      <trkpt lat="44.2835" lon="5.6695">
        <ele>952</ele>
        <time>2018-07-17T09:48:42Z</time>
      </trkpt>
      <trkpt lat="44.2835" lon="5.66949">
        <ele>952</ele>
        <time>2018-07-17T09:48:46Z</time>
      </trkpt>
      <trkpt lat="44.28352" lon="5.66948">
        <ele>953</ele>
        <time>2018-07-17T09:48:49Z</time>
      </trkpt>
      <trkpt lat="44.28353" lon="5.66949">
        <ele>954</ele>
        <time>2018-07-17T09:48:53Z</time>
      </trkpt>
      <trkpt lat="44.28354" lon="5.66949">
        <ele>954</ele>
        <time>2018-07-17T09:49:01Z</time>
      </trkpt>
      <trkpt lat="44.28356" lon="5.66949">
        <ele>954</ele>
        <time>2018-07-17T09:49:03Z</time>
      </trkpt>
      <trkpt lat="44.28357" lon="5.6695">
        <ele>954</ele>
        <time>2018-07-17T09:49:05Z</time>
      </trkpt>
      <trkpt lat="44.28359" lon="5.6695">
        <ele>954</ele>
        <time>2018-07-17T09:49:07Z</time>
      </trkpt>
      <trkpt lat="44.2836" lon="5.6695">
        <ele>954</ele>
        <time>2018-07-17T09:49:09Z</time>
      </trkpt>
      <trkpt lat="44.28362" lon="5.6695">
        <ele>954</ele>
        <time>2018-07-17T09:49:11Z</time>
      </trkpt>
      <trkpt lat="44.28363" lon="5.6695">
        <ele>954</ele>
        <time>2018-07-17T09:49:13Z</time>
      </trkpt>
      <trkpt lat="44.28365" lon="5.6695">
        <ele>954</ele>
        <time>2018-07-17T09:49:15Z</time>
      </trkpt>
      <trkpt lat="44.28366" lon="5.6695">
        <ele>954</ele>
        <time>2018-07-17T09:49:17Z</time>
      </trkpt>
      <trkpt lat="44.28368" lon="5.6695">
        <ele>954</ele>
        <time>2018-07-17T09:49:19Z</time>
      </trkpt>
      <trkpt lat="44.28369" lon="5.66949">
        <ele>954</ele>
        <time>2018-07-17T09:49:21Z</time>
      </trkpt>
      <trkpt lat="44.2837" lon="5.66947">
        <ele>953</ele>
        <time>2018-07-17T09:49:25Z</time>
      </trkpt>
      <trkpt lat="44.28371" lon="5.66947">
        <ele>952</ele>
        <time>2018-07-17T09:49:27Z</time>
      </trkpt>
      <trkpt lat="44.28372" lon="5.66946">
        <ele>951</ele>
        <time>2018-07-17T09:49:29Z</time>
      </trkpt>
      <trkpt lat="44.28374" lon="5.66945">
        <ele>951</ele>
        <time>2018-07-17T09:49:31Z</time>
      </trkpt>
      <trkpt lat="44.28375" lon="5.66944">
        <ele>951</ele>
        <time>2018-07-17T09:49:33Z</time>
      </trkpt>
      <trkpt lat="44.28377" lon="5.66944">
        <ele>951</ele>
        <time>2018-07-17T09:49:35Z</time>
      </trkpt>
      <trkpt lat="44.28378" lon="5.66944">
        <ele>951</ele>
        <time>2018-07-17T09:49:36Z</time>
      </trkpt>
      <trkpt lat="44.28379" lon="5.66942">
        <ele>951</ele>
        <time>2018-07-17T09:49:38Z</time>
      </trkpt>
      <trkpt lat="44.28381" lon="5.66942">
        <ele>951</ele>
        <time>2018-07-17T09:49:40Z</time>
      </trkpt>
      <trkpt lat="44.28383" lon="5.66942">
        <ele>951</ele>
        <time>2018-07-17T09:49:41Z</time>
      </trkpt>
      <trkpt lat="44.28384" lon="5.66944">
        <ele>950</ele>
        <time>2018-07-17T09:49:44Z</time>
      </trkpt>
      <trkpt lat="44.28386" lon="5.66945">
        <ele>950</ele>
        <time>2018-07-17T09:49:46Z</time>
      </trkpt>
      <trkpt lat="44.28387" lon="5.66946">
        <ele>947</ele>
        <time>2018-07-17T09:49:50Z</time>
      </trkpt>
      <trkpt lat="44.28386" lon="5.66946">
        <ele>945</ele>
        <time>2018-07-17T09:49:54Z</time>
      </trkpt>
      <trkpt lat="44.28385" lon="5.66945">
        <ele>945</ele>
        <time>2018-07-17T09:49:56Z</time>
      </trkpt>
      <trkpt lat="44.28385" lon="5.66944">
        <ele>945</ele>
        <time>2018-07-17T09:50:03Z</time>
      </trkpt>
      <trkpt lat="44.28386" lon="5.66945">
        <ele>945</ele>
        <time>2018-07-17T09:50:07Z</time>
      </trkpt>
      <trkpt lat="44.28386" lon="5.66945">
        <ele>945</ele>
        <time>2018-07-17T09:50:11Z</time>
      </trkpt>
      <trkpt lat="44.28387" lon="5.66946">
        <ele>945</ele>
        <time>2018-07-17T09:50:15Z</time>
      </trkpt>
      <trkpt lat="44.28387" lon="5.66948">
        <ele>942</ele>
        <time>2018-07-17T09:50:23Z</time>
      </trkpt>
      <trkpt lat="44.28388" lon="5.66948">
        <ele>941</ele>
        <time>2018-07-17T09:50:27Z</time>
      </trkpt>
      <trkpt lat="44.28389" lon="5.66949">
        <ele>939</ele>
        <time>2018-07-17T09:50:31Z</time>
      </trkpt>
      <trkpt lat="44.28391" lon="5.66951">
        <ele>937</ele>
        <time>2018-07-17T09:50:35Z</time>
      </trkpt>
      <trkpt lat="44.2839" lon="5.6695">
        <ele>935</ele>
        <time>2018-07-17T09:50:39Z</time>
      </trkpt>
      <trkpt lat="44.28389" lon="5.66948">
        <ele>935</ele>
        <time>2018-07-17T09:50:43Z</time>
      </trkpt>
      <trkpt lat="44.28389" lon="5.66949">
        <ele>935</ele>
        <time>2018-07-17T09:50:46Z</time>
      </trkpt>
      <trkpt lat="44.28388" lon="5.66951">
        <ele>937</ele>
        <time>2018-07-17T09:50:52Z</time>
      </trkpt>
      <trkpt lat="44.28386" lon="5.66951">
        <ele>939</ele>
        <time>2018-07-17T09:50:55Z</time>
      </trkpt>
      <trkpt lat="44.28385" lon="5.66951">
        <ele>941</ele>
        <time>2018-07-17T09:51:03Z</time>
      </trkpt>
      <trkpt lat="44.28384" lon="5.66951">
        <ele>941</ele>
        <time>2018-07-17T09:51:06Z</time>
      </trkpt>
      <trkpt lat="44.28382" lon="5.6695">
        <ele>941</ele>
        <time>2018-07-17T09:51:08Z</time>
      </trkpt>
      <trkpt lat="44.28381" lon="5.66949">
        <ele>941</ele>
        <time>2018-07-17T09:51:11Z</time>
      </trkpt>
      <trkpt lat="44.2838" lon="5.66948">
        <ele>941</ele>
        <time>2018-07-17T09:51:33Z</time>
      </trkpt>
      <trkpt lat="44.28381" lon="5.66947">
        <ele>941</ele>
        <time>2018-07-17T09:51:35Z</time>
      </trkpt>
      <trkpt lat="44.28382" lon="5.66947">
        <ele>941</ele>
        <time>2018-07-17T09:51:39Z</time>
      </trkpt>
      <trkpt lat="44.28384" lon="5.66947">
        <ele>943</ele>
        <time>2018-07-17T09:51:43Z</time>
      </trkpt>
      <trkpt lat="44.28383" lon="5.66948">
        <ele>944</ele>
        <time>2018-07-17T09:51:54Z</time>
      </trkpt>
      <trkpt lat="44.28383" lon="5.66948">
        <ele>944</ele>
        <time>2018-07-17T09:51:56Z</time>
      </trkpt>
      <trkpt lat="44.28381" lon="5.66949">
        <ele>944</ele>
        <time>2018-07-17T09:51:58Z</time>
      </trkpt>
      <trkpt lat="44.28382" lon="5.66947">
        <ele>942</ele>
        <time>2018-07-17T09:52:01Z</time>
      </trkpt>
      <trkpt lat="44.28384" lon="5.66946">
        <ele>942</ele>
        <time>2018-07-17T09:52:03Z</time>
      </trkpt>
      <trkpt lat="44.28385" lon="5.66946">
        <ele>942</ele>
        <time>2018-07-17T09:52:06Z</time>
      </trkpt>
      <trkpt lat="44.28387" lon="5.66946">
        <ele>941</ele>
        <time>2018-07-17T09:52:09Z</time>
      </trkpt>
      <trkpt lat="44.28388" lon="5.66946">
        <ele>941</ele>
        <time>2018-07-17T09:52:11Z</time>
      </trkpt>
      <trkpt lat="44.2839" lon="5.66947">
        <ele>941</ele>
        <time>2018-07-17T09:52:14Z</time>
      </trkpt>
      <trkpt lat="44.28392" lon="5.66947">
        <ele>941</ele>
        <time>2018-07-17T09:52:16Z</time>
      </trkpt>
      <trkpt lat="44.28393" lon="5.66948">
        <ele>941</ele>
        <time>2018-07-17T09:52:18Z</time>
      </trkpt>
      <trkpt lat="44.28394" lon="5.66949">
        <ele>941</ele>
        <time>2018-07-17T09:52:24Z</time>
      </trkpt>
      <trkpt lat="44.28395" lon="5.66951">
        <ele>941</ele>
        <time>2018-07-17T09:52:27Z</time>
      </trkpt>
      <trkpt lat="44.28395" lon="5.66949">
        <ele>941</ele>
        <time>2018-07-17T09:52:31Z</time>
      </trkpt>
      <trkpt lat="44.28395" lon="5.66947">
        <ele>941</ele>
        <time>2018-07-17T09:52:35Z</time>
      </trkpt>
      <trkpt lat="44.28396" lon="5.66946">
        <ele>941</ele>
        <time>2018-07-17T09:52:36Z</time>
      </trkpt>
      <trkpt lat="44.28396" lon="5.66944">
        <ele>941</ele>
        <time>2018-07-17T09:52:37Z</time>
      </trkpt>
      <trkpt lat="44.28396" lon="5.66943">
        <ele>941</ele>
        <time>2018-07-17T09:52:39Z</time>
      </trkpt>
      <trkpt lat="44.28398" lon="5.6694">
        <ele>939</ele>
        <time>2018-07-17T09:52:42Z</time>
      </trkpt>
      <trkpt lat="44.28399" lon="5.66938">
        <ele>938</ele>
        <time>2018-07-17T09:52:44Z</time>
      </trkpt>
      <trkpt lat="44.28401" lon="5.66937">
        <ele>938</ele>
        <time>2018-07-17T09:52:47Z</time>
      </trkpt>
      <trkpt lat="44.28402" lon="5.66938">
        <ele>938</ele>
        <time>2018-07-17T09:52:52Z</time>
      </trkpt>
      <trkpt lat="44.28403" lon="5.66937">
        <ele>938</ele>
        <time>2018-07-17T09:52:55Z</time>
      </trkpt>
      <trkpt lat="44.28405" lon="5.66936">
        <ele>938</ele>
        <time>2018-07-17T09:52:57Z</time>
      </trkpt>
      <trkpt lat="44.28407" lon="5.66935">
        <ele>938</ele>
        <time>2018-07-17T09:52:59Z</time>
      </trkpt>
      <trkpt lat="44.28408" lon="5.66934">
        <ele>938</ele>
        <time>2018-07-17T09:53:01Z</time>
      </trkpt>
      <trkpt lat="44.28409" lon="5.66935">
        <ele>938</ele>
        <time>2018-07-17T09:53:03Z</time>
      </trkpt>
      <trkpt lat="44.28411" lon="5.66935">
        <ele>938</ele>
        <time>2018-07-17T09:53:06Z</time>
      </trkpt>
      <trkpt lat="44.28412" lon="5.66935">
        <ele>938</ele>
        <time>2018-07-17T09:53:08Z</time>
      </trkpt>
      <trkpt lat="44.28413" lon="5.66933">
        <ele>938</ele>
        <time>2018-07-17T09:53:12Z</time>
      </trkpt>
      <trkpt lat="44.28414" lon="5.66931">
        <ele>938</ele>
        <time>2018-07-17T09:53:13Z</time>
      </trkpt>
      <trkpt lat="44.28416" lon="5.66931">
        <ele>938</ele>
        <time>2018-07-17T09:53:16Z</time>
      </trkpt>
      <trkpt lat="44.28416" lon="5.66933">
        <ele>938</ele>
        <time>2018-07-17T09:53:21Z</time>
      </trkpt>
      <trkpt lat="44.28415" lon="5.66933">
        <ele>938</ele>
        <time>2018-07-17T09:53:23Z</time>
      </trkpt>
      <trkpt lat="44.28414" lon="5.66934">
        <ele>938</ele>
        <time>2018-07-17T09:53:26Z</time>
      </trkpt>
      <trkpt lat="44.28415" lon="5.66936">
        <ele>940</ele>
        <time>2018-07-17T09:53:31Z</time>
      </trkpt>
      <trkpt lat="44.28416" lon="5.66936">
        <ele>942</ele>
        <time>2018-07-17T09:53:34Z</time>
      </trkpt>
      <trkpt lat="44.28418" lon="5.66937">
        <ele>947</ele>
        <time>2018-07-17T09:53:42Z</time>
      </trkpt>
      <trkpt lat="44.28419" lon="5.66936">
        <ele>949</ele>
        <time>2018-07-17T09:53:50Z</time>
      </trkpt>
      <trkpt lat="44.28421" lon="5.66937">
        <ele>949</ele>
        <time>2018-07-17T09:53:52Z</time>
      </trkpt>
      <trkpt lat="44.28421" lon="5.66935">
        <ele>949</ele>
        <time>2018-07-17T09:53:55Z</time>
      </trkpt>
      <trkpt lat="44.28421" lon="5.66933">
        <ele>949</ele>
        <time>2018-07-17T09:53:57Z</time>
      </trkpt>
      <trkpt lat="44.28421" lon="5.66932">
        <ele>949</ele>
        <time>2018-07-17T09:53:59Z</time>
      </trkpt>
      <trkpt lat="44.28422" lon="5.6693">
        <ele>949</ele>
        <time>2018-07-17T09:54:04Z</time>
      </trkpt>
      <trkpt lat="44.28422" lon="5.66929">
        <ele>949</ele>
        <time>2018-07-17T09:54:07Z</time>
      </trkpt>
      <trkpt lat="44.28421" lon="5.66927">
        <ele>947</ele>
        <time>2018-07-17T09:54:14Z</time>
      </trkpt>
      <trkpt lat="44.28421" lon="5.66925">
        <ele>946</ele>
        <time>2018-07-17T09:54:21Z</time>
      </trkpt>
      <trkpt lat="44.28423" lon="5.66925">
        <ele>946</ele>
        <time>2018-07-17T09:54:24Z</time>
      </trkpt>
      <trkpt lat="44.28424" lon="5.66927">
        <ele>948</ele>
        <time>2018-07-17T09:54:27Z</time>
      </trkpt>
      <trkpt lat="44.28424" lon="5.66928">
        <ele>951</ele>
        <time>2018-07-17T09:54:31Z</time>
      </trkpt>
      <trkpt lat="44.28423" lon="5.66927">
        <ele>952</ele>
        <time>2018-07-17T09:54:36Z</time>
      </trkpt>
      <trkpt lat="44.28423" lon="5.66927">
        <ele>952</ele>
        <time>2018-07-17T09:54:41Z</time>
      </trkpt>
      <trkpt lat="44.28422" lon="5.66925">
        <ele>952</ele>
        <time>2018-07-17T09:54:42Z</time>
      </trkpt>
      <trkpt lat="44.28423" lon="5.66924">
        <ele>951</ele>
        <time>2018-07-17T09:54:56Z</time>
      </trkpt>
      <trkpt lat="44.28423" lon="5.66922">
        <ele>950</ele>
        <time>2018-07-17T09:55:00Z</time>
      </trkpt>
      <trkpt lat="44.28424" lon="5.6692">
        <ele>949</ele>
        <time>2018-07-17T09:55:04Z</time>
      </trkpt>
      <trkpt lat="44.28426" lon="5.66919">
        <ele>949</ele>
        <time>2018-07-17T09:55:07Z</time>
      </trkpt>
      <trkpt lat="44.28427" lon="5.6692">
        <ele>949</ele>
        <time>2018-07-17T09:55:12Z</time>
      </trkpt>
      <trkpt lat="44.28427" lon="5.66919">
        <ele>949</ele>
        <time>2018-07-17T09:55:25Z</time>
      </trkpt>
      <trkpt lat="44.28428" lon="5.6692">
        <ele>949</ele>
        <time>2018-07-17T09:55:28Z</time>
      </trkpt>
      <trkpt lat="44.28428" lon="5.6692">
        <ele>949</ele>
        <time>2018-07-17T09:55:30Z</time>
      </trkpt>
      <trkpt lat="44.28429" lon="5.66921">
        <ele>949</ele>
        <time>2018-07-17T09:55:31Z</time>
      </trkpt>
      <trkpt lat="44.28431" lon="5.66921">
        <ele>949</ele>
        <time>2018-07-17T09:55:35Z</time>
      </trkpt>
      <trkpt lat="44.28431" lon="5.66921">
        <ele>949</ele>
        <time>2018-07-17T09:55:36Z</time>
      </trkpt>
      <trkpt lat="44.28432" lon="5.6692">
        <ele>949</ele>
        <time>2018-07-17T09:55:37Z</time>
      </trkpt>
      <trkpt lat="44.28434" lon="5.66918">
        <ele>949</ele>
        <time>2018-07-17T09:55:39Z</time>
      </trkpt>
      <trkpt lat="44.28436" lon="5.66917">
        <ele>949</ele>
        <time>2018-07-17T09:55:41Z</time>
      </trkpt>
      <trkpt lat="44.28436" lon="5.66917">
        <ele>949</ele>
        <time>2018-07-17T09:55:42Z</time>
      </trkpt>
      <trkpt lat="44.28437" lon="5.66916">
        <ele>949</ele>
        <time>2018-07-17T09:55:43Z</time>
      </trkpt>
      <trkpt lat="44.28439" lon="5.66915">
        <ele>949</ele>
        <time>2018-07-17T09:55:45Z</time>
      </trkpt>
      <trkpt lat="44.28441" lon="5.66913">
        <ele>949</ele>
        <time>2018-07-17T09:55:47Z</time>
      </trkpt>
      <trkpt lat="44.28441" lon="5.66913">
        <ele>949</ele>
        <time>2018-07-17T09:55:48Z</time>
      </trkpt>
      <trkpt lat="44.28443" lon="5.66912">
        <ele>949</ele>
        <time>2018-07-17T09:55:49Z</time>
      </trkpt>
      <trkpt lat="44.28443" lon="5.66912">
        <ele>949</ele>
        <time>2018-07-17T09:55:50Z</time>
      </trkpt>
      <trkpt lat="44.28444" lon="5.6691">
        <ele>949</ele>
        <time>2018-07-17T09:55:51Z</time>
      </trkpt>
      <trkpt lat="44.28445" lon="5.66909">
        <ele>949</ele>
        <time>2018-07-17T09:55:53Z</time>
      </trkpt>
      <trkpt lat="44.28445" lon="5.66909">
        <ele>949</ele>
        <time>2018-07-17T09:55:54Z</time>
      </trkpt>
      <trkpt lat="44.28445" lon="5.66909">
        <ele>949</ele>
        <time>2018-07-17T09:55:55Z</time>
      </trkpt>
      <trkpt lat="44.28444" lon="5.66907">
        <ele>949</ele>
        <time>2018-07-17T09:55:56Z</time>
      </trkpt>
      <trkpt lat="44.28445" lon="5.66905">
        <ele>949</ele>
        <time>2018-07-17T09:55:59Z</time>
      </trkpt>
      <trkpt lat="44.28445" lon="5.66907">
        <ele>948</ele>
        <time>2018-07-17T09:56:02Z</time>
      </trkpt>
      <trkpt lat="44.28445" lon="5.66909">
        <ele>947</ele>
        <time>2018-07-17T09:56:03Z</time>
      </trkpt>
      <trkpt lat="44.28445" lon="5.6691">
        <ele>947</ele>
        <time>2018-07-17T09:56:05Z</time>
      </trkpt>
      <trkpt lat="44.28444" lon="5.66912">
        <ele>945</ele>
        <time>2018-07-17T09:56:09Z</time>
      </trkpt>
      <trkpt lat="44.28444" lon="5.66912">
        <ele>944</ele>
        <time>2018-07-17T09:56:10Z</time>
      </trkpt>
      <trkpt lat="44.28445" lon="5.6691">
        <ele>943</ele>
        <time>2018-07-17T09:56:17Z</time>
      </trkpt>
      <trkpt lat="44.28445" lon="5.66909">
        <ele>943</ele>
        <time>2018-07-17T09:56:21Z</time>
      </trkpt>
      <trkpt lat="44.28444" lon="5.66907">
        <ele>943</ele>
        <time>2018-07-17T09:56:23Z</time>
      </trkpt>
      <trkpt lat="44.28445" lon="5.66909">
        <ele>943</ele>
        <time>2018-07-17T09:56:31Z</time>
      </trkpt>
      <trkpt lat="44.28449" lon="5.66904">
        <ele>954</ele>
        <time>2018-07-17T09:56:34Z</time>
      </trkpt>
      <trkpt lat="44.2845" lon="5.66905">
        <ele>950</ele>
        <time>2018-07-17T09:56:38Z</time>
      </trkpt>
      <trkpt lat="44.28451" lon="5.66906">
        <ele>946</ele>
        <time>2018-07-17T09:56:46Z</time>
      </trkpt>
      <trkpt lat="44.28453" lon="5.66906">
        <ele>946</ele>
        <time>2018-07-17T09:56:48Z</time>
      </trkpt>
      <trkpt lat="44.28454" lon="5.66905">
        <ele>946</ele>
        <time>2018-07-17T09:56:50Z</time>
      </trkpt>
      <trkpt lat="44.28455" lon="5.66904">
        <ele>946</ele>
        <time>2018-07-17T09:56:54Z</time>
      </trkpt>
      <trkpt lat="44.28455" lon="5.66904">
        <ele>946</ele>
        <time>2018-07-17T09:56:55Z</time>
      </trkpt>
      <trkpt lat="44.28456" lon="5.66906">
        <ele>946</ele>
        <time>2018-07-17T09:57:00Z</time>
      </trkpt>
      <trkpt lat="44.28458" lon="5.66907">
        <ele>946</ele>
        <time>2018-07-17T09:57:02Z</time>
      </trkpt>
      <trkpt lat="44.28458" lon="5.66907">
        <ele>946</ele>
        <time>2018-07-17T09:57:08Z</time>
      </trkpt>
      <trkpt lat="44.28459" lon="5.66906">
        <ele>946</ele>
        <time>2018-07-17T09:57:12Z</time>
      </trkpt>
      <trkpt lat="44.28459" lon="5.66906">
        <ele>946</ele>
        <time>2018-07-17T09:57:15Z</time>
      </trkpt>
      <trkpt lat="44.28459" lon="5.66908">
        <ele>946</ele>
        <time>2018-07-17T09:57:20Z</time>
      </trkpt>
      <trkpt lat="44.28459" lon="5.66909">
        <ele>946</ele>
        <time>2018-07-17T09:57:23Z</time>
      </trkpt>
      <trkpt lat="44.28459" lon="5.66911">
        <ele>946</ele>
        <time>2018-07-17T09:57:25Z</time>
      </trkpt>
      <trkpt lat="44.2846" lon="5.66912">
        <ele>945</ele>
        <time>2018-07-17T09:57:30Z</time>
      </trkpt>
      <trkpt lat="44.28461" lon="5.66913">
        <ele>945</ele>
        <time>2018-07-17T09:57:33Z</time>
      </trkpt>
      <trkpt lat="44.28463" lon="5.66911">
        <ele>945</ele>
        <time>2018-07-17T09:57:37Z</time>
      </trkpt>
      <trkpt lat="44.28464" lon="5.66911">
        <ele>945</ele>
        <time>2018-07-17T09:57:40Z</time>
      </trkpt>
      <trkpt lat="44.28465" lon="5.66913">
        <ele>945</ele>
        <time>2018-07-17T09:57:46Z</time>
      </trkpt>
      <trkpt lat="44.28466" lon="5.66914">
        <ele>945</ele>
        <time>2018-07-17T09:57:49Z</time>
      </trkpt>
      <trkpt lat="44.28466" lon="5.66916">
        <ele>945</ele>
        <time>2018-07-17T09:57:51Z</time>
      </trkpt>
      <trkpt lat="44.28466" lon="5.66918">
        <ele>945</ele>
        <time>2018-07-17T09:57:53Z</time>
      </trkpt>
      <trkpt lat="44.28466" lon="5.6692">
        <ele>945</ele>
        <time>2018-07-17T09:57:55Z</time>
      </trkpt>
      <trkpt lat="44.28467" lon="5.66922">
        <ele>945</ele>
        <time>2018-07-17T09:57:58Z</time>
      </trkpt>
      <trkpt lat="44.28468" lon="5.66923">
        <ele>945</ele>
        <time>2018-07-17T09:58:00Z</time>
      </trkpt>
      <trkpt lat="44.28468" lon="5.66925">
        <ele>945</ele>
        <time>2018-07-17T09:58:02Z</time>
      </trkpt>
      <trkpt lat="44.28468" lon="5.66927">
        <ele>945</ele>
        <time>2018-07-17T09:58:05Z</time>
      </trkpt>
      <trkpt lat="44.2847" lon="5.66927">
        <ele>945</ele>
        <time>2018-07-17T09:58:08Z</time>
      </trkpt>
      <trkpt lat="44.28472" lon="5.66928">
        <ele>945</ele>
        <time>2018-07-17T09:58:14Z</time>
      </trkpt>
      <trkpt lat="44.28474" lon="5.66928">
        <ele>945</ele>
        <time>2018-07-17T09:58:16Z</time>
      </trkpt>
      <trkpt lat="44.28472" lon="5.66929">
        <ele>945</ele>
        <time>2018-07-17T09:58:18Z</time>
      </trkpt>
      <trkpt lat="44.28471" lon="5.66929">
        <ele>945</ele>
        <time>2018-07-17T09:58:20Z</time>
      </trkpt>
      <trkpt lat="44.28471" lon="5.66931">
        <ele>945</ele>
        <time>2018-07-17T09:58:26Z</time>
      </trkpt>
      <trkpt lat="44.28471" lon="5.66933">
        <ele>945</ele>
        <time>2018-07-17T09:58:28Z</time>
      </trkpt>
      <trkpt lat="44.28473" lon="5.66934">
        <ele>945</ele>
        <time>2018-07-17T09:58:30Z</time>
      </trkpt>
      <trkpt lat="44.28474" lon="5.66933">
        <ele>945</ele>
        <time>2018-07-17T09:58:35Z</time>
      </trkpt>
      <trkpt lat="44.28474" lon="5.66931">
        <ele>945</ele>
        <time>2018-07-17T09:58:41Z</time>
      </trkpt>
      <trkpt lat="44.28472" lon="5.66929">
        <ele>945</ele>
        <time>2018-07-17T09:58:47Z</time>
      </trkpt>
      <trkpt lat="44.2847" lon="5.66928">
        <ele>945</ele>
        <time>2018-07-17T09:58:50Z</time>
      </trkpt>
      <trkpt lat="44.28469" lon="5.66927">
        <ele>945</ele>
        <time>2018-07-17T09:58:55Z</time>
      </trkpt>
      <trkpt lat="44.28468" lon="5.66927">
        <ele>945</ele>
        <time>2018-07-17T09:58:58Z</time>
      </trkpt>
      <trkpt lat="44.28469" lon="5.66926">
        <ele>945</ele>
        <time>2018-07-17T09:59:00Z</time>
      </trkpt>
      <trkpt lat="44.28471" lon="5.66926">
        <ele>945</ele>
        <time>2018-07-17T09:59:02Z</time>
      </trkpt>
      <trkpt lat="44.28472" lon="5.66926">
        <ele>945</ele>
        <time>2018-07-17T09:59:16Z</time>
      </trkpt>
      <trkpt lat="44.28473" lon="5.66927">
        <ele>945</ele>
        <time>2018-07-17T09:59:19Z</time>
      </trkpt>
      <trkpt lat="44.28474" lon="5.66927">
        <ele>945</ele>
        <time>2018-07-17T09:59:23Z</time>
      </trkpt>
      <trkpt lat="44.28473" lon="5.66926">
        <ele>945</ele>
        <time>2018-07-17T09:59:28Z</time>
      </trkpt>
      <trkpt lat="44.28471" lon="5.66925">
        <ele>945</ele>
        <time>2018-07-17T09:59:30Z</time>
      </trkpt>
      <trkpt lat="44.28473" lon="5.66925">
        <ele>945</ele>
        <time>2018-07-17T09:59:34Z</time>
      </trkpt>
      <trkpt lat="44.28471" lon="5.66925">
        <ele>945</ele>
        <time>2018-07-17T09:59:45Z</time>
      </trkpt>
      <trkpt lat="44.28469" lon="5.66926">
        <ele>945</ele>
        <time>2018-07-17T09:59:48Z</time>
      </trkpt>
      <trkpt lat="44.28468" lon="5.66925">
        <ele>945</ele>
        <time>2018-07-17T09:59:52Z</time>
      </trkpt>
      <trkpt lat="44.28467" lon="5.66923">
        <ele>945</ele>
        <time>2018-07-17T09:59:56Z</time>
      </trkpt>
      <trkpt lat="44.28467" lon="5.66923">
        <ele>945</ele>
        <time>2018-07-17T10:00:01Z</time>
      </trkpt>
      <trkpt lat="44.28468" lon="5.66922">
        <ele>945</ele>
        <time>2018-07-17T10:00:08Z</time>
      </trkpt>
      <trkpt lat="44.28469" lon="5.66922">
        <ele>945</ele>
        <time>2018-07-17T10:00:11Z</time>
      </trkpt>
      <trkpt lat="44.28469" lon="5.66924">
        <ele>945</ele>
        <time>2018-07-17T10:00:18Z</time>
      </trkpt>
      <trkpt lat="44.28469" lon="5.66924">
        <ele>945</ele>
        <time>2018-07-17T10:00:26Z</time>
      </trkpt>
      <trkpt lat="44.2847" lon="5.66924">
        <ele>945</ele>
        <time>2018-07-17T10:00:38Z</time>
      </trkpt>
      <trkpt lat="44.2847" lon="5.66922">
        <ele>945</ele>
        <time>2018-07-17T10:00:42Z</time>
      </trkpt>
      <trkpt lat="44.2847" lon="5.6692">
        <ele>943</ele>
        <time>2018-07-17T10:00:47Z</time>
      </trkpt>
      <trkpt lat="44.2847" lon="5.66921">
        <ele>942</ele>
        <time>2018-07-17T10:00:52Z</time>
      </trkpt>
      <trkpt lat="44.2847" lon="5.66923">
        <ele>942</ele>
        <time>2018-07-17T10:01:01Z</time>
      </trkpt>
      <trkpt lat="44.2847" lon="5.66924">
        <ele>945</ele>
        <time>2018-07-17T10:01:19Z</time>
      </trkpt>
      <trkpt lat="44.28472" lon="5.66924">
        <ele>946</ele>
        <time>2018-07-17T10:01:22Z</time>
      </trkpt>
      <trkpt lat="44.28473" lon="5.66925">
        <ele>946</ele>
        <time>2018-07-17T10:01:31Z</time>
      </trkpt>
      <trkpt lat="44.28474" lon="5.66926">
        <ele>946</ele>
        <time>2018-07-17T10:01:41Z</time>
      </trkpt>
      <trkpt lat="44.28473" lon="5.66925">
        <ele>946</ele>
        <time>2018-07-17T10:01:45Z</time>
      </trkpt>
      <trkpt lat="44.28473" lon="5.66926">
        <ele>946</ele>
        <time>2018-07-17T10:01:55Z</time>
      </trkpt>
      <trkpt lat="44.28471" lon="5.66925">
        <ele>946</ele>
        <time>2018-07-17T10:02:02Z</time>
      </trkpt>
      <trkpt lat="44.28471" lon="5.66924">
        <ele>946</ele>
        <time>2018-07-17T10:02:08Z</time>
      </trkpt>
      <trkpt lat="44.28472" lon="5.66925">
        <ele>946</ele>
        <time>2018-07-17T10:02:19Z</time>
      </trkpt>
      <trkpt lat="44.28473" lon="5.66926">
        <ele>946</ele>
        <time>2018-07-17T10:02:26Z</time>
      </trkpt>
      <trkpt lat="44.28473" lon="5.66926">
        <ele>946</ele>
        <time>2018-07-17T10:02:41Z</time>
      </trkpt>
      <trkpt lat="44.28474" lon="5.66928">
        <ele>946</ele>
        <time>2018-07-17T10:02:52Z</time>
      </trkpt>
      <trkpt lat="44.28472" lon="5.66927">
        <ele>946</ele>
        <time>2018-07-17T10:02:56Z</time>
      </trkpt>
      <trkpt lat="44.28471" lon="5.66926">
        <ele>946</ele>
        <time>2018-07-17T10:02:59Z</time>
      </trkpt>
      <trkpt lat="44.2847" lon="5.66925">
        <ele>946</ele>
        <time>2018-07-17T10:03:02Z</time>
      </trkpt>
      <trkpt lat="44.28471" lon="5.66925">
        <ele>946</ele>
        <time>2018-07-17T10:03:08Z</time>
      </trkpt>
      <trkpt lat="44.28472" lon="5.66925">
        <ele>946</ele>
        <time>2018-07-17T10:03:09Z</time>
      </trkpt>
      <trkpt lat="44.28474" lon="5.66925">
        <ele>946</ele>
        <time>2018-07-17T10:03:10Z</time>
      </trkpt>
      <trkpt lat="44.28473" lon="5.66923">
        <ele>946</ele>
        <time>2018-07-17T10:03:15Z</time>
      </trkpt>
      <trkpt lat="44.28472" lon="5.66921">
        <ele>948</ele>
        <time>2018-07-17T10:03:21Z</time>
      </trkpt>
      <trkpt lat="44.28473" lon="5.66923">
        <ele>950</ele>
        <time>2018-07-17T10:03:31Z</time>
      </trkpt>
      <trkpt lat="44.28474" lon="5.66925">
        <ele>950</ele>
        <time>2018-07-17T10:03:35Z</time>
      </trkpt>
      <trkpt lat="44.28475" lon="5.66927">
        <ele>950</ele>
        <time>2018-07-17T10:03:37Z</time>
      </trkpt>
      <trkpt lat="44.28476" lon="5.66929">
        <ele>950</ele>
        <time>2018-07-17T10:03:40Z</time>
      </trkpt>
      <trkpt lat="44.28476" lon="5.66931">
        <ele>950</ele>
        <time>2018-07-17T10:03:42Z</time>
      </trkpt>
      <trkpt lat="44.28478" lon="5.66932">
        <ele>950</ele>
        <time>2018-07-17T10:03:43Z</time>
      </trkpt>
      <trkpt lat="44.28479" lon="5.66934">
        <ele>949</ele>
        <time>2018-07-17T10:03:45Z</time>
      </trkpt>
      <trkpt lat="44.28479" lon="5.66935">
        <ele>949</ele>
        <time>2018-07-17T10:03:46Z</time>
      </trkpt>
      <trkpt lat="44.2848" lon="5.66937">
        <ele>949</ele>
        <time>2018-07-17T10:03:48Z</time>
      </trkpt>
      <trkpt lat="44.28481" lon="5.66939">
        <ele>949</ele>
        <time>2018-07-17T10:03:50Z</time>
      </trkpt>
      <trkpt lat="44.2848" lon="5.66942">
        <ele>948</ele>
        <time>2018-07-17T10:03:53Z</time>
      </trkpt>
      <trkpt lat="44.28479" lon="5.66944">
        <ele>948</ele>
        <time>2018-07-17T10:03:55Z</time>
      </trkpt>
      <trkpt lat="44.28477" lon="5.66945">
        <ele>948</ele>
        <time>2018-07-17T10:03:57Z</time>
      </trkpt>
      <trkpt lat="44.28476" lon="5.66947">
        <ele>948</ele>
        <time>2018-07-17T10:03:59Z</time>
      </trkpt>
      <trkpt lat="44.28475" lon="5.66949">
        <ele>948</ele>
        <time>2018-07-17T10:04:01Z</time>
      </trkpt>
      <trkpt lat="44.28474" lon="5.66951">
        <ele>948</ele>
        <time>2018-07-17T10:04:03Z</time>
      </trkpt>
      <trkpt lat="44.28474" lon="5.66953">
        <ele>947</ele>
        <time>2018-07-17T10:04:05Z</time>
      </trkpt>
      <trkpt lat="44.28474" lon="5.66956">
        <ele>947</ele>
        <time>2018-07-17T10:04:07Z</time>
      </trkpt>
      <trkpt lat="44.28475" lon="5.66958">
        <ele>947</ele>
        <time>2018-07-17T10:04:09Z</time>
      </trkpt>
      <trkpt lat="44.28476" lon="5.66959">
        <ele>947</ele>
        <time>2018-07-17T10:04:11Z</time>
      </trkpt>
      <trkpt lat="44.28477" lon="5.66961">
        <ele>947</ele>
        <time>2018-07-17T10:04:13Z</time>
      </trkpt>
      <trkpt lat="44.28478" lon="5.66963">
        <ele>947</ele>
        <time>2018-07-17T10:04:15Z</time>
      </trkpt>
      <trkpt lat="44.28479" lon="5.66964">
        <ele>946</ele>
        <time>2018-07-17T10:04:17Z</time>
      </trkpt>
      <trkpt lat="44.2848" lon="5.66966">
        <ele>946</ele>
        <time>2018-07-17T10:04:19Z</time>
      </trkpt>
      <trkpt lat="44.28481" lon="5.66968">
        <ele>946</ele>
        <time>2018-07-17T10:04:21Z</time>
      </trkpt>
      <trkpt lat="44.28482" lon="5.66969">
        <ele>945</ele>
        <time>2018-07-17T10:04:23Z</time>
      </trkpt>
      <trkpt lat="44.28482" lon="5.66972">
        <ele>945</ele>
        <time>2018-07-17T10:04:25Z</time>
      </trkpt>
      <trkpt lat="44.28481" lon="5.66974">
        <ele>945</ele>
        <time>2018-07-17T10:04:27Z</time>
      </trkpt>
      <trkpt lat="44.28481" lon="5.66976">
        <ele>945</ele>
        <time>2018-07-17T10:04:29Z</time>
      </trkpt>
      <trkpt lat="44.28481" lon="5.66978">
        <ele>944</ele>
        <time>2018-07-17T10:04:31Z</time>
      </trkpt>
      <trkpt lat="44.28481" lon="5.66981">
        <ele>944</ele>
        <time>2018-07-17T10:04:33Z</time>
      </trkpt>
      <trkpt lat="44.28481" lon="5.66983">
        <ele>943</ele>
        <time>2018-07-17T10:04:35Z</time>
      </trkpt>
      <trkpt lat="44.28482" lon="5.66986">
        <ele>943</ele>
        <time>2018-07-17T10:04:37Z</time>
      </trkpt>
      <trkpt lat="44.28483" lon="5.66987">
        <ele>942</ele>
        <time>2018-07-17T10:04:39Z</time>
      </trkpt>
      <trkpt lat="44.28483" lon="5.66989">
        <ele>942</ele>
        <time>2018-07-17T10:04:41Z</time>
      </trkpt>
      <trkpt lat="44.28483" lon="5.66991">
        <ele>942</ele>
        <time>2018-07-17T10:04:42Z</time>
      </trkpt>
      <trkpt lat="44.28483" lon="5.66992">
        <ele>942</ele>
        <time>2018-07-17T10:04:43Z</time>
      </trkpt>
      <trkpt lat="44.28484" lon="5.66995">
        <ele>941</ele>
        <time>2018-07-17T10:04:45Z</time>
      </trkpt>
      <trkpt lat="44.28484" lon="5.66996">
        <ele>941</ele>
        <time>2018-07-17T10:04:46Z</time>
      </trkpt>
      <trkpt lat="44.28485" lon="5.66998">
        <ele>940</ele>
        <time>2018-07-17T10:04:48Z</time>
      </trkpt>
      <trkpt lat="44.28485" lon="5.67">
        <ele>940</ele>
        <time>2018-07-17T10:04:50Z</time>
      </trkpt>
      <trkpt lat="44.28485" lon="5.67003">
        <ele>939</ele>
        <time>2018-07-17T10:04:52Z</time>
      </trkpt>
      <trkpt lat="44.28485" lon="5.67004">
        <ele>939</ele>
        <time>2018-07-17T10:04:53Z</time>
      </trkpt>
      <trkpt lat="44.28486" lon="5.67007">
        <ele>938</ele>
        <time>2018-07-17T10:04:55Z</time>
      </trkpt>
      <trkpt lat="44.28486" lon="5.67008">
        <ele>938</ele>
        <time>2018-07-17T10:04:56Z</time>
      </trkpt>
      <trkpt lat="44.28486" lon="5.6701">
        <ele>938</ele>
        <time>2018-07-17T10:04:57Z</time>
      </trkpt>
      <trkpt lat="44.28487" lon="5.67012">
        <ele>938</ele>
        <time>2018-07-17T10:04:58Z</time>
      </trkpt>
      <trkpt lat="44.28487" lon="5.67015">
        <ele>938</ele>
        <time>2018-07-17T10:05:00Z</time>
      </trkpt>
      <trkpt lat="44.28487" lon="5.67017">
        <ele>938</ele>
        <time>2018-07-17T10:05:02Z</time>
      </trkpt>
      <trkpt lat="44.28487" lon="5.67019">
        <ele>937</ele>
        <time>2018-07-17T10:05:04Z</time>
      </trkpt>
      <trkpt lat="44.28488" lon="5.67022">
        <ele>936</ele>
        <time>2018-07-17T10:05:06Z</time>
      </trkpt>
      <trkpt lat="44.28488" lon="5.67023">
        <ele>936</ele>
        <time>2018-07-17T10:05:07Z</time>
      </trkpt>
      <trkpt lat="44.28489" lon="5.67026">
        <ele>935</ele>
        <time>2018-07-17T10:05:09Z</time>
      </trkpt>
      <trkpt lat="44.28489" lon="5.67028">
        <ele>935</ele>
        <time>2018-07-17T10:05:11Z</time>
      </trkpt>
      <trkpt lat="44.28489" lon="5.6703">
        <ele>935</ele>
        <time>2018-07-17T10:05:12Z</time>
      </trkpt>
      <trkpt lat="44.2849" lon="5.67032">
        <ele>935</ele>
        <time>2018-07-17T10:05:14Z</time>
      </trkpt>
      <trkpt lat="44.2849" lon="5.67034">
        <ele>935</ele>
        <time>2018-07-17T10:05:15Z</time>
      </trkpt>
      <trkpt lat="44.28491" lon="5.67036">
        <ele>935</ele>
        <time>2018-07-17T10:05:17Z</time>
      </trkpt>
      <trkpt lat="44.28492" lon="5.67038">
        <ele>935</ele>
        <time>2018-07-17T10:05:19Z</time>
      </trkpt>
      <trkpt lat="44.28492" lon="5.67041">
        <ele>935</ele>
        <time>2018-07-17T10:05:21Z</time>
      </trkpt>
      <trkpt lat="44.28493" lon="5.67043">
        <ele>935</ele>
        <time>2018-07-17T10:05:23Z</time>
      </trkpt>
      <trkpt lat="44.28494" lon="5.67045">
        <ele>935</ele>
        <time>2018-07-17T10:05:24Z</time>
      </trkpt>
      <trkpt lat="44.28496" lon="5.67048">
        <ele>935</ele>
        <time>2018-07-17T10:05:26Z</time>
      </trkpt>
      <trkpt lat="44.28497" lon="5.6705">
        <ele>934</ele>
        <time>2018-07-17T10:05:28Z</time>
      </trkpt>
      <trkpt lat="44.28497" lon="5.67052">
        <ele>934</ele>
        <time>2018-07-17T10:05:30Z</time>
      </trkpt>
      <trkpt lat="44.28498" lon="5.67054">
        <ele>934</ele>
        <time>2018-07-17T10:05:31Z</time>
      </trkpt>
      <trkpt lat="44.285" lon="5.67055">
        <ele>934</ele>
        <time>2018-07-17T10:05:32Z</time>
      </trkpt>
      <trkpt lat="44.28501" lon="5.67056">
        <ele>934</ele>
        <time>2018-07-17T10:05:33Z</time>
      </trkpt>
      <trkpt lat="44.28502" lon="5.67058">
        <ele>934</ele>
        <time>2018-07-17T10:05:35Z</time>
      </trkpt>
      <trkpt lat="44.28505" lon="5.67059">
        <ele>934</ele>
        <time>2018-07-17T10:05:37Z</time>
      </trkpt>
      <trkpt lat="44.28505" lon="5.67061">
        <ele>934</ele>
        <time>2018-07-17T10:05:39Z</time>
      </trkpt>
      <trkpt lat="44.28504" lon="5.67062">
        <ele>934</ele>
        <time>2018-07-17T10:05:45Z</time>
      </trkpt>
      <trkpt lat="44.28505" lon="5.67062">
        <ele>934</ele>
        <time>2018-07-17T10:05:57Z</time>
      </trkpt>
      <trkpt lat="44.28506" lon="5.67063">
        <ele>934</ele>
        <time>2018-07-17T10:05:59Z</time>
      </trkpt>
      <trkpt lat="44.28507" lon="5.67065">
        <ele>934</ele>
        <time>2018-07-17T10:06:01Z</time>
      </trkpt>
      <trkpt lat="44.28507" lon="5.67067">
        <ele>934</ele>
        <time>2018-07-17T10:06:03Z</time>
      </trkpt>
      <trkpt lat="44.28508" lon="5.6707">
        <ele>934</ele>
        <time>2018-07-17T10:06:05Z</time>
      </trkpt>
      <trkpt lat="44.28509" lon="5.67072">
        <ele>934</ele>
        <time>2018-07-17T10:06:07Z</time>
      </trkpt>
      <trkpt lat="44.28509" lon="5.67074">
        <ele>934</ele>
        <time>2018-07-17T10:06:09Z</time>
      </trkpt>
      <trkpt lat="44.2851" lon="5.67075">
        <ele>934</ele>
        <time>2018-07-17T10:06:11Z</time>
      </trkpt>
      <trkpt lat="44.28511" lon="5.67077">
        <ele>934</ele>
        <time>2018-07-17T10:06:13Z</time>
      </trkpt>
      <trkpt lat="44.28512" lon="5.67078">
        <ele>934</ele>
        <time>2018-07-17T10:06:14Z</time>
      </trkpt>
      <trkpt lat="44.28513" lon="5.6708">
        <ele>934</ele>
        <time>2018-07-17T10:06:16Z</time>
      </trkpt>
      <trkpt lat="44.28514" lon="5.67081">
        <ele>934</ele>
        <time>2018-07-17T10:06:18Z</time>
      </trkpt>
      <trkpt lat="44.28515" lon="5.67083">
        <ele>934</ele>
        <time>2018-07-17T10:06:20Z</time>
      </trkpt>
      <trkpt lat="44.28516" lon="5.67085">
        <ele>934</ele>
        <time>2018-07-17T10:06:22Z</time>
      </trkpt>
      <trkpt lat="44.28516" lon="5.67087">
        <ele>934</ele>
        <time>2018-07-17T10:06:24Z</time>
      </trkpt>
      <trkpt lat="44.28517" lon="5.67088">
        <ele>934</ele>
        <time>2018-07-17T10:06:26Z</time>
      </trkpt>
      <trkpt lat="44.28517" lon="5.67089">
        <ele>934</ele>
        <time>2018-07-17T10:06:28Z</time>
      </trkpt>
      <trkpt lat="44.28518" lon="5.6709">
        <ele>934</ele>
        <time>2018-07-17T10:06:31Z</time>
      </trkpt>
      <trkpt lat="44.28519" lon="5.67092">
        <ele>934</ele>
        <time>2018-07-17T10:06:37Z</time>
      </trkpt>
      <trkpt lat="44.2852" lon="5.67093">
        <ele>934</ele>
        <time>2018-07-17T10:06:41Z</time>
      </trkpt>
      <trkpt lat="44.28521" lon="5.67095">
        <ele>934</ele>
        <time>2018-07-17T10:06:43Z</time>
      </trkpt>
      <trkpt lat="44.28522" lon="5.67097">
        <ele>934</ele>
        <time>2018-07-17T10:06:45Z</time>
      </trkpt>
      <trkpt lat="44.28524" lon="5.67098">
        <ele>934</ele>
        <time>2018-07-17T10:06:47Z</time>
      </trkpt>
      <trkpt lat="44.28524" lon="5.671">
        <ele>934</ele>
        <time>2018-07-17T10:06:49Z</time>
      </trkpt>
      <trkpt lat="44.28526" lon="5.67101">
        <ele>934</ele>
        <time>2018-07-17T10:06:52Z</time>
      </trkpt>
      <trkpt lat="44.28527" lon="5.67103">
        <ele>934</ele>
        <time>2018-07-17T10:06:53Z</time>
      </trkpt>
      <trkpt lat="44.28529" lon="5.67104">
        <ele>934</ele>
        <time>2018-07-17T10:06:55Z</time>
      </trkpt>
      <trkpt lat="44.2853" lon="5.67105">
        <ele>934</ele>
        <time>2018-07-17T10:06:57Z</time>
      </trkpt>
      <trkpt lat="44.28531" lon="5.67107">
        <ele>934</ele>
        <time>2018-07-17T10:06:59Z</time>
      </trkpt>
      <trkpt lat="44.28532" lon="5.67109">
        <ele>934</ele>
        <time>2018-07-17T10:07:01Z</time>
      </trkpt>
      <trkpt lat="44.28534" lon="5.67111">
        <ele>934</ele>
        <time>2018-07-17T10:07:03Z</time>
      </trkpt>
      <trkpt lat="44.28535" lon="5.67113">
        <ele>934</ele>
        <time>2018-07-17T10:07:05Z</time>
      </trkpt>
      <trkpt lat="44.28537" lon="5.67115">
        <ele>934</ele>
        <time>2018-07-17T10:07:07Z</time>
      </trkpt>
      <trkpt lat="44.28537" lon="5.67117">
        <ele>934</ele>
        <time>2018-07-17T10:07:09Z</time>
      </trkpt>
      <trkpt lat="44.28538" lon="5.67119">
        <ele>934</ele>
        <time>2018-07-17T10:07:10Z</time>
      </trkpt>
      <trkpt lat="44.28538" lon="5.6712">
        <ele>934</ele>
        <time>2018-07-17T10:07:11Z</time>
      </trkpt>
      <trkpt lat="44.28539" lon="5.67122">
        <ele>934</ele>
        <time>2018-07-17T10:07:12Z</time>
      </trkpt>
      <trkpt lat="44.2854" lon="5.67123">
        <ele>934</ele>
        <time>2018-07-17T10:07:13Z</time>
      </trkpt>
      <trkpt lat="44.2854" lon="5.67125">
        <ele>934</ele>
        <time>2018-07-17T10:07:14Z</time>
      </trkpt>
      <trkpt lat="44.2854" lon="5.67127">
        <ele>934</ele>
        <time>2018-07-17T10:07:15Z</time>
      </trkpt>
      <trkpt lat="44.28539" lon="5.67129">
        <ele>934</ele>
        <time>2018-07-17T10:07:16Z</time>
      </trkpt>
      <trkpt lat="44.28537" lon="5.67132">
        <ele>934</ele>
        <time>2018-07-17T10:07:18Z</time>
      </trkpt>
      <trkpt lat="44.28536" lon="5.67134">
        <ele>934</ele>
        <time>2018-07-17T10:07:20Z</time>
      </trkpt>
      <trkpt lat="44.28536" lon="5.67136">
        <ele>934</ele>
        <time>2018-07-17T10:07:21Z</time>
      </trkpt>
      <trkpt lat="44.28535" lon="5.67137">
        <ele>934</ele>
        <time>2018-07-17T10:07:22Z</time>
      </trkpt>
      <trkpt lat="44.28535" lon="5.67139">
        <ele>933</ele>
        <time>2018-07-17T10:07:23Z</time>
      </trkpt>
      <trkpt lat="44.28535" lon="5.6714">
        <ele>933</ele>
        <time>2018-07-17T10:07:24Z</time>
      </trkpt>
      <trkpt lat="44.28535" lon="5.67142">
        <ele>933</ele>
        <time>2018-07-17T10:07:25Z</time>
      </trkpt>
      <trkpt lat="44.28536" lon="5.67144">
        <ele>932</ele>
        <time>2018-07-17T10:07:27Z</time>
      </trkpt>
      <trkpt lat="44.28538" lon="5.67147">
        <ele>931</ele>
        <time>2018-07-17T10:07:29Z</time>
      </trkpt>
      <trkpt lat="44.2854" lon="5.67148">
        <ele>930</ele>
        <time>2018-07-17T10:07:31Z</time>
      </trkpt>
      <trkpt lat="44.28541" lon="5.6715">
        <ele>929</ele>
        <time>2018-07-17T10:07:33Z</time>
      </trkpt>
      <trkpt lat="44.28541" lon="5.67152">
        <ele>929</ele>
        <time>2018-07-17T10:07:35Z</time>
      </trkpt>
      <trkpt lat="44.28543" lon="5.67153">
        <ele>929</ele>
        <time>2018-07-17T10:07:37Z</time>
      </trkpt>
      <trkpt lat="44.28544" lon="5.67155">
        <ele>929</ele>
        <time>2018-07-17T10:07:39Z</time>
      </trkpt>
      <trkpt lat="44.28546" lon="5.67156">
        <ele>929</ele>
        <time>2018-07-17T10:07:41Z</time>
      </trkpt>
      <trkpt lat="44.28547" lon="5.67157">
        <ele>929</ele>
        <time>2018-07-17T10:07:43Z</time>
      </trkpt>
      <trkpt lat="44.28549" lon="5.67158">
        <ele>929</ele>
        <time>2018-07-17T10:07:45Z</time>
      </trkpt>
      <trkpt lat="44.28551" lon="5.6716">
        <ele>929</ele>
        <time>2018-07-17T10:07:48Z</time>
      </trkpt>
      <trkpt lat="44.28552" lon="5.67161">
        <ele>929</ele>
        <time>2018-07-17T10:07:49Z</time>
      </trkpt>
      <trkpt lat="44.28556" lon="5.67162">
        <ele>929</ele>
        <time>2018-07-17T10:07:50Z</time>
      </trkpt>
      <trkpt lat="44.28556" lon="5.67164">
        <ele>929</ele>
        <time>2018-07-17T10:07:54Z</time>
      </trkpt>
      <trkpt lat="44.28558" lon="5.67165">
        <ele>928</ele>
        <time>2018-07-17T10:07:57Z</time>
      </trkpt>
      <trkpt lat="44.2856" lon="5.67166">
        <ele>927</ele>
        <time>2018-07-17T10:07:59Z</time>
      </trkpt>
      <trkpt lat="44.28561" lon="5.67168">
        <ele>927</ele>
        <time>2018-07-17T10:08:01Z</time>
      </trkpt>
      <trkpt lat="44.28563" lon="5.67169">
        <ele>927</ele>
        <time>2018-07-17T10:08:02Z</time>
      </trkpt>
      <trkpt lat="44.28565" lon="5.6717">
        <ele>927</ele>
        <time>2018-07-17T10:08:04Z</time>
      </trkpt>
      <trkpt lat="44.28567" lon="5.67172">
        <ele>927</ele>
        <time>2018-07-17T10:08:06Z</time>
      </trkpt>
      <trkpt lat="44.28568" lon="5.67174">
        <ele>927</ele>
        <time>2018-07-17T10:08:08Z</time>
      </trkpt>
      <trkpt lat="44.28569" lon="5.67176">
        <ele>927</ele>
        <time>2018-07-17T10:08:10Z</time>
      </trkpt>
      <trkpt lat="44.28571" lon="5.67177">
        <ele>927</ele>
        <time>2018-07-17T10:08:12Z</time>
      </trkpt>
      <trkpt lat="44.28573" lon="5.67179">
        <ele>927</ele>
        <time>2018-07-17T10:08:14Z</time>
      </trkpt>
      <trkpt lat="44.28574" lon="5.6718">
        <ele>927</ele>
        <time>2018-07-17T10:08:15Z</time>
      </trkpt>
      <trkpt lat="44.28576" lon="5.67181">
        <ele>927</ele>
        <time>2018-07-17T10:08:17Z</time>
      </trkpt>
      <trkpt lat="44.28577" lon="5.67183">
        <ele>927</ele>
        <time>2018-07-17T10:08:20Z</time>
      </trkpt>
      <trkpt lat="44.28578" lon="5.67186">
        <ele>927</ele>
        <time>2018-07-17T10:08:22Z</time>
      </trkpt>
      <trkpt lat="44.2858" lon="5.67188">
        <ele>927</ele>
        <time>2018-07-17T10:08:24Z</time>
      </trkpt>
      <trkpt lat="44.28581" lon="5.67191">
        <ele>927</ele>
        <time>2018-07-17T10:08:26Z</time>
      </trkpt>
      <trkpt lat="44.28583" lon="5.67192">
        <ele>927</ele>
        <time>2018-07-17T10:08:27Z</time>
      </trkpt>
      <trkpt lat="44.28584" lon="5.67194">
        <ele>927</ele>
        <time>2018-07-17T10:08:28Z</time>
      </trkpt>
      <trkpt lat="44.28585" lon="5.67195">
        <ele>927</ele>
        <time>2018-07-17T10:08:29Z</time>
      </trkpt>
      <trkpt lat="44.28587" lon="5.67197">
        <ele>927</ele>
        <time>2018-07-17T10:08:31Z</time>
      </trkpt>
      <trkpt lat="44.28588" lon="5.67199">
        <ele>927</ele>
        <time>2018-07-17T10:08:33Z</time>
      </trkpt>
      <trkpt lat="44.2859" lon="5.67202">
        <ele>927</ele>
        <time>2018-07-17T10:08:35Z</time>
      </trkpt>
      <trkpt lat="44.28592" lon="5.67204">
        <ele>927</ele>
        <time>2018-07-17T10:08:37Z</time>
      </trkpt>
      <trkpt lat="44.28594" lon="5.67206">
        <ele>927</ele>
        <time>2018-07-17T10:08:39Z</time>
      </trkpt>
      <trkpt lat="44.28595" lon="5.67208">
        <ele>927</ele>
        <time>2018-07-17T10:08:40Z</time>
      </trkpt>
      <trkpt lat="44.28596" lon="5.67209">
        <ele>927</ele>
        <time>2018-07-17T10:08:42Z</time>
      </trkpt>
      <trkpt lat="44.28597" lon="5.67211">
        <ele>927</ele>
        <time>2018-07-17T10:08:44Z</time>
      </trkpt>
      <trkpt lat="44.28598" lon="5.67212">
        <ele>927</ele>
        <time>2018-07-17T10:08:45Z</time>
      </trkpt>
      <trkpt lat="44.286" lon="5.67214">
        <ele>927</ele>
        <time>2018-07-17T10:08:47Z</time>
      </trkpt>
      <trkpt lat="44.28601" lon="5.67216">
        <ele>927</ele>
        <time>2018-07-17T10:08:49Z</time>
      </trkpt>
      <trkpt lat="44.28602" lon="5.67218">
        <ele>927</ele>
        <time>2018-07-17T10:08:51Z</time>
      </trkpt>
      <trkpt lat="44.28603" lon="5.67219">
        <ele>927</ele>
        <time>2018-07-17T10:08:56Z</time>
      </trkpt>
      <trkpt lat="44.28603" lon="5.6722">
        <ele>927</ele>
        <time>2018-07-17T10:09:06Z</time>
      </trkpt>
      <trkpt lat="44.28603" lon="5.67218">
        <ele>924</ele>
        <time>2018-07-17T10:09:12Z</time>
      </trkpt>
      <trkpt lat="44.28603" lon="5.6722">
        <ele>920</ele>
        <time>2018-07-17T10:09:20Z</time>
      </trkpt>
      <trkpt lat="44.28601" lon="5.67219">
        <ele>920</ele>
        <time>2018-07-17T10:09:23Z</time>
      </trkpt>
      <trkpt lat="44.286" lon="5.67218">
        <ele>920</ele>
        <time>2018-07-17T10:09:24Z</time>
      </trkpt>
      <trkpt lat="44.28597" lon="5.67217">
        <ele>919</ele>
        <time>2018-07-17T10:09:26Z</time>
      </trkpt>
      <trkpt lat="44.28596" lon="5.67216">
        <ele>918</ele>
        <time>2018-07-17T10:09:27Z</time>
      </trkpt>
      <trkpt lat="44.28598" lon="5.67217">
        <ele>916</ele>
        <time>2018-07-17T10:09:32Z</time>
      </trkpt>
      <trkpt lat="44.286" lon="5.67218">
        <ele>916</ele>
        <time>2018-07-17T10:09:33Z</time>
      </trkpt>
      <trkpt lat="44.28602" lon="5.67219">
        <ele>916</ele>
        <time>2018-07-17T10:09:34Z</time>
      </trkpt>
      <trkpt lat="44.28604" lon="5.6722">
        <ele>916</ele>
        <time>2018-07-17T10:09:35Z</time>
      </trkpt>
      <trkpt lat="44.28606" lon="5.67221">
        <ele>916</ele>
        <time>2018-07-17T10:09:36Z</time>
      </trkpt>
      <trkpt lat="44.28607" lon="5.67222">
        <ele>917</ele>
        <time>2018-07-17T10:09:37Z</time>
      </trkpt>
      <trkpt lat="44.28609" lon="5.67223">
        <ele>918</ele>
        <time>2018-07-17T10:09:39Z</time>
      </trkpt>
      <trkpt lat="44.2861" lon="5.67224">
        <ele>918</ele>
        <time>2018-07-17T10:09:40Z</time>
      </trkpt>
      <trkpt lat="44.28611" lon="5.67227">
        <ele>919</ele>
        <time>2018-07-17T10:09:42Z</time>
      </trkpt>
      <trkpt lat="44.28611" lon="5.67228">
        <ele>919</ele>
        <time>2018-07-17T10:09:43Z</time>
      </trkpt>
      <trkpt lat="44.28612" lon="5.6723">
        <ele>920</ele>
        <time>2018-07-17T10:09:44Z</time>
      </trkpt>
      <trkpt lat="44.28614" lon="5.67233">
        <ele>920</ele>
        <time>2018-07-17T10:09:46Z</time>
      </trkpt>
      <trkpt lat="44.28614" lon="5.67234">
        <ele>920</ele>
        <time>2018-07-17T10:09:47Z</time>
      </trkpt>
      <trkpt lat="44.28615" lon="5.67236">
        <ele>920</ele>
        <time>2018-07-17T10:09:48Z</time>
      </trkpt>
      <trkpt lat="44.28616" lon="5.67237">
        <ele>920</ele>
        <time>2018-07-17T10:09:49Z</time>
      </trkpt>
      <trkpt lat="44.28616" lon="5.67239">
        <ele>920</ele>
        <time>2018-07-17T10:09:50Z</time>
      </trkpt>
      <trkpt lat="44.28617" lon="5.67241">
        <ele>920</ele>
        <time>2018-07-17T10:09:51Z</time>
      </trkpt>
      <trkpt lat="44.28616" lon="5.67244">
        <ele>920</ele>
        <time>2018-07-17T10:09:53Z</time>
      </trkpt>
      <trkpt lat="44.28616" lon="5.67245">
        <ele>920</ele>
        <time>2018-07-17T10:09:54Z</time>
      </trkpt>
      <trkpt lat="44.28616" lon="5.67247">
        <ele>920</ele>
        <time>2018-07-17T10:09:56Z</time>
      </trkpt>
      <trkpt lat="44.28616" lon="5.67249">
        <ele>920</ele>
        <time>2018-07-17T10:09:58Z</time>
      </trkpt>
      <trkpt lat="44.28616" lon="5.67252">
        <ele>920</ele>
        <time>2018-07-17T10:10:00Z</time>
      </trkpt>
      <trkpt lat="44.28616" lon="5.67254">
        <ele>920</ele>
        <time>2018-07-17T10:10:02Z</time>
      </trkpt>
      <trkpt lat="44.28616" lon="5.67256">
        <ele>920</ele>
        <time>2018-07-17T10:10:03Z</time>
      </trkpt>
      <trkpt lat="44.28617" lon="5.67257">
        <ele>920</ele>
        <time>2018-07-17T10:10:04Z</time>
      </trkpt>
      <trkpt lat="44.28617" lon="5.67259">
        <ele>920</ele>
        <time>2018-07-17T10:10:05Z</time>
      </trkpt>
      <trkpt lat="44.28617" lon="5.67261">
        <ele>920</ele>
        <time>2018-07-17T10:10:06Z</time>
      </trkpt>
      <trkpt lat="44.28618" lon="5.67264">
        <ele>920</ele>
        <time>2018-07-17T10:10:08Z</time>
      </trkpt>
      <trkpt lat="44.28617" lon="5.67265">
        <ele>920</ele>
        <time>2018-07-17T10:10:09Z</time>
      </trkpt>
      <trkpt lat="44.28618" lon="5.67267">
        <ele>920</ele>
        <time>2018-07-17T10:10:10Z</time>
      </trkpt>
      <trkpt lat="44.28619" lon="5.6727">
        <ele>919</ele>
        <time>2018-07-17T10:10:12Z</time>
      </trkpt>
      <trkpt lat="44.28619" lon="5.67272">
        <ele>919</ele>
        <time>2018-07-17T10:10:13Z</time>
      </trkpt>
      <trkpt lat="44.28619" lon="5.67275">
        <ele>918</ele>
        <time>2018-07-17T10:10:15Z</time>
      </trkpt>
      <trkpt lat="44.28619" lon="5.67277">
        <ele>917</ele>
        <time>2018-07-17T10:10:17Z</time>
      </trkpt>
      <trkpt lat="44.2862" lon="5.67279">
        <ele>917</ele>
        <time>2018-07-17T10:10:20Z</time>
      </trkpt>
      <trkpt lat="44.2862" lon="5.67281">
        <ele>917</ele>
        <time>2018-07-17T10:10:21Z</time>
      </trkpt>
      <trkpt lat="44.28621" lon="5.67283">
        <ele>916</ele>
        <time>2018-07-17T10:10:24Z</time>
      </trkpt>
      <trkpt lat="44.2862" lon="5.67285">
        <ele>916</ele>
        <time>2018-07-17T10:10:26Z</time>
      </trkpt>
      <trkpt lat="44.28621" lon="5.67288">
        <ele>916</ele>
        <time>2018-07-17T10:10:28Z</time>
      </trkpt>
      <trkpt lat="44.28621" lon="5.67289">
        <ele>916</ele>
        <time>2018-07-17T10:10:29Z</time>
      </trkpt>
      <trkpt lat="44.28621" lon="5.67291">
        <ele>916</ele>
        <time>2018-07-17T10:10:30Z</time>
      </trkpt>
      <trkpt lat="44.28621" lon="5.67294">
        <ele>916</ele>
        <time>2018-07-17T10:10:32Z</time>
      </trkpt>
      <trkpt lat="44.28621" lon="5.67297">
        <ele>916</ele>
        <time>2018-07-17T10:10:34Z</time>
      </trkpt>
      <trkpt lat="44.28622" lon="5.67299">
        <ele>916</ele>
        <time>2018-07-17T10:10:35Z</time>
      </trkpt>
      <trkpt lat="44.28624" lon="5.67302">
        <ele>916</ele>
        <time>2018-07-17T10:10:37Z</time>
      </trkpt>
      <trkpt lat="44.28624" lon="5.67304">
        <ele>916</ele>
        <time>2018-07-17T10:10:38Z</time>
      </trkpt>
      <trkpt lat="44.28625" lon="5.67305">
        <ele>916</ele>
        <time>2018-07-17T10:10:39Z</time>
      </trkpt>
      <trkpt lat="44.28626" lon="5.67307">
        <ele>916</ele>
        <time>2018-07-17T10:10:40Z</time>
      </trkpt>
      <trkpt lat="44.28627" lon="5.6731">
        <ele>916</ele>
        <time>2018-07-17T10:10:42Z</time>
      </trkpt>
      <trkpt lat="44.28628" lon="5.67311">
        <ele>916</ele>
        <time>2018-07-17T10:10:43Z</time>
      </trkpt>
      <trkpt lat="44.2863" lon="5.67314">
        <ele>916</ele>
        <time>2018-07-17T10:10:45Z</time>
      </trkpt>
      <trkpt lat="44.2863" lon="5.67315">
        <ele>916</ele>
        <time>2018-07-17T10:10:46Z</time>
      </trkpt>
      <trkpt lat="44.28627" lon="5.67317">
        <ele>916</ele>
        <time>2018-07-17T10:10:48Z</time>
      </trkpt>
      <trkpt lat="44.28626" lon="5.67318">
        <ele>916</ele>
        <time>2018-07-17T10:10:51Z</time>
      </trkpt>
      <trkpt lat="44.28624" lon="5.67317">
        <ele>916</ele>
        <time>2018-07-17T10:10:53Z</time>
      </trkpt>
      <trkpt lat="44.28625" lon="5.67315">
        <ele>916</ele>
        <time>2018-07-17T10:10:55Z</time>
      </trkpt>
      <trkpt lat="44.28626" lon="5.67314">
        <ele>916</ele>
        <time>2018-07-17T10:10:57Z</time>
      </trkpt>
      <trkpt lat="44.28627" lon="5.67312">
        <ele>916</ele>
        <time>2018-07-17T10:10:59Z</time>
      </trkpt>
      <trkpt lat="44.28628" lon="5.6731">
        <ele>916</ele>
        <time>2018-07-17T10:11:01Z</time>
      </trkpt>
      <trkpt lat="44.28627" lon="5.67307">
        <ele>916</ele>
        <time>2018-07-17T10:11:03Z</time>
      </trkpt>
      <trkpt lat="44.28627" lon="5.67305">
        <ele>916</ele>
        <time>2018-07-17T10:11:04Z</time>
      </trkpt>
      <trkpt lat="44.28627" lon="5.67303">
        <ele>916</ele>
        <time>2018-07-17T10:11:05Z</time>
      </trkpt>
      <trkpt lat="44.28628" lon="5.67301">
        <ele>916</ele>
        <time>2018-07-17T10:11:06Z</time>
      </trkpt>
      <trkpt lat="44.28629" lon="5.67299">
        <ele>916</ele>
        <time>2018-07-17T10:11:07Z</time>
      </trkpt>
      <trkpt lat="44.2863" lon="5.67297">
        <ele>916</ele>
        <time>2018-07-17T10:11:08Z</time>
      </trkpt>
      <trkpt lat="44.28629" lon="5.67296">
        <ele>916</ele>
        <time>2018-07-17T10:11:09Z</time>
      </trkpt>
      <trkpt lat="44.28629" lon="5.67294">
        <ele>916</ele>
        <time>2018-07-17T10:11:10Z</time>
      </trkpt>
      <trkpt lat="44.28629" lon="5.67292">
        <ele>916</ele>
        <time>2018-07-17T10:11:11Z</time>
      </trkpt>
      <trkpt lat="44.2863" lon="5.67289">
        <ele>916</ele>
        <time>2018-07-17T10:11:13Z</time>
      </trkpt>
      <trkpt lat="44.2863" lon="5.67288">
        <ele>916</ele>
        <time>2018-07-17T10:11:14Z</time>
      </trkpt>
      <trkpt lat="44.2863" lon="5.67286">
        <ele>916</ele>
        <time>2018-07-17T10:11:15Z</time>
      </trkpt>
      <trkpt lat="44.28631" lon="5.67284">
        <ele>916</ele>
        <time>2018-07-17T10:11:17Z</time>
      </trkpt>
      <trkpt lat="44.28631" lon="5.67282">
        <ele>916</ele>
        <time>2018-07-17T10:11:18Z</time>
      </trkpt>
      <trkpt lat="44.28632" lon="5.67281">
        <ele>916</ele>
        <time>2018-07-17T10:11:19Z</time>
      </trkpt>
      <trkpt lat="44.28634" lon="5.67281">
        <ele>916</ele>
        <time>2018-07-17T10:11:20Z</time>
      </trkpt>
      <trkpt lat="44.28636" lon="5.67279">
        <ele>916</ele>
        <time>2018-07-17T10:11:22Z</time>
      </trkpt>
      <trkpt lat="44.28638" lon="5.67277">
        <ele>916</ele>
        <time>2018-07-17T10:11:24Z</time>
      </trkpt>
      <trkpt lat="44.28638" lon="5.67275">
        <ele>915</ele>
        <time>2018-07-17T10:11:26Z</time>
      </trkpt>
      <trkpt lat="44.28638" lon="5.67273">
        <ele>915</ele>
        <time>2018-07-17T10:11:27Z</time>
      </trkpt>
      <trkpt lat="44.28639" lon="5.67271">
        <ele>914</ele>
        <time>2018-07-17T10:11:29Z</time>
      </trkpt>
      <trkpt lat="44.2864" lon="5.67271">
        <ele>914</ele>
        <time>2018-07-17T10:11:30Z</time>
      </trkpt>
      <trkpt lat="44.28641" lon="5.67269">
        <ele>914</ele>
        <time>2018-07-17T10:11:32Z</time>
      </trkpt>
      <trkpt lat="44.28643" lon="5.67268">
        <ele>914</ele>
        <time>2018-07-17T10:11:33Z</time>
      </trkpt>
      <trkpt lat="44.28645" lon="5.67268">
        <ele>914</ele>
        <time>2018-07-17T10:11:35Z</time>
      </trkpt>
      <trkpt lat="44.28647" lon="5.67267">
        <ele>914</ele>
        <time>2018-07-17T10:11:37Z</time>
      </trkpt>
      <trkpt lat="44.28649" lon="5.67265">
        <ele>914</ele>
        <time>2018-07-17T10:11:39Z</time>
      </trkpt>
      <trkpt lat="44.28651" lon="5.67264">
        <ele>914</ele>
        <time>2018-07-17T10:11:41Z</time>
      </trkpt>
      <trkpt lat="44.28652" lon="5.67263">
        <ele>914</ele>
        <time>2018-07-17T10:11:42Z</time>
      </trkpt>
      <trkpt lat="44.28653" lon="5.67262">
        <ele>914</ele>
        <time>2018-07-17T10:11:43Z</time>
      </trkpt>
      <trkpt lat="44.28655" lon="5.67262">
        <ele>914</ele>
        <time>2018-07-17T10:11:44Z</time>
      </trkpt>
      <trkpt lat="44.28656" lon="5.67262">
        <ele>914</ele>
        <time>2018-07-17T10:11:45Z</time>
      </trkpt>
      <trkpt lat="44.28658" lon="5.67262">
        <ele>914</ele>
        <time>2018-07-17T10:11:46Z</time>
      </trkpt>
      <trkpt lat="44.2866" lon="5.6726">
        <ele>914</ele>
        <time>2018-07-17T10:11:48Z</time>
      </trkpt>
      <trkpt lat="44.28661" lon="5.67259">
        <ele>914</ele>
        <time>2018-07-17T10:11:50Z</time>
      </trkpt>
      <trkpt lat="44.28662" lon="5.67259">
        <ele>914</ele>
        <time>2018-07-17T10:11:51Z</time>
      </trkpt>
      <trkpt lat="44.28664" lon="5.67259">
        <ele>914</ele>
        <time>2018-07-17T10:11:52Z</time>
      </trkpt>
      <trkpt lat="44.28666" lon="5.67259">
        <ele>913</ele>
        <time>2018-07-17T10:11:53Z</time>
      </trkpt>
      <trkpt lat="44.28667" lon="5.67259">
        <ele>913</ele>
        <time>2018-07-17T10:11:54Z</time>
      </trkpt>
      <trkpt lat="44.28669" lon="5.67259">
        <ele>913</ele>
        <time>2018-07-17T10:11:55Z</time>
      </trkpt>
      <trkpt lat="44.28671" lon="5.67259">
        <ele>912</ele>
        <time>2018-07-17T10:11:56Z</time>
      </trkpt>
      <trkpt lat="44.28672" lon="5.67258">
        <ele>911</ele>
        <time>2018-07-17T10:11:58Z</time>
      </trkpt>
      <trkpt lat="44.28673" lon="5.67256">
        <ele>911</ele>
        <time>2018-07-17T10:12:00Z</time>
      </trkpt>
      <trkpt lat="44.28674" lon="5.67254">
        <ele>911</ele>
        <time>2018-07-17T10:12:02Z</time>
      </trkpt>
      <trkpt lat="44.28675" lon="5.67253">
        <ele>911</ele>
        <time>2018-07-17T10:12:03Z</time>
      </trkpt>
      <trkpt lat="44.28677" lon="5.67251">
        <ele>911</ele>
        <time>2018-07-17T10:12:05Z</time>
      </trkpt>
      <trkpt lat="44.28679" lon="5.67249">
        <ele>911</ele>
        <time>2018-07-17T10:12:07Z</time>
      </trkpt>
      <trkpt lat="44.2868" lon="5.67249">
        <ele>911</ele>
        <time>2018-07-17T10:12:08Z</time>
      </trkpt>
      <trkpt lat="44.28681" lon="5.67249">
        <ele>911</ele>
        <time>2018-07-17T10:12:09Z</time>
      </trkpt>
      <trkpt lat="44.28683" lon="5.67247">
        <ele>911</ele>
        <time>2018-07-17T10:12:12Z</time>
      </trkpt>
      <trkpt lat="44.28685" lon="5.67247">
        <ele>911</ele>
        <time>2018-07-17T10:12:13Z</time>
      </trkpt>
      <trkpt lat="44.28687" lon="5.67246">
        <ele>912</ele>
        <time>2018-07-17T10:12:14Z</time>
      </trkpt>
      <trkpt lat="44.28689" lon="5.67245">
        <ele>913</ele>
        <time>2018-07-17T10:12:16Z</time>
      </trkpt>
      <trkpt lat="44.2869" lon="5.67245">
        <ele>913</ele>
        <time>2018-07-17T10:12:17Z</time>
      </trkpt>
      <trkpt lat="44.28692" lon="5.67243">
        <ele>915</ele>
        <time>2018-07-17T10:12:20Z</time>
      </trkpt>
      <trkpt lat="44.28694" lon="5.67242">
        <ele>916</ele>
        <time>2018-07-17T10:12:22Z</time>
      </trkpt>
      <trkpt lat="44.28695" lon="5.6724">
        <ele>918</ele>
        <time>2018-07-17T10:12:25Z</time>
      </trkpt>
      <trkpt lat="44.28696" lon="5.6724">
        <ele>918</ele>
        <time>2018-07-17T10:12:26Z</time>
      </trkpt>
      <trkpt lat="44.28698" lon="5.67239">
        <ele>919</ele>
        <time>2018-07-17T10:12:27Z</time>
      </trkpt>
      <trkpt lat="44.287" lon="5.67238">
        <ele>920</ele>
        <time>2018-07-17T10:12:28Z</time>
      </trkpt>
      <trkpt lat="44.28701" lon="5.67237">
        <ele>922</ele>
        <time>2018-07-17T10:12:30Z</time>
      </trkpt>
      <trkpt lat="44.28703" lon="5.67236">
        <ele>926</ele>
        <time>2018-07-17T10:12:34Z</time>
      </trkpt>
      <trkpt lat="44.28704" lon="5.67235">
        <ele>926</ele>
        <time>2018-07-17T10:12:38Z</time>
      </trkpt>
      <trkpt lat="44.28705" lon="5.67236">
        <ele>926</ele>
        <time>2018-07-17T10:12:40Z</time>
      </trkpt>
      <trkpt lat="44.28706" lon="5.67236">
        <ele>926</ele>
        <time>2018-07-17T10:12:41Z</time>
      </trkpt>
      <trkpt lat="44.28708" lon="5.67237">
        <ele>926</ele>
        <time>2018-07-17T10:12:43Z</time>
      </trkpt>
      <trkpt lat="44.2871" lon="5.67238">
        <ele>926</ele>
        <time>2018-07-17T10:12:45Z</time>
      </trkpt>
      <trkpt lat="44.28711" lon="5.67239">
        <ele>926</ele>
        <time>2018-07-17T10:12:46Z</time>
      </trkpt>
      <trkpt lat="44.28713" lon="5.6724">
        <ele>926</ele>
        <time>2018-07-17T10:12:47Z</time>
      </trkpt>
      <trkpt lat="44.28715" lon="5.6724">
        <ele>926</ele>
        <time>2018-07-17T10:12:48Z</time>
      </trkpt>
      <trkpt lat="44.28717" lon="5.67242">
        <ele>926</ele>
        <time>2018-07-17T10:12:49Z</time>
      </trkpt>
      <trkpt lat="44.28718" lon="5.67243">
        <ele>926</ele>
        <time>2018-07-17T10:12:50Z</time>
      </trkpt>
      <trkpt lat="44.2872" lon="5.67244">
        <ele>925</ele>
        <time>2018-07-17T10:12:51Z</time>
      </trkpt>
      <trkpt lat="44.28721" lon="5.67245">
        <ele>925</ele>
        <time>2018-07-17T10:12:52Z</time>
      </trkpt>
      <trkpt lat="44.28722" lon="5.67246">
        <ele>924</ele>
        <time>2018-07-17T10:12:53Z</time>
      </trkpt>
      <trkpt lat="44.28725" lon="5.67247">
        <ele>924</ele>
        <time>2018-07-17T10:12:55Z</time>
      </trkpt>
      <trkpt lat="44.28726" lon="5.67249">
        <ele>924</ele>
        <time>2018-07-17T10:12:57Z</time>
      </trkpt>
      <trkpt lat="44.28728" lon="5.6725">
        <ele>924</ele>
        <time>2018-07-17T10:12:58Z</time>
      </trkpt>
      <trkpt lat="44.28729" lon="5.67251">
        <ele>924</ele>
        <time>2018-07-17T10:13:02Z</time>
      </trkpt>
      <trkpt lat="44.28727" lon="5.67249">
        <ele>924</ele>
        <time>2018-07-17T10:13:05Z</time>
      </trkpt>
      <trkpt lat="44.28729" lon="5.67249">
        <ele>924</ele>
        <time>2018-07-17T10:13:08Z</time>
      </trkpt>
      <trkpt lat="44.2873" lon="5.6725">
        <ele>924</ele>
        <time>2018-07-17T10:13:10Z</time>
      </trkpt>
      <trkpt lat="44.28732" lon="5.67251">
        <ele>924</ele>
        <time>2018-07-17T10:13:12Z</time>
      </trkpt>
      <trkpt lat="44.28734" lon="5.67253">
        <ele>924</ele>
        <time>2018-07-17T10:13:14Z</time>
      </trkpt>
      <trkpt lat="44.28732" lon="5.67254">
        <ele>922</ele>
        <time>2018-07-17T10:13:16Z</time>
      </trkpt>
      <trkpt lat="44.28733" lon="5.67256">
        <ele>919</ele>
        <time>2018-07-17T10:13:21Z</time>
      </trkpt>
      <trkpt lat="44.28734" lon="5.67257">
        <ele>918</ele>
        <time>2018-07-17T10:13:24Z</time>
      </trkpt>
      <trkpt lat="44.28735" lon="5.67258">
        <ele>918</ele>
        <time>2018-07-17T10:13:26Z</time>
      </trkpt>
      <trkpt lat="44.28735" lon="5.67256">
        <ele>918</ele>
        <time>2018-07-17T10:13:29Z</time>
      </trkpt>
      <trkpt lat="44.28732" lon="5.67253">
        <ele>918</ele>
        <time>2018-07-17T10:13:30Z</time>
      </trkpt>
      <trkpt lat="44.28731" lon="5.67251">
        <ele>918</ele>
        <time>2018-07-17T10:13:31Z</time>
      </trkpt>
      <trkpt lat="44.28729" lon="5.67249">
        <ele>918</ele>
        <time>2018-07-17T10:13:33Z</time>
      </trkpt>
      <trkpt lat="44.28728" lon="5.67247">
        <ele>918</ele>
        <time>2018-07-17T10:13:34Z</time>
      </trkpt>
      <trkpt lat="44.28726" lon="5.67243">
        <ele>918</ele>
        <time>2018-07-17T10:13:35Z</time>
      </trkpt>
      <trkpt lat="44.28725" lon="5.6724">
        <ele>918</ele>
        <time>2018-07-17T10:13:36Z</time>
      </trkpt>
      <trkpt lat="44.28727" lon="5.67238">
        <ele>919</ele>
        <time>2018-07-17T10:13:38Z</time>
      </trkpt>
      <trkpt lat="44.28728" lon="5.67236">
        <ele>921</ele>
        <time>2018-07-17T10:13:40Z</time>
      </trkpt>
      <trkpt lat="44.28728" lon="5.67235">
        <ele>922</ele>
        <time>2018-07-17T10:13:41Z</time>
      </trkpt>
      <trkpt lat="44.28727" lon="5.67232">
        <ele>923</ele>
        <time>2018-07-17T10:13:42Z</time>
      </trkpt>
      <trkpt lat="44.28728" lon="5.6723">
        <ele>925</ele>
        <time>2018-07-17T10:13:44Z</time>
      </trkpt>
      <trkpt lat="44.28728" lon="5.67229">
        <ele>927</ele>
        <time>2018-07-17T10:13:46Z</time>
      </trkpt>
      <trkpt lat="44.28729" lon="5.67228">
        <ele>928</ele>
        <time>2018-07-17T10:13:47Z</time>
      </trkpt>
      <trkpt lat="44.28731" lon="5.67227">
        <ele>929</ele>
        <time>2018-07-17T10:13:51Z</time>
      </trkpt>
      <trkpt lat="44.28731" lon="5.67225">
        <ele>929</ele>
        <time>2018-07-17T10:13:53Z</time>
      </trkpt>
      <trkpt lat="44.28732" lon="5.67226">
        <ele>929</ele>
        <time>2018-07-17T10:13:54Z</time>
      </trkpt>
      <trkpt lat="44.28733" lon="5.67224">
        <ele>929</ele>
        <time>2018-07-17T10:13:56Z</time>
      </trkpt>
      <trkpt lat="44.28733" lon="5.67222">
        <ele>929</ele>
        <time>2018-07-17T10:13:57Z</time>
      </trkpt>
      <trkpt lat="44.28731" lon="5.67221">
        <ele>929</ele>
        <time>2018-07-17T10:13:58Z</time>
      </trkpt>
      <trkpt lat="44.28732" lon="5.6722">
        <ele>929</ele>
        <time>2018-07-17T10:13:59Z</time>
      </trkpt>
      <trkpt lat="44.28731" lon="5.67218">
        <ele>930</ele>
        <time>2018-07-17T10:14:00Z</time>
      </trkpt>
      <trkpt lat="44.28733" lon="5.67218">
        <ele>930</ele>
        <time>2018-07-17T10:14:01Z</time>
      </trkpt>
      <trkpt lat="44.28736" lon="5.67218">
        <ele>931</ele>
        <time>2018-07-17T10:14:03Z</time>
      </trkpt>
      <trkpt lat="44.28739" lon="5.67219">
        <ele>932</ele>
        <time>2018-07-17T10:14:04Z</time>
      </trkpt>
      <trkpt lat="44.28741" lon="5.67219">
        <ele>932</ele>
        <time>2018-07-17T10:14:05Z</time>
      </trkpt>
      <trkpt lat="44.28743" lon="5.67219">
        <ele>933</ele>
        <time>2018-07-17T10:14:06Z</time>
      </trkpt>
      <trkpt lat="44.28744" lon="5.6722">
        <ele>934</ele>
        <time>2018-07-17T10:14:08Z</time>
      </trkpt>
      <trkpt lat="44.28745" lon="5.67222">
        <ele>934</ele>
        <time>2018-07-17T10:14:10Z</time>
      </trkpt>
      <trkpt lat="44.28743" lon="5.67224">
        <ele>934</ele>
        <time>2018-07-17T10:14:12Z</time>
      </trkpt>
      <trkpt lat="44.2874" lon="5.67223">
        <ele>934</ele>
        <time>2018-07-17T10:14:13Z</time>
      </trkpt>
      <trkpt lat="44.28742" lon="5.67225">
        <ele>934</ele>
        <time>2018-07-17T10:14:14Z</time>
      </trkpt>
      <trkpt lat="44.28743" lon="5.67226">
        <ele>934</ele>
        <time>2018-07-17T10:14:15Z</time>
      </trkpt>
      <trkpt lat="44.28745" lon="5.67229">
        <ele>934</ele>
        <time>2018-07-17T10:14:16Z</time>
      </trkpt>
      <trkpt lat="44.28747" lon="5.67229">
        <ele>934</ele>
        <time>2018-07-17T10:14:21Z</time>
      </trkpt>
      <trkpt lat="44.28748" lon="5.67229">
        <ele>933</ele>
        <time>2018-07-17T10:14:24Z</time>
      </trkpt>
      <trkpt lat="44.2875" lon="5.67231">
        <ele>932</ele>
        <time>2018-07-17T10:14:25Z</time>
      </trkpt>
      <trkpt lat="44.28752" lon="5.67232">
        <ele>931</ele>
        <time>2018-07-17T10:14:26Z</time>
      </trkpt>
      <trkpt lat="44.28754" lon="5.67233">
        <ele>930</ele>
        <time>2018-07-17T10:14:28Z</time>
      </trkpt>
      <trkpt lat="44.28755" lon="5.67233">
        <ele>929</ele>
        <time>2018-07-17T10:14:29Z</time>
      </trkpt>
      <trkpt lat="44.28756" lon="5.67235">
        <ele>928</ele>
        <time>2018-07-17T10:14:32Z</time>
      </trkpt>
      <trkpt lat="44.28758" lon="5.67235">
        <ele>927</ele>
        <time>2018-07-17T10:14:34Z</time>
      </trkpt>
      <trkpt lat="44.28759" lon="5.67235">
        <ele>926</ele>
        <time>2018-07-17T10:14:35Z</time>
      </trkpt>
      <trkpt lat="44.28759" lon="5.67234">
        <ele>925</ele>
        <time>2018-07-17T10:14:36Z</time>
      </trkpt>
      <trkpt lat="44.2876" lon="5.67235">
        <ele>922</ele>
        <time>2018-07-17T10:14:39Z</time>
      </trkpt>
      <trkpt lat="44.28758" lon="5.67233">
        <ele>921</ele>
        <time>2018-07-17T10:14:42Z</time>
      </trkpt>
      <trkpt lat="44.28755" lon="5.67231">
        <ele>921</ele>
        <time>2018-07-17T10:14:44Z</time>
      </trkpt>
      <trkpt lat="44.28754" lon="5.67231">
        <ele>921</ele>
        <time>2018-07-17T10:14:46Z</time>
      </trkpt>
      <trkpt lat="44.28754" lon="5.67233">
        <ele>921</ele>
        <time>2018-07-17T10:14:47Z</time>
      </trkpt>
      <trkpt lat="44.28756" lon="5.67234">
        <ele>921</ele>
        <time>2018-07-17T10:14:48Z</time>
      </trkpt>
      <trkpt lat="44.28757" lon="5.67237">
        <ele>921</ele>
        <time>2018-07-17T10:14:49Z</time>
      </trkpt>
      <trkpt lat="44.2876" lon="5.6724">
        <ele>921</ele>
        <time>2018-07-17T10:14:50Z</time>
      </trkpt>
      <trkpt lat="44.28764" lon="5.67242">
        <ele>921</ele>
        <time>2018-07-17T10:14:51Z</time>
      </trkpt>
      <trkpt lat="44.28767" lon="5.67243">
        <ele>920</ele>
        <time>2018-07-17T10:14:52Z</time>
      </trkpt>
      <trkpt lat="44.28769" lon="5.67242">
        <ele>920</ele>
        <time>2018-07-17T10:14:53Z</time>
      </trkpt>
      <trkpt lat="44.28768" lon="5.6724">
        <ele>920</ele>
        <time>2018-07-17T10:14:54Z</time>
      </trkpt>
      <trkpt lat="44.2877" lon="5.6724">
        <ele>920</ele>
        <time>2018-07-17T10:14:55Z</time>
      </trkpt>
      <trkpt lat="44.2877" lon="5.67238">
        <ele>920</ele>
        <time>2018-07-17T10:14:57Z</time>
      </trkpt>
      <trkpt lat="44.28769" lon="5.67236">
        <ele>920</ele>
        <time>2018-07-17T10:14:59Z</time>
      </trkpt>
      <trkpt lat="44.28766" lon="5.67235">
        <ele>920</ele>
        <time>2018-07-17T10:15:01Z</time>
      </trkpt>
      <trkpt lat="44.28764" lon="5.67234">
        <ele>920</ele>
        <time>2018-07-17T10:15:02Z</time>
      </trkpt>
      <trkpt lat="44.28762" lon="5.67232">
        <ele>920</ele>
        <time>2018-07-17T10:15:03Z</time>
      </trkpt>
      <trkpt lat="44.2876" lon="5.67231">
        <ele>920</ele>
        <time>2018-07-17T10:15:04Z</time>
      </trkpt>
      <trkpt lat="44.28758" lon="5.67229">
        <ele>920</ele>
        <time>2018-07-17T10:15:05Z</time>
      </trkpt>
      <trkpt lat="44.28759" lon="5.6723">
        <ele>920</ele>
        <time>2018-07-17T10:15:07Z</time>
      </trkpt>
      <trkpt lat="44.28756" lon="5.67229">
        <ele>920</ele>
        <time>2018-07-17T10:15:12Z</time>
      </trkpt>
      <trkpt lat="44.28754" lon="5.67227">
        <ele>920</ele>
        <time>2018-07-17T10:15:14Z</time>
      </trkpt>
      <trkpt lat="44.28756" lon="5.67227">
        <ele>920</ele>
        <time>2018-07-17T10:15:15Z</time>
      </trkpt>
      <trkpt lat="44.28757" lon="5.67228">
        <ele>920</ele>
        <time>2018-07-17T10:15:16Z</time>
      </trkpt>
      <trkpt lat="44.28759" lon="5.6723">
        <ele>920</ele>
        <time>2018-07-17T10:15:20Z</time>
      </trkpt>
      <trkpt lat="44.28762" lon="5.67231">
        <ele>920</ele>
        <time>2018-07-17T10:15:21Z</time>
      </trkpt>
      <trkpt lat="44.28763" lon="5.67232">
        <ele>920</ele>
        <time>2018-07-17T10:15:22Z</time>
      </trkpt>
      <trkpt lat="44.28766" lon="5.67233">
        <ele>920</ele>
        <time>2018-07-17T10:15:23Z</time>
      </trkpt>
      <trkpt lat="44.28768" lon="5.67235">
        <ele>920</ele>
        <time>2018-07-17T10:15:24Z</time>
      </trkpt>
      <trkpt lat="44.2877" lon="5.67235">
        <ele>920</ele>
        <time>2018-07-17T10:15:25Z</time>
      </trkpt>
      <trkpt lat="44.28772" lon="5.67236">
        <ele>920</ele>
        <time>2018-07-17T10:15:26Z</time>
      </trkpt>
      <trkpt lat="44.28773" lon="5.67236">
        <ele>920</ele>
        <time>2018-07-17T10:15:27Z</time>
      </trkpt>
      <trkpt lat="44.28775" lon="5.67236">
        <ele>920</ele>
        <time>2018-07-17T10:15:29Z</time>
      </trkpt>
      <trkpt lat="44.28775" lon="5.67238">
        <ele>920</ele>
        <time>2018-07-17T10:15:32Z</time>
      </trkpt>
      <trkpt lat="44.28777" lon="5.67239">
        <ele>920</ele>
        <time>2018-07-17T10:15:38Z</time>
      </trkpt>
      <trkpt lat="44.28779" lon="5.67238">
        <ele>920</ele>
        <time>2018-07-17T10:15:41Z</time>
      </trkpt>
      <trkpt lat="44.28779" lon="5.67236">
        <ele>920</ele>
        <time>2018-07-17T10:15:43Z</time>
      </trkpt>
      <trkpt lat="44.28781" lon="5.67235">
        <ele>920</ele>
        <time>2018-07-17T10:15:46Z</time>
      </trkpt>
      <trkpt lat="44.28782" lon="5.67234">
        <ele>920</ele>
        <time>2018-07-17T10:15:47Z</time>
      </trkpt>
      <trkpt lat="44.28784" lon="5.67235">
        <ele>920</ele>
        <time>2018-07-17T10:15:48Z</time>
      </trkpt>
      <trkpt lat="44.28785" lon="5.67233">
        <ele>920</ele>
        <time>2018-07-17T10:15:50Z</time>
      </trkpt>
      <trkpt lat="44.28784" lon="5.67231">
        <ele>920</ele>
        <time>2018-07-17T10:15:52Z</time>
      </trkpt>
      <trkpt lat="44.28782" lon="5.6723">
        <ele>920</ele>
        <time>2018-07-17T10:15:54Z</time>
      </trkpt>
      <trkpt lat="44.28782" lon="5.67231">
        <ele>921</ele>
        <time>2018-07-17T10:15:57Z</time>
      </trkpt>
      <trkpt lat="44.28782" lon="5.67229">
        <ele>923</ele>
        <time>2018-07-17T10:15:59Z</time>
      </trkpt>
      <trkpt lat="44.28783" lon="5.67228">
        <ele>923</ele>
        <time>2018-07-17T10:16:01Z</time>
      </trkpt>
      <trkpt lat="44.28784" lon="5.67226">
        <ele>924</ele>
        <time>2018-07-17T10:16:03Z</time>
      </trkpt>
      <trkpt lat="44.28785" lon="5.67226">
        <ele>924</ele>
        <time>2018-07-17T10:16:04Z</time>
      </trkpt>
      <trkpt lat="44.28787" lon="5.67225">
        <ele>925</ele>
        <time>2018-07-17T10:16:06Z</time>
      </trkpt>
      <trkpt lat="44.28788" lon="5.67225">
        <ele>925</ele>
        <time>2018-07-17T10:16:07Z</time>
      </trkpt>
      <trkpt lat="44.2879" lon="5.67226">
        <ele>925</ele>
        <time>2018-07-17T10:16:08Z</time>
      </trkpt>
      <trkpt lat="44.28792" lon="5.67227">
        <ele>925</ele>
        <time>2018-07-17T10:16:09Z</time>
      </trkpt>
      <trkpt lat="44.28794" lon="5.67228">
        <ele>925</ele>
        <time>2018-07-17T10:16:10Z</time>
      </trkpt>
      <trkpt lat="44.28796" lon="5.67229">
        <ele>925</ele>
        <time>2018-07-17T10:16:11Z</time>
      </trkpt>
      <trkpt lat="44.28797" lon="5.67229">
        <ele>925</ele>
        <time>2018-07-17T10:16:12Z</time>
      </trkpt>
      <trkpt lat="44.28798" lon="5.6723">
        <ele>925</ele>
        <time>2018-07-17T10:16:13Z</time>
      </trkpt>
      <trkpt lat="44.28799" lon="5.67231">
        <ele>925</ele>
        <time>2018-07-17T10:16:14Z</time>
      </trkpt>
      <trkpt lat="44.28801" lon="5.67231">
        <ele>925</ele>
        <time>2018-07-17T10:16:15Z</time>
      </trkpt>
      <trkpt lat="44.28803" lon="5.67232">
        <ele>925</ele>
        <time>2018-07-17T10:16:17Z</time>
      </trkpt>
      <trkpt lat="44.28804" lon="5.67233">
        <ele>925</ele>
        <time>2018-07-17T10:16:18Z</time>
      </trkpt>
      <trkpt lat="44.28805" lon="5.67232">
        <ele>925</ele>
        <time>2018-07-17T10:16:20Z</time>
      </trkpt>
      <trkpt lat="44.28806" lon="5.67232">
        <ele>925</ele>
        <time>2018-07-17T10:16:21Z</time>
      </trkpt>
      <trkpt lat="44.28808" lon="5.67233">
        <ele>925</ele>
        <time>2018-07-17T10:16:23Z</time>
      </trkpt>
      <trkpt lat="44.28809" lon="5.67233">
        <ele>925</ele>
        <time>2018-07-17T10:16:25Z</time>
      </trkpt>
      <trkpt lat="44.28811" lon="5.67234">
        <ele>925</ele>
        <time>2018-07-17T10:16:27Z</time>
      </trkpt>
      <trkpt lat="44.28812" lon="5.67234">
        <ele>925</ele>
        <time>2018-07-17T10:16:29Z</time>
      </trkpt>
      <trkpt lat="44.28814" lon="5.67233">
        <ele>925</ele>
        <time>2018-07-17T10:16:31Z</time>
      </trkpt>
      <trkpt lat="44.28816" lon="5.67233">
        <ele>925</ele>
        <time>2018-07-17T10:16:33Z</time>
      </trkpt>
      <trkpt lat="44.28817" lon="5.67233">
        <ele>925</ele>
        <time>2018-07-17T10:16:35Z</time>
      </trkpt>
      <trkpt lat="44.2882" lon="5.67233">
        <ele>925</ele>
        <time>2018-07-17T10:16:37Z</time>
      </trkpt>
      <trkpt lat="44.28821" lon="5.67234">
        <ele>925</ele>
        <time>2018-07-17T10:16:38Z</time>
      </trkpt>
      <trkpt lat="44.28822" lon="5.67235">
        <ele>925</ele>
        <time>2018-07-17T10:16:39Z</time>
      </trkpt>
      <trkpt lat="44.28824" lon="5.67235">
        <ele>925</ele>
        <time>2018-07-17T10:16:41Z</time>
      </trkpt>
      <trkpt lat="44.28826" lon="5.67235">
        <ele>925</ele>
        <time>2018-07-17T10:16:43Z</time>
      </trkpt>
      <trkpt lat="44.28827" lon="5.67236">
        <ele>925</ele>
        <time>2018-07-17T10:16:44Z</time>
      </trkpt>
      <trkpt lat="44.28828" lon="5.67237">
        <ele>925</ele>
        <time>2018-07-17T10:16:45Z</time>
      </trkpt>
      <trkpt lat="44.2883" lon="5.67238">
        <ele>925</ele>
        <time>2018-07-17T10:16:46Z</time>
      </trkpt>
      <trkpt lat="44.28831" lon="5.67238">
        <ele>925</ele>
        <time>2018-07-17T10:16:47Z</time>
      </trkpt>
      <trkpt lat="44.28833" lon="5.67239">
        <ele>925</ele>
        <time>2018-07-17T10:16:49Z</time>
      </trkpt>
      <trkpt lat="44.28835" lon="5.67239">
        <ele>925</ele>
        <time>2018-07-17T10:16:51Z</time>
      </trkpt>
      <trkpt lat="44.28836" lon="5.67239">
        <ele>925</ele>
        <time>2018-07-17T10:16:53Z</time>
      </trkpt>
      <trkpt lat="44.28838" lon="5.6724">
        <ele>925</ele>
        <time>2018-07-17T10:16:55Z</time>
      </trkpt>
      <trkpt lat="44.28839" lon="5.6724">
        <ele>925</ele>
        <time>2018-07-17T10:16:56Z</time>
      </trkpt>
      <trkpt lat="44.28841" lon="5.6724">
        <ele>925</ele>
        <time>2018-07-17T10:16:58Z</time>
      </trkpt>
      <trkpt lat="44.28842" lon="5.6724">
        <ele>925</ele>
        <time>2018-07-17T10:17:01Z</time>
      </trkpt>
      <trkpt lat="44.28844" lon="5.67241">
        <ele>925</ele>
        <time>2018-07-17T10:17:03Z</time>
      </trkpt>
      <trkpt lat="44.28845" lon="5.67241">
        <ele>925</ele>
        <time>2018-07-17T10:17:05Z</time>
      </trkpt>
      <trkpt lat="44.28847" lon="5.6724">
        <ele>925</ele>
        <time>2018-07-17T10:17:07Z</time>
      </trkpt>
      <trkpt lat="44.28849" lon="5.6724">
        <ele>925</ele>
        <time>2018-07-17T10:17:11Z</time>
      </trkpt>
      <trkpt lat="44.2885" lon="5.67239">
        <ele>925</ele>
        <time>2018-07-17T10:17:15Z</time>
      </trkpt>
      <trkpt lat="44.28852" lon="5.6724">
        <ele>925</ele>
        <time>2018-07-17T10:17:17Z</time>
      </trkpt>
      <trkpt lat="44.28853" lon="5.67239">
        <ele>925</ele>
        <time>2018-07-17T10:17:19Z</time>
      </trkpt>
      <trkpt lat="44.28854" lon="5.67238">
        <ele>925</ele>
        <time>2018-07-17T10:17:21Z</time>
      </trkpt>
      <trkpt lat="44.28855" lon="5.67237">
        <ele>925</ele>
        <time>2018-07-17T10:17:23Z</time>
      </trkpt>
      <trkpt lat="44.28856" lon="5.67235">
        <ele>925</ele>
        <time>2018-07-17T10:17:26Z</time>
      </trkpt>
      <trkpt lat="44.28857" lon="5.67234">
        <ele>925</ele>
        <time>2018-07-17T10:17:27Z</time>
      </trkpt>
      <trkpt lat="44.28859" lon="5.67234">
        <ele>925</ele>
        <time>2018-07-17T10:17:29Z</time>
      </trkpt>
      <trkpt lat="44.2886" lon="5.67234">
        <ele>925</ele>
        <time>2018-07-17T10:17:31Z</time>
      </trkpt>
      <trkpt lat="44.28862" lon="5.67235">
        <ele>925</ele>
        <time>2018-07-17T10:17:32Z</time>
      </trkpt>
      <trkpt lat="44.28863" lon="5.67233">
        <ele>925</ele>
        <time>2018-07-17T10:17:34Z</time>
      </trkpt>
      <trkpt lat="44.28864" lon="5.67232">
        <ele>925</ele>
        <time>2018-07-17T10:17:36Z</time>
      </trkpt>
      <trkpt lat="44.28866" lon="5.67231">
        <ele>925</ele>
        <time>2018-07-17T10:17:38Z</time>
      </trkpt>
      <trkpt lat="44.28867" lon="5.67229">
        <ele>925</ele>
        <time>2018-07-17T10:17:40Z</time>
      </trkpt>
      <trkpt lat="44.28868" lon="5.67229">
        <ele>925</ele>
        <time>2018-07-17T10:17:42Z</time>
      </trkpt>
      <trkpt lat="44.2887" lon="5.67227">
        <ele>925</ele>
        <time>2018-07-17T10:17:44Z</time>
      </trkpt>
      <trkpt lat="44.28872" lon="5.67225">
        <ele>925</ele>
        <time>2018-07-17T10:17:46Z</time>
      </trkpt>
      <trkpt lat="44.28873" lon="5.67223">
        <ele>925</ele>
        <time>2018-07-17T10:17:47Z</time>
      </trkpt>
      <trkpt lat="44.28874" lon="5.67223">
        <ele>925</ele>
        <time>2018-07-17T10:17:48Z</time>
      </trkpt>
      <trkpt lat="44.28876" lon="5.67222">
        <ele>925</ele>
        <time>2018-07-17T10:17:50Z</time>
      </trkpt>
      <trkpt lat="44.28878" lon="5.67221">
        <ele>925</ele>
        <time>2018-07-17T10:17:52Z</time>
      </trkpt>
      <trkpt lat="44.28878" lon="5.6722">
        <ele>925</ele>
        <time>2018-07-17T10:17:53Z</time>
      </trkpt>
      <trkpt lat="44.28879" lon="5.67218">
        <ele>925</ele>
        <time>2018-07-17T10:17:55Z</time>
      </trkpt>
      <trkpt lat="44.28881" lon="5.67217">
        <ele>925</ele>
        <time>2018-07-17T10:17:57Z</time>
      </trkpt>
      <trkpt lat="44.28881" lon="5.67215">
        <ele>925</ele>
        <time>2018-07-17T10:17:59Z</time>
      </trkpt>
      <trkpt lat="44.28883" lon="5.67215">
        <ele>925</ele>
        <time>2018-07-17T10:18:00Z</time>
      </trkpt>
      <trkpt lat="44.28885" lon="5.67214">
        <ele>925</ele>
        <time>2018-07-17T10:18:02Z</time>
      </trkpt>
      <trkpt lat="44.28886" lon="5.67213">
        <ele>925</ele>
        <time>2018-07-17T10:18:04Z</time>
      </trkpt>
      <trkpt lat="44.28887" lon="5.67211">
        <ele>925</ele>
        <time>2018-07-17T10:18:06Z</time>
      </trkpt>
      <trkpt lat="44.28888" lon="5.6721">
        <ele>925</ele>
        <time>2018-07-17T10:18:08Z</time>
      </trkpt>
      <trkpt lat="44.28889" lon="5.67209">
        <ele>925</ele>
        <time>2018-07-17T10:18:10Z</time>
      </trkpt>
      <trkpt lat="44.28891" lon="5.67207">
        <ele>925</ele>
        <time>2018-07-17T10:18:12Z</time>
      </trkpt>
      <trkpt lat="44.28891" lon="5.67206">
        <ele>925</ele>
        <time>2018-07-17T10:18:14Z</time>
      </trkpt>
      <trkpt lat="44.28892" lon="5.67204">
        <ele>925</ele>
        <time>2018-07-17T10:18:16Z</time>
      </trkpt>
      <trkpt lat="44.28894" lon="5.67203">
        <ele>925</ele>
        <time>2018-07-17T10:18:18Z</time>
      </trkpt>
      <trkpt lat="44.28894" lon="5.67201">
        <ele>925</ele>
        <time>2018-07-17T10:18:20Z</time>
      </trkpt>
      <trkpt lat="44.28895" lon="5.67199">
        <ele>925</ele>
        <time>2018-07-17T10:18:22Z</time>
      </trkpt>
      <trkpt lat="44.28896" lon="5.67197">
        <ele>925</ele>
        <time>2018-07-17T10:18:24Z</time>
      </trkpt>
      <trkpt lat="44.28897" lon="5.67194">
        <ele>926</ele>
        <time>2018-07-17T10:18:26Z</time>
      </trkpt>
      <trkpt lat="44.28897" lon="5.67192">
        <ele>926</ele>
        <time>2018-07-17T10:18:27Z</time>
      </trkpt>
      <trkpt lat="44.28897" lon="5.67191">
        <ele>927</ele>
        <time>2018-07-17T10:18:29Z</time>
      </trkpt>
      <trkpt lat="44.28899" lon="5.67191">
        <ele>928</ele>
        <time>2018-07-17T10:18:31Z</time>
      </trkpt>
      <trkpt lat="44.28899" lon="5.67189">
        <ele>929</ele>
        <time>2018-07-17T10:18:33Z</time>
      </trkpt>
      <trkpt lat="44.28901" lon="5.67189">
        <ele>929</ele>
        <time>2018-07-17T10:18:35Z</time>
      </trkpt>
      <trkpt lat="44.28902" lon="5.67187">
        <ele>929</ele>
        <time>2018-07-17T10:18:37Z</time>
      </trkpt>
      <trkpt lat="44.28904" lon="5.67187">
        <ele>929</ele>
        <time>2018-07-17T10:18:39Z</time>
      </trkpt>
      <trkpt lat="44.28905" lon="5.67187">
        <ele>929</ele>
        <time>2018-07-17T10:18:40Z</time>
      </trkpt>
      <trkpt lat="44.28907" lon="5.67187">
        <ele>930</ele>
        <time>2018-07-17T10:18:41Z</time>
      </trkpt>
      <trkpt lat="44.28909" lon="5.67186">
        <ele>930</ele>
        <time>2018-07-17T10:18:43Z</time>
      </trkpt>
      <trkpt lat="44.2891" lon="5.67186">
        <ele>930</ele>
        <time>2018-07-17T10:18:45Z</time>
      </trkpt>
      <trkpt lat="44.28911" lon="5.67187">
        <ele>930</ele>
        <time>2018-07-17T10:18:46Z</time>
      </trkpt>
      <trkpt lat="44.28913" lon="5.67187">
        <ele>930</ele>
        <time>2018-07-17T10:18:47Z</time>
      </trkpt>
      <trkpt lat="44.28916" lon="5.67189">
        <ele>930</ele>
        <time>2018-07-17T10:18:49Z</time>
      </trkpt>
      <trkpt lat="44.28917" lon="5.6719">
        <ele>930</ele>
        <time>2018-07-17T10:18:50Z</time>
      </trkpt>
      <trkpt lat="44.28918" lon="5.67191">
        <ele>930</ele>
        <time>2018-07-17T10:18:51Z</time>
      </trkpt>
      <trkpt lat="44.28919" lon="5.67189">
        <ele>930</ele>
        <time>2018-07-17T10:18:53Z</time>
      </trkpt>
      <trkpt lat="44.2892" lon="5.67189">
        <ele>930</ele>
        <time>2018-07-17T10:18:59Z</time>
      </trkpt>
      <trkpt lat="44.28921" lon="5.67189">
        <ele>930</ele>
        <time>2018-07-17T10:19:01Z</time>
      </trkpt>
      <trkpt lat="44.28922" lon="5.67192">
        <ele>930</ele>
        <time>2018-07-17T10:19:03Z</time>
      </trkpt>
      <trkpt lat="44.28924" lon="5.67192">
        <ele>930</ele>
        <time>2018-07-17T10:19:06Z</time>
      </trkpt>
      <trkpt lat="44.28926" lon="5.67193">
        <ele>930</ele>
        <time>2018-07-17T10:19:07Z</time>
      </trkpt>
      <trkpt lat="44.28929" lon="5.67194">
        <ele>930</ele>
        <time>2018-07-17T10:19:08Z</time>
      </trkpt>
      <trkpt lat="44.2893" lon="5.67195">
        <ele>930</ele>
        <time>2018-07-17T10:19:09Z</time>
      </trkpt>
      <trkpt lat="44.28932" lon="5.67195">
        <ele>930</ele>
        <time>2018-07-17T10:19:10Z</time>
      </trkpt>
      <trkpt lat="44.28933" lon="5.67195">
        <ele>930</ele>
        <time>2018-07-17T10:19:11Z</time>
      </trkpt>
      <trkpt lat="44.28936" lon="5.67195">
        <ele>930</ele>
        <time>2018-07-17T10:19:13Z</time>
      </trkpt>
      <trkpt lat="44.28937" lon="5.67196">
        <ele>930</ele>
        <time>2018-07-17T10:19:14Z</time>
      </trkpt>
      <trkpt lat="44.28939" lon="5.67196">
        <ele>930</ele>
        <time>2018-07-17T10:19:17Z</time>
      </trkpt>
      <trkpt lat="44.28941" lon="5.67197">
        <ele>930</ele>
        <time>2018-07-17T10:19:18Z</time>
      </trkpt>
      <trkpt lat="44.28942" lon="5.67197">
        <ele>930</ele>
        <time>2018-07-17T10:19:19Z</time>
      </trkpt>
      <trkpt lat="44.28945" lon="5.67199">
        <ele>930</ele>
        <time>2018-07-17T10:19:21Z</time>
      </trkpt>
      <trkpt lat="44.28947" lon="5.67199">
        <ele>930</ele>
        <time>2018-07-17T10:19:22Z</time>
      </trkpt>
      <trkpt lat="44.28948" lon="5.672">
        <ele>930</ele>
        <time>2018-07-17T10:19:23Z</time>
      </trkpt>
      <trkpt lat="44.2895" lon="5.672">
        <ele>930</ele>
        <time>2018-07-17T10:19:24Z</time>
      </trkpt>
      <trkpt lat="44.28952" lon="5.672">
        <ele>930</ele>
        <time>2018-07-17T10:19:26Z</time>
      </trkpt>
      <trkpt lat="44.28953" lon="5.67202">
        <ele>930</ele>
        <time>2018-07-17T10:19:30Z</time>
      </trkpt>
      <trkpt lat="44.28954" lon="5.67204">
        <ele>930</ele>
        <time>2018-07-17T10:19:32Z</time>
      </trkpt>
      <trkpt lat="44.28952" lon="5.67206">
        <ele>930</ele>
        <time>2018-07-17T10:19:34Z</time>
      </trkpt>
      <trkpt lat="44.28951" lon="5.67207">
        <ele>930</ele>
        <time>2018-07-17T10:19:36Z</time>
      </trkpt>
      <trkpt lat="44.2895" lon="5.67208">
        <ele>930</ele>
        <time>2018-07-17T10:19:39Z</time>
      </trkpt>
      <trkpt lat="44.28951" lon="5.67208">
        <ele>930</ele>
        <time>2018-07-17T10:19:43Z</time>
      </trkpt>
      <trkpt lat="44.28952" lon="5.67208">
        <ele>930</ele>
        <time>2018-07-17T10:19:44Z</time>
      </trkpt>
      <trkpt lat="44.28954" lon="5.6721">
        <ele>930</ele>
        <time>2018-07-17T10:19:45Z</time>
      </trkpt>
      <trkpt lat="44.28954" lon="5.67211">
        <ele>930</ele>
        <time>2018-07-17T10:19:47Z</time>
      </trkpt>
      <trkpt lat="44.28956" lon="5.67213">
        <ele>930</ele>
        <time>2018-07-17T10:19:49Z</time>
      </trkpt>
      <trkpt lat="44.28957" lon="5.67213">
        <ele>930</ele>
        <time>2018-07-17T10:19:53Z</time>
      </trkpt>
      <trkpt lat="44.28958" lon="5.67212">
        <ele>930</ele>
        <time>2018-07-17T10:19:57Z</time>
      </trkpt>
      <trkpt lat="44.28959" lon="5.67212">
        <ele>930</ele>
        <time>2018-07-17T10:19:59Z</time>
      </trkpt>
      <trkpt lat="44.28961" lon="5.67214">
        <ele>930</ele>
        <time>2018-07-17T10:20:01Z</time>
      </trkpt>
      <trkpt lat="44.28963" lon="5.67217">
        <ele>930</ele>
        <time>2018-07-17T10:20:03Z</time>
      </trkpt>
      <trkpt lat="44.28964" lon="5.67218">
        <ele>930</ele>
        <time>2018-07-17T10:20:04Z</time>
      </trkpt>
      <trkpt lat="44.28965" lon="5.6722">
        <ele>930</ele>
        <time>2018-07-17T10:20:05Z</time>
      </trkpt>
      <trkpt lat="44.28966" lon="5.67221">
        <ele>930</ele>
        <time>2018-07-17T10:20:06Z</time>
      </trkpt>
      <trkpt lat="44.28967" lon="5.67224">
        <ele>930</ele>
        <time>2018-07-17T10:20:08Z</time>
      </trkpt>
      <trkpt lat="44.28969" lon="5.67226">
        <ele>930</ele>
        <time>2018-07-17T10:20:10Z</time>
      </trkpt>
      <trkpt lat="44.28971" lon="5.67228">
        <ele>930</ele>
        <time>2018-07-17T10:20:12Z</time>
      </trkpt>
      <trkpt lat="44.28972" lon="5.67231">
        <ele>930</ele>
        <time>2018-07-17T10:20:14Z</time>
      </trkpt>
      <trkpt lat="44.28973" lon="5.67233">
        <ele>930</ele>
        <time>2018-07-17T10:20:16Z</time>
      </trkpt>
      <trkpt lat="44.28975" lon="5.67234">
        <ele>930</ele>
        <time>2018-07-17T10:20:17Z</time>
      </trkpt>
      <trkpt lat="44.28976" lon="5.67236">
        <ele>930</ele>
        <time>2018-07-17T10:20:19Z</time>
      </trkpt>
      <trkpt lat="44.28978" lon="5.67238">
        <ele>930</ele>
        <time>2018-07-17T10:20:20Z</time>
      </trkpt>
      <trkpt lat="44.28979" lon="5.67239">
        <ele>930</ele>
        <time>2018-07-17T10:20:21Z</time>
      </trkpt>
      <trkpt lat="44.28981" lon="5.67241">
        <ele>930</ele>
        <time>2018-07-17T10:20:24Z</time>
      </trkpt>
      <trkpt lat="44.28982" lon="5.67242">
        <ele>930</ele>
        <time>2018-07-17T10:20:25Z</time>
      </trkpt>
      <trkpt lat="44.28984" lon="5.67243">
        <ele>930</ele>
        <time>2018-07-17T10:20:29Z</time>
      </trkpt>
      <trkpt lat="44.28985" lon="5.67245">
        <ele>930</ele>
        <time>2018-07-17T10:20:31Z</time>
      </trkpt>
      <trkpt lat="44.28986" lon="5.67246">
        <ele>930</ele>
        <time>2018-07-17T10:20:32Z</time>
      </trkpt>
      <trkpt lat="44.28988" lon="5.67247">
        <ele>930</ele>
        <time>2018-07-17T10:20:33Z</time>
      </trkpt>
      <trkpt lat="44.28989" lon="5.67249">
        <ele>930</ele>
        <time>2018-07-17T10:20:36Z</time>
      </trkpt>
      <trkpt lat="44.28991" lon="5.67251">
        <ele>930</ele>
        <time>2018-07-17T10:20:38Z</time>
      </trkpt>
      <trkpt lat="44.28992" lon="5.67251">
        <ele>930</ele>
        <time>2018-07-17T10:20:39Z</time>
      </trkpt>
      <trkpt lat="44.28992" lon="5.67249">
        <ele>930</ele>
        <time>2018-07-17T10:20:41Z</time>
      </trkpt>
      <trkpt lat="44.28994" lon="5.67251">
        <ele>930</ele>
        <time>2018-07-17T10:20:44Z</time>
      </trkpt>
      <trkpt lat="44.28995" lon="5.67251">
        <ele>930</ele>
        <time>2018-07-17T10:20:45Z</time>
      </trkpt>
      <trkpt lat="44.28997" lon="5.67253">
        <ele>930</ele>
        <time>2018-07-17T10:20:46Z</time>
      </trkpt>
      <trkpt lat="44.28999" lon="5.67254">
        <ele>930</ele>
        <time>2018-07-17T10:20:47Z</time>
      </trkpt>
      <trkpt lat="44.29001" lon="5.67255">
        <ele>930</ele>
        <time>2018-07-17T10:20:48Z</time>
      </trkpt>
      <trkpt lat="44.29002" lon="5.67255">
        <ele>930</ele>
        <time>2018-07-17T10:20:49Z</time>
      </trkpt>
      <trkpt lat="44.29004" lon="5.67256">
        <ele>930</ele>
        <time>2018-07-17T10:20:50Z</time>
      </trkpt>
      <trkpt lat="44.29006" lon="5.67258">
        <ele>930</ele>
        <time>2018-07-17T10:20:52Z</time>
      </trkpt>
      <trkpt lat="44.29006" lon="5.67256">
        <ele>930</ele>
        <time>2018-07-17T10:20:54Z</time>
      </trkpt>
      <trkpt lat="44.29008" lon="5.67257">
        <ele>930</ele>
        <time>2018-07-17T10:20:55Z</time>
      </trkpt>
      <trkpt lat="44.29009" lon="5.67258">
        <ele>930</ele>
        <time>2018-07-17T10:20:56Z</time>
      </trkpt>
      <trkpt lat="44.29011" lon="5.67259">
        <ele>930</ele>
        <time>2018-07-17T10:20:57Z</time>
      </trkpt>
      <trkpt lat="44.29013" lon="5.67259">
        <ele>930</ele>
        <time>2018-07-17T10:20:59Z</time>
      </trkpt>
      <trkpt lat="44.29015" lon="5.6726">
        <ele>930</ele>
        <time>2018-07-17T10:21:01Z</time>
      </trkpt>
      <trkpt lat="44.29017" lon="5.6726">
        <ele>930</ele>
        <time>2018-07-17T10:21:03Z</time>
      </trkpt>
      <trkpt lat="44.29019" lon="5.67261">
        <ele>930</ele>
        <time>2018-07-17T10:21:06Z</time>
      </trkpt>
      <trkpt lat="44.29021" lon="5.67262">
        <ele>930</ele>
        <time>2018-07-17T10:21:07Z</time>
      </trkpt>
      <trkpt lat="44.29022" lon="5.67263">
        <ele>930</ele>
        <time>2018-07-17T10:21:08Z</time>
      </trkpt>
      <trkpt lat="44.29024" lon="5.67264">
        <ele>930</ele>
        <time>2018-07-17T10:21:10Z</time>
      </trkpt>
      <trkpt lat="44.29025" lon="5.67265">
        <ele>930</ele>
        <time>2018-07-17T10:21:11Z</time>
      </trkpt>
      <trkpt lat="44.29026" lon="5.67265">
        <ele>930</ele>
        <time>2018-07-17T10:21:12Z</time>
      </trkpt>
      <trkpt lat="44.29028" lon="5.67266">
        <ele>930</ele>
        <time>2018-07-17T10:21:13Z</time>
      </trkpt>
      <trkpt lat="44.29029" lon="5.67267">
        <ele>930</ele>
        <time>2018-07-17T10:21:14Z</time>
      </trkpt>
      <trkpt lat="44.29031" lon="5.67268">
        <ele>930</ele>
        <time>2018-07-17T10:21:15Z</time>
      </trkpt>
      <trkpt lat="44.29032" lon="5.67268">
        <ele>930</ele>
        <time>2018-07-17T10:21:17Z</time>
      </trkpt>
      <trkpt lat="44.29033" lon="5.67269">
        <ele>930</ele>
        <time>2018-07-17T10:21:19Z</time>
      </trkpt>
      <trkpt lat="44.29035" lon="5.67268">
        <ele>930</ele>
        <time>2018-07-17T10:21:22Z</time>
      </trkpt>
      <trkpt lat="44.29036" lon="5.67268">
        <ele>930</ele>
        <time>2018-07-17T10:21:23Z</time>
      </trkpt>
      <trkpt lat="44.29038" lon="5.67269">
        <ele>930</ele>
        <time>2018-07-17T10:21:27Z</time>
      </trkpt>
      <trkpt lat="44.29039" lon="5.6727">
        <ele>930</ele>
        <time>2018-07-17T10:21:28Z</time>
      </trkpt>
      <trkpt lat="44.29039" lon="5.67268">
        <ele>930</ele>
        <time>2018-07-17T10:21:30Z</time>
      </trkpt>
      <trkpt lat="44.29039" lon="5.67266">
        <ele>930</ele>
        <time>2018-07-17T10:21:32Z</time>
      </trkpt>
      <trkpt lat="44.2904" lon="5.67266">
        <ele>930</ele>
        <time>2018-07-17T10:21:33Z</time>
      </trkpt>
      <trkpt lat="44.29041" lon="5.67267">
        <ele>930</ele>
        <time>2018-07-17T10:21:34Z</time>
      </trkpt>
      <trkpt lat="44.29044" lon="5.67269">
        <ele>930</ele>
        <time>2018-07-17T10:21:36Z</time>
      </trkpt>
      <trkpt lat="44.29046" lon="5.6727">
        <ele>930</ele>
        <time>2018-07-17T10:21:37Z</time>
      </trkpt>
      <trkpt lat="44.29047" lon="5.6727">
        <ele>930</ele>
        <time>2018-07-17T10:21:38Z</time>
      </trkpt>
      <trkpt lat="44.2905" lon="5.67271">
        <ele>930</ele>
        <time>2018-07-17T10:21:40Z</time>
      </trkpt>
      <trkpt lat="44.29051" lon="5.67272">
        <ele>930</ele>
        <time>2018-07-17T10:21:41Z</time>
      </trkpt>
      <trkpt lat="44.29053" lon="5.67271">
        <ele>930</ele>
        <time>2018-07-17T10:21:43Z</time>
      </trkpt>
      <trkpt lat="44.29055" lon="5.67272">
        <ele>930</ele>
        <time>2018-07-17T10:21:45Z</time>
      </trkpt>
      <trkpt lat="44.29057" lon="5.67272">
        <ele>930</ele>
        <time>2018-07-17T10:21:48Z</time>
      </trkpt>
      <trkpt lat="44.29058" lon="5.67273">
        <ele>930</ele>
        <time>2018-07-17T10:21:49Z</time>
      </trkpt>
      <trkpt lat="44.2906" lon="5.67272">
        <ele>930</ele>
        <time>2018-07-17T10:21:51Z</time>
      </trkpt>
      <trkpt lat="44.29062" lon="5.67272">
        <ele>930</ele>
        <time>2018-07-17T10:21:52Z</time>
      </trkpt>
      <trkpt lat="44.29063" lon="5.67272">
        <ele>930</ele>
        <time>2018-07-17T10:21:53Z</time>
      </trkpt>
      <trkpt lat="44.29064" lon="5.67273">
        <ele>930</ele>
        <time>2018-07-17T10:21:54Z</time>
      </trkpt>
      <trkpt lat="44.29065" lon="5.67274">
        <ele>930</ele>
        <time>2018-07-17T10:21:55Z</time>
      </trkpt>
      <trkpt lat="44.29067" lon="5.67275">
        <ele>930</ele>
        <time>2018-07-17T10:21:57Z</time>
      </trkpt>
      <trkpt lat="44.29068" lon="5.67276">
        <ele>930</ele>
        <time>2018-07-17T10:21:59Z</time>
      </trkpt>
      <trkpt lat="44.2907" lon="5.67277">
        <ele>930</ele>
        <time>2018-07-17T10:22:03Z</time>
      </trkpt>
      <trkpt lat="44.29071" lon="5.67278">
        <ele>930</ele>
        <time>2018-07-17T10:22:05Z</time>
      </trkpt>
      <trkpt lat="44.29073" lon="5.67279">
        <ele>930</ele>
        <time>2018-07-17T10:22:06Z</time>
      </trkpt>
      <trkpt lat="44.29074" lon="5.67279">
        <ele>930</ele>
        <time>2018-07-17T10:22:07Z</time>
      </trkpt>
      <trkpt lat="44.29076" lon="5.6728">
        <ele>930</ele>
        <time>2018-07-17T10:22:09Z</time>
      </trkpt>
      <trkpt lat="44.29077" lon="5.67281">
        <ele>930</ele>
        <time>2018-07-17T10:22:10Z</time>
      </trkpt>
      <trkpt lat="44.29079" lon="5.67281">
        <ele>930</ele>
        <time>2018-07-17T10:22:11Z</time>
      </trkpt>
      <trkpt lat="44.2908" lon="5.6728">
        <ele>930</ele>
        <time>2018-07-17T10:22:13Z</time>
      </trkpt>
      <trkpt lat="44.29082" lon="5.67281">
        <ele>930</ele>
        <time>2018-07-17T10:22:15Z</time>
      </trkpt>
      <trkpt lat="44.29084" lon="5.67282">
        <ele>930</ele>
        <time>2018-07-17T10:22:16Z</time>
      </trkpt>
      <trkpt lat="44.29085" lon="5.67282">
        <ele>930</ele>
        <time>2018-07-17T10:22:17Z</time>
      </trkpt>
      <trkpt lat="44.29087" lon="5.67283">
        <ele>930</ele>
        <time>2018-07-17T10:22:18Z</time>
      </trkpt>
      <trkpt lat="44.29088" lon="5.67284">
        <ele>930</ele>
        <time>2018-07-17T10:22:20Z</time>
      </trkpt>
      <trkpt lat="44.29088" lon="5.67282">
        <ele>930</ele>
        <time>2018-07-17T10:22:23Z</time>
      </trkpt>
      <trkpt lat="44.29088" lon="5.67281">
        <ele>930</ele>
        <time>2018-07-17T10:22:28Z</time>
      </trkpt>
      <trkpt lat="44.29089" lon="5.67281">
        <ele>930</ele>
        <time>2018-07-17T10:22:30Z</time>
      </trkpt>
      <trkpt lat="44.29091" lon="5.67282">
        <ele>930</ele>
        <time>2018-07-17T10:22:31Z</time>
      </trkpt>
      <trkpt lat="44.29092" lon="5.67282">
        <ele>930</ele>
        <time>2018-07-17T10:22:32Z</time>
      </trkpt>
      <trkpt lat="44.29092" lon="5.67281">
        <ele>930</ele>
        <time>2018-07-17T10:22:34Z</time>
      </trkpt>
      <trkpt lat="44.29093" lon="5.67281">
        <ele>930</ele>
        <time>2018-07-17T10:22:39Z</time>
      </trkpt>
      <trkpt lat="44.29092" lon="5.67279">
        <ele>930</ele>
        <time>2018-07-17T10:22:42Z</time>
      </trkpt>
      <trkpt lat="44.29091" lon="5.67277">
        <ele>930</ele>
        <time>2018-07-17T10:22:45Z</time>
      </trkpt>
      <trkpt lat="44.29091" lon="5.67279">
        <ele>930</ele>
        <time>2018-07-17T10:22:49Z</time>
      </trkpt>
      <trkpt lat="44.2909" lon="5.67281">
        <ele>930</ele>
        <time>2018-07-17T10:22:50Z</time>
      </trkpt>
      <trkpt lat="44.2909" lon="5.67283">
        <ele>930</ele>
        <time>2018-07-17T10:22:52Z</time>
      </trkpt>
      <trkpt lat="44.29089" lon="5.67285">
        <ele>930</ele>
        <time>2018-07-17T10:22:54Z</time>
      </trkpt>
      <trkpt lat="44.29088" lon="5.67283">
        <ele>930</ele>
        <time>2018-07-17T10:22:56Z</time>
      </trkpt>
      <trkpt lat="44.29087" lon="5.67281">
        <ele>930</ele>
        <time>2018-07-17T10:22:58Z</time>
      </trkpt>
      <trkpt lat="44.29086" lon="5.67279">
        <ele>930</ele>
        <time>2018-07-17T10:23:00Z</time>
      </trkpt>
      <trkpt lat="44.29085" lon="5.67277">
        <ele>931</ele>
        <time>2018-07-17T10:23:03Z</time>
      </trkpt>
      <trkpt lat="44.29086" lon="5.67277">
        <ele>931</ele>
        <time>2018-07-17T10:23:07Z</time>
      </trkpt>
      <trkpt lat="44.29087" lon="5.67278">
        <ele>931</ele>
        <time>2018-07-17T10:23:09Z</time>
      </trkpt>
      <trkpt lat="44.29088" lon="5.67279">
        <ele>931</ele>
        <time>2018-07-17T10:23:11Z</time>
      </trkpt>
      <trkpt lat="44.29089" lon="5.67281">
        <ele>930</ele>
        <time>2018-07-17T10:23:13Z</time>
      </trkpt>
      <trkpt lat="44.29091" lon="5.67282">
        <ele>928</ele>
        <time>2018-07-17T10:23:15Z</time>
      </trkpt>
      <trkpt lat="44.29092" lon="5.67284">
        <ele>926</ele>
        <time>2018-07-17T10:23:20Z</time>
      </trkpt>
      <trkpt lat="44.29091" lon="5.67282">
        <ele>925</ele>
        <time>2018-07-17T10:23:25Z</time>
      </trkpt>
      <trkpt lat="44.2909" lon="5.6728">
        <ele>925</ele>
        <time>2018-07-17T10:23:27Z</time>
      </trkpt>
      <trkpt lat="44.29091" lon="5.67282">
        <ele>927</ele>
        <time>2018-07-17T10:23:33Z</time>
      </trkpt>
      <trkpt lat="44.29092" lon="5.67282">
        <ele>928</ele>
        <time>2018-07-17T10:23:36Z</time>
      </trkpt>
      <trkpt lat="44.29094" lon="5.67283">
        <ele>928</ele>
        <time>2018-07-17T10:23:38Z</time>
      </trkpt>
      <trkpt lat="44.29095" lon="5.67283">
        <ele>928</ele>
        <time>2018-07-17T10:23:39Z</time>
      </trkpt>
      <trkpt lat="44.29097" lon="5.67283">
        <ele>928</ele>
        <time>2018-07-17T10:23:41Z</time>
      </trkpt>
      <trkpt lat="44.29099" lon="5.67284">
        <ele>928</ele>
        <time>2018-07-17T10:23:43Z</time>
      </trkpt>
      <trkpt lat="44.29101" lon="5.67286">
        <ele>928</ele>
        <time>2018-07-17T10:23:46Z</time>
      </trkpt>
      <trkpt lat="44.29102" lon="5.67287">
        <ele>928</ele>
        <time>2018-07-17T10:23:48Z</time>
      </trkpt>
      <trkpt lat="44.29104" lon="5.67288">
        <ele>928</ele>
        <time>2018-07-17T10:23:50Z</time>
      </trkpt>
      <trkpt lat="44.29105" lon="5.67289">
        <ele>928</ele>
        <time>2018-07-17T10:23:52Z</time>
      </trkpt>
      <trkpt lat="44.29107" lon="5.6729">
        <ele>927</ele>
        <time>2018-07-17T10:23:54Z</time>
      </trkpt>
      <trkpt lat="44.29108" lon="5.67292">
        <ele>925</ele>
        <time>2018-07-17T10:23:56Z</time>
      </trkpt>
      <trkpt lat="44.2911" lon="5.67293">
        <ele>925</ele>
        <time>2018-07-17T10:23:58Z</time>
      </trkpt>
      <trkpt lat="44.29112" lon="5.67294">
        <ele>925</ele>
        <time>2018-07-17T10:24:00Z</time>
      </trkpt>
      <trkpt lat="44.29113" lon="5.67296">
        <ele>925</ele>
        <time>2018-07-17T10:24:02Z</time>
      </trkpt>
      <trkpt lat="44.29114" lon="5.67297">
        <ele>924</ele>
        <time>2018-07-17T10:24:04Z</time>
      </trkpt>
      <trkpt lat="44.29115" lon="5.67299">
        <ele>923</ele>
        <time>2018-07-17T10:24:10Z</time>
      </trkpt>
      <trkpt lat="44.29115" lon="5.673">
        <ele>923</ele>
        <time>2018-07-17T10:24:15Z</time>
      </trkpt>
      <trkpt lat="44.29113" lon="5.67301">
        <ele>922</ele>
        <time>2018-07-17T10:24:17Z</time>
      </trkpt>
      <trkpt lat="44.29112" lon="5.67302">
        <ele>922</ele>
        <time>2018-07-17T10:24:19Z</time>
      </trkpt>
      <trkpt lat="44.29111" lon="5.67303">
        <ele>922</ele>
        <time>2018-07-17T10:24:20Z</time>
      </trkpt>
      <trkpt lat="44.2911" lon="5.67305">
        <ele>922</ele>
        <time>2018-07-17T10:24:21Z</time>
      </trkpt>
      <trkpt lat="44.2911" lon="5.67307">
        <ele>922</ele>
        <time>2018-07-17T10:24:23Z</time>
      </trkpt>
      <trkpt lat="44.29109" lon="5.67308">
        <ele>922</ele>
        <time>2018-07-17T10:24:24Z</time>
      </trkpt>
      <trkpt lat="44.29109" lon="5.6731">
        <ele>922</ele>
        <time>2018-07-17T10:24:26Z</time>
      </trkpt>
      <trkpt lat="44.2911" lon="5.6731">
        <ele>922</ele>
        <time>2018-07-17T10:24:27Z</time>
      </trkpt>
      <trkpt lat="44.29112" lon="5.6731">
        <ele>922</ele>
        <time>2018-07-17T10:24:28Z</time>
      </trkpt>
      <trkpt lat="44.29113" lon="5.6731">
        <ele>922</ele>
        <time>2018-07-17T10:24:29Z</time>
      </trkpt>
      <trkpt lat="44.29115" lon="5.67309">
        <ele>922</ele>
        <time>2018-07-17T10:24:30Z</time>
      </trkpt>
      <trkpt lat="44.29116" lon="5.67309">
        <ele>922</ele>
        <time>2018-07-17T10:24:31Z</time>
      </trkpt>
      <trkpt lat="44.29117" lon="5.67307">
        <ele>922</ele>
        <time>2018-07-17T10:24:33Z</time>
      </trkpt>
      <trkpt lat="44.29119" lon="5.67305">
        <ele>922</ele>
        <time>2018-07-17T10:24:36Z</time>
      </trkpt>
      <trkpt lat="44.29121" lon="5.67305">
        <ele>922</ele>
        <time>2018-07-17T10:24:37Z</time>
      </trkpt>
      <trkpt lat="44.29121" lon="5.67303">
        <ele>922</ele>
        <time>2018-07-17T10:24:39Z</time>
      </trkpt>
      <trkpt lat="44.29123" lon="5.67303">
        <ele>922</ele>
        <time>2018-07-17T10:24:41Z</time>
      </trkpt>
      <trkpt lat="44.29125" lon="5.67304">
        <ele>922</ele>
        <time>2018-07-17T10:24:43Z</time>
      </trkpt>
      <trkpt lat="44.29127" lon="5.67305">
        <ele>922</ele>
        <time>2018-07-17T10:24:44Z</time>
      </trkpt>
      <trkpt lat="44.29128" lon="5.67305">
        <ele>922</ele>
        <time>2018-07-17T10:24:45Z</time>
      </trkpt>
      <trkpt lat="44.2913" lon="5.67306">
        <ele>922</ele>
        <time>2018-07-17T10:24:46Z</time>
      </trkpt>
      <trkpt lat="44.29132" lon="5.67306">
        <ele>922</ele>
        <time>2018-07-17T10:24:47Z</time>
      </trkpt>
      <trkpt lat="44.29134" lon="5.67307">
        <ele>922</ele>
        <time>2018-07-17T10:24:48Z</time>
      </trkpt>
      <trkpt lat="44.29135" lon="5.67307">
        <ele>922</ele>
        <time>2018-07-17T10:24:50Z</time>
      </trkpt>
      <trkpt lat="44.29137" lon="5.67307">
        <ele>922</ele>
        <time>2018-07-17T10:24:52Z</time>
      </trkpt>
      <trkpt lat="44.29139" lon="5.67308">
        <ele>922</ele>
        <time>2018-07-17T10:24:54Z</time>
      </trkpt>
      <trkpt lat="44.2914" lon="5.67307">
        <ele>922</ele>
        <time>2018-07-17T10:24:57Z</time>
      </trkpt>
      <trkpt lat="44.29142" lon="5.67306">
        <ele>922</ele>
        <time>2018-07-17T10:24:59Z</time>
      </trkpt>
      <trkpt lat="44.29144" lon="5.67306">
        <ele>922</ele>
        <time>2018-07-17T10:25:01Z</time>
      </trkpt>
      <trkpt lat="44.29145" lon="5.67306">
        <ele>922</ele>
        <time>2018-07-17T10:25:02Z</time>
      </trkpt>
      <trkpt lat="44.29147" lon="5.67307">
        <ele>922</ele>
        <time>2018-07-17T10:25:04Z</time>
      </trkpt>
      <trkpt lat="44.29149" lon="5.67307">
        <ele>922</ele>
        <time>2018-07-17T10:25:06Z</time>
      </trkpt>
      <trkpt lat="44.2915" lon="5.67307">
        <ele>922</ele>
        <time>2018-07-17T10:25:08Z</time>
      </trkpt>
      <trkpt lat="44.29152" lon="5.67307">
        <ele>922</ele>
        <time>2018-07-17T10:25:11Z</time>
      </trkpt>
      <trkpt lat="44.29153" lon="5.67307">
        <ele>921</ele>
        <time>2018-07-17T10:25:14Z</time>
      </trkpt>
      <trkpt lat="44.29156" lon="5.67307">
        <ele>920</ele>
        <time>2018-07-17T10:25:16Z</time>
      </trkpt>
      <trkpt lat="44.29157" lon="5.67305">
        <ele>918</ele>
        <time>2018-07-17T10:25:19Z</time>
      </trkpt>
      <trkpt lat="44.29157" lon="5.67303">
        <ele>918</ele>
        <time>2018-07-17T10:25:20Z</time>
      </trkpt>
      <trkpt lat="44.29157" lon="5.67299">
        <ele>918</ele>
        <time>2018-07-17T10:25:23Z</time>
      </trkpt>
      <trkpt lat="44.29157" lon="5.67298">
        <ele>918</ele>
        <time>2018-07-17T10:25:25Z</time>
      </trkpt>
      <trkpt lat="44.29158" lon="5.67296">
        <ele>917</ele>
        <time>2018-07-17T10:25:28Z</time>
      </trkpt>
      <trkpt lat="44.29158" lon="5.67294">
        <ele>916</ele>
        <time>2018-07-17T10:25:29Z</time>
      </trkpt>
      <trkpt lat="44.29158" lon="5.67292">
        <ele>916</ele>
        <time>2018-07-17T10:25:31Z</time>
      </trkpt>
      <trkpt lat="44.29159" lon="5.67291">
        <ele>915</ele>
        <time>2018-07-17T10:25:33Z</time>
      </trkpt>
      <trkpt lat="44.29158" lon="5.67288">
        <ele>915</ele>
        <time>2018-07-17T10:25:34Z</time>
      </trkpt>
      <trkpt lat="44.29158" lon="5.67287">
        <ele>914</ele>
        <time>2018-07-17T10:25:35Z</time>
      </trkpt>
      <trkpt lat="44.29159" lon="5.67285">
        <ele>914</ele>
        <time>2018-07-17T10:25:37Z</time>
      </trkpt>
      <trkpt lat="44.29159" lon="5.67282">
        <ele>913</ele>
        <time>2018-07-17T10:25:39Z</time>
      </trkpt>
      <trkpt lat="44.2916" lon="5.67281">
        <ele>913</ele>
        <time>2018-07-17T10:25:40Z</time>
      </trkpt>
      <trkpt lat="44.2916" lon="5.67278">
        <ele>913</ele>
        <time>2018-07-17T10:25:42Z</time>
      </trkpt>
      <trkpt lat="44.2916" lon="5.67276">
        <ele>913</ele>
        <time>2018-07-17T10:25:44Z</time>
      </trkpt>
      <trkpt lat="44.2916" lon="5.67274">
        <ele>912</ele>
        <time>2018-07-17T10:25:46Z</time>
      </trkpt>
      <trkpt lat="44.29161" lon="5.67272">
        <ele>912</ele>
        <time>2018-07-17T10:25:48Z</time>
      </trkpt>
      <trkpt lat="44.29161" lon="5.6727">
        <ele>911</ele>
        <time>2018-07-17T10:25:50Z</time>
      </trkpt>
      <trkpt lat="44.29161" lon="5.67268">
        <ele>911</ele>
        <time>2018-07-17T10:25:52Z</time>
      </trkpt>
      <trkpt lat="44.29161" lon="5.67266">
        <ele>910</ele>
        <time>2018-07-17T10:25:54Z</time>
      </trkpt>
      <trkpt lat="44.29162" lon="5.67264">
        <ele>909</ele>
        <time>2018-07-17T10:25:56Z</time>
      </trkpt>
      <trkpt lat="44.29162" lon="5.67262">
        <ele>909</ele>
        <time>2018-07-17T10:25:58Z</time>
      </trkpt>
      <trkpt lat="44.29163" lon="5.67259">
        <ele>909</ele>
        <time>2018-07-17T10:26:00Z</time>
      </trkpt>
      <trkpt lat="44.29162" lon="5.67257">
        <ele>909</ele>
        <time>2018-07-17T10:26:01Z</time>
      </trkpt>
      <trkpt lat="44.29161" lon="5.67256">
        <ele>909</ele>
        <time>2018-07-17T10:26:02Z</time>
      </trkpt>
      <trkpt lat="44.29161" lon="5.67254">
        <ele>909</ele>
        <time>2018-07-17T10:26:03Z</time>
      </trkpt>
      <trkpt lat="44.29161" lon="5.67253">
        <ele>909</ele>
        <time>2018-07-17T10:26:04Z</time>
      </trkpt>
      <trkpt lat="44.29162" lon="5.67251">
        <ele>909</ele>
        <time>2018-07-17T10:26:06Z</time>
      </trkpt>
      <trkpt lat="44.29163" lon="5.67249">
        <ele>909</ele>
        <time>2018-07-17T10:26:08Z</time>
      </trkpt>
      <trkpt lat="44.29161" lon="5.67246">
        <ele>909</ele>
        <time>2018-07-17T10:26:09Z</time>
      </trkpt>
      <trkpt lat="44.29163" lon="5.67245">
        <ele>909</ele>
        <time>2018-07-17T10:26:11Z</time>
      </trkpt>
      <trkpt lat="44.29165" lon="5.67243">
        <ele>909</ele>
        <time>2018-07-17T10:26:13Z</time>
      </trkpt>
      <trkpt lat="44.29166" lon="5.67241">
        <ele>909</ele>
        <time>2018-07-17T10:26:15Z</time>
      </trkpt>
      <trkpt lat="44.29166" lon="5.67238">
        <ele>908</ele>
        <time>2018-07-17T10:26:17Z</time>
      </trkpt>
      <trkpt lat="44.29164" lon="5.67233">
        <ele>908</ele>
        <time>2018-07-17T10:26:18Z</time>
      </trkpt>
      <trkpt lat="44.29166" lon="5.67233">
        <ele>907</ele>
        <time>2018-07-17T10:26:20Z</time>
      </trkpt>
      <trkpt lat="44.29167" lon="5.67232">
        <ele>907</ele>
        <time>2018-07-17T10:26:22Z</time>
      </trkpt>
      <trkpt lat="44.29168" lon="5.67231">
        <ele>905</ele>
        <time>2018-07-17T10:26:24Z</time>
      </trkpt>
      <trkpt lat="44.2917" lon="5.6723">
        <ele>904</ele>
        <time>2018-07-17T10:26:26Z</time>
      </trkpt>
      <trkpt lat="44.29171" lon="5.67227">
        <ele>903</ele>
        <time>2018-07-17T10:26:28Z</time>
      </trkpt>
      <trkpt lat="44.29172" lon="5.67227">
        <ele>903</ele>
        <time>2018-07-17T10:26:29Z</time>
      </trkpt>
      <trkpt lat="44.29173" lon="5.67225">
        <ele>902</ele>
        <time>2018-07-17T10:26:31Z</time>
      </trkpt>
      <trkpt lat="44.29174" lon="5.67223">
        <ele>901</ele>
        <time>2018-07-17T10:26:33Z</time>
      </trkpt>
      <trkpt lat="44.29174" lon="5.67222">
        <ele>900</ele>
        <time>2018-07-17T10:26:35Z</time>
      </trkpt>
      <trkpt lat="44.29175" lon="5.6722">
        <ele>900</ele>
        <time>2018-07-17T10:26:37Z</time>
      </trkpt>
      <trkpt lat="44.29176" lon="5.67218">
        <ele>899</ele>
        <time>2018-07-17T10:26:39Z</time>
      </trkpt>
      <trkpt lat="44.29177" lon="5.67216">
        <ele>899</ele>
        <time>2018-07-17T10:26:41Z</time>
      </trkpt>
      <trkpt lat="44.29178" lon="5.67214">
        <ele>898</ele>
        <time>2018-07-17T10:26:43Z</time>
      </trkpt>
      <trkpt lat="44.29179" lon="5.67213">
        <ele>898</ele>
        <time>2018-07-17T10:26:44Z</time>
      </trkpt>
      <trkpt lat="44.29179" lon="5.6721">
        <ele>898</ele>
        <time>2018-07-17T10:26:46Z</time>
      </trkpt>
      <trkpt lat="44.29179" lon="5.67209">
        <ele>898</ele>
        <time>2018-07-17T10:26:47Z</time>
      </trkpt>
      <trkpt lat="44.29179" lon="5.67207">
        <ele>898</ele>
        <time>2018-07-17T10:26:48Z</time>
      </trkpt>
      <trkpt lat="44.29179" lon="5.67205">
        <ele>898</ele>
        <time>2018-07-17T10:26:49Z</time>
      </trkpt>
      <trkpt lat="44.29179" lon="5.67204">
        <ele>898</ele>
        <time>2018-07-17T10:26:50Z</time>
      </trkpt>
      <trkpt lat="44.29179" lon="5.67202">
        <ele>897</ele>
        <time>2018-07-17T10:26:52Z</time>
      </trkpt>
      <trkpt lat="44.29179" lon="5.67199">
        <ele>897</ele>
        <time>2018-07-17T10:26:54Z</time>
      </trkpt>
      <trkpt lat="44.2918" lon="5.67197">
        <ele>897</ele>
        <time>2018-07-17T10:26:56Z</time>
      </trkpt>
      <trkpt lat="44.29181" lon="5.67195">
        <ele>897</ele>
        <time>2018-07-17T10:26:58Z</time>
      </trkpt>
      <trkpt lat="44.29181" lon="5.67193">
        <ele>897</ele>
        <time>2018-07-17T10:27:00Z</time>
      </trkpt>
      <trkpt lat="44.2918" lon="5.6719">
        <ele>897</ele>
        <time>2018-07-17T10:27:01Z</time>
      </trkpt>
      <trkpt lat="44.29181" lon="5.67189">
        <ele>897</ele>
        <time>2018-07-17T10:27:03Z</time>
      </trkpt>
      <trkpt lat="44.2918" lon="5.67185">
        <ele>897</ele>
        <time>2018-07-17T10:27:04Z</time>
      </trkpt>
      <trkpt lat="44.29179" lon="5.67183">
        <ele>897</ele>
        <time>2018-07-17T10:27:05Z</time>
      </trkpt>
      <trkpt lat="44.2918" lon="5.67181">
        <ele>897</ele>
        <time>2018-07-17T10:27:07Z</time>
      </trkpt>
      <trkpt lat="44.29181" lon="5.67179">
        <ele>897</ele>
        <time>2018-07-17T10:27:09Z</time>
      </trkpt>
      <trkpt lat="44.29181" lon="5.67177">
        <ele>897</ele>
        <time>2018-07-17T10:27:10Z</time>
      </trkpt>
      <trkpt lat="44.2918" lon="5.67175">
        <ele>897</ele>
        <time>2018-07-17T10:27:11Z</time>
      </trkpt>
      <trkpt lat="44.2918" lon="5.67173">
        <ele>897</ele>
        <time>2018-07-17T10:27:12Z</time>
      </trkpt>
      <trkpt lat="44.2918" lon="5.67171">
        <ele>897</ele>
        <time>2018-07-17T10:27:13Z</time>
      </trkpt>
      <trkpt lat="44.29179" lon="5.67169">
        <ele>897</ele>
        <time>2018-07-17T10:27:14Z</time>
      </trkpt>
      <trkpt lat="44.29181" lon="5.67168">
        <ele>897</ele>
        <time>2018-07-17T10:27:16Z</time>
      </trkpt>
      <trkpt lat="44.29181" lon="5.67166">
        <ele>897</ele>
        <time>2018-07-17T10:27:18Z</time>
      </trkpt>
      <trkpt lat="44.29182" lon="5.67166">
        <ele>897</ele>
        <time>2018-07-17T10:27:19Z</time>
      </trkpt>
      <trkpt lat="44.29183" lon="5.67165">
        <ele>897</ele>
        <time>2018-07-17T10:27:22Z</time>
      </trkpt>
      <trkpt lat="44.29183" lon="5.67164">
        <ele>897</ele>
        <time>2018-07-17T10:27:23Z</time>
      </trkpt>
      <trkpt lat="44.29181" lon="5.67163">
        <ele>897</ele>
        <time>2018-07-17T10:27:24Z</time>
      </trkpt>
      <trkpt lat="44.2918" lon="5.6716">
        <ele>897</ele>
        <time>2018-07-17T10:27:27Z</time>
      </trkpt>
      <trkpt lat="44.2918" lon="5.67159">
        <ele>897</ele>
        <time>2018-07-17T10:27:28Z</time>
      </trkpt>
      <trkpt lat="44.29179" lon="5.67157">
        <ele>897</ele>
        <time>2018-07-17T10:27:30Z</time>
      </trkpt>
      <trkpt lat="44.29177" lon="5.67155">
        <ele>897</ele>
        <time>2018-07-17T10:27:32Z</time>
      </trkpt>
      <trkpt lat="44.29176" lon="5.67153">
        <ele>897</ele>
        <time>2018-07-17T10:27:33Z</time>
      </trkpt>
      <trkpt lat="44.29174" lon="5.67151">
        <ele>897</ele>
        <time>2018-07-17T10:27:35Z</time>
      </trkpt>
      <trkpt lat="44.29173" lon="5.67149">
        <ele>897</ele>
        <time>2018-07-17T10:27:38Z</time>
      </trkpt>
      <trkpt lat="44.29171" lon="5.67147">
        <ele>897</ele>
        <time>2018-07-17T10:27:40Z</time>
      </trkpt>
      <trkpt lat="44.2917" lon="5.67146">
        <ele>898</ele>
        <time>2018-07-17T10:27:44Z</time>
      </trkpt>
      <trkpt lat="44.29168" lon="5.67144">
        <ele>898</ele>
        <time>2018-07-17T10:27:47Z</time>
      </trkpt>
      <trkpt lat="44.29167" lon="5.67143">
        <ele>898</ele>
        <time>2018-07-17T10:27:49Z</time>
      </trkpt>
      <trkpt lat="44.29166" lon="5.67142">
        <ele>898</ele>
        <time>2018-07-17T10:27:50Z</time>
      </trkpt>
      <trkpt lat="44.29164" lon="5.67141">
        <ele>898</ele>
        <time>2018-07-17T10:27:51Z</time>
      </trkpt>
      <trkpt lat="44.29163" lon="5.67139">
        <ele>899</ele>
        <time>2018-07-17T10:27:54Z</time>
      </trkpt>
      <trkpt lat="44.29161" lon="5.67138">
        <ele>899</ele>
        <time>2018-07-17T10:27:55Z</time>
      </trkpt>
      <trkpt lat="44.2916" lon="5.67137">
        <ele>899</ele>
        <time>2018-07-17T10:27:59Z</time>
      </trkpt>
      <trkpt lat="44.2916" lon="5.67136">
        <ele>899</ele>
        <time>2018-07-17T10:28:02Z</time>
      </trkpt>
      <trkpt lat="44.29159" lon="5.67134">
        <ele>899</ele>
        <time>2018-07-17T10:28:05Z</time>
      </trkpt>
      <trkpt lat="44.29158" lon="5.67132">
        <ele>899</ele>
        <time>2018-07-17T10:28:08Z</time>
      </trkpt>
      <trkpt lat="44.29157" lon="5.67131">
        <ele>899</ele>
        <time>2018-07-17T10:28:09Z</time>
      </trkpt>
      <trkpt lat="44.29155" lon="5.67128">
        <ele>899</ele>
        <time>2018-07-17T10:28:11Z</time>
      </trkpt>
      <trkpt lat="44.29154" lon="5.67127">
        <ele>899</ele>
        <time>2018-07-17T10:28:12Z</time>
      </trkpt>
      <trkpt lat="44.29153" lon="5.67126">
        <ele>895</ele>
        <time>2018-07-17T10:28:17Z</time>
      </trkpt>
      <trkpt lat="44.29152" lon="5.67125">
        <ele>894</ele>
        <time>2018-07-17T10:28:19Z</time>
      </trkpt>
      <trkpt lat="44.29152" lon="5.67122">
        <ele>894</ele>
        <time>2018-07-17T10:28:21Z</time>
      </trkpt>
      <trkpt lat="44.29151" lon="5.67121">
        <ele>894</ele>
        <time>2018-07-17T10:28:23Z</time>
      </trkpt>
      <trkpt lat="44.29153" lon="5.67122">
        <ele>894</ele>
        <time>2018-07-17T10:28:25Z</time>
      </trkpt>
      <trkpt lat="44.29154" lon="5.67124">
        <ele>892</ele>
        <time>2018-07-17T10:28:30Z</time>
      </trkpt>
      <trkpt lat="44.29155" lon="5.67125">
        <ele>891</ele>
        <time>2018-07-17T10:28:32Z</time>
      </trkpt>
      <trkpt lat="44.29155" lon="5.67124">
        <ele>890</ele>
        <time>2018-07-17T10:28:36Z</time>
      </trkpt>
      <trkpt lat="44.29155" lon="5.67122">
        <ele>890</ele>
        <time>2018-07-17T10:28:39Z</time>
      </trkpt>
      <trkpt lat="44.29155" lon="5.6712">
        <ele>890</ele>
        <time>2018-07-17T10:28:42Z</time>
      </trkpt>
      <trkpt lat="44.29154" lon="5.67116">
        <ele>890</ele>
        <time>2018-07-17T10:28:45Z</time>
      </trkpt>
      <trkpt lat="44.29155" lon="5.67115">
        <ele>890</ele>
        <time>2018-07-17T10:28:48Z</time>
      </trkpt>
      <trkpt lat="44.29157" lon="5.67116">
        <ele>890</ele>
        <time>2018-07-17T10:28:58Z</time>
      </trkpt>
      <trkpt lat="44.29158" lon="5.67118">
        <ele>890</ele>
        <time>2018-07-17T10:29:00Z</time>
      </trkpt>
      <trkpt lat="44.2916" lon="5.67118">
        <ele>888</ele>
        <time>2018-07-17T10:29:02Z</time>
      </trkpt>
      <trkpt lat="44.2916" lon="5.67116">
        <ele>887</ele>
        <time>2018-07-17T10:29:04Z</time>
      </trkpt>
      <trkpt lat="44.29158" lon="5.67116">
        <ele>887</ele>
        <time>2018-07-17T10:29:12Z</time>
      </trkpt>
      <trkpt lat="44.29158" lon="5.67119">
        <ele>885</ele>
        <time>2018-07-17T10:29:16Z</time>
      </trkpt>
      <trkpt lat="44.29157" lon="5.6712">
        <ele>883</ele>
        <time>2018-07-17T10:29:18Z</time>
      </trkpt>
      <trkpt lat="44.29156" lon="5.67118">
        <ele>883</ele>
        <time>2018-07-17T10:29:19Z</time>
      </trkpt>
      <trkpt lat="44.29158" lon="5.67119">
        <ele>882</ele>
        <time>2018-07-17T10:29:21Z</time>
      </trkpt>
      <trkpt lat="44.29158" lon="5.67121">
        <ele>882</ele>
        <time>2018-07-17T10:29:22Z</time>
      </trkpt>
      <trkpt lat="44.29155" lon="5.6712">
        <ele>882</ele>
        <time>2018-07-17T10:29:23Z</time>
      </trkpt>
      <trkpt lat="44.29153" lon="5.67121">
        <ele>882</ele>
        <time>2018-07-17T10:29:24Z</time>
      </trkpt>
      <trkpt lat="44.29155" lon="5.67123">
        <ele>882</ele>
        <time>2018-07-17T10:29:25Z</time>
      </trkpt>
      <trkpt lat="44.29157" lon="5.67124">
        <ele>882</ele>
        <time>2018-07-17T10:29:27Z</time>
      </trkpt>
      <trkpt lat="44.29157" lon="5.67124">
        <ele>882</ele>
        <time>2018-07-17T10:29:32Z</time>
      </trkpt>
      <trkpt lat="44.29166" lon="5.67121">
        <ele>882</ele>
        <time>2018-07-17T10:29:33Z</time>
      </trkpt>
      <trkpt lat="44.29169" lon="5.67121">
        <ele>881</ele>
        <time>2018-07-17T10:29:34Z</time>
      </trkpt>
      <trkpt lat="44.29169" lon="5.67121">
        <ele>881</ele>
        <time>2018-07-17T10:29:37Z</time>
      </trkpt>
      <trkpt lat="44.29167" lon="5.67122">
        <ele>881</ele>
        <time>2018-07-17T10:29:39Z</time>
      </trkpt>
      <trkpt lat="44.29166" lon="5.67123">
        <ele>881</ele>
        <time>2018-07-17T10:29:40Z</time>
      </trkpt>
      <trkpt lat="44.29164" lon="5.67121">
        <ele>881</ele>
        <time>2018-07-17T10:29:41Z</time>
      </trkpt>
      <trkpt lat="44.29163" lon="5.67121">
        <ele>881</ele>
        <time>2018-07-17T10:29:42Z</time>
      </trkpt>
      <trkpt lat="44.29159" lon="5.67115">
        <ele>881</ele>
        <time>2018-07-17T10:29:45Z</time>
      </trkpt>
      <trkpt lat="44.29156" lon="5.67114">
        <ele>881</ele>
        <time>2018-07-17T10:29:47Z</time>
      </trkpt>
      <trkpt lat="44.29153" lon="5.67114">
        <ele>891</ele>
        <time>2018-07-17T10:29:59Z</time>
      </trkpt>
      <trkpt lat="44.29152" lon="5.67113">
        <ele>892</ele>
        <time>2018-07-17T10:30:00Z</time>
      </trkpt>
      <trkpt lat="44.29153" lon="5.67114">
        <ele>893</ele>
        <time>2018-07-17T10:30:01Z</time>
      </trkpt>
      <trkpt lat="44.29155" lon="5.67115">
        <ele>893</ele>
        <time>2018-07-17T10:30:02Z</time>
      </trkpt>
      <trkpt lat="44.29155" lon="5.67117">
        <ele>893</ele>
        <time>2018-07-17T10:30:04Z</time>
      </trkpt>
      <trkpt lat="44.29154" lon="5.67115">
        <ele>893</ele>
        <time>2018-07-17T10:30:05Z</time>
      </trkpt>
      <trkpt lat="44.29153" lon="5.67113">
        <ele>891</ele>
        <time>2018-07-17T10:30:07Z</time>
      </trkpt>
      <trkpt lat="44.29152" lon="5.67111">
        <ele>891</ele>
        <time>2018-07-17T10:30:10Z</time>
      </trkpt>
      <trkpt lat="44.29151" lon="5.6711">
        <ele>891</ele>
        <time>2018-07-17T10:30:12Z</time>
      </trkpt>
      <trkpt lat="44.29151" lon="5.67107">
        <ele>891</ele>
        <time>2018-07-17T10:30:14Z</time>
      </trkpt>
      <trkpt lat="44.2915" lon="5.67105">
        <ele>891</ele>
        <time>2018-07-17T10:30:15Z</time>
      </trkpt>
      <trkpt lat="44.2915" lon="5.67103">
        <ele>891</ele>
        <time>2018-07-17T10:30:18Z</time>
      </trkpt>
      <trkpt lat="44.2915" lon="5.67102">
        <ele>891</ele>
        <time>2018-07-17T10:30:20Z</time>
      </trkpt>
      <trkpt lat="44.2915" lon="5.671">
        <ele>891</ele>
        <time>2018-07-17T10:30:22Z</time>
      </trkpt>
      <trkpt lat="44.2915" lon="5.67099">
        <ele>891</ele>
        <time>2018-07-17T10:30:24Z</time>
      </trkpt>
      <trkpt lat="44.29149" lon="5.67097">
        <ele>890</ele>
        <time>2018-07-17T10:30:26Z</time>
      </trkpt>
      <trkpt lat="44.29149" lon="5.67095">
        <ele>890</ele>
        <time>2018-07-17T10:30:27Z</time>
      </trkpt>
      <trkpt lat="44.29148" lon="5.67094">
        <ele>889</ele>
        <time>2018-07-17T10:30:29Z</time>
      </trkpt>
      <trkpt lat="44.29148" lon="5.67092">
        <ele>889</ele>
        <time>2018-07-17T10:30:31Z</time>
      </trkpt>
      <trkpt lat="44.29147" lon="5.6709">
        <ele>889</ele>
        <time>2018-07-17T10:30:32Z</time>
      </trkpt>
      <trkpt lat="44.29146" lon="5.67088">
        <ele>888</ele>
        <time>2018-07-17T10:30:34Z</time>
      </trkpt>
      <trkpt lat="44.29145" lon="5.67086">
        <ele>888</ele>
        <time>2018-07-17T10:30:37Z</time>
      </trkpt>
      <trkpt lat="44.29144" lon="5.67084">
        <ele>888</ele>
        <time>2018-07-17T10:30:39Z</time>
      </trkpt>
      <trkpt lat="44.29142" lon="5.67082">
        <ele>888</ele>
        <time>2018-07-17T10:30:41Z</time>
      </trkpt>
      <trkpt lat="44.29141" lon="5.6708">
        <ele>888</ele>
        <time>2018-07-17T10:30:42Z</time>
      </trkpt>
      <trkpt lat="44.29139" lon="5.67079">
        <ele>888</ele>
        <time>2018-07-17T10:30:44Z</time>
      </trkpt>
      <trkpt lat="44.29138" lon="5.67077">
        <ele>888</ele>
        <time>2018-07-17T10:30:46Z</time>
      </trkpt>
      <trkpt lat="44.29136" lon="5.67076">
        <ele>888</ele>
        <time>2018-07-17T10:30:48Z</time>
      </trkpt>
      <trkpt lat="44.29135" lon="5.67075">
        <ele>888</ele>
        <time>2018-07-17T10:30:50Z</time>
      </trkpt>
      <trkpt lat="44.29133" lon="5.67074">
        <ele>888</ele>
        <time>2018-07-17T10:30:52Z</time>
      </trkpt>
      <trkpt lat="44.29132" lon="5.67073">
        <ele>888</ele>
        <time>2018-07-17T10:30:54Z</time>
      </trkpt>
      <trkpt lat="44.2913" lon="5.67071">
        <ele>888</ele>
        <time>2018-07-17T10:30:56Z</time>
      </trkpt>
      <trkpt lat="44.29128" lon="5.6707">
        <ele>888</ele>
        <time>2018-07-17T10:30:58Z</time>
      </trkpt>
      <trkpt lat="44.29126" lon="5.67069">
        <ele>888</ele>
        <time>2018-07-17T10:31:00Z</time>
      </trkpt>
      <trkpt lat="44.29124" lon="5.67069">
        <ele>888</ele>
        <time>2018-07-17T10:31:02Z</time>
      </trkpt>
      <trkpt lat="44.29123" lon="5.67067">
        <ele>887</ele>
        <time>2018-07-17T10:31:04Z</time>
      </trkpt>
      <trkpt lat="44.29121" lon="5.67066">
        <ele>886</ele>
        <time>2018-07-17T10:31:06Z</time>
      </trkpt>
      <trkpt lat="44.2912" lon="5.67064">
        <ele>886</ele>
        <time>2018-07-17T10:31:08Z</time>
      </trkpt>
      <trkpt lat="44.29118" lon="5.67064">
        <ele>886</ele>
        <time>2018-07-17T10:31:10Z</time>
      </trkpt>
      <trkpt lat="44.29116" lon="5.67062">
        <ele>886</ele>
        <time>2018-07-17T10:31:12Z</time>
      </trkpt>
      <trkpt lat="44.29114" lon="5.67061">
        <ele>886</ele>
        <time>2018-07-17T10:31:14Z</time>
      </trkpt>
      <trkpt lat="44.29112" lon="5.6706">
        <ele>885</ele>
        <time>2018-07-17T10:31:16Z</time>
      </trkpt>
      <trkpt lat="44.2911" lon="5.67058">
        <ele>885</ele>
        <time>2018-07-17T10:31:18Z</time>
      </trkpt>
      <trkpt lat="44.29109" lon="5.67057">
        <ele>884</ele>
        <time>2018-07-17T10:31:20Z</time>
      </trkpt>
      <trkpt lat="44.29108" lon="5.67055">
        <ele>884</ele>
        <time>2018-07-17T10:31:22Z</time>
      </trkpt>
      <trkpt lat="44.29107" lon="5.67054">
        <ele>884</ele>
        <time>2018-07-17T10:31:24Z</time>
      </trkpt>
      <trkpt lat="44.29105" lon="5.67052">
        <ele>884</ele>
        <time>2018-07-17T10:31:26Z</time>
      </trkpt>
      <trkpt lat="44.29104" lon="5.6705">
        <ele>883</ele>
        <time>2018-07-17T10:31:28Z</time>
      </trkpt>
      <trkpt lat="44.29103" lon="5.67049">
        <ele>883</ele>
        <time>2018-07-17T10:31:30Z</time>
      </trkpt>
      <trkpt lat="44.29102" lon="5.67047">
        <ele>882</ele>
        <time>2018-07-17T10:31:33Z</time>
      </trkpt>
      <trkpt lat="44.291" lon="5.67045">
        <ele>882</ele>
        <time>2018-07-17T10:31:35Z</time>
      </trkpt>
      <trkpt lat="44.29099" lon="5.67043">
        <ele>881</ele>
        <time>2018-07-17T10:31:38Z</time>
      </trkpt>
      <trkpt lat="44.29098" lon="5.67042">
        <ele>881</ele>
        <time>2018-07-17T10:31:40Z</time>
      </trkpt>
      <trkpt lat="44.29097" lon="5.6704">
        <ele>881</ele>
        <time>2018-07-17T10:31:42Z</time>
      </trkpt>
      <trkpt lat="44.29095" lon="5.67039">
        <ele>881</ele>
        <time>2018-07-17T10:31:44Z</time>
      </trkpt>
      <trkpt lat="44.29094" lon="5.67037">
        <ele>880</ele>
        <time>2018-07-17T10:31:46Z</time>
      </trkpt>
      <trkpt lat="44.29093" lon="5.67035">
        <ele>880</ele>
        <time>2018-07-17T10:31:48Z</time>
      </trkpt>
      <trkpt lat="44.29091" lon="5.67034">
        <ele>879</ele>
        <time>2018-07-17T10:31:50Z</time>
      </trkpt>
      <trkpt lat="44.29089" lon="5.67033">
        <ele>879</ele>
        <time>2018-07-17T10:31:52Z</time>
      </trkpt>
      <trkpt lat="44.29089" lon="5.67031">
        <ele>879</ele>
        <time>2018-07-17T10:31:54Z</time>
      </trkpt>
      <trkpt lat="44.29087" lon="5.6703">
        <ele>879</ele>
        <time>2018-07-17T10:31:56Z</time>
      </trkpt>
      <trkpt lat="44.29086" lon="5.67029">
        <ele>878</ele>
        <time>2018-07-17T10:31:58Z</time>
      </trkpt>
      <trkpt lat="44.29084" lon="5.67028">
        <ele>878</ele>
        <time>2018-07-17T10:32:00Z</time>
      </trkpt>
      <trkpt lat="44.29083" lon="5.67027">
        <ele>878</ele>
        <time>2018-07-17T10:32:02Z</time>
      </trkpt>
      <trkpt lat="44.29082" lon="5.67025">
        <ele>878</ele>
        <time>2018-07-17T10:32:04Z</time>
      </trkpt>
      <trkpt lat="44.29081" lon="5.67023">
        <ele>878</ele>
        <time>2018-07-17T10:32:05Z</time>
      </trkpt>
      <trkpt lat="44.2908" lon="5.67022">
        <ele>878</ele>
        <time>2018-07-17T10:32:07Z</time>
      </trkpt>
      <trkpt lat="44.29079" lon="5.67019">
        <ele>878</ele>
        <time>2018-07-17T10:32:09Z</time>
      </trkpt>
      <trkpt lat="44.29078" lon="5.67017">
        <ele>878</ele>
        <time>2018-07-17T10:32:11Z</time>
      </trkpt>
      <trkpt lat="44.29077" lon="5.67015">
        <ele>878</ele>
        <time>2018-07-17T10:32:12Z</time>
      </trkpt>
      <trkpt lat="44.29076" lon="5.67013">
        <ele>878</ele>
        <time>2018-07-17T10:32:14Z</time>
      </trkpt>
      <trkpt lat="44.29075" lon="5.67012">
        <ele>878</ele>
        <time>2018-07-17T10:32:16Z</time>
      </trkpt>
      <trkpt lat="44.29075" lon="5.6701">
        <ele>878</ele>
        <time>2018-07-17T10:32:18Z</time>
      </trkpt>
      <trkpt lat="44.29074" lon="5.67008">
        <ele>878</ele>
        <time>2018-07-17T10:32:20Z</time>
      </trkpt>
      <trkpt lat="44.29074" lon="5.67008">
        <ele>881</ele>
        <time>2018-07-17T10:32:30Z</time>
      </trkpt>
      <trkpt lat="44.29075" lon="5.67007">
        <ele>882</ele>
        <time>2018-07-17T10:32:33Z</time>
      </trkpt>
      <trkpt lat="44.29075" lon="5.67005">
        <ele>882</ele>
        <time>2018-07-17T10:32:37Z</time>
      </trkpt>
      <trkpt lat="44.29074" lon="5.67003">
        <ele>882</ele>
        <time>2018-07-17T10:32:39Z</time>
      </trkpt>
      <trkpt lat="44.29073" lon="5.67002">
        <ele>882</ele>
        <time>2018-07-17T10:32:41Z</time>
      </trkpt>
      <trkpt lat="44.29074" lon="5.67">
        <ele>882</ele>
        <time>2018-07-17T10:32:43Z</time>
      </trkpt>
      <trkpt lat="44.29075" lon="5.67">
        <ele>882</ele>
        <time>2018-07-17T10:32:44Z</time>
      </trkpt>
      <trkpt lat="44.29074" lon="5.66998">
        <ele>882</ele>
        <time>2018-07-17T10:32:45Z</time>
      </trkpt>
      <trkpt lat="44.29073" lon="5.66996">
        <ele>883</ele>
        <time>2018-07-17T10:32:47Z</time>
      </trkpt>
      <trkpt lat="44.29072" lon="5.66995">
        <ele>883</ele>
        <time>2018-07-17T10:32:49Z</time>
      </trkpt>
      <trkpt lat="44.29072" lon="5.66993">
        <ele>883</ele>
        <time>2018-07-17T10:32:51Z</time>
      </trkpt>
      <trkpt lat="44.29071" lon="5.66991">
        <ele>883</ele>
        <time>2018-07-17T10:32:53Z</time>
      </trkpt>
      <trkpt lat="44.29069" lon="5.66989">
        <ele>883</ele>
        <time>2018-07-17T10:32:55Z</time>
      </trkpt>
      <trkpt lat="44.29068" lon="5.66987">
        <ele>883</ele>
        <time>2018-07-17T10:32:56Z</time>
      </trkpt>
      <trkpt lat="44.29068" lon="5.66985">
        <ele>884</ele>
        <time>2018-07-17T10:32:57Z</time>
      </trkpt>
      <trkpt lat="44.29068" lon="5.66984">
        <ele>884</ele>
        <time>2018-07-17T10:32:58Z</time>
      </trkpt>
      <trkpt lat="44.29067" lon="5.66981">
        <ele>885</ele>
        <time>2018-07-17T10:33:00Z</time>
      </trkpt>
      <trkpt lat="44.29054" lon="5.66963">
        <ele>867</ele>
        <time>2018-07-17T10:33:03Z</time>
      </trkpt>
      <trkpt lat="44.29053" lon="5.66961">
        <ele>869</ele>
        <time>2018-07-17T10:33:05Z</time>
      </trkpt>
      <trkpt lat="44.29052" lon="5.66959">
        <ele>871</ele>
        <time>2018-07-17T10:33:07Z</time>
      </trkpt>
      <trkpt lat="44.29051" lon="5.66956">
        <ele>873</ele>
        <time>2018-07-17T10:33:09Z</time>
      </trkpt>
      <trkpt lat="44.2905" lon="5.66954">
        <ele>873</ele>
        <time>2018-07-17T10:33:11Z</time>
      </trkpt>
      <trkpt lat="44.29049" lon="5.66952">
        <ele>873</ele>
        <time>2018-07-17T10:33:13Z</time>
      </trkpt>
      <trkpt lat="44.29048" lon="5.6695">
        <ele>873</ele>
        <time>2018-07-17T10:33:15Z</time>
      </trkpt>
      <trkpt lat="44.29047" lon="5.66947">
        <ele>873</ele>
        <time>2018-07-17T10:33:17Z</time>
      </trkpt>
      <trkpt lat="44.29047" lon="5.66945">
        <ele>873</ele>
        <time>2018-07-17T10:33:18Z</time>
      </trkpt>
      <trkpt lat="44.29047" lon="5.66943">
        <ele>873</ele>
        <time>2018-07-17T10:33:20Z</time>
      </trkpt>
      <trkpt lat="44.29046" lon="5.66941">
        <ele>873</ele>
        <time>2018-07-17T10:33:21Z</time>
      </trkpt>
      <trkpt lat="44.29046" lon="5.6694">
        <ele>873</ele>
        <time>2018-07-17T10:33:22Z</time>
      </trkpt>
      <trkpt lat="44.29047" lon="5.66937">
        <ele>873</ele>
        <time>2018-07-17T10:33:24Z</time>
      </trkpt>
      <trkpt lat="44.29048" lon="5.66937">
        <ele>873</ele>
        <time>2018-07-17T10:33:26Z</time>
      </trkpt>
      <trkpt lat="44.29049" lon="5.66937">
        <ele>873</ele>
        <time>2018-07-17T10:33:28Z</time>
      </trkpt>
      <trkpt lat="44.29051" lon="5.66938">
        <ele>873</ele>
        <time>2018-07-17T10:33:30Z</time>
      </trkpt>
      <trkpt lat="44.29052" lon="5.6694">
        <ele>872</ele>
        <time>2018-07-17T10:33:32Z</time>
      </trkpt>
      <trkpt lat="44.29053" lon="5.66942">
        <ele>872</ele>
        <time>2018-07-17T10:33:34Z</time>
      </trkpt>
      <trkpt lat="44.29054" lon="5.66943">
        <ele>871</ele>
        <time>2018-07-17T10:33:36Z</time>
      </trkpt>
      <trkpt lat="44.29055" lon="5.66945">
        <ele>871</ele>
        <time>2018-07-17T10:33:38Z</time>
      </trkpt>
      <trkpt lat="44.29057" lon="5.66947">
        <ele>871</ele>
        <time>2018-07-17T10:33:40Z</time>
      </trkpt>
      <trkpt lat="44.29058" lon="5.66949">
        <ele>870</ele>
        <time>2018-07-17T10:33:42Z</time>
      </trkpt>
      <trkpt lat="44.29059" lon="5.66951">
        <ele>870</ele>
        <time>2018-07-17T10:33:44Z</time>
      </trkpt>
      <trkpt lat="44.2906" lon="5.66952">
        <ele>870</ele>
        <time>2018-07-17T10:33:46Z</time>
      </trkpt>
      <trkpt lat="44.29062" lon="5.66953">
        <ele>869</ele>
        <time>2018-07-17T10:33:48Z</time>
      </trkpt>
      <trkpt lat="44.29063" lon="5.66954">
        <ele>869</ele>
        <time>2018-07-17T10:33:50Z</time>
      </trkpt>
      <trkpt lat="44.29065" lon="5.66955">
        <ele>868</ele>
        <time>2018-07-17T10:33:52Z</time>
      </trkpt>
      <trkpt lat="44.29067" lon="5.66956">
        <ele>867</ele>
        <time>2018-07-17T10:33:54Z</time>
      </trkpt>
      <trkpt lat="44.29068" lon="5.66957">
        <ele>866</ele>
        <time>2018-07-17T10:33:56Z</time>
      </trkpt>
      <trkpt lat="44.29071" lon="5.66957">
        <ele>866</ele>
        <time>2018-07-17T10:33:58Z</time>
      </trkpt>
      <trkpt lat="44.29072" lon="5.66957">
        <ele>865</ele>
        <time>2018-07-17T10:33:59Z</time>
      </trkpt>
      <trkpt lat="44.29073" lon="5.66958">
        <ele>865</ele>
        <time>2018-07-17T10:34:01Z</time>
      </trkpt>
      <trkpt lat="44.29075" lon="5.66958">
        <ele>865</ele>
        <time>2018-07-17T10:34:03Z</time>
      </trkpt>
      <trkpt lat="44.29076" lon="5.66959">
        <ele>864</ele>
        <time>2018-07-17T10:34:04Z</time>
      </trkpt>
      <trkpt lat="44.29078" lon="5.66958">
        <ele>863</ele>
        <time>2018-07-17T10:34:06Z</time>
      </trkpt>
      <trkpt lat="44.29079" lon="5.66958">
        <ele>863</ele>
        <time>2018-07-17T10:34:08Z</time>
      </trkpt>
      <trkpt lat="44.29081" lon="5.66958">
        <ele>862</ele>
        <time>2018-07-17T10:34:10Z</time>
      </trkpt>
      <trkpt lat="44.29082" lon="5.66958">
        <ele>862</ele>
        <time>2018-07-17T10:34:11Z</time>
      </trkpt>
      <trkpt lat="44.29084" lon="5.66958">
        <ele>861</ele>
        <time>2018-07-17T10:34:13Z</time>
      </trkpt>
      <trkpt lat="44.29085" lon="5.66958">
        <ele>860</ele>
        <time>2018-07-17T10:34:14Z</time>
      </trkpt>
      <trkpt lat="44.29086" lon="5.66959">
        <ele>860</ele>
        <time>2018-07-17T10:34:15Z</time>
      </trkpt>
      <trkpt lat="44.29087" lon="5.66959">
        <ele>860</ele>
        <time>2018-07-17T10:34:16Z</time>
      </trkpt>
      <trkpt lat="44.29089" lon="5.66959">
        <ele>859</ele>
        <time>2018-07-17T10:34:17Z</time>
      </trkpt>
      <trkpt lat="44.29091" lon="5.6696">
        <ele>858</ele>
        <time>2018-07-17T10:34:19Z</time>
      </trkpt>
      <trkpt lat="44.29092" lon="5.66961">
        <ele>858</ele>
        <time>2018-07-17T10:34:20Z</time>
      </trkpt>
      <trkpt lat="44.29094" lon="5.66961">
        <ele>858</ele>
        <time>2018-07-17T10:34:22Z</time>
      </trkpt>
      <trkpt lat="44.29095" lon="5.6696">
        <ele>858</ele>
        <time>2018-07-17T10:34:24Z</time>
      </trkpt>
      <trkpt lat="44.29097" lon="5.6696">
        <ele>858</ele>
        <time>2018-07-17T10:34:26Z</time>
      </trkpt>
      <trkpt lat="44.29098" lon="5.66959">
        <ele>858</ele>
        <time>2018-07-17T10:34:28Z</time>
      </trkpt>
      <trkpt lat="44.29099" lon="5.66959">
        <ele>858</ele>
        <time>2018-07-17T10:34:37Z</time>
      </trkpt>
      <trkpt lat="44.29101" lon="5.66958">
        <ele>859</ele>
        <time>2018-07-17T10:34:40Z</time>
      </trkpt>
      <trkpt lat="44.29102" lon="5.66958">
        <ele>859</ele>
        <time>2018-07-17T10:34:42Z</time>
      </trkpt>
      <trkpt lat="44.29103" lon="5.66959">
        <ele>859</ele>
        <time>2018-07-17T10:34:44Z</time>
      </trkpt>
      <trkpt lat="44.29105" lon="5.66959">
        <ele>859</ele>
        <time>2018-07-17T10:34:46Z</time>
      </trkpt>
      <trkpt lat="44.29106" lon="5.66959">
        <ele>859</ele>
        <time>2018-07-17T10:34:48Z</time>
      </trkpt>
      <trkpt lat="44.29108" lon="5.66959">
        <ele>859</ele>
        <time>2018-07-17T10:34:50Z</time>
      </trkpt>
      <trkpt lat="44.2911" lon="5.66959">
        <ele>859</ele>
        <time>2018-07-17T10:34:52Z</time>
      </trkpt>
      <trkpt lat="44.29111" lon="5.66959">
        <ele>859</ele>
        <time>2018-07-17T10:34:54Z</time>
      </trkpt>
      <trkpt lat="44.29113" lon="5.66958">
        <ele>858</ele>
        <time>2018-07-17T10:34:56Z</time>
      </trkpt>
      <trkpt lat="44.29114" lon="5.66958">
        <ele>857</ele>
        <time>2018-07-17T10:34:58Z</time>
      </trkpt>
      <trkpt lat="44.29116" lon="5.66958">
        <ele>856</ele>
        <time>2018-07-17T10:35:00Z</time>
      </trkpt>
      <trkpt lat="44.29117" lon="5.66957">
        <ele>855</ele>
        <time>2018-07-17T10:35:02Z</time>
      </trkpt>
      <trkpt lat="44.29118" lon="5.66956">
        <ele>854</ele>
        <time>2018-07-17T10:35:04Z</time>
      </trkpt>
      <trkpt lat="44.29121" lon="5.66955">
        <ele>854</ele>
        <time>2018-07-17T10:35:06Z</time>
      </trkpt>
      <trkpt lat="44.29122" lon="5.66955">
        <ele>854</ele>
        <time>2018-07-17T10:35:08Z</time>
      </trkpt>
      <trkpt lat="44.29123" lon="5.66956">
        <ele>854</ele>
        <time>2018-07-17T10:35:10Z</time>
      </trkpt>
      <trkpt lat="44.29124" lon="5.66956">
        <ele>854</ele>
        <time>2018-07-17T10:35:12Z</time>
      </trkpt>
      <trkpt lat="44.29125" lon="5.66958">
        <ele>854</ele>
        <time>2018-07-17T10:35:15Z</time>
      </trkpt>
      <trkpt lat="44.29126" lon="5.66956">
        <ele>854</ele>
        <time>2018-07-17T10:35:21Z</time>
      </trkpt>
      <trkpt lat="44.29128" lon="5.66955">
        <ele>854</ele>
        <time>2018-07-17T10:35:23Z</time>
      </trkpt>
      <trkpt lat="44.29129" lon="5.66954">
        <ele>854</ele>
        <time>2018-07-17T10:35:26Z</time>
      </trkpt>
      <trkpt lat="44.29131" lon="5.66954">
        <ele>854</ele>
        <time>2018-07-17T10:35:29Z</time>
      </trkpt>
      <trkpt lat="44.29133" lon="5.66953">
        <ele>854</ele>
        <time>2018-07-17T10:35:31Z</time>
      </trkpt>
      <trkpt lat="44.29134" lon="5.66953">
        <ele>854</ele>
        <time>2018-07-17T10:35:33Z</time>
      </trkpt>
      <trkpt lat="44.29136" lon="5.66953">
        <ele>854</ele>
        <time>2018-07-17T10:35:34Z</time>
      </trkpt>
      <trkpt lat="44.29137" lon="5.66953">
        <ele>854</ele>
        <time>2018-07-17T10:35:35Z</time>
      </trkpt>
      <trkpt lat="44.29139" lon="5.66954">
        <ele>854</ele>
        <time>2018-07-17T10:35:37Z</time>
      </trkpt>
      <trkpt lat="44.2914" lon="5.66953">
        <ele>854</ele>
        <time>2018-07-17T10:35:39Z</time>
      </trkpt>
      <trkpt lat="44.29142" lon="5.66954">
        <ele>854</ele>
        <time>2018-07-17T10:35:42Z</time>
      </trkpt>
      <trkpt lat="44.29144" lon="5.66954">
        <ele>854</ele>
        <time>2018-07-17T10:35:44Z</time>
      </trkpt>
      <trkpt lat="44.29145" lon="5.66953">
        <ele>854</ele>
        <time>2018-07-17T10:35:46Z</time>
      </trkpt>
      <trkpt lat="44.29147" lon="5.66953">
        <ele>854</ele>
        <time>2018-07-17T10:35:48Z</time>
      </trkpt>
      <trkpt lat="44.29148" lon="5.66953">
        <ele>854</ele>
        <time>2018-07-17T10:35:50Z</time>
      </trkpt>
      <trkpt lat="44.2915" lon="5.66952">
        <ele>854</ele>
        <time>2018-07-17T10:35:52Z</time>
      </trkpt>
      <trkpt lat="44.29152" lon="5.66953">
        <ele>854</ele>
        <time>2018-07-17T10:35:54Z</time>
      </trkpt>
      <trkpt lat="44.29153" lon="5.66953">
        <ele>854</ele>
        <time>2018-07-17T10:35:56Z</time>
      </trkpt>
      <trkpt lat="44.29155" lon="5.66953">
        <ele>853</ele>
        <time>2018-07-17T10:35:58Z</time>
      </trkpt>
      <trkpt lat="44.29156" lon="5.66955">
        <ele>853</ele>
        <time>2018-07-17T10:36:00Z</time>
      </trkpt>
      <trkpt lat="44.29157" lon="5.66956">
        <ele>852</ele>
        <time>2018-07-17T10:36:02Z</time>
      </trkpt>
      <trkpt lat="44.29158" lon="5.66958">
        <ele>851</ele>
        <time>2018-07-17T10:36:04Z</time>
      </trkpt>
      <trkpt lat="44.29159" lon="5.66958">
        <ele>851</ele>
        <time>2018-07-17T10:36:05Z</time>
      </trkpt>
      <trkpt lat="44.29161" lon="5.6696">
        <ele>851</ele>
        <time>2018-07-17T10:36:07Z</time>
      </trkpt>
      <trkpt lat="44.29162" lon="5.66962">
        <ele>851</ele>
        <time>2018-07-17T10:36:09Z</time>
      </trkpt>
      <trkpt lat="44.29163" lon="5.66964">
        <ele>851</ele>
        <time>2018-07-17T10:36:11Z</time>
      </trkpt>
      <trkpt lat="44.29165" lon="5.66966">
        <ele>851</ele>
        <time>2018-07-17T10:36:13Z</time>
      </trkpt>
      <trkpt lat="44.29166" lon="5.66968">
        <ele>851</ele>
        <time>2018-07-17T10:36:15Z</time>
      </trkpt>
      <trkpt lat="44.29166" lon="5.6697">
        <ele>851</ele>
        <time>2018-07-17T10:36:16Z</time>
      </trkpt>
      <trkpt lat="44.29166" lon="5.66971">
        <ele>851</ele>
        <time>2018-07-17T10:36:17Z</time>
      </trkpt>
      <trkpt lat="44.29167" lon="5.66973">
        <ele>851</ele>
        <time>2018-07-17T10:36:19Z</time>
      </trkpt>
      <trkpt lat="44.29168" lon="5.66975">
        <ele>851</ele>
        <time>2018-07-17T10:36:21Z</time>
      </trkpt>
      <trkpt lat="44.29169" lon="5.66978">
        <ele>851</ele>
        <time>2018-07-17T10:36:23Z</time>
      </trkpt>
      <trkpt lat="44.29169" lon="5.6698">
        <ele>850</ele>
        <time>2018-07-17T10:36:25Z</time>
      </trkpt>
      <trkpt lat="44.29171" lon="5.66981">
        <ele>848</ele>
        <time>2018-07-17T10:36:27Z</time>
      </trkpt>
      <trkpt lat="44.29172" lon="5.66982">
        <ele>847</ele>
        <time>2018-07-17T10:36:29Z</time>
      </trkpt>
      <trkpt lat="44.29173" lon="5.66983">
        <ele>847</ele>
        <time>2018-07-17T10:36:31Z</time>
      </trkpt>
      <trkpt lat="44.29174" lon="5.66983">
        <ele>847</ele>
        <time>2018-07-17T10:36:35Z</time>
      </trkpt>
      <trkpt lat="44.29176" lon="5.66983">
        <ele>849</ele>
        <time>2018-07-17T10:36:38Z</time>
      </trkpt>
      <trkpt lat="44.29178" lon="5.66984">
        <ele>849</ele>
        <time>2018-07-17T10:36:40Z</time>
      </trkpt>
      <trkpt lat="44.29179" lon="5.66984">
        <ele>849</ele>
        <time>2018-07-17T10:36:42Z</time>
      </trkpt>
      <trkpt lat="44.2918" lon="5.66983">
        <ele>849</ele>
        <time>2018-07-17T10:36:44Z</time>
      </trkpt>
      <trkpt lat="44.29181" lon="5.66981">
        <ele>849</ele>
        <time>2018-07-17T10:36:46Z</time>
      </trkpt>
      <trkpt lat="44.29182" lon="5.66978">
        <ele>850</ele>
        <time>2018-07-17T10:36:51Z</time>
      </trkpt>
      <trkpt lat="44.29183" lon="5.66977">
        <ele>850</ele>
        <time>2018-07-17T10:36:54Z</time>
      </trkpt>
      <trkpt lat="44.29183" lon="5.66975">
        <ele>850</ele>
        <time>2018-07-17T10:36:56Z</time>
      </trkpt>
      <trkpt lat="44.29184" lon="5.66973">
        <ele>850</ele>
        <time>2018-07-17T10:36:59Z</time>
      </trkpt>
      <trkpt lat="44.29184" lon="5.66971">
        <ele>850</ele>
        <time>2018-07-17T10:37:02Z</time>
      </trkpt>
      <trkpt lat="44.29185" lon="5.6697">
        <ele>850</ele>
        <time>2018-07-17T10:37:04Z</time>
      </trkpt>
      <trkpt lat="44.29185" lon="5.66967">
        <ele>850</ele>
        <time>2018-07-17T10:37:06Z</time>
      </trkpt>
      <trkpt lat="44.29186" lon="5.66965">
        <ele>850</ele>
        <time>2018-07-17T10:37:08Z</time>
      </trkpt>
      <trkpt lat="44.29186" lon="5.66964">
        <ele>850</ele>
        <time>2018-07-17T10:37:10Z</time>
      </trkpt>
      <trkpt lat="44.29187" lon="5.66962">
        <ele>850</ele>
        <time>2018-07-17T10:37:18Z</time>
      </trkpt>
      <trkpt lat="44.29188" lon="5.6696">
        <ele>849</ele>
        <time>2018-07-17T10:37:20Z</time>
      </trkpt>
      <trkpt lat="44.29189" lon="5.66959">
        <ele>849</ele>
        <time>2018-07-17T10:37:22Z</time>
      </trkpt>
      <trkpt lat="44.2919" lon="5.66957">
        <ele>848</ele>
        <time>2018-07-17T10:37:24Z</time>
      </trkpt>
      <trkpt lat="44.2919" lon="5.66955">
        <ele>848</ele>
        <time>2018-07-17T10:37:26Z</time>
      </trkpt>
      <trkpt lat="44.29192" lon="5.66954">
        <ele>847</ele>
        <time>2018-07-17T10:37:28Z</time>
      </trkpt>
      <trkpt lat="44.29193" lon="5.66952">
        <ele>847</ele>
        <time>2018-07-17T10:37:30Z</time>
      </trkpt>
      <trkpt lat="44.29195" lon="5.6695">
        <ele>847</ele>
        <time>2018-07-17T10:37:32Z</time>
      </trkpt>
      <trkpt lat="44.29196" lon="5.66948">
        <ele>847</ele>
        <time>2018-07-17T10:37:34Z</time>
      </trkpt>
      <trkpt lat="44.29197" lon="5.66946">
        <ele>847</ele>
        <time>2018-07-17T10:37:36Z</time>
      </trkpt>
      <trkpt lat="44.29198" lon="5.66944">
        <ele>847</ele>
        <time>2018-07-17T10:37:38Z</time>
      </trkpt>
      <trkpt lat="44.292" lon="5.66942">
        <ele>846</ele>
        <time>2018-07-17T10:37:40Z</time>
      </trkpt>
      <trkpt lat="44.29202" lon="5.66941">
        <ele>846</ele>
        <time>2018-07-17T10:37:42Z</time>
      </trkpt>
      <trkpt lat="44.29203" lon="5.66939">
        <ele>846</ele>
        <time>2018-07-17T10:37:44Z</time>
      </trkpt>
      <trkpt lat="44.29203" lon="5.66941">
        <ele>846</ele>
        <time>2018-07-17T10:37:46Z</time>
      </trkpt>
      <trkpt lat="44.29205" lon="5.6694">
        <ele>846</ele>
        <time>2018-07-17T10:37:51Z</time>
      </trkpt>
      <trkpt lat="44.29206" lon="5.6694">
        <ele>845</ele>
        <time>2018-07-17T10:37:53Z</time>
      </trkpt>
      <trkpt lat="44.29205" lon="5.66942">
        <ele>845</ele>
        <time>2018-07-17T10:37:57Z</time>
      </trkpt>
      <trkpt lat="44.29205" lon="5.66943">
        <ele>845</ele>
        <time>2018-07-17T10:38:00Z</time>
      </trkpt>
      <trkpt lat="44.29206" lon="5.66944">
        <ele>845</ele>
        <time>2018-07-17T10:38:05Z</time>
      </trkpt>
      <trkpt lat="44.29205" lon="5.66942">
        <ele>845</ele>
        <time>2018-07-17T10:38:16Z</time>
      </trkpt>
      <trkpt lat="44.29207" lon="5.6694">
        <ele>845</ele>
        <time>2018-07-17T10:38:18Z</time>
      </trkpt>
      <trkpt lat="44.29208" lon="5.66939">
        <ele>845</ele>
        <time>2018-07-17T10:38:20Z</time>
      </trkpt>
      <trkpt lat="44.2921" lon="5.66937">
        <ele>845</ele>
        <time>2018-07-17T10:38:23Z</time>
      </trkpt>
      <trkpt lat="44.2921" lon="5.66935">
        <ele>845</ele>
        <time>2018-07-17T10:38:25Z</time>
      </trkpt>
      <trkpt lat="44.2921" lon="5.66933">
        <ele>845</ele>
        <time>2018-07-17T10:38:27Z</time>
      </trkpt>
      <trkpt lat="44.2921" lon="5.66931">
        <ele>845</ele>
        <time>2018-07-17T10:38:29Z</time>
      </trkpt>
      <trkpt lat="44.29211" lon="5.6693">
        <ele>845</ele>
        <time>2018-07-17T10:38:32Z</time>
      </trkpt>
      <trkpt lat="44.29212" lon="5.66929">
        <ele>845</ele>
        <time>2018-07-17T10:38:35Z</time>
      </trkpt>
      <trkpt lat="44.29212" lon="5.66926">
        <ele>845</ele>
        <time>2018-07-17T10:38:39Z</time>
      </trkpt>
      <trkpt lat="44.29213" lon="5.66927">
        <ele>845</ele>
        <time>2018-07-17T10:38:43Z</time>
      </trkpt>
      <trkpt lat="44.29213" lon="5.66926">
        <ele>845</ele>
        <time>2018-07-17T10:38:47Z</time>
      </trkpt>
      <trkpt lat="44.29214" lon="5.66926">
        <ele>845</ele>
        <time>2018-07-17T10:39:01Z</time>
      </trkpt>
      <trkpt lat="44.29215" lon="5.66928">
        <ele>845</ele>
        <time>2018-07-17T10:39:04Z</time>
      </trkpt>
      <trkpt lat="44.29216" lon="5.66931">
        <ele>845</ele>
        <time>2018-07-17T10:39:06Z</time>
      </trkpt>
      <trkpt lat="44.29217" lon="5.66932">
        <ele>845</ele>
        <time>2018-07-17T10:39:08Z</time>
      </trkpt>
      <trkpt lat="44.29218" lon="5.66933">
        <ele>845</ele>
        <time>2018-07-17T10:39:10Z</time>
      </trkpt>
      <trkpt lat="44.2922" lon="5.66933">
        <ele>844</ele>
        <time>2018-07-17T10:39:12Z</time>
      </trkpt>
      <trkpt lat="44.29222" lon="5.66933">
        <ele>844</ele>
        <time>2018-07-17T10:39:14Z</time>
      </trkpt>
      <trkpt lat="44.29224" lon="5.66933">
        <ele>843</ele>
        <time>2018-07-17T10:39:16Z</time>
      </trkpt>
      <trkpt lat="44.29225" lon="5.66934">
        <ele>843</ele>
        <time>2018-07-17T10:39:17Z</time>
      </trkpt>
      <trkpt lat="44.29227" lon="5.66935">
        <ele>842</ele>
        <time>2018-07-17T10:39:19Z</time>
      </trkpt>
      <trkpt lat="44.29229" lon="5.66936">
        <ele>841</ele>
        <time>2018-07-17T10:39:21Z</time>
      </trkpt>
      <trkpt lat="44.2923" lon="5.66938">
        <ele>841</ele>
        <time>2018-07-17T10:39:23Z</time>
      </trkpt>
      <trkpt lat="44.29232" lon="5.66939">
        <ele>840</ele>
        <time>2018-07-17T10:39:25Z</time>
      </trkpt>
      <trkpt lat="44.29234" lon="5.66939">
        <ele>840</ele>
        <time>2018-07-17T10:39:27Z</time>
      </trkpt>
      <trkpt lat="44.29236" lon="5.66941">
        <ele>839</ele>
        <time>2018-07-17T10:39:29Z</time>
      </trkpt>
      <trkpt lat="44.29237" lon="5.66942">
        <ele>838</ele>
        <time>2018-07-17T10:39:31Z</time>
      </trkpt>
      <trkpt lat="44.29239" lon="5.66943">
        <ele>838</ele>
        <time>2018-07-17T10:39:33Z</time>
      </trkpt>
      <trkpt lat="44.2924" lon="5.66944">
        <ele>837</ele>
        <time>2018-07-17T10:39:35Z</time>
      </trkpt>
      <trkpt lat="44.29242" lon="5.66944">
        <ele>837</ele>
        <time>2018-07-17T10:39:37Z</time>
      </trkpt>
      <trkpt lat="44.29243" lon="5.66945">
        <ele>836</ele>
        <time>2018-07-17T10:39:38Z</time>
      </trkpt>
      <trkpt lat="44.29245" lon="5.66945">
        <ele>836</ele>
        <time>2018-07-17T10:39:39Z</time>
      </trkpt>
      <trkpt lat="44.29247" lon="5.66945">
        <ele>836</ele>
        <time>2018-07-17T10:39:41Z</time>
      </trkpt>
      <trkpt lat="44.29248" lon="5.66946">
        <ele>835</ele>
        <time>2018-07-17T10:39:43Z</time>
      </trkpt>
      <trkpt lat="44.2925" lon="5.66947">
        <ele>835</ele>
        <time>2018-07-17T10:39:45Z</time>
      </trkpt>
      <trkpt lat="44.29251" lon="5.66947">
        <ele>834</ele>
        <time>2018-07-17T10:39:46Z</time>
      </trkpt>
      <trkpt lat="44.29253" lon="5.66948">
        <ele>834</ele>
        <time>2018-07-17T10:39:48Z</time>
      </trkpt>
      <trkpt lat="44.29255" lon="5.66948">
        <ele>833</ele>
        <time>2018-07-17T10:39:50Z</time>
      </trkpt>
      <trkpt lat="44.29257" lon="5.66949">
        <ele>833</ele>
        <time>2018-07-17T10:39:52Z</time>
      </trkpt>
      <trkpt lat="44.29258" lon="5.66949">
        <ele>832</ele>
        <time>2018-07-17T10:39:54Z</time>
      </trkpt>
      <trkpt lat="44.2926" lon="5.66951">
        <ele>832</ele>
        <time>2018-07-17T10:39:57Z</time>
      </trkpt>
      <trkpt lat="44.29262" lon="5.66951">
        <ele>832</ele>
        <time>2018-07-17T10:39:59Z</time>
      </trkpt>
      <trkpt lat="44.29264" lon="5.6695">
        <ele>832</ele>
        <time>2018-07-17T10:40:01Z</time>
      </trkpt>
      <trkpt lat="44.29266" lon="5.66949">
        <ele>831</ele>
        <time>2018-07-17T10:40:03Z</time>
      </trkpt>
      <trkpt lat="44.29267" lon="5.66948">
        <ele>831</ele>
        <time>2018-07-17T10:40:05Z</time>
      </trkpt>
      <trkpt lat="44.29269" lon="5.66948">
        <ele>831</ele>
        <time>2018-07-17T10:40:06Z</time>
      </trkpt>
      <trkpt lat="44.2927" lon="5.66948">
        <ele>831</ele>
        <time>2018-07-17T10:40:07Z</time>
      </trkpt>
      <trkpt lat="44.29272" lon="5.66947">
        <ele>831</ele>
        <time>2018-07-17T10:40:09Z</time>
      </trkpt>
      <trkpt lat="44.29274" lon="5.66946">
        <ele>831</ele>
        <time>2018-07-17T10:40:11Z</time>
      </trkpt>
      <trkpt lat="44.29275" lon="5.66946">
        <ele>831</ele>
        <time>2018-07-17T10:40:12Z</time>
      </trkpt>
      <trkpt lat="44.29276" lon="5.66945">
        <ele>831</ele>
        <time>2018-07-17T10:40:13Z</time>
      </trkpt>
      <trkpt lat="44.29277" lon="5.66945">
        <ele>831</ele>
        <time>2018-07-17T10:40:14Z</time>
      </trkpt>
      <trkpt lat="44.29279" lon="5.66944">
        <ele>831</ele>
        <time>2018-07-17T10:40:16Z</time>
      </trkpt>
      <trkpt lat="44.29282" lon="5.66943">
        <ele>831</ele>
        <time>2018-07-17T10:40:18Z</time>
      </trkpt>
      <trkpt lat="44.29284" lon="5.66943">
        <ele>831</ele>
        <time>2018-07-17T10:40:20Z</time>
      </trkpt>
      <trkpt lat="44.29285" lon="5.66943">
        <ele>831</ele>
        <time>2018-07-17T10:40:22Z</time>
      </trkpt>
      <trkpt lat="44.29287" lon="5.66942">
        <ele>831</ele>
        <time>2018-07-17T10:40:24Z</time>
      </trkpt>
      <trkpt lat="44.29289" lon="5.66942">
        <ele>831</ele>
        <time>2018-07-17T10:40:26Z</time>
      </trkpt>
      <trkpt lat="44.29291" lon="5.66942">
        <ele>831</ele>
        <time>2018-07-17T10:40:28Z</time>
      </trkpt>
      <trkpt lat="44.29293" lon="5.66942">
        <ele>831</ele>
        <time>2018-07-17T10:40:30Z</time>
      </trkpt>
      <trkpt lat="44.29294" lon="5.66942">
        <ele>831</ele>
        <time>2018-07-17T10:40:32Z</time>
      </trkpt>
      <trkpt lat="44.29296" lon="5.66942">
        <ele>831</ele>
        <time>2018-07-17T10:40:34Z</time>
      </trkpt>
      <trkpt lat="44.29297" lon="5.66942">
        <ele>831</ele>
        <time>2018-07-17T10:40:36Z</time>
      </trkpt>
      <trkpt lat="44.29298" lon="5.66943">
        <ele>831</ele>
        <time>2018-07-17T10:40:38Z</time>
      </trkpt>
      <trkpt lat="44.293" lon="5.66943">
        <ele>831</ele>
        <time>2018-07-17T10:40:42Z</time>
      </trkpt>
      <trkpt lat="44.29301" lon="5.66943">
        <ele>831</ele>
        <time>2018-07-17T10:40:52Z</time>
      </trkpt>
      <trkpt lat="44.29302" lon="5.66944">
        <ele>831</ele>
        <time>2018-07-17T10:40:54Z</time>
      </trkpt>
      <trkpt lat="44.29304" lon="5.66945">
        <ele>831</ele>
        <time>2018-07-17T10:40:56Z</time>
      </trkpt>
      <trkpt lat="44.29306" lon="5.66946">
        <ele>831</ele>
        <time>2018-07-17T10:40:58Z</time>
      </trkpt>
      <trkpt lat="44.29307" lon="5.66947">
        <ele>831</ele>
        <time>2018-07-17T10:41:00Z</time>
      </trkpt>
      <trkpt lat="44.29308" lon="5.66948">
        <ele>831</ele>
        <time>2018-07-17T10:41:02Z</time>
      </trkpt>
      <trkpt lat="44.2931" lon="5.66949">
        <ele>831</ele>
        <time>2018-07-17T10:41:04Z</time>
      </trkpt>
      <trkpt lat="44.29311" lon="5.6695">
        <ele>830</ele>
        <time>2018-07-17T10:41:06Z</time>
      </trkpt>
      <trkpt lat="44.29312" lon="5.66951">
        <ele>830</ele>
        <time>2018-07-17T10:41:07Z</time>
      </trkpt>
      <trkpt lat="44.29314" lon="5.66952">
        <ele>830</ele>
        <time>2018-07-17T10:41:09Z</time>
      </trkpt>
      <trkpt lat="44.29316" lon="5.66953">
        <ele>829</ele>
        <time>2018-07-17T10:41:11Z</time>
      </trkpt>
      <trkpt lat="44.29318" lon="5.66954">
        <ele>829</ele>
        <time>2018-07-17T10:41:13Z</time>
      </trkpt>
      <trkpt lat="44.2932" lon="5.66955">
        <ele>828</ele>
        <time>2018-07-17T10:41:15Z</time>
      </trkpt>
      <trkpt lat="44.29321" lon="5.66956">
        <ele>828</ele>
        <time>2018-07-17T10:41:17Z</time>
      </trkpt>
      <trkpt lat="44.29323" lon="5.66956">
        <ele>827</ele>
        <time>2018-07-17T10:41:19Z</time>
      </trkpt>
      <trkpt lat="44.29324" lon="5.66957">
        <ele>827</ele>
        <time>2018-07-17T10:41:21Z</time>
      </trkpt>
      <trkpt lat="44.29326" lon="5.66958">
        <ele>827</ele>
        <time>2018-07-17T10:41:23Z</time>
      </trkpt>
      <trkpt lat="44.29327" lon="5.66958">
        <ele>827</ele>
        <time>2018-07-17T10:41:24Z</time>
      </trkpt>
      <trkpt lat="44.29328" lon="5.66959">
        <ele>827</ele>
        <time>2018-07-17T10:41:25Z</time>
      </trkpt>
      <trkpt lat="44.2933" lon="5.66959">
        <ele>827</ele>
        <time>2018-07-17T10:41:27Z</time>
      </trkpt>
      <trkpt lat="44.29332" lon="5.6696">
        <ele>827</ele>
        <time>2018-07-17T10:41:29Z</time>
      </trkpt>
      <trkpt lat="44.29333" lon="5.66961">
        <ele>827</ele>
        <time>2018-07-17T10:41:30Z</time>
      </trkpt>
      <trkpt lat="44.29334" lon="5.66961">
        <ele>827</ele>
        <time>2018-07-17T10:41:32Z</time>
      </trkpt>
      <trkpt lat="44.29336" lon="5.66962">
        <ele>826</ele>
        <time>2018-07-17T10:41:34Z</time>
      </trkpt>
      <trkpt lat="44.29338" lon="5.66963">
        <ele>826</ele>
        <time>2018-07-17T10:41:36Z</time>
      </trkpt>
      <trkpt lat="44.2934" lon="5.66963">
        <ele>826</ele>
        <time>2018-07-17T10:41:38Z</time>
      </trkpt>
      <trkpt lat="44.29342" lon="5.66964">
        <ele>825</ele>
        <time>2018-07-17T10:41:40Z</time>
      </trkpt>
      <trkpt lat="44.29343" lon="5.66964">
        <ele>825</ele>
        <time>2018-07-17T10:41:41Z</time>
      </trkpt>
      <trkpt lat="44.29345" lon="5.66964">
        <ele>825</ele>
        <time>2018-07-17T10:41:43Z</time>
      </trkpt>
      <trkpt lat="44.29346" lon="5.66964">
        <ele>825</ele>
        <time>2018-07-17T10:41:45Z</time>
      </trkpt>
      <trkpt lat="44.29348" lon="5.66965">
        <ele>824</ele>
        <time>2018-07-17T10:41:46Z</time>
      </trkpt>
      <trkpt lat="44.2935" lon="5.66964">
        <ele>824</ele>
        <time>2018-07-17T10:41:48Z</time>
      </trkpt>
      <trkpt lat="44.29351" lon="5.66964">
        <ele>824</ele>
        <time>2018-07-17T10:41:50Z</time>
      </trkpt>
      <trkpt lat="44.29353" lon="5.66964">
        <ele>823</ele>
        <time>2018-07-17T10:41:52Z</time>
      </trkpt>
      <trkpt lat="44.29355" lon="5.66963">
        <ele>823</ele>
        <time>2018-07-17T10:41:53Z</time>
      </trkpt>
      <trkpt lat="44.29356" lon="5.66962">
        <ele>823</ele>
        <time>2018-07-17T10:41:55Z</time>
      </trkpt>
      <trkpt lat="44.29359" lon="5.6696">
        <ele>823</ele>
        <time>2018-07-17T10:41:57Z</time>
      </trkpt>
      <trkpt lat="44.29361" lon="5.6696">
        <ele>823</ele>
        <time>2018-07-17T10:41:58Z</time>
      </trkpt>
      <trkpt lat="44.29362" lon="5.66959">
        <ele>823</ele>
        <time>2018-07-17T10:42:00Z</time>
      </trkpt>
      <trkpt lat="44.29363" lon="5.66959">
        <ele>823</ele>
        <time>2018-07-17T10:42:07Z</time>
      </trkpt>
      <trkpt lat="44.29365" lon="5.66958">
        <ele>823</ele>
        <time>2018-07-17T10:42:09Z</time>
      </trkpt>
      <trkpt lat="44.29367" lon="5.66957">
        <ele>823</ele>
        <time>2018-07-17T10:42:11Z</time>
      </trkpt>
      <trkpt lat="44.29368" lon="5.66956">
        <ele>823</ele>
        <time>2018-07-17T10:42:13Z</time>
      </trkpt>
      <trkpt lat="44.2937" lon="5.66955">
        <ele>823</ele>
        <time>2018-07-17T10:42:15Z</time>
      </trkpt>
      <trkpt lat="44.29372" lon="5.66954">
        <ele>823</ele>
        <time>2018-07-17T10:42:17Z</time>
      </trkpt>
      <trkpt lat="44.29372" lon="5.66951">
        <ele>823</ele>
        <time>2018-07-17T10:42:19Z</time>
      </trkpt>
      <trkpt lat="44.29374" lon="5.6695">
        <ele>823</ele>
        <time>2018-07-17T10:42:21Z</time>
      </trkpt>
      <trkpt lat="44.29376" lon="5.66948">
        <ele>823</ele>
        <time>2018-07-17T10:42:23Z</time>
      </trkpt>
      <trkpt lat="44.29378" lon="5.66946">
        <ele>823</ele>
        <time>2018-07-17T10:42:25Z</time>
      </trkpt>
      <trkpt lat="44.2938" lon="5.66945">
        <ele>823</ele>
        <time>2018-07-17T10:42:27Z</time>
      </trkpt>
      <trkpt lat="44.29381" lon="5.66943">
        <ele>823</ele>
        <time>2018-07-17T10:42:29Z</time>
      </trkpt>
      <trkpt lat="44.29382" lon="5.66941">
        <ele>823</ele>
        <time>2018-07-17T10:42:31Z</time>
      </trkpt>
      <trkpt lat="44.29384" lon="5.66939">
        <ele>823</ele>
        <time>2018-07-17T10:42:33Z</time>
      </trkpt>
      <trkpt lat="44.29385" lon="5.66936">
        <ele>823</ele>
        <time>2018-07-17T10:42:35Z</time>
      </trkpt>
      <trkpt lat="44.29387" lon="5.66934">
        <ele>823</ele>
        <time>2018-07-17T10:42:37Z</time>
      </trkpt>
      <trkpt lat="44.29389" lon="5.66933">
        <ele>823</ele>
        <time>2018-07-17T10:42:39Z</time>
      </trkpt>
      <trkpt lat="44.2939" lon="5.66931">
        <ele>823</ele>
        <time>2018-07-17T10:42:41Z</time>
      </trkpt>
      <trkpt lat="44.29392" lon="5.66929">
        <ele>822</ele>
        <time>2018-07-17T10:42:43Z</time>
      </trkpt>
      <trkpt lat="44.29393" lon="5.66926">
        <ele>822</ele>
        <time>2018-07-17T10:42:45Z</time>
      </trkpt>
      <trkpt lat="44.29394" lon="5.66924">
        <ele>822</ele>
        <time>2018-07-17T10:42:47Z</time>
      </trkpt>
      <trkpt lat="44.29395" lon="5.66922">
        <ele>822</ele>
        <time>2018-07-17T10:42:49Z</time>
      </trkpt>
      <trkpt lat="44.29396" lon="5.6692">
        <ele>822</ele>
        <time>2018-07-17T10:42:51Z</time>
      </trkpt>
      <trkpt lat="44.29397" lon="5.66919">
        <ele>822</ele>
        <time>2018-07-17T10:42:52Z</time>
      </trkpt>
      <trkpt lat="44.29397" lon="5.66917">
        <ele>822</ele>
        <time>2018-07-17T10:42:53Z</time>
      </trkpt>
      <trkpt lat="44.29398" lon="5.66915">
        <ele>822</ele>
        <time>2018-07-17T10:42:55Z</time>
      </trkpt>
      <trkpt lat="44.29399" lon="5.66913">
        <ele>822</ele>
        <time>2018-07-17T10:42:56Z</time>
      </trkpt>
      <trkpt lat="44.294" lon="5.66911">
        <ele>822</ele>
        <time>2018-07-17T10:42:58Z</time>
      </trkpt>
      <trkpt lat="44.294" lon="5.66909">
        <ele>822</ele>
        <time>2018-07-17T10:42:59Z</time>
      </trkpt>
      <trkpt lat="44.29401" lon="5.66907">
        <ele>822</ele>
        <time>2018-07-17T10:43:01Z</time>
      </trkpt>
      <trkpt lat="44.29401" lon="5.66905">
        <ele>822</ele>
        <time>2018-07-17T10:43:02Z</time>
      </trkpt>
      <trkpt lat="44.29403" lon="5.66903">
        <ele>822</ele>
        <time>2018-07-17T10:43:04Z</time>
      </trkpt>
      <trkpt lat="44.29404" lon="5.66901">
        <ele>822</ele>
        <time>2018-07-17T10:43:06Z</time>
      </trkpt>
      <trkpt lat="44.29406" lon="5.66899">
        <ele>822</ele>
        <time>2018-07-17T10:43:08Z</time>
      </trkpt>
      <trkpt lat="44.29407" lon="5.66897">
        <ele>822</ele>
        <time>2018-07-17T10:43:10Z</time>
      </trkpt>
      <trkpt lat="44.29409" lon="5.66895">
        <ele>822</ele>
        <time>2018-07-17T10:43:12Z</time>
      </trkpt>
      <trkpt lat="44.2941" lon="5.66894">
        <ele>822</ele>
        <time>2018-07-17T10:43:14Z</time>
      </trkpt>
      <trkpt lat="44.29412" lon="5.66892">
        <ele>822</ele>
        <time>2018-07-17T10:43:16Z</time>
      </trkpt>
      <trkpt lat="44.29414" lon="5.66891">
        <ele>822</ele>
        <time>2018-07-17T10:43:18Z</time>
      </trkpt>
      <trkpt lat="44.29416" lon="5.6689">
        <ele>822</ele>
        <time>2018-07-17T10:43:20Z</time>
      </trkpt>
      <trkpt lat="44.29417" lon="5.6689">
        <ele>822</ele>
        <time>2018-07-17T10:43:21Z</time>
      </trkpt>
      <trkpt lat="44.29418" lon="5.66889">
        <ele>821</ele>
        <time>2018-07-17T10:43:23Z</time>
      </trkpt>
      <trkpt lat="44.2942" lon="5.66888">
        <ele>821</ele>
        <time>2018-07-17T10:43:25Z</time>
      </trkpt>
      <trkpt lat="44.29421" lon="5.66888">
        <ele>821</ele>
        <time>2018-07-17T10:43:26Z</time>
      </trkpt>
      <trkpt lat="44.29424" lon="5.66888">
        <ele>821</ele>
        <time>2018-07-17T10:43:28Z</time>
      </trkpt>
      <trkpt lat="44.29425" lon="5.66887">
        <ele>821</ele>
        <time>2018-07-17T10:43:30Z</time>
      </trkpt>
      <trkpt lat="44.29427" lon="5.66887">
        <ele>820</ele>
        <time>2018-07-17T10:43:32Z</time>
      </trkpt>
      <trkpt lat="44.29428" lon="5.66886">
        <ele>820</ele>
        <time>2018-07-17T10:43:34Z</time>
      </trkpt>
      <trkpt lat="44.2943" lon="5.66886">
        <ele>819</ele>
        <time>2018-07-17T10:43:36Z</time>
      </trkpt>
      <trkpt lat="44.29432" lon="5.66886">
        <ele>819</ele>
        <time>2018-07-17T10:43:38Z</time>
      </trkpt>
      <trkpt lat="44.29433" lon="5.66885">
        <ele>818</ele>
        <time>2018-07-17T10:43:40Z</time>
      </trkpt>
      <trkpt lat="44.29434" lon="5.66885">
        <ele>818</ele>
        <time>2018-07-17T10:43:41Z</time>
      </trkpt>
      <trkpt lat="44.29435" lon="5.66883">
        <ele>818</ele>
        <time>2018-07-17T10:43:43Z</time>
      </trkpt>
      <trkpt lat="44.29437" lon="5.66883">
        <ele>817</ele>
        <time>2018-07-17T10:43:45Z</time>
      </trkpt>
      <trkpt lat="44.29439" lon="5.66883">
        <ele>816</ele>
        <time>2018-07-17T10:43:47Z</time>
      </trkpt>
      <trkpt lat="44.29441" lon="5.66883">
        <ele>816</ele>
        <time>2018-07-17T10:43:49Z</time>
      </trkpt>
      <trkpt lat="44.29443" lon="5.66883">
        <ele>816</ele>
        <time>2018-07-17T10:43:51Z</time>
      </trkpt>
      <trkpt lat="44.29445" lon="5.66883">
        <ele>815</ele>
        <time>2018-07-17T10:43:53Z</time>
      </trkpt>
      <trkpt lat="44.29447" lon="5.66884">
        <ele>815</ele>
        <time>2018-07-17T10:43:54Z</time>
      </trkpt>
      <trkpt lat="44.29448" lon="5.66884">
        <ele>815</ele>
        <time>2018-07-17T10:43:55Z</time>
      </trkpt>
      <trkpt lat="44.29449" lon="5.66884">
        <ele>815</ele>
        <time>2018-07-17T10:43:56Z</time>
      </trkpt>
      <trkpt lat="44.29451" lon="5.66884">
        <ele>815</ele>
        <time>2018-07-17T10:43:58Z</time>
      </trkpt>
      <trkpt lat="44.29453" lon="5.66883">
        <ele>814</ele>
        <time>2018-07-17T10:44:00Z</time>
      </trkpt>
      <trkpt lat="44.29455" lon="5.66882">
        <ele>814</ele>
        <time>2018-07-17T10:44:02Z</time>
      </trkpt>
      <trkpt lat="44.29457" lon="5.66881">
        <ele>814</ele>
        <time>2018-07-17T10:44:04Z</time>
      </trkpt>
      <trkpt lat="44.29458" lon="5.66881">
        <ele>814</ele>
        <time>2018-07-17T10:44:05Z</time>
      </trkpt>
      <trkpt lat="44.29459" lon="5.66881">
        <ele>814</ele>
        <time>2018-07-17T10:44:06Z</time>
      </trkpt>
      <trkpt lat="44.29461" lon="5.6688">
        <ele>814</ele>
        <time>2018-07-17T10:44:07Z</time>
      </trkpt>
      <trkpt lat="44.29463" lon="5.66879">
        <ele>814</ele>
        <time>2018-07-17T10:44:09Z</time>
      </trkpt>
      <trkpt lat="44.29464" lon="5.66878">
        <ele>814</ele>
        <time>2018-07-17T10:44:10Z</time>
      </trkpt>
      <trkpt lat="44.29466" lon="5.66877">
        <ele>814</ele>
        <time>2018-07-17T10:44:12Z</time>
      </trkpt>
      <trkpt lat="44.29468" lon="5.66876">
        <ele>814</ele>
        <time>2018-07-17T10:44:14Z</time>
      </trkpt>
      <trkpt lat="44.2947" lon="5.66875">
        <ele>814</ele>
        <time>2018-07-17T10:44:16Z</time>
      </trkpt>
      <trkpt lat="44.29472" lon="5.66874">
        <ele>814</ele>
        <time>2018-07-17T10:44:18Z</time>
      </trkpt>
      <trkpt lat="44.29473" lon="5.66872">
        <ele>814</ele>
        <time>2018-07-17T10:44:20Z</time>
      </trkpt>
      <trkpt lat="44.29475" lon="5.66871">
        <ele>814</ele>
        <time>2018-07-17T10:44:22Z</time>
      </trkpt>
      <trkpt lat="44.29477" lon="5.6687">
        <ele>814</ele>
        <time>2018-07-17T10:44:24Z</time>
      </trkpt>
      <trkpt lat="44.29478" lon="5.66868">
        <ele>814</ele>
        <time>2018-07-17T10:44:26Z</time>
      </trkpt>
      <trkpt lat="44.2948" lon="5.66868">
        <ele>813</ele>
        <time>2018-07-17T10:44:28Z</time>
      </trkpt>
      <trkpt lat="44.29482" lon="5.66867">
        <ele>813</ele>
        <time>2018-07-17T10:44:30Z</time>
      </trkpt>
      <trkpt lat="44.29484" lon="5.66866">
        <ele>813</ele>
        <time>2018-07-17T10:44:32Z</time>
      </trkpt>
      <trkpt lat="44.29485" lon="5.66866">
        <ele>813</ele>
        <time>2018-07-17T10:44:34Z</time>
      </trkpt>
      <trkpt lat="44.29487" lon="5.66866">
        <ele>813</ele>
        <time>2018-07-17T10:44:36Z</time>
      </trkpt>
      <trkpt lat="44.29488" lon="5.66865">
        <ele>813</ele>
        <time>2018-07-17T10:44:38Z</time>
      </trkpt>
      <trkpt lat="44.2949" lon="5.66865">
        <ele>812</ele>
        <time>2018-07-17T10:44:40Z</time>
      </trkpt>
      <trkpt lat="44.2949" lon="5.66864">
        <ele>812</ele>
        <time>2018-07-17T10:44:46Z</time>
      </trkpt>
      <trkpt lat="44.29489" lon="5.66862">
        <ele>812</ele>
        <time>2018-07-17T10:44:47Z</time>
      </trkpt>
      <trkpt lat="44.29488" lon="5.66861">
        <ele>812</ele>
        <time>2018-07-17T10:44:48Z</time>
      </trkpt>
      <trkpt lat="44.2949" lon="5.66862">
        <ele>812</ele>
        <time>2018-07-17T10:44:53Z</time>
      </trkpt>
      <trkpt lat="44.29491" lon="5.66862">
        <ele>812</ele>
        <time>2018-07-17T10:44:55Z</time>
      </trkpt>
      <trkpt lat="44.29493" lon="5.66864">
        <ele>812</ele>
        <time>2018-07-17T10:44:57Z</time>
      </trkpt>
      <trkpt lat="44.29494" lon="5.66864">
        <ele>812</ele>
        <time>2018-07-17T10:44:59Z</time>
      </trkpt>
      <trkpt lat="44.29496" lon="5.66865">
        <ele>812</ele>
        <time>2018-07-17T10:45:01Z</time>
      </trkpt>
      <trkpt lat="44.29498" lon="5.66866">
        <ele>812</ele>
        <time>2018-07-17T10:45:03Z</time>
      </trkpt>
      <trkpt lat="44.295" lon="5.66866">
        <ele>812</ele>
        <time>2018-07-17T10:45:04Z</time>
      </trkpt>
      <trkpt lat="44.29502" lon="5.66867">
        <ele>812</ele>
        <time>2018-07-17T10:45:06Z</time>
      </trkpt>
      <trkpt lat="44.29504" lon="5.66867">
        <ele>812</ele>
        <time>2018-07-17T10:45:07Z</time>
      </trkpt>
      <trkpt lat="44.29505" lon="5.66868">
        <ele>812</ele>
        <time>2018-07-17T10:45:08Z</time>
      </trkpt>
      <trkpt lat="44.29507" lon="5.66868">
        <ele>812</ele>
        <time>2018-07-17T10:45:10Z</time>
      </trkpt>
      <trkpt lat="44.29509" lon="5.66869">
        <ele>812</ele>
        <time>2018-07-17T10:45:12Z</time>
      </trkpt>
      <trkpt lat="44.2951" lon="5.66869">
        <ele>812</ele>
        <time>2018-07-17T10:45:14Z</time>
      </trkpt>
      <trkpt lat="44.29512" lon="5.66869">
        <ele>812</ele>
        <time>2018-07-17T10:45:16Z</time>
      </trkpt>
      <trkpt lat="44.29514" lon="5.6687">
        <ele>811</ele>
        <time>2018-07-17T10:45:18Z</time>
      </trkpt>
      <trkpt lat="44.29515" lon="5.66871">
        <ele>810</ele>
        <time>2018-07-17T10:45:20Z</time>
      </trkpt>
      <trkpt lat="44.29517" lon="5.66872">
        <ele>810</ele>
        <time>2018-07-17T10:45:22Z</time>
      </trkpt>
      <trkpt lat="44.29519" lon="5.66874">
        <ele>809</ele>
        <time>2018-07-17T10:45:24Z</time>
      </trkpt>
      <trkpt lat="44.29521" lon="5.66876">
        <ele>808</ele>
        <time>2018-07-17T10:45:26Z</time>
      </trkpt>
      <trkpt lat="44.29522" lon="5.66876">
        <ele>808</ele>
        <time>2018-07-17T10:45:27Z</time>
      </trkpt>
      <trkpt lat="44.29524" lon="5.66877">
        <ele>808</ele>
        <time>2018-07-17T10:45:29Z</time>
      </trkpt>
      <trkpt lat="44.29525" lon="5.66879">
        <ele>808</ele>
        <time>2018-07-17T10:45:31Z</time>
      </trkpt>
      <trkpt lat="44.29527" lon="5.66881">
        <ele>808</ele>
        <time>2018-07-17T10:45:32Z</time>
      </trkpt>
      <trkpt lat="44.29528" lon="5.66883">
        <ele>807</ele>
        <time>2018-07-17T10:45:34Z</time>
      </trkpt>
      <trkpt lat="44.29529" lon="5.66885">
        <ele>806</ele>
        <time>2018-07-17T10:45:36Z</time>
      </trkpt>
      <trkpt lat="44.2953" lon="5.66887">
        <ele>805</ele>
        <time>2018-07-17T10:45:38Z</time>
      </trkpt>
      <trkpt lat="44.29531" lon="5.66889">
        <ele>804</ele>
        <time>2018-07-17T10:45:40Z</time>
      </trkpt>
      <trkpt lat="44.29533" lon="5.66892">
        <ele>803</ele>
        <time>2018-07-17T10:45:42Z</time>
      </trkpt>
      <trkpt lat="44.29534" lon="5.66894">
        <ele>802</ele>
        <time>2018-07-17T10:45:44Z</time>
      </trkpt>
      <trkpt lat="44.29535" lon="5.66896">
        <ele>801</ele>
        <time>2018-07-17T10:45:46Z</time>
      </trkpt>
      <trkpt lat="44.29536" lon="5.66899">
        <ele>801</ele>
        <time>2018-07-17T10:45:48Z</time>
      </trkpt>
      <trkpt lat="44.29537" lon="5.66901">
        <ele>801</ele>
        <time>2018-07-17T10:45:50Z</time>
      </trkpt>
      <trkpt lat="44.29539" lon="5.66903">
        <ele>800</ele>
        <time>2018-07-17T10:45:52Z</time>
      </trkpt>
      <trkpt lat="44.29542" lon="5.66904">
        <ele>800</ele>
        <time>2018-07-17T10:45:54Z</time>
      </trkpt>
      <trkpt lat="44.29543" lon="5.66903">
        <ele>800</ele>
        <time>2018-07-17T10:45:55Z</time>
      </trkpt>
      <trkpt lat="44.29544" lon="5.66902">
        <ele>800</ele>
        <time>2018-07-17T10:45:58Z</time>
      </trkpt>
      <trkpt lat="44.29544" lon="5.669">
        <ele>800</ele>
        <time>2018-07-17T10:46:00Z</time>
      </trkpt>
      <trkpt lat="44.29544" lon="5.66898">
        <ele>800</ele>
        <time>2018-07-17T10:46:02Z</time>
      </trkpt>
      <trkpt lat="44.29544" lon="5.66896">
        <ele>800</ele>
        <time>2018-07-17T10:46:03Z</time>
      </trkpt>
      <trkpt lat="44.29544" lon="5.66894">
        <ele>800</ele>
        <time>2018-07-17T10:46:05Z</time>
      </trkpt>
      <trkpt lat="44.29545" lon="5.66893">
        <ele>800</ele>
        <time>2018-07-17T10:46:06Z</time>
      </trkpt>
      <trkpt lat="44.29545" lon="5.66891">
        <ele>800</ele>
        <time>2018-07-17T10:46:08Z</time>
      </trkpt>
      <trkpt lat="44.29545" lon="5.66889">
        <ele>800</ele>
        <time>2018-07-17T10:46:09Z</time>
      </trkpt>
      <trkpt lat="44.29545" lon="5.66887">
        <ele>800</ele>
        <time>2018-07-17T10:46:11Z</time>
      </trkpt>
      <trkpt lat="44.29545" lon="5.66885">
        <ele>800</ele>
        <time>2018-07-17T10:46:12Z</time>
      </trkpt>
      <trkpt lat="44.29546" lon="5.66883">
        <ele>800</ele>
        <time>2018-07-17T10:46:14Z</time>
      </trkpt>
      <trkpt lat="44.29547" lon="5.66881">
        <ele>800</ele>
        <time>2018-07-17T10:46:16Z</time>
      </trkpt>
      <trkpt lat="44.29547" lon="5.6688">
        <ele>800</ele>
        <time>2018-07-17T10:46:17Z</time>
      </trkpt>
      <trkpt lat="44.29549" lon="5.66878">
        <ele>800</ele>
        <time>2018-07-17T10:46:19Z</time>
      </trkpt>
      <trkpt lat="44.29549" lon="5.66876">
        <ele>800</ele>
        <time>2018-07-17T10:46:21Z</time>
      </trkpt>
      <trkpt lat="44.29549" lon="5.66875">
        <ele>800</ele>
        <time>2018-07-17T10:46:22Z</time>
      </trkpt>
      <trkpt lat="44.2955" lon="5.66873">
        <ele>800</ele>
        <time>2018-07-17T10:46:24Z</time>
      </trkpt>
      <trkpt lat="44.2955" lon="5.66871">
        <ele>800</ele>
        <time>2018-07-17T10:46:26Z</time>
      </trkpt>
      <trkpt lat="44.2955" lon="5.66869">
        <ele>800</ele>
        <time>2018-07-17T10:46:27Z</time>
      </trkpt>
      <trkpt lat="44.29551" lon="5.66867">
        <ele>800</ele>
        <time>2018-07-17T10:46:29Z</time>
      </trkpt>
      <trkpt lat="44.29552" lon="5.66866">
        <ele>800</ele>
        <time>2018-07-17T10:46:31Z</time>
      </trkpt>
      <trkpt lat="44.29554" lon="5.66866">
        <ele>800</ele>
        <time>2018-07-17T10:46:34Z</time>
      </trkpt>
      <trkpt lat="44.29555" lon="5.66868">
        <ele>799</ele>
        <time>2018-07-17T10:46:44Z</time>
      </trkpt>
      <trkpt lat="44.29556" lon="5.66868">
        <ele>799</ele>
        <time>2018-07-17T10:47:07Z</time>
      </trkpt>
      <trkpt lat="44.29557" lon="5.66867">
        <ele>799</ele>
        <time>2018-07-17T10:47:15Z</time>
      </trkpt>
      <trkpt lat="44.29557" lon="5.66868">
        <ele>801</ele>
        <time>2018-07-17T10:47:29Z</time>
      </trkpt>
      <trkpt lat="44.29557" lon="5.6687">
        <ele>801</ele>
        <time>2018-07-17T10:47:31Z</time>
      </trkpt>
      <trkpt lat="44.29556" lon="5.66873">
        <ele>801</ele>
        <time>2018-07-17T10:47:33Z</time>
      </trkpt>
      <trkpt lat="44.29556" lon="5.66874">
        <ele>799</ele>
        <time>2018-07-17T10:47:35Z</time>
      </trkpt>
      <trkpt lat="44.29557" lon="5.66873">
        <ele>796</ele>
        <time>2018-07-17T10:47:41Z</time>
      </trkpt>
      <trkpt lat="44.29557" lon="5.66871">
        <ele>796</ele>
        <time>2018-07-17T10:47:49Z</time>
      </trkpt>
      <trkpt lat="44.29557" lon="5.66869">
        <ele>796</ele>
        <time>2018-07-17T10:47:54Z</time>
      </trkpt>
      <trkpt lat="44.29556" lon="5.66867">
        <ele>797</ele>
        <time>2018-07-17T10:48:12Z</time>
      </trkpt>
      <trkpt lat="44.29556" lon="5.66865">
        <ele>800</ele>
        <time>2018-07-17T10:48:15Z</time>
      </trkpt>
      <trkpt lat="44.29557" lon="5.66867">
        <ele>803</ele>
        <time>2018-07-17T10:48:21Z</time>
      </trkpt>
      <trkpt lat="44.29556" lon="5.66867">
        <ele>803</ele>
        <time>2018-07-17T10:48:34Z</time>
      </trkpt>
      <trkpt lat="44.29557" lon="5.66867">
        <ele>804</ele>
        <time>2018-07-17T10:48:51Z</time>
      </trkpt>
      <trkpt lat="44.29557" lon="5.66865">
        <ele>804</ele>
        <time>2018-07-17T10:48:56Z</time>
      </trkpt>
      <trkpt lat="44.29558" lon="5.66863">
        <ele>804</ele>
        <time>2018-07-17T10:49:00Z</time>
      </trkpt>
      <trkpt lat="44.29558" lon="5.66865">
        <ele>804</ele>
        <time>2018-07-17T10:49:12Z</time>
      </trkpt>
      <trkpt lat="44.29558" lon="5.66866">
        <ele>803</ele>
        <time>2018-07-17T10:49:19Z</time>
      </trkpt>
      <trkpt lat="44.29557" lon="5.66866">
        <ele>802</ele>
        <time>2018-07-17T10:49:24Z</time>
      </trkpt>
      <trkpt lat="44.29556" lon="5.66868">
        <ele>800</ele>
        <time>2018-07-17T10:49:29Z</time>
      </trkpt>
      <trkpt lat="44.29555" lon="5.6687">
        <ele>795</ele>
        <time>2018-07-17T10:49:34Z</time>
      </trkpt>
      <trkpt lat="44.29554" lon="5.66871">
        <ele>792</ele>
        <time>2018-07-17T10:49:42Z</time>
      </trkpt>
      <trkpt lat="44.29554" lon="5.6687">
        <ele>792</ele>
        <time>2018-07-17T10:49:45Z</time>
      </trkpt>
      <trkpt lat="44.29554" lon="5.66868">
        <ele>792</ele>
        <time>2018-07-17T10:49:54Z</time>
      </trkpt>
      <trkpt lat="44.29555" lon="5.66867">
        <ele>792</ele>
        <time>2018-07-17T10:49:56Z</time>
      </trkpt>
      <trkpt lat="44.29555" lon="5.66865">
        <ele>792</ele>
        <time>2018-07-17T10:49:58Z</time>
      </trkpt>
      <trkpt lat="44.29555" lon="5.66864">
        <ele>792</ele>
        <time>2018-07-17T10:50:02Z</time>
      </trkpt>
      <trkpt lat="44.29557" lon="5.66864">
        <ele>793</ele>
        <time>2018-07-17T10:50:24Z</time>
      </trkpt>
      <trkpt lat="44.29558" lon="5.66864">
        <ele>793</ele>
        <time>2018-07-17T10:50:42Z</time>
      </trkpt>
      <trkpt lat="44.29557" lon="5.66863">
        <ele>794</ele>
        <time>2018-07-17T10:50:50Z</time>
      </trkpt>
      <trkpt lat="44.29555" lon="5.66862">
        <ele>794</ele>
        <time>2018-07-17T10:50:53Z</time>
      </trkpt>
      <trkpt lat="44.29556" lon="5.66863">
        <ele>794</ele>
        <time>2018-07-17T10:50:55Z</time>
      </trkpt>
      <trkpt lat="44.29557" lon="5.66863">
        <ele>794</ele>
        <time>2018-07-17T10:51:00Z</time>
      </trkpt>
      <trkpt lat="44.29556" lon="5.66862">
        <ele>794</ele>
        <time>2018-07-17T10:51:23Z</time>
      </trkpt>
      <trkpt lat="44.29557" lon="5.6686">
        <ele>797</ele>
        <time>2018-07-17T10:51:40Z</time>
      </trkpt>
      <trkpt lat="44.29557" lon="5.66859">
        <ele>799</ele>
        <time>2018-07-17T10:51:45Z</time>
      </trkpt>
      <trkpt lat="44.29556" lon="5.66857">
        <ele>801</ele>
        <time>2018-07-17T10:52:04Z</time>
      </trkpt>
      <trkpt lat="44.29554" lon="5.66857">
        <ele>801</ele>
        <time>2018-07-17T10:52:15Z</time>
      </trkpt>
      <trkpt lat="44.29556" lon="5.66858">
        <ele>801</ele>
        <time>2018-07-17T10:52:27Z</time>
      </trkpt>
      <trkpt lat="44.29557" lon="5.6686">
        <ele>801</ele>
        <time>2018-07-17T10:52:42Z</time>
      </trkpt>
      <trkpt lat="44.29558" lon="5.66861">
        <ele>801</ele>
        <time>2018-07-17T10:52:51Z</time>
      </trkpt>
      <trkpt lat="44.29558" lon="5.66863">
        <ele>801</ele>
        <time>2018-07-17T10:53:08Z</time>
      </trkpt>
      <trkpt lat="44.2956" lon="5.66863">
        <ele>801</ele>
        <time>2018-07-17T10:53:10Z</time>
      </trkpt>
      <trkpt lat="44.2956" lon="5.66862">
        <ele>801</ele>
        <time>2018-07-17T10:53:32Z</time>
      </trkpt>
      <trkpt lat="44.29561" lon="5.66863">
        <ele>801</ele>
        <time>2018-07-17T10:53:45Z</time>
      </trkpt>
      <trkpt lat="44.29563" lon="5.66863">
        <ele>801</ele>
        <time>2018-07-17T10:53:48Z</time>
      </trkpt>
      <trkpt lat="44.29564" lon="5.66863">
        <ele>801</ele>
        <time>2018-07-17T10:53:51Z</time>
      </trkpt>
      <trkpt lat="44.29562" lon="5.66864">
        <ele>801</ele>
        <time>2018-07-17T10:53:59Z</time>
      </trkpt>
      <trkpt lat="44.29561" lon="5.66863">
        <ele>801</ele>
        <time>2018-07-17T10:54:02Z</time>
      </trkpt>
      <trkpt lat="44.2956" lon="5.66863">
        <ele>801</ele>
        <time>2018-07-17T10:54:12Z</time>
      </trkpt>
      <trkpt lat="44.29562" lon="5.66863">
        <ele>801</ele>
        <time>2018-07-17T10:54:24Z</time>
      </trkpt>
      <trkpt lat="44.2956" lon="5.66862">
        <ele>801</ele>
        <time>2018-07-17T10:54:30Z</time>
      </trkpt>
      <trkpt lat="44.29559" lon="5.66862">
        <ele>801</ele>
        <time>2018-07-17T10:54:35Z</time>
      </trkpt>
      <trkpt lat="44.2956" lon="5.66864">
        <ele>801</ele>
        <time>2018-07-17T10:54:39Z</time>
      </trkpt>
      <trkpt lat="44.29562" lon="5.66865">
        <ele>801</ele>
        <time>2018-07-17T10:54:42Z</time>
      </trkpt>
      <trkpt lat="44.29563" lon="5.66864">
        <ele>801</ele>
        <time>2018-07-17T10:54:45Z</time>
      </trkpt>
      <trkpt lat="44.29565" lon="5.66865">
        <ele>801</ele>
        <time>2018-07-17T10:54:47Z</time>
      </trkpt>
      <trkpt lat="44.29566" lon="5.66864">
        <ele>801</ele>
        <time>2018-07-17T10:54:49Z</time>
      </trkpt>
      <trkpt lat="44.29567" lon="5.66864">
        <ele>801</ele>
        <time>2018-07-17T10:54:51Z</time>
      </trkpt>
      <trkpt lat="44.29566" lon="5.66863">
        <ele>803</ele>
        <time>2018-07-17T10:54:56Z</time>
      </trkpt>
      <trkpt lat="44.29564" lon="5.66864">
        <ele>803</ele>
        <time>2018-07-17T10:55:08Z</time>
      </trkpt>
      <trkpt lat="44.29562" lon="5.66863">
        <ele>803</ele>
        <time>2018-07-17T10:55:10Z</time>
      </trkpt>
      <trkpt lat="44.29562" lon="5.66861">
        <ele>803</ele>
        <time>2018-07-17T10:55:13Z</time>
      </trkpt>
      <trkpt lat="44.29562" lon="5.66859">
        <ele>803</ele>
        <time>2018-07-17T10:55:15Z</time>
      </trkpt>
      <trkpt lat="44.2956" lon="5.66857">
        <ele>803</ele>
        <time>2018-07-17T10:55:17Z</time>
      </trkpt>
      <trkpt lat="44.29559" lon="5.66855">
        <ele>803</ele>
        <time>2018-07-17T10:55:18Z</time>
      </trkpt>
      <trkpt lat="44.29559" lon="5.66853">
        <ele>803</ele>
        <time>2018-07-17T10:55:20Z</time>
      </trkpt>
      <trkpt lat="44.29558" lon="5.66851">
        <ele>803</ele>
        <time>2018-07-17T10:55:21Z</time>
      </trkpt>
      <trkpt lat="44.29557" lon="5.6685">
        <ele>803</ele>
        <time>2018-07-17T10:55:22Z</time>
      </trkpt>
      <trkpt lat="44.29557" lon="5.66847">
        <ele>802</ele>
        <time>2018-07-17T10:55:24Z</time>
      </trkpt>
      <trkpt lat="44.29556" lon="5.66845">
        <ele>802</ele>
        <time>2018-07-17T10:55:26Z</time>
      </trkpt>
      <trkpt lat="44.29554" lon="5.66843">
        <ele>801</ele>
        <time>2018-07-17T10:55:28Z</time>
      </trkpt>
      <trkpt lat="44.29554" lon="5.66841">
        <ele>800</ele>
        <time>2018-07-17T10:55:30Z</time>
      </trkpt>
      <trkpt lat="44.29552" lon="5.66839">
        <ele>799</ele>
        <time>2018-07-17T10:55:32Z</time>
      </trkpt>
      <trkpt lat="44.29552" lon="5.66838">
        <ele>799</ele>
        <time>2018-07-17T10:55:33Z</time>
      </trkpt>
      <trkpt lat="44.29551" lon="5.66836">
        <ele>799</ele>
        <time>2018-07-17T10:55:35Z</time>
      </trkpt>
      <trkpt lat="44.2955" lon="5.66834">
        <ele>798</ele>
        <time>2018-07-17T10:55:37Z</time>
      </trkpt>
      <trkpt lat="44.29549" lon="5.66832">
        <ele>798</ele>
        <time>2018-07-17T10:55:39Z</time>
      </trkpt>
      <trkpt lat="44.29548" lon="5.66832">
        <ele>797</ele>
        <time>2018-07-17T10:55:41Z</time>
      </trkpt>
      <trkpt lat="44.29547" lon="5.66829">
        <ele>797</ele>
        <time>2018-07-17T10:55:43Z</time>
      </trkpt>
      <trkpt lat="44.29546" lon="5.66828">
        <ele>797</ele>
        <time>2018-07-17T10:55:45Z</time>
      </trkpt>
      <trkpt lat="44.29545" lon="5.66826">
        <ele>797</ele>
        <time>2018-07-17T10:55:46Z</time>
      </trkpt>
      <trkpt lat="44.29545" lon="5.66825">
        <ele>796</ele>
        <time>2018-07-17T10:55:47Z</time>
      </trkpt>
      <trkpt lat="44.29544" lon="5.66822">
        <ele>796</ele>
        <time>2018-07-17T10:55:49Z</time>
      </trkpt>
      <trkpt lat="44.29543" lon="5.6682">
        <ele>795</ele>
        <time>2018-07-17T10:55:51Z</time>
      </trkpt>
      <trkpt lat="44.29542" lon="5.66819">
        <ele>795</ele>
        <time>2018-07-17T10:55:52Z</time>
      </trkpt>
      <trkpt lat="44.29542" lon="5.66816">
        <ele>794</ele>
        <time>2018-07-17T10:55:54Z</time>
      </trkpt>
      <trkpt lat="44.29544" lon="5.66815">
        <ele>793</ele>
        <time>2018-07-17T10:55:56Z</time>
      </trkpt>
      <trkpt lat="44.29546" lon="5.66815">
        <ele>793</ele>
        <time>2018-07-17T10:55:58Z</time>
      </trkpt>
      <trkpt lat="44.29548" lon="5.66815">
        <ele>792</ele>
        <time>2018-07-17T10:56:00Z</time>
      </trkpt>
      <trkpt lat="44.29549" lon="5.66815">
        <ele>791</ele>
        <time>2018-07-17T10:56:02Z</time>
      </trkpt>
      <trkpt lat="44.2955" lon="5.66816">
        <ele>791</ele>
        <time>2018-07-17T10:56:04Z</time>
      </trkpt>
      <trkpt lat="44.29552" lon="5.66818">
        <ele>790</ele>
        <time>2018-07-17T10:56:06Z</time>
      </trkpt>
      <trkpt lat="44.29553" lon="5.66819">
        <ele>790</ele>
        <time>2018-07-17T10:56:08Z</time>
      </trkpt>
      <trkpt lat="44.29555" lon="5.66821">
        <ele>789</ele>
        <time>2018-07-17T10:56:10Z</time>
      </trkpt>
      <trkpt lat="44.29556" lon="5.66823">
        <ele>789</ele>
        <time>2018-07-17T10:56:12Z</time>
      </trkpt>
      <trkpt lat="44.29557" lon="5.66825">
        <ele>788</ele>
        <time>2018-07-17T10:56:14Z</time>
      </trkpt>
      <trkpt lat="44.29559" lon="5.66826">
        <ele>787</ele>
        <time>2018-07-17T10:56:16Z</time>
      </trkpt>
      <trkpt lat="44.2956" lon="5.66827">
        <ele>787</ele>
        <time>2018-07-17T10:56:17Z</time>
      </trkpt>
      <trkpt lat="44.29561" lon="5.66829">
        <ele>787</ele>
        <time>2018-07-17T10:56:19Z</time>
      </trkpt>
      <trkpt lat="44.29563" lon="5.66831">
        <ele>787</ele>
        <time>2018-07-17T10:56:21Z</time>
      </trkpt>
      <trkpt lat="44.29564" lon="5.66832">
        <ele>787</ele>
        <time>2018-07-17T10:56:22Z</time>
      </trkpt>
      <trkpt lat="44.29566" lon="5.66833">
        <ele>787</ele>
        <time>2018-07-17T10:56:24Z</time>
      </trkpt>
      <trkpt lat="44.29567" lon="5.66834">
        <ele>787</ele>
        <time>2018-07-17T10:56:25Z</time>
      </trkpt>
      <trkpt lat="44.29568" lon="5.66835">
        <ele>787</ele>
        <time>2018-07-17T10:56:27Z</time>
      </trkpt>
      <trkpt lat="44.29569" lon="5.66837">
        <ele>787</ele>
        <time>2018-07-17T10:56:29Z</time>
      </trkpt>
      <trkpt lat="44.2957" lon="5.66839">
        <ele>787</ele>
        <time>2018-07-17T10:56:31Z</time>
      </trkpt>
      <trkpt lat="44.29572" lon="5.66841">
        <ele>787</ele>
        <time>2018-07-17T10:56:33Z</time>
      </trkpt>
      <trkpt lat="44.29572" lon="5.66843">
        <ele>786</ele>
        <time>2018-07-17T10:56:35Z</time>
      </trkpt>
      <trkpt lat="44.29573" lon="5.66846">
        <ele>786</ele>
        <time>2018-07-17T10:56:37Z</time>
      </trkpt>
      <trkpt lat="44.29573" lon="5.66847">
        <ele>786</ele>
        <time>2018-07-17T10:56:38Z</time>
      </trkpt>
      <trkpt lat="44.29574" lon="5.66849">
        <ele>785</ele>
        <time>2018-07-17T10:56:39Z</time>
      </trkpt>
      <trkpt lat="44.29575" lon="5.66851">
        <ele>785</ele>
        <time>2018-07-17T10:56:41Z</time>
      </trkpt>
      <trkpt lat="44.29576" lon="5.66853">
        <ele>785</ele>
        <time>2018-07-17T10:56:43Z</time>
      </trkpt>
      <trkpt lat="44.29578" lon="5.66854">
        <ele>785</ele>
        <time>2018-07-17T10:56:44Z</time>
      </trkpt>
      <trkpt lat="44.29579" lon="5.66855">
        <ele>785</ele>
        <time>2018-07-17T10:56:45Z</time>
      </trkpt>
      <trkpt lat="44.29581" lon="5.66856">
        <ele>785</ele>
        <time>2018-07-17T10:56:47Z</time>
      </trkpt>
      <trkpt lat="44.29582" lon="5.66854">
        <ele>785</ele>
        <time>2018-07-17T10:56:50Z</time>
      </trkpt>
      <trkpt lat="44.29583" lon="5.66853">
        <ele>785</ele>
        <time>2018-07-17T10:56:52Z</time>
      </trkpt>
      <trkpt lat="44.29583" lon="5.66851">
        <ele>785</ele>
        <time>2018-07-17T10:56:54Z</time>
      </trkpt>
      <trkpt lat="44.29583" lon="5.66848">
        <ele>785</ele>
        <time>2018-07-17T10:56:56Z</time>
      </trkpt>
      <trkpt lat="44.29583" lon="5.66847">
        <ele>785</ele>
        <time>2018-07-17T10:56:57Z</time>
      </trkpt>
      <trkpt lat="44.29584" lon="5.66845">
        <ele>785</ele>
        <time>2018-07-17T10:56:58Z</time>
      </trkpt>
      <trkpt lat="44.29584" lon="5.66843">
        <ele>785</ele>
        <time>2018-07-17T10:57:00Z</time>
      </trkpt>
      <trkpt lat="44.29584" lon="5.6684">
        <ele>785</ele>
        <time>2018-07-17T10:57:02Z</time>
      </trkpt>
      <trkpt lat="44.29585" lon="5.66838">
        <ele>785</ele>
        <time>2018-07-17T10:57:04Z</time>
      </trkpt>
      <trkpt lat="44.29585" lon="5.66836">
        <ele>785</ele>
        <time>2018-07-17T10:57:06Z</time>
      </trkpt>
      <trkpt lat="44.29585" lon="5.66834">
        <ele>785</ele>
        <time>2018-07-17T10:57:08Z</time>
      </trkpt>
      <trkpt lat="44.29585" lon="5.66832">
        <ele>784</ele>
        <time>2018-07-17T10:57:10Z</time>
      </trkpt>
      <trkpt lat="44.29585" lon="5.6683">
        <ele>784</ele>
        <time>2018-07-17T10:57:11Z</time>
      </trkpt>
      <trkpt lat="44.29585" lon="5.66828">
        <ele>783</ele>
        <time>2018-07-17T10:57:13Z</time>
      </trkpt>
      <trkpt lat="44.29585" lon="5.66826">
        <ele>783</ele>
        <time>2018-07-17T10:57:15Z</time>
      </trkpt>
      <trkpt lat="44.29585" lon="5.66825">
        <ele>783</ele>
        <time>2018-07-17T10:57:16Z</time>
      </trkpt>
      <trkpt lat="44.29585" lon="5.66822">
        <ele>783</ele>
        <time>2018-07-17T10:57:18Z</time>
      </trkpt>
      <trkpt lat="44.29585" lon="5.6682">
        <ele>783</ele>
        <time>2018-07-17T10:57:20Z</time>
      </trkpt>
      <trkpt lat="44.29584" lon="5.66818">
        <ele>783</ele>
        <time>2018-07-17T10:57:22Z</time>
      </trkpt>
      <trkpt lat="44.29583" lon="5.66816">
        <ele>783</ele>
        <time>2018-07-17T10:57:24Z</time>
      </trkpt>
      <trkpt lat="44.29583" lon="5.66814">
        <ele>783</ele>
        <time>2018-07-17T10:57:26Z</time>
      </trkpt>
      <trkpt lat="44.29582" lon="5.66813">
        <ele>783</ele>
        <time>2018-07-17T10:57:28Z</time>
      </trkpt>
      <trkpt lat="44.29581" lon="5.6681">
        <ele>783</ele>
        <time>2018-07-17T10:57:30Z</time>
      </trkpt>
      <trkpt lat="44.2958" lon="5.66809">
        <ele>783</ele>
        <time>2018-07-17T10:57:32Z</time>
      </trkpt>
      <trkpt lat="44.29579" lon="5.66807">
        <ele>783</ele>
        <time>2018-07-17T10:57:34Z</time>
      </trkpt>
      <trkpt lat="44.29578" lon="5.66806">
        <ele>783</ele>
        <time>2018-07-17T10:57:36Z</time>
      </trkpt>
      <trkpt lat="44.29577" lon="5.66804">
        <ele>782</ele>
        <time>2018-07-17T10:57:38Z</time>
      </trkpt>
      <trkpt lat="44.29576" lon="5.66802">
        <ele>782</ele>
        <time>2018-07-17T10:57:40Z</time>
      </trkpt>
      <trkpt lat="44.29575" lon="5.668">
        <ele>781</ele>
        <time>2018-07-17T10:57:42Z</time>
      </trkpt>
      <trkpt lat="44.29573" lon="5.66798">
        <ele>780</ele>
        <time>2018-07-17T10:57:44Z</time>
      </trkpt>
      <trkpt lat="44.29573" lon="5.66796">
        <ele>780</ele>
        <time>2018-07-17T10:57:46Z</time>
      </trkpt>
      <trkpt lat="44.29572" lon="5.66794">
        <ele>780</ele>
        <time>2018-07-17T10:57:48Z</time>
      </trkpt>
      <trkpt lat="44.29571" lon="5.66792">
        <ele>779</ele>
        <time>2018-07-17T10:57:50Z</time>
      </trkpt>
      <trkpt lat="44.2957" lon="5.6679">
        <ele>779</ele>
        <time>2018-07-17T10:57:52Z</time>
      </trkpt>
      <trkpt lat="44.29569" lon="5.66788">
        <ele>779</ele>
        <time>2018-07-17T10:57:54Z</time>
      </trkpt>
      <trkpt lat="44.29567" lon="5.66786">
        <ele>778</ele>
        <time>2018-07-17T10:57:56Z</time>
      </trkpt>
      <trkpt lat="44.29567" lon="5.66784">
        <ele>778</ele>
        <time>2018-07-17T10:57:57Z</time>
      </trkpt>
      <trkpt lat="44.29566" lon="5.66782">
        <ele>778</ele>
        <time>2018-07-17T10:57:59Z</time>
      </trkpt>
      <trkpt lat="44.29565" lon="5.6678">
        <ele>778</ele>
        <time>2018-07-17T10:58:01Z</time>
      </trkpt>
      <trkpt lat="44.29564" lon="5.66778">
        <ele>778</ele>
        <time>2018-07-17T10:58:03Z</time>
      </trkpt>
      <trkpt lat="44.29563" lon="5.66776">
        <ele>778</ele>
        <time>2018-07-17T10:58:05Z</time>
      </trkpt>
      <trkpt lat="44.29562" lon="5.66774">
        <ele>777</ele>
        <time>2018-07-17T10:58:07Z</time>
      </trkpt>
      <trkpt lat="44.2956" lon="5.66772">
        <ele>777</ele>
        <time>2018-07-17T10:58:09Z</time>
      </trkpt>
      <trkpt lat="44.29558" lon="5.6677">
        <ele>776</ele>
        <time>2018-07-17T10:58:11Z</time>
      </trkpt>
      <trkpt lat="44.29557" lon="5.66767">
        <ele>775</ele>
        <time>2018-07-17T10:58:13Z</time>
      </trkpt>
      <trkpt lat="44.29556" lon="5.66765">
        <ele>775</ele>
        <time>2018-07-17T10:58:15Z</time>
      </trkpt>
      <trkpt lat="44.29556" lon="5.66763">
        <ele>775</ele>
        <time>2018-07-17T10:58:17Z</time>
      </trkpt>
      <trkpt lat="44.29554" lon="5.66761">
        <ele>775</ele>
        <time>2018-07-17T10:58:19Z</time>
      </trkpt>
      <trkpt lat="44.29553" lon="5.66759">
        <ele>775</ele>
        <time>2018-07-17T10:58:21Z</time>
      </trkpt>
      <trkpt lat="44.29551" lon="5.66757">
        <ele>775</ele>
        <time>2018-07-17T10:58:23Z</time>
      </trkpt>
      <trkpt lat="44.2955" lon="5.66755">
        <ele>775</ele>
        <time>2018-07-17T10:58:25Z</time>
      </trkpt>
      <trkpt lat="44.29549" lon="5.66754">
        <ele>774</ele>
        <time>2018-07-17T10:58:27Z</time>
      </trkpt>
      <trkpt lat="44.29548" lon="5.66752">
        <ele>774</ele>
        <time>2018-07-17T10:58:29Z</time>
      </trkpt>
      <trkpt lat="44.29546" lon="5.66751">
        <ele>774</ele>
        <time>2018-07-17T10:58:31Z</time>
      </trkpt>
      <trkpt lat="44.29545" lon="5.66749">
        <ele>773</ele>
        <time>2018-07-17T10:58:33Z</time>
      </trkpt>
      <trkpt lat="44.29545" lon="5.66747">
        <ele>772</ele>
        <time>2018-07-17T10:58:34Z</time>
      </trkpt>
      <trkpt lat="44.29545" lon="5.66745">
        <ele>772</ele>
        <time>2018-07-17T10:58:36Z</time>
      </trkpt>
      <trkpt lat="44.29546" lon="5.66743">
        <ele>771</ele>
        <time>2018-07-17T10:58:38Z</time>
      </trkpt>
      <trkpt lat="44.29547" lon="5.66741">
        <ele>771</ele>
        <time>2018-07-17T10:58:40Z</time>
      </trkpt>
      <trkpt lat="44.29549" lon="5.66741">
        <ele>770</ele>
        <time>2018-07-17T10:58:42Z</time>
      </trkpt>
      <trkpt lat="44.29551" lon="5.66741">
        <ele>770</ele>
        <time>2018-07-17T10:58:43Z</time>
      </trkpt>
      <trkpt lat="44.29552" lon="5.66742">
        <ele>770</ele>
        <time>2018-07-17T10:58:45Z</time>
      </trkpt>
      <trkpt lat="44.29554" lon="5.66743">
        <ele>770</ele>
        <time>2018-07-17T10:58:46Z</time>
      </trkpt>
      <trkpt lat="44.29556" lon="5.66743">
        <ele>769</ele>
        <time>2018-07-17T10:58:48Z</time>
      </trkpt>
      <trkpt lat="44.29557" lon="5.66745">
        <ele>769</ele>
        <time>2018-07-17T10:58:50Z</time>
      </trkpt>
      <trkpt lat="44.2956" lon="5.66746">
        <ele>768</ele>
        <time>2018-07-17T10:58:52Z</time>
      </trkpt>
      <trkpt lat="44.29562" lon="5.66747">
        <ele>768</ele>
        <time>2018-07-17T10:58:54Z</time>
      </trkpt>
      <trkpt lat="44.29564" lon="5.66749">
        <ele>768</ele>
        <time>2018-07-17T10:58:56Z</time>
      </trkpt>
      <trkpt lat="44.29565" lon="5.6675">
        <ele>767</ele>
        <time>2018-07-17T10:58:58Z</time>
      </trkpt>
      <trkpt lat="44.29568" lon="5.66751">
        <ele>767</ele>
        <time>2018-07-17T10:59:00Z</time>
      </trkpt>
      <trkpt lat="44.2957" lon="5.66751">
        <ele>767</ele>
        <time>2018-07-17T10:59:02Z</time>
      </trkpt>
      <trkpt lat="44.29572" lon="5.66752">
        <ele>767</ele>
        <time>2018-07-17T10:59:04Z</time>
      </trkpt>
      <trkpt lat="44.29573" lon="5.66753">
        <ele>767</ele>
        <time>2018-07-17T10:59:06Z</time>
      </trkpt>
      <trkpt lat="44.29575" lon="5.66753">
        <ele>766</ele>
        <time>2018-07-17T10:59:08Z</time>
      </trkpt>
      <trkpt lat="44.29578" lon="5.66755">
        <ele>766</ele>
        <time>2018-07-17T10:59:10Z</time>
      </trkpt>
      <trkpt lat="44.2958" lon="5.66755">
        <ele>766</ele>
        <time>2018-07-17T10:59:11Z</time>
      </trkpt>
      <trkpt lat="44.29581" lon="5.66756">
        <ele>766</ele>
        <time>2018-07-17T10:59:12Z</time>
      </trkpt>
      <trkpt lat="44.29582" lon="5.66756">
        <ele>766</ele>
        <time>2018-07-17T10:59:13Z</time>
      </trkpt>
      <trkpt lat="44.29583" lon="5.66756">
        <ele>766</ele>
        <time>2018-07-17T10:59:14Z</time>
      </trkpt>
      <trkpt lat="44.29585" lon="5.66756">
        <ele>765</ele>
        <time>2018-07-17T10:59:16Z</time>
      </trkpt>
      <trkpt lat="44.29586" lon="5.66755">
        <ele>765</ele>
        <time>2018-07-17T10:59:17Z</time>
      </trkpt>
      <trkpt lat="44.29588" lon="5.66753">
        <ele>765</ele>
        <time>2018-07-17T10:59:19Z</time>
      </trkpt>
      <trkpt lat="44.29588" lon="5.66751">
        <ele>765</ele>
        <time>2018-07-17T10:59:21Z</time>
      </trkpt>
      <trkpt lat="44.29588" lon="5.66749">
        <ele>765</ele>
        <time>2018-07-17T10:59:22Z</time>
      </trkpt>
      <trkpt lat="44.29588" lon="5.66748">
        <ele>765</ele>
        <time>2018-07-17T10:59:24Z</time>
      </trkpt>
      <trkpt lat="44.29588" lon="5.66746">
        <ele>765</ele>
        <time>2018-07-17T10:59:26Z</time>
      </trkpt>
      <trkpt lat="44.29588" lon="5.66745">
        <ele>765</ele>
        <time>2018-07-17T10:59:27Z</time>
      </trkpt>
      <trkpt lat="44.29588" lon="5.66742">
        <ele>765</ele>
        <time>2018-07-17T10:59:29Z</time>
      </trkpt>
      <trkpt lat="44.29587" lon="5.6674">
        <ele>765</ele>
        <time>2018-07-17T10:59:30Z</time>
      </trkpt>
      <trkpt lat="44.29587" lon="5.66739">
        <ele>765</ele>
        <time>2018-07-17T10:59:31Z</time>
      </trkpt>
      <trkpt lat="44.29586" lon="5.66737">
        <ele>765</ele>
        <time>2018-07-17T10:59:32Z</time>
      </trkpt>
      <trkpt lat="44.29584" lon="5.66734">
        <ele>765</ele>
        <time>2018-07-17T10:59:34Z</time>
      </trkpt>
      <trkpt lat="44.29583" lon="5.66732">
        <ele>765</ele>
        <time>2018-07-17T10:59:35Z</time>
      </trkpt>
      <trkpt lat="44.29583" lon="5.66731">
        <ele>765</ele>
        <time>2018-07-17T10:59:36Z</time>
      </trkpt>
      <trkpt lat="44.29582" lon="5.66729">
        <ele>765</ele>
        <time>2018-07-17T10:59:37Z</time>
      </trkpt>
      <trkpt lat="44.29581" lon="5.66727">
        <ele>765</ele>
        <time>2018-07-17T10:59:39Z</time>
      </trkpt>
      <trkpt lat="44.29581" lon="5.66725">
        <ele>765</ele>
        <time>2018-07-17T10:59:40Z</time>
      </trkpt>
      <trkpt lat="44.29581" lon="5.66723">
        <ele>765</ele>
        <time>2018-07-17T10:59:42Z</time>
      </trkpt>
      <trkpt lat="44.29581" lon="5.66721">
        <ele>765</ele>
        <time>2018-07-17T10:59:43Z</time>
      </trkpt>
      <trkpt lat="44.29581" lon="5.6672">
        <ele>765</ele>
        <time>2018-07-17T10:59:44Z</time>
      </trkpt>
      <trkpt lat="44.29581" lon="5.66718">
        <ele>765</ele>
        <time>2018-07-17T10:59:45Z</time>
      </trkpt>
      <trkpt lat="44.29581" lon="5.66717">
        <ele>765</ele>
        <time>2018-07-17T10:59:46Z</time>
      </trkpt>
      <trkpt lat="44.2958" lon="5.66715">
        <ele>765</ele>
        <time>2018-07-17T10:59:47Z</time>
      </trkpt>
      <trkpt lat="44.2958" lon="5.66713">
        <ele>765</ele>
        <time>2018-07-17T10:59:48Z</time>
      </trkpt>
      <trkpt lat="44.2958" lon="5.66712">
        <ele>765</ele>
        <time>2018-07-17T10:59:49Z</time>
      </trkpt>
      <trkpt lat="44.2958" lon="5.6671">
        <ele>765</ele>
        <time>2018-07-17T10:59:50Z</time>
      </trkpt>
      <trkpt lat="44.29581" lon="5.66709">
        <ele>765</ele>
        <time>2018-07-17T10:59:51Z</time>
      </trkpt>
      <trkpt lat="44.29581" lon="5.66707">
        <ele>765</ele>
        <time>2018-07-17T10:59:52Z</time>
      </trkpt>
      <trkpt lat="44.29581" lon="5.66705">
        <ele>765</ele>
        <time>2018-07-17T10:59:53Z</time>
      </trkpt>
      <trkpt lat="44.29581" lon="5.66703">
        <ele>765</ele>
        <time>2018-07-17T10:59:54Z</time>
      </trkpt>
      <trkpt lat="44.29582" lon="5.66701">
        <ele>765</ele>
        <time>2018-07-17T10:59:56Z</time>
      </trkpt>
      <trkpt lat="44.29583" lon="5.66698">
        <ele>765</ele>
        <time>2018-07-17T10:59:58Z</time>
      </trkpt>
      <trkpt lat="44.29583" lon="5.66695">
        <ele>765</ele>
        <time>2018-07-17T11:00:00Z</time>
      </trkpt>
      <trkpt lat="44.29584" lon="5.66693">
        <ele>765</ele>
        <time>2018-07-17T11:00:02Z</time>
      </trkpt>
      <trkpt lat="44.29586" lon="5.6669">
        <ele>765</ele>
        <time>2018-07-17T11:00:04Z</time>
      </trkpt>
      <trkpt lat="44.29587" lon="5.66688">
        <ele>765</ele>
        <time>2018-07-17T11:00:06Z</time>
      </trkpt>
      <trkpt lat="44.29588" lon="5.66686">
        <ele>765</ele>
        <time>2018-07-17T11:00:08Z</time>
      </trkpt>
      <trkpt lat="44.29589" lon="5.66684">
        <ele>765</ele>
        <time>2018-07-17T11:00:10Z</time>
      </trkpt>
      <trkpt lat="44.2959" lon="5.66682">
        <ele>765</ele>
        <time>2018-07-17T11:00:12Z</time>
      </trkpt>
      <trkpt lat="44.29591" lon="5.6668">
        <ele>765</ele>
        <time>2018-07-17T11:00:14Z</time>
      </trkpt>
      <trkpt lat="44.29591" lon="5.66678">
        <ele>765</ele>
        <time>2018-07-17T11:00:15Z</time>
      </trkpt>
      <trkpt lat="44.29593" lon="5.66676">
        <ele>765</ele>
        <time>2018-07-17T11:00:17Z</time>
      </trkpt>
      <trkpt lat="44.29594" lon="5.66674">
        <ele>765</ele>
        <time>2018-07-17T11:00:19Z</time>
      </trkpt>
      <trkpt lat="44.29596" lon="5.66672">
        <ele>765</ele>
        <time>2018-07-17T11:00:21Z</time>
      </trkpt>
      <trkpt lat="44.29598" lon="5.66671">
        <ele>765</ele>
        <time>2018-07-17T11:00:23Z</time>
      </trkpt>
      <trkpt lat="44.296" lon="5.6667">
        <ele>765</ele>
        <time>2018-07-17T11:00:25Z</time>
      </trkpt>
      <trkpt lat="44.29601" lon="5.66668">
        <ele>765</ele>
        <time>2018-07-17T11:00:27Z</time>
      </trkpt>
      <trkpt lat="44.29603" lon="5.66667">
        <ele>765</ele>
        <time>2018-07-17T11:00:29Z</time>
      </trkpt>
      <trkpt lat="44.29604" lon="5.66665">
        <ele>765</ele>
        <time>2018-07-17T11:00:30Z</time>
      </trkpt>
      <trkpt lat="44.29604" lon="5.66663">
        <ele>765</ele>
        <time>2018-07-17T11:00:31Z</time>
      </trkpt>
      <trkpt lat="44.29604" lon="5.66662">
        <ele>765</ele>
        <time>2018-07-17T11:00:32Z</time>
      </trkpt>
      <trkpt lat="44.29604" lon="5.6666">
        <ele>765</ele>
        <time>2018-07-17T11:00:33Z</time>
      </trkpt>
      <trkpt lat="44.29605" lon="5.66658">
        <ele>765</ele>
        <time>2018-07-17T11:00:35Z</time>
      </trkpt>
      <trkpt lat="44.29606" lon="5.66656">
        <ele>765</ele>
        <time>2018-07-17T11:00:36Z</time>
      </trkpt>
      <trkpt lat="44.29607" lon="5.66655">
        <ele>765</ele>
        <time>2018-07-17T11:00:37Z</time>
      </trkpt>
      <trkpt lat="44.29608" lon="5.66655">
        <ele>765</ele>
        <time>2018-07-17T11:00:38Z</time>
      </trkpt>
      <trkpt lat="44.29609" lon="5.66653">
        <ele>764</ele>
        <time>2018-07-17T11:00:40Z</time>
      </trkpt>
      <trkpt lat="44.2961" lon="5.66652">
        <ele>764</ele>
        <time>2018-07-17T11:00:42Z</time>
      </trkpt>
      <trkpt lat="44.29612" lon="5.6665">
        <ele>763</ele>
        <time>2018-07-17T11:00:45Z</time>
      </trkpt>
      <trkpt lat="44.29613" lon="5.66647">
        <ele>763</ele>
        <time>2018-07-17T11:00:47Z</time>
      </trkpt>
      <trkpt lat="44.29613" lon="5.66646">
        <ele>763</ele>
        <time>2018-07-17T11:00:48Z</time>
      </trkpt>
      <trkpt lat="44.29614" lon="5.66643">
        <ele>762</ele>
        <time>2018-07-17T11:00:50Z</time>
      </trkpt>
      <trkpt lat="44.29615" lon="5.66642">
        <ele>761</ele>
        <time>2018-07-17T11:00:52Z</time>
      </trkpt>
      <trkpt lat="44.29617" lon="5.66641">
        <ele>760</ele>
        <time>2018-07-17T11:00:54Z</time>
      </trkpt>
      <trkpt lat="44.29618" lon="5.66641">
        <ele>759</ele>
        <time>2018-07-17T11:00:56Z</time>
      </trkpt>
      <trkpt lat="44.29619" lon="5.66639">
        <ele>759</ele>
        <time>2018-07-17T11:00:58Z</time>
      </trkpt>
      <trkpt lat="44.2962" lon="5.66639">
        <ele>758</ele>
        <time>2018-07-17T11:01:06Z</time>
      </trkpt>
      <trkpt lat="44.29622" lon="5.6664">
        <ele>758</ele>
        <time>2018-07-17T11:01:08Z</time>
      </trkpt>
      <trkpt lat="44.29623" lon="5.66639">
        <ele>758</ele>
        <time>2018-07-17T11:01:10Z</time>
      </trkpt>
      <trkpt lat="44.29625" lon="5.66638">
        <ele>757</ele>
        <time>2018-07-17T11:01:11Z</time>
      </trkpt>
      <trkpt lat="44.29626" lon="5.66637">
        <ele>757</ele>
        <time>2018-07-17T11:01:12Z</time>
      </trkpt>
      <trkpt lat="44.29628" lon="5.66636">
        <ele>757</ele>
        <time>2018-07-17T11:01:13Z</time>
      </trkpt>
      <trkpt lat="44.2963" lon="5.66635">
        <ele>757</ele>
        <time>2018-07-17T11:01:14Z</time>
      </trkpt>
      <trkpt lat="44.29631" lon="5.66635">
        <ele>757</ele>
        <time>2018-07-17T11:01:15Z</time>
      </trkpt>
      <trkpt lat="44.29633" lon="5.66635">
        <ele>757</ele>
        <time>2018-07-17T11:01:17Z</time>
      </trkpt>
      <trkpt lat="44.29635" lon="5.66635">
        <ele>756</ele>
        <time>2018-07-17T11:01:19Z</time>
      </trkpt>
      <trkpt lat="44.29636" lon="5.66635">
        <ele>756</ele>
        <time>2018-07-17T11:01:20Z</time>
      </trkpt>
      <trkpt lat="44.29638" lon="5.66636">
        <ele>756</ele>
        <time>2018-07-17T11:01:21Z</time>
      </trkpt>
      <trkpt lat="44.29637" lon="5.66633">
        <ele>755</ele>
        <time>2018-07-17T11:01:25Z</time>
      </trkpt>
      <trkpt lat="44.29638" lon="5.66632">
        <ele>755</ele>
        <time>2018-07-17T11:01:32Z</time>
      </trkpt>
      <trkpt lat="44.29637" lon="5.6663">
        <ele>755</ele>
        <time>2018-07-17T11:01:33Z</time>
      </trkpt>
      <trkpt lat="44.29638" lon="5.6663">
        <ele>755</ele>
        <time>2018-07-17T11:01:39Z</time>
      </trkpt>
      <trkpt lat="44.29639" lon="5.66629">
        <ele>755</ele>
        <time>2018-07-17T11:01:41Z</time>
      </trkpt>
      <trkpt lat="44.29638" lon="5.66628">
        <ele>757</ele>
        <time>2018-07-17T11:01:44Z</time>
      </trkpt>
      <trkpt lat="44.29636" lon="5.66629">
        <ele>757</ele>
        <time>2018-07-17T11:01:46Z</time>
      </trkpt>
      <trkpt lat="44.29635" lon="5.66629">
        <ele>757</ele>
        <time>2018-07-17T11:01:48Z</time>
      </trkpt>
      <trkpt lat="44.29633" lon="5.66628">
        <ele>757</ele>
        <time>2018-07-17T11:01:50Z</time>
      </trkpt>
      <trkpt lat="44.29632" lon="5.66628">
        <ele>757</ele>
        <time>2018-07-17T11:01:52Z</time>
      </trkpt>
      <trkpt lat="44.29632" lon="5.6663">
        <ele>757</ele>
        <time>2018-07-17T11:01:57Z</time>
      </trkpt>
      <trkpt lat="44.29634" lon="5.6663">
        <ele>757</ele>
        <time>2018-07-17T11:02:03Z</time>
      </trkpt>
      <trkpt lat="44.29636" lon="5.6663">
        <ele>757</ele>
        <time>2018-07-17T11:02:05Z</time>
      </trkpt>
      <trkpt lat="44.29637" lon="5.66631">
        <ele>757</ele>
        <time>2018-07-17T11:02:06Z</time>
      </trkpt>
      <trkpt lat="44.29639" lon="5.6663">
        <ele>757</ele>
        <time>2018-07-17T11:02:08Z</time>
      </trkpt>
      <trkpt lat="44.2964" lon="5.66629">
        <ele>757</ele>
        <time>2018-07-17T11:02:10Z</time>
      </trkpt>
      <trkpt lat="44.29642" lon="5.66628">
        <ele>757</ele>
        <time>2018-07-17T11:02:11Z</time>
      </trkpt>
      <trkpt lat="44.29643" lon="5.66628">
        <ele>757</ele>
        <time>2018-07-17T11:02:12Z</time>
      </trkpt>
      <trkpt lat="44.29645" lon="5.66628">
        <ele>756</ele>
        <time>2018-07-17T11:02:14Z</time>
      </trkpt>
      <trkpt lat="44.29647" lon="5.66628">
        <ele>756</ele>
        <time>2018-07-17T11:02:16Z</time>
      </trkpt>
      <trkpt lat="44.29648" lon="5.66627">
        <ele>756</ele>
        <time>2018-07-17T11:02:18Z</time>
      </trkpt>
      <trkpt lat="44.2965" lon="5.66626">
        <ele>756</ele>
        <time>2018-07-17T11:02:20Z</time>
      </trkpt>
      <trkpt lat="44.29651" lon="5.66627">
        <ele>756</ele>
        <time>2018-07-17T11:02:21Z</time>
      </trkpt>
      <trkpt lat="44.29653" lon="5.66627">
        <ele>756</ele>
        <time>2018-07-17T11:02:23Z</time>
      </trkpt>
      <trkpt lat="44.29655" lon="5.66627">
        <ele>755</ele>
        <time>2018-07-17T11:02:25Z</time>
      </trkpt>
      <trkpt lat="44.29656" lon="5.66626">
        <ele>755</ele>
        <time>2018-07-17T11:02:27Z</time>
      </trkpt>
      <trkpt lat="44.29658" lon="5.66624">
        <ele>755</ele>
        <time>2018-07-17T11:02:29Z</time>
      </trkpt>
      <trkpt lat="44.2966" lon="5.66623">
        <ele>755</ele>
        <time>2018-07-17T11:02:31Z</time>
      </trkpt>
      <trkpt lat="44.29661" lon="5.66622">
        <ele>755</ele>
        <time>2018-07-17T11:02:33Z</time>
      </trkpt>
      <trkpt lat="44.29662" lon="5.66621">
        <ele>755</ele>
        <time>2018-07-17T11:02:35Z</time>
      </trkpt>
      <trkpt lat="44.29664" lon="5.66621">
        <ele>755</ele>
        <time>2018-07-17T11:02:37Z</time>
      </trkpt>
      <trkpt lat="44.29666" lon="5.6662">
        <ele>754</ele>
        <time>2018-07-17T11:02:39Z</time>
      </trkpt>
      <trkpt lat="44.29667" lon="5.66619">
        <ele>754</ele>
        <time>2018-07-17T11:02:41Z</time>
      </trkpt>
      <trkpt lat="44.29669" lon="5.66619">
        <ele>754</ele>
        <time>2018-07-17T11:02:44Z</time>
      </trkpt>
      <trkpt lat="44.2967" lon="5.66619">
        <ele>754</ele>
        <time>2018-07-17T11:02:46Z</time>
      </trkpt>
      <trkpt lat="44.29672" lon="5.6662">
        <ele>753</ele>
        <time>2018-07-17T11:02:48Z</time>
      </trkpt>
      <trkpt lat="44.29673" lon="5.66619">
        <ele>753</ele>
        <time>2018-07-17T11:02:51Z</time>
      </trkpt>
      <trkpt lat="44.29673" lon="5.66618">
        <ele>753</ele>
        <time>2018-07-17T11:03:03Z</time>
      </trkpt>
      <trkpt lat="44.29675" lon="5.66618">
        <ele>753</ele>
        <time>2018-07-17T11:03:06Z</time>
      </trkpt>
      <trkpt lat="44.29676" lon="5.66617">
        <ele>753</ele>
        <time>2018-07-17T11:03:08Z</time>
      </trkpt>
      <trkpt lat="44.29677" lon="5.66616">
        <ele>753</ele>
        <time>2018-07-17T11:03:10Z</time>
      </trkpt>
      <trkpt lat="44.29679" lon="5.66616">
        <ele>753</ele>
        <time>2018-07-17T11:03:12Z</time>
      </trkpt>
      <trkpt lat="44.29681" lon="5.66615">
        <ele>753</ele>
        <time>2018-07-17T11:03:14Z</time>
      </trkpt>
      <trkpt lat="44.29682" lon="5.66615">
        <ele>753</ele>
        <time>2018-07-17T11:03:15Z</time>
      </trkpt>
      <trkpt lat="44.29683" lon="5.66615">
        <ele>753</ele>
        <time>2018-07-17T11:03:16Z</time>
      </trkpt>
      <trkpt lat="44.29685" lon="5.66614">
        <ele>753</ele>
        <time>2018-07-17T11:03:18Z</time>
      </trkpt>
      <trkpt lat="44.29687" lon="5.66614">
        <ele>753</ele>
        <time>2018-07-17T11:03:19Z</time>
      </trkpt>
      <trkpt lat="44.29689" lon="5.66613">
        <ele>753</ele>
        <time>2018-07-17T11:03:21Z</time>
      </trkpt>
      <trkpt lat="44.2969" lon="5.66612">
        <ele>753</ele>
        <time>2018-07-17T11:03:23Z</time>
      </trkpt>
      <trkpt lat="44.29692" lon="5.66611">
        <ele>753</ele>
        <time>2018-07-17T11:03:25Z</time>
      </trkpt>
      <trkpt lat="44.29693" lon="5.6661">
        <ele>753</ele>
        <time>2018-07-17T11:03:27Z</time>
      </trkpt>
      <trkpt lat="44.29695" lon="5.66609">
        <ele>753</ele>
        <time>2018-07-17T11:03:29Z</time>
      </trkpt>
      <trkpt lat="44.29697" lon="5.66608">
        <ele>753</ele>
        <time>2018-07-17T11:03:31Z</time>
      </trkpt>
      <trkpt lat="44.29698" lon="5.66608">
        <ele>753</ele>
        <time>2018-07-17T11:03:33Z</time>
      </trkpt>
      <trkpt lat="44.29699" lon="5.66606">
        <ele>753</ele>
        <time>2018-07-17T11:03:38Z</time>
      </trkpt>
      <trkpt lat="44.297" lon="5.66606">
        <ele>753</ele>
        <time>2018-07-17T11:03:39Z</time>
      </trkpt>
      <trkpt lat="44.29702" lon="5.66606">
        <ele>753</ele>
        <time>2018-07-17T11:03:41Z</time>
      </trkpt>
      <trkpt lat="44.29704" lon="5.66605">
        <ele>753</ele>
        <time>2018-07-17T11:03:43Z</time>
      </trkpt>
      <trkpt lat="44.29705" lon="5.66605">
        <ele>753</ele>
        <time>2018-07-17T11:03:45Z</time>
      </trkpt>
      <trkpt lat="44.29707" lon="5.66603">
        <ele>753</ele>
        <time>2018-07-17T11:03:47Z</time>
      </trkpt>
      <trkpt lat="44.29708" lon="5.66602">
        <ele>753</ele>
        <time>2018-07-17T11:03:49Z</time>
      </trkpt>
      <trkpt lat="44.29708" lon="5.666">
        <ele>753</ele>
        <time>2018-07-17T11:03:51Z</time>
      </trkpt>
      <trkpt lat="44.29707" lon="5.66599">
        <ele>753</ele>
        <time>2018-07-17T11:04:00Z</time>
      </trkpt>
      <trkpt lat="44.29705" lon="5.66598">
        <ele>753</ele>
        <time>2018-07-17T11:04:10Z</time>
      </trkpt>
      <trkpt lat="44.29704" lon="5.66597">
        <ele>753</ele>
        <time>2018-07-17T11:04:12Z</time>
      </trkpt>
      <trkpt lat="44.29702" lon="5.66596">
        <ele>753</ele>
        <time>2018-07-17T11:04:15Z</time>
      </trkpt>
      <trkpt lat="44.297" lon="5.66597">
        <ele>753</ele>
        <time>2018-07-17T11:04:17Z</time>
      </trkpt>
      <trkpt lat="44.29699" lon="5.66596">
        <ele>753</ele>
        <time>2018-07-17T11:04:20Z</time>
      </trkpt>
      <trkpt lat="44.29699" lon="5.66594">
        <ele>753</ele>
        <time>2018-07-17T11:04:22Z</time>
      </trkpt>
      <trkpt lat="44.29699" lon="5.66592">
        <ele>753</ele>
        <time>2018-07-17T11:04:23Z</time>
      </trkpt>
      <trkpt lat="44.29699" lon="5.6659">
        <ele>753</ele>
        <time>2018-07-17T11:04:24Z</time>
      </trkpt>
      <trkpt lat="44.29699" lon="5.66588">
        <ele>753</ele>
        <time>2018-07-17T11:04:25Z</time>
      </trkpt>
      <trkpt lat="44.29701" lon="5.66587">
        <ele>752</ele>
        <time>2018-07-17T11:04:27Z</time>
      </trkpt>
      <trkpt lat="44.29702" lon="5.66587">
        <ele>752</ele>
        <time>2018-07-17T11:04:28Z</time>
      </trkpt>
      <trkpt lat="44.29704" lon="5.66585">
        <ele>750</ele>
        <time>2018-07-17T11:04:31Z</time>
      </trkpt>
      <trkpt lat="44.29705" lon="5.66583">
        <ele>750</ele>
        <time>2018-07-17T11:04:34Z</time>
      </trkpt>
      <trkpt lat="44.29707" lon="5.66582">
        <ele>750</ele>
        <time>2018-07-17T11:04:37Z</time>
      </trkpt>
      <trkpt lat="44.29708" lon="5.6658">
        <ele>750</ele>
        <time>2018-07-17T11:04:39Z</time>
      </trkpt>
      <trkpt lat="44.2971" lon="5.6658">
        <ele>749</ele>
        <time>2018-07-17T11:04:41Z</time>
      </trkpt>
      <trkpt lat="44.29711" lon="5.66579">
        <ele>749</ele>
        <time>2018-07-17T11:04:43Z</time>
      </trkpt>
      <trkpt lat="44.29713" lon="5.66578">
        <ele>749</ele>
        <time>2018-07-17T11:04:45Z</time>
      </trkpt>
      <trkpt lat="44.29714" lon="5.66576">
        <ele>749</ele>
        <time>2018-07-17T11:04:47Z</time>
      </trkpt>
      <trkpt lat="44.29715" lon="5.66574">
        <ele>749</ele>
        <time>2018-07-17T11:04:49Z</time>
      </trkpt>
      <trkpt lat="44.29717" lon="5.66573">
        <ele>749</ele>
        <time>2018-07-17T11:04:51Z</time>
      </trkpt>
      <trkpt lat="44.29718" lon="5.66572">
        <ele>749</ele>
        <time>2018-07-17T11:04:53Z</time>
      </trkpt>
      <trkpt lat="44.2972" lon="5.66572">
        <ele>749</ele>
        <time>2018-07-17T11:04:55Z</time>
      </trkpt>
      <trkpt lat="44.29721" lon="5.6657">
        <ele>749</ele>
        <time>2018-07-17T11:04:57Z</time>
      </trkpt>
      <trkpt lat="44.29723" lon="5.66569">
        <ele>749</ele>
        <time>2018-07-17T11:04:59Z</time>
      </trkpt>
      <trkpt lat="44.29724" lon="5.66568">
        <ele>749</ele>
        <time>2018-07-17T11:05:01Z</time>
      </trkpt>
      <trkpt lat="44.29726" lon="5.66567">
        <ele>749</ele>
        <time>2018-07-17T11:05:03Z</time>
      </trkpt>
      <trkpt lat="44.29726" lon="5.66566">
        <ele>749</ele>
        <time>2018-07-17T11:05:05Z</time>
      </trkpt>
      <trkpt lat="44.29728" lon="5.66564">
        <ele>749</ele>
        <time>2018-07-17T11:05:08Z</time>
      </trkpt>
      <trkpt lat="44.2973" lon="5.66563">
        <ele>749</ele>
        <time>2018-07-17T11:05:10Z</time>
      </trkpt>
      <trkpt lat="44.29731" lon="5.66562">
        <ele>749</ele>
        <time>2018-07-17T11:05:12Z</time>
      </trkpt>
      <trkpt lat="44.29733" lon="5.66561">
        <ele>749</ele>
        <time>2018-07-17T11:05:14Z</time>
      </trkpt>
      <trkpt lat="44.29735" lon="5.66561">
        <ele>750</ele>
        <time>2018-07-17T11:05:16Z</time>
      </trkpt>
      <trkpt lat="44.29736" lon="5.66561">
        <ele>750</ele>
        <time>2018-07-17T11:05:18Z</time>
      </trkpt>
      <trkpt lat="44.29738" lon="5.6656">
        <ele>751</ele>
        <time>2018-07-17T11:05:20Z</time>
      </trkpt>
      <trkpt lat="44.29739" lon="5.66559">
        <ele>751</ele>
        <time>2018-07-17T11:05:22Z</time>
      </trkpt>
      <trkpt lat="44.29741" lon="5.66559">
        <ele>751</ele>
        <time>2018-07-17T11:05:24Z</time>
      </trkpt>
      <trkpt lat="44.29743" lon="5.66557">
        <ele>751</ele>
        <time>2018-07-17T11:05:26Z</time>
      </trkpt>
      <trkpt lat="44.29745" lon="5.66556">
        <ele>751</ele>
        <time>2018-07-17T11:05:28Z</time>
      </trkpt>
      <trkpt lat="44.29747" lon="5.66554">
        <ele>751</ele>
        <time>2018-07-17T11:05:30Z</time>
      </trkpt>
      <trkpt lat="44.29749" lon="5.66554">
        <ele>750</ele>
        <time>2018-07-17T11:05:32Z</time>
      </trkpt>
      <trkpt lat="44.2975" lon="5.66553">
        <ele>749</ele>
        <time>2018-07-17T11:05:34Z</time>
      </trkpt>
      <trkpt lat="44.29752" lon="5.66552">
        <ele>748</ele>
        <time>2018-07-17T11:05:36Z</time>
      </trkpt>
      <trkpt lat="44.29753" lon="5.66551">
        <ele>747</ele>
        <time>2018-07-17T11:05:38Z</time>
      </trkpt>
      <trkpt lat="44.29754" lon="5.6655">
        <ele>746</ele>
        <time>2018-07-17T11:05:40Z</time>
      </trkpt>
      <trkpt lat="44.29754" lon="5.66548">
        <ele>746</ele>
        <time>2018-07-17T11:05:42Z</time>
      </trkpt>
      <trkpt lat="44.29756" lon="5.66547">
        <ele>746</ele>
        <time>2018-07-17T11:05:44Z</time>
      </trkpt>
      <trkpt lat="44.29757" lon="5.66547">
        <ele>746</ele>
        <time>2018-07-17T11:05:46Z</time>
      </trkpt>
      <trkpt lat="44.29759" lon="5.66545">
        <ele>746</ele>
        <time>2018-07-17T11:05:49Z</time>
      </trkpt>
      <trkpt lat="44.29758" lon="5.66544">
        <ele>746</ele>
        <time>2018-07-17T11:06:01Z</time>
      </trkpt>
      <trkpt lat="44.29757" lon="5.66545">
        <ele>746</ele>
        <time>2018-07-17T11:06:52Z</time>
      </trkpt>
      <trkpt lat="44.29756" lon="5.66546">
        <ele>746</ele>
        <time>2018-07-17T11:07:00Z</time>
      </trkpt>
      <trkpt lat="44.29755" lon="5.66548">
        <ele>746</ele>
        <time>2018-07-17T11:07:09Z</time>
      </trkpt>
      <trkpt lat="44.29756" lon="5.66546">
        <ele>744</ele>
        <time>2018-07-17T11:08:09Z</time>
      </trkpt>
      <trkpt lat="44.29755" lon="5.66544">
        <ele>744</ele>
        <time>2018-07-17T11:08:11Z</time>
      </trkpt>
      <trkpt lat="44.29754" lon="5.66543">
        <ele>744</ele>
        <time>2018-07-17T11:08:13Z</time>
      </trkpt>
      <trkpt lat="44.29753" lon="5.66541">
        <ele>744</ele>
        <time>2018-07-17T11:08:14Z</time>
      </trkpt>
      <trkpt lat="44.29753" lon="5.66539">
        <ele>744</ele>
        <time>2018-07-17T11:08:17Z</time>
      </trkpt>
      <trkpt lat="44.29752" lon="5.66536">
        <ele>744</ele>
        <time>2018-07-17T11:08:20Z</time>
      </trkpt>
      <trkpt lat="44.29754" lon="5.66536">
        <ele>744</ele>
        <time>2018-07-17T11:08:22Z</time>
      </trkpt>
      <trkpt lat="44.29753" lon="5.66534">
        <ele>744</ele>
        <time>2018-07-17T11:08:27Z</time>
      </trkpt>
      <trkpt lat="44.29755" lon="5.66535">
        <ele>744</ele>
        <time>2018-07-17T11:08:34Z</time>
      </trkpt>
      <trkpt lat="44.29756" lon="5.66536">
        <ele>744</ele>
        <time>2018-07-17T11:08:37Z</time>
      </trkpt>
      <trkpt lat="44.29757" lon="5.66537">
        <ele>744</ele>
        <time>2018-07-17T11:08:42Z</time>
      </trkpt>
      <trkpt lat="44.29758" lon="5.66538">
        <ele>744</ele>
        <time>2018-07-17T11:08:48Z</time>
      </trkpt>
      <trkpt lat="44.29758" lon="5.6654">
        <ele>744</ele>
        <time>2018-07-17T11:08:51Z</time>
      </trkpt>
      <trkpt lat="44.29758" lon="5.66539">
        <ele>744</ele>
        <time>2018-07-17T11:08:56Z</time>
      </trkpt>
      <trkpt lat="44.29758" lon="5.66541">
        <ele>744</ele>
        <time>2018-07-17T11:09:09Z</time>
      </trkpt>
      <trkpt lat="44.29758" lon="5.66542">
        <ele>744</ele>
        <time>2018-07-17T11:09:13Z</time>
      </trkpt>
      <trkpt lat="44.29758" lon="5.66544">
        <ele>744</ele>
        <time>2018-07-17T11:09:15Z</time>
      </trkpt>
      <trkpt lat="44.29759" lon="5.66546">
        <ele>744</ele>
        <time>2018-07-17T11:09:18Z</time>
      </trkpt>
      <trkpt lat="44.29759" lon="5.66547">
        <ele>744</ele>
        <time>2018-07-17T11:09:24Z</time>
      </trkpt>
      <trkpt lat="44.29759" lon="5.66549">
        <ele>743</ele>
        <time>2018-07-17T11:09:30Z</time>
      </trkpt>
      <trkpt lat="44.29758" lon="5.66551">
        <ele>741</ele>
        <time>2018-07-17T11:09:34Z</time>
      </trkpt>
      <trkpt lat="44.29759" lon="5.66549">
        <ele>740</ele>
        <time>2018-07-17T11:09:45Z</time>
      </trkpt>
      <trkpt lat="44.29759" lon="5.66548">
        <ele>740</ele>
        <time>2018-07-17T11:09:51Z</time>
      </trkpt>
      <trkpt lat="44.29758" lon="5.66546">
        <ele>740</ele>
        <time>2018-07-17T11:09:55Z</time>
      </trkpt>
      <trkpt lat="44.29758" lon="5.66545">
        <ele>740</ele>
        <time>2018-07-17T11:10:02Z</time>
      </trkpt>
      <trkpt lat="44.29758" lon="5.66543">
        <ele>740</ele>
        <time>2018-07-17T11:10:23Z</time>
      </trkpt>
      <trkpt lat="44.29757" lon="5.66543">
        <ele>740</ele>
        <time>2018-07-17T11:10:47Z</time>
      </trkpt>
      <trkpt lat="44.29758" lon="5.66544">
        <ele>740</ele>
        <time>2018-07-17T11:12:33Z</time>
      </trkpt>
      <trkpt lat="44.29757" lon="5.66542">
        <ele>740</ele>
        <time>2018-07-17T11:12:39Z</time>
      </trkpt>
      <trkpt lat="44.29757" lon="5.66544">
        <ele>740</ele>
        <time>2018-07-17T11:12:41Z</time>
      </trkpt>
      <trkpt lat="44.29757" lon="5.66543">
        <ele>740</ele>
        <time>2018-07-17T11:12:45Z</time>
      </trkpt>
      <trkpt lat="44.29758" lon="5.66543">
        <ele>740</ele>
        <time>2018-07-17T11:13:00Z</time>
      </trkpt>
      <trkpt lat="44.29759" lon="5.66543">
        <ele>740</ele>
        <time>2018-07-17T11:13:05Z</time>
      </trkpt>
      <trkpt lat="44.2976" lon="5.66544">
        <ele>739</ele>
        <time>2018-07-17T11:13:25Z</time>
      </trkpt>
      <trkpt lat="44.29759" lon="5.66543">
        <ele>739</ele>
        <time>2018-07-17T11:13:35Z</time>
      </trkpt>
      <trkpt lat="44.29758" lon="5.66543">
        <ele>739</ele>
        <time>2018-07-17T11:13:53Z</time>
      </trkpt>
      <trkpt lat="44.29758" lon="5.66544">
        <ele>739</ele>
        <time>2018-07-17T11:14:33Z</time>
      </trkpt>
      <trkpt lat="44.29758" lon="5.66543">
        <ele>738</ele>
        <time>2018-07-17T11:14:42Z</time>
      </trkpt>
      <trkpt lat="44.2976" lon="5.66543">
        <ele>738</ele>
        <time>2018-07-17T11:14:52Z</time>
      </trkpt>
      <trkpt lat="44.29761" lon="5.66543">
        <ele>738</ele>
        <time>2018-07-17T11:14:54Z</time>
      </trkpt>
      <trkpt lat="44.29763" lon="5.66543">
        <ele>738</ele>
        <time>2018-07-17T11:14:56Z</time>
      </trkpt>
      <trkpt lat="44.29765" lon="5.66542">
        <ele>738</ele>
        <time>2018-07-17T11:14:58Z</time>
      </trkpt>
      <trkpt lat="44.29767" lon="5.66541">
        <ele>738</ele>
        <time>2018-07-17T11:15:00Z</time>
      </trkpt>
      <trkpt lat="44.29768" lon="5.6654">
        <ele>738</ele>
        <time>2018-07-17T11:15:02Z</time>
      </trkpt>
      <trkpt lat="44.2977" lon="5.66539">
        <ele>738</ele>
        <time>2018-07-17T11:15:04Z</time>
      </trkpt>
      <trkpt lat="44.29771" lon="5.66538">
        <ele>738</ele>
        <time>2018-07-17T11:15:06Z</time>
      </trkpt>
      <trkpt lat="44.29773" lon="5.66537">
        <ele>738</ele>
        <time>2018-07-17T11:15:08Z</time>
      </trkpt>
      <trkpt lat="44.29774" lon="5.66537">
        <ele>738</ele>
        <time>2018-07-17T11:15:10Z</time>
      </trkpt>
      <trkpt lat="44.29776" lon="5.66536">
        <ele>738</ele>
        <time>2018-07-17T11:15:12Z</time>
      </trkpt>
      <trkpt lat="44.29777" lon="5.66535">
        <ele>738</ele>
        <time>2018-07-17T11:15:14Z</time>
      </trkpt>
      <trkpt lat="44.29779" lon="5.66535">
        <ele>738</ele>
        <time>2018-07-17T11:15:16Z</time>
      </trkpt>
      <trkpt lat="44.2978" lon="5.66534">
        <ele>738</ele>
        <time>2018-07-17T11:15:18Z</time>
      </trkpt>
      <trkpt lat="44.29782" lon="5.66532">
        <ele>738</ele>
        <time>2018-07-17T11:15:20Z</time>
      </trkpt>
      <trkpt lat="44.29783" lon="5.66531">
        <ele>738</ele>
        <time>2018-07-17T11:15:23Z</time>
      </trkpt>
      <trkpt lat="44.29785" lon="5.66529">
        <ele>738</ele>
        <time>2018-07-17T11:15:25Z</time>
      </trkpt>
      <trkpt lat="44.29786" lon="5.66528">
        <ele>738</ele>
        <time>2018-07-17T11:15:27Z</time>
      </trkpt>
      <trkpt lat="44.29787" lon="5.66526">
        <ele>738</ele>
        <time>2018-07-17T11:15:29Z</time>
      </trkpt>
      <trkpt lat="44.29788" lon="5.66524">
        <ele>738</ele>
        <time>2018-07-17T11:15:31Z</time>
      </trkpt>
      <trkpt lat="44.29789" lon="5.66522">
        <ele>738</ele>
        <time>2018-07-17T11:15:33Z</time>
      </trkpt>
      <trkpt lat="44.2979" lon="5.66519">
        <ele>738</ele>
        <time>2018-07-17T11:15:35Z</time>
      </trkpt>
      <trkpt lat="44.29792" lon="5.66518">
        <ele>738</ele>
        <time>2018-07-17T11:15:37Z</time>
      </trkpt>
      <trkpt lat="44.29794" lon="5.66517">
        <ele>738</ele>
        <time>2018-07-17T11:15:39Z</time>
      </trkpt>
      <trkpt lat="44.29795" lon="5.66515">
        <ele>738</ele>
        <time>2018-07-17T11:15:41Z</time>
      </trkpt>
      <trkpt lat="44.29796" lon="5.66513">
        <ele>738</ele>
        <time>2018-07-17T11:15:43Z</time>
      </trkpt>
      <trkpt lat="44.29797" lon="5.66511">
        <ele>738</ele>
        <time>2018-07-17T11:15:45Z</time>
      </trkpt>
      <trkpt lat="44.29799" lon="5.6651">
        <ele>738</ele>
        <time>2018-07-17T11:15:47Z</time>
      </trkpt>
      <trkpt lat="44.29801" lon="5.66508">
        <ele>738</ele>
        <time>2018-07-17T11:15:49Z</time>
      </trkpt>
      <trkpt lat="44.29802" lon="5.66506">
        <ele>738</ele>
        <time>2018-07-17T11:15:51Z</time>
      </trkpt>
      <trkpt lat="44.29802" lon="5.66504">
        <ele>738</ele>
        <time>2018-07-17T11:15:52Z</time>
      </trkpt>
      <trkpt lat="44.29803" lon="5.66503">
        <ele>738</ele>
        <time>2018-07-17T11:15:54Z</time>
      </trkpt>
      <trkpt lat="44.29804" lon="5.66501">
        <ele>738</ele>
        <time>2018-07-17T11:15:56Z</time>
      </trkpt>
      <trkpt lat="44.29805" lon="5.66499">
        <ele>738</ele>
        <time>2018-07-17T11:15:58Z</time>
      </trkpt>
      <trkpt lat="44.29807" lon="5.66497">
        <ele>738</ele>
        <time>2018-07-17T11:16:00Z</time>
      </trkpt>
      <trkpt lat="44.29808" lon="5.66496">
        <ele>738</ele>
        <time>2018-07-17T11:16:02Z</time>
      </trkpt>
      <trkpt lat="44.29809" lon="5.66493">
        <ele>738</ele>
        <time>2018-07-17T11:16:04Z</time>
      </trkpt>
      <trkpt lat="44.29809" lon="5.66491">
        <ele>738</ele>
        <time>2018-07-17T11:16:05Z</time>
      </trkpt>
      <trkpt lat="44.2981" lon="5.66489">
        <ele>738</ele>
        <time>2018-07-17T11:16:07Z</time>
      </trkpt>
      <trkpt lat="44.29812" lon="5.66487">
        <ele>738</ele>
        <time>2018-07-17T11:16:09Z</time>
      </trkpt>
      <trkpt lat="44.29813" lon="5.66486">
        <ele>738</ele>
        <time>2018-07-17T11:16:11Z</time>
      </trkpt>
      <trkpt lat="44.29815" lon="5.66484">
        <ele>738</ele>
        <time>2018-07-17T11:16:13Z</time>
      </trkpt>
      <trkpt lat="44.29817" lon="5.66482">
        <ele>738</ele>
        <time>2018-07-17T11:16:15Z</time>
      </trkpt>
      <trkpt lat="44.29818" lon="5.66483">
        <ele>738</ele>
        <time>2018-07-17T11:16:16Z</time>
      </trkpt>
      <trkpt lat="44.2982" lon="5.66484">
        <ele>738</ele>
        <time>2018-07-17T11:16:17Z</time>
      </trkpt>
      <trkpt lat="44.29821" lon="5.66485">
        <ele>738</ele>
        <time>2018-07-17T11:16:18Z</time>
      </trkpt>
      <trkpt lat="44.29823" lon="5.66485">
        <ele>738</ele>
        <time>2018-07-17T11:16:19Z</time>
      </trkpt>
      <trkpt lat="44.29825" lon="5.66485">
        <ele>738</ele>
        <time>2018-07-17T11:16:21Z</time>
      </trkpt>
      <trkpt lat="44.29827" lon="5.66485">
        <ele>738</ele>
        <time>2018-07-17T11:16:23Z</time>
      </trkpt>
      <trkpt lat="44.29829" lon="5.66486">
        <ele>738</ele>
        <time>2018-07-17T11:16:25Z</time>
      </trkpt>
      <trkpt lat="44.29831" lon="5.66486">
        <ele>738</ele>
        <time>2018-07-17T11:16:27Z</time>
      </trkpt>
      <trkpt lat="44.29833" lon="5.66486">
        <ele>738</ele>
        <time>2018-07-17T11:16:29Z</time>
      </trkpt>
      <trkpt lat="44.29835" lon="5.66486">
        <ele>738</ele>
        <time>2018-07-17T11:16:31Z</time>
      </trkpt>
      <trkpt lat="44.29836" lon="5.66486">
        <ele>738</ele>
        <time>2018-07-17T11:16:33Z</time>
      </trkpt>
      <trkpt lat="44.29837" lon="5.66487">
        <ele>738</ele>
        <time>2018-07-17T11:16:34Z</time>
      </trkpt>
      <trkpt lat="44.29839" lon="5.66487">
        <ele>738</ele>
        <time>2018-07-17T11:16:35Z</time>
      </trkpt>
      <trkpt lat="44.2984" lon="5.66487">
        <ele>738</ele>
        <time>2018-07-17T11:16:37Z</time>
      </trkpt>
      <trkpt lat="44.29843" lon="5.66487">
        <ele>737</ele>
        <time>2018-07-17T11:16:39Z</time>
      </trkpt>
      <trkpt lat="44.29844" lon="5.66487">
        <ele>737</ele>
        <time>2018-07-17T11:16:40Z</time>
      </trkpt>
      <trkpt lat="44.29846" lon="5.66487">
        <ele>737</ele>
        <time>2018-07-17T11:16:42Z</time>
      </trkpt>
      <trkpt lat="44.29847" lon="5.66487">
        <ele>737</ele>
        <time>2018-07-17T11:16:43Z</time>
      </trkpt>
      <trkpt lat="44.29849" lon="5.66486">
        <ele>737</ele>
        <time>2018-07-17T11:16:45Z</time>
      </trkpt>
      <trkpt lat="44.29851" lon="5.66487">
        <ele>737</ele>
        <time>2018-07-17T11:16:47Z</time>
      </trkpt>
      <trkpt lat="44.29852" lon="5.66488">
        <ele>737</ele>
        <time>2018-07-17T11:16:48Z</time>
      </trkpt>
      <trkpt lat="44.29853" lon="5.66488">
        <ele>737</ele>
        <time>2018-07-17T11:16:49Z</time>
      </trkpt>
      <trkpt lat="44.29855" lon="5.6649">
        <ele>736</ele>
        <time>2018-07-17T11:16:51Z</time>
      </trkpt>
      <trkpt lat="44.29858" lon="5.66491">
        <ele>736</ele>
        <time>2018-07-17T11:16:53Z</time>
      </trkpt>
      <trkpt lat="44.2986" lon="5.66493">
        <ele>736</ele>
        <time>2018-07-17T11:16:55Z</time>
      </trkpt>
      <trkpt lat="44.29861" lon="5.66494">
        <ele>736</ele>
        <time>2018-07-17T11:16:57Z</time>
      </trkpt>
      <trkpt lat="44.29863" lon="5.66495">
        <ele>736</ele>
        <time>2018-07-17T11:16:58Z</time>
      </trkpt>
      <trkpt lat="44.29865" lon="5.66494">
        <ele>736</ele>
        <time>2018-07-17T11:17:00Z</time>
      </trkpt>
      <trkpt lat="44.29866" lon="5.66493">
        <ele>736</ele>
        <time>2018-07-17T11:17:02Z</time>
      </trkpt>
      <trkpt lat="44.29868" lon="5.66494">
        <ele>736</ele>
        <time>2018-07-17T11:17:04Z</time>
      </trkpt>
      <trkpt lat="44.2987" lon="5.66495">
        <ele>736</ele>
        <time>2018-07-17T11:17:06Z</time>
      </trkpt>
      <trkpt lat="44.29871" lon="5.66495">
        <ele>736</ele>
        <time>2018-07-17T11:17:08Z</time>
      </trkpt>
      <trkpt lat="44.29873" lon="5.66496">
        <ele>736</ele>
        <time>2018-07-17T11:17:10Z</time>
      </trkpt>
      <trkpt lat="44.29875" lon="5.66496">
        <ele>736</ele>
        <time>2018-07-17T11:17:12Z</time>
      </trkpt>
      <trkpt lat="44.29877" lon="5.66497">
        <ele>736</ele>
        <time>2018-07-17T11:17:14Z</time>
      </trkpt>
      <trkpt lat="44.29879" lon="5.66497">
        <ele>736</ele>
        <time>2018-07-17T11:17:16Z</time>
      </trkpt>
      <trkpt lat="44.29881" lon="5.66497">
        <ele>736</ele>
        <time>2018-07-17T11:17:18Z</time>
      </trkpt>
      <trkpt lat="44.29882" lon="5.66497">
        <ele>736</ele>
        <time>2018-07-17T11:17:19Z</time>
      </trkpt>
      <trkpt lat="44.29884" lon="5.66497">
        <ele>736</ele>
        <time>2018-07-17T11:17:21Z</time>
      </trkpt>
      <trkpt lat="44.29885" lon="5.66498">
        <ele>735</ele>
        <time>2018-07-17T11:17:23Z</time>
      </trkpt>
      <trkpt lat="44.29887" lon="5.66498">
        <ele>735</ele>
        <time>2018-07-17T11:17:25Z</time>
      </trkpt>
      <trkpt lat="44.29889" lon="5.66498">
        <ele>735</ele>
        <time>2018-07-17T11:17:27Z</time>
      </trkpt>
      <trkpt lat="44.2989" lon="5.66498">
        <ele>734</ele>
        <time>2018-07-17T11:17:28Z</time>
      </trkpt>
      <trkpt lat="44.29892" lon="5.66498">
        <ele>734</ele>
        <time>2018-07-17T11:17:30Z</time>
      </trkpt>
      <trkpt lat="44.29894" lon="5.66499">
        <ele>734</ele>
        <time>2018-07-17T11:17:32Z</time>
      </trkpt>
      <trkpt lat="44.29896" lon="5.665">
        <ele>734</ele>
        <time>2018-07-17T11:17:34Z</time>
      </trkpt>
      <trkpt lat="44.29898" lon="5.665">
        <ele>734</ele>
        <time>2018-07-17T11:17:36Z</time>
      </trkpt>
      <trkpt lat="44.299" lon="5.665">
        <ele>734</ele>
        <time>2018-07-17T11:17:37Z</time>
      </trkpt>
      <trkpt lat="44.29901" lon="5.665">
        <ele>734</ele>
        <time>2018-07-17T11:17:38Z</time>
      </trkpt>
      <trkpt lat="44.29903" lon="5.66501">
        <ele>734</ele>
        <time>2018-07-17T11:17:40Z</time>
      </trkpt>
      <trkpt lat="44.29905" lon="5.66502">
        <ele>734</ele>
        <time>2018-07-17T11:17:42Z</time>
      </trkpt>
      <trkpt lat="44.29906" lon="5.66502">
        <ele>734</ele>
        <time>2018-07-17T11:17:44Z</time>
      </trkpt>
      <trkpt lat="44.29908" lon="5.66502">
        <ele>734</ele>
        <time>2018-07-17T11:17:46Z</time>
      </trkpt>
      <trkpt lat="44.29909" lon="5.66502">
        <ele>734</ele>
        <time>2018-07-17T11:17:48Z</time>
      </trkpt>
      <trkpt lat="44.29911" lon="5.66502">
        <ele>734</ele>
        <time>2018-07-17T11:17:50Z</time>
      </trkpt>
      <trkpt lat="44.29913" lon="5.66502">
        <ele>734</ele>
        <time>2018-07-17T11:17:52Z</time>
      </trkpt>
      <trkpt lat="44.29914" lon="5.66501">
        <ele>734</ele>
        <time>2018-07-17T11:17:54Z</time>
      </trkpt>
      <trkpt lat="44.29916" lon="5.665">
        <ele>734</ele>
        <time>2018-07-17T11:17:56Z</time>
      </trkpt>
      <trkpt lat="44.29918" lon="5.665">
        <ele>734</ele>
        <time>2018-07-17T11:17:58Z</time>
      </trkpt>
      <trkpt lat="44.29919" lon="5.66499">
        <ele>734</ele>
        <time>2018-07-17T11:17:59Z</time>
      </trkpt>
      <trkpt lat="44.2992" lon="5.66499">
        <ele>734</ele>
        <time>2018-07-17T11:18:00Z</time>
      </trkpt>
      <trkpt lat="44.29921" lon="5.66498">
        <ele>734</ele>
        <time>2018-07-17T11:18:01Z</time>
      </trkpt>
      <trkpt lat="44.29923" lon="5.66497">
        <ele>734</ele>
        <time>2018-07-17T11:18:03Z</time>
      </trkpt>
      <trkpt lat="44.29926" lon="5.66497">
        <ele>734</ele>
        <time>2018-07-17T11:18:05Z</time>
      </trkpt>
      <trkpt lat="44.29927" lon="5.66497">
        <ele>734</ele>
        <time>2018-07-17T11:18:06Z</time>
      </trkpt>
      <trkpt lat="44.29928" lon="5.66498">
        <ele>734</ele>
        <time>2018-07-17T11:18:08Z</time>
      </trkpt>
      <trkpt lat="44.29928" lon="5.66495">
        <ele>734</ele>
        <time>2018-07-17T11:18:12Z</time>
      </trkpt>
      <trkpt lat="44.29927" lon="5.66493">
        <ele>734</ele>
        <time>2018-07-17T11:18:13Z</time>
      </trkpt>
      <trkpt lat="44.29926" lon="5.66492">
        <ele>734</ele>
        <time>2018-07-17T11:18:14Z</time>
      </trkpt>
      <trkpt lat="44.29925" lon="5.6649">
        <ele>735</ele>
        <time>2018-07-17T11:18:18Z</time>
      </trkpt>
      <trkpt lat="44.29923" lon="5.66488">
        <ele>736</ele>
        <time>2018-07-17T11:18:20Z</time>
      </trkpt>
      <trkpt lat="44.29922" lon="5.66486">
        <ele>737</ele>
        <time>2018-07-17T11:18:21Z</time>
      </trkpt>
      <trkpt lat="44.29921" lon="5.66484">
        <ele>740</ele>
        <time>2018-07-17T11:18:27Z</time>
      </trkpt>
      <trkpt lat="44.29923" lon="5.66487">
        <ele>740</ele>
        <time>2018-07-17T11:18:32Z</time>
      </trkpt>
      <trkpt lat="44.29924" lon="5.66488">
        <ele>740</ele>
        <time>2018-07-17T11:18:33Z</time>
      </trkpt>
      <trkpt lat="44.29926" lon="5.66488">
        <ele>740</ele>
        <time>2018-07-17T11:18:35Z</time>
      </trkpt>
      <trkpt lat="44.29929" lon="5.6649">
        <ele>740</ele>
        <time>2018-07-17T11:18:36Z</time>
      </trkpt>
      <trkpt lat="44.2993" lon="5.66492">
        <ele>740</ele>
        <time>2018-07-17T11:18:37Z</time>
      </trkpt>
      <trkpt lat="44.29931" lon="5.66494">
        <ele>740</ele>
        <time>2018-07-17T11:18:38Z</time>
      </trkpt>
      <trkpt lat="44.29933" lon="5.66494">
        <ele>740</ele>
        <time>2018-07-17T11:18:40Z</time>
      </trkpt>
      <trkpt lat="44.29934" lon="5.66494">
        <ele>740</ele>
        <time>2018-07-17T11:18:41Z</time>
      </trkpt>
      <trkpt lat="44.29935" lon="5.66494">
        <ele>739</ele>
        <time>2018-07-17T11:18:42Z</time>
      </trkpt>
      <trkpt lat="44.29937" lon="5.66495">
        <ele>739</ele>
        <time>2018-07-17T11:18:43Z</time>
      </trkpt>
      <trkpt lat="44.29938" lon="5.66495">
        <ele>739</ele>
        <time>2018-07-17T11:18:44Z</time>
      </trkpt>
      <trkpt lat="44.29939" lon="5.66495">
        <ele>738</ele>
        <time>2018-07-17T11:18:45Z</time>
      </trkpt>
      <trkpt lat="44.2994" lon="5.66494">
        <ele>738</ele>
        <time>2018-07-17T11:18:47Z</time>
      </trkpt>
      <trkpt lat="44.29942" lon="5.66494">
        <ele>738</ele>
        <time>2018-07-17T11:18:49Z</time>
      </trkpt>
      <trkpt lat="44.29942" lon="5.66492">
        <ele>738</ele>
        <time>2018-07-17T11:18:51Z</time>
      </trkpt>
      <trkpt lat="44.29944" lon="5.66491">
        <ele>737</ele>
        <time>2018-07-17T11:18:54Z</time>
      </trkpt>
      <trkpt lat="44.29945" lon="5.66492">
        <ele>736</ele>
        <time>2018-07-17T11:18:56Z</time>
      </trkpt>
      <trkpt lat="44.29947" lon="5.66492">
        <ele>735</ele>
        <time>2018-07-17T11:18:58Z</time>
      </trkpt>
      <trkpt lat="44.29948" lon="5.66491">
        <ele>735</ele>
        <time>2018-07-17T11:19:00Z</time>
      </trkpt>
      <trkpt lat="44.2995" lon="5.66491">
        <ele>734</ele>
        <time>2018-07-17T11:19:02Z</time>
      </trkpt>
      <trkpt lat="44.29951" lon="5.66492">
        <ele>734</ele>
        <time>2018-07-17T11:19:04Z</time>
      </trkpt>
      <trkpt lat="44.29954" lon="5.66492">
        <ele>733</ele>
        <time>2018-07-17T11:19:06Z</time>
      </trkpt>
      <trkpt lat="44.29955" lon="5.66491">
        <ele>733</ele>
        <time>2018-07-17T11:19:08Z</time>
      </trkpt>
      <trkpt lat="44.29957" lon="5.66491">
        <ele>733</ele>
        <time>2018-07-17T11:19:10Z</time>
      </trkpt>
      <trkpt lat="44.29959" lon="5.6649">
        <ele>733</ele>
        <time>2018-07-17T11:19:12Z</time>
      </trkpt>
      <trkpt lat="44.29961" lon="5.66489">
        <ele>733</ele>
        <time>2018-07-17T11:19:14Z</time>
      </trkpt>
      <trkpt lat="44.29962" lon="5.66488">
        <ele>733</ele>
        <time>2018-07-17T11:19:16Z</time>
      </trkpt>
      <trkpt lat="44.29963" lon="5.66486">
        <ele>733</ele>
        <time>2018-07-17T11:19:18Z</time>
      </trkpt>
      <trkpt lat="44.29964" lon="5.66484">
        <ele>733</ele>
        <time>2018-07-17T11:19:20Z</time>
      </trkpt>
      <trkpt lat="44.29965" lon="5.66482">
        <ele>733</ele>
        <time>2018-07-17T11:19:22Z</time>
      </trkpt>
      <trkpt lat="44.29966" lon="5.66481">
        <ele>733</ele>
        <time>2018-07-17T11:19:24Z</time>
      </trkpt>
      <trkpt lat="44.29967" lon="5.66479">
        <ele>733</ele>
        <time>2018-07-17T11:19:26Z</time>
      </trkpt>
      <trkpt lat="44.29969" lon="5.66478">
        <ele>733</ele>
        <time>2018-07-17T11:19:28Z</time>
      </trkpt>
      <trkpt lat="44.29971" lon="5.66477">
        <ele>733</ele>
        <time>2018-07-17T11:19:30Z</time>
      </trkpt>
      <trkpt lat="44.2997" lon="5.66475">
        <ele>733</ele>
        <time>2018-07-17T11:19:32Z</time>
      </trkpt>
      <trkpt lat="44.2997" lon="5.66473">
        <ele>733</ele>
        <time>2018-07-17T11:19:34Z</time>
      </trkpt>
      <trkpt lat="44.29971" lon="5.66472">
        <ele>733</ele>
        <time>2018-07-17T11:19:36Z</time>
      </trkpt>
      <trkpt lat="44.29972" lon="5.66469">
        <ele>733</ele>
        <time>2018-07-17T11:19:38Z</time>
      </trkpt>
      <trkpt lat="44.29973" lon="5.66468">
        <ele>733</ele>
        <time>2018-07-17T11:19:40Z</time>
      </trkpt>
      <trkpt lat="44.29974" lon="5.66466">
        <ele>733</ele>
        <time>2018-07-17T11:19:42Z</time>
      </trkpt>
      <trkpt lat="44.29975" lon="5.66465">
        <ele>733</ele>
        <time>2018-07-17T11:19:44Z</time>
      </trkpt>
      <trkpt lat="44.29977" lon="5.66463">
        <ele>733</ele>
        <time>2018-07-17T11:19:46Z</time>
      </trkpt>
      <trkpt lat="44.29977" lon="5.66461">
        <ele>733</ele>
        <time>2018-07-17T11:19:48Z</time>
      </trkpt>
      <trkpt lat="44.29979" lon="5.6646">
        <ele>733</ele>
        <time>2018-07-17T11:19:51Z</time>
      </trkpt>
      <trkpt lat="44.2998" lon="5.66458">
        <ele>733</ele>
        <time>2018-07-17T11:19:54Z</time>
      </trkpt>
      <trkpt lat="44.29982" lon="5.66458">
        <ele>733</ele>
        <time>2018-07-17T11:19:56Z</time>
      </trkpt>
      <trkpt lat="44.29983" lon="5.66456">
        <ele>733</ele>
        <time>2018-07-17T11:19:58Z</time>
      </trkpt>
      <trkpt lat="44.29984" lon="5.66454">
        <ele>733</ele>
        <time>2018-07-17T11:20:00Z</time>
      </trkpt>
      <trkpt lat="44.29985" lon="5.66452">
        <ele>733</ele>
        <time>2018-07-17T11:20:02Z</time>
      </trkpt>
      <trkpt lat="44.29986" lon="5.66451">
        <ele>733</ele>
        <time>2018-07-17T11:20:04Z</time>
      </trkpt>
      <trkpt lat="44.29987" lon="5.66449">
        <ele>733</ele>
        <time>2018-07-17T11:20:08Z</time>
      </trkpt>
      <trkpt lat="44.29989" lon="5.66449">
        <ele>733</ele>
        <time>2018-07-17T11:20:10Z</time>
      </trkpt>
      <trkpt lat="44.29991" lon="5.66448">
        <ele>733</ele>
        <time>2018-07-17T11:20:12Z</time>
      </trkpt>
      <trkpt lat="44.29993" lon="5.66448">
        <ele>733</ele>
        <time>2018-07-17T11:20:14Z</time>
      </trkpt>
      <trkpt lat="44.29994" lon="5.66447">
        <ele>733</ele>
        <time>2018-07-17T11:20:16Z</time>
      </trkpt>
      <trkpt lat="44.29996" lon="5.66445">
        <ele>733</ele>
        <time>2018-07-17T11:20:18Z</time>
      </trkpt>
      <trkpt lat="44.29997" lon="5.66445">
        <ele>733</ele>
        <time>2018-07-17T11:20:19Z</time>
      </trkpt>
      <trkpt lat="44.29999" lon="5.66444">
        <ele>733</ele>
        <time>2018-07-17T11:20:21Z</time>
      </trkpt>
      <trkpt lat="44.30001" lon="5.66443">
        <ele>733</ele>
        <time>2018-07-17T11:20:23Z</time>
      </trkpt>
      <trkpt lat="44.30003" lon="5.66443">
        <ele>733</ele>
        <time>2018-07-17T11:20:25Z</time>
      </trkpt>
      <trkpt lat="44.30005" lon="5.66442">
        <ele>733</ele>
        <time>2018-07-17T11:20:27Z</time>
      </trkpt>
      <trkpt lat="44.30006" lon="5.66442">
        <ele>733</ele>
        <time>2018-07-17T11:20:29Z</time>
      </trkpt>
      <trkpt lat="44.30008" lon="5.6644">
        <ele>733</ele>
        <time>2018-07-17T11:20:31Z</time>
      </trkpt>
      <trkpt lat="44.30009" lon="5.66439">
        <ele>733</ele>
        <time>2018-07-17T11:20:33Z</time>
      </trkpt>
      <trkpt lat="44.3001" lon="5.66437">
        <ele>733</ele>
        <time>2018-07-17T11:20:35Z</time>
      </trkpt>
      <trkpt lat="44.30012" lon="5.66436">
        <ele>733</ele>
        <time>2018-07-17T11:20:37Z</time>
      </trkpt>
      <trkpt lat="44.30013" lon="5.66434">
        <ele>733</ele>
        <time>2018-07-17T11:20:39Z</time>
      </trkpt>
      <trkpt lat="44.30014" lon="5.66433">
        <ele>733</ele>
        <time>2018-07-17T11:20:41Z</time>
      </trkpt>
      <trkpt lat="44.30016" lon="5.66431">
        <ele>733</ele>
        <time>2018-07-17T11:20:43Z</time>
      </trkpt>
      <trkpt lat="44.30017" lon="5.66429">
        <ele>733</ele>
        <time>2018-07-17T11:20:45Z</time>
      </trkpt>
      <trkpt lat="44.30018" lon="5.66426">
        <ele>733</ele>
        <time>2018-07-17T11:20:47Z</time>
      </trkpt>
      <trkpt lat="44.30019" lon="5.66424">
        <ele>733</ele>
        <time>2018-07-17T11:20:49Z</time>
      </trkpt>
      <trkpt lat="44.3002" lon="5.66422">
        <ele>733</ele>
        <time>2018-07-17T11:20:51Z</time>
      </trkpt>
      <trkpt lat="44.30021" lon="5.66421">
        <ele>733</ele>
        <time>2018-07-17T11:20:52Z</time>
      </trkpt>
      <trkpt lat="44.30022" lon="5.66419">
        <ele>733</ele>
        <time>2018-07-17T11:20:54Z</time>
      </trkpt>
      <trkpt lat="44.30023" lon="5.66417">
        <ele>733</ele>
        <time>2018-07-17T11:20:56Z</time>
      </trkpt>
      <trkpt lat="44.30023" lon="5.66415">
        <ele>733</ele>
        <time>2018-07-17T11:20:57Z</time>
      </trkpt>
      <trkpt lat="44.30024" lon="5.66413">
        <ele>733</ele>
        <time>2018-07-17T11:20:59Z</time>
      </trkpt>
      <trkpt lat="44.30026" lon="5.66412">
        <ele>733</ele>
        <time>2018-07-17T11:21:01Z</time>
      </trkpt>
      <trkpt lat="44.30027" lon="5.6641">
        <ele>733</ele>
        <time>2018-07-17T11:21:03Z</time>
      </trkpt>
      <trkpt lat="44.30028" lon="5.66409">
        <ele>733</ele>
        <time>2018-07-17T11:21:05Z</time>
      </trkpt>
      <trkpt lat="44.3003" lon="5.66407">
        <ele>733</ele>
        <time>2018-07-17T11:21:07Z</time>
      </trkpt>
      <trkpt lat="44.30031" lon="5.66407">
        <ele>733</ele>
        <time>2018-07-17T11:21:09Z</time>
      </trkpt>
      <trkpt lat="44.30032" lon="5.66406">
        <ele>733</ele>
        <time>2018-07-17T11:21:11Z</time>
      </trkpt>
      <trkpt lat="44.30033" lon="5.66406">
        <ele>733</ele>
        <time>2018-07-17T11:21:13Z</time>
      </trkpt>
      <trkpt lat="44.30035" lon="5.66407">
        <ele>733</ele>
        <time>2018-07-17T11:21:15Z</time>
      </trkpt>
      <trkpt lat="44.30036" lon="5.66408">
        <ele>733</ele>
        <time>2018-07-17T11:21:20Z</time>
      </trkpt>
      <trkpt lat="44.30037" lon="5.66409">
        <ele>733</ele>
        <time>2018-07-17T11:21:26Z</time>
      </trkpt>
      <trkpt lat="44.30038" lon="5.6641">
        <ele>733</ele>
        <time>2018-07-17T11:21:31Z</time>
      </trkpt>
      <trkpt lat="44.3004" lon="5.66411">
        <ele>733</ele>
        <time>2018-07-17T11:21:35Z</time>
      </trkpt>
      <trkpt lat="44.30041" lon="5.66411">
        <ele>733</ele>
        <time>2018-07-17T11:21:44Z</time>
      </trkpt>
      <trkpt lat="44.30041" lon="5.66413">
        <ele>733</ele>
        <time>2018-07-17T11:21:56Z</time>
      </trkpt>
      <trkpt lat="44.3004" lon="5.66414">
        <ele>733</ele>
        <time>2018-07-17T11:22:03Z</time>
      </trkpt>
      <trkpt lat="44.3004" lon="5.66416">
        <ele>728</ele>
        <time>2018-07-17T11:22:20Z</time>
      </trkpt>
      <trkpt lat="44.30042" lon="5.66416">
        <ele>726</ele>
        <time>2018-07-17T11:22:52Z</time>
      </trkpt>
      <trkpt lat="44.30043" lon="5.66417">
        <ele>726</ele>
        <time>2018-07-17T11:23:00Z</time>
      </trkpt>
      <trkpt lat="44.30043" lon="5.66415">
        <ele>726</ele>
        <time>2018-07-17T11:23:04Z</time>
      </trkpt>
      <trkpt lat="44.30043" lon="5.66414">
        <ele>726</ele>
        <time>2018-07-17T11:23:07Z</time>
      </trkpt>
      <trkpt lat="44.30042" lon="5.66412">
        <ele>726</ele>
        <time>2018-07-17T11:23:08Z</time>
      </trkpt>
      <trkpt lat="44.3004" lon="5.6641">
        <ele>727</ele>
        <time>2018-07-17T11:23:09Z</time>
      </trkpt>
      <trkpt lat="44.30042" lon="5.66412">
        <ele>731</ele>
        <time>2018-07-17T11:23:16Z</time>
      </trkpt>
      <trkpt lat="44.30043" lon="5.66412">
        <ele>732</ele>
        <time>2018-07-17T11:23:20Z</time>
      </trkpt>
      <trkpt lat="44.30045" lon="5.66411">
        <ele>732</ele>
        <time>2018-07-17T11:23:23Z</time>
      </trkpt>
      <trkpt lat="44.30046" lon="5.66411">
        <ele>732</ele>
        <time>2018-07-17T11:23:32Z</time>
      </trkpt>
      <trkpt lat="44.30047" lon="5.66411">
        <ele>733</ele>
        <time>2018-07-17T11:23:34Z</time>
      </trkpt>
      <trkpt lat="44.30048" lon="5.6641">
        <ele>733</ele>
        <time>2018-07-17T11:23:36Z</time>
      </trkpt>
      <trkpt lat="44.30048" lon="5.66409">
        <ele>734</ele>
        <time>2018-07-17T11:23:42Z</time>
      </trkpt>
      <trkpt lat="44.30049" lon="5.66407">
        <ele>734</ele>
        <time>2018-07-17T11:23:51Z</time>
      </trkpt>
      <trkpt lat="44.30051" lon="5.66405">
        <ele>734</ele>
        <time>2018-07-17T11:23:54Z</time>
      </trkpt>
      <trkpt lat="44.30052" lon="5.66404">
        <ele>734</ele>
        <time>2018-07-17T11:23:56Z</time>
      </trkpt>
      <trkpt lat="44.30053" lon="5.66402">
        <ele>734</ele>
        <time>2018-07-17T11:23:58Z</time>
      </trkpt>
      <trkpt lat="44.30054" lon="5.664">
        <ele>734</ele>
        <time>2018-07-17T11:24:00Z</time>
      </trkpt>
      <trkpt lat="44.30055" lon="5.66398">
        <ele>734</ele>
        <time>2018-07-17T11:24:02Z</time>
      </trkpt>
      <trkpt lat="44.30056" lon="5.66396">
        <ele>734</ele>
        <time>2018-07-17T11:24:04Z</time>
      </trkpt>
      <trkpt lat="44.30057" lon="5.66395">
        <ele>734</ele>
        <time>2018-07-17T11:24:06Z</time>
      </trkpt>
      <trkpt lat="44.30058" lon="5.66393">
        <ele>734</ele>
        <time>2018-07-17T11:24:08Z</time>
      </trkpt>
      <trkpt lat="44.30059" lon="5.66391">
        <ele>734</ele>
        <time>2018-07-17T11:24:10Z</time>
      </trkpt>
      <trkpt lat="44.3006" lon="5.66389">
        <ele>734</ele>
        <time>2018-07-17T11:24:12Z</time>
      </trkpt>
      <trkpt lat="44.30061" lon="5.66388">
        <ele>734</ele>
        <time>2018-07-17T11:24:14Z</time>
      </trkpt>
      <trkpt lat="44.30062" lon="5.66386">
        <ele>734</ele>
        <time>2018-07-17T11:24:16Z</time>
      </trkpt>
      <trkpt lat="44.30062" lon="5.66384">
        <ele>734</ele>
        <time>2018-07-17T11:24:18Z</time>
      </trkpt>
      <trkpt lat="44.30063" lon="5.66382">
        <ele>734</ele>
        <time>2018-07-17T11:24:20Z</time>
      </trkpt>
      <trkpt lat="44.30064" lon="5.66382">
        <ele>734</ele>
        <time>2018-07-17T11:24:50Z</time>
      </trkpt>
      <trkpt lat="44.30066" lon="5.66381">
        <ele>734</ele>
        <time>2018-07-17T11:24:52Z</time>
      </trkpt>
      <trkpt lat="44.30067" lon="5.66378">
        <ele>734</ele>
        <time>2018-07-17T11:24:54Z</time>
      </trkpt>
      <trkpt lat="44.30069" lon="5.66377">
        <ele>734</ele>
        <time>2018-07-17T11:24:56Z</time>
      </trkpt>
      <trkpt lat="44.3007" lon="5.66376">
        <ele>734</ele>
        <time>2018-07-17T11:24:58Z</time>
      </trkpt>
      <trkpt lat="44.30072" lon="5.66374">
        <ele>734</ele>
        <time>2018-07-17T11:25:00Z</time>
      </trkpt>
      <trkpt lat="44.30073" lon="5.66373">
        <ele>734</ele>
        <time>2018-07-17T11:25:02Z</time>
      </trkpt>
      <trkpt lat="44.30074" lon="5.66372">
        <ele>734</ele>
        <time>2018-07-17T11:25:04Z</time>
      </trkpt>
      <trkpt lat="44.30076" lon="5.6637">
        <ele>733</ele>
        <time>2018-07-17T11:25:06Z</time>
      </trkpt>
      <trkpt lat="44.30077" lon="5.66369">
        <ele>733</ele>
        <time>2018-07-17T11:25:08Z</time>
      </trkpt>
      <trkpt lat="44.30078" lon="5.66367">
        <ele>733</ele>
        <time>2018-07-17T11:25:10Z</time>
      </trkpt>
      <trkpt lat="44.3008" lon="5.66365">
        <ele>733</ele>
        <time>2018-07-17T11:25:12Z</time>
      </trkpt>
      <trkpt lat="44.30081" lon="5.66363">
        <ele>733</ele>
        <time>2018-07-17T11:25:14Z</time>
      </trkpt>
      <trkpt lat="44.30082" lon="5.66361">
        <ele>733</ele>
        <time>2018-07-17T11:25:16Z</time>
      </trkpt>
      <trkpt lat="44.30083" lon="5.66359">
        <ele>733</ele>
        <time>2018-07-17T11:25:18Z</time>
      </trkpt>
      <trkpt lat="44.30085" lon="5.66358">
        <ele>733</ele>
        <time>2018-07-17T11:25:20Z</time>
      </trkpt>
      <trkpt lat="44.30087" lon="5.66357">
        <ele>733</ele>
        <time>2018-07-17T11:25:22Z</time>
      </trkpt>
      <trkpt lat="44.30088" lon="5.66355">
        <ele>733</ele>
        <time>2018-07-17T11:25:24Z</time>
      </trkpt>
      <trkpt lat="44.30089" lon="5.66353">
        <ele>733</ele>
        <time>2018-07-17T11:25:26Z</time>
      </trkpt>
      <trkpt lat="44.3009" lon="5.66352">
        <ele>733</ele>
        <time>2018-07-17T11:25:28Z</time>
      </trkpt>
      <trkpt lat="44.30092" lon="5.6635">
        <ele>733</ele>
        <time>2018-07-17T11:25:30Z</time>
      </trkpt>
      <trkpt lat="44.30093" lon="5.66348">
        <ele>733</ele>
        <time>2018-07-17T11:25:32Z</time>
      </trkpt>
      <trkpt lat="44.30094" lon="5.66347">
        <ele>733</ele>
        <time>2018-07-17T11:25:34Z</time>
      </trkpt>
      <trkpt lat="44.30096" lon="5.66345">
        <ele>733</ele>
        <time>2018-07-17T11:25:36Z</time>
      </trkpt>
      <trkpt lat="44.30097" lon="5.66344">
        <ele>733</ele>
        <time>2018-07-17T11:25:38Z</time>
      </trkpt>
      <trkpt lat="44.30098" lon="5.66342">
        <ele>733</ele>
        <time>2018-07-17T11:25:40Z</time>
      </trkpt>
      <trkpt lat="44.301" lon="5.6634">
        <ele>733</ele>
        <time>2018-07-17T11:25:42Z</time>
      </trkpt>
      <trkpt lat="44.30102" lon="5.66339">
        <ele>733</ele>
        <time>2018-07-17T11:25:44Z</time>
      </trkpt>
      <trkpt lat="44.30103" lon="5.66337">
        <ele>732</ele>
        <time>2018-07-17T11:25:46Z</time>
      </trkpt>
      <trkpt lat="44.30105" lon="5.66335">
        <ele>732</ele>
        <time>2018-07-17T11:25:49Z</time>
      </trkpt>
      <trkpt lat="44.30106" lon="5.66334">
        <ele>732</ele>
        <time>2018-07-17T11:25:51Z</time>
      </trkpt>
      <trkpt lat="44.30108" lon="5.66333">
        <ele>732</ele>
        <time>2018-07-17T11:25:53Z</time>
      </trkpt>
      <trkpt lat="44.3011" lon="5.66331">
        <ele>731</ele>
        <time>2018-07-17T11:25:55Z</time>
      </trkpt>
      <trkpt lat="44.30111" lon="5.66331">
        <ele>731</ele>
        <time>2018-07-17T11:25:57Z</time>
      </trkpt>
      <trkpt lat="44.30113" lon="5.6633">
        <ele>731</ele>
        <time>2018-07-17T11:25:59Z</time>
      </trkpt>
      <trkpt lat="44.30115" lon="5.66329">
        <ele>731</ele>
        <time>2018-07-17T11:26:01Z</time>
      </trkpt>
      <trkpt lat="44.30116" lon="5.66328">
        <ele>731</ele>
        <time>2018-07-17T11:26:03Z</time>
      </trkpt>
      <trkpt lat="44.30118" lon="5.66327">
        <ele>731</ele>
        <time>2018-07-17T11:26:05Z</time>
      </trkpt>
      <trkpt lat="44.3012" lon="5.66328">
        <ele>730</ele>
        <time>2018-07-17T11:26:07Z</time>
      </trkpt>
      <trkpt lat="44.30122" lon="5.66328">
        <ele>730</ele>
        <time>2018-07-17T11:26:09Z</time>
      </trkpt>
      <trkpt lat="44.30124" lon="5.66329">
        <ele>730</ele>
        <time>2018-07-17T11:26:11Z</time>
      </trkpt>
      <trkpt lat="44.30125" lon="5.6633">
        <ele>729</ele>
        <time>2018-07-17T11:26:13Z</time>
      </trkpt>
      <trkpt lat="44.30127" lon="5.66332">
        <ele>729</ele>
        <time>2018-07-17T11:26:15Z</time>
      </trkpt>
      <trkpt lat="44.30128" lon="5.66334">
        <ele>729</ele>
        <time>2018-07-17T11:26:17Z</time>
      </trkpt>
      <trkpt lat="44.3013" lon="5.66335">
        <ele>729</ele>
        <time>2018-07-17T11:26:18Z</time>
      </trkpt>
      <trkpt lat="44.30131" lon="5.66336">
        <ele>729</ele>
        <time>2018-07-17T11:26:20Z</time>
      </trkpt>
      <trkpt lat="44.30133" lon="5.66338">
        <ele>729</ele>
        <time>2018-07-17T11:26:22Z</time>
      </trkpt>
      <trkpt lat="44.30135" lon="5.6634">
        <ele>728</ele>
        <time>2018-07-17T11:26:24Z</time>
      </trkpt>
      <trkpt lat="44.30136" lon="5.66342">
        <ele>728</ele>
        <time>2018-07-17T11:26:26Z</time>
      </trkpt>
      <trkpt lat="44.30137" lon="5.66344">
        <ele>728</ele>
        <time>2018-07-17T11:26:28Z</time>
      </trkpt>
      <trkpt lat="44.30138" lon="5.66346">
        <ele>728</ele>
        <time>2018-07-17T11:26:30Z</time>
      </trkpt>
      <trkpt lat="44.3014" lon="5.66349">
        <ele>727</ele>
        <time>2018-07-17T11:26:32Z</time>
      </trkpt>
      <trkpt lat="44.30141" lon="5.66352">
        <ele>727</ele>
        <time>2018-07-17T11:26:34Z</time>
      </trkpt>
      <trkpt lat="44.30143" lon="5.66354">
        <ele>727</ele>
        <time>2018-07-17T11:26:36Z</time>
      </trkpt>
      <trkpt lat="44.30144" lon="5.66357">
        <ele>726</ele>
        <time>2018-07-17T11:26:38Z</time>
      </trkpt>
      <trkpt lat="44.30146" lon="5.66359">
        <ele>726</ele>
        <time>2018-07-17T11:26:40Z</time>
      </trkpt>
      <trkpt lat="44.30147" lon="5.66361">
        <ele>726</ele>
        <time>2018-07-17T11:26:41Z</time>
      </trkpt>
      <trkpt lat="44.30147" lon="5.66362">
        <ele>726</ele>
        <time>2018-07-17T11:26:42Z</time>
      </trkpt>
      <trkpt lat="44.30148" lon="5.66364">
        <ele>725</ele>
        <time>2018-07-17T11:26:43Z</time>
      </trkpt>
      <trkpt lat="44.3015" lon="5.66366">
        <ele>725</ele>
        <time>2018-07-17T11:26:45Z</time>
      </trkpt>
      <trkpt lat="44.30151" lon="5.66369">
        <ele>725</ele>
        <time>2018-07-17T11:26:47Z</time>
      </trkpt>
      <trkpt lat="44.30151" lon="5.6637">
        <ele>725</ele>
        <time>2018-07-17T11:26:48Z</time>
      </trkpt>
      <trkpt lat="44.30152" lon="5.66372">
        <ele>725</ele>
        <time>2018-07-17T11:26:49Z</time>
      </trkpt>
      <trkpt lat="44.30153" lon="5.66373">
        <ele>725</ele>
        <time>2018-07-17T11:26:50Z</time>
      </trkpt>
      <trkpt lat="44.30153" lon="5.66375">
        <ele>725</ele>
        <time>2018-07-17T11:26:51Z</time>
      </trkpt>
      <trkpt lat="44.30154" lon="5.66377">
        <ele>725</ele>
        <time>2018-07-17T11:26:52Z</time>
      </trkpt>
      <trkpt lat="44.30154" lon="5.66379">
        <ele>725</ele>
        <time>2018-07-17T11:26:54Z</time>
      </trkpt>
      <trkpt lat="44.30155" lon="5.66382">
        <ele>725</ele>
        <time>2018-07-17T11:26:56Z</time>
      </trkpt>
      <trkpt lat="44.30156" lon="5.66384">
        <ele>725</ele>
        <time>2018-07-17T11:26:57Z</time>
      </trkpt>
      <trkpt lat="44.30156" lon="5.66385">
        <ele>725</ele>
        <time>2018-07-17T11:26:58Z</time>
      </trkpt>
      <trkpt lat="44.30157" lon="5.66387">
        <ele>724</ele>
        <time>2018-07-17T11:26:59Z</time>
      </trkpt>
      <trkpt lat="44.30157" lon="5.66388">
        <ele>724</ele>
        <time>2018-07-17T11:27:00Z</time>
      </trkpt>
      <trkpt lat="44.30158" lon="5.66391">
        <ele>724</ele>
        <time>2018-07-17T11:27:02Z</time>
      </trkpt>
      <trkpt lat="44.30159" lon="5.66392">
        <ele>723</ele>
        <time>2018-07-17T11:27:03Z</time>
      </trkpt>
      <trkpt lat="44.30159" lon="5.66394">
        <ele>723</ele>
        <time>2018-07-17T11:27:04Z</time>
      </trkpt>
      <trkpt lat="44.3016" lon="5.66395">
        <ele>723</ele>
        <time>2018-07-17T11:27:05Z</time>
      </trkpt>
      <trkpt lat="44.30161" lon="5.66397">
        <ele>723</ele>
        <time>2018-07-17T11:27:06Z</time>
      </trkpt>
      <trkpt lat="44.30161" lon="5.66398">
        <ele>723</ele>
        <time>2018-07-17T11:27:07Z</time>
      </trkpt>
      <trkpt lat="44.30162" lon="5.664">
        <ele>723</ele>
        <time>2018-07-17T11:27:08Z</time>
      </trkpt>
      <trkpt lat="44.30163" lon="5.66402">
        <ele>722</ele>
        <time>2018-07-17T11:27:09Z</time>
      </trkpt>
      <trkpt lat="44.30163" lon="5.66403">
        <ele>722</ele>
        <time>2018-07-17T11:27:10Z</time>
      </trkpt>
      <trkpt lat="44.30164" lon="5.66405">
        <ele>722</ele>
        <time>2018-07-17T11:27:11Z</time>
      </trkpt>
      <trkpt lat="44.30164" lon="5.66406">
        <ele>722</ele>
        <time>2018-07-17T11:27:12Z</time>
      </trkpt>
      <trkpt lat="44.30165" lon="5.66408">
        <ele>722</ele>
        <time>2018-07-17T11:27:13Z</time>
      </trkpt>
      <trkpt lat="44.30166" lon="5.6641">
        <ele>722</ele>
        <time>2018-07-17T11:27:14Z</time>
      </trkpt>
      <trkpt lat="44.30167" lon="5.66411">
        <ele>722</ele>
        <time>2018-07-17T11:27:15Z</time>
      </trkpt>
      <trkpt lat="44.30167" lon="5.66413">
        <ele>722</ele>
        <time>2018-07-17T11:27:16Z</time>
      </trkpt>
      <trkpt lat="44.30168" lon="5.66414">
        <ele>722</ele>
        <time>2018-07-17T11:27:17Z</time>
      </trkpt>
      <trkpt lat="44.30169" lon="5.66417">
        <ele>722</ele>
        <time>2018-07-17T11:27:19Z</time>
      </trkpt>
      <trkpt lat="44.3017" lon="5.66419">
        <ele>722</ele>
        <time>2018-07-17T11:27:21Z</time>
      </trkpt>
      <trkpt lat="44.30172" lon="5.66422">
        <ele>722</ele>
        <time>2018-07-17T11:27:23Z</time>
      </trkpt>
      <trkpt lat="44.30173" lon="5.66423">
        <ele>722</ele>
        <time>2018-07-17T11:27:24Z</time>
      </trkpt>
      <trkpt lat="44.30174" lon="5.66426">
        <ele>721</ele>
        <time>2018-07-17T11:27:26Z</time>
      </trkpt>
      <trkpt lat="44.30175" lon="5.66428">
        <ele>721</ele>
        <time>2018-07-17T11:27:28Z</time>
      </trkpt>
      <trkpt lat="44.30177" lon="5.6643">
        <ele>720</ele>
        <time>2018-07-17T11:27:30Z</time>
      </trkpt>
      <trkpt lat="44.30178" lon="5.66432">
        <ele>720</ele>
        <time>2018-07-17T11:27:32Z</time>
      </trkpt>
      <trkpt lat="44.30181" lon="5.66434">
        <ele>720</ele>
        <time>2018-07-17T11:27:34Z</time>
      </trkpt>
      <trkpt lat="44.30182" lon="5.66435">
        <ele>720</ele>
        <time>2018-07-17T11:27:36Z</time>
      </trkpt>
      <trkpt lat="44.30184" lon="5.66437">
        <ele>720</ele>
        <time>2018-07-17T11:27:38Z</time>
      </trkpt>
      <trkpt lat="44.30186" lon="5.66439">
        <ele>719</ele>
        <time>2018-07-17T11:27:40Z</time>
      </trkpt>
      <trkpt lat="44.30187" lon="5.66441">
        <ele>719</ele>
        <time>2018-07-17T11:27:42Z</time>
      </trkpt>
      <trkpt lat="44.30189" lon="5.66442">
        <ele>719</ele>
        <time>2018-07-17T11:27:44Z</time>
      </trkpt>
      <trkpt lat="44.30191" lon="5.66444">
        <ele>719</ele>
        <time>2018-07-17T11:27:46Z</time>
      </trkpt>
      <trkpt lat="44.30193" lon="5.66445">
        <ele>719</ele>
        <time>2018-07-17T11:27:48Z</time>
      </trkpt>
      <trkpt lat="44.30194" lon="5.66446">
        <ele>719</ele>
        <time>2018-07-17T11:27:49Z</time>
      </trkpt>
      <trkpt lat="44.30196" lon="5.66447">
        <ele>719</ele>
        <time>2018-07-17T11:27:50Z</time>
      </trkpt>
      <trkpt lat="44.30198" lon="5.66448">
        <ele>719</ele>
        <time>2018-07-17T11:27:52Z</time>
      </trkpt>
      <trkpt lat="44.302" lon="5.66449">
        <ele>719</ele>
        <time>2018-07-17T11:27:54Z</time>
      </trkpt>
      <trkpt lat="44.30201" lon="5.6645">
        <ele>718</ele>
        <time>2018-07-17T11:27:55Z</time>
      </trkpt>
      <trkpt lat="44.30204" lon="5.66451">
        <ele>718</ele>
        <time>2018-07-17T11:27:57Z</time>
      </trkpt>
      <trkpt lat="44.30205" lon="5.66452">
        <ele>718</ele>
        <time>2018-07-17T11:27:59Z</time>
      </trkpt>
      <trkpt lat="44.30207" lon="5.66453">
        <ele>718</ele>
        <time>2018-07-17T11:28:01Z</time>
      </trkpt>
      <trkpt lat="44.30209" lon="5.66454">
        <ele>718</ele>
        <time>2018-07-17T11:28:03Z</time>
      </trkpt>
      <trkpt lat="44.3021" lon="5.66454">
        <ele>718</ele>
        <time>2018-07-17T11:28:04Z</time>
      </trkpt>
      <trkpt lat="44.30211" lon="5.66454">
        <ele>718</ele>
        <time>2018-07-17T11:28:05Z</time>
      </trkpt>
      <trkpt lat="44.30212" lon="5.66454">
        <ele>718</ele>
        <time>2018-07-17T11:28:06Z</time>
      </trkpt>
      <trkpt lat="44.30214" lon="5.66455">
        <ele>717</ele>
        <time>2018-07-17T11:28:08Z</time>
      </trkpt>
      <trkpt lat="44.30217" lon="5.66456">
        <ele>717</ele>
        <time>2018-07-17T11:28:10Z</time>
      </trkpt>
      <trkpt lat="44.30218" lon="5.66456">
        <ele>717</ele>
        <time>2018-07-17T11:28:11Z</time>
      </trkpt>
      <trkpt lat="44.30219" lon="5.66456">
        <ele>717</ele>
        <time>2018-07-17T11:28:12Z</time>
      </trkpt>
      <trkpt lat="44.30221" lon="5.66456">
        <ele>717</ele>
        <time>2018-07-17T11:28:14Z</time>
      </trkpt>
      <trkpt lat="44.30223" lon="5.66456">
        <ele>717</ele>
        <time>2018-07-17T11:28:16Z</time>
      </trkpt>
      <trkpt lat="44.30224" lon="5.66456">
        <ele>717</ele>
        <time>2018-07-17T11:28:17Z</time>
      </trkpt>
      <trkpt lat="44.30225" lon="5.66456">
        <ele>717</ele>
        <time>2018-07-17T11:28:18Z</time>
      </trkpt>
      <trkpt lat="44.30227" lon="5.66455">
        <ele>717</ele>
        <time>2018-07-17T11:28:19Z</time>
      </trkpt>
      <trkpt lat="44.30228" lon="5.66454">
        <ele>717</ele>
        <time>2018-07-17T11:28:21Z</time>
      </trkpt>
      <trkpt lat="44.3023" lon="5.66453">
        <ele>717</ele>
        <time>2018-07-17T11:28:23Z</time>
      </trkpt>
      <trkpt lat="44.30232" lon="5.66453">
        <ele>717</ele>
        <time>2018-07-17T11:28:24Z</time>
      </trkpt>
      <trkpt lat="44.30233" lon="5.66453">
        <ele>717</ele>
        <time>2018-07-17T11:28:25Z</time>
      </trkpt>
      <trkpt lat="44.30235" lon="5.66452">
        <ele>717</ele>
        <time>2018-07-17T11:28:27Z</time>
      </trkpt>
      <trkpt lat="44.30236" lon="5.66452">
        <ele>717</ele>
        <time>2018-07-17T11:28:28Z</time>
      </trkpt>
      <trkpt lat="44.30238" lon="5.66451">
        <ele>717</ele>
        <time>2018-07-17T11:28:30Z</time>
      </trkpt>
      <trkpt lat="44.3024" lon="5.6645">
        <ele>717</ele>
        <time>2018-07-17T11:28:31Z</time>
      </trkpt>
      <trkpt lat="44.30242" lon="5.66449">
        <ele>717</ele>
        <time>2018-07-17T11:28:33Z</time>
      </trkpt>
      <trkpt lat="44.30244" lon="5.66449">
        <ele>717</ele>
        <time>2018-07-17T11:28:35Z</time>
      </trkpt>
      <trkpt lat="44.30246" lon="5.66448">
        <ele>717</ele>
        <time>2018-07-17T11:28:37Z</time>
      </trkpt>
      <trkpt lat="44.30247" lon="5.66447">
        <ele>717</ele>
        <time>2018-07-17T11:28:39Z</time>
      </trkpt>
      <trkpt lat="44.30249" lon="5.66446">
        <ele>717</ele>
        <time>2018-07-17T11:28:41Z</time>
      </trkpt>
      <trkpt lat="44.30251" lon="5.66444">
        <ele>717</ele>
        <time>2018-07-17T11:28:43Z</time>
      </trkpt>
      <trkpt lat="44.30252" lon="5.66442">
        <ele>717</ele>
        <time>2018-07-17T11:28:45Z</time>
      </trkpt>
      <trkpt lat="44.30254" lon="5.66441">
        <ele>717</ele>
        <time>2018-07-17T11:28:47Z</time>
      </trkpt>
      <trkpt lat="44.30256" lon="5.6644">
        <ele>717</ele>
        <time>2018-07-17T11:28:49Z</time>
      </trkpt>
      <trkpt lat="44.30257" lon="5.66438">
        <ele>717</ele>
        <time>2018-07-17T11:28:51Z</time>
      </trkpt>
      <trkpt lat="44.30259" lon="5.66437">
        <ele>717</ele>
        <time>2018-07-17T11:28:53Z</time>
      </trkpt>
      <trkpt lat="44.3026" lon="5.66435">
        <ele>717</ele>
        <time>2018-07-17T11:28:55Z</time>
      </trkpt>
      <trkpt lat="44.30262" lon="5.66434">
        <ele>717</ele>
        <time>2018-07-17T11:28:57Z</time>
      </trkpt>
      <trkpt lat="44.30263" lon="5.66432">
        <ele>717</ele>
        <time>2018-07-17T11:28:59Z</time>
      </trkpt>
      <trkpt lat="44.30265" lon="5.66431">
        <ele>717</ele>
        <time>2018-07-17T11:29:01Z</time>
      </trkpt>
      <trkpt lat="44.30267" lon="5.6643">
        <ele>717</ele>
        <time>2018-07-17T11:29:03Z</time>
      </trkpt>
      <trkpt lat="44.30268" lon="5.66429">
        <ele>717</ele>
        <time>2018-07-17T11:29:05Z</time>
      </trkpt>
      <trkpt lat="44.30269" lon="5.66427">
        <ele>717</ele>
        <time>2018-07-17T11:29:07Z</time>
      </trkpt>
      <trkpt lat="44.3027" lon="5.66426">
        <ele>717</ele>
        <time>2018-07-17T11:29:09Z</time>
      </trkpt>
      <trkpt lat="44.30272" lon="5.66425">
        <ele>717</ele>
        <time>2018-07-17T11:29:11Z</time>
      </trkpt>
      <trkpt lat="44.30273" lon="5.66424">
        <ele>717</ele>
        <time>2018-07-17T11:29:13Z</time>
      </trkpt>
      <trkpt lat="44.30273" lon="5.66422">
        <ele>717</ele>
        <time>2018-07-17T11:29:16Z</time>
      </trkpt>
      <trkpt lat="44.30273" lon="5.6642">
        <ele>717</ele>
        <time>2018-07-17T11:29:18Z</time>
      </trkpt>
      <trkpt lat="44.30273" lon="5.66422">
        <ele>717</ele>
        <time>2018-07-17T11:29:45Z</time>
      </trkpt>
      <trkpt lat="44.30274" lon="5.66423">
        <ele>717</ele>
        <time>2018-07-17T11:29:48Z</time>
      </trkpt>
      <trkpt lat="44.30273" lon="5.66422">
        <ele>718</ele>
        <time>2018-07-17T11:30:00Z</time>
      </trkpt>
      <trkpt lat="44.30273" lon="5.6642">
        <ele>722</ele>
        <time>2018-07-17T11:30:15Z</time>
      </trkpt>
      <trkpt lat="44.30274" lon="5.66419">
        <ele>724</ele>
        <time>2018-07-17T11:30:29Z</time>
      </trkpt>
      <trkpt lat="44.30273" lon="5.66421">
        <ele>724</ele>
        <time>2018-07-17T11:30:33Z</time>
      </trkpt>
      <trkpt lat="44.30272" lon="5.6642">
        <ele>724</ele>
        <time>2018-07-17T11:30:35Z</time>
      </trkpt>
      <trkpt lat="44.30273" lon="5.66421">
        <ele>724</ele>
        <time>2018-07-17T11:30:49Z</time>
      </trkpt>
      <trkpt lat="44.30275" lon="5.66422">
        <ele>724</ele>
        <time>2018-07-17T11:30:51Z</time>
      </trkpt>
      <trkpt lat="44.30277" lon="5.66423">
        <ele>724</ele>
        <time>2018-07-17T11:30:53Z</time>
      </trkpt>
      <trkpt lat="44.30278" lon="5.66425">
        <ele>724</ele>
        <time>2018-07-17T11:30:55Z</time>
      </trkpt>
      <trkpt lat="44.30279" lon="5.66426">
        <ele>724</ele>
        <time>2018-07-17T11:30:57Z</time>
      </trkpt>
    </trkseg>
  </trk>
</gpx>